<?xml version="1.0" encoding="UTF-8" standalone="no" ?>
<gpx xmlns="http://www.topografix.com/GPX/1/1" xmlns:xsi="http://www.w3.org/2001/XMLSchema-instance" xsi:schemaLocation="http://www.topografix.com/GPX/1/1 http://www.topografix.com/GPX/1/1/gpx.xsd" version="1.1" creator="VisuGPX - https://www.visugpx.com">
  <metadata>
    <name>20190924-Neufchateau-Bourbonne les Bains</name>
    <desc><![CDATA[9ème jour de notre tour de France]]></desc>
  </metadata>
  <trk>
    <name><![CDATA[Tracé 20190924-092318]]></name>
    <trkseg>
      <trkpt lat="48.35403" lon="5.69296">
        <ele>276.297</ele>
        <time>2019-09-24T09:23:18Z</time>
      </trkpt>
      <trkpt lat="48.35398" lon="5.693">
        <ele>283.46</ele>
        <time>2019-09-24T09:23:21Z</time>
      </trkpt>
      <trkpt lat="48.35398" lon="5.693">
        <ele>282.622</ele>
        <time>2019-09-24T09:23:57Z</time>
      </trkpt>
      <trkpt lat="48.35398" lon="5.69299">
        <ele>282.844</ele>
        <time>2019-09-24T09:24:00Z</time>
      </trkpt>
      <trkpt lat="48.35397" lon="5.69287">
        <ele>286.837</ele>
        <time>2019-09-24T09:24:06Z</time>
      </trkpt>
      <trkpt lat="48.35394" lon="5.69278">
        <ele>288.165</ele>
        <time>2019-09-24T09:24:09Z</time>
      </trkpt>
      <trkpt lat="48.3539" lon="5.69273">
        <ele>287.395</ele>
        <time>2019-09-24T09:24:12Z</time>
      </trkpt>
      <trkpt lat="48.35386" lon="5.69281">
        <ele>288.318</ele>
        <time>2019-09-24T09:24:15Z</time>
      </trkpt>
      <trkpt lat="48.35388" lon="5.69299">
        <ele>289.252</ele>
        <time>2019-09-24T09:24:18Z</time>
      </trkpt>
      <trkpt lat="48.35389" lon="5.69315">
        <ele>289.917</ele>
        <time>2019-09-24T09:24:21Z</time>
      </trkpt>
      <trkpt lat="48.3539" lon="5.6933">
        <ele>290.567</ele>
        <time>2019-09-24T09:24:24Z</time>
      </trkpt>
      <trkpt lat="48.35391" lon="5.69345">
        <ele>291.348</ele>
        <time>2019-09-24T09:24:27Z</time>
      </trkpt>
      <trkpt lat="48.3539" lon="5.6936">
        <ele>292.523</ele>
        <time>2019-09-24T09:24:30Z</time>
      </trkpt>
      <trkpt lat="48.35387" lon="5.69378">
        <ele>293.13</ele>
        <time>2019-09-24T09:24:33Z</time>
      </trkpt>
      <trkpt lat="48.35382" lon="5.69398">
        <ele>293.489</ele>
        <time>2019-09-24T09:24:36Z</time>
      </trkpt>
      <trkpt lat="48.35376" lon="5.6942">
        <ele>293.898</ele>
        <time>2019-09-24T09:24:39Z</time>
      </trkpt>
      <trkpt lat="48.35368" lon="5.69441">
        <ele>293.67</ele>
        <time>2019-09-24T09:24:42Z</time>
      </trkpt>
      <trkpt lat="48.35359" lon="5.69459">
        <ele>294.309</ele>
        <time>2019-09-24T09:24:45Z</time>
      </trkpt>
      <trkpt lat="48.35347" lon="5.69476">
        <ele>293.855</ele>
        <time>2019-09-24T09:24:48Z</time>
      </trkpt>
      <trkpt lat="48.35337" lon="5.69492">
        <ele>294.274</ele>
        <time>2019-09-24T09:24:51Z</time>
      </trkpt>
      <trkpt lat="48.35328" lon="5.6951">
        <ele>293.996</ele>
        <time>2019-09-24T09:24:54Z</time>
      </trkpt>
      <trkpt lat="48.35317" lon="5.69528">
        <ele>293.479</ele>
        <time>2019-09-24T09:24:57Z</time>
      </trkpt>
      <trkpt lat="48.35306" lon="5.69544">
        <ele>293.549</ele>
        <time>2019-09-24T09:25:00Z</time>
      </trkpt>
      <trkpt lat="48.35297" lon="5.6956">
        <ele>293.824</ele>
        <time>2019-09-24T09:25:03Z</time>
      </trkpt>
      <trkpt lat="48.35289" lon="5.69578">
        <ele>294.521</ele>
        <time>2019-09-24T09:25:06Z</time>
      </trkpt>
      <trkpt lat="48.35279" lon="5.69596">
        <ele>294.996</ele>
        <time>2019-09-24T09:25:09Z</time>
      </trkpt>
      <trkpt lat="48.3527" lon="5.69616">
        <ele>294.413</ele>
        <time>2019-09-24T09:25:12Z</time>
      </trkpt>
      <trkpt lat="48.35261" lon="5.69634">
        <ele>293.752</ele>
        <time>2019-09-24T09:25:15Z</time>
      </trkpt>
      <trkpt lat="48.35253" lon="5.6965">
        <ele>293.122</ele>
        <time>2019-09-24T09:25:18Z</time>
      </trkpt>
      <trkpt lat="48.35246" lon="5.69668">
        <ele>292.379</ele>
        <time>2019-09-24T09:25:21Z</time>
      </trkpt>
      <trkpt lat="48.3524" lon="5.69683">
        <ele>291.783</ele>
        <time>2019-09-24T09:25:24Z</time>
      </trkpt>
      <trkpt lat="48.35233" lon="5.69697">
        <ele>291.414</ele>
        <time>2019-09-24T09:25:27Z</time>
      </trkpt>
      <trkpt lat="48.35229" lon="5.69711">
        <ele>290.636</ele>
        <time>2019-09-24T09:25:30Z</time>
      </trkpt>
      <trkpt lat="48.35221" lon="5.6972">
        <ele>289.53</ele>
        <time>2019-09-24T09:25:33Z</time>
      </trkpt>
      <trkpt lat="48.35213" lon="5.69717">
        <ele>288.749</ele>
        <time>2019-09-24T09:25:36Z</time>
      </trkpt>
      <trkpt lat="48.35207" lon="5.69704">
        <ele>288.352</ele>
        <time>2019-09-24T09:25:39Z</time>
      </trkpt>
      <trkpt lat="48.35198" lon="5.69688">
        <ele>288.511</ele>
        <time>2019-09-24T09:25:42Z</time>
      </trkpt>
      <trkpt lat="48.3519" lon="5.69672">
        <ele>289.313</ele>
        <time>2019-09-24T09:25:45Z</time>
      </trkpt>
      <trkpt lat="48.35184" lon="5.69658">
        <ele>290.517</ele>
        <time>2019-09-24T09:25:48Z</time>
      </trkpt>
      <trkpt lat="48.35174" lon="5.69645">
        <ele>290.806</ele>
        <time>2019-09-24T09:25:51Z</time>
      </trkpt>
      <trkpt lat="48.35165" lon="5.6964">
        <ele>290.433</ele>
        <time>2019-09-24T09:25:54Z</time>
      </trkpt>
      <trkpt lat="48.35156" lon="5.69634">
        <ele>290.097</ele>
        <time>2019-09-24T09:25:57Z</time>
      </trkpt>
      <trkpt lat="48.35147" lon="5.69629">
        <ele>289.3</ele>
        <time>2019-09-24T09:26:00Z</time>
      </trkpt>
      <trkpt lat="48.35134" lon="5.69623">
        <ele>291.257</ele>
        <time>2019-09-24T09:26:03Z</time>
      </trkpt>
      <trkpt lat="48.35123" lon="5.69619">
        <ele>291.479</ele>
        <time>2019-09-24T09:26:06Z</time>
      </trkpt>
      <trkpt lat="48.35112" lon="5.69615">
        <ele>291.795</ele>
        <time>2019-09-24T09:26:09Z</time>
      </trkpt>
      <trkpt lat="48.35104" lon="5.69611">
        <ele>292.235</ele>
        <time>2019-09-24T09:26:12Z</time>
      </trkpt>
      <trkpt lat="48.35096" lon="5.69599">
        <ele>293.154</ele>
        <time>2019-09-24T09:26:15Z</time>
      </trkpt>
      <trkpt lat="48.3509" lon="5.69581">
        <ele>294.318</ele>
        <time>2019-09-24T09:26:18Z</time>
      </trkpt>
      <trkpt lat="48.35083" lon="5.69565">
        <ele>294.205</ele>
        <time>2019-09-24T09:26:21Z</time>
      </trkpt>
      <trkpt lat="48.35073" lon="5.69548">
        <ele>292.407</ele>
        <time>2019-09-24T09:26:24Z</time>
      </trkpt>
      <trkpt lat="48.35063" lon="5.69524">
        <ele>292.89</ele>
        <time>2019-09-24T09:26:27Z</time>
      </trkpt>
      <trkpt lat="48.35053" lon="5.69503">
        <ele>292.545</ele>
        <time>2019-09-24T09:26:30Z</time>
      </trkpt>
      <trkpt lat="48.35043" lon="5.69485">
        <ele>291.965</ele>
        <time>2019-09-24T09:26:33Z</time>
      </trkpt>
      <trkpt lat="48.35033" lon="5.69473">
        <ele>291.255</ele>
        <time>2019-09-24T09:26:36Z</time>
      </trkpt>
      <trkpt lat="48.35025" lon="5.69466">
        <ele>291.156</ele>
        <time>2019-09-24T09:26:39Z</time>
      </trkpt>
      <trkpt lat="48.35017" lon="5.69462">
        <ele>290.896</ele>
        <time>2019-09-24T09:26:42Z</time>
      </trkpt>
      <trkpt lat="48.35011" lon="5.69457">
        <ele>289.933</ele>
        <time>2019-09-24T09:26:45Z</time>
      </trkpt>
      <trkpt lat="48.35006" lon="5.6945">
        <ele>287.758</ele>
        <time>2019-09-24T09:26:48Z</time>
      </trkpt>
      <trkpt lat="48.35002" lon="5.69443">
        <ele>287.358</ele>
        <time>2019-09-24T09:26:51Z</time>
      </trkpt>
      <trkpt lat="48.34997" lon="5.69438">
        <ele>287.411</ele>
        <time>2019-09-24T09:26:54Z</time>
      </trkpt>
      <trkpt lat="48.34993" lon="5.6943">
        <ele>288.986</ele>
        <time>2019-09-24T09:27:00Z</time>
      </trkpt>
      <trkpt lat="48.34993" lon="5.69429">
        <ele>289.077</ele>
        <time>2019-09-24T09:27:03Z</time>
      </trkpt>
      <trkpt lat="48.34993" lon="5.69429">
        <ele>289.077</ele>
        <time>2019-09-24T09:27:06Z</time>
      </trkpt>
      <trkpt lat="48.34993" lon="5.69428">
        <ele>288.981</ele>
        <time>2019-09-24T09:27:09Z</time>
      </trkpt>
      <trkpt lat="48.34989" lon="5.69423">
        <ele>289.518</ele>
        <time>2019-09-24T09:27:12Z</time>
      </trkpt>
      <trkpt lat="48.34984" lon="5.69423">
        <ele>291.543</ele>
        <time>2019-09-24T09:27:18Z</time>
      </trkpt>
      <trkpt lat="48.34983" lon="5.69424">
        <ele>292.067</ele>
        <time>2019-09-24T09:27:21Z</time>
      </trkpt>
      <trkpt lat="48.34983" lon="5.69424">
        <ele>292.067</ele>
        <time>2019-09-24T09:27:27Z</time>
      </trkpt>
      <trkpt lat="48.34982" lon="5.69424">
        <ele>291.913</ele>
        <time>2019-09-24T09:27:30Z</time>
      </trkpt>
      <trkpt lat="48.34979" lon="5.69429">
        <ele>291.47</ele>
        <time>2019-09-24T09:27:33Z</time>
      </trkpt>
      <trkpt lat="48.34975" lon="5.69437">
        <ele>290.928</ele>
        <time>2019-09-24T09:27:36Z</time>
      </trkpt>
      <trkpt lat="48.34969" lon="5.69445">
        <ele>291.001</ele>
        <time>2019-09-24T09:27:39Z</time>
      </trkpt>
      <trkpt lat="48.34963" lon="5.69452">
        <ele>291.387</ele>
        <time>2019-09-24T09:27:42Z</time>
      </trkpt>
      <trkpt lat="48.34957" lon="5.6946">
        <ele>291.633</ele>
        <time>2019-09-24T09:27:45Z</time>
      </trkpt>
      <trkpt lat="48.34951" lon="5.69469">
        <ele>291.8</ele>
        <time>2019-09-24T09:27:48Z</time>
      </trkpt>
      <trkpt lat="48.34946" lon="5.69479">
        <ele>292.284</ele>
        <time>2019-09-24T09:27:51Z</time>
      </trkpt>
      <trkpt lat="48.34939" lon="5.69489">
        <ele>292.509</ele>
        <time>2019-09-24T09:27:54Z</time>
      </trkpt>
      <trkpt lat="48.34933" lon="5.69498">
        <ele>292.166</ele>
        <time>2019-09-24T09:27:57Z</time>
      </trkpt>
      <trkpt lat="48.34927" lon="5.69506">
        <ele>292.376</ele>
        <time>2019-09-24T09:28:00Z</time>
      </trkpt>
      <trkpt lat="48.3492" lon="5.69516">
        <ele>292.718</ele>
        <time>2019-09-24T09:28:03Z</time>
      </trkpt>
      <trkpt lat="48.34913" lon="5.69526">
        <ele>293.085</ele>
        <time>2019-09-24T09:28:06Z</time>
      </trkpt>
      <trkpt lat="48.34906" lon="5.69534">
        <ele>294.303</ele>
        <time>2019-09-24T09:28:09Z</time>
      </trkpt>
      <trkpt lat="48.34899" lon="5.69542">
        <ele>295.061</ele>
        <time>2019-09-24T09:28:12Z</time>
      </trkpt>
      <trkpt lat="48.34893" lon="5.69551">
        <ele>295.775</ele>
        <time>2019-09-24T09:28:15Z</time>
      </trkpt>
      <trkpt lat="48.34888" lon="5.69559">
        <ele>295.833</ele>
        <time>2019-09-24T09:28:18Z</time>
      </trkpt>
      <trkpt lat="48.34881" lon="5.69569">
        <ele>295.724</ele>
        <time>2019-09-24T09:28:21Z</time>
      </trkpt>
      <trkpt lat="48.34876" lon="5.6958">
        <ele>295.805</ele>
        <time>2019-09-24T09:28:24Z</time>
      </trkpt>
      <trkpt lat="48.3487" lon="5.69591">
        <ele>295.992</ele>
        <time>2019-09-24T09:28:27Z</time>
      </trkpt>
      <trkpt lat="48.34863" lon="5.69601">
        <ele>295.966</ele>
        <time>2019-09-24T09:28:30Z</time>
      </trkpt>
      <trkpt lat="48.34857" lon="5.69613">
        <ele>296.497</ele>
        <time>2019-09-24T09:28:33Z</time>
      </trkpt>
      <trkpt lat="48.34851" lon="5.69623">
        <ele>297.124</ele>
        <time>2019-09-24T09:28:36Z</time>
      </trkpt>
      <trkpt lat="48.34844" lon="5.6963">
        <ele>298.075</ele>
        <time>2019-09-24T09:28:39Z</time>
      </trkpt>
      <trkpt lat="48.34838" lon="5.6964">
        <ele>299.321</ele>
        <time>2019-09-24T09:28:42Z</time>
      </trkpt>
      <trkpt lat="48.34831" lon="5.69647">
        <ele>300.373</ele>
        <time>2019-09-24T09:28:45Z</time>
      </trkpt>
      <trkpt lat="48.34825" lon="5.69657">
        <ele>301.548</ele>
        <time>2019-09-24T09:28:48Z</time>
      </trkpt>
      <trkpt lat="48.3482" lon="5.69667">
        <ele>302.049</ele>
        <time>2019-09-24T09:28:51Z</time>
      </trkpt>
      <trkpt lat="48.34815" lon="5.69675">
        <ele>303.212</ele>
        <time>2019-09-24T09:28:54Z</time>
      </trkpt>
      <trkpt lat="48.34809" lon="5.69683">
        <ele>304.352</ele>
        <time>2019-09-24T09:28:57Z</time>
      </trkpt>
      <trkpt lat="48.34803" lon="5.69689">
        <ele>304.93</ele>
        <time>2019-09-24T09:29:00Z</time>
      </trkpt>
      <trkpt lat="48.34795" lon="5.69693">
        <ele>305.236</ele>
        <time>2019-09-24T09:29:03Z</time>
      </trkpt>
      <trkpt lat="48.34786" lon="5.69696">
        <ele>305.35</ele>
        <time>2019-09-24T09:29:06Z</time>
      </trkpt>
      <trkpt lat="48.3478" lon="5.69703">
        <ele>305.778</ele>
        <time>2019-09-24T09:29:09Z</time>
      </trkpt>
      <trkpt lat="48.34773" lon="5.69709">
        <ele>306.252</ele>
        <time>2019-09-24T09:29:12Z</time>
      </trkpt>
      <trkpt lat="48.34767" lon="5.69715">
        <ele>306.521</ele>
        <time>2019-09-24T09:29:15Z</time>
      </trkpt>
      <trkpt lat="48.34762" lon="5.6972">
        <ele>307.106</ele>
        <time>2019-09-24T09:29:18Z</time>
      </trkpt>
      <trkpt lat="48.34755" lon="5.69722">
        <ele>308.253</ele>
        <time>2019-09-24T09:29:21Z</time>
      </trkpt>
      <trkpt lat="48.34746" lon="5.69723">
        <ele>309.364</ele>
        <time>2019-09-24T09:29:24Z</time>
      </trkpt>
      <trkpt lat="48.34737" lon="5.69724">
        <ele>309.708</ele>
        <time>2019-09-24T09:29:27Z</time>
      </trkpt>
      <trkpt lat="48.3473" lon="5.69727">
        <ele>309.314</ele>
        <time>2019-09-24T09:29:30Z</time>
      </trkpt>
      <trkpt lat="48.34724" lon="5.69729">
        <ele>308.773</ele>
        <time>2019-09-24T09:29:33Z</time>
      </trkpt>
      <trkpt lat="48.34716" lon="5.69728">
        <ele>309.082</ele>
        <time>2019-09-24T09:29:36Z</time>
      </trkpt>
      <trkpt lat="48.3471" lon="5.69726">
        <ele>309.737</ele>
        <time>2019-09-24T09:29:39Z</time>
      </trkpt>
      <trkpt lat="48.34703" lon="5.69723">
        <ele>310.287</ele>
        <time>2019-09-24T09:29:42Z</time>
      </trkpt>
      <trkpt lat="48.34696" lon="5.69719">
        <ele>310.718</ele>
        <time>2019-09-24T09:29:45Z</time>
      </trkpt>
      <trkpt lat="48.34688" lon="5.69715">
        <ele>311.349</ele>
        <time>2019-09-24T09:29:48Z</time>
      </trkpt>
      <trkpt lat="48.34681" lon="5.69711">
        <ele>312.126</ele>
        <time>2019-09-24T09:29:51Z</time>
      </trkpt>
      <trkpt lat="48.34673" lon="5.69707">
        <ele>311.933</ele>
        <time>2019-09-24T09:29:54Z</time>
      </trkpt>
      <trkpt lat="48.34666" lon="5.69703">
        <ele>312.251</ele>
        <time>2019-09-24T09:29:57Z</time>
      </trkpt>
      <trkpt lat="48.34659" lon="5.69697">
        <ele>313.073</ele>
        <time>2019-09-24T09:30:00Z</time>
      </trkpt>
      <trkpt lat="48.34653" lon="5.6969">
        <ele>313.851</ele>
        <time>2019-09-24T09:30:03Z</time>
      </trkpt>
      <trkpt lat="48.34647" lon="5.69683">
        <ele>314.127</ele>
        <time>2019-09-24T09:30:06Z</time>
      </trkpt>
      <trkpt lat="48.34641" lon="5.69677">
        <ele>315.108</ele>
        <time>2019-09-24T09:30:09Z</time>
      </trkpt>
      <trkpt lat="48.34635" lon="5.69669">
        <ele>315.825</ele>
        <time>2019-09-24T09:30:12Z</time>
      </trkpt>
      <trkpt lat="48.34631" lon="5.6966">
        <ele>316.268</ele>
        <time>2019-09-24T09:30:15Z</time>
      </trkpt>
      <trkpt lat="48.34625" lon="5.69651">
        <ele>317.31</ele>
        <time>2019-09-24T09:30:18Z</time>
      </trkpt>
      <trkpt lat="48.34621" lon="5.69642">
        <ele>317.959</ele>
        <time>2019-09-24T09:30:21Z</time>
      </trkpt>
      <trkpt lat="48.34616" lon="5.69633">
        <ele>318.273</ele>
        <time>2019-09-24T09:30:24Z</time>
      </trkpt>
      <trkpt lat="48.34614" lon="5.69626">
        <ele>317.447</ele>
        <time>2019-09-24T09:30:27Z</time>
      </trkpt>
      <trkpt lat="48.34611" lon="5.69618">
        <ele>317.343</ele>
        <time>2019-09-24T09:30:30Z</time>
      </trkpt>
      <trkpt lat="48.34609" lon="5.69609">
        <ele>317.225</ele>
        <time>2019-09-24T09:30:33Z</time>
      </trkpt>
      <trkpt lat="48.34606" lon="5.696">
        <ele>317.605</ele>
        <time>2019-09-24T09:30:36Z</time>
      </trkpt>
      <trkpt lat="48.34603" lon="5.69591">
        <ele>317.641</ele>
        <time>2019-09-24T09:30:39Z</time>
      </trkpt>
      <trkpt lat="48.34602" lon="5.69583">
        <ele>317.298</ele>
        <time>2019-09-24T09:30:42Z</time>
      </trkpt>
      <trkpt lat="48.34599" lon="5.69573">
        <ele>316.738</ele>
        <time>2019-09-24T09:30:45Z</time>
      </trkpt>
      <trkpt lat="48.34597" lon="5.69563">
        <ele>316.33</ele>
        <time>2019-09-24T09:30:48Z</time>
      </trkpt>
      <trkpt lat="48.34595" lon="5.69553">
        <ele>316.623</ele>
        <time>2019-09-24T09:30:51Z</time>
      </trkpt>
      <trkpt lat="48.34594" lon="5.69543">
        <ele>316.35</ele>
        <time>2019-09-24T09:30:54Z</time>
      </trkpt>
      <trkpt lat="48.34592" lon="5.69533">
        <ele>316.391</ele>
        <time>2019-09-24T09:30:57Z</time>
      </trkpt>
      <trkpt lat="48.3459" lon="5.69523">
        <ele>316.754</ele>
        <time>2019-09-24T09:31:00Z</time>
      </trkpt>
      <trkpt lat="48.34588" lon="5.69513">
        <ele>316.335</ele>
        <time>2019-09-24T09:31:03Z</time>
      </trkpt>
      <trkpt lat="48.34586" lon="5.69503">
        <ele>316.796</ele>
        <time>2019-09-24T09:31:06Z</time>
      </trkpt>
      <trkpt lat="48.34583" lon="5.69492">
        <ele>317.661</ele>
        <time>2019-09-24T09:31:09Z</time>
      </trkpt>
      <trkpt lat="48.3458" lon="5.69482">
        <ele>318.243</ele>
        <time>2019-09-24T09:31:12Z</time>
      </trkpt>
      <trkpt lat="48.34578" lon="5.69473">
        <ele>318.688</ele>
        <time>2019-09-24T09:31:15Z</time>
      </trkpt>
      <trkpt lat="48.34575" lon="5.69463">
        <ele>319.263</ele>
        <time>2019-09-24T09:31:18Z</time>
      </trkpt>
      <trkpt lat="48.34573" lon="5.69452">
        <ele>318.916</ele>
        <time>2019-09-24T09:31:21Z</time>
      </trkpt>
      <trkpt lat="48.34571" lon="5.69443">
        <ele>318.552</ele>
        <time>2019-09-24T09:31:24Z</time>
      </trkpt>
      <trkpt lat="48.3457" lon="5.69433">
        <ele>318.494</ele>
        <time>2019-09-24T09:31:27Z</time>
      </trkpt>
      <trkpt lat="48.34567" lon="5.69423">
        <ele>318.929</ele>
        <time>2019-09-24T09:31:30Z</time>
      </trkpt>
      <trkpt lat="48.34565" lon="5.69413">
        <ele>319.312</ele>
        <time>2019-09-24T09:31:33Z</time>
      </trkpt>
      <trkpt lat="48.34562" lon="5.69405">
        <ele>318.435</ele>
        <time>2019-09-24T09:31:36Z</time>
      </trkpt>
      <trkpt lat="48.34558" lon="5.69396">
        <ele>318.651</ele>
        <time>2019-09-24T09:31:39Z</time>
      </trkpt>
      <trkpt lat="48.34554" lon="5.69387">
        <ele>319.388</ele>
        <time>2019-09-24T09:31:42Z</time>
      </trkpt>
      <trkpt lat="48.34551" lon="5.6938">
        <ele>320.473</ele>
        <time>2019-09-24T09:31:45Z</time>
      </trkpt>
      <trkpt lat="48.34549" lon="5.69373">
        <ele>321.439</ele>
        <time>2019-09-24T09:31:48Z</time>
      </trkpt>
      <trkpt lat="48.34545" lon="5.69363">
        <ele>322.578</ele>
        <time>2019-09-24T09:31:51Z</time>
      </trkpt>
      <trkpt lat="48.3454" lon="5.69352">
        <ele>322.711</ele>
        <time>2019-09-24T09:31:54Z</time>
      </trkpt>
      <trkpt lat="48.34537" lon="5.69341">
        <ele>322.797</ele>
        <time>2019-09-24T09:31:57Z</time>
      </trkpt>
      <trkpt lat="48.34534" lon="5.69331">
        <ele>322.167</ele>
        <time>2019-09-24T09:32:00Z</time>
      </trkpt>
      <trkpt lat="48.34529" lon="5.6932">
        <ele>322.49</ele>
        <time>2019-09-24T09:32:03Z</time>
      </trkpt>
      <trkpt lat="48.34525" lon="5.69311">
        <ele>322.916</ele>
        <time>2019-09-24T09:32:06Z</time>
      </trkpt>
      <trkpt lat="48.34521" lon="5.69302">
        <ele>322.715</ele>
        <time>2019-09-24T09:32:09Z</time>
      </trkpt>
      <trkpt lat="48.34518" lon="5.69294">
        <ele>322.68</ele>
        <time>2019-09-24T09:32:12Z</time>
      </trkpt>
      <trkpt lat="48.34515" lon="5.69287">
        <ele>323.124</ele>
        <time>2019-09-24T09:32:15Z</time>
      </trkpt>
      <trkpt lat="48.34512" lon="5.69281">
        <ele>323.57</ele>
        <time>2019-09-24T09:32:18Z</time>
      </trkpt>
      <trkpt lat="48.34508" lon="5.69273">
        <ele>324.58</ele>
        <time>2019-09-24T09:32:21Z</time>
      </trkpt>
      <trkpt lat="48.34503" lon="5.69264">
        <ele>326.145</ele>
        <time>2019-09-24T09:32:24Z</time>
      </trkpt>
      <trkpt lat="48.345" lon="5.69256">
        <ele>326.621</ele>
        <time>2019-09-24T09:32:27Z</time>
      </trkpt>
      <trkpt lat="48.34496" lon="5.69246">
        <ele>327.039</ele>
        <time>2019-09-24T09:32:30Z</time>
      </trkpt>
      <trkpt lat="48.34492" lon="5.69239">
        <ele>327.221</ele>
        <time>2019-09-24T09:32:33Z</time>
      </trkpt>
      <trkpt lat="48.34487" lon="5.69231">
        <ele>327.166</ele>
        <time>2019-09-24T09:32:36Z</time>
      </trkpt>
      <trkpt lat="48.34483" lon="5.69224">
        <ele>327.221</ele>
        <time>2019-09-24T09:32:39Z</time>
      </trkpt>
      <trkpt lat="48.34478" lon="5.69217">
        <ele>327.028</ele>
        <time>2019-09-24T09:32:42Z</time>
      </trkpt>
      <trkpt lat="48.34472" lon="5.69212">
        <ele>326.693</ele>
        <time>2019-09-24T09:32:45Z</time>
      </trkpt>
      <trkpt lat="48.34465" lon="5.69207">
        <ele>326.285</ele>
        <time>2019-09-24T09:32:48Z</time>
      </trkpt>
      <trkpt lat="48.34459" lon="5.69203">
        <ele>326.344</ele>
        <time>2019-09-24T09:32:51Z</time>
      </trkpt>
      <trkpt lat="48.34451" lon="5.69199">
        <ele>326.333</ele>
        <time>2019-09-24T09:32:54Z</time>
      </trkpt>
      <trkpt lat="48.34442" lon="5.69196">
        <ele>327.552</ele>
        <time>2019-09-24T09:32:57Z</time>
      </trkpt>
      <trkpt lat="48.34436" lon="5.69196">
        <ele>327.353</ele>
        <time>2019-09-24T09:33:00Z</time>
      </trkpt>
      <trkpt lat="48.34429" lon="5.69197">
        <ele>326.888</ele>
        <time>2019-09-24T09:33:03Z</time>
      </trkpt>
      <trkpt lat="48.34422" lon="5.69199">
        <ele>326.072</ele>
        <time>2019-09-24T09:33:06Z</time>
      </trkpt>
      <trkpt lat="48.34416" lon="5.69201">
        <ele>325.026</ele>
        <time>2019-09-24T09:33:09Z</time>
      </trkpt>
      <trkpt lat="48.34407" lon="5.69202">
        <ele>325.01</ele>
        <time>2019-09-24T09:33:12Z</time>
      </trkpt>
      <trkpt lat="48.34399" lon="5.69203">
        <ele>325.736</ele>
        <time>2019-09-24T09:33:15Z</time>
      </trkpt>
      <trkpt lat="48.34392" lon="5.69206">
        <ele>325.643</ele>
        <time>2019-09-24T09:33:18Z</time>
      </trkpt>
      <trkpt lat="48.34383" lon="5.69208">
        <ele>326.054</ele>
        <time>2019-09-24T09:33:21Z</time>
      </trkpt>
      <trkpt lat="48.34374" lon="5.69211">
        <ele>326.782</ele>
        <time>2019-09-24T09:33:24Z</time>
      </trkpt>
      <trkpt lat="48.34366" lon="5.69214">
        <ele>326.686</ele>
        <time>2019-09-24T09:33:27Z</time>
      </trkpt>
      <trkpt lat="48.34357" lon="5.69216">
        <ele>326.724</ele>
        <time>2019-09-24T09:33:30Z</time>
      </trkpt>
      <trkpt lat="48.34348" lon="5.69218">
        <ele>326.86</ele>
        <time>2019-09-24T09:33:33Z</time>
      </trkpt>
      <trkpt lat="48.3434" lon="5.69222">
        <ele>326.835</ele>
        <time>2019-09-24T09:33:36Z</time>
      </trkpt>
      <trkpt lat="48.34333" lon="5.69225">
        <ele>327.093</ele>
        <time>2019-09-24T09:33:39Z</time>
      </trkpt>
      <trkpt lat="48.34324" lon="5.69227">
        <ele>328.195</ele>
        <time>2019-09-24T09:33:42Z</time>
      </trkpt>
      <trkpt lat="48.34316" lon="5.69229">
        <ele>328.706</ele>
        <time>2019-09-24T09:33:45Z</time>
      </trkpt>
      <trkpt lat="48.34309" lon="5.69233">
        <ele>329.18</ele>
        <time>2019-09-24T09:33:48Z</time>
      </trkpt>
      <trkpt lat="48.34303" lon="5.69237">
        <ele>328.675</ele>
        <time>2019-09-24T09:33:51Z</time>
      </trkpt>
      <trkpt lat="48.34296" lon="5.69242">
        <ele>328.557</ele>
        <time>2019-09-24T09:33:54Z</time>
      </trkpt>
      <trkpt lat="48.34286" lon="5.69245">
        <ele>329.4</ele>
        <time>2019-09-24T09:33:57Z</time>
      </trkpt>
      <trkpt lat="48.34278" lon="5.69249">
        <ele>328.998</ele>
        <time>2019-09-24T09:34:00Z</time>
      </trkpt>
      <trkpt lat="48.34267" lon="5.69252">
        <ele>329.602</ele>
        <time>2019-09-24T09:34:03Z</time>
      </trkpt>
      <trkpt lat="48.34257" lon="5.69254">
        <ele>331.5</ele>
        <time>2019-09-24T09:34:06Z</time>
      </trkpt>
      <trkpt lat="48.34248" lon="5.69257">
        <ele>333.302</ele>
        <time>2019-09-24T09:34:09Z</time>
      </trkpt>
      <trkpt lat="48.3424" lon="5.69259">
        <ele>334.398</ele>
        <time>2019-09-24T09:34:12Z</time>
      </trkpt>
      <trkpt lat="48.34231" lon="5.69262">
        <ele>336.799</ele>
        <time>2019-09-24T09:34:15Z</time>
      </trkpt>
      <trkpt lat="48.34225" lon="5.69265">
        <ele>337.319</ele>
        <time>2019-09-24T09:34:18Z</time>
      </trkpt>
      <trkpt lat="48.34219" lon="5.69268">
        <ele>337.931</ele>
        <time>2019-09-24T09:34:21Z</time>
      </trkpt>
      <trkpt lat="48.34213" lon="5.69271">
        <ele>338.091</ele>
        <time>2019-09-24T09:34:24Z</time>
      </trkpt>
      <trkpt lat="48.34207" lon="5.69274">
        <ele>337.669</ele>
        <time>2019-09-24T09:34:27Z</time>
      </trkpt>
      <trkpt lat="48.34201" lon="5.69278">
        <ele>337.352</ele>
        <time>2019-09-24T09:34:30Z</time>
      </trkpt>
      <trkpt lat="48.34193" lon="5.69281">
        <ele>337.807</ele>
        <time>2019-09-24T09:34:33Z</time>
      </trkpt>
      <trkpt lat="48.34184" lon="5.69283">
        <ele>338.7</ele>
        <time>2019-09-24T09:34:36Z</time>
      </trkpt>
      <trkpt lat="48.34175" lon="5.69286">
        <ele>338.948</ele>
        <time>2019-09-24T09:34:39Z</time>
      </trkpt>
      <trkpt lat="48.34167" lon="5.6929">
        <ele>337.383</ele>
        <time>2019-09-24T09:34:42Z</time>
      </trkpt>
      <trkpt lat="48.3416" lon="5.69293">
        <ele>336.498</ele>
        <time>2019-09-24T09:34:45Z</time>
      </trkpt>
      <trkpt lat="48.3415" lon="5.69294">
        <ele>335.954</ele>
        <time>2019-09-24T09:34:48Z</time>
      </trkpt>
      <trkpt lat="48.3414" lon="5.69295">
        <ele>335.422</ele>
        <time>2019-09-24T09:34:51Z</time>
      </trkpt>
      <trkpt lat="48.34131" lon="5.69297">
        <ele>334.734</ele>
        <time>2019-09-24T09:34:54Z</time>
      </trkpt>
      <trkpt lat="48.34121" lon="5.69298">
        <ele>333.942</ele>
        <time>2019-09-24T09:34:57Z</time>
      </trkpt>
      <trkpt lat="48.3411" lon="5.69299">
        <ele>334.125</ele>
        <time>2019-09-24T09:35:00Z</time>
      </trkpt>
      <trkpt lat="48.34099" lon="5.69299">
        <ele>333.845</ele>
        <time>2019-09-24T09:35:03Z</time>
      </trkpt>
      <trkpt lat="48.34088" lon="5.69299">
        <ele>333.408</ele>
        <time>2019-09-24T09:35:06Z</time>
      </trkpt>
      <trkpt lat="48.34078" lon="5.69299">
        <ele>332.532</ele>
        <time>2019-09-24T09:35:09Z</time>
      </trkpt>
      <trkpt lat="48.34067" lon="5.69298">
        <ele>332.193</ele>
        <time>2019-09-24T09:35:12Z</time>
      </trkpt>
      <trkpt lat="48.34055" lon="5.69298">
        <ele>331.434</ele>
        <time>2019-09-24T09:35:15Z</time>
      </trkpt>
      <trkpt lat="48.34043" lon="5.69298">
        <ele>331.15</ele>
        <time>2019-09-24T09:35:18Z</time>
      </trkpt>
      <trkpt lat="48.34033" lon="5.69297">
        <ele>330.913</ele>
        <time>2019-09-24T09:35:21Z</time>
      </trkpt>
      <trkpt lat="48.34024" lon="5.69297">
        <ele>331.265</ele>
        <time>2019-09-24T09:35:24Z</time>
      </trkpt>
      <trkpt lat="48.34013" lon="5.69296">
        <ele>331.058</ele>
        <time>2019-09-24T09:35:27Z</time>
      </trkpt>
      <trkpt lat="48.33999" lon="5.69295">
        <ele>331.359</ele>
        <time>2019-09-24T09:35:30Z</time>
      </trkpt>
      <trkpt lat="48.33986" lon="5.69295">
        <ele>331.226</ele>
        <time>2019-09-24T09:35:33Z</time>
      </trkpt>
      <trkpt lat="48.33973" lon="5.69295">
        <ele>331.135</ele>
        <time>2019-09-24T09:35:36Z</time>
      </trkpt>
      <trkpt lat="48.33961" lon="5.69294">
        <ele>331.236</ele>
        <time>2019-09-24T09:35:39Z</time>
      </trkpt>
      <trkpt lat="48.33948" lon="5.69293">
        <ele>331.201</ele>
        <time>2019-09-24T09:35:42Z</time>
      </trkpt>
      <trkpt lat="48.33934" lon="5.69291">
        <ele>330.845</ele>
        <time>2019-09-24T09:35:45Z</time>
      </trkpt>
      <trkpt lat="48.3392" lon="5.6929">
        <ele>330.621</ele>
        <time>2019-09-24T09:35:48Z</time>
      </trkpt>
      <trkpt lat="48.33906" lon="5.69289">
        <ele>330.576</ele>
        <time>2019-09-24T09:35:51Z</time>
      </trkpt>
      <trkpt lat="48.33893" lon="5.69287">
        <ele>331.169</ele>
        <time>2019-09-24T09:35:54Z</time>
      </trkpt>
      <trkpt lat="48.33879" lon="5.69286">
        <ele>330.984</ele>
        <time>2019-09-24T09:35:57Z</time>
      </trkpt>
      <trkpt lat="48.33864" lon="5.69285">
        <ele>330.61</ele>
        <time>2019-09-24T09:36:00Z</time>
      </trkpt>
      <trkpt lat="48.33847" lon="5.69284">
        <ele>331.036</ele>
        <time>2019-09-24T09:36:03Z</time>
      </trkpt>
      <trkpt lat="48.33831" lon="5.69283">
        <ele>331.268</ele>
        <time>2019-09-24T09:36:06Z</time>
      </trkpt>
      <trkpt lat="48.33816" lon="5.69281">
        <ele>331.094</ele>
        <time>2019-09-24T09:36:09Z</time>
      </trkpt>
      <trkpt lat="48.338" lon="5.69281">
        <ele>331.526</ele>
        <time>2019-09-24T09:36:12Z</time>
      </trkpt>
      <trkpt lat="48.33786" lon="5.6928">
        <ele>331.726</ele>
        <time>2019-09-24T09:36:15Z</time>
      </trkpt>
      <trkpt lat="48.33772" lon="5.6928">
        <ele>332.191</ele>
        <time>2019-09-24T09:36:18Z</time>
      </trkpt>
      <trkpt lat="48.33759" lon="5.69279">
        <ele>332.549</ele>
        <time>2019-09-24T09:36:21Z</time>
      </trkpt>
      <trkpt lat="48.33746" lon="5.69278">
        <ele>333.087</ele>
        <time>2019-09-24T09:36:24Z</time>
      </trkpt>
      <trkpt lat="48.33733" lon="5.69278">
        <ele>332.92</ele>
        <time>2019-09-24T09:36:27Z</time>
      </trkpt>
      <trkpt lat="48.33719" lon="5.69277">
        <ele>332.662</ele>
        <time>2019-09-24T09:36:30Z</time>
      </trkpt>
      <trkpt lat="48.33706" lon="5.69276">
        <ele>332.114</ele>
        <time>2019-09-24T09:36:33Z</time>
      </trkpt>
      <trkpt lat="48.33693" lon="5.69275">
        <ele>332.118</ele>
        <time>2019-09-24T09:36:36Z</time>
      </trkpt>
      <trkpt lat="48.3368" lon="5.69274">
        <ele>332.183</ele>
        <time>2019-09-24T09:36:39Z</time>
      </trkpt>
      <trkpt lat="48.33668" lon="5.69273">
        <ele>332.104</ele>
        <time>2019-09-24T09:36:42Z</time>
      </trkpt>
      <trkpt lat="48.33656" lon="5.69272">
        <ele>331.817</ele>
        <time>2019-09-24T09:36:45Z</time>
      </trkpt>
      <trkpt lat="48.33643" lon="5.69271">
        <ele>332.216</ele>
        <time>2019-09-24T09:36:48Z</time>
      </trkpt>
      <trkpt lat="48.33632" lon="5.6927">
        <ele>332.688</ele>
        <time>2019-09-24T09:36:51Z</time>
      </trkpt>
      <trkpt lat="48.33621" lon="5.69269">
        <ele>332.888</ele>
        <time>2019-09-24T09:36:54Z</time>
      </trkpt>
      <trkpt lat="48.33611" lon="5.6927">
        <ele>332.949</ele>
        <time>2019-09-24T09:36:57Z</time>
      </trkpt>
      <trkpt lat="48.33602" lon="5.69269">
        <ele>332.976</ele>
        <time>2019-09-24T09:37:00Z</time>
      </trkpt>
      <trkpt lat="48.33594" lon="5.69268">
        <ele>332.681</ele>
        <time>2019-09-24T09:37:03Z</time>
      </trkpt>
      <trkpt lat="48.33585" lon="5.69267">
        <ele>332.639</ele>
        <time>2019-09-24T09:37:06Z</time>
      </trkpt>
      <trkpt lat="48.33577" lon="5.69267">
        <ele>332.934</ele>
        <time>2019-09-24T09:37:09Z</time>
      </trkpt>
      <trkpt lat="48.33568" lon="5.69266">
        <ele>333.384</ele>
        <time>2019-09-24T09:37:12Z</time>
      </trkpt>
      <trkpt lat="48.33558" lon="5.69265">
        <ele>333.873</ele>
        <time>2019-09-24T09:37:15Z</time>
      </trkpt>
      <trkpt lat="48.3355" lon="5.69265">
        <ele>334.433</ele>
        <time>2019-09-24T09:37:18Z</time>
      </trkpt>
      <trkpt lat="48.33543" lon="5.69265">
        <ele>334.581</ele>
        <time>2019-09-24T09:37:21Z</time>
      </trkpt>
      <trkpt lat="48.33534" lon="5.69264">
        <ele>335.622</ele>
        <time>2019-09-24T09:37:24Z</time>
      </trkpt>
      <trkpt lat="48.33524" lon="5.69263">
        <ele>336.603</ele>
        <time>2019-09-24T09:37:27Z</time>
      </trkpt>
      <trkpt lat="48.33515" lon="5.69263">
        <ele>337.558</ele>
        <time>2019-09-24T09:37:30Z</time>
      </trkpt>
      <trkpt lat="48.33507" lon="5.69262">
        <ele>338.482</ele>
        <time>2019-09-24T09:37:33Z</time>
      </trkpt>
      <trkpt lat="48.33499" lon="5.69261">
        <ele>339.312</ele>
        <time>2019-09-24T09:37:36Z</time>
      </trkpt>
      <trkpt lat="48.3349" lon="5.6926">
        <ele>339.941</ele>
        <time>2019-09-24T09:37:39Z</time>
      </trkpt>
      <trkpt lat="48.33481" lon="5.6926">
        <ele>340.453</ele>
        <time>2019-09-24T09:37:42Z</time>
      </trkpt>
      <trkpt lat="48.33471" lon="5.6926">
        <ele>340.276</ele>
        <time>2019-09-24T09:37:46Z</time>
      </trkpt>
      <trkpt lat="48.33463" lon="5.6926">
        <ele>340.932</ele>
        <time>2019-09-24T09:37:49Z</time>
      </trkpt>
      <trkpt lat="48.33457" lon="5.69259">
        <ele>341.756</ele>
        <time>2019-09-24T09:37:52Z</time>
      </trkpt>
      <trkpt lat="48.3345" lon="5.69258">
        <ele>342.142</ele>
        <time>2019-09-24T09:37:55Z</time>
      </trkpt>
      <trkpt lat="48.33443" lon="5.69258">
        <ele>341.917</ele>
        <time>2019-09-24T09:37:58Z</time>
      </trkpt>
      <trkpt lat="48.33437" lon="5.69258">
        <ele>341.507</ele>
        <time>2019-09-24T09:38:01Z</time>
      </trkpt>
      <trkpt lat="48.3343" lon="5.69258">
        <ele>341.7</ele>
        <time>2019-09-24T09:38:04Z</time>
      </trkpt>
      <trkpt lat="48.33423" lon="5.69257">
        <ele>341.961</ele>
        <time>2019-09-24T09:38:07Z</time>
      </trkpt>
      <trkpt lat="48.33416" lon="5.69257">
        <ele>342.546</ele>
        <time>2019-09-24T09:38:10Z</time>
      </trkpt>
      <trkpt lat="48.33408" lon="5.69256">
        <ele>343.253</ele>
        <time>2019-09-24T09:38:13Z</time>
      </trkpt>
      <trkpt lat="48.334" lon="5.69255">
        <ele>344.393</ele>
        <time>2019-09-24T09:38:16Z</time>
      </trkpt>
      <trkpt lat="48.33392" lon="5.69254">
        <ele>345.214</ele>
        <time>2019-09-24T09:38:19Z</time>
      </trkpt>
      <trkpt lat="48.33385" lon="5.69254">
        <ele>345.196</ele>
        <time>2019-09-24T09:38:22Z</time>
      </trkpt>
      <trkpt lat="48.33378" lon="5.69254">
        <ele>344.941</ele>
        <time>2019-09-24T09:38:25Z</time>
      </trkpt>
      <trkpt lat="48.3337" lon="5.69254">
        <ele>344.856</ele>
        <time>2019-09-24T09:38:28Z</time>
      </trkpt>
      <trkpt lat="48.33363" lon="5.69254">
        <ele>344.848</ele>
        <time>2019-09-24T09:38:31Z</time>
      </trkpt>
      <trkpt lat="48.33355" lon="5.69254">
        <ele>344.55</ele>
        <time>2019-09-24T09:38:34Z</time>
      </trkpt>
      <trkpt lat="48.33348" lon="5.69253">
        <ele>344.719</ele>
        <time>2019-09-24T09:38:37Z</time>
      </trkpt>
      <trkpt lat="48.33339" lon="5.69253">
        <ele>344.547</ele>
        <time>2019-09-24T09:38:40Z</time>
      </trkpt>
      <trkpt lat="48.3333" lon="5.69253">
        <ele>344.961</ele>
        <time>2019-09-24T09:38:43Z</time>
      </trkpt>
      <trkpt lat="48.33321" lon="5.69252">
        <ele>345.044</ele>
        <time>2019-09-24T09:38:46Z</time>
      </trkpt>
      <trkpt lat="48.33311" lon="5.69251">
        <ele>345.364</ele>
        <time>2019-09-24T09:38:49Z</time>
      </trkpt>
      <trkpt lat="48.33301" lon="5.69251">
        <ele>345.433</ele>
        <time>2019-09-24T09:38:52Z</time>
      </trkpt>
      <trkpt lat="48.3329" lon="5.69251">
        <ele>345.024</ele>
        <time>2019-09-24T09:38:55Z</time>
      </trkpt>
      <trkpt lat="48.33279" lon="5.69249">
        <ele>344.316</ele>
        <time>2019-09-24T09:38:58Z</time>
      </trkpt>
      <trkpt lat="48.33267" lon="5.69248">
        <ele>344.727</ele>
        <time>2019-09-24T09:39:01Z</time>
      </trkpt>
      <trkpt lat="48.33254" lon="5.69248">
        <ele>345.005</ele>
        <time>2019-09-24T09:39:04Z</time>
      </trkpt>
      <trkpt lat="48.33243" lon="5.69247">
        <ele>345.581</ele>
        <time>2019-09-24T09:39:07Z</time>
      </trkpt>
      <trkpt lat="48.33231" lon="5.69247">
        <ele>345.757</ele>
        <time>2019-09-24T09:39:10Z</time>
      </trkpt>
      <trkpt lat="48.3322" lon="5.69245">
        <ele>345.637</ele>
        <time>2019-09-24T09:39:13Z</time>
      </trkpt>
      <trkpt lat="48.3321" lon="5.69244">
        <ele>346.261</ele>
        <time>2019-09-24T09:39:16Z</time>
      </trkpt>
      <trkpt lat="48.332" lon="5.69243">
        <ele>346.478</ele>
        <time>2019-09-24T09:39:19Z</time>
      </trkpt>
      <trkpt lat="48.33189" lon="5.69243">
        <ele>346.624</ele>
        <time>2019-09-24T09:39:22Z</time>
      </trkpt>
      <trkpt lat="48.3318" lon="5.69242">
        <ele>346.929</ele>
        <time>2019-09-24T09:39:25Z</time>
      </trkpt>
      <trkpt lat="48.33174" lon="5.69241">
        <ele>347.799</ele>
        <time>2019-09-24T09:39:28Z</time>
      </trkpt>
      <trkpt lat="48.33167" lon="5.6924">
        <ele>348.911</ele>
        <time>2019-09-24T09:39:31Z</time>
      </trkpt>
      <trkpt lat="48.3316" lon="5.6924">
        <ele>349.354</ele>
        <time>2019-09-24T09:39:34Z</time>
      </trkpt>
      <trkpt lat="48.33153" lon="5.69239">
        <ele>349.811</ele>
        <time>2019-09-24T09:39:37Z</time>
      </trkpt>
      <trkpt lat="48.33146" lon="5.69238">
        <ele>350.622</ele>
        <time>2019-09-24T09:39:40Z</time>
      </trkpt>
      <trkpt lat="48.3314" lon="5.69237">
        <ele>351.314</ele>
        <time>2019-09-24T09:39:43Z</time>
      </trkpt>
      <trkpt lat="48.33133" lon="5.69237">
        <ele>351.526</ele>
        <time>2019-09-24T09:39:46Z</time>
      </trkpt>
      <trkpt lat="48.33126" lon="5.69238">
        <ele>351.825</ele>
        <time>2019-09-24T09:39:49Z</time>
      </trkpt>
      <trkpt lat="48.33119" lon="5.69238">
        <ele>351.516</ele>
        <time>2019-09-24T09:39:52Z</time>
      </trkpt>
      <trkpt lat="48.33112" lon="5.69238">
        <ele>351.871</ele>
        <time>2019-09-24T09:39:55Z</time>
      </trkpt>
      <trkpt lat="48.33107" lon="5.69236">
        <ele>352.563</ele>
        <time>2019-09-24T09:39:58Z</time>
      </trkpt>
      <trkpt lat="48.33101" lon="5.69235">
        <ele>353.556</ele>
        <time>2019-09-24T09:40:01Z</time>
      </trkpt>
      <trkpt lat="48.33095" lon="5.69235">
        <ele>353.484</ele>
        <time>2019-09-24T09:40:04Z</time>
      </trkpt>
      <trkpt lat="48.3309" lon="5.69235">
        <ele>353.735</ele>
        <time>2019-09-24T09:40:07Z</time>
      </trkpt>
      <trkpt lat="48.33083" lon="5.69235">
        <ele>354.125</ele>
        <time>2019-09-24T09:40:10Z</time>
      </trkpt>
      <trkpt lat="48.33077" lon="5.69235">
        <ele>354.473</ele>
        <time>2019-09-24T09:40:13Z</time>
      </trkpt>
      <trkpt lat="48.33071" lon="5.69234">
        <ele>355.668</ele>
        <time>2019-09-24T09:40:16Z</time>
      </trkpt>
      <trkpt lat="48.33065" lon="5.69235">
        <ele>356.052</ele>
        <time>2019-09-24T09:40:19Z</time>
      </trkpt>
      <trkpt lat="48.33058" lon="5.69234">
        <ele>356.525</ele>
        <time>2019-09-24T09:40:22Z</time>
      </trkpt>
      <trkpt lat="48.33053" lon="5.69233">
        <ele>357.819</ele>
        <time>2019-09-24T09:40:25Z</time>
      </trkpt>
      <trkpt lat="48.33047" lon="5.69233">
        <ele>357.807</ele>
        <time>2019-09-24T09:40:28Z</time>
      </trkpt>
      <trkpt lat="48.33042" lon="5.69233">
        <ele>358.082</ele>
        <time>2019-09-24T09:40:31Z</time>
      </trkpt>
      <trkpt lat="48.33036" lon="5.69233">
        <ele>358.51</ele>
        <time>2019-09-24T09:40:34Z</time>
      </trkpt>
      <trkpt lat="48.33028" lon="5.69233">
        <ele>358.573</ele>
        <time>2019-09-24T09:40:37Z</time>
      </trkpt>
      <trkpt lat="48.33021" lon="5.69231">
        <ele>358.836</ele>
        <time>2019-09-24T09:40:40Z</time>
      </trkpt>
      <trkpt lat="48.33014" lon="5.6923">
        <ele>360.712</ele>
        <time>2019-09-24T09:40:43Z</time>
      </trkpt>
      <trkpt lat="48.33007" lon="5.69229">
        <ele>361.643</ele>
        <time>2019-09-24T09:40:46Z</time>
      </trkpt>
      <trkpt lat="48.33" lon="5.69229">
        <ele>362.55</ele>
        <time>2019-09-24T09:40:49Z</time>
      </trkpt>
      <trkpt lat="48.32994" lon="5.69229">
        <ele>361.402</ele>
        <time>2019-09-24T09:40:52Z</time>
      </trkpt>
      <trkpt lat="48.32988" lon="5.69229">
        <ele>360.641</ele>
        <time>2019-09-24T09:40:55Z</time>
      </trkpt>
      <trkpt lat="48.32981" lon="5.69229">
        <ele>360.848</ele>
        <time>2019-09-24T09:40:58Z</time>
      </trkpt>
      <trkpt lat="48.32975" lon="5.69228">
        <ele>361.528</ele>
        <time>2019-09-24T09:41:01Z</time>
      </trkpt>
      <trkpt lat="48.32968" lon="5.69228">
        <ele>361.924</ele>
        <time>2019-09-24T09:41:04Z</time>
      </trkpt>
      <trkpt lat="48.32961" lon="5.69227">
        <ele>361.683</ele>
        <time>2019-09-24T09:41:07Z</time>
      </trkpt>
      <trkpt lat="48.32954" lon="5.69227">
        <ele>361.347</ele>
        <time>2019-09-24T09:41:10Z</time>
      </trkpt>
      <trkpt lat="48.32946" lon="5.69227">
        <ele>360.786</ele>
        <time>2019-09-24T09:41:13Z</time>
      </trkpt>
      <trkpt lat="48.3294" lon="5.69226">
        <ele>360.75</ele>
        <time>2019-09-24T09:41:16Z</time>
      </trkpt>
      <trkpt lat="48.32933" lon="5.69226">
        <ele>360.931</ele>
        <time>2019-09-24T09:41:19Z</time>
      </trkpt>
      <trkpt lat="48.32925" lon="5.69226">
        <ele>360.788</ele>
        <time>2019-09-24T09:41:22Z</time>
      </trkpt>
      <trkpt lat="48.32917" lon="5.69225">
        <ele>361.023</ele>
        <time>2019-09-24T09:41:25Z</time>
      </trkpt>
      <trkpt lat="48.32909" lon="5.69224">
        <ele>361.066</ele>
        <time>2019-09-24T09:41:28Z</time>
      </trkpt>
      <trkpt lat="48.32901" lon="5.69224">
        <ele>360.999</ele>
        <time>2019-09-24T09:41:31Z</time>
      </trkpt>
      <trkpt lat="48.32893" lon="5.69222">
        <ele>360.651</ele>
        <time>2019-09-24T09:41:34Z</time>
      </trkpt>
      <trkpt lat="48.32883" lon="5.69222">
        <ele>360.363</ele>
        <time>2019-09-24T09:41:37Z</time>
      </trkpt>
      <trkpt lat="48.32872" lon="5.6922">
        <ele>360.272</ele>
        <time>2019-09-24T09:41:40Z</time>
      </trkpt>
      <trkpt lat="48.32858" lon="5.69219">
        <ele>359.013</ele>
        <time>2019-09-24T09:41:43Z</time>
      </trkpt>
      <trkpt lat="48.32843" lon="5.69219">
        <ele>358.284</ele>
        <time>2019-09-24T09:41:46Z</time>
      </trkpt>
      <trkpt lat="48.32824" lon="5.69219">
        <ele>357.443</ele>
        <time>2019-09-24T09:41:49Z</time>
      </trkpt>
      <trkpt lat="48.32806" lon="5.69218">
        <ele>357.127</ele>
        <time>2019-09-24T09:41:52Z</time>
      </trkpt>
      <trkpt lat="48.32788" lon="5.69217">
        <ele>357.114</ele>
        <time>2019-09-24T09:41:55Z</time>
      </trkpt>
      <trkpt lat="48.32769" lon="5.69216">
        <ele>356.819</ele>
        <time>2019-09-24T09:41:58Z</time>
      </trkpt>
      <trkpt lat="48.32748" lon="5.69215">
        <ele>356.298</ele>
        <time>2019-09-24T09:42:01Z</time>
      </trkpt>
      <trkpt lat="48.32728" lon="5.69213">
        <ele>355.807</ele>
        <time>2019-09-24T09:42:04Z</time>
      </trkpt>
      <trkpt lat="48.3271" lon="5.69211">
        <ele>355.611</ele>
        <time>2019-09-24T09:42:07Z</time>
      </trkpt>
      <trkpt lat="48.32694" lon="5.6921">
        <ele>355.729</ele>
        <time>2019-09-24T09:42:10Z</time>
      </trkpt>
      <trkpt lat="48.32679" lon="5.69209">
        <ele>355.314</ele>
        <time>2019-09-24T09:42:13Z</time>
      </trkpt>
      <trkpt lat="48.32665" lon="5.69208">
        <ele>355.673</ele>
        <time>2019-09-24T09:42:16Z</time>
      </trkpt>
      <trkpt lat="48.32651" lon="5.69207">
        <ele>356.405</ele>
        <time>2019-09-24T09:42:19Z</time>
      </trkpt>
      <trkpt lat="48.32636" lon="5.69205">
        <ele>356.579</ele>
        <time>2019-09-24T09:42:22Z</time>
      </trkpt>
      <trkpt lat="48.32622" lon="5.69205">
        <ele>356.681</ele>
        <time>2019-09-24T09:42:25Z</time>
      </trkpt>
      <trkpt lat="48.32608" lon="5.69205">
        <ele>356.553</ele>
        <time>2019-09-24T09:42:28Z</time>
      </trkpt>
      <trkpt lat="48.32595" lon="5.69204">
        <ele>357.212</ele>
        <time>2019-09-24T09:42:31Z</time>
      </trkpt>
      <trkpt lat="48.32584" lon="5.69203">
        <ele>357.73</ele>
        <time>2019-09-24T09:42:34Z</time>
      </trkpt>
      <trkpt lat="48.32574" lon="5.69203">
        <ele>358.428</ele>
        <time>2019-09-24T09:42:37Z</time>
      </trkpt>
      <trkpt lat="48.32564" lon="5.69202">
        <ele>359.393</ele>
        <time>2019-09-24T09:42:40Z</time>
      </trkpt>
      <trkpt lat="48.32554" lon="5.69201">
        <ele>359.884</ele>
        <time>2019-09-24T09:42:43Z</time>
      </trkpt>
      <trkpt lat="48.32545" lon="5.69201">
        <ele>360.34</ele>
        <time>2019-09-24T09:42:46Z</time>
      </trkpt>
      <trkpt lat="48.32537" lon="5.692">
        <ele>361.073</ele>
        <time>2019-09-24T09:42:49Z</time>
      </trkpt>
      <trkpt lat="48.32529" lon="5.69199">
        <ele>362.242</ele>
        <time>2019-09-24T09:42:52Z</time>
      </trkpt>
      <trkpt lat="48.3252" lon="5.69198">
        <ele>363.085</ele>
        <time>2019-09-24T09:42:55Z</time>
      </trkpt>
      <trkpt lat="48.32511" lon="5.69198">
        <ele>363.271</ele>
        <time>2019-09-24T09:42:58Z</time>
      </trkpt>
      <trkpt lat="48.32501" lon="5.69198">
        <ele>362.677</ele>
        <time>2019-09-24T09:43:01Z</time>
      </trkpt>
      <trkpt lat="48.32492" lon="5.69197">
        <ele>361.981</ele>
        <time>2019-09-24T09:43:04Z</time>
      </trkpt>
      <trkpt lat="48.32483" lon="5.69196">
        <ele>361.24</ele>
        <time>2019-09-24T09:43:07Z</time>
      </trkpt>
      <trkpt lat="48.32474" lon="5.69196">
        <ele>361.531</ele>
        <time>2019-09-24T09:43:10Z</time>
      </trkpt>
      <trkpt lat="48.32465" lon="5.69196">
        <ele>361.48</ele>
        <time>2019-09-24T09:43:13Z</time>
      </trkpt>
      <trkpt lat="48.32456" lon="5.69195">
        <ele>361.296</ele>
        <time>2019-09-24T09:43:16Z</time>
      </trkpt>
      <trkpt lat="48.32447" lon="5.69193">
        <ele>362.001</ele>
        <time>2019-09-24T09:43:19Z</time>
      </trkpt>
      <trkpt lat="48.32437" lon="5.69193">
        <ele>361.753</ele>
        <time>2019-09-24T09:43:22Z</time>
      </trkpt>
      <trkpt lat="48.32426" lon="5.69193">
        <ele>361.441</ele>
        <time>2019-09-24T09:43:25Z</time>
      </trkpt>
      <trkpt lat="48.32415" lon="5.69193">
        <ele>361.148</ele>
        <time>2019-09-24T09:43:28Z</time>
      </trkpt>
      <trkpt lat="48.32404" lon="5.69192">
        <ele>360.936</ele>
        <time>2019-09-24T09:43:31Z</time>
      </trkpt>
      <trkpt lat="48.32395" lon="5.6919">
        <ele>361.502</ele>
        <time>2019-09-24T09:43:34Z</time>
      </trkpt>
      <trkpt lat="48.32387" lon="5.69189">
        <ele>362.796</ele>
        <time>2019-09-24T09:43:37Z</time>
      </trkpt>
      <trkpt lat="48.32377" lon="5.69188">
        <ele>363.188</ele>
        <time>2019-09-24T09:43:40Z</time>
      </trkpt>
      <trkpt lat="48.32369" lon="5.69187">
        <ele>364.196</ele>
        <time>2019-09-24T09:43:43Z</time>
      </trkpt>
      <trkpt lat="48.3236" lon="5.69187">
        <ele>364.89</ele>
        <time>2019-09-24T09:43:46Z</time>
      </trkpt>
      <trkpt lat="48.32351" lon="5.69187">
        <ele>364.761</ele>
        <time>2019-09-24T09:43:49Z</time>
      </trkpt>
      <trkpt lat="48.32343" lon="5.69188">
        <ele>364.599</ele>
        <time>2019-09-24T09:43:52Z</time>
      </trkpt>
      <trkpt lat="48.32335" lon="5.69188">
        <ele>364.787</ele>
        <time>2019-09-24T09:43:55Z</time>
      </trkpt>
      <trkpt lat="48.32327" lon="5.69188">
        <ele>364.688</ele>
        <time>2019-09-24T09:43:58Z</time>
      </trkpt>
      <trkpt lat="48.32318" lon="5.69188">
        <ele>364.828</ele>
        <time>2019-09-24T09:44:01Z</time>
      </trkpt>
      <trkpt lat="48.32312" lon="5.69186">
        <ele>365.325</ele>
        <time>2019-09-24T09:44:04Z</time>
      </trkpt>
      <trkpt lat="48.32304" lon="5.69185">
        <ele>365.238</ele>
        <time>2019-09-24T09:44:07Z</time>
      </trkpt>
      <trkpt lat="48.32297" lon="5.69185">
        <ele>365.027</ele>
        <time>2019-09-24T09:44:10Z</time>
      </trkpt>
      <trkpt lat="48.32289" lon="5.69184">
        <ele>365.5</ele>
        <time>2019-09-24T09:44:13Z</time>
      </trkpt>
      <trkpt lat="48.32282" lon="5.69183">
        <ele>365.91</ele>
        <time>2019-09-24T09:44:16Z</time>
      </trkpt>
      <trkpt lat="48.32275" lon="5.69183">
        <ele>366.304</ele>
        <time>2019-09-24T09:44:19Z</time>
      </trkpt>
      <trkpt lat="48.32268" lon="5.69183">
        <ele>366.537</ele>
        <time>2019-09-24T09:44:22Z</time>
      </trkpt>
      <trkpt lat="48.3226" lon="5.69182">
        <ele>366.955</ele>
        <time>2019-09-24T09:44:25Z</time>
      </trkpt>
      <trkpt lat="48.32253" lon="5.69182">
        <ele>367.407</ele>
        <time>2019-09-24T09:44:28Z</time>
      </trkpt>
      <trkpt lat="48.32247" lon="5.69181">
        <ele>368.051</ele>
        <time>2019-09-24T09:44:31Z</time>
      </trkpt>
      <trkpt lat="48.32239" lon="5.69181">
        <ele>368.208</ele>
        <time>2019-09-24T09:44:34Z</time>
      </trkpt>
      <trkpt lat="48.32232" lon="5.6918">
        <ele>368.751</ele>
        <time>2019-09-24T09:44:37Z</time>
      </trkpt>
      <trkpt lat="48.32224" lon="5.69179">
        <ele>369.298</ele>
        <time>2019-09-24T09:44:40Z</time>
      </trkpt>
      <trkpt lat="48.32217" lon="5.69178">
        <ele>369.47</ele>
        <time>2019-09-24T09:44:43Z</time>
      </trkpt>
      <trkpt lat="48.32208" lon="5.69179">
        <ele>369.203</ele>
        <time>2019-09-24T09:44:46Z</time>
      </trkpt>
      <trkpt lat="48.32201" lon="5.69179">
        <ele>369.325</ele>
        <time>2019-09-24T09:44:49Z</time>
      </trkpt>
      <trkpt lat="48.32194" lon="5.69178">
        <ele>369.951</ele>
        <time>2019-09-24T09:44:52Z</time>
      </trkpt>
      <trkpt lat="48.32187" lon="5.69177">
        <ele>370.499</ele>
        <time>2019-09-24T09:44:55Z</time>
      </trkpt>
      <trkpt lat="48.32181" lon="5.69176">
        <ele>371.064</ele>
        <time>2019-09-24T09:44:58Z</time>
      </trkpt>
      <trkpt lat="48.32174" lon="5.69175">
        <ele>371.442</ele>
        <time>2019-09-24T09:45:01Z</time>
      </trkpt>
      <trkpt lat="48.32167" lon="5.69175">
        <ele>371.701</ele>
        <time>2019-09-24T09:45:04Z</time>
      </trkpt>
      <trkpt lat="48.32158" lon="5.69174">
        <ele>371.35</ele>
        <time>2019-09-24T09:45:07Z</time>
      </trkpt>
      <trkpt lat="48.32152" lon="5.69174">
        <ele>371.741</ele>
        <time>2019-09-24T09:45:10Z</time>
      </trkpt>
      <trkpt lat="48.32145" lon="5.69173">
        <ele>372.144</ele>
        <time>2019-09-24T09:45:13Z</time>
      </trkpt>
      <trkpt lat="48.32138" lon="5.69173">
        <ele>372.389</ele>
        <time>2019-09-24T09:45:16Z</time>
      </trkpt>
      <trkpt lat="48.3213" lon="5.69173">
        <ele>372.531</ele>
        <time>2019-09-24T09:45:19Z</time>
      </trkpt>
      <trkpt lat="48.32122" lon="5.69174">
        <ele>372.376</ele>
        <time>2019-09-24T09:45:22Z</time>
      </trkpt>
      <trkpt lat="48.32115" lon="5.69174">
        <ele>372.182</ele>
        <time>2019-09-24T09:45:25Z</time>
      </trkpt>
      <trkpt lat="48.32107" lon="5.69173">
        <ele>372.303</ele>
        <time>2019-09-24T09:45:28Z</time>
      </trkpt>
      <trkpt lat="48.32099" lon="5.69173">
        <ele>372.498</ele>
        <time>2019-09-24T09:45:31Z</time>
      </trkpt>
      <trkpt lat="48.32091" lon="5.69172">
        <ele>372.482</ele>
        <time>2019-09-24T09:45:34Z</time>
      </trkpt>
      <trkpt lat="48.32084" lon="5.69171">
        <ele>373.077</ele>
        <time>2019-09-24T09:45:37Z</time>
      </trkpt>
      <trkpt lat="48.32077" lon="5.6917">
        <ele>373.792</ele>
        <time>2019-09-24T09:45:40Z</time>
      </trkpt>
      <trkpt lat="48.32069" lon="5.6917">
        <ele>373.996</ele>
        <time>2019-09-24T09:45:43Z</time>
      </trkpt>
      <trkpt lat="48.32061" lon="5.69168">
        <ele>374.499</ele>
        <time>2019-09-24T09:45:46Z</time>
      </trkpt>
      <trkpt lat="48.32052" lon="5.69168">
        <ele>375.027</ele>
        <time>2019-09-24T09:45:49Z</time>
      </trkpt>
      <trkpt lat="48.32044" lon="5.69168">
        <ele>375.337</ele>
        <time>2019-09-24T09:45:52Z</time>
      </trkpt>
      <trkpt lat="48.32035" lon="5.69168">
        <ele>375.645</ele>
        <time>2019-09-24T09:45:55Z</time>
      </trkpt>
      <trkpt lat="48.32028" lon="5.69167">
        <ele>375.922</ele>
        <time>2019-09-24T09:45:58Z</time>
      </trkpt>
      <trkpt lat="48.3202" lon="5.69167">
        <ele>375.55</ele>
        <time>2019-09-24T09:46:01Z</time>
      </trkpt>
      <trkpt lat="48.32013" lon="5.69166">
        <ele>376.234</ele>
        <time>2019-09-24T09:46:04Z</time>
      </trkpt>
      <trkpt lat="48.32006" lon="5.69165">
        <ele>376.881</ele>
        <time>2019-09-24T09:46:07Z</time>
      </trkpt>
      <trkpt lat="48.31999" lon="5.69164">
        <ele>377.503</ele>
        <time>2019-09-24T09:46:10Z</time>
      </trkpt>
      <trkpt lat="48.31991" lon="5.69164">
        <ele>378.016</ele>
        <time>2019-09-24T09:46:13Z</time>
      </trkpt>
      <trkpt lat="48.31982" lon="5.69164">
        <ele>378.173</ele>
        <time>2019-09-24T09:46:16Z</time>
      </trkpt>
      <trkpt lat="48.31975" lon="5.69162">
        <ele>378.905</ele>
        <time>2019-09-24T09:46:19Z</time>
      </trkpt>
      <trkpt lat="48.31968" lon="5.69162">
        <ele>379.376</ele>
        <time>2019-09-24T09:46:22Z</time>
      </trkpt>
      <trkpt lat="48.31959" lon="5.69161">
        <ele>379.365</ele>
        <time>2019-09-24T09:46:25Z</time>
      </trkpt>
      <trkpt lat="48.31951" lon="5.6916">
        <ele>379.709</ele>
        <time>2019-09-24T09:46:28Z</time>
      </trkpt>
      <trkpt lat="48.31943" lon="5.6916">
        <ele>380.436</ele>
        <time>2019-09-24T09:46:31Z</time>
      </trkpt>
      <trkpt lat="48.31936" lon="5.69158">
        <ele>380.684</ele>
        <time>2019-09-24T09:46:34Z</time>
      </trkpt>
      <trkpt lat="48.31927" lon="5.69157">
        <ele>380.854</ele>
        <time>2019-09-24T09:46:37Z</time>
      </trkpt>
      <trkpt lat="48.31918" lon="5.69157">
        <ele>381.479</ele>
        <time>2019-09-24T09:46:40Z</time>
      </trkpt>
      <trkpt lat="48.31909" lon="5.69157">
        <ele>381.99</ele>
        <time>2019-09-24T09:46:43Z</time>
      </trkpt>
      <trkpt lat="48.31901" lon="5.69156">
        <ele>382.142</ele>
        <time>2019-09-24T09:46:46Z</time>
      </trkpt>
      <trkpt lat="48.31891" lon="5.69156">
        <ele>382.035</ele>
        <time>2019-09-24T09:46:49Z</time>
      </trkpt>
      <trkpt lat="48.31881" lon="5.69156">
        <ele>382.011</ele>
        <time>2019-09-24T09:46:52Z</time>
      </trkpt>
      <trkpt lat="48.31871" lon="5.69156">
        <ele>382.084</ele>
        <time>2019-09-24T09:46:55Z</time>
      </trkpt>
      <trkpt lat="48.31861" lon="5.69156">
        <ele>382.249</ele>
        <time>2019-09-24T09:46:58Z</time>
      </trkpt>
      <trkpt lat="48.31853" lon="5.69155">
        <ele>382.508</ele>
        <time>2019-09-24T09:47:01Z</time>
      </trkpt>
      <trkpt lat="48.31844" lon="5.69154">
        <ele>383.125</ele>
        <time>2019-09-24T09:47:04Z</time>
      </trkpt>
      <trkpt lat="48.31835" lon="5.69153">
        <ele>383.337</ele>
        <time>2019-09-24T09:47:07Z</time>
      </trkpt>
      <trkpt lat="48.31824" lon="5.69152">
        <ele>383.071</ele>
        <time>2019-09-24T09:47:10Z</time>
      </trkpt>
      <trkpt lat="48.31813" lon="5.69152">
        <ele>382.872</ele>
        <time>2019-09-24T09:47:13Z</time>
      </trkpt>
      <trkpt lat="48.31804" lon="5.69151">
        <ele>383.104</ele>
        <time>2019-09-24T09:47:16Z</time>
      </trkpt>
      <trkpt lat="48.31796" lon="5.6915">
        <ele>383.828</ele>
        <time>2019-09-24T09:47:19Z</time>
      </trkpt>
      <trkpt lat="48.31788" lon="5.69149">
        <ele>384.523</ele>
        <time>2019-09-24T09:47:22Z</time>
      </trkpt>
      <trkpt lat="48.31778" lon="5.69148">
        <ele>385.203</ele>
        <time>2019-09-24T09:47:25Z</time>
      </trkpt>
      <trkpt lat="48.31767" lon="5.69149">
        <ele>384.856</ele>
        <time>2019-09-24T09:47:28Z</time>
      </trkpt>
      <trkpt lat="48.31757" lon="5.69149">
        <ele>384.18</ele>
        <time>2019-09-24T09:47:31Z</time>
      </trkpt>
      <trkpt lat="48.31747" lon="5.69148">
        <ele>383.57</ele>
        <time>2019-09-24T09:47:34Z</time>
      </trkpt>
      <trkpt lat="48.31738" lon="5.69148">
        <ele>383.684</ele>
        <time>2019-09-24T09:47:37Z</time>
      </trkpt>
      <trkpt lat="48.31729" lon="5.69148">
        <ele>383.869</ele>
        <time>2019-09-24T09:47:40Z</time>
      </trkpt>
      <trkpt lat="48.31718" lon="5.69148">
        <ele>383.885</ele>
        <time>2019-09-24T09:47:43Z</time>
      </trkpt>
      <trkpt lat="48.31709" lon="5.69148">
        <ele>384.418</ele>
        <time>2019-09-24T09:47:46Z</time>
      </trkpt>
      <trkpt lat="48.31698" lon="5.69148">
        <ele>384.125</ele>
        <time>2019-09-24T09:47:49Z</time>
      </trkpt>
      <trkpt lat="48.31688" lon="5.69147">
        <ele>384.112</ele>
        <time>2019-09-24T09:47:52Z</time>
      </trkpt>
      <trkpt lat="48.31678" lon="5.69146">
        <ele>384.347</ele>
        <time>2019-09-24T09:47:55Z</time>
      </trkpt>
      <trkpt lat="48.31668" lon="5.69145">
        <ele>384.716</ele>
        <time>2019-09-24T09:47:58Z</time>
      </trkpt>
      <trkpt lat="48.31659" lon="5.69143">
        <ele>385.733</ele>
        <time>2019-09-24T09:48:01Z</time>
      </trkpt>
      <trkpt lat="48.31649" lon="5.69142">
        <ele>386.267</ele>
        <time>2019-09-24T09:48:04Z</time>
      </trkpt>
      <trkpt lat="48.31639" lon="5.69142">
        <ele>386.509</ele>
        <time>2019-09-24T09:48:07Z</time>
      </trkpt>
      <trkpt lat="48.31629" lon="5.69141">
        <ele>387.144</ele>
        <time>2019-09-24T09:48:10Z</time>
      </trkpt>
      <trkpt lat="48.31619" lon="5.6914">
        <ele>387.868</ele>
        <time>2019-09-24T09:48:13Z</time>
      </trkpt>
      <trkpt lat="48.31608" lon="5.69139">
        <ele>388.096</ele>
        <time>2019-09-24T09:48:16Z</time>
      </trkpt>
      <trkpt lat="48.31597" lon="5.6914">
        <ele>387.821</ele>
        <time>2019-09-24T09:48:19Z</time>
      </trkpt>
      <trkpt lat="48.31588" lon="5.69139">
        <ele>387.64</ele>
        <time>2019-09-24T09:48:22Z</time>
      </trkpt>
      <trkpt lat="48.31579" lon="5.69139">
        <ele>387.752</ele>
        <time>2019-09-24T09:48:25Z</time>
      </trkpt>
      <trkpt lat="48.31568" lon="5.69138">
        <ele>387.79</ele>
        <time>2019-09-24T09:48:28Z</time>
      </trkpt>
      <trkpt lat="48.31558" lon="5.69137">
        <ele>388.07</ele>
        <time>2019-09-24T09:48:31Z</time>
      </trkpt>
      <trkpt lat="48.31547" lon="5.69137">
        <ele>388.142</ele>
        <time>2019-09-24T09:48:34Z</time>
      </trkpt>
      <trkpt lat="48.31538" lon="5.69136">
        <ele>388.333</ele>
        <time>2019-09-24T09:48:37Z</time>
      </trkpt>
      <trkpt lat="48.31528" lon="5.69134">
        <ele>388.816</ele>
        <time>2019-09-24T09:48:40Z</time>
      </trkpt>
      <trkpt lat="48.3152" lon="5.69132">
        <ele>389.596</ele>
        <time>2019-09-24T09:48:43Z</time>
      </trkpt>
      <trkpt lat="48.31509" lon="5.69131">
        <ele>390.107</ele>
        <time>2019-09-24T09:48:46Z</time>
      </trkpt>
      <trkpt lat="48.31499" lon="5.6913">
        <ele>390.831</ele>
        <time>2019-09-24T09:48:49Z</time>
      </trkpt>
      <trkpt lat="48.31488" lon="5.6913">
        <ele>390.201</ele>
        <time>2019-09-24T09:48:52Z</time>
      </trkpt>
      <trkpt lat="48.31477" lon="5.6913">
        <ele>389.886</ele>
        <time>2019-09-24T09:48:55Z</time>
      </trkpt>
      <trkpt lat="48.31466" lon="5.6913">
        <ele>389.846</ele>
        <time>2019-09-24T09:48:58Z</time>
      </trkpt>
      <trkpt lat="48.31455" lon="5.6913">
        <ele>389.881</ele>
        <time>2019-09-24T09:49:01Z</time>
      </trkpt>
      <trkpt lat="48.31446" lon="5.69129">
        <ele>390.04</ele>
        <time>2019-09-24T09:49:04Z</time>
      </trkpt>
      <trkpt lat="48.31435" lon="5.69128">
        <ele>390.543</ele>
        <time>2019-09-24T09:49:07Z</time>
      </trkpt>
      <trkpt lat="48.31425" lon="5.69127">
        <ele>390.95</ele>
        <time>2019-09-24T09:49:10Z</time>
      </trkpt>
      <trkpt lat="48.31415" lon="5.69127">
        <ele>391.171</ele>
        <time>2019-09-24T09:49:13Z</time>
      </trkpt>
      <trkpt lat="48.31404" lon="5.69128">
        <ele>391.233</ele>
        <time>2019-09-24T09:49:16Z</time>
      </trkpt>
      <trkpt lat="48.31393" lon="5.69126">
        <ele>391.472</ele>
        <time>2019-09-24T09:49:19Z</time>
      </trkpt>
      <trkpt lat="48.31381" lon="5.69126">
        <ele>391.584</ele>
        <time>2019-09-24T09:49:22Z</time>
      </trkpt>
      <trkpt lat="48.3137" lon="5.69125">
        <ele>391.737</ele>
        <time>2019-09-24T09:49:25Z</time>
      </trkpt>
      <trkpt lat="48.31358" lon="5.69124">
        <ele>391.774</ele>
        <time>2019-09-24T09:49:28Z</time>
      </trkpt>
      <trkpt lat="48.31346" lon="5.69122">
        <ele>391.78</ele>
        <time>2019-09-24T09:49:31Z</time>
      </trkpt>
      <trkpt lat="48.31333" lon="5.69121">
        <ele>391.693</ele>
        <time>2019-09-24T09:49:34Z</time>
      </trkpt>
      <trkpt lat="48.3132" lon="5.69121">
        <ele>391.306</ele>
        <time>2019-09-24T09:49:37Z</time>
      </trkpt>
      <trkpt lat="48.31308" lon="5.6912">
        <ele>391.44</ele>
        <time>2019-09-24T09:49:40Z</time>
      </trkpt>
      <trkpt lat="48.31297" lon="5.69118">
        <ele>392.354</ele>
        <time>2019-09-24T09:49:43Z</time>
      </trkpt>
      <trkpt lat="48.31285" lon="5.69118">
        <ele>393.171</ele>
        <time>2019-09-24T09:49:46Z</time>
      </trkpt>
      <trkpt lat="48.31273" lon="5.69117">
        <ele>393.529</ele>
        <time>2019-09-24T09:49:49Z</time>
      </trkpt>
      <trkpt lat="48.3126" lon="5.69116">
        <ele>393.56</ele>
        <time>2019-09-24T09:49:52Z</time>
      </trkpt>
      <trkpt lat="48.31247" lon="5.69115">
        <ele>393.395</ele>
        <time>2019-09-24T09:49:55Z</time>
      </trkpt>
      <trkpt lat="48.31235" lon="5.69115">
        <ele>393.402</ele>
        <time>2019-09-24T09:49:58Z</time>
      </trkpt>
      <trkpt lat="48.31223" lon="5.69115">
        <ele>393.262</ele>
        <time>2019-09-24T09:50:01Z</time>
      </trkpt>
      <trkpt lat="48.3121" lon="5.69114">
        <ele>393.492</ele>
        <time>2019-09-24T09:50:04Z</time>
      </trkpt>
      <trkpt lat="48.31198" lon="5.69113">
        <ele>393.344</ele>
        <time>2019-09-24T09:50:07Z</time>
      </trkpt>
      <trkpt lat="48.31186" lon="5.69112">
        <ele>393.616</ele>
        <time>2019-09-24T09:50:10Z</time>
      </trkpt>
      <trkpt lat="48.31173" lon="5.69111">
        <ele>393.603</ele>
        <time>2019-09-24T09:50:13Z</time>
      </trkpt>
      <trkpt lat="48.31162" lon="5.6911">
        <ele>394.13</ele>
        <time>2019-09-24T09:50:16Z</time>
      </trkpt>
      <trkpt lat="48.31149" lon="5.69108">
        <ele>395.032</ele>
        <time>2019-09-24T09:50:19Z</time>
      </trkpt>
      <trkpt lat="48.31137" lon="5.69107">
        <ele>395.555</ele>
        <time>2019-09-24T09:50:22Z</time>
      </trkpt>
      <trkpt lat="48.31124" lon="5.69106">
        <ele>395.63</ele>
        <time>2019-09-24T09:50:25Z</time>
      </trkpt>
      <trkpt lat="48.31111" lon="5.69104">
        <ele>394.314</ele>
        <time>2019-09-24T09:50:28Z</time>
      </trkpt>
      <trkpt lat="48.31097" lon="5.69102">
        <ele>394.077</ele>
        <time>2019-09-24T09:50:31Z</time>
      </trkpt>
      <trkpt lat="48.31084" lon="5.69096">
        <ele>394.114</ele>
        <time>2019-09-24T09:50:34Z</time>
      </trkpt>
      <trkpt lat="48.3107" lon="5.69092">
        <ele>394.001</ele>
        <time>2019-09-24T09:50:37Z</time>
      </trkpt>
      <trkpt lat="48.31055" lon="5.69087">
        <ele>393.028</ele>
        <time>2019-09-24T09:50:40Z</time>
      </trkpt>
      <trkpt lat="48.31041" lon="5.69081">
        <ele>392.805</ele>
        <time>2019-09-24T09:50:43Z</time>
      </trkpt>
      <trkpt lat="48.31027" lon="5.69075">
        <ele>392.608</ele>
        <time>2019-09-24T09:50:46Z</time>
      </trkpt>
      <trkpt lat="48.31013" lon="5.6907">
        <ele>392.731</ele>
        <time>2019-09-24T09:50:49Z</time>
      </trkpt>
      <trkpt lat="48.30999" lon="5.69066">
        <ele>392.135</ele>
        <time>2019-09-24T09:50:52Z</time>
      </trkpt>
      <trkpt lat="48.30985" lon="5.69062">
        <ele>391.63</ele>
        <time>2019-09-24T09:50:55Z</time>
      </trkpt>
      <trkpt lat="48.30971" lon="5.69056">
        <ele>391.325</ele>
        <time>2019-09-24T09:50:58Z</time>
      </trkpt>
      <trkpt lat="48.30958" lon="5.69053">
        <ele>391.096</ele>
        <time>2019-09-24T09:51:01Z</time>
      </trkpt>
      <trkpt lat="48.30945" lon="5.69049">
        <ele>390.606</ele>
        <time>2019-09-24T09:51:04Z</time>
      </trkpt>
      <trkpt lat="48.30932" lon="5.69047">
        <ele>390.752</ele>
        <time>2019-09-24T09:51:07Z</time>
      </trkpt>
      <trkpt lat="48.3092" lon="5.69044">
        <ele>390.82</ele>
        <time>2019-09-24T09:51:10Z</time>
      </trkpt>
      <trkpt lat="48.30908" lon="5.6904">
        <ele>390.75</ele>
        <time>2019-09-24T09:51:13Z</time>
      </trkpt>
      <trkpt lat="48.30895" lon="5.69035">
        <ele>390.603</ele>
        <time>2019-09-24T09:51:16Z</time>
      </trkpt>
      <trkpt lat="48.30883" lon="5.69034">
        <ele>390.849</ele>
        <time>2019-09-24T09:51:19Z</time>
      </trkpt>
      <trkpt lat="48.30871" lon="5.69044">
        <ele>391.578</ele>
        <time>2019-09-24T09:51:22Z</time>
      </trkpt>
      <trkpt lat="48.30858" lon="5.69053">
        <ele>391.515</ele>
        <time>2019-09-24T09:51:25Z</time>
      </trkpt>
      <trkpt lat="48.30845" lon="5.69066">
        <ele>390.27</ele>
        <time>2019-09-24T09:51:28Z</time>
      </trkpt>
      <trkpt lat="48.30841" lon="5.69094">
        <ele>388.396</ele>
        <time>2019-09-24T09:51:31Z</time>
      </trkpt>
      <trkpt lat="48.30847" lon="5.69136">
        <ele>386.127</ele>
        <time>2019-09-24T09:51:34Z</time>
      </trkpt>
      <trkpt lat="48.30848" lon="5.69185">
        <ele>383.499</ele>
        <time>2019-09-24T09:51:37Z</time>
      </trkpt>
      <trkpt lat="48.30845" lon="5.69237">
        <ele>380.332</ele>
        <time>2019-09-24T09:51:40Z</time>
      </trkpt>
      <trkpt lat="48.30842" lon="5.6929">
        <ele>377.097</ele>
        <time>2019-09-24T09:51:43Z</time>
      </trkpt>
      <trkpt lat="48.30839" lon="5.69341">
        <ele>374.875</ele>
        <time>2019-09-24T09:51:46Z</time>
      </trkpt>
      <trkpt lat="48.30836" lon="5.69389">
        <ele>372.796</ele>
        <time>2019-09-24T09:51:49Z</time>
      </trkpt>
      <trkpt lat="48.30835" lon="5.69436">
        <ele>370.759</ele>
        <time>2019-09-24T09:51:52Z</time>
      </trkpt>
      <trkpt lat="48.30833" lon="5.69483">
        <ele>368.131</ele>
        <time>2019-09-24T09:51:55Z</time>
      </trkpt>
      <trkpt lat="48.30827" lon="5.6953">
        <ele>365.587</ele>
        <time>2019-09-24T09:51:58Z</time>
      </trkpt>
      <trkpt lat="48.30816" lon="5.69574">
        <ele>363.233</ele>
        <time>2019-09-24T09:52:01Z</time>
      </trkpt>
      <trkpt lat="48.30801" lon="5.69618">
        <ele>360.366</ele>
        <time>2019-09-24T09:52:04Z</time>
      </trkpt>
      <trkpt lat="48.30787" lon="5.69665">
        <ele>357.638</ele>
        <time>2019-09-24T09:52:07Z</time>
      </trkpt>
      <trkpt lat="48.30777" lon="5.69711">
        <ele>354.329</ele>
        <time>2019-09-24T09:52:10Z</time>
      </trkpt>
      <trkpt lat="48.3077" lon="5.69758">
        <ele>351.221</ele>
        <time>2019-09-24T09:52:13Z</time>
      </trkpt>
      <trkpt lat="48.30772" lon="5.69805">
        <ele>348.47</ele>
        <time>2019-09-24T09:52:16Z</time>
      </trkpt>
      <trkpt lat="48.3078" lon="5.69854">
        <ele>345.311</ele>
        <time>2019-09-24T09:52:19Z</time>
      </trkpt>
      <trkpt lat="48.3079" lon="5.699">
        <ele>341.913</ele>
        <time>2019-09-24T09:52:22Z</time>
      </trkpt>
      <trkpt lat="48.30797" lon="5.69945">
        <ele>338.402</ele>
        <time>2019-09-24T09:52:25Z</time>
      </trkpt>
      <trkpt lat="48.30796" lon="5.69991">
        <ele>335.333</ele>
        <time>2019-09-24T09:52:28Z</time>
      </trkpt>
      <trkpt lat="48.30791" lon="5.70038">
        <ele>332.978</ele>
        <time>2019-09-24T09:52:31Z</time>
      </trkpt>
      <trkpt lat="48.30785" lon="5.70087">
        <ele>330.279</ele>
        <time>2019-09-24T09:52:34Z</time>
      </trkpt>
      <trkpt lat="48.30777" lon="5.70136">
        <ele>327.126</ele>
        <time>2019-09-24T09:52:37Z</time>
      </trkpt>
      <trkpt lat="48.3077" lon="5.70182">
        <ele>324.427</ele>
        <time>2019-09-24T09:52:40Z</time>
      </trkpt>
      <trkpt lat="48.30769" lon="5.70229">
        <ele>321.664</ele>
        <time>2019-09-24T09:52:43Z</time>
      </trkpt>
      <trkpt lat="48.30772" lon="5.70283">
        <ele>318.312</ele>
        <time>2019-09-24T09:52:46Z</time>
      </trkpt>
      <trkpt lat="48.30771" lon="5.70337">
        <ele>315.426</ele>
        <time>2019-09-24T09:52:49Z</time>
      </trkpt>
      <trkpt lat="48.30768" lon="5.70387">
        <ele>313.813</ele>
        <time>2019-09-24T09:52:52Z</time>
      </trkpt>
      <trkpt lat="48.30763" lon="5.70431">
        <ele>313.002</ele>
        <time>2019-09-24T09:52:55Z</time>
      </trkpt>
      <trkpt lat="48.30759" lon="5.70471">
        <ele>311.81</ele>
        <time>2019-09-24T09:52:58Z</time>
      </trkpt>
      <trkpt lat="48.30755" lon="5.70506">
        <ele>310.527</ele>
        <time>2019-09-24T09:53:01Z</time>
      </trkpt>
      <trkpt lat="48.30751" lon="5.70538">
        <ele>309.844</ele>
        <time>2019-09-24T09:53:04Z</time>
      </trkpt>
      <trkpt lat="48.30745" lon="5.70564">
        <ele>309.646</ele>
        <time>2019-09-24T09:53:07Z</time>
      </trkpt>
      <trkpt lat="48.30733" lon="5.70588">
        <ele>311.816</ele>
        <time>2019-09-24T09:53:10Z</time>
      </trkpt>
      <trkpt lat="48.30725" lon="5.70605">
        <ele>312.479</ele>
        <time>2019-09-24T09:53:13Z</time>
      </trkpt>
      <trkpt lat="48.30722" lon="5.70619">
        <ele>311.951</ele>
        <time>2019-09-24T09:53:16Z</time>
      </trkpt>
      <trkpt lat="48.30719" lon="5.70631">
        <ele>312.247</ele>
        <time>2019-09-24T09:53:19Z</time>
      </trkpt>
      <trkpt lat="48.30716" lon="5.70639">
        <ele>313.399</ele>
        <time>2019-09-24T09:53:22Z</time>
      </trkpt>
      <trkpt lat="48.30712" lon="5.70648">
        <ele>313.924</ele>
        <time>2019-09-24T09:53:25Z</time>
      </trkpt>
      <trkpt lat="48.30709" lon="5.70659">
        <ele>315.243</ele>
        <time>2019-09-24T09:53:28Z</time>
      </trkpt>
      <trkpt lat="48.30704" lon="5.70671">
        <ele>316.079</ele>
        <time>2019-09-24T09:53:31Z</time>
      </trkpt>
      <trkpt lat="48.30699" lon="5.70683">
        <ele>317.105</ele>
        <time>2019-09-24T09:53:34Z</time>
      </trkpt>
      <trkpt lat="48.30692" lon="5.70697">
        <ele>318.379</ele>
        <time>2019-09-24T09:53:37Z</time>
      </trkpt>
      <trkpt lat="48.30686" lon="5.70711">
        <ele>319.246</ele>
        <time>2019-09-24T09:53:40Z</time>
      </trkpt>
      <trkpt lat="48.30681" lon="5.70726">
        <ele>320.094</ele>
        <time>2019-09-24T09:53:43Z</time>
      </trkpt>
      <trkpt lat="48.30676" lon="5.7074">
        <ele>319.849</ele>
        <time>2019-09-24T09:53:46Z</time>
      </trkpt>
      <trkpt lat="48.30672" lon="5.70753">
        <ele>320.271</ele>
        <time>2019-09-24T09:53:49Z</time>
      </trkpt>
      <trkpt lat="48.3067" lon="5.70766">
        <ele>320.862</ele>
        <time>2019-09-24T09:53:52Z</time>
      </trkpt>
      <trkpt lat="48.30668" lon="5.7078">
        <ele>321.314</ele>
        <time>2019-09-24T09:53:55Z</time>
      </trkpt>
      <trkpt lat="48.30665" lon="5.70794">
        <ele>321.484</ele>
        <time>2019-09-24T09:53:58Z</time>
      </trkpt>
      <trkpt lat="48.30659" lon="5.70804">
        <ele>321.805</ele>
        <time>2019-09-24T09:54:01Z</time>
      </trkpt>
      <trkpt lat="48.30648" lon="5.7081">
        <ele>323.121</ele>
        <time>2019-09-24T09:54:04Z</time>
      </trkpt>
      <trkpt lat="48.30637" lon="5.70811">
        <ele>323.453</ele>
        <time>2019-09-24T09:54:07Z</time>
      </trkpt>
      <trkpt lat="48.30627" lon="5.70806">
        <ele>323.479</ele>
        <time>2019-09-24T09:54:10Z</time>
      </trkpt>
      <trkpt lat="48.30615" lon="5.70793">
        <ele>323.652</ele>
        <time>2019-09-24T09:54:13Z</time>
      </trkpt>
      <trkpt lat="48.30603" lon="5.70779">
        <ele>323.498</ele>
        <time>2019-09-24T09:54:16Z</time>
      </trkpt>
      <trkpt lat="48.30591" lon="5.70763">
        <ele>323.992</ele>
        <time>2019-09-24T09:54:19Z</time>
      </trkpt>
      <trkpt lat="48.30577" lon="5.70746">
        <ele>324.002</ele>
        <time>2019-09-24T09:54:22Z</time>
      </trkpt>
      <trkpt lat="48.30561" lon="5.70728">
        <ele>323.439</ele>
        <time>2019-09-24T09:54:25Z</time>
      </trkpt>
      <trkpt lat="48.30544" lon="5.70709">
        <ele>322.635</ele>
        <time>2019-09-24T09:54:28Z</time>
      </trkpt>
      <trkpt lat="48.30528" lon="5.70687">
        <ele>322.007</ele>
        <time>2019-09-24T09:54:31Z</time>
      </trkpt>
      <trkpt lat="48.30512" lon="5.70665">
        <ele>321.832</ele>
        <time>2019-09-24T09:54:34Z</time>
      </trkpt>
      <trkpt lat="48.30496" lon="5.7064">
        <ele>322.223</ele>
        <time>2019-09-24T09:54:37Z</time>
      </trkpt>
      <trkpt lat="48.3048" lon="5.70619">
        <ele>322.056</ele>
        <time>2019-09-24T09:54:40Z</time>
      </trkpt>
      <trkpt lat="48.30463" lon="5.70599">
        <ele>322.387</ele>
        <time>2019-09-24T09:54:43Z</time>
      </trkpt>
      <trkpt lat="48.30444" lon="5.70579">
        <ele>323.063</ele>
        <time>2019-09-24T09:54:46Z</time>
      </trkpt>
      <trkpt lat="48.30424" lon="5.70563">
        <ele>323.268</ele>
        <time>2019-09-24T09:54:49Z</time>
      </trkpt>
      <trkpt lat="48.30404" lon="5.70545">
        <ele>323.489</ele>
        <time>2019-09-24T09:54:52Z</time>
      </trkpt>
      <trkpt lat="48.30383" lon="5.7053">
        <ele>323.329</ele>
        <time>2019-09-24T09:54:55Z</time>
      </trkpt>
      <trkpt lat="48.30362" lon="5.70519">
        <ele>323.769</ele>
        <time>2019-09-24T09:54:58Z</time>
      </trkpt>
      <trkpt lat="48.30336" lon="5.70513">
        <ele>324.343</ele>
        <time>2019-09-24T09:55:01Z</time>
      </trkpt>
      <trkpt lat="48.30311" lon="5.70505">
        <ele>324.66</ele>
        <time>2019-09-24T09:55:04Z</time>
      </trkpt>
      <trkpt lat="48.30287" lon="5.70499">
        <ele>324.917</ele>
        <time>2019-09-24T09:55:07Z</time>
      </trkpt>
      <trkpt lat="48.30261" lon="5.70493">
        <ele>324.477</ele>
        <time>2019-09-24T09:55:10Z</time>
      </trkpt>
      <trkpt lat="48.30236" lon="5.70484">
        <ele>324.422</ele>
        <time>2019-09-24T09:55:13Z</time>
      </trkpt>
      <trkpt lat="48.30213" lon="5.70472">
        <ele>324.2</ele>
        <time>2019-09-24T09:55:16Z</time>
      </trkpt>
      <trkpt lat="48.30192" lon="5.70459">
        <ele>323.731</ele>
        <time>2019-09-24T09:55:19Z</time>
      </trkpt>
      <trkpt lat="48.30169" lon="5.7045">
        <ele>323.073</ele>
        <time>2019-09-24T09:55:22Z</time>
      </trkpt>
      <trkpt lat="48.30149" lon="5.70441">
        <ele>322.414</ele>
        <time>2019-09-24T09:55:25Z</time>
      </trkpt>
      <trkpt lat="48.3012" lon="5.70426">
        <ele>318.67</ele>
        <time>2019-09-24T09:55:28Z</time>
      </trkpt>
      <trkpt lat="48.3009" lon="5.70427">
        <ele>312.821</ele>
        <time>2019-09-24T09:55:31Z</time>
      </trkpt>
      <trkpt lat="48.30064" lon="5.70432">
        <ele>308.743</ele>
        <time>2019-09-24T09:55:34Z</time>
      </trkpt>
      <trkpt lat="48.30043" lon="5.70438">
        <ele>304.977</ele>
        <time>2019-09-24T09:55:37Z</time>
      </trkpt>
      <trkpt lat="48.30027" lon="5.70446">
        <ele>301.873</ele>
        <time>2019-09-24T09:55:40Z</time>
      </trkpt>
      <trkpt lat="48.30013" lon="5.70454">
        <ele>300.524</ele>
        <time>2019-09-24T09:55:43Z</time>
      </trkpt>
      <trkpt lat="48.29999" lon="5.70464">
        <ele>300.15</ele>
        <time>2019-09-24T09:55:46Z</time>
      </trkpt>
      <trkpt lat="48.29984" lon="5.70472">
        <ele>299.485</ele>
        <time>2019-09-24T09:55:49Z</time>
      </trkpt>
      <trkpt lat="48.29969" lon="5.70482">
        <ele>298.699</ele>
        <time>2019-09-24T09:55:52Z</time>
      </trkpt>
      <trkpt lat="48.29955" lon="5.70494">
        <ele>298.802</ele>
        <time>2019-09-24T09:55:55Z</time>
      </trkpt>
      <trkpt lat="48.29942" lon="5.70507">
        <ele>298.458</ele>
        <time>2019-09-24T09:55:58Z</time>
      </trkpt>
      <trkpt lat="48.29928" lon="5.70519">
        <ele>298.481</ele>
        <time>2019-09-24T09:56:01Z</time>
      </trkpt>
      <trkpt lat="48.29918" lon="5.70533">
        <ele>298.342</ele>
        <time>2019-09-24T09:56:04Z</time>
      </trkpt>
      <trkpt lat="48.29908" lon="5.70546">
        <ele>298.365</ele>
        <time>2019-09-24T09:56:07Z</time>
      </trkpt>
      <trkpt lat="48.29899" lon="5.7056">
        <ele>298.166</ele>
        <time>2019-09-24T09:56:10Z</time>
      </trkpt>
      <trkpt lat="48.2989" lon="5.70573">
        <ele>298.396</ele>
        <time>2019-09-24T09:56:13Z</time>
      </trkpt>
      <trkpt lat="48.29882" lon="5.70588">
        <ele>298.924</ele>
        <time>2019-09-24T09:56:16Z</time>
      </trkpt>
      <trkpt lat="48.29874" lon="5.70603">
        <ele>301.67</ele>
        <time>2019-09-24T09:56:19Z</time>
      </trkpt>
      <trkpt lat="48.29865" lon="5.70617">
        <ele>303.668</ele>
        <time>2019-09-24T09:56:22Z</time>
      </trkpt>
      <trkpt lat="48.29857" lon="5.70631">
        <ele>305.35</ele>
        <time>2019-09-24T09:56:25Z</time>
      </trkpt>
      <trkpt lat="48.29851" lon="5.70645">
        <ele>307.133</ele>
        <time>2019-09-24T09:56:28Z</time>
      </trkpt>
      <trkpt lat="48.29843" lon="5.70659">
        <ele>308.135</ele>
        <time>2019-09-24T09:56:31Z</time>
      </trkpt>
      <trkpt lat="48.29836" lon="5.70675">
        <ele>308.875</ele>
        <time>2019-09-24T09:56:34Z</time>
      </trkpt>
      <trkpt lat="48.29828" lon="5.70688">
        <ele>309.454</ele>
        <time>2019-09-24T09:56:37Z</time>
      </trkpt>
      <trkpt lat="48.29823" lon="5.70703">
        <ele>309.504</ele>
        <time>2019-09-24T09:56:40Z</time>
      </trkpt>
      <trkpt lat="48.29818" lon="5.70717">
        <ele>308.764</ele>
        <time>2019-09-24T09:56:43Z</time>
      </trkpt>
      <trkpt lat="48.29813" lon="5.70732">
        <ele>308.301</ele>
        <time>2019-09-24T09:56:46Z</time>
      </trkpt>
      <trkpt lat="48.29807" lon="5.70745">
        <ele>308.739</ele>
        <time>2019-09-24T09:56:49Z</time>
      </trkpt>
      <trkpt lat="48.29801" lon="5.70758">
        <ele>308.749</ele>
        <time>2019-09-24T09:56:52Z</time>
      </trkpt>
      <trkpt lat="48.29794" lon="5.70768">
        <ele>309.062</ele>
        <time>2019-09-24T09:56:55Z</time>
      </trkpt>
      <trkpt lat="48.29787" lon="5.70779">
        <ele>309.195</ele>
        <time>2019-09-24T09:56:58Z</time>
      </trkpt>
      <trkpt lat="48.29784" lon="5.70791">
        <ele>309.339</ele>
        <time>2019-09-24T09:57:01Z</time>
      </trkpt>
      <trkpt lat="48.29783" lon="5.70808">
        <ele>309.34</ele>
        <time>2019-09-24T09:57:04Z</time>
      </trkpt>
      <trkpt lat="48.29783" lon="5.70826">
        <ele>309.344</ele>
        <time>2019-09-24T09:57:07Z</time>
      </trkpt>
      <trkpt lat="48.29784" lon="5.70845">
        <ele>309.066</ele>
        <time>2019-09-24T09:57:10Z</time>
      </trkpt>
      <trkpt lat="48.29785" lon="5.70866">
        <ele>309.195</ele>
        <time>2019-09-24T09:57:13Z</time>
      </trkpt>
      <trkpt lat="48.29786" lon="5.70887">
        <ele>309.367</ele>
        <time>2019-09-24T09:57:16Z</time>
      </trkpt>
      <trkpt lat="48.29788" lon="5.7091">
        <ele>309.992</ele>
        <time>2019-09-24T09:57:19Z</time>
      </trkpt>
      <trkpt lat="48.29791" lon="5.70942">
        <ele>310.717</ele>
        <time>2019-09-24T09:57:22Z</time>
      </trkpt>
      <trkpt lat="48.29792" lon="5.70973">
        <ele>310.622</ele>
        <time>2019-09-24T09:57:25Z</time>
      </trkpt>
      <trkpt lat="48.29792" lon="5.71003">
        <ele>311.58</ele>
        <time>2019-09-24T09:57:28Z</time>
      </trkpt>
      <trkpt lat="48.29787" lon="5.71033">
        <ele>312.093</ele>
        <time>2019-09-24T09:57:31Z</time>
      </trkpt>
      <trkpt lat="48.29782" lon="5.7106">
        <ele>312.816</ele>
        <time>2019-09-24T09:57:34Z</time>
      </trkpt>
      <trkpt lat="48.29778" lon="5.71083">
        <ele>311.92</ele>
        <time>2019-09-24T09:57:37Z</time>
      </trkpt>
      <trkpt lat="48.29773" lon="5.71101">
        <ele>311.221</ele>
        <time>2019-09-24T09:57:40Z</time>
      </trkpt>
      <trkpt lat="48.29767" lon="5.71117">
        <ele>311.872</ele>
        <time>2019-09-24T09:57:43Z</time>
      </trkpt>
      <trkpt lat="48.29761" lon="5.71131">
        <ele>312.399</ele>
        <time>2019-09-24T09:57:46Z</time>
      </trkpt>
      <trkpt lat="48.2975" lon="5.71142">
        <ele>311.721</ele>
        <time>2019-09-24T09:57:49Z</time>
      </trkpt>
      <trkpt lat="48.29733" lon="5.71142">
        <ele>308.993</ele>
        <time>2019-09-24T09:57:52Z</time>
      </trkpt>
      <trkpt lat="48.29718" lon="5.71135">
        <ele>308.006</ele>
        <time>2019-09-24T09:57:55Z</time>
      </trkpt>
      <trkpt lat="48.29705" lon="5.71128">
        <ele>308.202</ele>
        <time>2019-09-24T09:57:58Z</time>
      </trkpt>
      <trkpt lat="48.29694" lon="5.71123">
        <ele>307.951</ele>
        <time>2019-09-24T09:58:01Z</time>
      </trkpt>
      <trkpt lat="48.29683" lon="5.71117">
        <ele>307.742</ele>
        <time>2019-09-24T09:58:04Z</time>
      </trkpt>
      <trkpt lat="48.29672" lon="5.71113">
        <ele>307.737</ele>
        <time>2019-09-24T07:58:07.001Z</time>
      </trkpt>
      <trkpt lat="48.29662" lon="5.71109">
        <ele>307.545</ele>
        <time>2019-09-24T07:58:10.001Z</time>
      </trkpt>
      <trkpt lat="48.29651" lon="5.71104">
        <ele>307.232</ele>
        <time>2019-09-24T07:58:13.001Z</time>
      </trkpt>
      <trkpt lat="48.2964" lon="5.71098">
        <ele>307.277</ele>
        <time>2019-09-24T09:58:16Z</time>
      </trkpt>
      <trkpt lat="48.2963" lon="5.71094">
        <ele>307.072</ele>
        <time>2019-09-24T07:58:19.001Z</time>
      </trkpt>
      <trkpt lat="48.29619" lon="5.7109">
        <ele>307.406</ele>
        <time>2019-09-24T07:58:22.001Z</time>
      </trkpt>
      <trkpt lat="48.29608" lon="5.71085">
        <ele>307.89</ele>
        <time>2019-09-24T07:58:25.001Z</time>
      </trkpt>
      <trkpt lat="48.29598" lon="5.71078">
        <ele>308.315</ele>
        <time>2019-09-24T07:58:28.001Z</time>
      </trkpt>
      <trkpt lat="48.29587" lon="5.71071">
        <ele>308.563</ele>
        <time>2019-09-24T07:58:31.001Z</time>
      </trkpt>
      <trkpt lat="48.29575" lon="5.71065">
        <ele>308.566</ele>
        <time>2019-09-24T07:58:34.001Z</time>
      </trkpt>
      <trkpt lat="48.29563" lon="5.71059">
        <ele>307.509</ele>
        <time>2019-09-24T07:58:37.001Z</time>
      </trkpt>
      <trkpt lat="48.2955" lon="5.71054">
        <ele>306.558</ele>
        <time>2019-09-24T07:58:40.001Z</time>
      </trkpt>
      <trkpt lat="48.29537" lon="5.71051">
        <ele>305.929</ele>
        <time>2019-09-24T07:58:43.001Z</time>
      </trkpt>
      <trkpt lat="48.29524" lon="5.71048">
        <ele>305.203</ele>
        <time>2019-09-24T07:58:46.001Z</time>
      </trkpt>
      <trkpt lat="48.29511" lon="5.71045">
        <ele>305.155</ele>
        <time>2019-09-24T07:58:49.001Z</time>
      </trkpt>
      <trkpt lat="48.29498" lon="5.71042">
        <ele>304.795</ele>
        <time>2019-09-24T07:58:52.001Z</time>
      </trkpt>
      <trkpt lat="48.29484" lon="5.71041">
        <ele>304.675</ele>
        <time>2019-09-24T07:58:55.001Z</time>
      </trkpt>
      <trkpt lat="48.29471" lon="5.71039">
        <ele>304.719</ele>
        <time>2019-09-24T07:58:58.001Z</time>
      </trkpt>
      <trkpt lat="48.29457" lon="5.71038">
        <ele>304.237</ele>
        <time>2019-09-24T07:59:01.001Z</time>
      </trkpt>
      <trkpt lat="48.29443" lon="5.71036">
        <ele>304.044</ele>
        <time>2019-09-24T07:59:04.001Z</time>
      </trkpt>
      <trkpt lat="48.2943" lon="5.71033">
        <ele>303.979</ele>
        <time>2019-09-24T07:59:07.001Z</time>
      </trkpt>
      <trkpt lat="48.29417" lon="5.71031">
        <ele>303.76</ele>
        <time>2019-09-24T07:59:10.001Z</time>
      </trkpt>
      <trkpt lat="48.29402" lon="5.7103">
        <ele>303.476</ele>
        <time>2019-09-24T07:59:13.001Z</time>
      </trkpt>
      <trkpt lat="48.29386" lon="5.71028">
        <ele>303.258</ele>
        <time>2019-09-24T09:59:16Z</time>
      </trkpt>
      <trkpt lat="48.2937" lon="5.71026">
        <ele>302.908</ele>
        <time>2019-09-24T07:59:19.001Z</time>
      </trkpt>
      <trkpt lat="48.29355" lon="5.71028">
        <ele>302.723</ele>
        <time>2019-09-24T07:59:22.001Z</time>
      </trkpt>
      <trkpt lat="48.29339" lon="5.71036">
        <ele>302.794</ele>
        <time>2019-09-24T07:59:25.001Z</time>
      </trkpt>
      <trkpt lat="48.29325" lon="5.71049">
        <ele>303.288</ele>
        <time>2019-09-24T07:59:28.001Z</time>
      </trkpt>
      <trkpt lat="48.29314" lon="5.71066">
        <ele>304.255</ele>
        <time>2019-09-24T07:59:31.001Z</time>
      </trkpt>
      <trkpt lat="48.29305" lon="5.71086">
        <ele>305.068</ele>
        <time>2019-09-24T07:59:34.001Z</time>
      </trkpt>
      <trkpt lat="48.29297" lon="5.71105">
        <ele>305.195</ele>
        <time>2019-09-24T07:59:37.001Z</time>
      </trkpt>
      <trkpt lat="48.29289" lon="5.71122">
        <ele>305.517</ele>
        <time>2019-09-24T07:59:40.001Z</time>
      </trkpt>
      <trkpt lat="48.29282" lon="5.71137">
        <ele>305.87</ele>
        <time>2019-09-24T07:59:43.001Z</time>
      </trkpt>
      <trkpt lat="48.29275" lon="5.71153">
        <ele>306.381</ele>
        <time>2019-09-24T07:59:46.001Z</time>
      </trkpt>
      <trkpt lat="48.29269" lon="5.71171">
        <ele>306.75</ele>
        <time>2019-09-24T07:59:49.001Z</time>
      </trkpt>
      <trkpt lat="48.29261" lon="5.71188">
        <ele>307.101</ele>
        <time>2019-09-24T07:59:52.001Z</time>
      </trkpt>
      <trkpt lat="48.29254" lon="5.71207">
        <ele>306.936</ele>
        <time>2019-09-24T07:59:55.001Z</time>
      </trkpt>
      <trkpt lat="48.29247" lon="5.71225">
        <ele>307.157</ele>
        <time>2019-09-24T07:59:58.001Z</time>
      </trkpt>
      <trkpt lat="48.29239" lon="5.71242">
        <ele>307.191</ele>
        <time>2019-09-24T08:00:01.001Z</time>
      </trkpt>
      <trkpt lat="48.2923" lon="5.71258">
        <ele>307.116</ele>
        <time>2019-09-24T08:00:04.001Z</time>
      </trkpt>
      <trkpt lat="48.29222" lon="5.71276">
        <ele>306.964</ele>
        <time>2019-09-24T08:00:07.001Z</time>
      </trkpt>
      <trkpt lat="48.2921" lon="5.71293">
        <ele>307.371</ele>
        <time>2019-09-24T08:00:10.001Z</time>
      </trkpt>
      <trkpt lat="48.29199" lon="5.71307">
        <ele>308.509</ele>
        <time>2019-09-24T08:00:13.001Z</time>
      </trkpt>
      <trkpt lat="48.29187" lon="5.7132">
        <ele>309.381</ele>
        <time>2019-09-24T10:00:16Z</time>
      </trkpt>
      <trkpt lat="48.29175" lon="5.71331">
        <ele>310</ele>
        <time>2019-09-24T08:00:19.001Z</time>
      </trkpt>
      <trkpt lat="48.29161" lon="5.71341">
        <ele>310.407</ele>
        <time>2019-09-24T08:00:22.001Z</time>
      </trkpt>
      <trkpt lat="48.29148" lon="5.71349">
        <ele>310.44</ele>
        <time>2019-09-24T08:00:25.001Z</time>
      </trkpt>
      <trkpt lat="48.29136" lon="5.71359">
        <ele>310.896</ele>
        <time>2019-09-24T08:00:28.001Z</time>
      </trkpt>
      <trkpt lat="48.29125" lon="5.71368">
        <ele>311.026</ele>
        <time>2019-09-24T08:00:31.001Z</time>
      </trkpt>
      <trkpt lat="48.29112" lon="5.71378">
        <ele>309.538</ele>
        <time>2019-09-24T08:00:34.001Z</time>
      </trkpt>
      <trkpt lat="48.291" lon="5.71385">
        <ele>308.257</ele>
        <time>2019-09-24T08:00:37.001Z</time>
      </trkpt>
      <trkpt lat="48.29087" lon="5.71391">
        <ele>307.057</ele>
        <time>2019-09-24T08:00:40.001Z</time>
      </trkpt>
      <trkpt lat="48.29073" lon="5.71395">
        <ele>306.193</ele>
        <time>2019-09-24T08:00:43.001Z</time>
      </trkpt>
      <trkpt lat="48.29059" lon="5.71398">
        <ele>305.308</ele>
        <time>2019-09-24T08:00:46.001Z</time>
      </trkpt>
      <trkpt lat="48.29045" lon="5.71401">
        <ele>305.203</ele>
        <time>2019-09-24T08:00:49.001Z</time>
      </trkpt>
      <trkpt lat="48.29032" lon="5.71403">
        <ele>304.77</ele>
        <time>2019-09-24T08:00:52.001Z</time>
      </trkpt>
      <trkpt lat="48.29018" lon="5.71402">
        <ele>304.71</ele>
        <time>2019-09-24T08:00:55.001Z</time>
      </trkpt>
      <trkpt lat="48.29003" lon="5.71399">
        <ele>305.434</ele>
        <time>2019-09-24T08:00:58.001Z</time>
      </trkpt>
      <trkpt lat="48.28991" lon="5.71396">
        <ele>306.355</ele>
        <time>2019-09-24T08:01:01.001Z</time>
      </trkpt>
      <trkpt lat="48.28978" lon="5.71393">
        <ele>306.888</ele>
        <time>2019-09-24T08:01:04.001Z</time>
      </trkpt>
      <trkpt lat="48.28966" lon="5.71389">
        <ele>307.351</ele>
        <time>2019-09-24T08:01:07.001Z</time>
      </trkpt>
      <trkpt lat="48.28953" lon="5.71384">
        <ele>307.249</ele>
        <time>2019-09-24T08:01:10.001Z</time>
      </trkpt>
      <trkpt lat="48.28941" lon="5.71377">
        <ele>308.041</ele>
        <time>2019-09-24T08:01:13.001Z</time>
      </trkpt>
      <trkpt lat="48.2893" lon="5.71369">
        <ele>308.029</ele>
        <time>2019-09-24T10:01:16Z</time>
      </trkpt>
      <trkpt lat="48.28918" lon="5.71361">
        <ele>308.586</ele>
        <time>2019-09-24T08:01:19.001Z</time>
      </trkpt>
      <trkpt lat="48.28907" lon="5.71352">
        <ele>308.377</ele>
        <time>2019-09-24T08:01:22.001Z</time>
      </trkpt>
      <trkpt lat="48.28894" lon="5.71343">
        <ele>308.807</ele>
        <time>2019-09-24T08:01:25.001Z</time>
      </trkpt>
      <trkpt lat="48.28882" lon="5.71332">
        <ele>309.74</ele>
        <time>2019-09-24T08:01:28.001Z</time>
      </trkpt>
      <trkpt lat="48.28872" lon="5.71322">
        <ele>310.019</ele>
        <time>2019-09-24T08:01:31.001Z</time>
      </trkpt>
      <trkpt lat="48.2886" lon="5.71311">
        <ele>311.447</ele>
        <time>2019-09-24T08:01:34.001Z</time>
      </trkpt>
      <trkpt lat="48.28848" lon="5.713">
        <ele>311.78</ele>
        <time>2019-09-24T08:01:37.001Z</time>
      </trkpt>
      <trkpt lat="48.28833" lon="5.71288">
        <ele>311.518</ele>
        <time>2019-09-24T08:01:40.001Z</time>
      </trkpt>
      <trkpt lat="48.28819" lon="5.71276">
        <ele>311.29</ele>
        <time>2019-09-24T08:01:43.001Z</time>
      </trkpt>
      <trkpt lat="48.28806" lon="5.71264">
        <ele>310.766</ele>
        <time>2019-09-24T08:01:46.001Z</time>
      </trkpt>
      <trkpt lat="48.28794" lon="5.71252">
        <ele>309.68</ele>
        <time>2019-09-24T08:01:49.001Z</time>
      </trkpt>
      <trkpt lat="48.28781" lon="5.71239">
        <ele>310.354</ele>
        <time>2019-09-24T08:01:52.001Z</time>
      </trkpt>
      <trkpt lat="48.2877" lon="5.71228">
        <ele>310.402</ele>
        <time>2019-09-24T08:01:55.001Z</time>
      </trkpt>
      <trkpt lat="48.28762" lon="5.71219">
        <ele>310.399</ele>
        <time>2019-09-24T08:01:58.001Z</time>
      </trkpt>
      <trkpt lat="48.28753" lon="5.71207">
        <ele>310.116</ele>
        <time>2019-09-24T08:02:01.001Z</time>
      </trkpt>
      <trkpt lat="48.28744" lon="5.71195">
        <ele>310.889</ele>
        <time>2019-09-24T08:02:04.001Z</time>
      </trkpt>
      <trkpt lat="48.28734" lon="5.71184">
        <ele>311.955</ele>
        <time>2019-09-24T08:02:07.001Z</time>
      </trkpt>
      <trkpt lat="48.28723" lon="5.71168">
        <ele>312.007</ele>
        <time>2019-09-24T08:02:10.001Z</time>
      </trkpt>
      <trkpt lat="48.28711" lon="5.71153">
        <ele>311.443</ele>
        <time>2019-09-24T08:02:13.001Z</time>
      </trkpt>
      <trkpt lat="48.28699" lon="5.71138">
        <ele>310.822</ele>
        <time>2019-09-24T10:02:16Z</time>
      </trkpt>
      <trkpt lat="48.28689" lon="5.71124">
        <ele>311.596</ele>
        <time>2019-09-24T08:02:19.001Z</time>
      </trkpt>
      <trkpt lat="48.28678" lon="5.71109">
        <ele>311.427</ele>
        <time>2019-09-24T08:02:22.001Z</time>
      </trkpt>
      <trkpt lat="48.28667" lon="5.71093">
        <ele>311.172</ele>
        <time>2019-09-24T08:02:25.001Z</time>
      </trkpt>
      <trkpt lat="48.28656" lon="5.71076">
        <ele>311.893</ele>
        <time>2019-09-24T08:02:28.001Z</time>
      </trkpt>
      <trkpt lat="48.28646" lon="5.71061">
        <ele>313.473</ele>
        <time>2019-09-24T08:02:31.001Z</time>
      </trkpt>
      <trkpt lat="48.28636" lon="5.71047">
        <ele>313.237</ele>
        <time>2019-09-24T08:02:34.001Z</time>
      </trkpt>
      <trkpt lat="48.28627" lon="5.71032">
        <ele>312.303</ele>
        <time>2019-09-24T08:02:37.001Z</time>
      </trkpt>
      <trkpt lat="48.28617" lon="5.71017">
        <ele>312.301</ele>
        <time>2019-09-24T08:02:40.001Z</time>
      </trkpt>
      <trkpt lat="48.28607" lon="5.71001">
        <ele>312.56</ele>
        <time>2019-09-24T08:02:43.001Z</time>
      </trkpt>
      <trkpt lat="48.28597" lon="5.70984">
        <ele>312.288</ele>
        <time>2019-09-24T08:02:46.001Z</time>
      </trkpt>
      <trkpt lat="48.28588" lon="5.70968">
        <ele>312.206</ele>
        <time>2019-09-24T08:02:49.001Z</time>
      </trkpt>
      <trkpt lat="48.2858" lon="5.70952">
        <ele>312.309</ele>
        <time>2019-09-24T08:02:52.001Z</time>
      </trkpt>
      <trkpt lat="48.28572" lon="5.70935">
        <ele>312.884</ele>
        <time>2019-09-24T08:02:55.001Z</time>
      </trkpt>
      <trkpt lat="48.28564" lon="5.70918">
        <ele>313.235</ele>
        <time>2019-09-24T08:02:58.001Z</time>
      </trkpt>
      <trkpt lat="48.28557" lon="5.70901">
        <ele>313.886</ele>
        <time>2019-09-24T08:03:01.001Z</time>
      </trkpt>
      <trkpt lat="48.2855" lon="5.70884">
        <ele>313.934</ele>
        <time>2019-09-24T08:03:04.001Z</time>
      </trkpt>
      <trkpt lat="48.28543" lon="5.70868">
        <ele>314.931</ele>
        <time>2019-09-24T08:03:07.001Z</time>
      </trkpt>
      <trkpt lat="48.28536" lon="5.70852">
        <ele>315.349</ele>
        <time>2019-09-24T08:03:10.001Z</time>
      </trkpt>
      <trkpt lat="48.28531" lon="5.70835">
        <ele>316.059</ele>
        <time>2019-09-24T08:03:13.001Z</time>
      </trkpt>
      <trkpt lat="48.28525" lon="5.70818">
        <ele>316.119</ele>
        <time>2019-09-24T10:03:16Z</time>
      </trkpt>
      <trkpt lat="48.28519" lon="5.70802">
        <ele>315.743</ele>
        <time>2019-09-24T08:03:19.001Z</time>
      </trkpt>
      <trkpt lat="48.28513" lon="5.70784">
        <ele>315.616</ele>
        <time>2019-09-24T08:03:22.001Z</time>
      </trkpt>
      <trkpt lat="48.28506" lon="5.70766">
        <ele>314.845</ele>
        <time>2019-09-24T08:03:25.001Z</time>
      </trkpt>
      <trkpt lat="48.28501" lon="5.70748">
        <ele>313.774</ele>
        <time>2019-09-24T08:03:28.001Z</time>
      </trkpt>
      <trkpt lat="48.28496" lon="5.7073">
        <ele>312.425</ele>
        <time>2019-09-24T08:03:31.001Z</time>
      </trkpt>
      <trkpt lat="48.28491" lon="5.70712">
        <ele>311.148</ele>
        <time>2019-09-24T08:03:34.001Z</time>
      </trkpt>
      <trkpt lat="48.28486" lon="5.70694">
        <ele>309.681</ele>
        <time>2019-09-24T08:03:37.001Z</time>
      </trkpt>
      <trkpt lat="48.28483" lon="5.70676">
        <ele>308.545</ele>
        <time>2019-09-24T08:03:40.001Z</time>
      </trkpt>
      <trkpt lat="48.28479" lon="5.70659">
        <ele>307.714</ele>
        <time>2019-09-24T08:03:43.001Z</time>
      </trkpt>
      <trkpt lat="48.28474" lon="5.70642">
        <ele>307.805</ele>
        <time>2019-09-24T08:03:46.001Z</time>
      </trkpt>
      <trkpt lat="48.28469" lon="5.70626">
        <ele>307.578</ele>
        <time>2019-09-24T08:03:49.001Z</time>
      </trkpt>
      <trkpt lat="48.28464" lon="5.70609">
        <ele>307.683</ele>
        <time>2019-09-24T08:03:52.001Z</time>
      </trkpt>
      <trkpt lat="48.28458" lon="5.70591">
        <ele>307.933</ele>
        <time>2019-09-24T08:03:55.001Z</time>
      </trkpt>
      <trkpt lat="48.28452" lon="5.70573">
        <ele>308.181</ele>
        <time>2019-09-24T08:03:58.001Z</time>
      </trkpt>
      <trkpt lat="48.28446" lon="5.70556">
        <ele>308.745</ele>
        <time>2019-09-24T08:04:01.001Z</time>
      </trkpt>
      <trkpt lat="48.2844" lon="5.70538">
        <ele>308.822</ele>
        <time>2019-09-24T08:04:04.001Z</time>
      </trkpt>
      <trkpt lat="48.28435" lon="5.7052">
        <ele>309.211</ele>
        <time>2019-09-24T08:04:07.001Z</time>
      </trkpt>
      <trkpt lat="48.2843" lon="5.70503">
        <ele>310.71</ele>
        <time>2019-09-24T08:04:10.001Z</time>
      </trkpt>
      <trkpt lat="48.28425" lon="5.70486">
        <ele>311.124</ele>
        <time>2019-09-24T08:04:13.001Z</time>
      </trkpt>
      <trkpt lat="48.28421" lon="5.70467">
        <ele>311.426</ele>
        <time>2019-09-24T10:04:16Z</time>
      </trkpt>
      <trkpt lat="48.28414" lon="5.70449">
        <ele>311.94</ele>
        <time>2019-09-24T08:04:19.001Z</time>
      </trkpt>
      <trkpt lat="48.28408" lon="5.70432">
        <ele>312.383</ele>
        <time>2019-09-24T08:04:22.001Z</time>
      </trkpt>
      <trkpt lat="48.28402" lon="5.70415">
        <ele>312.629</ele>
        <time>2019-09-24T08:04:25.001Z</time>
      </trkpt>
      <trkpt lat="48.28396" lon="5.70396">
        <ele>313.009</ele>
        <time>2019-09-24T08:04:28.001Z</time>
      </trkpt>
      <trkpt lat="48.2839" lon="5.70377">
        <ele>313.877</ele>
        <time>2019-09-24T08:04:31.001Z</time>
      </trkpt>
      <trkpt lat="48.28384" lon="5.70358">
        <ele>313.949</ele>
        <time>2019-09-24T08:04:34.001Z</time>
      </trkpt>
      <trkpt lat="48.28378" lon="5.70339">
        <ele>314.341</ele>
        <time>2019-09-24T08:04:37.001Z</time>
      </trkpt>
      <trkpt lat="48.28373" lon="5.70321">
        <ele>314.316</ele>
        <time>2019-09-24T08:04:40.001Z</time>
      </trkpt>
      <trkpt lat="48.28368" lon="5.70303">
        <ele>315.191</ele>
        <time>2019-09-24T08:04:43.001Z</time>
      </trkpt>
      <trkpt lat="48.28363" lon="5.70285">
        <ele>315.014</ele>
        <time>2019-09-24T08:04:46.001Z</time>
      </trkpt>
      <trkpt lat="48.28357" lon="5.70268">
        <ele>314.853</ele>
        <time>2019-09-24T08:04:49.001Z</time>
      </trkpt>
      <trkpt lat="48.28351" lon="5.70251">
        <ele>314.441</ele>
        <time>2019-09-24T08:04:52.001Z</time>
      </trkpt>
      <trkpt lat="48.28345" lon="5.70234">
        <ele>314.025</ele>
        <time>2019-09-24T08:04:55.001Z</time>
      </trkpt>
      <trkpt lat="48.28338" lon="5.70217">
        <ele>314.599</ele>
        <time>2019-09-24T08:04:58.001Z</time>
      </trkpt>
      <trkpt lat="48.28331" lon="5.70202">
        <ele>315.639</ele>
        <time>2019-09-24T08:05:01.001Z</time>
      </trkpt>
      <trkpt lat="48.28324" lon="5.70189">
        <ele>316.32</ele>
        <time>2019-09-24T08:05:04.001Z</time>
      </trkpt>
      <trkpt lat="48.28317" lon="5.70175">
        <ele>317.359</ele>
        <time>2019-09-24T08:05:07.001Z</time>
      </trkpt>
      <trkpt lat="48.2831" lon="5.70164">
        <ele>319.317</ele>
        <time>2019-09-24T08:05:10.001Z</time>
      </trkpt>
      <trkpt lat="48.28302" lon="5.70154">
        <ele>321.027</ele>
        <time>2019-09-24T08:05:13.001Z</time>
      </trkpt>
      <trkpt lat="48.28293" lon="5.70142">
        <ele>322.124</ele>
        <time>2019-09-24T10:05:16Z</time>
      </trkpt>
      <trkpt lat="48.28285" lon="5.70131">
        <ele>322.739</ele>
        <time>2019-09-24T08:05:19.001Z</time>
      </trkpt>
      <trkpt lat="48.28278" lon="5.70117">
        <ele>323.474</ele>
        <time>2019-09-24T08:05:22.001Z</time>
      </trkpt>
      <trkpt lat="48.28271" lon="5.70102">
        <ele>323.549</ele>
        <time>2019-09-24T08:05:25.001Z</time>
      </trkpt>
      <trkpt lat="48.28259" lon="5.70084">
        <ele>323.81</ele>
        <time>2019-09-24T08:05:28.001Z</time>
      </trkpt>
      <trkpt lat="48.28246" lon="5.70066">
        <ele>323.114</ele>
        <time>2019-09-24T08:05:31.001Z</time>
      </trkpt>
      <trkpt lat="48.28234" lon="5.70045">
        <ele>321.351</ele>
        <time>2019-09-24T08:05:34.001Z</time>
      </trkpt>
      <trkpt lat="48.28223" lon="5.70025">
        <ele>319.19</ele>
        <time>2019-09-24T08:05:37.001Z</time>
      </trkpt>
      <trkpt lat="48.28215" lon="5.70006">
        <ele>317.607</ele>
        <time>2019-09-24T08:05:40.001Z</time>
      </trkpt>
      <trkpt lat="48.28207" lon="5.69989">
        <ele>316.029</ele>
        <time>2019-09-24T08:05:43.001Z</time>
      </trkpt>
      <trkpt lat="48.28201" lon="5.69972">
        <ele>314.662</ele>
        <time>2019-09-24T08:05:46.001Z</time>
      </trkpt>
      <trkpt lat="48.28195" lon="5.69956">
        <ele>314.339</ele>
        <time>2019-09-24T08:05:49.001Z</time>
      </trkpt>
      <trkpt lat="48.28189" lon="5.6994">
        <ele>313.536</ele>
        <time>2019-09-24T08:05:52.001Z</time>
      </trkpt>
      <trkpt lat="48.28183" lon="5.69924">
        <ele>313.874</ele>
        <time>2019-09-24T08:05:55.001Z</time>
      </trkpt>
      <trkpt lat="48.2818" lon="5.69908">
        <ele>315.193</ele>
        <time>2019-09-24T08:05:58.001Z</time>
      </trkpt>
      <trkpt lat="48.28177" lon="5.69892">
        <ele>316.893</ele>
        <time>2019-09-24T08:06:01.001Z</time>
      </trkpt>
      <trkpt lat="48.28173" lon="5.69875">
        <ele>318.352</ele>
        <time>2019-09-24T08:06:04.001Z</time>
      </trkpt>
      <trkpt lat="48.28172" lon="5.69856">
        <ele>320.027</ele>
        <time>2019-09-24T08:06:07.001Z</time>
      </trkpt>
      <trkpt lat="48.28171" lon="5.69834">
        <ele>321.492</ele>
        <time>2019-09-24T08:06:10.001Z</time>
      </trkpt>
      <trkpt lat="48.2817" lon="5.69814">
        <ele>323.404</ele>
        <time>2019-09-24T08:06:13.001Z</time>
      </trkpt>
      <trkpt lat="48.28169" lon="5.69792">
        <ele>324.895</ele>
        <time>2019-09-24T10:06:16Z</time>
      </trkpt>
      <trkpt lat="48.2817" lon="5.69772">
        <ele>326.223</ele>
        <time>2019-09-24T08:06:19.001Z</time>
      </trkpt>
      <trkpt lat="48.2817" lon="5.69754">
        <ele>328.419</ele>
        <time>2019-09-24T08:06:22.001Z</time>
      </trkpt>
      <trkpt lat="48.28171" lon="5.69734">
        <ele>330.163</ele>
        <time>2019-09-24T08:06:25.001Z</time>
      </trkpt>
      <trkpt lat="48.28172" lon="5.69713">
        <ele>330.009</ele>
        <time>2019-09-24T08:06:28.001Z</time>
      </trkpt>
      <trkpt lat="48.28174" lon="5.69693">
        <ele>330.339</ele>
        <time>2019-09-24T08:06:31.001Z</time>
      </trkpt>
      <trkpt lat="48.28174" lon="5.69667">
        <ele>330.962</ele>
        <time>2019-09-24T08:06:34.001Z</time>
      </trkpt>
      <trkpt lat="48.28177" lon="5.69642">
        <ele>331.172</ele>
        <time>2019-09-24T08:06:37.001Z</time>
      </trkpt>
      <trkpt lat="48.28179" lon="5.69621">
        <ele>331.384</ele>
        <time>2019-09-24T08:06:40.001Z</time>
      </trkpt>
      <trkpt lat="48.28184" lon="5.69601">
        <ele>331.725</ele>
        <time>2019-09-24T08:06:43.001Z</time>
      </trkpt>
      <trkpt lat="48.28188" lon="5.69583">
        <ele>332.425</ele>
        <time>2019-09-24T08:06:46.001Z</time>
      </trkpt>
      <trkpt lat="48.28194" lon="5.69567">
        <ele>333.343</ele>
        <time>2019-09-24T08:06:49.001Z</time>
      </trkpt>
      <trkpt lat="48.282" lon="5.69548">
        <ele>334.336</ele>
        <time>2019-09-24T08:06:52.001Z</time>
      </trkpt>
      <trkpt lat="48.28205" lon="5.69529">
        <ele>335.518</ele>
        <time>2019-09-24T08:06:55.001Z</time>
      </trkpt>
      <trkpt lat="48.28212" lon="5.69511">
        <ele>337.066</ele>
        <time>2019-09-24T08:06:58.001Z</time>
      </trkpt>
      <trkpt lat="48.28219" lon="5.69492">
        <ele>337.825</ele>
        <time>2019-09-24T08:07:01.001Z</time>
      </trkpt>
      <trkpt lat="48.28227" lon="5.69475">
        <ele>338.152</ele>
        <time>2019-09-24T08:07:04.001Z</time>
      </trkpt>
      <trkpt lat="48.28236" lon="5.69458">
        <ele>338.082</ele>
        <time>2019-09-24T08:07:07.001Z</time>
      </trkpt>
      <trkpt lat="48.28245" lon="5.6944">
        <ele>337.083</ele>
        <time>2019-09-24T08:07:10.001Z</time>
      </trkpt>
      <trkpt lat="48.28254" lon="5.69416">
        <ele>336.139</ele>
        <time>2019-09-24T08:07:13.001Z</time>
      </trkpt>
      <trkpt lat="48.28262" lon="5.69396">
        <ele>335.552</ele>
        <time>2019-09-24T10:07:16Z</time>
      </trkpt>
      <trkpt lat="48.28269" lon="5.69377">
        <ele>334.015</ele>
        <time>2019-09-24T08:07:19.001Z</time>
      </trkpt>
      <trkpt lat="48.28272" lon="5.69356">
        <ele>333.551</ele>
        <time>2019-09-24T08:07:22.001Z</time>
      </trkpt>
      <trkpt lat="48.2827" lon="5.69335">
        <ele>333.413</ele>
        <time>2019-09-24T08:07:25.001Z</time>
      </trkpt>
      <trkpt lat="48.28264" lon="5.69319">
        <ele>333.324</ele>
        <time>2019-09-24T08:07:28.001Z</time>
      </trkpt>
      <trkpt lat="48.28256" lon="5.69303">
        <ele>333.366</ele>
        <time>2019-09-24T08:07:31.001Z</time>
      </trkpt>
      <trkpt lat="48.28246" lon="5.69294">
        <ele>332.864</ele>
        <time>2019-09-24T08:07:34.001Z</time>
      </trkpt>
      <trkpt lat="48.28232" lon="5.69293">
        <ele>331.48</ele>
        <time>2019-09-24T08:07:37.001Z</time>
      </trkpt>
      <trkpt lat="48.28217" lon="5.69296">
        <ele>330.127</ele>
        <time>2019-09-24T08:07:40.001Z</time>
      </trkpt>
      <trkpt lat="48.28203" lon="5.69298">
        <ele>328.384</ele>
        <time>2019-09-24T08:07:43.001Z</time>
      </trkpt>
      <trkpt lat="48.28188" lon="5.69299">
        <ele>326.857</ele>
        <time>2019-09-24T08:07:46.001Z</time>
      </trkpt>
      <trkpt lat="48.28172" lon="5.69301">
        <ele>325.532</ele>
        <time>2019-09-24T08:07:49.001Z</time>
      </trkpt>
      <trkpt lat="48.28158" lon="5.693">
        <ele>324.913</ele>
        <time>2019-09-24T08:07:52.001Z</time>
      </trkpt>
      <trkpt lat="48.28145" lon="5.69299">
        <ele>323.485</ele>
        <time>2019-09-24T08:07:55.001Z</time>
      </trkpt>
      <trkpt lat="48.28132" lon="5.69297">
        <ele>322.23</ele>
        <time>2019-09-24T08:07:58.001Z</time>
      </trkpt>
      <trkpt lat="48.28118" lon="5.69295">
        <ele>320.921</ele>
        <time>2019-09-24T08:08:01.001Z</time>
      </trkpt>
      <trkpt lat="48.28104" lon="5.69293">
        <ele>319.834</ele>
        <time>2019-09-24T08:08:04.001Z</time>
      </trkpt>
      <trkpt lat="48.28091" lon="5.6929">
        <ele>319.94</ele>
        <time>2019-09-24T08:08:07.001Z</time>
      </trkpt>
      <trkpt lat="48.28076" lon="5.69287">
        <ele>320.047</ele>
        <time>2019-09-24T08:08:10.001Z</time>
      </trkpt>
      <trkpt lat="48.28064" lon="5.69283">
        <ele>320.659</ele>
        <time>2019-09-24T08:08:13.001Z</time>
      </trkpt>
      <trkpt lat="48.2805" lon="5.6928">
        <ele>321.579</ele>
        <time>2019-09-24T10:08:16Z</time>
      </trkpt>
      <trkpt lat="48.28036" lon="5.69273">
        <ele>323.569</ele>
        <time>2019-09-24T08:08:19.001Z</time>
      </trkpt>
      <trkpt lat="48.28022" lon="5.69267">
        <ele>325.438</ele>
        <time>2019-09-24T08:08:22.001Z</time>
      </trkpt>
      <trkpt lat="48.28009" lon="5.6926">
        <ele>327.31</ele>
        <time>2019-09-24T08:08:25.001Z</time>
      </trkpt>
      <trkpt lat="48.27997" lon="5.69255">
        <ele>327.86</ele>
        <time>2019-09-24T08:08:28.001Z</time>
      </trkpt>
      <trkpt lat="48.27981" lon="5.69252">
        <ele>328.145</ele>
        <time>2019-09-24T08:08:31.001Z</time>
      </trkpt>
      <trkpt lat="48.27963" lon="5.69246">
        <ele>328.117</ele>
        <time>2019-09-24T08:08:34.001Z</time>
      </trkpt>
      <trkpt lat="48.27946" lon="5.6924">
        <ele>327.569</ele>
        <time>2019-09-24T08:08:37.001Z</time>
      </trkpt>
      <trkpt lat="48.27928" lon="5.69235">
        <ele>328.026</ele>
        <time>2019-09-24T08:08:40.001Z</time>
      </trkpt>
      <trkpt lat="48.27916" lon="5.69228">
        <ele>328.406</ele>
        <time>2019-09-24T08:08:43.001Z</time>
      </trkpt>
      <trkpt lat="48.27901" lon="5.69223">
        <ele>328.764</ele>
        <time>2019-09-24T08:08:46.001Z</time>
      </trkpt>
      <trkpt lat="48.27886" lon="5.6922">
        <ele>328.083</ele>
        <time>2019-09-24T08:08:49.001Z</time>
      </trkpt>
      <trkpt lat="48.27873" lon="5.69219">
        <ele>327.445</ele>
        <time>2019-09-24T08:08:52.001Z</time>
      </trkpt>
      <trkpt lat="48.27858" lon="5.69215">
        <ele>326.602</ele>
        <time>2019-09-24T08:08:55.001Z</time>
      </trkpt>
      <trkpt lat="48.27845" lon="5.6921">
        <ele>326.294</ele>
        <time>2019-09-24T08:08:58.001Z</time>
      </trkpt>
      <trkpt lat="48.27832" lon="5.69207">
        <ele>326.014</ele>
        <time>2019-09-24T08:09:01.001Z</time>
      </trkpt>
      <trkpt lat="48.27819" lon="5.69205">
        <ele>325.966</ele>
        <time>2019-09-24T08:09:04.001Z</time>
      </trkpt>
      <trkpt lat="48.27805" lon="5.69203">
        <ele>325.803</ele>
        <time>2019-09-24T08:09:07.001Z</time>
      </trkpt>
      <trkpt lat="48.27791" lon="5.69201">
        <ele>325.225</ele>
        <time>2019-09-24T08:09:10.001Z</time>
      </trkpt>
      <trkpt lat="48.27777" lon="5.69201">
        <ele>324.81</ele>
        <time>2019-09-24T08:09:13.001Z</time>
      </trkpt>
      <trkpt lat="48.27763" lon="5.69199">
        <ele>323.327</ele>
        <time>2019-09-24T10:09:16Z</time>
      </trkpt>
      <trkpt lat="48.27749" lon="5.69199">
        <ele>322.171</ele>
        <time>2019-09-24T08:09:19.001Z</time>
      </trkpt>
      <trkpt lat="48.27735" lon="5.69197">
        <ele>321.874</ele>
        <time>2019-09-24T08:09:22.001Z</time>
      </trkpt>
      <trkpt lat="48.27721" lon="5.69195">
        <ele>321.322</ele>
        <time>2019-09-24T08:09:25.001Z</time>
      </trkpt>
      <trkpt lat="48.27709" lon="5.69192">
        <ele>321.322</ele>
        <time>2019-09-24T08:09:28.001Z</time>
      </trkpt>
      <trkpt lat="48.27695" lon="5.69189">
        <ele>321.334</ele>
        <time>2019-09-24T08:09:31.001Z</time>
      </trkpt>
      <trkpt lat="48.27682" lon="5.69185">
        <ele>321.639</ele>
        <time>2019-09-24T08:09:34.001Z</time>
      </trkpt>
      <trkpt lat="48.27669" lon="5.69182">
        <ele>322.832</ele>
        <time>2019-09-24T08:09:37.001Z</time>
      </trkpt>
      <trkpt lat="48.27658" lon="5.69179">
        <ele>323.305</ele>
        <time>2019-09-24T08:09:40.001Z</time>
      </trkpt>
      <trkpt lat="48.27644" lon="5.69175">
        <ele>324.252</ele>
        <time>2019-09-24T08:09:43.001Z</time>
      </trkpt>
      <trkpt lat="48.2763" lon="5.69171">
        <ele>325.008</ele>
        <time>2019-09-24T08:09:46.001Z</time>
      </trkpt>
      <trkpt lat="48.27616" lon="5.69167">
        <ele>324.332</ele>
        <time>2019-09-24T08:09:49.001Z</time>
      </trkpt>
      <trkpt lat="48.27603" lon="5.69165">
        <ele>323.249</ele>
        <time>2019-09-24T08:09:52.001Z</time>
      </trkpt>
      <trkpt lat="48.27591" lon="5.69158">
        <ele>323.162</ele>
        <time>2019-09-24T08:09:55.001Z</time>
      </trkpt>
      <trkpt lat="48.27578" lon="5.69152">
        <ele>323.078</ele>
        <time>2019-09-24T08:09:58.001Z</time>
      </trkpt>
      <trkpt lat="48.27563" lon="5.69145">
        <ele>323.225</ele>
        <time>2019-09-24T08:10:01.001Z</time>
      </trkpt>
      <trkpt lat="48.2755" lon="5.69136">
        <ele>323.94</ele>
        <time>2019-09-24T08:10:04.001Z</time>
      </trkpt>
      <trkpt lat="48.27539" lon="5.69125">
        <ele>324.727</ele>
        <time>2019-09-24T08:10:07.001Z</time>
      </trkpt>
      <trkpt lat="48.27529" lon="5.69113">
        <ele>325.227</ele>
        <time>2019-09-24T08:10:10.001Z</time>
      </trkpt>
      <trkpt lat="48.27518" lon="5.69099">
        <ele>326.986</ele>
        <time>2019-09-24T08:10:13.001Z</time>
      </trkpt>
      <trkpt lat="48.27507" lon="5.69086">
        <ele>330.334</ele>
        <time>2019-09-24T10:10:16Z</time>
      </trkpt>
      <trkpt lat="48.27495" lon="5.69073">
        <ele>333.403</ele>
        <time>2019-09-24T08:10:19.001Z</time>
      </trkpt>
      <trkpt lat="48.27485" lon="5.69062">
        <ele>335.502</ele>
        <time>2019-09-24T08:10:22.001Z</time>
      </trkpt>
      <trkpt lat="48.27476" lon="5.69048">
        <ele>337.018</ele>
        <time>2019-09-24T08:10:25.001Z</time>
      </trkpt>
      <trkpt lat="48.27468" lon="5.69033">
        <ele>337.664</ele>
        <time>2019-09-24T08:10:28.001Z</time>
      </trkpt>
      <trkpt lat="48.27459" lon="5.69016">
        <ele>338.853</ele>
        <time>2019-09-24T08:10:31.001Z</time>
      </trkpt>
      <trkpt lat="48.2745" lon="5.68996">
        <ele>340.186</ele>
        <time>2019-09-24T08:10:34.001Z</time>
      </trkpt>
      <trkpt lat="48.27443" lon="5.68979">
        <ele>340.749</ele>
        <time>2019-09-24T08:10:37.001Z</time>
      </trkpt>
      <trkpt lat="48.27436" lon="5.68962">
        <ele>340.875</ele>
        <time>2019-09-24T08:10:40.001Z</time>
      </trkpt>
      <trkpt lat="48.2743" lon="5.68942">
        <ele>341.182</ele>
        <time>2019-09-24T08:10:43.001Z</time>
      </trkpt>
      <trkpt lat="48.27427" lon="5.68919">
        <ele>341.096</ele>
        <time>2019-09-24T08:10:46.001Z</time>
      </trkpt>
      <trkpt lat="48.27422" lon="5.689">
        <ele>341.001</ele>
        <time>2019-09-24T08:10:49.001Z</time>
      </trkpt>
      <trkpt lat="48.27421" lon="5.68881">
        <ele>341.577</ele>
        <time>2019-09-24T08:10:52.001Z</time>
      </trkpt>
      <trkpt lat="48.27419" lon="5.68859">
        <ele>341.888</ele>
        <time>2019-09-24T08:10:55.001Z</time>
      </trkpt>
      <trkpt lat="48.27418" lon="5.68839">
        <ele>341.948</ele>
        <time>2019-09-24T08:10:58.001Z</time>
      </trkpt>
      <trkpt lat="48.27419" lon="5.68816">
        <ele>343.111</ele>
        <time>2019-09-24T08:11:01.001Z</time>
      </trkpt>
      <trkpt lat="48.27417" lon="5.68795">
        <ele>343.78</ele>
        <time>2019-09-24T08:11:04.001Z</time>
      </trkpt>
      <trkpt lat="48.27417" lon="5.68775">
        <ele>345.271</ele>
        <time>2019-09-24T08:11:07.001Z</time>
      </trkpt>
      <trkpt lat="48.27416" lon="5.68756">
        <ele>346.951</ele>
        <time>2019-09-24T08:11:10.001Z</time>
      </trkpt>
      <trkpt lat="48.27416" lon="5.68736">
        <ele>347.674</ele>
        <time>2019-09-24T08:11:13.001Z</time>
      </trkpt>
      <trkpt lat="48.27417" lon="5.68718">
        <ele>349.032</ele>
        <time>2019-09-24T10:11:16Z</time>
      </trkpt>
      <trkpt lat="48.27417" lon="5.68702">
        <ele>349.377</ele>
        <time>2019-09-24T08:11:19.001Z</time>
      </trkpt>
      <trkpt lat="48.2742" lon="5.68681">
        <ele>349.278</ele>
        <time>2019-09-24T08:11:22.001Z</time>
      </trkpt>
      <trkpt lat="48.27423" lon="5.68654">
        <ele>348.431</ele>
        <time>2019-09-24T08:11:25.001Z</time>
      </trkpt>
      <trkpt lat="48.27427" lon="5.6863">
        <ele>347.291</ele>
        <time>2019-09-24T08:11:28.001Z</time>
      </trkpt>
      <trkpt lat="48.27428" lon="5.6861">
        <ele>345.724</ele>
        <time>2019-09-24T08:11:31.001Z</time>
      </trkpt>
      <trkpt lat="48.2743" lon="5.68588">
        <ele>344.548</ele>
        <time>2019-09-24T08:11:34.001Z</time>
      </trkpt>
      <trkpt lat="48.2743" lon="5.68569">
        <ele>344.931</ele>
        <time>2019-09-24T08:11:37.001Z</time>
      </trkpt>
      <trkpt lat="48.27427" lon="5.68556">
        <ele>344.277</ele>
        <time>2019-09-24T08:11:40.001Z</time>
      </trkpt>
      <trkpt lat="48.27423" lon="5.68541">
        <ele>344.157</ele>
        <time>2019-09-24T08:11:43.001Z</time>
      </trkpt>
      <trkpt lat="48.27418" lon="5.68525">
        <ele>343.748</ele>
        <time>2019-09-24T08:11:46.001Z</time>
      </trkpt>
      <trkpt lat="48.27407" lon="5.68509">
        <ele>342.215</ele>
        <time>2019-09-24T08:11:49.001Z</time>
      </trkpt>
      <trkpt lat="48.27395" lon="5.68497">
        <ele>339.437</ele>
        <time>2019-09-24T08:11:52.001Z</time>
      </trkpt>
      <trkpt lat="48.2738" lon="5.68491">
        <ele>336.055</ele>
        <time>2019-09-24T08:11:55.001Z</time>
      </trkpt>
      <trkpt lat="48.27367" lon="5.68491">
        <ele>334.334</ele>
        <time>2019-09-24T08:11:58.001Z</time>
      </trkpt>
      <trkpt lat="48.27355" lon="5.68493">
        <ele>333.623</ele>
        <time>2019-09-24T08:12:01.001Z</time>
      </trkpt>
      <trkpt lat="48.27341" lon="5.68499">
        <ele>332.149</ele>
        <time>2019-09-24T08:12:04.001Z</time>
      </trkpt>
      <trkpt lat="48.27328" lon="5.68506">
        <ele>330.818</ele>
        <time>2019-09-24T08:12:07.001Z</time>
      </trkpt>
      <trkpt lat="48.27311" lon="5.68514">
        <ele>328.897</ele>
        <time>2019-09-24T08:12:10.001Z</time>
      </trkpt>
      <trkpt lat="48.27294" lon="5.68523">
        <ele>327.156</ele>
        <time>2019-09-24T08:12:13.001Z</time>
      </trkpt>
      <trkpt lat="48.27276" lon="5.68533">
        <ele>325.281</ele>
        <time>2019-09-24T10:12:16Z</time>
      </trkpt>
      <trkpt lat="48.2726" lon="5.68545">
        <ele>324.195</ele>
        <time>2019-09-24T08:12:19.001Z</time>
      </trkpt>
      <trkpt lat="48.27244" lon="5.68554">
        <ele>322.946</ele>
        <time>2019-09-24T08:12:22.001Z</time>
      </trkpt>
      <trkpt lat="48.27231" lon="5.68563">
        <ele>322.2</ele>
        <time>2019-09-24T08:12:25.001Z</time>
      </trkpt>
      <trkpt lat="48.27215" lon="5.68572">
        <ele>321.874</ele>
        <time>2019-09-24T08:12:28.001Z</time>
      </trkpt>
      <trkpt lat="48.272" lon="5.6858">
        <ele>322.412</ele>
        <time>2019-09-24T08:12:31.001Z</time>
      </trkpt>
      <trkpt lat="48.27187" lon="5.68589">
        <ele>323.075</ele>
        <time>2019-09-24T08:12:34.001Z</time>
      </trkpt>
      <trkpt lat="48.27172" lon="5.68596">
        <ele>322.607</ele>
        <time>2019-09-24T08:12:37.001Z</time>
      </trkpt>
      <trkpt lat="48.27155" lon="5.68602">
        <ele>322.341</ele>
        <time>2019-09-24T08:12:40.001Z</time>
      </trkpt>
      <trkpt lat="48.27138" lon="5.68611">
        <ele>320.962</ele>
        <time>2019-09-24T08:12:43.001Z</time>
      </trkpt>
      <trkpt lat="48.27119" lon="5.68619">
        <ele>319.749</ele>
        <time>2019-09-24T08:12:46.001Z</time>
      </trkpt>
      <trkpt lat="48.27102" lon="5.68628">
        <ele>318.786</ele>
        <time>2019-09-24T08:12:49.001Z</time>
      </trkpt>
      <trkpt lat="48.27082" lon="5.68634">
        <ele>318.224</ele>
        <time>2019-09-24T08:12:52.001Z</time>
      </trkpt>
      <trkpt lat="48.27064" lon="5.68636">
        <ele>317.438</ele>
        <time>2019-09-24T08:12:55.001Z</time>
      </trkpt>
      <trkpt lat="48.27047" lon="5.68636">
        <ele>316.12</ele>
        <time>2019-09-24T08:12:58.001Z</time>
      </trkpt>
      <trkpt lat="48.27029" lon="5.68633">
        <ele>315.308</ele>
        <time>2019-09-24T08:13:01.001Z</time>
      </trkpt>
      <trkpt lat="48.27013" lon="5.68628">
        <ele>314.59</ele>
        <time>2019-09-24T08:13:04.001Z</time>
      </trkpt>
      <trkpt lat="48.26997" lon="5.68622">
        <ele>313.824</ele>
        <time>2019-09-24T08:13:07.001Z</time>
      </trkpt>
      <trkpt lat="48.26982" lon="5.68617">
        <ele>313.139</ele>
        <time>2019-09-24T08:13:10.001Z</time>
      </trkpt>
      <trkpt lat="48.26967" lon="5.68611">
        <ele>312.839</ele>
        <time>2019-09-24T08:13:13.001Z</time>
      </trkpt>
      <trkpt lat="48.26952" lon="5.68606">
        <ele>312.799</ele>
        <time>2019-09-24T10:13:16Z</time>
      </trkpt>
      <trkpt lat="48.26938" lon="5.686">
        <ele>312.994</ele>
        <time>2019-09-24T08:13:19.001Z</time>
      </trkpt>
      <trkpt lat="48.26923" lon="5.68595">
        <ele>313.359</ele>
        <time>2019-09-24T08:13:22.001Z</time>
      </trkpt>
      <trkpt lat="48.26909" lon="5.68589">
        <ele>313.506</ele>
        <time>2019-09-24T08:13:25.001Z</time>
      </trkpt>
      <trkpt lat="48.26893" lon="5.68583">
        <ele>313.596</ele>
        <time>2019-09-24T08:13:28.001Z</time>
      </trkpt>
      <trkpt lat="48.26879" lon="5.68575">
        <ele>313.793</ele>
        <time>2019-09-24T08:13:31.001Z</time>
      </trkpt>
      <trkpt lat="48.26864" lon="5.68565">
        <ele>314.075</ele>
        <time>2019-09-24T08:13:34.001Z</time>
      </trkpt>
      <trkpt lat="48.26849" lon="5.68553">
        <ele>314.929</ele>
        <time>2019-09-24T08:13:37.001Z</time>
      </trkpt>
      <trkpt lat="48.26835" lon="5.68541">
        <ele>315.11</ele>
        <time>2019-09-24T08:13:40.001Z</time>
      </trkpt>
      <trkpt lat="48.26822" lon="5.68531">
        <ele>314.483</ele>
        <time>2019-09-24T08:13:43.001Z</time>
      </trkpt>
      <trkpt lat="48.26808" lon="5.6852">
        <ele>314.636</ele>
        <time>2019-09-24T08:13:46.001Z</time>
      </trkpt>
      <trkpt lat="48.26795" lon="5.68509">
        <ele>314.452</ele>
        <time>2019-09-24T08:13:49.001Z</time>
      </trkpt>
      <trkpt lat="48.26781" lon="5.685">
        <ele>314.001</ele>
        <time>2019-09-24T08:13:52.001Z</time>
      </trkpt>
      <trkpt lat="48.26768" lon="5.68489">
        <ele>313.688</ele>
        <time>2019-09-24T08:13:55.001Z</time>
      </trkpt>
      <trkpt lat="48.26754" lon="5.68478">
        <ele>313.541</ele>
        <time>2019-09-24T08:13:58.001Z</time>
      </trkpt>
      <trkpt lat="48.2674" lon="5.68466">
        <ele>313.585</ele>
        <time>2019-09-24T08:14:01.001Z</time>
      </trkpt>
      <trkpt lat="48.26726" lon="5.68456">
        <ele>313.611</ele>
        <time>2019-09-24T08:14:04.001Z</time>
      </trkpt>
      <trkpt lat="48.26713" lon="5.68446">
        <ele>313.917</ele>
        <time>2019-09-24T08:14:07.001Z</time>
      </trkpt>
      <trkpt lat="48.26699" lon="5.68434">
        <ele>314.024</ele>
        <time>2019-09-24T08:14:10.001Z</time>
      </trkpt>
      <trkpt lat="48.26686" lon="5.68422">
        <ele>314.126</ele>
        <time>2019-09-24T08:14:13.001Z</time>
      </trkpt>
      <trkpt lat="48.26674" lon="5.68408">
        <ele>314.3</ele>
        <time>2019-09-24T10:14:16Z</time>
      </trkpt>
      <trkpt lat="48.26663" lon="5.68393">
        <ele>314.819</ele>
        <time>2019-09-24T08:14:19.001Z</time>
      </trkpt>
      <trkpt lat="48.26653" lon="5.68377">
        <ele>315.149</ele>
        <time>2019-09-24T08:14:22.001Z</time>
      </trkpt>
      <trkpt lat="48.26644" lon="5.6836">
        <ele>315.374</ele>
        <time>2019-09-24T08:14:25.001Z</time>
      </trkpt>
      <trkpt lat="48.26635" lon="5.68343">
        <ele>315.876</ele>
        <time>2019-09-24T08:14:28.001Z</time>
      </trkpt>
      <trkpt lat="48.26626" lon="5.68325">
        <ele>315.872</ele>
        <time>2019-09-24T08:14:31.001Z</time>
      </trkpt>
      <trkpt lat="48.26616" lon="5.68307">
        <ele>315.988</ele>
        <time>2019-09-24T08:14:34.001Z</time>
      </trkpt>
      <trkpt lat="48.26607" lon="5.68288">
        <ele>316.034</ele>
        <time>2019-09-24T08:14:37.001Z</time>
      </trkpt>
      <trkpt lat="48.26597" lon="5.6827">
        <ele>316.043</ele>
        <time>2019-09-24T08:14:40.001Z</time>
      </trkpt>
      <trkpt lat="48.26586" lon="5.68252">
        <ele>315.571</ele>
        <time>2019-09-24T08:14:43.001Z</time>
      </trkpt>
      <trkpt lat="48.26576" lon="5.68234">
        <ele>314.594</ele>
        <time>2019-09-24T08:14:46.001Z</time>
      </trkpt>
      <trkpt lat="48.26566" lon="5.68215">
        <ele>313.864</ele>
        <time>2019-09-24T08:14:49.001Z</time>
      </trkpt>
      <trkpt lat="48.26555" lon="5.68197">
        <ele>313.138</ele>
        <time>2019-09-24T08:14:52.001Z</time>
      </trkpt>
      <trkpt lat="48.26546" lon="5.68178">
        <ele>312.753</ele>
        <time>2019-09-24T08:14:55.001Z</time>
      </trkpt>
      <trkpt lat="48.26536" lon="5.68161">
        <ele>312.828</ele>
        <time>2019-09-24T08:14:58.001Z</time>
      </trkpt>
      <trkpt lat="48.26527" lon="5.68143">
        <ele>312.966</ele>
        <time>2019-09-24T08:15:01.001Z</time>
      </trkpt>
      <trkpt lat="48.26519" lon="5.68125">
        <ele>313.024</ele>
        <time>2019-09-24T08:15:04.001Z</time>
      </trkpt>
      <trkpt lat="48.2651" lon="5.68106">
        <ele>313.205</ele>
        <time>2019-09-24T08:15:07.001Z</time>
      </trkpt>
      <trkpt lat="48.265" lon="5.68087">
        <ele>313.004</ele>
        <time>2019-09-24T08:15:10.001Z</time>
      </trkpt>
      <trkpt lat="48.26491" lon="5.6807">
        <ele>312.693</ele>
        <time>2019-09-24T08:15:13.001Z</time>
      </trkpt>
      <trkpt lat="48.26481" lon="5.68053">
        <ele>312.517</ele>
        <time>2019-09-24T10:15:16Z</time>
      </trkpt>
      <trkpt lat="48.26472" lon="5.68035">
        <ele>312.263</ele>
        <time>2019-09-24T08:15:19.001Z</time>
      </trkpt>
      <trkpt lat="48.26463" lon="5.6802">
        <ele>312.032</ele>
        <time>2019-09-24T08:15:22.001Z</time>
      </trkpt>
      <trkpt lat="48.26454" lon="5.68005">
        <ele>311.922</ele>
        <time>2019-09-24T08:15:25.001Z</time>
      </trkpt>
      <trkpt lat="48.26445" lon="5.67989">
        <ele>311.954</ele>
        <time>2019-09-24T08:15:28.001Z</time>
      </trkpt>
      <trkpt lat="48.26435" lon="5.6797">
        <ele>312.194</ele>
        <time>2019-09-24T08:15:31.001Z</time>
      </trkpt>
      <trkpt lat="48.26426" lon="5.67952">
        <ele>312.351</ele>
        <time>2019-09-24T08:15:34.001Z</time>
      </trkpt>
      <trkpt lat="48.26417" lon="5.67935">
        <ele>312.377</ele>
        <time>2019-09-24T08:15:37.001Z</time>
      </trkpt>
      <trkpt lat="48.26407" lon="5.67921">
        <ele>313.981</ele>
        <time>2019-09-24T08:15:40.001Z</time>
      </trkpt>
      <trkpt lat="48.26396" lon="5.67906">
        <ele>314.349</ele>
        <time>2019-09-24T08:15:43.001Z</time>
      </trkpt>
      <trkpt lat="48.26385" lon="5.6789">
        <ele>314.387</ele>
        <time>2019-09-24T08:15:46.001Z</time>
      </trkpt>
      <trkpt lat="48.26372" lon="5.67876">
        <ele>314.764</ele>
        <time>2019-09-24T08:15:49.001Z</time>
      </trkpt>
      <trkpt lat="48.26361" lon="5.67862">
        <ele>314.769</ele>
        <time>2019-09-24T08:15:52.001Z</time>
      </trkpt>
      <trkpt lat="48.26349" lon="5.67849">
        <ele>314.407</ele>
        <time>2019-09-24T08:15:55.001Z</time>
      </trkpt>
      <trkpt lat="48.26337" lon="5.67836">
        <ele>313.714</ele>
        <time>2019-09-24T08:15:58.001Z</time>
      </trkpt>
      <trkpt lat="48.26325" lon="5.67823">
        <ele>313.21</ele>
        <time>2019-09-24T08:16:01.001Z</time>
      </trkpt>
      <trkpt lat="48.26313" lon="5.67809">
        <ele>312.804</ele>
        <time>2019-09-24T08:16:04.001Z</time>
      </trkpt>
      <trkpt lat="48.26302" lon="5.67794">
        <ele>312.701</ele>
        <time>2019-09-24T08:16:07.001Z</time>
      </trkpt>
      <trkpt lat="48.2629" lon="5.6778">
        <ele>312.575</ele>
        <time>2019-09-24T08:16:10.001Z</time>
      </trkpt>
      <trkpt lat="48.26278" lon="5.67766">
        <ele>312.497</ele>
        <time>2019-09-24T08:16:13.001Z</time>
      </trkpt>
      <trkpt lat="48.26265" lon="5.67753">
        <ele>312.402</ele>
        <time>2019-09-24T10:16:16Z</time>
      </trkpt>
      <trkpt lat="48.26254" lon="5.6774">
        <ele>312.047</ele>
        <time>2019-09-24T08:16:19.001Z</time>
      </trkpt>
      <trkpt lat="48.26243" lon="5.67728">
        <ele>311.738</ele>
        <time>2019-09-24T08:16:22.001Z</time>
      </trkpt>
      <trkpt lat="48.26232" lon="5.67714">
        <ele>311.608</ele>
        <time>2019-09-24T08:16:25.001Z</time>
      </trkpt>
      <trkpt lat="48.26221" lon="5.67701">
        <ele>311.575</ele>
        <time>2019-09-24T08:16:28.001Z</time>
      </trkpt>
      <trkpt lat="48.2621" lon="5.67687">
        <ele>311.881</ele>
        <time>2019-09-24T08:16:31.001Z</time>
      </trkpt>
      <trkpt lat="48.26199" lon="5.67675">
        <ele>311.697</ele>
        <time>2019-09-24T08:16:34.001Z</time>
      </trkpt>
      <trkpt lat="48.26187" lon="5.67663">
        <ele>311.41</ele>
        <time>2019-09-24T08:16:37.001Z</time>
      </trkpt>
      <trkpt lat="48.26175" lon="5.67651">
        <ele>311.484</ele>
        <time>2019-09-24T08:16:40.001Z</time>
      </trkpt>
      <trkpt lat="48.26164" lon="5.67638">
        <ele>311.974</ele>
        <time>2019-09-24T08:16:43.001Z</time>
      </trkpt>
      <trkpt lat="48.26152" lon="5.67625">
        <ele>312.918</ele>
        <time>2019-09-24T08:16:46.001Z</time>
      </trkpt>
      <trkpt lat="48.26139" lon="5.67612">
        <ele>312.998</ele>
        <time>2019-09-24T08:16:49.001Z</time>
      </trkpt>
      <trkpt lat="48.26127" lon="5.67598">
        <ele>313.032</ele>
        <time>2019-09-24T08:16:52.001Z</time>
      </trkpt>
      <trkpt lat="48.26115" lon="5.67583">
        <ele>312.705</ele>
        <time>2019-09-24T08:16:55.001Z</time>
      </trkpt>
      <trkpt lat="48.26103" lon="5.67568">
        <ele>312.947</ele>
        <time>2019-09-24T08:16:58.001Z</time>
      </trkpt>
      <trkpt lat="48.26093" lon="5.6755">
        <ele>313.384</ele>
        <time>2019-09-24T08:17:01.001Z</time>
      </trkpt>
      <trkpt lat="48.26084" lon="5.67532">
        <ele>313.199</ele>
        <time>2019-09-24T08:17:04.001Z</time>
      </trkpt>
      <trkpt lat="48.26075" lon="5.67512">
        <ele>313.653</ele>
        <time>2019-09-24T08:17:07.001Z</time>
      </trkpt>
      <trkpt lat="48.26068" lon="5.6749">
        <ele>314.422</ele>
        <time>2019-09-24T08:17:10.001Z</time>
      </trkpt>
      <trkpt lat="48.26061" lon="5.67469">
        <ele>314.652</ele>
        <time>2019-09-24T08:17:13.001Z</time>
      </trkpt>
      <trkpt lat="48.26055" lon="5.67448">
        <ele>314.767</ele>
        <time>2019-09-24T10:17:16Z</time>
      </trkpt>
      <trkpt lat="48.26049" lon="5.67425">
        <ele>313.944</ele>
        <time>2019-09-24T08:17:19.001Z</time>
      </trkpt>
      <trkpt lat="48.26043" lon="5.67403">
        <ele>312.763</ele>
        <time>2019-09-24T08:17:22.001Z</time>
      </trkpt>
      <trkpt lat="48.26037" lon="5.67379">
        <ele>312.205</ele>
        <time>2019-09-24T08:17:25.001Z</time>
      </trkpt>
      <trkpt lat="48.26032" lon="5.67358">
        <ele>311.63</ele>
        <time>2019-09-24T08:17:28.001Z</time>
      </trkpt>
      <trkpt lat="48.26027" lon="5.67342">
        <ele>312.402</ele>
        <time>2019-09-24T08:17:31.001Z</time>
      </trkpt>
      <trkpt lat="48.26021" lon="5.67328">
        <ele>313.46</ele>
        <time>2019-09-24T08:17:34.001Z</time>
      </trkpt>
      <trkpt lat="48.26008" lon="5.67321">
        <ele>314.107</ele>
        <time>2019-09-24T08:17:37.001Z</time>
      </trkpt>
      <trkpt lat="48.25993" lon="5.67316">
        <ele>315.026</ele>
        <time>2019-09-24T08:17:40.001Z</time>
      </trkpt>
      <trkpt lat="48.25977" lon="5.67309">
        <ele>315.856</ele>
        <time>2019-09-24T08:17:43.001Z</time>
      </trkpt>
      <trkpt lat="48.25962" lon="5.67301">
        <ele>316.175</ele>
        <time>2019-09-24T08:17:46.001Z</time>
      </trkpt>
      <trkpt lat="48.25948" lon="5.67294">
        <ele>316.75</ele>
        <time>2019-09-24T08:17:49.001Z</time>
      </trkpt>
      <trkpt lat="48.25935" lon="5.67289">
        <ele>317.063</ele>
        <time>2019-09-24T08:17:52.001Z</time>
      </trkpt>
      <trkpt lat="48.25923" lon="5.67286">
        <ele>317.827</ele>
        <time>2019-09-24T08:17:55.001Z</time>
      </trkpt>
      <trkpt lat="48.2591" lon="5.67281">
        <ele>318.796</ele>
        <time>2019-09-24T08:17:58.001Z</time>
      </trkpt>
      <trkpt lat="48.25897" lon="5.67276">
        <ele>319.856</ele>
        <time>2019-09-24T08:18:01.001Z</time>
      </trkpt>
      <trkpt lat="48.25883" lon="5.67269">
        <ele>320</ele>
        <time>2019-09-24T08:18:04.001Z</time>
      </trkpt>
      <trkpt lat="48.25869" lon="5.67265">
        <ele>319.478</ele>
        <time>2019-09-24T08:18:07.001Z</time>
      </trkpt>
      <trkpt lat="48.25855" lon="5.6726">
        <ele>318.243</ele>
        <time>2019-09-24T08:18:10.001Z</time>
      </trkpt>
      <trkpt lat="48.25841" lon="5.67255">
        <ele>317.965</ele>
        <time>2019-09-24T08:18:13.001Z</time>
      </trkpt>
      <trkpt lat="48.25828" lon="5.67247">
        <ele>318.512</ele>
        <time>2019-09-24T10:18:16Z</time>
      </trkpt>
      <trkpt lat="48.25814" lon="5.67241">
        <ele>319.021</ele>
        <time>2019-09-24T08:18:19.001Z</time>
      </trkpt>
      <trkpt lat="48.258" lon="5.67236">
        <ele>319.034</ele>
        <time>2019-09-24T08:18:22.001Z</time>
      </trkpt>
      <trkpt lat="48.25787" lon="5.67231">
        <ele>318.748</ele>
        <time>2019-09-24T08:18:25.001Z</time>
      </trkpt>
      <trkpt lat="48.25773" lon="5.67225">
        <ele>317.617</ele>
        <time>2019-09-24T08:18:28.001Z</time>
      </trkpt>
      <trkpt lat="48.25758" lon="5.67218">
        <ele>316.532</ele>
        <time>2019-09-24T08:18:31.001Z</time>
      </trkpt>
      <trkpt lat="48.25744" lon="5.6721">
        <ele>315.767</ele>
        <time>2019-09-24T08:18:34.001Z</time>
      </trkpt>
      <trkpt lat="48.2573" lon="5.67204">
        <ele>315.104</ele>
        <time>2019-09-24T08:18:37.001Z</time>
      </trkpt>
      <trkpt lat="48.25716" lon="5.67199">
        <ele>314.615</ele>
        <time>2019-09-24T08:18:40.001Z</time>
      </trkpt>
      <trkpt lat="48.25701" lon="5.67197">
        <ele>314.378</ele>
        <time>2019-09-24T08:18:43.001Z</time>
      </trkpt>
      <trkpt lat="48.25686" lon="5.67199">
        <ele>314.501</ele>
        <time>2019-09-24T08:18:46.001Z</time>
      </trkpt>
      <trkpt lat="48.25671" lon="5.67202">
        <ele>314.35</ele>
        <time>2019-09-24T08:18:49.001Z</time>
      </trkpt>
      <trkpt lat="48.25656" lon="5.67205">
        <ele>314.137</ele>
        <time>2019-09-24T08:18:52.001Z</time>
      </trkpt>
      <trkpt lat="48.25642" lon="5.67209">
        <ele>313.726</ele>
        <time>2019-09-24T08:18:55.001Z</time>
      </trkpt>
      <trkpt lat="48.25627" lon="5.67212">
        <ele>313.278</ele>
        <time>2019-09-24T08:18:58.001Z</time>
      </trkpt>
      <trkpt lat="48.25613" lon="5.67216">
        <ele>312.999</ele>
        <time>2019-09-24T08:19:01.001Z</time>
      </trkpt>
      <trkpt lat="48.25598" lon="5.6722">
        <ele>312.569</ele>
        <time>2019-09-24T08:19:04.001Z</time>
      </trkpt>
      <trkpt lat="48.25584" lon="5.67224">
        <ele>311.973</ele>
        <time>2019-09-24T08:19:07.001Z</time>
      </trkpt>
      <trkpt lat="48.25569" lon="5.67226">
        <ele>311.022</ele>
        <time>2019-09-24T08:19:10.001Z</time>
      </trkpt>
      <trkpt lat="48.25555" lon="5.6723">
        <ele>310.819</ele>
        <time>2019-09-24T08:19:13.001Z</time>
      </trkpt>
      <trkpt lat="48.25542" lon="5.67232">
        <ele>310.783</ele>
        <time>2019-09-24T10:19:16Z</time>
      </trkpt>
      <trkpt lat="48.25528" lon="5.67236">
        <ele>310.908</ele>
        <time>2019-09-24T08:19:19.001Z</time>
      </trkpt>
      <trkpt lat="48.25513" lon="5.67237">
        <ele>311.111</ele>
        <time>2019-09-24T08:19:22.001Z</time>
      </trkpt>
      <trkpt lat="48.25496" lon="5.67235">
        <ele>311.306</ele>
        <time>2019-09-24T08:19:25.001Z</time>
      </trkpt>
      <trkpt lat="48.2548" lon="5.67234">
        <ele>311.615</ele>
        <time>2019-09-24T08:19:28.001Z</time>
      </trkpt>
      <trkpt lat="48.25466" lon="5.67235">
        <ele>311.798</ele>
        <time>2019-09-24T08:19:31.001Z</time>
      </trkpt>
      <trkpt lat="48.25452" lon="5.67241">
        <ele>311.824</ele>
        <time>2019-09-24T08:19:34.001Z</time>
      </trkpt>
      <trkpt lat="48.25437" lon="5.67247">
        <ele>312.026</ele>
        <time>2019-09-24T08:19:37.001Z</time>
      </trkpt>
      <trkpt lat="48.25424" lon="5.67254">
        <ele>312.175</ele>
        <time>2019-09-24T08:19:40.001Z</time>
      </trkpt>
      <trkpt lat="48.25409" lon="5.67261">
        <ele>312.382</ele>
        <time>2019-09-24T08:19:43.001Z</time>
      </trkpt>
      <trkpt lat="48.25395" lon="5.67266">
        <ele>312.774</ele>
        <time>2019-09-24T08:19:46.001Z</time>
      </trkpt>
      <trkpt lat="48.25382" lon="5.67272">
        <ele>313.797</ele>
        <time>2019-09-24T08:19:49.001Z</time>
      </trkpt>
      <trkpt lat="48.25371" lon="5.67276">
        <ele>314.611</ele>
        <time>2019-09-24T08:19:52.001Z</time>
      </trkpt>
      <trkpt lat="48.2536" lon="5.67279">
        <ele>314.73</ele>
        <time>2019-09-24T08:19:55.001Z</time>
      </trkpt>
      <trkpt lat="48.2535" lon="5.67283">
        <ele>315.063</ele>
        <time>2019-09-24T08:19:58.001Z</time>
      </trkpt>
      <trkpt lat="48.25339" lon="5.67287">
        <ele>315.37</ele>
        <time>2019-09-24T08:20:01.001Z</time>
      </trkpt>
      <trkpt lat="48.25329" lon="5.6729">
        <ele>315.292</ele>
        <time>2019-09-24T08:20:04.001Z</time>
      </trkpt>
      <trkpt lat="48.2532" lon="5.67295">
        <ele>315.315</ele>
        <time>2019-09-24T08:20:07.001Z</time>
      </trkpt>
      <trkpt lat="48.25311" lon="5.67298">
        <ele>315.301</ele>
        <time>2019-09-24T08:20:10.001Z</time>
      </trkpt>
      <trkpt lat="48.25303" lon="5.67301">
        <ele>315.376</ele>
        <time>2019-09-24T08:20:13.001Z</time>
      </trkpt>
      <trkpt lat="48.25295" lon="5.67305">
        <ele>315.563</ele>
        <time>2019-09-24T10:20:16Z</time>
      </trkpt>
      <trkpt lat="48.25287" lon="5.67308">
        <ele>316.454</ele>
        <time>2019-09-24T08:20:19.001Z</time>
      </trkpt>
      <trkpt lat="48.2528" lon="5.67311">
        <ele>316.735</ele>
        <time>2019-09-24T08:20:22.001Z</time>
      </trkpt>
      <trkpt lat="48.25273" lon="5.67314">
        <ele>317.136</ele>
        <time>2019-09-24T08:20:25.001Z</time>
      </trkpt>
      <trkpt lat="48.25266" lon="5.67317">
        <ele>317.413</ele>
        <time>2019-09-24T08:20:28.001Z</time>
      </trkpt>
      <trkpt lat="48.25258" lon="5.67319">
        <ele>317.234</ele>
        <time>2019-09-24T08:20:31.001Z</time>
      </trkpt>
      <trkpt lat="48.25251" lon="5.67322">
        <ele>316.785</ele>
        <time>2019-09-24T08:20:34.001Z</time>
      </trkpt>
      <trkpt lat="48.25244" lon="5.67325">
        <ele>316.922</ele>
        <time>2019-09-24T08:20:37.001Z</time>
      </trkpt>
      <trkpt lat="48.25236" lon="5.67327">
        <ele>317.317</ele>
        <time>2019-09-24T08:20:40.001Z</time>
      </trkpt>
      <trkpt lat="48.25228" lon="5.6733">
        <ele>316.935</ele>
        <time>2019-09-24T08:20:43.001Z</time>
      </trkpt>
      <trkpt lat="48.2522" lon="5.67334">
        <ele>316.907</ele>
        <time>2019-09-24T08:20:46.001Z</time>
      </trkpt>
      <trkpt lat="48.25213" lon="5.67337">
        <ele>317.471</ele>
        <time>2019-09-24T08:20:49.001Z</time>
      </trkpt>
      <trkpt lat="48.25206" lon="5.67339">
        <ele>318.085</ele>
        <time>2019-09-24T08:20:52.001Z</time>
      </trkpt>
      <trkpt lat="48.252" lon="5.67342">
        <ele>318.334</ele>
        <time>2019-09-24T08:20:55.001Z</time>
      </trkpt>
      <trkpt lat="48.25193" lon="5.67345">
        <ele>318.985</ele>
        <time>2019-09-24T08:20:58.001Z</time>
      </trkpt>
      <trkpt lat="48.25185" lon="5.67348">
        <ele>319.615</ele>
        <time>2019-09-24T08:21:01.001Z</time>
      </trkpt>
      <trkpt lat="48.25178" lon="5.6735">
        <ele>319.911</ele>
        <time>2019-09-24T08:21:04.001Z</time>
      </trkpt>
      <trkpt lat="48.25171" lon="5.67354">
        <ele>320.379</ele>
        <time>2019-09-24T08:21:07.001Z</time>
      </trkpt>
      <trkpt lat="48.25164" lon="5.67357">
        <ele>320.493</ele>
        <time>2019-09-24T08:21:10.001Z</time>
      </trkpt>
      <trkpt lat="48.25157" lon="5.67361">
        <ele>320.604</ele>
        <time>2019-09-24T08:21:13.001Z</time>
      </trkpt>
      <trkpt lat="48.25149" lon="5.67363">
        <ele>320.795</ele>
        <time>2019-09-24T10:21:16Z</time>
      </trkpt>
      <trkpt lat="48.25141" lon="5.67366">
        <ele>320.568</ele>
        <time>2019-09-24T08:21:19.001Z</time>
      </trkpt>
      <trkpt lat="48.25134" lon="5.67369">
        <ele>320.579</ele>
        <time>2019-09-24T08:21:22.001Z</time>
      </trkpt>
      <trkpt lat="48.25126" lon="5.67373">
        <ele>321.196</ele>
        <time>2019-09-24T08:21:25.001Z</time>
      </trkpt>
      <trkpt lat="48.25117" lon="5.67377">
        <ele>321.746</ele>
        <time>2019-09-24T08:21:28.001Z</time>
      </trkpt>
      <trkpt lat="48.25107" lon="5.67379">
        <ele>321.92</ele>
        <time>2019-09-24T08:21:31.001Z</time>
      </trkpt>
      <trkpt lat="48.25098" lon="5.67383">
        <ele>321.984</ele>
        <time>2019-09-24T08:21:34.001Z</time>
      </trkpt>
      <trkpt lat="48.25088" lon="5.67387">
        <ele>322.015</ele>
        <time>2019-09-24T08:21:37.001Z</time>
      </trkpt>
      <trkpt lat="48.25078" lon="5.67391">
        <ele>321.857</ele>
        <time>2019-09-24T08:21:40.001Z</time>
      </trkpt>
      <trkpt lat="48.25068" lon="5.67394">
        <ele>322.307</ele>
        <time>2019-09-24T08:21:43.001Z</time>
      </trkpt>
      <trkpt lat="48.25058" lon="5.67398">
        <ele>322.752</ele>
        <time>2019-09-24T08:21:46.001Z</time>
      </trkpt>
      <trkpt lat="48.25049" lon="5.67403">
        <ele>322.937</ele>
        <time>2019-09-24T08:21:49.001Z</time>
      </trkpt>
      <trkpt lat="48.25039" lon="5.67407">
        <ele>323.252</ele>
        <time>2019-09-24T08:21:52.001Z</time>
      </trkpt>
      <trkpt lat="48.2503" lon="5.67412">
        <ele>323.565</ele>
        <time>2019-09-24T08:21:55.001Z</time>
      </trkpt>
      <trkpt lat="48.25021" lon="5.67415">
        <ele>324.022</ele>
        <time>2019-09-24T08:21:58.001Z</time>
      </trkpt>
      <trkpt lat="48.25012" lon="5.67418">
        <ele>324.124</ele>
        <time>2019-09-24T08:22:01.001Z</time>
      </trkpt>
      <trkpt lat="48.25002" lon="5.67422">
        <ele>324.555</ele>
        <time>2019-09-24T08:22:04.001Z</time>
      </trkpt>
      <trkpt lat="48.24992" lon="5.67426">
        <ele>325.158</ele>
        <time>2019-09-24T08:22:07.001Z</time>
      </trkpt>
      <trkpt lat="48.24981" lon="5.6743">
        <ele>325.271</ele>
        <time>2019-09-24T08:22:10.001Z</time>
      </trkpt>
      <trkpt lat="48.24969" lon="5.67433">
        <ele>325.233</ele>
        <time>2019-09-24T08:22:13.001Z</time>
      </trkpt>
      <trkpt lat="48.24957" lon="5.67439">
        <ele>325.435</ele>
        <time>2019-09-24T10:22:16Z</time>
      </trkpt>
      <trkpt lat="48.24944" lon="5.67444">
        <ele>325.944</ele>
        <time>2019-09-24T08:22:19.001Z</time>
      </trkpt>
      <trkpt lat="48.24928" lon="5.67451">
        <ele>325.764</ele>
        <time>2019-09-24T08:22:22.001Z</time>
      </trkpt>
      <trkpt lat="48.24913" lon="5.67458">
        <ele>325.986</ele>
        <time>2019-09-24T08:22:25.001Z</time>
      </trkpt>
      <trkpt lat="48.24896" lon="5.67466">
        <ele>326.343</ele>
        <time>2019-09-24T08:22:28.001Z</time>
      </trkpt>
      <trkpt lat="48.24877" lon="5.67474">
        <ele>326.309</ele>
        <time>2019-09-24T08:22:31.001Z</time>
      </trkpt>
      <trkpt lat="48.24856" lon="5.67482">
        <ele>325.279</ele>
        <time>2019-09-24T08:22:34.001Z</time>
      </trkpt>
      <trkpt lat="48.24835" lon="5.67491">
        <ele>323.912</ele>
        <time>2019-09-24T08:22:37.001Z</time>
      </trkpt>
      <trkpt lat="48.24815" lon="5.67499">
        <ele>322.86</ele>
        <time>2019-09-24T08:22:40.001Z</time>
      </trkpt>
      <trkpt lat="48.24794" lon="5.67507">
        <ele>322.48</ele>
        <time>2019-09-24T08:22:43.001Z</time>
      </trkpt>
      <trkpt lat="48.24774" lon="5.67515">
        <ele>322.075</ele>
        <time>2019-09-24T08:22:46.001Z</time>
      </trkpt>
      <trkpt lat="48.24757" lon="5.67521">
        <ele>321.224</ele>
        <time>2019-09-24T08:22:49.001Z</time>
      </trkpt>
      <trkpt lat="48.24742" lon="5.67525">
        <ele>321.441</ele>
        <time>2019-09-24T08:22:52.001Z</time>
      </trkpt>
      <trkpt lat="48.24727" lon="5.6753">
        <ele>321.654</ele>
        <time>2019-09-24T08:22:55.001Z</time>
      </trkpt>
      <trkpt lat="48.24712" lon="5.67536">
        <ele>320.695</ele>
        <time>2019-09-24T08:22:58.001Z</time>
      </trkpt>
      <trkpt lat="48.24696" lon="5.67541">
        <ele>319.898</ele>
        <time>2019-09-24T08:23:01.001Z</time>
      </trkpt>
      <trkpt lat="48.24679" lon="5.67545">
        <ele>319.465</ele>
        <time>2019-09-24T08:23:04.001Z</time>
      </trkpt>
      <trkpt lat="48.24664" lon="5.67551">
        <ele>319.211</ele>
        <time>2019-09-24T08:23:07.001Z</time>
      </trkpt>
      <trkpt lat="48.24649" lon="5.67556">
        <ele>319.204</ele>
        <time>2019-09-24T08:23:10.001Z</time>
      </trkpt>
      <trkpt lat="48.24633" lon="5.67561">
        <ele>318.869</ele>
        <time>2019-09-24T08:23:13.001Z</time>
      </trkpt>
      <trkpt lat="48.24617" lon="5.67564">
        <ele>319.527</ele>
        <time>2019-09-24T10:23:16Z</time>
      </trkpt>
      <trkpt lat="48.24603" lon="5.67563">
        <ele>320.224</ele>
        <time>2019-09-24T08:23:19.001Z</time>
      </trkpt>
      <trkpt lat="48.24589" lon="5.67563">
        <ele>320.78</ele>
        <time>2019-09-24T08:23:22.001Z</time>
      </trkpt>
      <trkpt lat="48.24575" lon="5.67564">
        <ele>321.799</ele>
        <time>2019-09-24T08:23:25.001Z</time>
      </trkpt>
      <trkpt lat="48.24559" lon="5.67563">
        <ele>322.975</ele>
        <time>2019-09-24T08:23:28.001Z</time>
      </trkpt>
      <trkpt lat="48.24543" lon="5.67567">
        <ele>323.868</ele>
        <time>2019-09-24T08:23:31.001Z</time>
      </trkpt>
      <trkpt lat="48.24529" lon="5.67565">
        <ele>324.375</ele>
        <time>2019-09-24T08:23:34.001Z</time>
      </trkpt>
      <trkpt lat="48.24514" lon="5.67562">
        <ele>325.472</ele>
        <time>2019-09-24T08:23:37.001Z</time>
      </trkpt>
      <trkpt lat="48.245" lon="5.67561">
        <ele>326.351</ele>
        <time>2019-09-24T08:23:40.001Z</time>
      </trkpt>
      <trkpt lat="48.24487" lon="5.6756">
        <ele>326.582</ele>
        <time>2019-09-24T08:23:43.001Z</time>
      </trkpt>
      <trkpt lat="48.24474" lon="5.67553">
        <ele>326.887</ele>
        <time>2019-09-24T08:23:46.001Z</time>
      </trkpt>
      <trkpt lat="48.24464" lon="5.67545">
        <ele>328.133</ele>
        <time>2019-09-24T08:23:49.001Z</time>
      </trkpt>
      <trkpt lat="48.24452" lon="5.67531">
        <ele>328.449</ele>
        <time>2019-09-24T08:23:52.001Z</time>
      </trkpt>
      <trkpt lat="48.2444" lon="5.67512">
        <ele>328.806</ele>
        <time>2019-09-24T08:23:55.001Z</time>
      </trkpt>
      <trkpt lat="48.24425" lon="5.67492">
        <ele>329.526</ele>
        <time>2019-09-24T08:23:58.001Z</time>
      </trkpt>
      <trkpt lat="48.24405" lon="5.67477">
        <ele>329.024</ele>
        <time>2019-09-24T08:24:01.001Z</time>
      </trkpt>
      <trkpt lat="48.24387" lon="5.67465">
        <ele>327.515</ele>
        <time>2019-09-24T08:24:04.001Z</time>
      </trkpt>
      <trkpt lat="48.24371" lon="5.67455">
        <ele>326.176</ele>
        <time>2019-09-24T08:24:07.001Z</time>
      </trkpt>
      <trkpt lat="48.24353" lon="5.67446">
        <ele>325.23</ele>
        <time>2019-09-24T08:24:10.001Z</time>
      </trkpt>
      <trkpt lat="48.24338" lon="5.67438">
        <ele>324.285</ele>
        <time>2019-09-24T08:24:13.001Z</time>
      </trkpt>
      <trkpt lat="48.24324" lon="5.67434">
        <ele>322.619</ele>
        <time>2019-09-24T10:24:16Z</time>
      </trkpt>
      <trkpt lat="48.24312" lon="5.67429">
        <ele>322.307</ele>
        <time>2019-09-24T08:24:19.001Z</time>
      </trkpt>
      <trkpt lat="48.24301" lon="5.67425">
        <ele>321.607</ele>
        <time>2019-09-24T08:24:22.001Z</time>
      </trkpt>
      <trkpt lat="48.2429" lon="5.6742">
        <ele>321.786</ele>
        <time>2019-09-24T08:24:25.001Z</time>
      </trkpt>
      <trkpt lat="48.24278" lon="5.67415">
        <ele>321.49</ele>
        <time>2019-09-24T08:24:28.001Z</time>
      </trkpt>
      <trkpt lat="48.24267" lon="5.67409">
        <ele>321.361</ele>
        <time>2019-09-24T08:24:31.001Z</time>
      </trkpt>
      <trkpt lat="48.24254" lon="5.67403">
        <ele>320.965</ele>
        <time>2019-09-24T08:24:34.001Z</time>
      </trkpt>
      <trkpt lat="48.2424" lon="5.67397">
        <ele>320.223</ele>
        <time>2019-09-24T08:24:37.001Z</time>
      </trkpt>
      <trkpt lat="48.24225" lon="5.67391">
        <ele>318.759</ele>
        <time>2019-09-24T08:24:40.001Z</time>
      </trkpt>
      <trkpt lat="48.24211" lon="5.67386">
        <ele>318.176</ele>
        <time>2019-09-24T08:24:43.001Z</time>
      </trkpt>
      <trkpt lat="48.24197" lon="5.6738">
        <ele>317.729</ele>
        <time>2019-09-24T08:24:46.001Z</time>
      </trkpt>
      <trkpt lat="48.24184" lon="5.67374">
        <ele>317.873</ele>
        <time>2019-09-24T08:24:49.001Z</time>
      </trkpt>
      <trkpt lat="48.24171" lon="5.67368">
        <ele>317.54</ele>
        <time>2019-09-24T08:24:52.001Z</time>
      </trkpt>
      <trkpt lat="48.24159" lon="5.67363">
        <ele>317.709</ele>
        <time>2019-09-24T08:24:55.001Z</time>
      </trkpt>
      <trkpt lat="48.24147" lon="5.67357">
        <ele>317.627</ele>
        <time>2019-09-24T08:24:58.001Z</time>
      </trkpt>
      <trkpt lat="48.24137" lon="5.67353">
        <ele>317.799</ele>
        <time>2019-09-24T08:25:01.001Z</time>
      </trkpt>
      <trkpt lat="48.24126" lon="5.67348">
        <ele>317.86</ele>
        <time>2019-09-24T08:25:04.001Z</time>
      </trkpt>
      <trkpt lat="48.24115" lon="5.67344">
        <ele>317.696</ele>
        <time>2019-09-24T08:25:07.001Z</time>
      </trkpt>
      <trkpt lat="48.24104" lon="5.67339">
        <ele>317.35</ele>
        <time>2019-09-24T08:25:10.001Z</time>
      </trkpt>
      <trkpt lat="48.24093" lon="5.67334">
        <ele>317.285</ele>
        <time>2019-09-24T08:25:13.001Z</time>
      </trkpt>
      <trkpt lat="48.24082" lon="5.67329">
        <ele>317.593</ele>
        <time>2019-09-24T10:25:16Z</time>
      </trkpt>
      <trkpt lat="48.24071" lon="5.67325">
        <ele>317.648</ele>
        <time>2019-09-24T08:25:19.001Z</time>
      </trkpt>
      <trkpt lat="48.24058" lon="5.67318">
        <ele>317.797</ele>
        <time>2019-09-24T08:25:22.001Z</time>
      </trkpt>
      <trkpt lat="48.24045" lon="5.67313">
        <ele>317.752</ele>
        <time>2019-09-24T08:25:25.001Z</time>
      </trkpt>
      <trkpt lat="48.24031" lon="5.67307">
        <ele>318.127</ele>
        <time>2019-09-24T08:25:28.001Z</time>
      </trkpt>
      <trkpt lat="48.24018" lon="5.67302">
        <ele>318.218</ele>
        <time>2019-09-24T08:25:31.001Z</time>
      </trkpt>
      <trkpt lat="48.24005" lon="5.67296">
        <ele>319.095</ele>
        <time>2019-09-24T08:25:34.001Z</time>
      </trkpt>
      <trkpt lat="48.23993" lon="5.67291">
        <ele>319.054</ele>
        <time>2019-09-24T08:25:37.001Z</time>
      </trkpt>
      <trkpt lat="48.23981" lon="5.67285">
        <ele>318.718</ele>
        <time>2019-09-24T08:25:40.001Z</time>
      </trkpt>
      <trkpt lat="48.23968" lon="5.67278">
        <ele>318.728</ele>
        <time>2019-09-24T08:25:43.001Z</time>
      </trkpt>
      <trkpt lat="48.23955" lon="5.67272">
        <ele>318.937</ele>
        <time>2019-09-24T08:25:46.001Z</time>
      </trkpt>
      <trkpt lat="48.23943" lon="5.67266">
        <ele>318.917</ele>
        <time>2019-09-24T08:25:49.001Z</time>
      </trkpt>
      <trkpt lat="48.23929" lon="5.67261">
        <ele>318.971</ele>
        <time>2019-09-24T08:25:52.001Z</time>
      </trkpt>
      <trkpt lat="48.23915" lon="5.67255">
        <ele>318.521</ele>
        <time>2019-09-24T08:25:55.001Z</time>
      </trkpt>
      <trkpt lat="48.23901" lon="5.67249">
        <ele>318.823</ele>
        <time>2019-09-24T08:25:58.001Z</time>
      </trkpt>
      <trkpt lat="48.23886" lon="5.67243">
        <ele>318.715</ele>
        <time>2019-09-24T08:26:01.001Z</time>
      </trkpt>
      <trkpt lat="48.23873" lon="5.67236">
        <ele>318.996</ele>
        <time>2019-09-24T08:26:04.001Z</time>
      </trkpt>
      <trkpt lat="48.23859" lon="5.67231">
        <ele>319.026</ele>
        <time>2019-09-24T08:26:07.001Z</time>
      </trkpt>
      <trkpt lat="48.23846" lon="5.67225">
        <ele>319.086</ele>
        <time>2019-09-24T08:26:10.001Z</time>
      </trkpt>
      <trkpt lat="48.23835" lon="5.67221">
        <ele>319.39</ele>
        <time>2019-09-24T08:26:13.001Z</time>
      </trkpt>
      <trkpt lat="48.23826" lon="5.67216">
        <ele>319.909</ele>
        <time>2019-09-24T10:26:16Z</time>
      </trkpt>
      <trkpt lat="48.23817" lon="5.67212">
        <ele>320.001</ele>
        <time>2019-09-24T08:26:19.001Z</time>
      </trkpt>
      <trkpt lat="48.23808" lon="5.67207">
        <ele>320.198</ele>
        <time>2019-09-24T08:26:22.001Z</time>
      </trkpt>
      <trkpt lat="48.23798" lon="5.67203">
        <ele>320.192</ele>
        <time>2019-09-24T08:26:25.001Z</time>
      </trkpt>
      <trkpt lat="48.23788" lon="5.67198">
        <ele>320.214</ele>
        <time>2019-09-24T08:26:28.001Z</time>
      </trkpt>
      <trkpt lat="48.23777" lon="5.67194">
        <ele>320.105</ele>
        <time>2019-09-24T08:26:31.001Z</time>
      </trkpt>
      <trkpt lat="48.23766" lon="5.67188">
        <ele>320.225</ele>
        <time>2019-09-24T08:26:34.001Z</time>
      </trkpt>
      <trkpt lat="48.23755" lon="5.67183">
        <ele>320.53</ele>
        <time>2019-09-24T08:26:37.001Z</time>
      </trkpt>
      <trkpt lat="48.23744" lon="5.67179">
        <ele>320.431</ele>
        <time>2019-09-24T08:26:40.001Z</time>
      </trkpt>
      <trkpt lat="48.23733" lon="5.67175">
        <ele>320.73</ele>
        <time>2019-09-24T08:26:43.001Z</time>
      </trkpt>
      <trkpt lat="48.23722" lon="5.6717">
        <ele>320.978</ele>
        <time>2019-09-24T08:26:46.001Z</time>
      </trkpt>
      <trkpt lat="48.23711" lon="5.67165">
        <ele>320.838</ele>
        <time>2019-09-24T08:26:49.001Z</time>
      </trkpt>
      <trkpt lat="48.237" lon="5.6716">
        <ele>320.989</ele>
        <time>2019-09-24T08:26:52.001Z</time>
      </trkpt>
      <trkpt lat="48.23688" lon="5.67155">
        <ele>321.3</ele>
        <time>2019-09-24T08:26:55.001Z</time>
      </trkpt>
      <trkpt lat="48.23677" lon="5.6715">
        <ele>321.468</ele>
        <time>2019-09-24T08:26:58.001Z</time>
      </trkpt>
      <trkpt lat="48.23665" lon="5.67144">
        <ele>321.451</ele>
        <time>2019-09-24T08:27:01.001Z</time>
      </trkpt>
      <trkpt lat="48.23653" lon="5.67139">
        <ele>321.464</ele>
        <time>2019-09-24T08:27:04.001Z</time>
      </trkpt>
      <trkpt lat="48.23642" lon="5.67134">
        <ele>321.51</ele>
        <time>2019-09-24T08:27:07.001Z</time>
      </trkpt>
      <trkpt lat="48.2363" lon="5.67127">
        <ele>320.976</ele>
        <time>2019-09-24T08:27:10.001Z</time>
      </trkpt>
      <trkpt lat="48.23617" lon="5.67122">
        <ele>320.931</ele>
        <time>2019-09-24T08:27:13.001Z</time>
      </trkpt>
      <trkpt lat="48.23603" lon="5.67116">
        <ele>320.007</ele>
        <time>2019-09-24T10:27:16Z</time>
      </trkpt>
      <trkpt lat="48.23588" lon="5.67109">
        <ele>319.651</ele>
        <time>2019-09-24T08:27:19.001Z</time>
      </trkpt>
      <trkpt lat="48.23571" lon="5.67101">
        <ele>318.661</ele>
        <time>2019-09-24T08:27:22.001Z</time>
      </trkpt>
      <trkpt lat="48.23554" lon="5.67094">
        <ele>317.916</ele>
        <time>2019-09-24T08:27:25.001Z</time>
      </trkpt>
      <trkpt lat="48.23537" lon="5.67086">
        <ele>317.551</ele>
        <time>2019-09-24T08:27:28.001Z</time>
      </trkpt>
      <trkpt lat="48.23521" lon="5.67079">
        <ele>316.909</ele>
        <time>2019-09-24T08:27:31.001Z</time>
      </trkpt>
      <trkpt lat="48.23504" lon="5.67071">
        <ele>316.089</ele>
        <time>2019-09-24T08:27:34.001Z</time>
      </trkpt>
      <trkpt lat="48.23487" lon="5.67064">
        <ele>315.543</ele>
        <time>2019-09-24T08:27:37.001Z</time>
      </trkpt>
      <trkpt lat="48.23472" lon="5.67057">
        <ele>314.401</ele>
        <time>2019-09-24T08:27:40.001Z</time>
      </trkpt>
      <trkpt lat="48.23456" lon="5.67051">
        <ele>314.225</ele>
        <time>2019-09-24T08:27:43.001Z</time>
      </trkpt>
      <trkpt lat="48.23439" lon="5.67045">
        <ele>314.337</ele>
        <time>2019-09-24T08:27:46.001Z</time>
      </trkpt>
      <trkpt lat="48.23424" lon="5.67039">
        <ele>314.678</ele>
        <time>2019-09-24T08:27:49.001Z</time>
      </trkpt>
      <trkpt lat="48.23409" lon="5.67032">
        <ele>314.976</ele>
        <time>2019-09-24T08:27:52.001Z</time>
      </trkpt>
      <trkpt lat="48.23395" lon="5.67025">
        <ele>315.429</ele>
        <time>2019-09-24T08:27:55.001Z</time>
      </trkpt>
      <trkpt lat="48.2338" lon="5.67019">
        <ele>315.406</ele>
        <time>2019-09-24T08:27:58.001Z</time>
      </trkpt>
      <trkpt lat="48.23366" lon="5.67013">
        <ele>315.286</ele>
        <time>2019-09-24T08:28:01.001Z</time>
      </trkpt>
      <trkpt lat="48.23351" lon="5.67007">
        <ele>315.124</ele>
        <time>2019-09-24T08:28:04.001Z</time>
      </trkpt>
      <trkpt lat="48.23337" lon="5.67">
        <ele>315.65</ele>
        <time>2019-09-24T08:28:07.001Z</time>
      </trkpt>
      <trkpt lat="48.23322" lon="5.66993">
        <ele>315.859</ele>
        <time>2019-09-24T08:28:10.001Z</time>
      </trkpt>
      <trkpt lat="48.23308" lon="5.66986">
        <ele>316.745</ele>
        <time>2019-09-24T08:28:13.001Z</time>
      </trkpt>
      <trkpt lat="48.23295" lon="5.6698">
        <ele>316.878</ele>
        <time>2019-09-24T10:28:16Z</time>
      </trkpt>
      <trkpt lat="48.23282" lon="5.66974">
        <ele>317.091</ele>
        <time>2019-09-24T08:28:19.001Z</time>
      </trkpt>
      <trkpt lat="48.2327" lon="5.66969">
        <ele>317.412</ele>
        <time>2019-09-24T08:28:22.001Z</time>
      </trkpt>
      <trkpt lat="48.23256" lon="5.66962">
        <ele>317.949</ele>
        <time>2019-09-24T08:28:25.001Z</time>
      </trkpt>
      <trkpt lat="48.2324" lon="5.66954">
        <ele>317.876</ele>
        <time>2019-09-24T08:28:28.001Z</time>
      </trkpt>
      <trkpt lat="48.23224" lon="5.66947">
        <ele>317.747</ele>
        <time>2019-09-24T08:28:31.001Z</time>
      </trkpt>
      <trkpt lat="48.23207" lon="5.66939">
        <ele>317.571</ele>
        <time>2019-09-24T08:28:34.001Z</time>
      </trkpt>
      <trkpt lat="48.23191" lon="5.66932">
        <ele>317.482</ele>
        <time>2019-09-24T08:28:37.001Z</time>
      </trkpt>
      <trkpt lat="48.23175" lon="5.66925">
        <ele>316.768</ele>
        <time>2019-09-24T08:28:40.001Z</time>
      </trkpt>
      <trkpt lat="48.2316" lon="5.66919">
        <ele>316.088</ele>
        <time>2019-09-24T08:28:43.001Z</time>
      </trkpt>
      <trkpt lat="48.23146" lon="5.66913">
        <ele>315.869</ele>
        <time>2019-09-24T08:28:46.001Z</time>
      </trkpt>
      <trkpt lat="48.23132" lon="5.66907">
        <ele>316.136</ele>
        <time>2019-09-24T08:28:49.001Z</time>
      </trkpt>
      <trkpt lat="48.23119" lon="5.66901">
        <ele>316.737</ele>
        <time>2019-09-24T08:28:52.001Z</time>
      </trkpt>
      <trkpt lat="48.23107" lon="5.66895">
        <ele>316.813</ele>
        <time>2019-09-24T08:28:55.001Z</time>
      </trkpt>
      <trkpt lat="48.23095" lon="5.6689">
        <ele>316.841</ele>
        <time>2019-09-24T08:28:58.001Z</time>
      </trkpt>
      <trkpt lat="48.23082" lon="5.66884">
        <ele>316.8</ele>
        <time>2019-09-24T08:29:01.001Z</time>
      </trkpt>
      <trkpt lat="48.2307" lon="5.66879">
        <ele>317.034</ele>
        <time>2019-09-24T08:29:04.001Z</time>
      </trkpt>
      <trkpt lat="48.23057" lon="5.66873">
        <ele>317.034</ele>
        <time>2019-09-24T08:29:07.001Z</time>
      </trkpt>
      <trkpt lat="48.23044" lon="5.66867">
        <ele>317.311</ele>
        <time>2019-09-24T08:29:10.001Z</time>
      </trkpt>
      <trkpt lat="48.23032" lon="5.66862">
        <ele>317.542</ele>
        <time>2019-09-24T08:29:13.001Z</time>
      </trkpt>
      <trkpt lat="48.2302" lon="5.66856">
        <ele>317.638</ele>
        <time>2019-09-24T10:29:16Z</time>
      </trkpt>
      <trkpt lat="48.23007" lon="5.66851">
        <ele>318.115</ele>
        <time>2019-09-24T08:29:19.001Z</time>
      </trkpt>
      <trkpt lat="48.22994" lon="5.66846">
        <ele>318.65</ele>
        <time>2019-09-24T08:29:22.001Z</time>
      </trkpt>
      <trkpt lat="48.2298" lon="5.6684">
        <ele>319.137</ele>
        <time>2019-09-24T08:29:25.001Z</time>
      </trkpt>
      <trkpt lat="48.22969" lon="5.66835">
        <ele>319.219</ele>
        <time>2019-09-24T08:29:28.001Z</time>
      </trkpt>
      <trkpt lat="48.22957" lon="5.66829">
        <ele>319.438</ele>
        <time>2019-09-24T08:29:31.001Z</time>
      </trkpt>
      <trkpt lat="48.22946" lon="5.66823">
        <ele>319.601</ele>
        <time>2019-09-24T08:29:34.001Z</time>
      </trkpt>
      <trkpt lat="48.22937" lon="5.66818">
        <ele>319.708</ele>
        <time>2019-09-24T08:29:37.001Z</time>
      </trkpt>
      <trkpt lat="48.22928" lon="5.66815">
        <ele>319.579</ele>
        <time>2019-09-24T08:29:40.001Z</time>
      </trkpt>
      <trkpt lat="48.2292" lon="5.66811">
        <ele>319.711</ele>
        <time>2019-09-24T08:29:43.001Z</time>
      </trkpt>
      <trkpt lat="48.22912" lon="5.66807">
        <ele>320.233</ele>
        <time>2019-09-24T08:29:46.001Z</time>
      </trkpt>
      <trkpt lat="48.22904" lon="5.66804">
        <ele>321.239</ele>
        <time>2019-09-24T08:29:49.001Z</time>
      </trkpt>
      <trkpt lat="48.22896" lon="5.66801">
        <ele>321.868</ele>
        <time>2019-09-24T08:29:52.001Z</time>
      </trkpt>
      <trkpt lat="48.22888" lon="5.66797">
        <ele>322.113</ele>
        <time>2019-09-24T08:29:55.001Z</time>
      </trkpt>
      <trkpt lat="48.22879" lon="5.66793">
        <ele>322.488</ele>
        <time>2019-09-24T08:29:58.001Z</time>
      </trkpt>
      <trkpt lat="48.2287" lon="5.6679">
        <ele>322.782</ele>
        <time>2019-09-24T08:30:01.001Z</time>
      </trkpt>
      <trkpt lat="48.22861" lon="5.66786">
        <ele>322.777</ele>
        <time>2019-09-24T08:30:04.001Z</time>
      </trkpt>
      <trkpt lat="48.22851" lon="5.66782">
        <ele>322.82</ele>
        <time>2019-09-24T08:30:07.001Z</time>
      </trkpt>
      <trkpt lat="48.22841" lon="5.66779">
        <ele>322.92</ele>
        <time>2019-09-24T08:30:10.001Z</time>
      </trkpt>
      <trkpt lat="48.22831" lon="5.66776">
        <ele>323.055</ele>
        <time>2019-09-24T08:30:13.001Z</time>
      </trkpt>
      <trkpt lat="48.22819" lon="5.66774">
        <ele>323.289</ele>
        <time>2019-09-24T10:30:16Z</time>
      </trkpt>
      <trkpt lat="48.22808" lon="5.66772">
        <ele>323.416</ele>
        <time>2019-09-24T08:30:19.001Z</time>
      </trkpt>
      <trkpt lat="48.22795" lon="5.66769">
        <ele>322.833</ele>
        <time>2019-09-24T08:30:22.001Z</time>
      </trkpt>
      <trkpt lat="48.22781" lon="5.66768">
        <ele>322.586</ele>
        <time>2019-09-24T08:30:25.001Z</time>
      </trkpt>
      <trkpt lat="48.22767" lon="5.66765">
        <ele>322.475</ele>
        <time>2019-09-24T08:30:28.001Z</time>
      </trkpt>
      <trkpt lat="48.22753" lon="5.66761">
        <ele>322.133</ele>
        <time>2019-09-24T08:30:31.001Z</time>
      </trkpt>
      <trkpt lat="48.22739" lon="5.66758">
        <ele>322.303</ele>
        <time>2019-09-24T08:30:34.001Z</time>
      </trkpt>
      <trkpt lat="48.22726" lon="5.66755">
        <ele>322.615</ele>
        <time>2019-09-24T08:30:37.001Z</time>
      </trkpt>
      <trkpt lat="48.22714" lon="5.66753">
        <ele>322.187</ele>
        <time>2019-09-24T08:30:40.001Z</time>
      </trkpt>
      <trkpt lat="48.22701" lon="5.6675">
        <ele>321.815</ele>
        <time>2019-09-24T08:30:43.001Z</time>
      </trkpt>
      <trkpt lat="48.22688" lon="5.66748">
        <ele>321.901</ele>
        <time>2019-09-24T08:30:46.001Z</time>
      </trkpt>
      <trkpt lat="48.22675" lon="5.66746">
        <ele>321.636</ele>
        <time>2019-09-24T08:30:49.001Z</time>
      </trkpt>
      <trkpt lat="48.22662" lon="5.66742">
        <ele>321.449</ele>
        <time>2019-09-24T08:30:52.001Z</time>
      </trkpt>
      <trkpt lat="48.22648" lon="5.6674">
        <ele>320.968</ele>
        <time>2019-09-24T08:30:55.001Z</time>
      </trkpt>
      <trkpt lat="48.22632" lon="5.66738">
        <ele>320.067</ele>
        <time>2019-09-24T08:30:58.001Z</time>
      </trkpt>
      <trkpt lat="48.22614" lon="5.66734">
        <ele>318.976</ele>
        <time>2019-09-24T08:31:01.001Z</time>
      </trkpt>
      <trkpt lat="48.22593" lon="5.6673">
        <ele>317.633</ele>
        <time>2019-09-24T08:31:04.001Z</time>
      </trkpt>
      <trkpt lat="48.22573" lon="5.66727">
        <ele>316.738</ele>
        <time>2019-09-24T08:31:07.001Z</time>
      </trkpt>
      <trkpt lat="48.22553" lon="5.66723">
        <ele>316.05</ele>
        <time>2019-09-24T08:31:10.001Z</time>
      </trkpt>
      <trkpt lat="48.22535" lon="5.6672">
        <ele>315.416</ele>
        <time>2019-09-24T08:31:13.001Z</time>
      </trkpt>
      <trkpt lat="48.22518" lon="5.66712">
        <ele>315.183</ele>
        <time>2019-09-24T10:31:16Z</time>
      </trkpt>
      <trkpt lat="48.2251" lon="5.66687">
        <ele>315.33</ele>
        <time>2019-09-24T08:31:19.001Z</time>
      </trkpt>
      <trkpt lat="48.22507" lon="5.66655">
        <ele>314.293</ele>
        <time>2019-09-24T08:31:22.001Z</time>
      </trkpt>
      <trkpt lat="48.22501" lon="5.66622">
        <ele>313.655</ele>
        <time>2019-09-24T08:31:25.001Z</time>
      </trkpt>
      <trkpt lat="48.22494" lon="5.6659">
        <ele>313.536</ele>
        <time>2019-09-24T08:31:28.001Z</time>
      </trkpt>
      <trkpt lat="48.22488" lon="5.66562">
        <ele>313.426</ele>
        <time>2019-09-24T08:31:31.001Z</time>
      </trkpt>
      <trkpt lat="48.22482" lon="5.66536">
        <ele>313.662</ele>
        <time>2019-09-24T08:31:34.001Z</time>
      </trkpt>
      <trkpt lat="48.22477" lon="5.66513">
        <ele>313.704</ele>
        <time>2019-09-24T08:31:37.001Z</time>
      </trkpt>
      <trkpt lat="48.22472" lon="5.66493">
        <ele>313.841</ele>
        <time>2019-09-24T08:31:40.001Z</time>
      </trkpt>
      <trkpt lat="48.22468" lon="5.66472">
        <ele>313.888</ele>
        <time>2019-09-24T08:31:43.001Z</time>
      </trkpt>
      <trkpt lat="48.22464" lon="5.66452">
        <ele>313.65</ele>
        <time>2019-09-24T08:31:46.001Z</time>
      </trkpt>
      <trkpt lat="48.2246" lon="5.66433">
        <ele>313.691</ele>
        <time>2019-09-24T08:31:49.001Z</time>
      </trkpt>
      <trkpt lat="48.22456" lon="5.66412">
        <ele>313.913</ele>
        <time>2019-09-24T08:31:52.001Z</time>
      </trkpt>
      <trkpt lat="48.22452" lon="5.66389">
        <ele>313.496</ele>
        <time>2019-09-24T08:31:55.001Z</time>
      </trkpt>
      <trkpt lat="48.22451" lon="5.66368">
        <ele>313.699</ele>
        <time>2019-09-24T08:31:58.001Z</time>
      </trkpt>
      <trkpt lat="48.22452" lon="5.66347">
        <ele>314.156</ele>
        <time>2019-09-24T08:32:01.001Z</time>
      </trkpt>
      <trkpt lat="48.22459" lon="5.66327">
        <ele>314.27</ele>
        <time>2019-09-24T08:32:04.001Z</time>
      </trkpt>
      <trkpt lat="48.22469" lon="5.66311">
        <ele>314.947</ele>
        <time>2019-09-24T08:32:07.001Z</time>
      </trkpt>
      <trkpt lat="48.2248" lon="5.66298">
        <ele>315.632</ele>
        <time>2019-09-24T08:32:10.001Z</time>
      </trkpt>
      <trkpt lat="48.2249" lon="5.66286">
        <ele>316.599</ele>
        <time>2019-09-24T08:32:13.001Z</time>
      </trkpt>
      <trkpt lat="48.22499" lon="5.66277">
        <ele>317.697</ele>
        <time>2019-09-24T10:32:16Z</time>
      </trkpt>
      <trkpt lat="48.22506" lon="5.66268">
        <ele>318.557</ele>
        <time>2019-09-24T08:32:19.001Z</time>
      </trkpt>
      <trkpt lat="48.22512" lon="5.66261">
        <ele>319.98</ele>
        <time>2019-09-24T08:32:22.001Z</time>
      </trkpt>
      <trkpt lat="48.22518" lon="5.66254">
        <ele>320.829</ele>
        <time>2019-09-24T08:32:25.001Z</time>
      </trkpt>
      <trkpt lat="48.22524" lon="5.66248">
        <ele>321.544</ele>
        <time>2019-09-24T08:32:28.001Z</time>
      </trkpt>
      <trkpt lat="48.22529" lon="5.66241">
        <ele>322.273</ele>
        <time>2019-09-24T08:32:31.001Z</time>
      </trkpt>
      <trkpt lat="48.22533" lon="5.66237">
        <ele>322.894</ele>
        <time>2019-09-24T08:32:34.001Z</time>
      </trkpt>
      <trkpt lat="48.22539" lon="5.66233">
        <ele>323.179</ele>
        <time>2019-09-24T08:32:37.001Z</time>
      </trkpt>
      <trkpt lat="48.22545" lon="5.66228">
        <ele>323.041</ele>
        <time>2019-09-24T08:32:40.001Z</time>
      </trkpt>
      <trkpt lat="48.22551" lon="5.66224">
        <ele>323.248</ele>
        <time>2019-09-24T08:32:43.001Z</time>
      </trkpt>
      <trkpt lat="48.22556" lon="5.66219">
        <ele>323.874</ele>
        <time>2019-09-24T08:32:46.001Z</time>
      </trkpt>
      <trkpt lat="48.22561" lon="5.66214">
        <ele>324.255</ele>
        <time>2019-09-24T08:32:49.001Z</time>
      </trkpt>
      <trkpt lat="48.22565" lon="5.66209">
        <ele>325.026</ele>
        <time>2019-09-24T08:32:52.001Z</time>
      </trkpt>
      <trkpt lat="48.2257" lon="5.66202">
        <ele>325.788</ele>
        <time>2019-09-24T08:32:55.001Z</time>
      </trkpt>
      <trkpt lat="48.22573" lon="5.66195">
        <ele>325.987</ele>
        <time>2019-09-24T08:32:58.001Z</time>
      </trkpt>
      <trkpt lat="48.22576" lon="5.66184">
        <ele>325.853</ele>
        <time>2019-09-24T08:33:01.001Z</time>
      </trkpt>
      <trkpt lat="48.22577" lon="5.66173">
        <ele>326.394</ele>
        <time>2019-09-24T08:33:04.001Z</time>
      </trkpt>
      <trkpt lat="48.22577" lon="5.66161">
        <ele>327.117</ele>
        <time>2019-09-24T08:33:07.001Z</time>
      </trkpt>
      <trkpt lat="48.22578" lon="5.6615">
        <ele>327.636</ele>
        <time>2019-09-24T08:33:10.001Z</time>
      </trkpt>
      <trkpt lat="48.2258" lon="5.66139">
        <ele>328.219</ele>
        <time>2019-09-24T08:33:13.001Z</time>
      </trkpt>
      <trkpt lat="48.22581" lon="5.66129">
        <ele>328.363</ele>
        <time>2019-09-24T10:33:16Z</time>
      </trkpt>
      <trkpt lat="48.22582" lon="5.66119">
        <ele>328.309</ele>
        <time>2019-09-24T08:33:19.001Z</time>
      </trkpt>
      <trkpt lat="48.22582" lon="5.66108">
        <ele>328.378</ele>
        <time>2019-09-24T08:33:22.001Z</time>
      </trkpt>
      <trkpt lat="48.22582" lon="5.66097">
        <ele>328.97</ele>
        <time>2019-09-24T08:33:25.001Z</time>
      </trkpt>
      <trkpt lat="48.22582" lon="5.66086">
        <ele>330.062</ele>
        <time>2019-09-24T08:33:28.001Z</time>
      </trkpt>
      <trkpt lat="48.22582" lon="5.66077">
        <ele>331.817</ele>
        <time>2019-09-24T08:33:31.001Z</time>
      </trkpt>
      <trkpt lat="48.22582" lon="5.66066">
        <ele>333.108</ele>
        <time>2019-09-24T08:33:34.001Z</time>
      </trkpt>
      <trkpt lat="48.22583" lon="5.66057">
        <ele>332.846</ele>
        <time>2019-09-24T08:33:37.001Z</time>
      </trkpt>
      <trkpt lat="48.22585" lon="5.66048">
        <ele>332.834</ele>
        <time>2019-09-24T08:33:40.001Z</time>
      </trkpt>
      <trkpt lat="48.22588" lon="5.66042">
        <ele>333.105</ele>
        <time>2019-09-24T08:33:43.001Z</time>
      </trkpt>
      <trkpt lat="48.22595" lon="5.66043">
        <ele>333.681</ele>
        <time>2019-09-24T08:33:46.002Z</time>
      </trkpt>
      <trkpt lat="48.22602" lon="5.66046">
        <ele>334.921</ele>
        <time>2019-09-24T08:33:49.001Z</time>
      </trkpt>
      <trkpt lat="48.22609" lon="5.66048">
        <ele>335.959</ele>
        <time>2019-09-24T08:33:52.001Z</time>
      </trkpt>
      <trkpt lat="48.22617" lon="5.66049">
        <ele>336.563</ele>
        <time>2019-09-24T08:33:55.001Z</time>
      </trkpt>
      <trkpt lat="48.22623" lon="5.6605">
        <ele>336.609</ele>
        <time>2019-09-24T08:33:58.001Z</time>
      </trkpt>
      <trkpt lat="48.2263" lon="5.66052">
        <ele>336.542</ele>
        <time>2019-09-24T08:34:01.001Z</time>
      </trkpt>
      <trkpt lat="48.22639" lon="5.66056">
        <ele>337.111</ele>
        <time>2019-09-24T08:34:04.001Z</time>
      </trkpt>
      <trkpt lat="48.22644" lon="5.66058">
        <ele>337.621</ele>
        <time>2019-09-24T08:34:07.001Z</time>
      </trkpt>
      <trkpt lat="48.22646" lon="5.66058">
        <ele>337.72</ele>
        <time>2019-09-24T08:34:10.001Z</time>
      </trkpt>
      <trkpt lat="48.22646" lon="5.66058">
        <ele>337.72</ele>
        <time>2019-09-24T08:36:25.001Z</time>
      </trkpt>
      <trkpt lat="48.22646" lon="5.6606">
        <ele>338.338</ele>
        <time>2019-09-24T08:36:28.001Z</time>
      </trkpt>
      <trkpt lat="48.22646" lon="5.6606">
        <ele>338.338</ele>
        <time>2019-09-24T08:36:31.001Z</time>
      </trkpt>
      <trkpt lat="48.22646" lon="5.6606">
        <ele>337.584</ele>
        <time>2019-09-24T08:42:43.001Z</time>
      </trkpt>
      <trkpt lat="48.22657" lon="5.6606">
        <ele>336.965</ele>
        <time>2019-09-24T08:42:46.001Z</time>
      </trkpt>
      <trkpt lat="48.22668" lon="5.66063">
        <ele>336.305</ele>
        <time>2019-09-24T08:42:49.001Z</time>
      </trkpt>
      <trkpt lat="48.22681" lon="5.66064">
        <ele>335.74</ele>
        <time>2019-09-24T08:42:52.001Z</time>
      </trkpt>
      <trkpt lat="48.22696" lon="5.66066">
        <ele>335.825</ele>
        <time>2019-09-24T08:42:55.001Z</time>
      </trkpt>
      <trkpt lat="48.2271" lon="5.66068">
        <ele>336.511</ele>
        <time>2019-09-24T08:42:58.001Z</time>
      </trkpt>
      <trkpt lat="48.22725" lon="5.66071">
        <ele>336.379</ele>
        <time>2019-09-24T08:43:01.001Z</time>
      </trkpt>
      <trkpt lat="48.22738" lon="5.66074">
        <ele>336.007</ele>
        <time>2019-09-24T08:43:04.001Z</time>
      </trkpt>
      <trkpt lat="48.22752" lon="5.66078">
        <ele>335.771</ele>
        <time>2019-09-24T08:43:07.001Z</time>
      </trkpt>
      <trkpt lat="48.22766" lon="5.66083">
        <ele>334.988</ele>
        <time>2019-09-24T08:43:10.001Z</time>
      </trkpt>
      <trkpt lat="48.22779" lon="5.66088">
        <ele>334.862</ele>
        <time>2019-09-24T08:43:13.001Z</time>
      </trkpt>
      <trkpt lat="48.2279" lon="5.66093">
        <ele>334.974</ele>
        <time>2019-09-24T10:43:16Z</time>
      </trkpt>
      <trkpt lat="48.22799" lon="5.66096">
        <ele>335.5</ele>
        <time>2019-09-24T08:43:19.001Z</time>
      </trkpt>
      <trkpt lat="48.22808" lon="5.66097">
        <ele>336.253</ele>
        <time>2019-09-24T08:43:22.001Z</time>
      </trkpt>
      <trkpt lat="48.22818" lon="5.661">
        <ele>335.387</ele>
        <time>2019-09-24T08:43:25.001Z</time>
      </trkpt>
      <trkpt lat="48.22826" lon="5.66104">
        <ele>335.167</ele>
        <time>2019-09-24T08:43:28.001Z</time>
      </trkpt>
      <trkpt lat="48.22835" lon="5.66109">
        <ele>335.109</ele>
        <time>2019-09-24T08:43:31.001Z</time>
      </trkpt>
      <trkpt lat="48.22843" lon="5.66112">
        <ele>335.392</ele>
        <time>2019-09-24T08:43:34.001Z</time>
      </trkpt>
      <trkpt lat="48.22851" lon="5.66115">
        <ele>336.185</ele>
        <time>2019-09-24T08:43:37.001Z</time>
      </trkpt>
      <trkpt lat="48.22859" lon="5.66117">
        <ele>336.494</ele>
        <time>2019-09-24T08:43:40.001Z</time>
      </trkpt>
      <trkpt lat="48.22867" lon="5.6612">
        <ele>336.141</ele>
        <time>2019-09-24T08:43:43.001Z</time>
      </trkpt>
      <trkpt lat="48.22875" lon="5.66122">
        <ele>336.086</ele>
        <time>2019-09-24T08:43:46.001Z</time>
      </trkpt>
      <trkpt lat="48.22882" lon="5.66124">
        <ele>335.972</ele>
        <time>2019-09-24T08:43:49.001Z</time>
      </trkpt>
      <trkpt lat="48.2289" lon="5.66126">
        <ele>335.938</ele>
        <time>2019-09-24T08:43:52.001Z</time>
      </trkpt>
      <trkpt lat="48.22896" lon="5.66126">
        <ele>335.696</ele>
        <time>2019-09-24T08:43:55.001Z</time>
      </trkpt>
      <trkpt lat="48.22903" lon="5.66126">
        <ele>335.432</ele>
        <time>2019-09-24T08:43:58.001Z</time>
      </trkpt>
      <trkpt lat="48.22909" lon="5.66126">
        <ele>335.185</ele>
        <time>2019-09-24T08:44:01.001Z</time>
      </trkpt>
      <trkpt lat="48.22916" lon="5.66126">
        <ele>335.25</ele>
        <time>2019-09-24T08:44:04.001Z</time>
      </trkpt>
      <trkpt lat="48.22923" lon="5.66125">
        <ele>335.7</ele>
        <time>2019-09-24T08:44:07.001Z</time>
      </trkpt>
      <trkpt lat="48.2293" lon="5.66123">
        <ele>336.46</ele>
        <time>2019-09-24T08:44:10.001Z</time>
      </trkpt>
      <trkpt lat="48.22937" lon="5.66121">
        <ele>337.585</ele>
        <time>2019-09-24T08:44:13.001Z</time>
      </trkpt>
      <trkpt lat="48.22943" lon="5.66119">
        <ele>337.923</ele>
        <time>2019-09-24T10:44:16Z</time>
      </trkpt>
      <trkpt lat="48.2295" lon="5.66116">
        <ele>338.299</ele>
        <time>2019-09-24T08:44:19.001Z</time>
      </trkpt>
      <trkpt lat="48.22957" lon="5.66114">
        <ele>338.318</ele>
        <time>2019-09-24T08:44:22.001Z</time>
      </trkpt>
      <trkpt lat="48.22963" lon="5.66112">
        <ele>338.242</ele>
        <time>2019-09-24T08:44:25.001Z</time>
      </trkpt>
      <trkpt lat="48.22968" lon="5.66109">
        <ele>338.821</ele>
        <time>2019-09-24T08:44:28.001Z</time>
      </trkpt>
      <trkpt lat="48.22974" lon="5.66105">
        <ele>339.338</ele>
        <time>2019-09-24T08:44:31.001Z</time>
      </trkpt>
      <trkpt lat="48.2298" lon="5.66102">
        <ele>340.257</ele>
        <time>2019-09-24T08:44:34.001Z</time>
      </trkpt>
      <trkpt lat="48.22986" lon="5.66098">
        <ele>340.609</ele>
        <time>2019-09-24T08:44:37.001Z</time>
      </trkpt>
      <trkpt lat="48.22991" lon="5.66094">
        <ele>340.138</ele>
        <time>2019-09-24T08:44:40.001Z</time>
      </trkpt>
      <trkpt lat="48.22996" lon="5.6609">
        <ele>340.638</ele>
        <time>2019-09-24T08:44:43.001Z</time>
      </trkpt>
      <trkpt lat="48.23001" lon="5.66086">
        <ele>341.021</ele>
        <time>2019-09-24T08:44:46.001Z</time>
      </trkpt>
      <trkpt lat="48.23005" lon="5.66082">
        <ele>341.703</ele>
        <time>2019-09-24T08:44:49.001Z</time>
      </trkpt>
      <trkpt lat="48.2301" lon="5.66077">
        <ele>342.275</ele>
        <time>2019-09-24T08:44:52.001Z</time>
      </trkpt>
      <trkpt lat="48.23014" lon="5.66074">
        <ele>342.887</ele>
        <time>2019-09-24T08:44:55.001Z</time>
      </trkpt>
      <trkpt lat="48.2302" lon="5.6607">
        <ele>343.725</ele>
        <time>2019-09-24T08:44:58.001Z</time>
      </trkpt>
      <trkpt lat="48.23023" lon="5.66064">
        <ele>344.555</ele>
        <time>2019-09-24T08:45:01.001Z</time>
      </trkpt>
      <trkpt lat="48.23028" lon="5.66059">
        <ele>345.158</ele>
        <time>2019-09-24T08:45:04.001Z</time>
      </trkpt>
      <trkpt lat="48.23032" lon="5.66055">
        <ele>345.357</ele>
        <time>2019-09-24T08:45:07.001Z</time>
      </trkpt>
      <trkpt lat="48.23036" lon="5.66052">
        <ele>346.046</ele>
        <time>2019-09-24T08:45:10.001Z</time>
      </trkpt>
      <trkpt lat="48.23041" lon="5.66047">
        <ele>346.43</ele>
        <time>2019-09-24T08:45:13.001Z</time>
      </trkpt>
      <trkpt lat="48.23046" lon="5.66043">
        <ele>346.839</ele>
        <time>2019-09-24T10:45:16Z</time>
      </trkpt>
      <trkpt lat="48.23051" lon="5.66039">
        <ele>347.638</ele>
        <time>2019-09-24T08:45:19.001Z</time>
      </trkpt>
      <trkpt lat="48.23057" lon="5.66035">
        <ele>348.15</ele>
        <time>2019-09-24T08:45:22.001Z</time>
      </trkpt>
      <trkpt lat="48.23063" lon="5.6603">
        <ele>348.886</ele>
        <time>2019-09-24T08:45:25.001Z</time>
      </trkpt>
      <trkpt lat="48.23068" lon="5.66025">
        <ele>349.358</ele>
        <time>2019-09-24T08:45:28.001Z</time>
      </trkpt>
      <trkpt lat="48.23074" lon="5.66021">
        <ele>349.692</ele>
        <time>2019-09-24T08:45:31.001Z</time>
      </trkpt>
      <trkpt lat="48.2308" lon="5.66016">
        <ele>349.392</ele>
        <time>2019-09-24T08:45:34.001Z</time>
      </trkpt>
      <trkpt lat="48.23086" lon="5.66012">
        <ele>349.556</ele>
        <time>2019-09-24T08:45:37.001Z</time>
      </trkpt>
      <trkpt lat="48.23091" lon="5.66007">
        <ele>348.985</ele>
        <time>2019-09-24T08:45:40.001Z</time>
      </trkpt>
      <trkpt lat="48.23097" lon="5.66003">
        <ele>349.245</ele>
        <time>2019-09-24T08:45:43.001Z</time>
      </trkpt>
      <trkpt lat="48.23104" lon="5.65999">
        <ele>349.312</ele>
        <time>2019-09-24T08:45:46.001Z</time>
      </trkpt>
      <trkpt lat="48.2311" lon="5.65996">
        <ele>348.573</ele>
        <time>2019-09-24T08:45:49.001Z</time>
      </trkpt>
      <trkpt lat="48.23116" lon="5.65992">
        <ele>348.559</ele>
        <time>2019-09-24T08:45:52.001Z</time>
      </trkpt>
      <trkpt lat="48.23121" lon="5.65988">
        <ele>348.662</ele>
        <time>2019-09-24T08:45:55.001Z</time>
      </trkpt>
      <trkpt lat="48.23126" lon="5.65984">
        <ele>348.991</ele>
        <time>2019-09-24T08:45:58.001Z</time>
      </trkpt>
      <trkpt lat="48.23131" lon="5.65981">
        <ele>349.249</ele>
        <time>2019-09-24T08:46:01.001Z</time>
      </trkpt>
      <trkpt lat="48.23137" lon="5.65977">
        <ele>349.592</ele>
        <time>2019-09-24T08:46:04.001Z</time>
      </trkpt>
      <trkpt lat="48.23142" lon="5.65974">
        <ele>350.142</ele>
        <time>2019-09-24T08:46:07.001Z</time>
      </trkpt>
      <trkpt lat="48.23147" lon="5.65971">
        <ele>350.841</ele>
        <time>2019-09-24T08:46:10.001Z</time>
      </trkpt>
      <trkpt lat="48.23153" lon="5.65969">
        <ele>351.599</ele>
        <time>2019-09-24T08:46:13.001Z</time>
      </trkpt>
      <trkpt lat="48.23158" lon="5.65967">
        <ele>352.474</ele>
        <time>2019-09-24T10:46:16Z</time>
      </trkpt>
      <trkpt lat="48.23164" lon="5.65964">
        <ele>352.942</ele>
        <time>2019-09-24T08:46:19.001Z</time>
      </trkpt>
      <trkpt lat="48.23169" lon="5.6596">
        <ele>353.677</ele>
        <time>2019-09-24T08:46:22.001Z</time>
      </trkpt>
      <trkpt lat="48.23174" lon="5.65956">
        <ele>354.154</ele>
        <time>2019-09-24T08:46:25.001Z</time>
      </trkpt>
      <trkpt lat="48.23179" lon="5.65953">
        <ele>354.772</ele>
        <time>2019-09-24T08:46:28.001Z</time>
      </trkpt>
      <trkpt lat="48.23184" lon="5.6595">
        <ele>356.29</ele>
        <time>2019-09-24T08:46:31.001Z</time>
      </trkpt>
      <trkpt lat="48.2319" lon="5.65947">
        <ele>356.826</ele>
        <time>2019-09-24T08:46:34.001Z</time>
      </trkpt>
      <trkpt lat="48.23195" lon="5.65943">
        <ele>357.045</ele>
        <time>2019-09-24T08:46:37.001Z</time>
      </trkpt>
      <trkpt lat="48.232" lon="5.65939">
        <ele>357.593</ele>
        <time>2019-09-24T08:46:40.001Z</time>
      </trkpt>
      <trkpt lat="48.23205" lon="5.65935">
        <ele>358.258</ele>
        <time>2019-09-24T08:46:43.001Z</time>
      </trkpt>
      <trkpt lat="48.23209" lon="5.6593">
        <ele>358.441</ele>
        <time>2019-09-24T08:46:46.001Z</time>
      </trkpt>
      <trkpt lat="48.23213" lon="5.65925">
        <ele>358.645</ele>
        <time>2019-09-24T08:46:49.001Z</time>
      </trkpt>
      <trkpt lat="48.23215" lon="5.65918">
        <ele>358.739</ele>
        <time>2019-09-24T08:46:52.001Z</time>
      </trkpt>
      <trkpt lat="48.23217" lon="5.65909">
        <ele>358.814</ele>
        <time>2019-09-24T08:46:55.001Z</time>
      </trkpt>
      <trkpt lat="48.23218" lon="5.659">
        <ele>359.002</ele>
        <time>2019-09-24T08:46:58.001Z</time>
      </trkpt>
      <trkpt lat="48.23217" lon="5.65892">
        <ele>359.549</ele>
        <time>2019-09-24T08:47:01.001Z</time>
      </trkpt>
      <trkpt lat="48.23217" lon="5.65884">
        <ele>360.626</ele>
        <time>2019-09-24T08:47:04.001Z</time>
      </trkpt>
      <trkpt lat="48.23213" lon="5.65877">
        <ele>361.007</ele>
        <time>2019-09-24T08:47:07.001Z</time>
      </trkpt>
      <trkpt lat="48.2321" lon="5.6587">
        <ele>361.342</ele>
        <time>2019-09-24T08:47:10.001Z</time>
      </trkpt>
      <trkpt lat="48.23203" lon="5.65864">
        <ele>362.566</ele>
        <time>2019-09-24T10:47:16Z</time>
      </trkpt>
      <trkpt lat="48.23199" lon="5.65862">
        <ele>363.004</ele>
        <time>2019-09-24T08:47:19.001Z</time>
      </trkpt>
      <trkpt lat="48.2319" lon="5.65858">
        <ele>365.415</ele>
        <time>2019-09-24T08:47:25.001Z</time>
      </trkpt>
      <trkpt lat="48.23184" lon="5.65856">
        <ele>366.085</ele>
        <time>2019-09-24T08:47:28.001Z</time>
      </trkpt>
      <trkpt lat="48.23178" lon="5.65858">
        <ele>366.614</ele>
        <time>2019-09-24T08:47:31.001Z</time>
      </trkpt>
      <trkpt lat="48.23173" lon="5.65861">
        <ele>367.665</ele>
        <time>2019-09-24T08:47:34.001Z</time>
      </trkpt>
      <trkpt lat="48.23167" lon="5.65861">
        <ele>368.323</ele>
        <time>2019-09-24T08:47:37.001Z</time>
      </trkpt>
      <trkpt lat="48.23162" lon="5.6586">
        <ele>367.874</ele>
        <time>2019-09-24T08:47:40.001Z</time>
      </trkpt>
      <trkpt lat="48.23156" lon="5.65857">
        <ele>367.533</ele>
        <time>2019-09-24T08:47:43.001Z</time>
      </trkpt>
      <trkpt lat="48.23152" lon="5.65858">
        <ele>368.06</ele>
        <time>2019-09-24T08:47:46.001Z</time>
      </trkpt>
      <trkpt lat="48.23143" lon="5.65861">
        <ele>370.371</ele>
        <time>2019-09-24T08:47:52.001Z</time>
      </trkpt>
      <trkpt lat="48.23135" lon="5.65861">
        <ele>371.599</ele>
        <time>2019-09-24T08:47:58.001Z</time>
      </trkpt>
      <trkpt lat="48.23127" lon="5.65861">
        <ele>372.719</ele>
        <time>2019-09-24T08:48:04.001Z</time>
      </trkpt>
      <trkpt lat="48.23121" lon="5.6586">
        <ele>373.04</ele>
        <time>2019-09-24T08:48:07.001Z</time>
      </trkpt>
      <trkpt lat="48.23116" lon="5.65861">
        <ele>374.462</ele>
        <time>2019-09-24T08:48:10.001Z</time>
      </trkpt>
      <trkpt lat="48.23108" lon="5.65861">
        <ele>376.597</ele>
        <time>2019-09-24T10:48:16Z</time>
      </trkpt>
      <trkpt lat="48.23102" lon="5.6586">
        <ele>377.011</ele>
        <time>2019-09-24T08:48:19.001Z</time>
      </trkpt>
      <trkpt lat="48.23096" lon="5.6586">
        <ele>377.08</ele>
        <time>2019-09-24T08:48:22.001Z</time>
      </trkpt>
      <trkpt lat="48.23091" lon="5.65859">
        <ele>377.101</ele>
        <time>2019-09-24T08:48:25.001Z</time>
      </trkpt>
      <trkpt lat="48.23086" lon="5.65858">
        <ele>377.63</ele>
        <time>2019-09-24T08:48:28.001Z</time>
      </trkpt>
      <trkpt lat="48.2308" lon="5.65858">
        <ele>378.007</ele>
        <time>2019-09-24T08:48:31.001Z</time>
      </trkpt>
      <trkpt lat="48.23075" lon="5.65856">
        <ele>378.229</ele>
        <time>2019-09-24T08:48:34.001Z</time>
      </trkpt>
      <trkpt lat="48.23067" lon="5.65853">
        <ele>378.72</ele>
        <time>2019-09-24T08:48:40.001Z</time>
      </trkpt>
      <trkpt lat="48.23058" lon="5.6585">
        <ele>379.701</ele>
        <time>2019-09-24T08:48:46.001Z</time>
      </trkpt>
      <trkpt lat="48.23053" lon="5.65849">
        <ele>379.915</ele>
        <time>2019-09-24T08:48:49.001Z</time>
      </trkpt>
      <trkpt lat="48.23047" lon="5.65847">
        <ele>379.729</ele>
        <time>2019-09-24T08:48:52.001Z</time>
      </trkpt>
      <trkpt lat="48.23042" lon="5.65846">
        <ele>380.268</ele>
        <time>2019-09-24T08:48:55.001Z</time>
      </trkpt>
      <trkpt lat="48.23037" lon="5.65845">
        <ele>380.89</ele>
        <time>2019-09-24T08:48:58.001Z</time>
      </trkpt>
      <trkpt lat="48.23032" lon="5.65842">
        <ele>381.586</ele>
        <time>2019-09-24T08:49:01.001Z</time>
      </trkpt>
      <trkpt lat="48.23027" lon="5.65841">
        <ele>381.63</ele>
        <time>2019-09-24T08:49:04.001Z</time>
      </trkpt>
      <trkpt lat="48.23022" lon="5.65839">
        <ele>381.924</ele>
        <time>2019-09-24T08:49:07.001Z</time>
      </trkpt>
      <trkpt lat="48.23016" lon="5.65835">
        <ele>383.965</ele>
        <time>2019-09-24T08:49:10.001Z</time>
      </trkpt>
      <trkpt lat="48.23009" lon="5.65833">
        <ele>385.155</ele>
        <time>2019-09-24T10:49:16Z</time>
      </trkpt>
      <trkpt lat="48.23004" lon="5.65831">
        <ele>385.805</ele>
        <time>2019-09-24T08:49:19.001Z</time>
      </trkpt>
      <trkpt lat="48.22999" lon="5.65829">
        <ele>387.233</ele>
        <time>2019-09-24T08:49:22.001Z</time>
      </trkpt>
      <trkpt lat="48.22994" lon="5.65829">
        <ele>388.2</ele>
        <time>2019-09-24T08:49:25.001Z</time>
      </trkpt>
      <trkpt lat="48.22986" lon="5.65824">
        <ele>388.991</ele>
        <time>2019-09-24T08:49:31.001Z</time>
      </trkpt>
      <trkpt lat="48.22978" lon="5.65817">
        <ele>388.104</ele>
        <time>2019-09-24T08:49:37.001Z</time>
      </trkpt>
      <trkpt lat="48.22971" lon="5.6581">
        <ele>388.502</ele>
        <time>2019-09-24T08:49:43.001Z</time>
      </trkpt>
      <trkpt lat="48.22964" lon="5.65803">
        <ele>388.971</ele>
        <time>2019-09-24T08:49:49.001Z</time>
      </trkpt>
      <trkpt lat="48.2296" lon="5.658">
        <ele>389.101</ele>
        <time>2019-09-24T08:49:52.001Z</time>
      </trkpt>
      <trkpt lat="48.22955" lon="5.65796">
        <ele>388.739</ele>
        <time>2019-09-24T08:49:55.001Z</time>
      </trkpt>
      <trkpt lat="48.22949" lon="5.65793">
        <ele>389.07</ele>
        <time>2019-09-24T08:49:58.001Z</time>
      </trkpt>
      <trkpt lat="48.22943" lon="5.65789">
        <ele>389.75</ele>
        <time>2019-09-24T08:50:01.001Z</time>
      </trkpt>
      <trkpt lat="48.22938" lon="5.65786">
        <ele>390.033</ele>
        <time>2019-09-24T08:50:04.001Z</time>
      </trkpt>
      <trkpt lat="48.22929" lon="5.65783">
        <ele>391.231</ele>
        <time>2019-09-24T08:50:10.001Z</time>
      </trkpt>
      <trkpt lat="48.22921" lon="5.65779">
        <ele>391.895</ele>
        <time>2019-09-24T10:50:16Z</time>
      </trkpt>
      <trkpt lat="48.22917" lon="5.65774">
        <ele>391.993</ele>
        <time>2019-09-24T08:50:19.001Z</time>
      </trkpt>
      <trkpt lat="48.22913" lon="5.65769">
        <ele>391.79</ele>
        <time>2019-09-24T08:50:22.001Z</time>
      </trkpt>
      <trkpt lat="48.22909" lon="5.65763">
        <ele>392.16</ele>
        <time>2019-09-24T08:50:25.001Z</time>
      </trkpt>
      <trkpt lat="48.22906" lon="5.65756">
        <ele>393.24</ele>
        <time>2019-09-24T08:50:28.001Z</time>
      </trkpt>
      <trkpt lat="48.229" lon="5.65746">
        <ele>393.214</ele>
        <time>2019-09-24T08:50:34.001Z</time>
      </trkpt>
      <trkpt lat="48.22893" lon="5.6574">
        <ele>393.616</ele>
        <time>2019-09-24T08:50:37.001Z</time>
      </trkpt>
      <trkpt lat="48.22887" lon="5.65735">
        <ele>394.97</ele>
        <time>2019-09-24T08:50:40.001Z</time>
      </trkpt>
      <trkpt lat="48.22884" lon="5.65726">
        <ele>397.172</ele>
        <time>2019-09-24T08:50:46.001Z</time>
      </trkpt>
      <trkpt lat="48.22879" lon="5.65724">
        <ele>398.41</ele>
        <time>2019-09-24T08:50:49.001Z</time>
      </trkpt>
      <trkpt lat="48.22875" lon="5.65719">
        <ele>399.145</ele>
        <time>2019-09-24T08:50:52.001Z</time>
      </trkpt>
      <trkpt lat="48.2287" lon="5.65715">
        <ele>399.958</ele>
        <time>2019-09-24T08:50:55.001Z</time>
      </trkpt>
      <trkpt lat="48.22864" lon="5.65711">
        <ele>400.533</ele>
        <time>2019-09-24T08:50:58.001Z</time>
      </trkpt>
      <trkpt lat="48.22857" lon="5.657">
        <ele>402.159</ele>
        <time>2019-09-24T08:51:04.001Z</time>
      </trkpt>
      <trkpt lat="48.2285" lon="5.65692">
        <ele>403.249</ele>
        <time>2019-09-24T08:51:10.001Z</time>
      </trkpt>
      <trkpt lat="48.22847" lon="5.65686">
        <ele>402.818</ele>
        <time>2019-09-24T08:51:13.001Z</time>
      </trkpt>
      <trkpt lat="48.22843" lon="5.65674">
        <ele>402.257</ele>
        <time>2019-09-24T08:51:19.001Z</time>
      </trkpt>
      <trkpt lat="48.22839" lon="5.65668">
        <ele>402.065</ele>
        <time>2019-09-24T08:51:22.001Z</time>
      </trkpt>
      <trkpt lat="48.22835" lon="5.65663">
        <ele>402.359</ele>
        <time>2019-09-24T08:51:25.001Z</time>
      </trkpt>
      <trkpt lat="48.22831" lon="5.65659">
        <ele>402.115</ele>
        <time>2019-09-24T08:51:28.001Z</time>
      </trkpt>
      <trkpt lat="48.22827" lon="5.65655">
        <ele>400.9</ele>
        <time>2019-09-24T08:51:31.001Z</time>
      </trkpt>
      <trkpt lat="48.22822" lon="5.65651">
        <ele>399.748</ele>
        <time>2019-09-24T08:51:34.001Z</time>
      </trkpt>
      <trkpt lat="48.22816" lon="5.65646">
        <ele>398.686</ele>
        <time>2019-09-24T08:51:37.001Z</time>
      </trkpt>
      <trkpt lat="48.22812" lon="5.65642">
        <ele>398.649</ele>
        <time>2019-09-24T08:51:40.001Z</time>
      </trkpt>
      <trkpt lat="48.22808" lon="5.65636">
        <ele>399.035</ele>
        <time>2019-09-24T08:51:43.001Z</time>
      </trkpt>
      <trkpt lat="48.22806" lon="5.6563">
        <ele>399.515</ele>
        <time>2019-09-24T08:51:46.001Z</time>
      </trkpt>
      <trkpt lat="48.22803" lon="5.65624">
        <ele>400.189</ele>
        <time>2019-09-24T08:51:49.001Z</time>
      </trkpt>
      <trkpt lat="48.228" lon="5.65618">
        <ele>401.126</ele>
        <time>2019-09-24T08:51:52.001Z</time>
      </trkpt>
      <trkpt lat="48.22796" lon="5.65608">
        <ele>400.731</ele>
        <time>2019-09-24T08:51:55.001Z</time>
      </trkpt>
      <trkpt lat="48.22794" lon="5.65597">
        <ele>400.323</ele>
        <time>2019-09-24T08:51:58.001Z</time>
      </trkpt>
      <trkpt lat="48.22791" lon="5.65589">
        <ele>399.653</ele>
        <time>2019-09-24T08:52:01.001Z</time>
      </trkpt>
      <trkpt lat="48.22789" lon="5.65582">
        <ele>400.058</ele>
        <time>2019-09-24T08:52:04.001Z</time>
      </trkpt>
      <trkpt lat="48.22787" lon="5.65575">
        <ele>399.881</ele>
        <time>2019-09-24T08:52:07.001Z</time>
      </trkpt>
      <trkpt lat="48.22785" lon="5.65569">
        <ele>400.258</ele>
        <time>2019-09-24T08:52:10.001Z</time>
      </trkpt>
      <trkpt lat="48.2278" lon="5.6556">
        <ele>401.608</ele>
        <time>2019-09-24T10:52:16Z</time>
      </trkpt>
      <trkpt lat="48.22778" lon="5.65553">
        <ele>402.111</ele>
        <time>2019-09-24T08:52:19.001Z</time>
      </trkpt>
      <trkpt lat="48.22777" lon="5.65542">
        <ele>402.556</ele>
        <time>2019-09-24T08:52:25.001Z</time>
      </trkpt>
      <trkpt lat="48.22774" lon="5.6553">
        <ele>404.406</ele>
        <time>2019-09-24T08:52:31.001Z</time>
      </trkpt>
      <trkpt lat="48.2277" lon="5.65517">
        <ele>405.755</ele>
        <time>2019-09-24T08:52:37.001Z</time>
      </trkpt>
      <trkpt lat="48.22768" lon="5.65509">
        <ele>405.912</ele>
        <time>2019-09-24T08:52:40.001Z</time>
      </trkpt>
      <trkpt lat="48.22766" lon="5.65502">
        <ele>406.211</ele>
        <time>2019-09-24T08:52:43.001Z</time>
      </trkpt>
      <trkpt lat="48.22765" lon="5.65494">
        <ele>406.152</ele>
        <time>2019-09-24T08:52:46.001Z</time>
      </trkpt>
      <trkpt lat="48.22764" lon="5.65485">
        <ele>405.753</ele>
        <time>2019-09-24T08:52:49.001Z</time>
      </trkpt>
      <trkpt lat="48.22764" lon="5.65476">
        <ele>405.605</ele>
        <time>2019-09-24T08:52:52.001Z</time>
      </trkpt>
      <trkpt lat="48.22762" lon="5.65465">
        <ele>405.385</ele>
        <time>2019-09-24T08:52:55.001Z</time>
      </trkpt>
      <trkpt lat="48.22762" lon="5.65457">
        <ele>405.945</ele>
        <time>2019-09-24T08:52:58.001Z</time>
      </trkpt>
      <trkpt lat="48.22762" lon="5.65449">
        <ele>406.435</ele>
        <time>2019-09-24T08:53:01.001Z</time>
      </trkpt>
      <trkpt lat="48.2276" lon="5.65442">
        <ele>406.895</ele>
        <time>2019-09-24T08:53:04.001Z</time>
      </trkpt>
      <trkpt lat="48.22759" lon="5.65434">
        <ele>407.442</ele>
        <time>2019-09-24T08:53:07.001Z</time>
      </trkpt>
      <trkpt lat="48.22759" lon="5.65427">
        <ele>408.082</ele>
        <time>2019-09-24T08:53:10.001Z</time>
      </trkpt>
      <trkpt lat="48.22758" lon="5.6542">
        <ele>409.224</ele>
        <time>2019-09-24T08:53:13.001Z</time>
      </trkpt>
      <trkpt lat="48.22757" lon="5.65412">
        <ele>409.788</ele>
        <time>2019-09-24T10:53:16Z</time>
      </trkpt>
      <trkpt lat="48.22757" lon="5.65404">
        <ele>410.322</ele>
        <time>2019-09-24T08:53:19.001Z</time>
      </trkpt>
      <trkpt lat="48.22756" lon="5.65397">
        <ele>411.098</ele>
        <time>2019-09-24T08:53:22.001Z</time>
      </trkpt>
      <trkpt lat="48.22755" lon="5.6539">
        <ele>411.942</ele>
        <time>2019-09-24T08:53:25.001Z</time>
      </trkpt>
      <trkpt lat="48.22753" lon="5.65378">
        <ele>412.384</ele>
        <time>2019-09-24T08:53:31.001Z</time>
      </trkpt>
      <trkpt lat="48.22752" lon="5.65367">
        <ele>413.587</ele>
        <time>2019-09-24T08:53:37.001Z</time>
      </trkpt>
      <trkpt lat="48.22748" lon="5.65353">
        <ele>414.455</ele>
        <time>2019-09-24T08:53:43.001Z</time>
      </trkpt>
      <trkpt lat="48.22747" lon="5.65345">
        <ele>415.129</ele>
        <time>2019-09-24T08:53:46.001Z</time>
      </trkpt>
      <trkpt lat="48.22746" lon="5.65338">
        <ele>415.733</ele>
        <time>2019-09-24T08:53:49.001Z</time>
      </trkpt>
      <trkpt lat="48.22746" lon="5.65331">
        <ele>416.508</ele>
        <time>2019-09-24T08:53:52.001Z</time>
      </trkpt>
      <trkpt lat="48.22746" lon="5.65324">
        <ele>417.264</ele>
        <time>2019-09-24T08:53:55.001Z</time>
      </trkpt>
      <trkpt lat="48.22745" lon="5.65317">
        <ele>417.806</ele>
        <time>2019-09-24T08:53:58.001Z</time>
      </trkpt>
      <trkpt lat="48.22743" lon="5.6531">
        <ele>418.89</ele>
        <time>2019-09-24T08:54:01.001Z</time>
      </trkpt>
      <trkpt lat="48.2274" lon="5.65305">
        <ele>419.235</ele>
        <time>2019-09-24T08:54:04.001Z</time>
      </trkpt>
      <trkpt lat="48.22738" lon="5.65299">
        <ele>419.424</ele>
        <time>2019-09-24T08:54:07.001Z</time>
      </trkpt>
      <trkpt lat="48.22737" lon="5.65285">
        <ele>420.588</ele>
        <time>2019-09-24T08:54:13.001Z</time>
      </trkpt>
      <trkpt lat="48.22735" lon="5.65279">
        <ele>419.773</ele>
        <time>2019-09-24T10:54:16Z</time>
      </trkpt>
      <trkpt lat="48.22731" lon="5.65271">
        <ele>419.722</ele>
        <time>2019-09-24T08:54:19.001Z</time>
      </trkpt>
      <trkpt lat="48.22729" lon="5.65263">
        <ele>419.371</ele>
        <time>2019-09-24T08:54:22.001Z</time>
      </trkpt>
      <trkpt lat="48.22726" lon="5.65256">
        <ele>418.75</ele>
        <time>2019-09-24T08:54:25.001Z</time>
      </trkpt>
      <trkpt lat="48.22724" lon="5.65249">
        <ele>418.398</ele>
        <time>2019-09-24T08:54:28.001Z</time>
      </trkpt>
      <trkpt lat="48.22721" lon="5.65243">
        <ele>417.94</ele>
        <time>2019-09-24T08:54:31.001Z</time>
      </trkpt>
      <trkpt lat="48.22719" lon="5.65232">
        <ele>417.583</ele>
        <time>2019-09-24T08:54:37.001Z</time>
      </trkpt>
      <trkpt lat="48.22717" lon="5.65225">
        <ele>417.563</ele>
        <time>2019-09-24T08:54:40.001Z</time>
      </trkpt>
      <trkpt lat="48.22716" lon="5.65219">
        <ele>417.633</ele>
        <time>2019-09-24T08:54:43.001Z</time>
      </trkpt>
      <trkpt lat="48.22715" lon="5.65206">
        <ele>418.981</ele>
        <time>2019-09-24T08:54:49.001Z</time>
      </trkpt>
      <trkpt lat="48.22713" lon="5.652">
        <ele>420.219</ele>
        <time>2019-09-24T08:54:52.001Z</time>
      </trkpt>
      <trkpt lat="48.22709" lon="5.65193">
        <ele>421.097</ele>
        <time>2019-09-24T08:54:55.001Z</time>
      </trkpt>
      <trkpt lat="48.22705" lon="5.65186">
        <ele>422.297</ele>
        <time>2019-09-24T08:54:58.001Z</time>
      </trkpt>
      <trkpt lat="48.22703" lon="5.65179">
        <ele>422.596</ele>
        <time>2019-09-24T08:55:01.001Z</time>
      </trkpt>
      <trkpt lat="48.22702" lon="5.65174">
        <ele>423.444</ele>
        <time>2019-09-24T08:55:04.001Z</time>
      </trkpt>
      <trkpt lat="48.22698" lon="5.65168">
        <ele>423.033</ele>
        <time>2019-09-24T08:55:07.001Z</time>
      </trkpt>
      <trkpt lat="48.22694" lon="5.65161">
        <ele>423.088</ele>
        <time>2019-09-24T08:55:10.001Z</time>
      </trkpt>
      <trkpt lat="48.22689" lon="5.65154">
        <ele>423.408</ele>
        <time>2019-09-24T08:55:13.001Z</time>
      </trkpt>
      <trkpt lat="48.22685" lon="5.65149">
        <ele>423.21</ele>
        <time>2019-09-24T10:55:16Z</time>
      </trkpt>
      <trkpt lat="48.2268" lon="5.65142">
        <ele>423.053</ele>
        <time>2019-09-24T08:55:19.001Z</time>
      </trkpt>
      <trkpt lat="48.22674" lon="5.65134">
        <ele>421.812</ele>
        <time>2019-09-24T08:55:22.001Z</time>
      </trkpt>
      <trkpt lat="48.2267" lon="5.65126">
        <ele>420.208</ele>
        <time>2019-09-24T08:55:25.001Z</time>
      </trkpt>
      <trkpt lat="48.22666" lon="5.6512">
        <ele>418.613</ele>
        <time>2019-09-24T08:55:28.001Z</time>
      </trkpt>
      <trkpt lat="48.22662" lon="5.65114">
        <ele>418.057</ele>
        <time>2019-09-24T08:55:31.001Z</time>
      </trkpt>
      <trkpt lat="48.22659" lon="5.65108">
        <ele>418.098</ele>
        <time>2019-09-24T08:55:34.001Z</time>
      </trkpt>
      <trkpt lat="48.22655" lon="5.65103">
        <ele>418.252</ele>
        <time>2019-09-24T08:55:37.001Z</time>
      </trkpt>
      <trkpt lat="48.22651" lon="5.65099">
        <ele>418.369</ele>
        <time>2019-09-24T08:55:40.001Z</time>
      </trkpt>
      <trkpt lat="48.22646" lon="5.65093">
        <ele>418.555</ele>
        <time>2019-09-24T08:55:43.001Z</time>
      </trkpt>
      <trkpt lat="48.22643" lon="5.65087">
        <ele>418.86</ele>
        <time>2019-09-24T08:55:46.001Z</time>
      </trkpt>
      <trkpt lat="48.2264" lon="5.65082">
        <ele>418.586</ele>
        <time>2019-09-24T08:55:49.001Z</time>
      </trkpt>
      <trkpt lat="48.22637" lon="5.65076">
        <ele>418.975</ele>
        <time>2019-09-24T08:55:52.001Z</time>
      </trkpt>
      <trkpt lat="48.22634" lon="5.65071">
        <ele>418.929</ele>
        <time>2019-09-24T08:55:55.001Z</time>
      </trkpt>
      <trkpt lat="48.22628" lon="5.65059">
        <ele>417.424</ele>
        <time>2019-09-24T08:56:01.001Z</time>
      </trkpt>
      <trkpt lat="48.22625" lon="5.65054">
        <ele>417.09</ele>
        <time>2019-09-24T08:56:04.001Z</time>
      </trkpt>
      <trkpt lat="48.22622" lon="5.65048">
        <ele>417.061</ele>
        <time>2019-09-24T08:56:07.001Z</time>
      </trkpt>
      <trkpt lat="48.2262" lon="5.65041">
        <ele>417.454</ele>
        <time>2019-09-24T08:56:10.001Z</time>
      </trkpt>
      <trkpt lat="48.22617" lon="5.65035">
        <ele>417.642</ele>
        <time>2019-09-24T08:56:13.001Z</time>
      </trkpt>
      <trkpt lat="48.22614" lon="5.65027">
        <ele>417.977</ele>
        <time>2019-09-24T10:56:16Z</time>
      </trkpt>
      <trkpt lat="48.22612" lon="5.6502">
        <ele>418.002</ele>
        <time>2019-09-24T08:56:19.001Z</time>
      </trkpt>
      <trkpt lat="48.2261" lon="5.65013">
        <ele>418.586</ele>
        <time>2019-09-24T08:56:22.001Z</time>
      </trkpt>
      <trkpt lat="48.22609" lon="5.65006">
        <ele>418.871</ele>
        <time>2019-09-24T08:56:25.001Z</time>
      </trkpt>
      <trkpt lat="48.22607" lon="5.64998">
        <ele>418.943</ele>
        <time>2019-09-24T08:56:28.001Z</time>
      </trkpt>
      <trkpt lat="48.22605" lon="5.64991">
        <ele>419.094</ele>
        <time>2019-09-24T08:56:31.001Z</time>
      </trkpt>
      <trkpt lat="48.22605" lon="5.64983">
        <ele>419.886</ele>
        <time>2019-09-24T08:56:34.001Z</time>
      </trkpt>
      <trkpt lat="48.22604" lon="5.64976">
        <ele>420.365</ele>
        <time>2019-09-24T08:56:37.001Z</time>
      </trkpt>
      <trkpt lat="48.22603" lon="5.64969">
        <ele>421.186</ele>
        <time>2019-09-24T08:56:40.001Z</time>
      </trkpt>
      <trkpt lat="48.22603" lon="5.64961">
        <ele>421.756</ele>
        <time>2019-09-24T08:56:43.001Z</time>
      </trkpt>
      <trkpt lat="48.22603" lon="5.64953">
        <ele>422.708</ele>
        <time>2019-09-24T08:56:46.001Z</time>
      </trkpt>
      <trkpt lat="48.22603" lon="5.64946">
        <ele>423.382</ele>
        <time>2019-09-24T08:56:49.001Z</time>
      </trkpt>
      <trkpt lat="48.22604" lon="5.64939">
        <ele>423.906</ele>
        <time>2019-09-24T08:56:52.001Z</time>
      </trkpt>
      <trkpt lat="48.22605" lon="5.64933">
        <ele>425.254</ele>
        <time>2019-09-24T08:56:55.001Z</time>
      </trkpt>
      <trkpt lat="48.22608" lon="5.64921">
        <ele>426.344</ele>
        <time>2019-09-24T08:57:01.001Z</time>
      </trkpt>
      <trkpt lat="48.2261" lon="5.64909">
        <ele>427.779</ele>
        <time>2019-09-24T08:57:07.001Z</time>
      </trkpt>
      <trkpt lat="48.22614" lon="5.64898">
        <ele>429.958</ele>
        <time>2019-09-24T08:57:13.001Z</time>
      </trkpt>
      <trkpt lat="48.22619" lon="5.64885">
        <ele>432.259</ele>
        <time>2019-09-24T08:57:19.001Z</time>
      </trkpt>
      <trkpt lat="48.22622" lon="5.64879">
        <ele>433.51</ele>
        <time>2019-09-24T08:57:22.001Z</time>
      </trkpt>
      <trkpt lat="48.22625" lon="5.64872">
        <ele>435.001</ele>
        <time>2019-09-24T08:57:25.001Z</time>
      </trkpt>
      <trkpt lat="48.22627" lon="5.64866">
        <ele>436.02</ele>
        <time>2019-09-24T08:57:28.001Z</time>
      </trkpt>
      <trkpt lat="48.22632" lon="5.64854">
        <ele>437.326</ele>
        <time>2019-09-24T08:57:34.001Z</time>
      </trkpt>
      <trkpt lat="48.22636" lon="5.64848">
        <ele>437.35</ele>
        <time>2019-09-24T08:57:37.001Z</time>
      </trkpt>
      <trkpt lat="48.22639" lon="5.64843">
        <ele>437.195</ele>
        <time>2019-09-24T08:57:40.001Z</time>
      </trkpt>
      <trkpt lat="48.22644" lon="5.6483">
        <ele>437.956</ele>
        <time>2019-09-24T08:57:46.001Z</time>
      </trkpt>
      <trkpt lat="48.22646" lon="5.64823">
        <ele>438.03</ele>
        <time>2019-09-24T08:57:49.001Z</time>
      </trkpt>
      <trkpt lat="48.2265" lon="5.64815">
        <ele>438.81</ele>
        <time>2019-09-24T08:57:52.001Z</time>
      </trkpt>
      <trkpt lat="48.22653" lon="5.64806">
        <ele>439.139</ele>
        <time>2019-09-24T08:57:55.001Z</time>
      </trkpt>
      <trkpt lat="48.22655" lon="5.64798">
        <ele>439.398</ele>
        <time>2019-09-24T08:57:58.001Z</time>
      </trkpt>
      <trkpt lat="48.2266" lon="5.64792">
        <ele>439.71</ele>
        <time>2019-09-24T08:58:01.001Z</time>
      </trkpt>
      <trkpt lat="48.22662" lon="5.64783">
        <ele>440.039</ele>
        <time>2019-09-24T08:58:04.001Z</time>
      </trkpt>
      <trkpt lat="48.22663" lon="5.64774">
        <ele>439.585</ele>
        <time>2019-09-24T08:58:07.001Z</time>
      </trkpt>
      <trkpt lat="48.22664" lon="5.64765">
        <ele>438.148</ele>
        <time>2019-09-24T08:58:10.001Z</time>
      </trkpt>
      <trkpt lat="48.22665" lon="5.64756">
        <ele>437.046</ele>
        <time>2019-09-24T08:58:13.001Z</time>
      </trkpt>
      <trkpt lat="48.22667" lon="5.64745">
        <ele>436.449</ele>
        <time>2019-09-24T10:58:16Z</time>
      </trkpt>
      <trkpt lat="48.22666" lon="5.64734">
        <ele>435.72</ele>
        <time>2019-09-24T08:58:19.001Z</time>
      </trkpt>
      <trkpt lat="48.22665" lon="5.64723">
        <ele>435.101</ele>
        <time>2019-09-24T08:58:22.001Z</time>
      </trkpt>
      <trkpt lat="48.22666" lon="5.64714">
        <ele>434.876</ele>
        <time>2019-09-24T08:58:25.001Z</time>
      </trkpt>
      <trkpt lat="48.22667" lon="5.64704">
        <ele>436.01</ele>
        <time>2019-09-24T08:58:28.001Z</time>
      </trkpt>
      <trkpt lat="48.22668" lon="5.64693">
        <ele>437.726</ele>
        <time>2019-09-24T08:58:31.001Z</time>
      </trkpt>
      <trkpt lat="48.22669" lon="5.64682">
        <ele>438.292</ele>
        <time>2019-09-24T08:58:34.001Z</time>
      </trkpt>
      <trkpt lat="48.2267" lon="5.64671">
        <ele>439.023</ele>
        <time>2019-09-24T08:58:37.001Z</time>
      </trkpt>
      <trkpt lat="48.22671" lon="5.64662">
        <ele>438.68</ele>
        <time>2019-09-24T08:58:40.001Z</time>
      </trkpt>
      <trkpt lat="48.22672" lon="5.64658">
        <ele>436.553</ele>
        <time>2019-09-24T08:58:46.001Z</time>
      </trkpt>
      <trkpt lat="48.22673" lon="5.64658">
        <ele>436.207</ele>
        <time>2019-09-24T08:58:49.001Z</time>
      </trkpt>
      <trkpt lat="48.22673" lon="5.64658">
        <ele>436.207</ele>
        <time>2019-09-24T08:59:31.001Z</time>
      </trkpt>
      <trkpt lat="48.22673" lon="5.64658">
        <ele>436.125</ele>
        <time>2019-09-24T08:59:34.001Z</time>
      </trkpt>
      <trkpt lat="48.22673" lon="5.64658">
        <ele>435.441</ele>
        <time>2019-09-24T08:59:37.001Z</time>
      </trkpt>
      <trkpt lat="48.22673" lon="5.64658">
        <ele>435.441</ele>
        <time>2019-09-24T09:01:31.001Z</time>
      </trkpt>
      <trkpt lat="48.22674" lon="5.64658">
        <ele>435.513</ele>
        <time>2019-09-24T09:01:34.001Z</time>
      </trkpt>
      <trkpt lat="48.22675" lon="5.64657">
        <ele>435.552</ele>
        <time>2019-09-24T09:01:37.001Z</time>
      </trkpt>
      <trkpt lat="48.22675" lon="5.64656">
        <ele>435.236</ele>
        <time>2019-09-24T09:01:58.001Z</time>
      </trkpt>
      <trkpt lat="48.22675" lon="5.64655">
        <ele>435.271</ele>
        <time>2019-09-24T09:02:01.001Z</time>
      </trkpt>
      <trkpt lat="48.22675" lon="5.64654">
        <ele>435.01</ele>
        <time>2019-09-24T09:02:04.001Z</time>
      </trkpt>
      <trkpt lat="48.22675" lon="5.64654">
        <ele>435.01</ele>
        <time>2019-09-24T09:02:37.001Z</time>
      </trkpt>
      <trkpt lat="48.22674" lon="5.64651">
        <ele>435.313</ele>
        <time>2019-09-24T09:02:40.001Z</time>
      </trkpt>
      <trkpt lat="48.22673" lon="5.64643">
        <ele>435.477</ele>
        <time>2019-09-24T09:02:43.001Z</time>
      </trkpt>
      <trkpt lat="48.22674" lon="5.64633">
        <ele>435.864</ele>
        <time>2019-09-24T09:02:46.001Z</time>
      </trkpt>
      <trkpt lat="48.22675" lon="5.64621">
        <ele>436.09</ele>
        <time>2019-09-24T09:02:49.001Z</time>
      </trkpt>
      <trkpt lat="48.22674" lon="5.64606">
        <ele>436.607</ele>
        <time>2019-09-24T09:02:52.001Z</time>
      </trkpt>
      <trkpt lat="48.22673" lon="5.64587">
        <ele>436.539</ele>
        <time>2019-09-24T09:02:55.001Z</time>
      </trkpt>
      <trkpt lat="48.22675" lon="5.64564">
        <ele>436.103</ele>
        <time>2019-09-24T09:02:58.001Z</time>
      </trkpt>
      <trkpt lat="48.22676" lon="5.64538">
        <ele>435.739</ele>
        <time>2019-09-24T09:03:01.001Z</time>
      </trkpt>
      <trkpt lat="48.22676" lon="5.6451">
        <ele>435.452</ele>
        <time>2019-09-24T09:03:04.001Z</time>
      </trkpt>
      <trkpt lat="48.22677" lon="5.64479">
        <ele>435.746</ele>
        <time>2019-09-24T09:03:07.001Z</time>
      </trkpt>
      <trkpt lat="48.22684" lon="5.64446">
        <ele>435.582</ele>
        <time>2019-09-24T09:03:10.001Z</time>
      </trkpt>
      <trkpt lat="48.22694" lon="5.64412">
        <ele>435.795</ele>
        <time>2019-09-24T09:03:13.001Z</time>
      </trkpt>
      <trkpt lat="48.22707" lon="5.64382">
        <ele>435.868</ele>
        <time>2019-09-24T11:03:16Z</time>
      </trkpt>
      <trkpt lat="48.22724" lon="5.64359">
        <ele>436.39</ele>
        <time>2019-09-24T09:03:19.001Z</time>
      </trkpt>
      <trkpt lat="48.22743" lon="5.64336">
        <ele>436.301</ele>
        <time>2019-09-24T09:03:22.001Z</time>
      </trkpt>
      <trkpt lat="48.2276" lon="5.64309">
        <ele>436.243</ele>
        <time>2019-09-24T09:03:25.001Z</time>
      </trkpt>
      <trkpt lat="48.22777" lon="5.64271">
        <ele>435.735</ele>
        <time>2019-09-24T09:03:28.001Z</time>
      </trkpt>
      <trkpt lat="48.22791" lon="5.64221">
        <ele>435.326</ele>
        <time>2019-09-24T09:03:31.001Z</time>
      </trkpt>
      <trkpt lat="48.22801" lon="5.64168">
        <ele>433.062</ele>
        <time>2019-09-24T09:03:34.001Z</time>
      </trkpt>
      <trkpt lat="48.2281" lon="5.64112">
        <ele>430.165</ele>
        <time>2019-09-24T09:03:37.001Z</time>
      </trkpt>
      <trkpt lat="48.2282" lon="5.64057">
        <ele>427.222</ele>
        <time>2019-09-24T09:03:40.001Z</time>
      </trkpt>
      <trkpt lat="48.22829" lon="5.64001">
        <ele>424.095</ele>
        <time>2019-09-24T09:03:43.001Z</time>
      </trkpt>
      <trkpt lat="48.22837" lon="5.63943">
        <ele>421.449</ele>
        <time>2019-09-24T09:03:46.001Z</time>
      </trkpt>
      <trkpt lat="48.22845" lon="5.63885">
        <ele>418.656</ele>
        <time>2019-09-24T09:03:49.001Z</time>
      </trkpt>
      <trkpt lat="48.22852" lon="5.63828">
        <ele>415.7</ele>
        <time>2019-09-24T09:03:52.001Z</time>
      </trkpt>
      <trkpt lat="48.22856" lon="5.63769">
        <ele>412.826</ele>
        <time>2019-09-24T09:03:55.001Z</time>
      </trkpt>
      <trkpt lat="48.22852" lon="5.63712">
        <ele>410.333</ele>
        <time>2019-09-24T09:03:58.001Z</time>
      </trkpt>
      <trkpt lat="48.22844" lon="5.63657">
        <ele>408.929</ele>
        <time>2019-09-24T09:04:01.001Z</time>
      </trkpt>
      <trkpt lat="48.22834" lon="5.63606">
        <ele>407.113</ele>
        <time>2019-09-24T09:04:04.001Z</time>
      </trkpt>
      <trkpt lat="48.22821" lon="5.63555">
        <ele>405.145</ele>
        <time>2019-09-24T09:04:07.001Z</time>
      </trkpt>
      <trkpt lat="48.22807" lon="5.63506">
        <ele>403.049</ele>
        <time>2019-09-24T09:04:10.001Z</time>
      </trkpt>
      <trkpt lat="48.22795" lon="5.63455">
        <ele>399.677</ele>
        <time>2019-09-24T09:04:13.001Z</time>
      </trkpt>
      <trkpt lat="48.22787" lon="5.63405">
        <ele>397.147</ele>
        <time>2019-09-24T11:04:16Z</time>
      </trkpt>
      <trkpt lat="48.22792" lon="5.6335">
        <ele>393.462</ele>
        <time>2019-09-24T09:04:19.001Z</time>
      </trkpt>
      <trkpt lat="48.22807" lon="5.63303">
        <ele>392.44</ele>
        <time>2019-09-24T09:04:22.001Z</time>
      </trkpt>
      <trkpt lat="48.22827" lon="5.63263">
        <ele>393.311</ele>
        <time>2019-09-24T09:04:25.001Z</time>
      </trkpt>
      <trkpt lat="48.22838" lon="5.63218">
        <ele>392.477</ele>
        <time>2019-09-24T09:04:28.001Z</time>
      </trkpt>
      <trkpt lat="48.22838" lon="5.63168">
        <ele>390.257</ele>
        <time>2019-09-24T09:04:31.001Z</time>
      </trkpt>
      <trkpt lat="48.22837" lon="5.63118">
        <ele>388.615</ele>
        <time>2019-09-24T09:04:34.001Z</time>
      </trkpt>
      <trkpt lat="48.22837" lon="5.63068">
        <ele>385.994</ele>
        <time>2019-09-24T09:04:37.001Z</time>
      </trkpt>
      <trkpt lat="48.22838" lon="5.63017">
        <ele>383.632</ele>
        <time>2019-09-24T09:04:40.001Z</time>
      </trkpt>
      <trkpt lat="48.22844" lon="5.62967">
        <ele>380.555</ele>
        <time>2019-09-24T09:04:43.001Z</time>
      </trkpt>
      <trkpt lat="48.2285" lon="5.62919">
        <ele>379.272</ele>
        <time>2019-09-24T09:04:46.001Z</time>
      </trkpt>
      <trkpt lat="48.22851" lon="5.62872">
        <ele>377.46</ele>
        <time>2019-09-24T09:04:49.001Z</time>
      </trkpt>
      <trkpt lat="48.22843" lon="5.62821">
        <ele>375.869</ele>
        <time>2019-09-24T09:04:52.001Z</time>
      </trkpt>
      <trkpt lat="48.22837" lon="5.6277">
        <ele>374.522</ele>
        <time>2019-09-24T09:04:55.001Z</time>
      </trkpt>
      <trkpt lat="48.22836" lon="5.62714">
        <ele>372.991</ele>
        <time>2019-09-24T09:04:58.001Z</time>
      </trkpt>
      <trkpt lat="48.22839" lon="5.6266">
        <ele>371.331</ele>
        <time>2019-09-24T09:05:01.001Z</time>
      </trkpt>
      <trkpt lat="48.22844" lon="5.6261">
        <ele>369.9</ele>
        <time>2019-09-24T09:05:04.001Z</time>
      </trkpt>
      <trkpt lat="48.22849" lon="5.62556">
        <ele>367.279</ele>
        <time>2019-09-24T09:05:07.001Z</time>
      </trkpt>
      <trkpt lat="48.22853" lon="5.62497">
        <ele>363.706</ele>
        <time>2019-09-24T09:05:10.001Z</time>
      </trkpt>
      <trkpt lat="48.22862" lon="5.62438">
        <ele>361.563</ele>
        <time>2019-09-24T09:05:13.001Z</time>
      </trkpt>
      <trkpt lat="48.22883" lon="5.62382">
        <ele>360.111</ele>
        <time>2019-09-24T11:05:16Z</time>
      </trkpt>
      <trkpt lat="48.22907" lon="5.62331">
        <ele>359.047</ele>
        <time>2019-09-24T09:05:19.001Z</time>
      </trkpt>
      <trkpt lat="48.22931" lon="5.62283">
        <ele>357.308</ele>
        <time>2019-09-24T09:05:22.001Z</time>
      </trkpt>
      <trkpt lat="48.22953" lon="5.62234">
        <ele>355.171</ele>
        <time>2019-09-24T09:05:25.001Z</time>
      </trkpt>
      <trkpt lat="48.22976" lon="5.62188">
        <ele>353.043</ele>
        <time>2019-09-24T09:05:28.001Z</time>
      </trkpt>
      <trkpt lat="48.23001" lon="5.62148">
        <ele>350.89</ele>
        <time>2019-09-24T09:05:31.001Z</time>
      </trkpt>
      <trkpt lat="48.23022" lon="5.62108">
        <ele>348.923</ele>
        <time>2019-09-24T09:05:34.001Z</time>
      </trkpt>
      <trkpt lat="48.23045" lon="5.62068">
        <ele>347.373</ele>
        <time>2019-09-24T09:05:37.001Z</time>
      </trkpt>
      <trkpt lat="48.23064" lon="5.62028">
        <ele>345.081</ele>
        <time>2019-09-24T09:05:40.001Z</time>
      </trkpt>
      <trkpt lat="48.23078" lon="5.61985">
        <ele>344.004</ele>
        <time>2019-09-24T09:05:43.001Z</time>
      </trkpt>
      <trkpt lat="48.2309" lon="5.61946">
        <ele>342.465</ele>
        <time>2019-09-24T09:05:46.001Z</time>
      </trkpt>
      <trkpt lat="48.23097" lon="5.61907">
        <ele>342.269</ele>
        <time>2019-09-24T09:05:49.001Z</time>
      </trkpt>
      <trkpt lat="48.23098" lon="5.61868">
        <ele>341.799</ele>
        <time>2019-09-24T09:05:52.001Z</time>
      </trkpt>
      <trkpt lat="48.23097" lon="5.61834">
        <ele>341.425</ele>
        <time>2019-09-24T09:05:55.001Z</time>
      </trkpt>
      <trkpt lat="48.23101" lon="5.61797">
        <ele>341.567</ele>
        <time>2019-09-24T09:05:58.001Z</time>
      </trkpt>
      <trkpt lat="48.23103" lon="5.61756">
        <ele>339.542</ele>
        <time>2019-09-24T09:06:01.001Z</time>
      </trkpt>
      <trkpt lat="48.23103" lon="5.61712">
        <ele>337.976</ele>
        <time>2019-09-24T09:06:04.001Z</time>
      </trkpt>
      <trkpt lat="48.23104" lon="5.61666">
        <ele>335.618</ele>
        <time>2019-09-24T09:06:07.001Z</time>
      </trkpt>
      <trkpt lat="48.23109" lon="5.61619">
        <ele>333.865</ele>
        <time>2019-09-24T09:06:10.001Z</time>
      </trkpt>
      <trkpt lat="48.23121" lon="5.61573">
        <ele>332.777</ele>
        <time>2019-09-24T09:06:13.001Z</time>
      </trkpt>
      <trkpt lat="48.23141" lon="5.6153">
        <ele>331.64</ele>
        <time>2019-09-24T11:06:16Z</time>
      </trkpt>
      <trkpt lat="48.2317" lon="5.61493">
        <ele>332.128</ele>
        <time>2019-09-24T09:06:19.001Z</time>
      </trkpt>
      <trkpt lat="48.23203" lon="5.61462">
        <ele>329.869</ele>
        <time>2019-09-24T09:06:22.001Z</time>
      </trkpt>
      <trkpt lat="48.23238" lon="5.61434">
        <ele>327.484</ele>
        <time>2019-09-24T09:06:25.001Z</time>
      </trkpt>
      <trkpt lat="48.23275" lon="5.61406">
        <ele>325.243</ele>
        <time>2019-09-24T09:06:28.001Z</time>
      </trkpt>
      <trkpt lat="48.23305" lon="5.6138">
        <ele>323.295</ele>
        <time>2019-09-24T09:06:31.001Z</time>
      </trkpt>
      <trkpt lat="48.23332" lon="5.61358">
        <ele>321.85</ele>
        <time>2019-09-24T09:06:34.001Z</time>
      </trkpt>
      <trkpt lat="48.23357" lon="5.61337">
        <ele>320.622</ele>
        <time>2019-09-24T09:06:37.001Z</time>
      </trkpt>
      <trkpt lat="48.23382" lon="5.61318">
        <ele>319.192</ele>
        <time>2019-09-24T09:06:40.001Z</time>
      </trkpt>
      <trkpt lat="48.23406" lon="5.61307">
        <ele>318.098</ele>
        <time>2019-09-24T09:06:43.001Z</time>
      </trkpt>
      <trkpt lat="48.23428" lon="5.61314">
        <ele>317.477</ele>
        <time>2019-09-24T09:06:46.001Z</time>
      </trkpt>
      <trkpt lat="48.2345" lon="5.6133">
        <ele>316.978</ele>
        <time>2019-09-24T09:06:49.001Z</time>
      </trkpt>
      <trkpt lat="48.23469" lon="5.61332">
        <ele>316.616</ele>
        <time>2019-09-24T09:06:52.001Z</time>
      </trkpt>
      <trkpt lat="48.23482" lon="5.61321">
        <ele>315.897</ele>
        <time>2019-09-24T09:06:55.001Z</time>
      </trkpt>
      <trkpt lat="48.23496" lon="5.61311">
        <ele>315.255</ele>
        <time>2019-09-24T09:06:58.001Z</time>
      </trkpt>
      <trkpt lat="48.23516" lon="5.61307">
        <ele>314.141</ele>
        <time>2019-09-24T09:07:01.001Z</time>
      </trkpt>
      <trkpt lat="48.23538" lon="5.61305">
        <ele>313.829</ele>
        <time>2019-09-24T09:07:04.001Z</time>
      </trkpt>
      <trkpt lat="48.23562" lon="5.61302">
        <ele>312.639</ele>
        <time>2019-09-24T09:07:07.001Z</time>
      </trkpt>
      <trkpt lat="48.23585" lon="5.61294">
        <ele>311.461</ele>
        <time>2019-09-24T09:07:10.001Z</time>
      </trkpt>
      <trkpt lat="48.2361" lon="5.61281">
        <ele>309.775</ele>
        <time>2019-09-24T09:07:13.001Z</time>
      </trkpt>
      <trkpt lat="48.23636" lon="5.61268">
        <ele>308.381</ele>
        <time>2019-09-24T11:07:16Z</time>
      </trkpt>
      <trkpt lat="48.23663" lon="5.61258">
        <ele>307.404</ele>
        <time>2019-09-24T09:07:19.001Z</time>
      </trkpt>
      <trkpt lat="48.23686" lon="5.61248">
        <ele>306.948</ele>
        <time>2019-09-24T09:07:22.001Z</time>
      </trkpt>
      <trkpt lat="48.23707" lon="5.61238">
        <ele>306.673</ele>
        <time>2019-09-24T09:07:25.001Z</time>
      </trkpt>
      <trkpt lat="48.23725" lon="5.61226">
        <ele>306.585</ele>
        <time>2019-09-24T09:07:28.001Z</time>
      </trkpt>
      <trkpt lat="48.23744" lon="5.61216">
        <ele>306.231</ele>
        <time>2019-09-24T09:07:31.001Z</time>
      </trkpt>
      <trkpt lat="48.2376" lon="5.61207">
        <ele>306.088</ele>
        <time>2019-09-24T09:07:34.001Z</time>
      </trkpt>
      <trkpt lat="48.23773" lon="5.61199">
        <ele>305.702</ele>
        <time>2019-09-24T09:07:37.001Z</time>
      </trkpt>
      <trkpt lat="48.23782" lon="5.61185">
        <ele>305.608</ele>
        <time>2019-09-24T09:07:40.001Z</time>
      </trkpt>
      <trkpt lat="48.23785" lon="5.61162">
        <ele>304.97</ele>
        <time>2019-09-24T09:07:43.001Z</time>
      </trkpt>
      <trkpt lat="48.23786" lon="5.61135">
        <ele>304.937</ele>
        <time>2019-09-24T09:07:46.001Z</time>
      </trkpt>
      <trkpt lat="48.23784" lon="5.6111">
        <ele>305.888</ele>
        <time>2019-09-24T09:07:49.001Z</time>
      </trkpt>
      <trkpt lat="48.23781" lon="5.61087">
        <ele>306.389</ele>
        <time>2019-09-24T09:07:52.001Z</time>
      </trkpt>
      <trkpt lat="48.23782" lon="5.61066">
        <ele>306.927</ele>
        <time>2019-09-24T09:07:55.001Z</time>
      </trkpt>
      <trkpt lat="48.23782" lon="5.61047">
        <ele>307.063</ele>
        <time>2019-09-24T09:07:58.001Z</time>
      </trkpt>
      <trkpt lat="48.23785" lon="5.61029">
        <ele>306.852</ele>
        <time>2019-09-24T09:08:01.001Z</time>
      </trkpt>
      <trkpt lat="48.23787" lon="5.61014">
        <ele>306.72</ele>
        <time>2019-09-24T09:08:04.001Z</time>
      </trkpt>
      <trkpt lat="48.23788" lon="5.60999">
        <ele>307.163</ele>
        <time>2019-09-24T09:08:07.001Z</time>
      </trkpt>
      <trkpt lat="48.23788" lon="5.60984">
        <ele>307.198</ele>
        <time>2019-09-24T09:08:10.001Z</time>
      </trkpt>
      <trkpt lat="48.23786" lon="5.60971">
        <ele>306.05</ele>
        <time>2019-09-24T09:08:13.001Z</time>
      </trkpt>
      <trkpt lat="48.23787" lon="5.60961">
        <ele>305.194</ele>
        <time>2019-09-24T11:08:16Z</time>
      </trkpt>
      <trkpt lat="48.23788" lon="5.60954">
        <ele>305.285</ele>
        <time>2019-09-24T09:08:19.001Z</time>
      </trkpt>
      <trkpt lat="48.23788" lon="5.60946">
        <ele>306.892</ele>
        <time>2019-09-24T09:08:22.001Z</time>
      </trkpt>
      <trkpt lat="48.23789" lon="5.60938">
        <ele>309.812</ele>
        <time>2019-09-24T09:08:25.001Z</time>
      </trkpt>
      <trkpt lat="48.2379" lon="5.60937">
        <ele>310.254</ele>
        <time>2019-09-24T09:08:28.001Z</time>
      </trkpt>
      <trkpt lat="48.2379" lon="5.60937">
        <ele>310.254</ele>
        <time>2019-09-24T09:08:34.001Z</time>
      </trkpt>
      <trkpt lat="48.23789" lon="5.60936">
        <ele>310.213</ele>
        <time>2019-09-24T09:08:37.001Z</time>
      </trkpt>
      <trkpt lat="48.2379" lon="5.60937">
        <ele>310.254</ele>
        <time>2019-09-24T09:08:40.001Z</time>
      </trkpt>
      <trkpt lat="48.23787" lon="5.60937">
        <ele>310.17</ele>
        <time>2019-09-24T09:08:43.001Z</time>
      </trkpt>
      <trkpt lat="48.23787" lon="5.60937">
        <ele>310.17</ele>
        <time>2019-09-24T09:08:46.001Z</time>
      </trkpt>
      <trkpt lat="48.23788" lon="5.60937">
        <ele>310.173</ele>
        <time>2019-09-24T09:08:49.001Z</time>
      </trkpt>
      <trkpt lat="48.23786" lon="5.60937">
        <ele>310.528</ele>
        <time>2019-09-24T09:08:55.001Z</time>
      </trkpt>
      <trkpt lat="48.23786" lon="5.60937">
        <ele>310.528</ele>
        <time>2019-09-24T09:08:58.001Z</time>
      </trkpt>
      <trkpt lat="48.23786" lon="5.60937">
        <ele>310.528</ele>
        <time>2019-09-24T09:10:10.001Z</time>
      </trkpt>
      <trkpt lat="48.23787" lon="5.60938">
        <ele>309.315</ele>
        <time>2019-09-24T09:10:13.001Z</time>
      </trkpt>
      <trkpt lat="48.23787" lon="5.60939">
        <ele>309.401</ele>
        <time>2019-09-24T11:10:16Z</time>
      </trkpt>
      <trkpt lat="48.23787" lon="5.6094">
        <ele>308.997</ele>
        <time>2019-09-24T09:10:19.001Z</time>
      </trkpt>
      <trkpt lat="48.23787" lon="5.60943">
        <ele>308.418</ele>
        <time>2019-09-24T09:10:22.001Z</time>
      </trkpt>
      <trkpt lat="48.23786" lon="5.60944">
        <ele>308.342</ele>
        <time>2019-09-24T09:10:25.001Z</time>
      </trkpt>
      <trkpt lat="48.23786" lon="5.60945">
        <ele>308.394</ele>
        <time>2019-09-24T09:10:28.001Z</time>
      </trkpt>
      <trkpt lat="48.23788" lon="5.60956">
        <ele>308.461</ele>
        <time>2019-09-24T09:10:34.001Z</time>
      </trkpt>
      <trkpt lat="48.23787" lon="5.60968">
        <ele>308.4</ele>
        <time>2019-09-24T09:10:37.001Z</time>
      </trkpt>
      <trkpt lat="48.23787" lon="5.60985">
        <ele>308.538</ele>
        <time>2019-09-24T09:10:40.001Z</time>
      </trkpt>
      <trkpt lat="48.23785" lon="5.61006">
        <ele>308.833</ele>
        <time>2019-09-24T09:10:43.001Z</time>
      </trkpt>
      <trkpt lat="48.23784" lon="5.61031">
        <ele>309.426</ele>
        <time>2019-09-24T09:10:46.001Z</time>
      </trkpt>
      <trkpt lat="48.23785" lon="5.61058">
        <ele>309.798</ele>
        <time>2019-09-24T09:10:49.001Z</time>
      </trkpt>
      <trkpt lat="48.23785" lon="5.61084">
        <ele>310.286</ele>
        <time>2019-09-24T09:10:52.001Z</time>
      </trkpt>
      <trkpt lat="48.23783" lon="5.61108">
        <ele>310.755</ele>
        <time>2019-09-24T09:10:55.001Z</time>
      </trkpt>
      <trkpt lat="48.23783" lon="5.61133">
        <ele>311.132</ele>
        <time>2019-09-24T09:10:58.001Z</time>
      </trkpt>
      <trkpt lat="48.23783" lon="5.61158">
        <ele>310.823</ele>
        <time>2019-09-24T09:11:01.001Z</time>
      </trkpt>
      <trkpt lat="48.23782" lon="5.61179">
        <ele>311.565</ele>
        <time>2019-09-24T09:11:04.001Z</time>
      </trkpt>
      <trkpt lat="48.23778" lon="5.61192">
        <ele>312.594</ele>
        <time>2019-09-24T09:11:07.001Z</time>
      </trkpt>
      <trkpt lat="48.2377" lon="5.61199">
        <ele>312.638</ele>
        <time>2019-09-24T09:11:10.001Z</time>
      </trkpt>
      <trkpt lat="48.23758" lon="5.61205">
        <ele>311.579</ele>
        <time>2019-09-24T09:11:13.001Z</time>
      </trkpt>
      <trkpt lat="48.23746" lon="5.61211">
        <ele>310.644</ele>
        <time>2019-09-24T11:11:16Z</time>
      </trkpt>
      <trkpt lat="48.23735" lon="5.61219">
        <ele>310.188</ele>
        <time>2019-09-24T09:11:19.001Z</time>
      </trkpt>
      <trkpt lat="48.23725" lon="5.61225">
        <ele>309.214</ele>
        <time>2019-09-24T09:11:22.001Z</time>
      </trkpt>
      <trkpt lat="48.23714" lon="5.61232">
        <ele>307.371</ele>
        <time>2019-09-24T09:11:25.001Z</time>
      </trkpt>
      <trkpt lat="48.23703" lon="5.61237">
        <ele>306.389</ele>
        <time>2019-09-24T09:11:28.001Z</time>
      </trkpt>
      <trkpt lat="48.23692" lon="5.61241">
        <ele>306.105</ele>
        <time>2019-09-24T09:11:31.001Z</time>
      </trkpt>
      <trkpt lat="48.23681" lon="5.61245">
        <ele>305.819</ele>
        <time>2019-09-24T09:11:34.001Z</time>
      </trkpt>
      <trkpt lat="48.23672" lon="5.61249">
        <ele>305.679</ele>
        <time>2019-09-24T09:11:37.001Z</time>
      </trkpt>
      <trkpt lat="48.23665" lon="5.61251">
        <ele>305.335</ele>
        <time>2019-09-24T09:11:40.001Z</time>
      </trkpt>
      <trkpt lat="48.23659" lon="5.61252">
        <ele>305.07</ele>
        <time>2019-09-24T09:11:43.001Z</time>
      </trkpt>
      <trkpt lat="48.23655" lon="5.6125">
        <ele>305.321</ele>
        <time>2019-09-24T09:11:46.001Z</time>
      </trkpt>
      <trkpt lat="48.23653" lon="5.6125">
        <ele>306.091</ele>
        <time>2019-09-24T09:11:49.001Z</time>
      </trkpt>
      <trkpt lat="48.23653" lon="5.6125">
        <ele>306.091</ele>
        <time>2019-09-24T09:12:40.001Z</time>
      </trkpt>
      <trkpt lat="48.23653" lon="5.6125">
        <ele>306.106</ele>
        <time>2019-09-24T09:12:43.001Z</time>
      </trkpt>
      <trkpt lat="48.23649" lon="5.61254">
        <ele>307.397</ele>
        <time>2019-09-24T09:12:49.001Z</time>
      </trkpt>
      <trkpt lat="48.23648" lon="5.61255">
        <ele>307.135</ele>
        <time>2019-09-24T09:12:52.001Z</time>
      </trkpt>
      <trkpt lat="48.23648" lon="5.61255">
        <ele>307.135</ele>
        <time>2019-09-24T09:13:07.001Z</time>
      </trkpt>
      <trkpt lat="48.23646" lon="5.61257">
        <ele>306.904</ele>
        <time>2019-09-24T09:13:10.001Z</time>
      </trkpt>
      <trkpt lat="48.23642" lon="5.61261">
        <ele>306.736</ele>
        <time>2019-09-24T09:13:13.001Z</time>
      </trkpt>
      <trkpt lat="48.23635" lon="5.61264">
        <ele>306.892</ele>
        <time>2019-09-24T11:13:16Z</time>
      </trkpt>
      <trkpt lat="48.23628" lon="5.6127">
        <ele>307.106</ele>
        <time>2019-09-24T09:13:19.001Z</time>
      </trkpt>
      <trkpt lat="48.23622" lon="5.61273">
        <ele>307.558</ele>
        <time>2019-09-24T09:13:22.001Z</time>
      </trkpt>
      <trkpt lat="48.23615" lon="5.61277">
        <ele>307.393</ele>
        <time>2019-09-24T09:13:25.001Z</time>
      </trkpt>
      <trkpt lat="48.23608" lon="5.61281">
        <ele>307.617</ele>
        <time>2019-09-24T09:13:28.001Z</time>
      </trkpt>
      <trkpt lat="48.236" lon="5.61284">
        <ele>308.396</ele>
        <time>2019-09-24T09:13:31.001Z</time>
      </trkpt>
      <trkpt lat="48.23592" lon="5.61288">
        <ele>308.712</ele>
        <time>2019-09-24T09:13:34.001Z</time>
      </trkpt>
      <trkpt lat="48.23586" lon="5.61289">
        <ele>309.228</ele>
        <time>2019-09-24T09:13:37.001Z</time>
      </trkpt>
      <trkpt lat="48.2358" lon="5.61291">
        <ele>310.414</ele>
        <time>2019-09-24T09:13:40.001Z</time>
      </trkpt>
      <trkpt lat="48.23573" lon="5.61294">
        <ele>311.068</ele>
        <time>2019-09-24T09:13:43.001Z</time>
      </trkpt>
      <trkpt lat="48.23566" lon="5.61296">
        <ele>311.771</ele>
        <time>2019-09-24T09:13:46.001Z</time>
      </trkpt>
      <trkpt lat="48.23559" lon="5.61298">
        <ele>312.513</ele>
        <time>2019-09-24T09:13:49.001Z</time>
      </trkpt>
      <trkpt lat="48.23551" lon="5.61299">
        <ele>313.366</ele>
        <time>2019-09-24T09:13:52.001Z</time>
      </trkpt>
      <trkpt lat="48.23543" lon="5.613">
        <ele>313.992</ele>
        <time>2019-09-24T09:13:55.001Z</time>
      </trkpt>
      <trkpt lat="48.23536" lon="5.613">
        <ele>313.755</ele>
        <time>2019-09-24T09:13:58.001Z</time>
      </trkpt>
      <trkpt lat="48.23529" lon="5.61301">
        <ele>313.648</ele>
        <time>2019-09-24T09:14:01.001Z</time>
      </trkpt>
      <trkpt lat="48.23523" lon="5.61303">
        <ele>314.248</ele>
        <time>2019-09-24T09:14:04.001Z</time>
      </trkpt>
      <trkpt lat="48.23516" lon="5.61304">
        <ele>314.814</ele>
        <time>2019-09-24T09:14:07.001Z</time>
      </trkpt>
      <trkpt lat="48.23508" lon="5.61305">
        <ele>316.278</ele>
        <time>2019-09-24T09:14:10.001Z</time>
      </trkpt>
      <trkpt lat="48.23502" lon="5.61307">
        <ele>315.105</ele>
        <time>2019-09-24T09:14:13.001Z</time>
      </trkpt>
      <trkpt lat="48.23497" lon="5.61311">
        <ele>314.731</ele>
        <time>2019-09-24T11:14:16Z</time>
      </trkpt>
      <trkpt lat="48.23491" lon="5.61319">
        <ele>314.176</ele>
        <time>2019-09-24T09:14:22.001Z</time>
      </trkpt>
      <trkpt lat="48.23485" lon="5.61322">
        <ele>314.638</ele>
        <time>2019-09-24T09:14:25.001Z</time>
      </trkpt>
      <trkpt lat="48.23477" lon="5.61324">
        <ele>314.893</ele>
        <time>2019-09-24T09:14:28.001Z</time>
      </trkpt>
      <trkpt lat="48.23468" lon="5.61329">
        <ele>315.56</ele>
        <time>2019-09-24T09:14:31.001Z</time>
      </trkpt>
      <trkpt lat="48.23458" lon="5.61328">
        <ele>316.036</ele>
        <time>2019-09-24T09:14:34.001Z</time>
      </trkpt>
      <trkpt lat="48.2345" lon="5.61324">
        <ele>316.693</ele>
        <time>2019-09-24T09:14:37.001Z</time>
      </trkpt>
      <trkpt lat="48.23443" lon="5.6132">
        <ele>317.612</ele>
        <time>2019-09-24T09:14:40.001Z</time>
      </trkpt>
      <trkpt lat="48.23436" lon="5.61316">
        <ele>317.896</ele>
        <time>2019-09-24T09:14:43.001Z</time>
      </trkpt>
      <trkpt lat="48.2343" lon="5.61312">
        <ele>317.773</ele>
        <time>2019-09-24T09:14:46.001Z</time>
      </trkpt>
      <trkpt lat="48.23423" lon="5.61307">
        <ele>317.721</ele>
        <time>2019-09-24T09:14:49.001Z</time>
      </trkpt>
      <trkpt lat="48.23418" lon="5.61301">
        <ele>317.534</ele>
        <time>2019-09-24T09:14:52.001Z</time>
      </trkpt>
      <trkpt lat="48.23415" lon="5.61294">
        <ele>316.828</ele>
        <time>2019-09-24T09:14:55.001Z</time>
      </trkpt>
      <trkpt lat="48.23411" lon="5.61284">
        <ele>316.172</ele>
        <time>2019-09-24T09:14:58.001Z</time>
      </trkpt>
      <trkpt lat="48.23406" lon="5.61271">
        <ele>315.413</ele>
        <time>2019-09-24T09:15:01.001Z</time>
      </trkpt>
      <trkpt lat="48.23395" lon="5.61257">
        <ele>314.299</ele>
        <time>2019-09-24T09:15:04.001Z</time>
      </trkpt>
      <trkpt lat="48.23383" lon="5.61244">
        <ele>313.89</ele>
        <time>2019-09-24T09:15:07.001Z</time>
      </trkpt>
      <trkpt lat="48.23371" lon="5.61232">
        <ele>313.532</ele>
        <time>2019-09-24T09:15:10.001Z</time>
      </trkpt>
      <trkpt lat="48.23358" lon="5.61222">
        <ele>312.453</ele>
        <time>2019-09-24T09:15:13.001Z</time>
      </trkpt>
      <trkpt lat="48.23346" lon="5.61213">
        <ele>312.269</ele>
        <time>2019-09-24T11:15:16Z</time>
      </trkpt>
      <trkpt lat="48.23334" lon="5.61205">
        <ele>311.833</ele>
        <time>2019-09-24T09:15:19.001Z</time>
      </trkpt>
      <trkpt lat="48.23323" lon="5.61198">
        <ele>311.575</ele>
        <time>2019-09-24T09:15:22.001Z</time>
      </trkpt>
      <trkpt lat="48.23312" lon="5.61191">
        <ele>310.887</ele>
        <time>2019-09-24T09:15:25.001Z</time>
      </trkpt>
      <trkpt lat="48.233" lon="5.61183">
        <ele>310.902</ele>
        <time>2019-09-24T09:15:28.001Z</time>
      </trkpt>
      <trkpt lat="48.2329" lon="5.61176">
        <ele>310.855</ele>
        <time>2019-09-24T09:15:31.001Z</time>
      </trkpt>
      <trkpt lat="48.2328" lon="5.61169">
        <ele>311.009</ele>
        <time>2019-09-24T09:15:34.001Z</time>
      </trkpt>
      <trkpt lat="48.23271" lon="5.61163">
        <ele>310.593</ele>
        <time>2019-09-24T09:15:37.001Z</time>
      </trkpt>
      <trkpt lat="48.23262" lon="5.61157">
        <ele>310.514</ele>
        <time>2019-09-24T09:15:40.001Z</time>
      </trkpt>
      <trkpt lat="48.23253" lon="5.61151">
        <ele>310.554</ele>
        <time>2019-09-24T09:15:43.001Z</time>
      </trkpt>
      <trkpt lat="48.23243" lon="5.61145">
        <ele>310.751</ele>
        <time>2019-09-24T09:15:46.001Z</time>
      </trkpt>
      <trkpt lat="48.23233" lon="5.61139">
        <ele>311.064</ele>
        <time>2019-09-24T09:15:49.001Z</time>
      </trkpt>
      <trkpt lat="48.23223" lon="5.61134">
        <ele>310.943</ele>
        <time>2019-09-24T09:15:52.001Z</time>
      </trkpt>
      <trkpt lat="48.23212" lon="5.61127">
        <ele>311.345</ele>
        <time>2019-09-24T09:15:55.001Z</time>
      </trkpt>
      <trkpt lat="48.23202" lon="5.6112">
        <ele>311.805</ele>
        <time>2019-09-24T09:15:58.001Z</time>
      </trkpt>
      <trkpt lat="48.23193" lon="5.61113">
        <ele>312.39</ele>
        <time>2019-09-24T09:16:01.001Z</time>
      </trkpt>
      <trkpt lat="48.23184" lon="5.61106">
        <ele>312.817</ele>
        <time>2019-09-24T09:16:04.001Z</time>
      </trkpt>
      <trkpt lat="48.23173" lon="5.61099">
        <ele>313.533</ele>
        <time>2019-09-24T09:16:07.001Z</time>
      </trkpt>
      <trkpt lat="48.23162" lon="5.61093">
        <ele>314.067</ele>
        <time>2019-09-24T09:16:10.001Z</time>
      </trkpt>
      <trkpt lat="48.23151" lon="5.61086">
        <ele>314.732</ele>
        <time>2019-09-24T09:16:13.001Z</time>
      </trkpt>
      <trkpt lat="48.23139" lon="5.6108">
        <ele>314.3</ele>
        <time>2019-09-24T11:16:16Z</time>
      </trkpt>
      <trkpt lat="48.23129" lon="5.61076">
        <ele>313.74</ele>
        <time>2019-09-24T09:16:19.001Z</time>
      </trkpt>
      <trkpt lat="48.23119" lon="5.61071">
        <ele>313.2</ele>
        <time>2019-09-24T09:16:22.001Z</time>
      </trkpt>
      <trkpt lat="48.2311" lon="5.61066">
        <ele>313.031</ele>
        <time>2019-09-24T09:16:25.001Z</time>
      </trkpt>
      <trkpt lat="48.23101" lon="5.61061">
        <ele>312.693</ele>
        <time>2019-09-24T09:16:28.001Z</time>
      </trkpt>
      <trkpt lat="48.23094" lon="5.61057">
        <ele>312.874</ele>
        <time>2019-09-24T09:16:31.001Z</time>
      </trkpt>
      <trkpt lat="48.23087" lon="5.61054">
        <ele>313.204</ele>
        <time>2019-09-24T09:16:34.001Z</time>
      </trkpt>
      <trkpt lat="48.23079" lon="5.6105">
        <ele>313.329</ele>
        <time>2019-09-24T09:16:37.001Z</time>
      </trkpt>
      <trkpt lat="48.23072" lon="5.61046">
        <ele>313.619</ele>
        <time>2019-09-24T09:16:40.001Z</time>
      </trkpt>
      <trkpt lat="48.23065" lon="5.61041">
        <ele>314.263</ele>
        <time>2019-09-24T09:16:43.001Z</time>
      </trkpt>
      <trkpt lat="48.23058" lon="5.61036">
        <ele>314.403</ele>
        <time>2019-09-24T09:16:46.001Z</time>
      </trkpt>
      <trkpt lat="48.23049" lon="5.61032">
        <ele>314.959</ele>
        <time>2019-09-24T09:16:49.001Z</time>
      </trkpt>
      <trkpt lat="48.2304" lon="5.61027">
        <ele>315.602</ele>
        <time>2019-09-24T09:16:52.001Z</time>
      </trkpt>
      <trkpt lat="48.2303" lon="5.61023">
        <ele>315.926</ele>
        <time>2019-09-24T09:16:55.001Z</time>
      </trkpt>
      <trkpt lat="48.2302" lon="5.61019">
        <ele>316.357</ele>
        <time>2019-09-24T09:16:58.001Z</time>
      </trkpt>
      <trkpt lat="48.23011" lon="5.61015">
        <ele>316.502</ele>
        <time>2019-09-24T09:17:01.001Z</time>
      </trkpt>
      <trkpt lat="48.23" lon="5.6101">
        <ele>317.057</ele>
        <time>2019-09-24T09:17:04.001Z</time>
      </trkpt>
      <trkpt lat="48.22989" lon="5.61005">
        <ele>317.954</ele>
        <time>2019-09-24T09:17:07.001Z</time>
      </trkpt>
      <trkpt lat="48.22978" lon="5.61003">
        <ele>318.492</ele>
        <time>2019-09-24T09:17:10.001Z</time>
      </trkpt>
      <trkpt lat="48.22968" lon="5.61">
        <ele>318.301</ele>
        <time>2019-09-24T09:17:13.001Z</time>
      </trkpt>
      <trkpt lat="48.22957" lon="5.60996">
        <ele>318.108</ele>
        <time>2019-09-24T11:17:16Z</time>
      </trkpt>
      <trkpt lat="48.22946" lon="5.60992">
        <ele>317.82</ele>
        <time>2019-09-24T09:17:19.001Z</time>
      </trkpt>
      <trkpt lat="48.22932" lon="5.60989">
        <ele>316.959</ele>
        <time>2019-09-24T09:17:22.001Z</time>
      </trkpt>
      <trkpt lat="48.22918" lon="5.60987">
        <ele>316.5</ele>
        <time>2019-09-24T09:17:25.001Z</time>
      </trkpt>
      <trkpt lat="48.22902" lon="5.60983">
        <ele>315.961</ele>
        <time>2019-09-24T09:17:28.001Z</time>
      </trkpt>
      <trkpt lat="48.22885" lon="5.60979">
        <ele>315.262</ele>
        <time>2019-09-24T09:17:31.001Z</time>
      </trkpt>
      <trkpt lat="48.22871" lon="5.60977">
        <ele>314.926</ele>
        <time>2019-09-24T09:17:34.001Z</time>
      </trkpt>
      <trkpt lat="48.22858" lon="5.60976">
        <ele>315.113</ele>
        <time>2019-09-24T09:17:37.001Z</time>
      </trkpt>
      <trkpt lat="48.22847" lon="5.60976">
        <ele>314.622</ele>
        <time>2019-09-24T09:17:40.001Z</time>
      </trkpt>
      <trkpt lat="48.22836" lon="5.60976">
        <ele>314.639</ele>
        <time>2019-09-24T09:17:43.001Z</time>
      </trkpt>
      <trkpt lat="48.22824" lon="5.60975">
        <ele>314.51</ele>
        <time>2019-09-24T09:17:46.001Z</time>
      </trkpt>
      <trkpt lat="48.22815" lon="5.60976">
        <ele>313.924</ele>
        <time>2019-09-24T09:17:49.001Z</time>
      </trkpt>
      <trkpt lat="48.22806" lon="5.60977">
        <ele>313.937</ele>
        <time>2019-09-24T09:17:52.001Z</time>
      </trkpt>
      <trkpt lat="48.22798" lon="5.60978">
        <ele>313.923</ele>
        <time>2019-09-24T09:17:55.001Z</time>
      </trkpt>
      <trkpt lat="48.22789" lon="5.60979">
        <ele>313.912</ele>
        <time>2019-09-24T09:17:58.001Z</time>
      </trkpt>
      <trkpt lat="48.2278" lon="5.6098">
        <ele>314.072</ele>
        <time>2019-09-24T09:18:01.001Z</time>
      </trkpt>
      <trkpt lat="48.22771" lon="5.60981">
        <ele>314.242</ele>
        <time>2019-09-24T09:18:04.001Z</time>
      </trkpt>
      <trkpt lat="48.22763" lon="5.60982">
        <ele>314.378</ele>
        <time>2019-09-24T09:18:07.001Z</time>
      </trkpt>
      <trkpt lat="48.22755" lon="5.60984">
        <ele>314.553</ele>
        <time>2019-09-24T09:18:10.001Z</time>
      </trkpt>
      <trkpt lat="48.22746" lon="5.60986">
        <ele>314.752</ele>
        <time>2019-09-24T09:18:13.001Z</time>
      </trkpt>
      <trkpt lat="48.22737" lon="5.60988">
        <ele>314.681</ele>
        <time>2019-09-24T11:18:16Z</time>
      </trkpt>
      <trkpt lat="48.22727" lon="5.6099">
        <ele>315.012</ele>
        <time>2019-09-24T09:18:19.001Z</time>
      </trkpt>
      <trkpt lat="48.22718" lon="5.60992">
        <ele>315.348</ele>
        <time>2019-09-24T09:18:22.001Z</time>
      </trkpt>
      <trkpt lat="48.22709" lon="5.60995">
        <ele>315.539</ele>
        <time>2019-09-24T09:18:25.001Z</time>
      </trkpt>
      <trkpt lat="48.22701" lon="5.60998">
        <ele>315.591</ele>
        <time>2019-09-24T09:18:28.001Z</time>
      </trkpt>
      <trkpt lat="48.2269" lon="5.61">
        <ele>315.9</ele>
        <time>2019-09-24T09:18:31.001Z</time>
      </trkpt>
      <trkpt lat="48.2268" lon="5.61002">
        <ele>316.004</ele>
        <time>2019-09-24T09:18:34.001Z</time>
      </trkpt>
      <trkpt lat="48.22669" lon="5.61004">
        <ele>316.416</ele>
        <time>2019-09-24T09:18:37.001Z</time>
      </trkpt>
      <trkpt lat="48.22658" lon="5.61006">
        <ele>316.665</ele>
        <time>2019-09-24T09:18:40.001Z</time>
      </trkpt>
      <trkpt lat="48.22647" lon="5.61009">
        <ele>316.839</ele>
        <time>2019-09-24T09:18:43.001Z</time>
      </trkpt>
      <trkpt lat="48.22636" lon="5.61012">
        <ele>316.731</ele>
        <time>2019-09-24T09:18:46.001Z</time>
      </trkpt>
      <trkpt lat="48.22627" lon="5.61015">
        <ele>316.613</ele>
        <time>2019-09-24T09:18:49.001Z</time>
      </trkpt>
      <trkpt lat="48.22616" lon="5.61018">
        <ele>316.636</ele>
        <time>2019-09-24T09:18:52.001Z</time>
      </trkpt>
      <trkpt lat="48.22604" lon="5.61019">
        <ele>316.627</ele>
        <time>2019-09-24T09:18:55.001Z</time>
      </trkpt>
      <trkpt lat="48.22591" lon="5.61021">
        <ele>316.398</ele>
        <time>2019-09-24T09:18:58.001Z</time>
      </trkpt>
      <trkpt lat="48.22578" lon="5.61024">
        <ele>316.06</ele>
        <time>2019-09-24T09:19:01.001Z</time>
      </trkpt>
      <trkpt lat="48.22566" lon="5.61026">
        <ele>315.826</ele>
        <time>2019-09-24T09:19:04.001Z</time>
      </trkpt>
      <trkpt lat="48.22554" lon="5.61027">
        <ele>315.359</ele>
        <time>2019-09-24T09:19:07.001Z</time>
      </trkpt>
      <trkpt lat="48.22543" lon="5.61028">
        <ele>314.989</ele>
        <time>2019-09-24T09:19:10.001Z</time>
      </trkpt>
      <trkpt lat="48.22532" lon="5.61028">
        <ele>315.428</ele>
        <time>2019-09-24T09:19:13.001Z</time>
      </trkpt>
      <trkpt lat="48.22521" lon="5.61029">
        <ele>315.552</ele>
        <time>2019-09-24T11:19:16Z</time>
      </trkpt>
      <trkpt lat="48.2251" lon="5.61029">
        <ele>315.46</ele>
        <time>2019-09-24T09:19:19.001Z</time>
      </trkpt>
      <trkpt lat="48.22499" lon="5.61029">
        <ele>315.415</ele>
        <time>2019-09-24T09:19:22.001Z</time>
      </trkpt>
      <trkpt lat="48.22487" lon="5.61029">
        <ele>315.237</ele>
        <time>2019-09-24T09:19:25.001Z</time>
      </trkpt>
      <trkpt lat="48.22476" lon="5.61028">
        <ele>315.511</ele>
        <time>2019-09-24T09:19:28.001Z</time>
      </trkpt>
      <trkpt lat="48.22465" lon="5.61027">
        <ele>314.862</ele>
        <time>2019-09-24T09:19:31.001Z</time>
      </trkpt>
      <trkpt lat="48.22454" lon="5.61025">
        <ele>314.928</ele>
        <time>2019-09-24T09:19:34.001Z</time>
      </trkpt>
      <trkpt lat="48.22442" lon="5.61023">
        <ele>315.119</ele>
        <time>2019-09-24T09:19:37.001Z</time>
      </trkpt>
      <trkpt lat="48.2243" lon="5.6102">
        <ele>315.689</ele>
        <time>2019-09-24T09:19:40.001Z</time>
      </trkpt>
      <trkpt lat="48.22419" lon="5.61019">
        <ele>315.556</ele>
        <time>2019-09-24T09:19:43.001Z</time>
      </trkpt>
      <trkpt lat="48.22408" lon="5.61017">
        <ele>314.967</ele>
        <time>2019-09-24T09:19:46.001Z</time>
      </trkpt>
      <trkpt lat="48.22396" lon="5.61014">
        <ele>314.188</ele>
        <time>2019-09-24T09:19:49.001Z</time>
      </trkpt>
      <trkpt lat="48.22384" lon="5.6101">
        <ele>313.859</ele>
        <time>2019-09-24T09:19:52.001Z</time>
      </trkpt>
      <trkpt lat="48.22373" lon="5.61007">
        <ele>313.964</ele>
        <time>2019-09-24T09:19:55.001Z</time>
      </trkpt>
      <trkpt lat="48.22362" lon="5.61003">
        <ele>313.802</ele>
        <time>2019-09-24T09:19:58.001Z</time>
      </trkpt>
      <trkpt lat="48.2235" lon="5.60999">
        <ele>313.537</ele>
        <time>2019-09-24T09:20:01.001Z</time>
      </trkpt>
      <trkpt lat="48.22335" lon="5.60992">
        <ele>314.108</ele>
        <time>2019-09-24T09:20:04.001Z</time>
      </trkpt>
      <trkpt lat="48.22322" lon="5.60985">
        <ele>314.562</ele>
        <time>2019-09-24T09:20:07.001Z</time>
      </trkpt>
      <trkpt lat="48.2231" lon="5.60977">
        <ele>314.989</ele>
        <time>2019-09-24T09:20:10.001Z</time>
      </trkpt>
      <trkpt lat="48.22298" lon="5.60971">
        <ele>315.042</ele>
        <time>2019-09-24T09:20:13.001Z</time>
      </trkpt>
      <trkpt lat="48.22285" lon="5.60963">
        <ele>315.076</ele>
        <time>2019-09-24T11:20:16Z</time>
      </trkpt>
      <trkpt lat="48.22273" lon="5.60955">
        <ele>315.078</ele>
        <time>2019-09-24T09:20:19.001Z</time>
      </trkpt>
      <trkpt lat="48.22263" lon="5.60947">
        <ele>315.487</ele>
        <time>2019-09-24T09:20:22.001Z</time>
      </trkpt>
      <trkpt lat="48.22253" lon="5.60939">
        <ele>315.541</ele>
        <time>2019-09-24T09:20:25.001Z</time>
      </trkpt>
      <trkpt lat="48.22243" lon="5.60932">
        <ele>315.766</ele>
        <time>2019-09-24T09:20:28.001Z</time>
      </trkpt>
      <trkpt lat="48.22232" lon="5.60923">
        <ele>315.608</ele>
        <time>2019-09-24T09:20:31.001Z</time>
      </trkpt>
      <trkpt lat="48.22222" lon="5.60916">
        <ele>315.532</ele>
        <time>2019-09-24T09:20:34.001Z</time>
      </trkpt>
      <trkpt lat="48.22211" lon="5.60908">
        <ele>315.787</ele>
        <time>2019-09-24T09:20:37.001Z</time>
      </trkpt>
      <trkpt lat="48.222" lon="5.60899">
        <ele>315.836</ele>
        <time>2019-09-24T09:20:40.001Z</time>
      </trkpt>
      <trkpt lat="48.2219" lon="5.60891">
        <ele>315.242</ele>
        <time>2019-09-24T09:20:43.001Z</time>
      </trkpt>
      <trkpt lat="48.22181" lon="5.60882">
        <ele>314.78</ele>
        <time>2019-09-24T09:20:46.001Z</time>
      </trkpt>
      <trkpt lat="48.2217" lon="5.60871">
        <ele>314.173</ele>
        <time>2019-09-24T09:20:49.001Z</time>
      </trkpt>
      <trkpt lat="48.22159" lon="5.6086">
        <ele>314.442</ele>
        <time>2019-09-24T09:20:52.001Z</time>
      </trkpt>
      <trkpt lat="48.22148" lon="5.60848">
        <ele>313.866</ele>
        <time>2019-09-24T09:20:55.001Z</time>
      </trkpt>
      <trkpt lat="48.22138" lon="5.60836">
        <ele>313.667</ele>
        <time>2019-09-24T09:20:58.001Z</time>
      </trkpt>
      <trkpt lat="48.22127" lon="5.60825">
        <ele>313.716</ele>
        <time>2019-09-24T09:21:01.001Z</time>
      </trkpt>
      <trkpt lat="48.22118" lon="5.60813">
        <ele>314.125</ele>
        <time>2019-09-24T09:21:04.001Z</time>
      </trkpt>
      <trkpt lat="48.22107" lon="5.608">
        <ele>314.666</ele>
        <time>2019-09-24T09:21:07.001Z</time>
      </trkpt>
      <trkpt lat="48.22096" lon="5.60787">
        <ele>315.883</ele>
        <time>2019-09-24T09:21:10.001Z</time>
      </trkpt>
      <trkpt lat="48.22087" lon="5.60776">
        <ele>316.07</ele>
        <time>2019-09-24T09:21:13.001Z</time>
      </trkpt>
      <trkpt lat="48.2208" lon="5.60765">
        <ele>316.001</ele>
        <time>2019-09-24T11:21:16Z</time>
      </trkpt>
      <trkpt lat="48.22071" lon="5.60752">
        <ele>315.239</ele>
        <time>2019-09-24T09:21:19.001Z</time>
      </trkpt>
      <trkpt lat="48.22062" lon="5.60739">
        <ele>314.139</ele>
        <time>2019-09-24T09:21:22.001Z</time>
      </trkpt>
      <trkpt lat="48.22056" lon="5.60726">
        <ele>313.032</ele>
        <time>2019-09-24T09:21:25.001Z</time>
      </trkpt>
      <trkpt lat="48.2205" lon="5.60713">
        <ele>312.523</ele>
        <time>2019-09-24T09:21:28.001Z</time>
      </trkpt>
      <trkpt lat="48.22044" lon="5.60702">
        <ele>312.174</ele>
        <time>2019-09-24T09:21:31.001Z</time>
      </trkpt>
      <trkpt lat="48.22039" lon="5.60693">
        <ele>312.275</ele>
        <time>2019-09-24T09:21:34.001Z</time>
      </trkpt>
      <trkpt lat="48.22036" lon="5.60685">
        <ele>312.426</ele>
        <time>2019-09-24T09:21:37.001Z</time>
      </trkpt>
      <trkpt lat="48.22032" lon="5.60678">
        <ele>312.648</ele>
        <time>2019-09-24T09:21:40.001Z</time>
      </trkpt>
      <trkpt lat="48.22029" lon="5.6067">
        <ele>313.17</ele>
        <time>2019-09-24T09:21:43.001Z</time>
      </trkpt>
      <trkpt lat="48.22027" lon="5.60664">
        <ele>313.647</ele>
        <time>2019-09-24T09:21:46.001Z</time>
      </trkpt>
      <trkpt lat="48.22025" lon="5.60657">
        <ele>314.607</ele>
        <time>2019-09-24T09:21:49.001Z</time>
      </trkpt>
      <trkpt lat="48.22021" lon="5.60649">
        <ele>315.246</ele>
        <time>2019-09-24T09:21:52.001Z</time>
      </trkpt>
      <trkpt lat="48.22018" lon="5.60642">
        <ele>315.871</ele>
        <time>2019-09-24T09:21:55.001Z</time>
      </trkpt>
      <trkpt lat="48.22014" lon="5.60634">
        <ele>316.923</ele>
        <time>2019-09-24T09:21:58.001Z</time>
      </trkpt>
      <trkpt lat="48.22011" lon="5.60626">
        <ele>317.854</ele>
        <time>2019-09-24T09:22:01.001Z</time>
      </trkpt>
      <trkpt lat="48.22008" lon="5.60617">
        <ele>318.549</ele>
        <time>2019-09-24T09:22:04.001Z</time>
      </trkpt>
      <trkpt lat="48.22003" lon="5.60609">
        <ele>319.125</ele>
        <time>2019-09-24T09:22:07.001Z</time>
      </trkpt>
      <trkpt lat="48.21999" lon="5.60601">
        <ele>319.606</ele>
        <time>2019-09-24T09:22:10.001Z</time>
      </trkpt>
      <trkpt lat="48.21996" lon="5.60592">
        <ele>320.309</ele>
        <time>2019-09-24T09:22:13.001Z</time>
      </trkpt>
      <trkpt lat="48.21992" lon="5.60584">
        <ele>320.306</ele>
        <time>2019-09-24T11:22:16Z</time>
      </trkpt>
      <trkpt lat="48.21988" lon="5.60576">
        <ele>320.688</ele>
        <time>2019-09-24T09:22:19.001Z</time>
      </trkpt>
      <trkpt lat="48.21984" lon="5.60566">
        <ele>321.016</ele>
        <time>2019-09-24T09:22:22.001Z</time>
      </trkpt>
      <trkpt lat="48.21977" lon="5.60556">
        <ele>320.586</ele>
        <time>2019-09-24T09:22:25.001Z</time>
      </trkpt>
      <trkpt lat="48.21973" lon="5.60545">
        <ele>320.128</ele>
        <time>2019-09-24T09:22:28.001Z</time>
      </trkpt>
      <trkpt lat="48.21969" lon="5.60535">
        <ele>319.115</ele>
        <time>2019-09-24T09:22:31.001Z</time>
      </trkpt>
      <trkpt lat="48.21965" lon="5.60525">
        <ele>318.462</ele>
        <time>2019-09-24T09:22:34.001Z</time>
      </trkpt>
      <trkpt lat="48.21959" lon="5.60516">
        <ele>318.546</ele>
        <time>2019-09-24T09:22:37.001Z</time>
      </trkpt>
      <trkpt lat="48.21954" lon="5.60506">
        <ele>318.518</ele>
        <time>2019-09-24T09:22:40.001Z</time>
      </trkpt>
      <trkpt lat="48.2195" lon="5.60497">
        <ele>319.001</ele>
        <time>2019-09-24T09:22:43.001Z</time>
      </trkpt>
      <trkpt lat="48.21946" lon="5.60489">
        <ele>319.203</ele>
        <time>2019-09-24T09:22:46.001Z</time>
      </trkpt>
      <trkpt lat="48.21942" lon="5.6048">
        <ele>319.672</ele>
        <time>2019-09-24T09:22:49.001Z</time>
      </trkpt>
      <trkpt lat="48.21938" lon="5.60471">
        <ele>319.78</ele>
        <time>2019-09-24T09:22:52.001Z</time>
      </trkpt>
      <trkpt lat="48.21935" lon="5.60462">
        <ele>320.1</ele>
        <time>2019-09-24T09:22:55.001Z</time>
      </trkpt>
      <trkpt lat="48.2193" lon="5.60452">
        <ele>320.299</ele>
        <time>2019-09-24T09:22:58.001Z</time>
      </trkpt>
      <trkpt lat="48.21924" lon="5.60442">
        <ele>320.33</ele>
        <time>2019-09-24T09:23:01.001Z</time>
      </trkpt>
      <trkpt lat="48.2192" lon="5.60432">
        <ele>320.122</ele>
        <time>2019-09-24T09:23:04.001Z</time>
      </trkpt>
      <trkpt lat="48.21917" lon="5.6042">
        <ele>320.462</ele>
        <time>2019-09-24T09:23:07.001Z</time>
      </trkpt>
      <trkpt lat="48.21912" lon="5.60407">
        <ele>320.255</ele>
        <time>2019-09-24T09:23:10.001Z</time>
      </trkpt>
      <trkpt lat="48.21906" lon="5.60394">
        <ele>319.769</ele>
        <time>2019-09-24T09:23:13.001Z</time>
      </trkpt>
      <trkpt lat="48.21899" lon="5.60383">
        <ele>318.82</ele>
        <time>2019-09-24T11:23:16Z</time>
      </trkpt>
      <trkpt lat="48.21894" lon="5.60372">
        <ele>318.335</ele>
        <time>2019-09-24T09:23:19.001Z</time>
      </trkpt>
      <trkpt lat="48.21889" lon="5.60359">
        <ele>318.101</ele>
        <time>2019-09-24T09:23:22.001Z</time>
      </trkpt>
      <trkpt lat="48.21883" lon="5.60345">
        <ele>318.045</ele>
        <time>2019-09-24T09:23:25.001Z</time>
      </trkpt>
      <trkpt lat="48.21876" lon="5.60331">
        <ele>318.46</ele>
        <time>2019-09-24T09:23:28.001Z</time>
      </trkpt>
      <trkpt lat="48.21871" lon="5.60319">
        <ele>318.612</ele>
        <time>2019-09-24T09:23:31.001Z</time>
      </trkpt>
      <trkpt lat="48.21865" lon="5.60307">
        <ele>318.865</ele>
        <time>2019-09-24T09:23:34.001Z</time>
      </trkpt>
      <trkpt lat="48.21859" lon="5.60295">
        <ele>318.939</ele>
        <time>2019-09-24T09:23:37.001Z</time>
      </trkpt>
      <trkpt lat="48.21853" lon="5.60283">
        <ele>319.139</ele>
        <time>2019-09-24T09:23:40.001Z</time>
      </trkpt>
      <trkpt lat="48.21849" lon="5.60272">
        <ele>319.16</ele>
        <time>2019-09-24T09:23:43.001Z</time>
      </trkpt>
      <trkpt lat="48.21843" lon="5.60262">
        <ele>319.381</ele>
        <time>2019-09-24T09:23:46.001Z</time>
      </trkpt>
      <trkpt lat="48.21836" lon="5.60252">
        <ele>319.119</ele>
        <time>2019-09-24T09:23:49.001Z</time>
      </trkpt>
      <trkpt lat="48.2183" lon="5.60242">
        <ele>319.341</ele>
        <time>2019-09-24T09:23:52.001Z</time>
      </trkpt>
      <trkpt lat="48.21824" lon="5.60232">
        <ele>319.456</ele>
        <time>2019-09-24T09:23:55.001Z</time>
      </trkpt>
      <trkpt lat="48.21819" lon="5.60223">
        <ele>319.632</ele>
        <time>2019-09-24T09:23:58.001Z</time>
      </trkpt>
      <trkpt lat="48.21813" lon="5.60213">
        <ele>320.169</ele>
        <time>2019-09-24T09:24:01.001Z</time>
      </trkpt>
      <trkpt lat="48.21808" lon="5.60205">
        <ele>320.747</ele>
        <time>2019-09-24T09:24:04.001Z</time>
      </trkpt>
      <trkpt lat="48.21803" lon="5.60197">
        <ele>320.383</ele>
        <time>2019-09-24T09:24:07.001Z</time>
      </trkpt>
      <trkpt lat="48.21798" lon="5.6019">
        <ele>320.2</ele>
        <time>2019-09-24T09:24:10.001Z</time>
      </trkpt>
      <trkpt lat="48.21791" lon="5.60181">
        <ele>320.059</ele>
        <time>2019-09-24T09:24:13.001Z</time>
      </trkpt>
      <trkpt lat="48.21784" lon="5.60172">
        <ele>320.475</ele>
        <time>2019-09-24T11:24:16Z</time>
      </trkpt>
      <trkpt lat="48.21778" lon="5.60164">
        <ele>320.982</ele>
        <time>2019-09-24T09:24:19.001Z</time>
      </trkpt>
      <trkpt lat="48.21772" lon="5.60157">
        <ele>320.947</ele>
        <time>2019-09-24T09:24:22.001Z</time>
      </trkpt>
      <trkpt lat="48.21767" lon="5.6015">
        <ele>320.704</ele>
        <time>2019-09-24T09:24:25.001Z</time>
      </trkpt>
      <trkpt lat="48.21763" lon="5.60143">
        <ele>320.742</ele>
        <time>2019-09-24T09:24:28.001Z</time>
      </trkpt>
      <trkpt lat="48.21757" lon="5.60137">
        <ele>320.414</ele>
        <time>2019-09-24T09:24:31.001Z</time>
      </trkpt>
      <trkpt lat="48.21751" lon="5.6013">
        <ele>320.341</ele>
        <time>2019-09-24T09:24:34.001Z</time>
      </trkpt>
      <trkpt lat="48.21746" lon="5.60123">
        <ele>320.886</ele>
        <time>2019-09-24T09:24:37.001Z</time>
      </trkpt>
      <trkpt lat="48.21739" lon="5.60116">
        <ele>321.209</ele>
        <time>2019-09-24T09:24:40.001Z</time>
      </trkpt>
      <trkpt lat="48.21731" lon="5.60109">
        <ele>321.039</ele>
        <time>2019-09-24T09:24:43.001Z</time>
      </trkpt>
      <trkpt lat="48.21725" lon="5.60104">
        <ele>320.579</ele>
        <time>2019-09-24T09:24:46.001Z</time>
      </trkpt>
      <trkpt lat="48.21719" lon="5.60097">
        <ele>320.591</ele>
        <time>2019-09-24T09:24:49.001Z</time>
      </trkpt>
      <trkpt lat="48.21712" lon="5.60089">
        <ele>320.562</ele>
        <time>2019-09-24T09:24:52.001Z</time>
      </trkpt>
      <trkpt lat="48.21704" lon="5.6008">
        <ele>320.685</ele>
        <time>2019-09-24T09:24:55.001Z</time>
      </trkpt>
      <trkpt lat="48.21696" lon="5.60073">
        <ele>321.025</ele>
        <time>2019-09-24T09:24:58.001Z</time>
      </trkpt>
      <trkpt lat="48.21688" lon="5.60066">
        <ele>320.642</ele>
        <time>2019-09-24T09:25:01.001Z</time>
      </trkpt>
      <trkpt lat="48.21681" lon="5.60059">
        <ele>320.064</ele>
        <time>2019-09-24T09:25:04.001Z</time>
      </trkpt>
      <trkpt lat="48.21672" lon="5.60052">
        <ele>320.501</ele>
        <time>2019-09-24T09:25:07.001Z</time>
      </trkpt>
      <trkpt lat="48.21664" lon="5.60044">
        <ele>320.331</ele>
        <time>2019-09-24T09:25:10.001Z</time>
      </trkpt>
      <trkpt lat="48.21655" lon="5.60036">
        <ele>320.602</ele>
        <time>2019-09-24T09:25:13.001Z</time>
      </trkpt>
      <trkpt lat="48.21645" lon="5.60029">
        <ele>320.261</ele>
        <time>2019-09-24T11:25:16Z</time>
      </trkpt>
      <trkpt lat="48.21635" lon="5.60021">
        <ele>319.933</ele>
        <time>2019-09-24T09:25:19.001Z</time>
      </trkpt>
      <trkpt lat="48.21625" lon="5.60014">
        <ele>319.463</ele>
        <time>2019-09-24T09:25:22.001Z</time>
      </trkpt>
      <trkpt lat="48.21614" lon="5.60008">
        <ele>319.542</ele>
        <time>2019-09-24T09:25:25.001Z</time>
      </trkpt>
      <trkpt lat="48.21604" lon="5.60002">
        <ele>319.46</ele>
        <time>2019-09-24T09:25:28.001Z</time>
      </trkpt>
      <trkpt lat="48.21594" lon="5.59996">
        <ele>319.529</ele>
        <time>2019-09-24T09:25:31.001Z</time>
      </trkpt>
      <trkpt lat="48.21583" lon="5.59991">
        <ele>319.883</ele>
        <time>2019-09-24T09:25:34.001Z</time>
      </trkpt>
      <trkpt lat="48.21574" lon="5.59985">
        <ele>320.054</ele>
        <time>2019-09-24T09:25:37.001Z</time>
      </trkpt>
      <trkpt lat="48.21566" lon="5.59979">
        <ele>319.811</ele>
        <time>2019-09-24T09:25:40.001Z</time>
      </trkpt>
      <trkpt lat="48.21557" lon="5.59974">
        <ele>319.561</ele>
        <time>2019-09-24T09:25:43.001Z</time>
      </trkpt>
      <trkpt lat="48.21549" lon="5.59969">
        <ele>319.47</ele>
        <time>2019-09-24T09:25:46.001Z</time>
      </trkpt>
      <trkpt lat="48.21541" lon="5.59965">
        <ele>319.421</ele>
        <time>2019-09-24T09:25:49.001Z</time>
      </trkpt>
      <trkpt lat="48.21531" lon="5.59961">
        <ele>319.316</ele>
        <time>2019-09-24T09:25:52.001Z</time>
      </trkpt>
      <trkpt lat="48.21521" lon="5.59957">
        <ele>320.198</ele>
        <time>2019-09-24T09:25:55.001Z</time>
      </trkpt>
      <trkpt lat="48.21512" lon="5.59954">
        <ele>321.144</ele>
        <time>2019-09-24T09:25:58.001Z</time>
      </trkpt>
      <trkpt lat="48.21502" lon="5.5995">
        <ele>321.765</ele>
        <time>2019-09-24T09:26:01.001Z</time>
      </trkpt>
      <trkpt lat="48.21493" lon="5.59948">
        <ele>322.391</ele>
        <time>2019-09-24T09:26:04.001Z</time>
      </trkpt>
      <trkpt lat="48.21484" lon="5.59945">
        <ele>323.484</ele>
        <time>2019-09-24T09:26:07.001Z</time>
      </trkpt>
      <trkpt lat="48.21475" lon="5.59944">
        <ele>323.766</ele>
        <time>2019-09-24T09:26:10.001Z</time>
      </trkpt>
      <trkpt lat="48.21466" lon="5.59941">
        <ele>323.769</ele>
        <time>2019-09-24T09:26:13.001Z</time>
      </trkpt>
      <trkpt lat="48.21457" lon="5.5994">
        <ele>323.537</ele>
        <time>2019-09-24T11:26:16Z</time>
      </trkpt>
      <trkpt lat="48.21447" lon="5.59938">
        <ele>323.558</ele>
        <time>2019-09-24T09:26:19.001Z</time>
      </trkpt>
      <trkpt lat="48.21437" lon="5.59936">
        <ele>323.76</ele>
        <time>2019-09-24T09:26:22.001Z</time>
      </trkpt>
      <trkpt lat="48.2143" lon="5.59936">
        <ele>323.954</ele>
        <time>2019-09-24T09:26:25.001Z</time>
      </trkpt>
      <trkpt lat="48.21422" lon="5.59935">
        <ele>324.019</ele>
        <time>2019-09-24T09:26:28.001Z</time>
      </trkpt>
      <trkpt lat="48.21413" lon="5.59934">
        <ele>324.307</ele>
        <time>2019-09-24T09:26:31.001Z</time>
      </trkpt>
      <trkpt lat="48.21404" lon="5.59933">
        <ele>324.575</ele>
        <time>2019-09-24T09:26:34.001Z</time>
      </trkpt>
      <trkpt lat="48.21396" lon="5.59931">
        <ele>325.033</ele>
        <time>2019-09-24T09:26:37.001Z</time>
      </trkpt>
      <trkpt lat="48.21388" lon="5.5993">
        <ele>325.206</ele>
        <time>2019-09-24T09:26:40.001Z</time>
      </trkpt>
      <trkpt lat="48.2138" lon="5.5993">
        <ele>324.974</ele>
        <time>2019-09-24T09:26:43.001Z</time>
      </trkpt>
      <trkpt lat="48.21372" lon="5.5993">
        <ele>324.988</ele>
        <time>2019-09-24T09:26:46.001Z</time>
      </trkpt>
      <trkpt lat="48.21363" lon="5.59928">
        <ele>324.892</ele>
        <time>2019-09-24T09:26:49.001Z</time>
      </trkpt>
      <trkpt lat="48.21353" lon="5.59927">
        <ele>324.865</ele>
        <time>2019-09-24T09:26:52.001Z</time>
      </trkpt>
      <trkpt lat="48.21342" lon="5.59926">
        <ele>324.883</ele>
        <time>2019-09-24T09:26:55.001Z</time>
      </trkpt>
      <trkpt lat="48.21332" lon="5.59925">
        <ele>324.938</ele>
        <time>2019-09-24T09:26:58.001Z</time>
      </trkpt>
      <trkpt lat="48.21322" lon="5.59924">
        <ele>324.299</ele>
        <time>2019-09-24T09:27:01.001Z</time>
      </trkpt>
      <trkpt lat="48.21312" lon="5.59922">
        <ele>323.698</ele>
        <time>2019-09-24T09:27:04.001Z</time>
      </trkpt>
      <trkpt lat="48.21302" lon="5.5992">
        <ele>323.364</ele>
        <time>2019-09-24T09:27:07.001Z</time>
      </trkpt>
      <trkpt lat="48.21292" lon="5.59918">
        <ele>323.183</ele>
        <time>2019-09-24T09:27:10.001Z</time>
      </trkpt>
      <trkpt lat="48.21282" lon="5.59916">
        <ele>323.094</ele>
        <time>2019-09-24T09:27:13.001Z</time>
      </trkpt>
      <trkpt lat="48.21274" lon="5.59915">
        <ele>323.207</ele>
        <time>2019-09-24T11:27:16Z</time>
      </trkpt>
      <trkpt lat="48.21266" lon="5.59915">
        <ele>323.35</ele>
        <time>2019-09-24T09:27:19.001Z</time>
      </trkpt>
      <trkpt lat="48.21259" lon="5.59914">
        <ele>323.414</ele>
        <time>2019-09-24T09:27:22.001Z</time>
      </trkpt>
      <trkpt lat="48.21252" lon="5.59913">
        <ele>323.865</ele>
        <time>2019-09-24T09:27:25.001Z</time>
      </trkpt>
      <trkpt lat="48.21245" lon="5.59911">
        <ele>324.414</ele>
        <time>2019-09-24T09:27:28.001Z</time>
      </trkpt>
      <trkpt lat="48.21235" lon="5.5991">
        <ele>324.944</ele>
        <time>2019-09-24T09:27:31.001Z</time>
      </trkpt>
      <trkpt lat="48.21227" lon="5.59909">
        <ele>325.303</ele>
        <time>2019-09-24T09:27:34.001Z</time>
      </trkpt>
      <trkpt lat="48.21219" lon="5.59907">
        <ele>325.338</ele>
        <time>2019-09-24T09:27:37.001Z</time>
      </trkpt>
      <trkpt lat="48.2121" lon="5.59904">
        <ele>325.554</ele>
        <time>2019-09-24T09:27:40.001Z</time>
      </trkpt>
      <trkpt lat="48.21203" lon="5.599">
        <ele>325.582</ele>
        <time>2019-09-24T09:27:43.001Z</time>
      </trkpt>
      <trkpt lat="48.21194" lon="5.59897">
        <ele>325.34</ele>
        <time>2019-09-24T09:27:46.001Z</time>
      </trkpt>
      <trkpt lat="48.21185" lon="5.59893">
        <ele>325.103</ele>
        <time>2019-09-24T09:27:49.001Z</time>
      </trkpt>
      <trkpt lat="48.21175" lon="5.59889">
        <ele>325.454</ele>
        <time>2019-09-24T09:27:52.001Z</time>
      </trkpt>
      <trkpt lat="48.21165" lon="5.59884">
        <ele>325.688</ele>
        <time>2019-09-24T09:27:55.001Z</time>
      </trkpt>
      <trkpt lat="48.21157" lon="5.5988">
        <ele>325.961</ele>
        <time>2019-09-24T09:27:58.001Z</time>
      </trkpt>
      <trkpt lat="48.2115" lon="5.59876">
        <ele>326.078</ele>
        <time>2019-09-24T09:28:01.001Z</time>
      </trkpt>
      <trkpt lat="48.21142" lon="5.59873">
        <ele>326.158</ele>
        <time>2019-09-24T09:28:04.001Z</time>
      </trkpt>
      <trkpt lat="48.21133" lon="5.59868">
        <ele>326.531</ele>
        <time>2019-09-24T09:28:07.001Z</time>
      </trkpt>
      <trkpt lat="48.21128" lon="5.59861">
        <ele>326.986</ele>
        <time>2019-09-24T09:28:10.001Z</time>
      </trkpt>
      <trkpt lat="48.2113" lon="5.59851">
        <ele>326.659</ele>
        <time>2019-09-24T09:28:13.001Z</time>
      </trkpt>
      <trkpt lat="48.21136" lon="5.59844">
        <ele>325.852</ele>
        <time>2019-09-24T11:28:16Z</time>
      </trkpt>
      <trkpt lat="48.21146" lon="5.59836">
        <ele>325.128</ele>
        <time>2019-09-24T09:28:19.001Z</time>
      </trkpt>
      <trkpt lat="48.21158" lon="5.59823">
        <ele>324.83</ele>
        <time>2019-09-24T09:28:22.001Z</time>
      </trkpt>
      <trkpt lat="48.21168" lon="5.5981">
        <ele>324.232</ele>
        <time>2019-09-24T09:28:25.001Z</time>
      </trkpt>
      <trkpt lat="48.21176" lon="5.59795">
        <ele>322.807</ele>
        <time>2019-09-24T09:28:28.001Z</time>
      </trkpt>
      <trkpt lat="48.21182" lon="5.59779">
        <ele>320.691</ele>
        <time>2019-09-24T09:28:31.001Z</time>
      </trkpt>
      <trkpt lat="48.21169" lon="5.59762">
        <ele>319.064</ele>
        <time>2019-09-24T09:28:34.001Z</time>
      </trkpt>
      <trkpt lat="48.21152" lon="5.5975">
        <ele>318.52</ele>
        <time>2019-09-24T09:28:37.001Z</time>
      </trkpt>
      <trkpt lat="48.21134" lon="5.59735">
        <ele>318.823</ele>
        <time>2019-09-24T09:28:40.001Z</time>
      </trkpt>
      <trkpt lat="48.21117" lon="5.59721">
        <ele>319.079</ele>
        <time>2019-09-24T09:28:43.001Z</time>
      </trkpt>
      <trkpt lat="48.21096" lon="5.59704">
        <ele>318.46</ele>
        <time>2019-09-24T09:28:46.001Z</time>
      </trkpt>
      <trkpt lat="48.21075" lon="5.59696">
        <ele>317.378</ele>
        <time>2019-09-24T09:28:49.001Z</time>
      </trkpt>
      <trkpt lat="48.21053" lon="5.59692">
        <ele>316.904</ele>
        <time>2019-09-24T09:28:52.001Z</time>
      </trkpt>
      <trkpt lat="48.21033" lon="5.59692">
        <ele>316.143</ele>
        <time>2019-09-24T09:28:55.001Z</time>
      </trkpt>
      <trkpt lat="48.21016" lon="5.59688">
        <ele>316.261</ele>
        <time>2019-09-24T09:28:58.001Z</time>
      </trkpt>
      <trkpt lat="48.21001" lon="5.59685">
        <ele>315.999</ele>
        <time>2019-09-24T09:29:01.001Z</time>
      </trkpt>
      <trkpt lat="48.20987" lon="5.59681">
        <ele>315.72</ele>
        <time>2019-09-24T09:29:04.001Z</time>
      </trkpt>
      <trkpt lat="48.20973" lon="5.5968">
        <ele>315.933</ele>
        <time>2019-09-24T09:29:07.001Z</time>
      </trkpt>
      <trkpt lat="48.20961" lon="5.59678">
        <ele>314.709</ele>
        <time>2019-09-24T09:29:10.001Z</time>
      </trkpt>
      <trkpt lat="48.20947" lon="5.59674">
        <ele>313.711</ele>
        <time>2019-09-24T09:29:13.001Z</time>
      </trkpt>
      <trkpt lat="48.20935" lon="5.5967">
        <ele>313.096</ele>
        <time>2019-09-24T11:29:16Z</time>
      </trkpt>
      <trkpt lat="48.20924" lon="5.59666">
        <ele>312.882</ele>
        <time>2019-09-24T09:29:19.001Z</time>
      </trkpt>
      <trkpt lat="48.20912" lon="5.59662">
        <ele>312.495</ele>
        <time>2019-09-24T09:29:22.001Z</time>
      </trkpt>
      <trkpt lat="48.20901" lon="5.59658">
        <ele>312.34</ele>
        <time>2019-09-24T09:29:25.001Z</time>
      </trkpt>
      <trkpt lat="48.20889" lon="5.59654">
        <ele>312.142</ele>
        <time>2019-09-24T09:29:28.001Z</time>
      </trkpt>
      <trkpt lat="48.20877" lon="5.59651">
        <ele>311.834</ele>
        <time>2019-09-24T09:29:31.001Z</time>
      </trkpt>
      <trkpt lat="48.20865" lon="5.59649">
        <ele>311.88</ele>
        <time>2019-09-24T09:29:34.001Z</time>
      </trkpt>
      <trkpt lat="48.20853" lon="5.59648">
        <ele>312.076</ele>
        <time>2019-09-24T09:29:37.001Z</time>
      </trkpt>
      <trkpt lat="48.20842" lon="5.59648">
        <ele>312.086</ele>
        <time>2019-09-24T09:29:40.001Z</time>
      </trkpt>
      <trkpt lat="48.2083" lon="5.59646">
        <ele>311.626</ele>
        <time>2019-09-24T09:29:43.001Z</time>
      </trkpt>
      <trkpt lat="48.20815" lon="5.59643">
        <ele>311.73</ele>
        <time>2019-09-24T09:29:46.001Z</time>
      </trkpt>
      <trkpt lat="48.20797" lon="5.59637">
        <ele>312.171</ele>
        <time>2019-09-24T09:29:49.001Z</time>
      </trkpt>
      <trkpt lat="48.20782" lon="5.59629">
        <ele>312.285</ele>
        <time>2019-09-24T09:29:52.001Z</time>
      </trkpt>
      <trkpt lat="48.20769" lon="5.59622">
        <ele>312.01</ele>
        <time>2019-09-24T09:29:55.001Z</time>
      </trkpt>
      <trkpt lat="48.20757" lon="5.59614">
        <ele>312.1</ele>
        <time>2019-09-24T09:29:58.001Z</time>
      </trkpt>
      <trkpt lat="48.20746" lon="5.59607">
        <ele>311.806</ele>
        <time>2019-09-24T09:30:01.001Z</time>
      </trkpt>
      <trkpt lat="48.20734" lon="5.59602">
        <ele>311.899</ele>
        <time>2019-09-24T09:30:04.001Z</time>
      </trkpt>
      <trkpt lat="48.20724" lon="5.59596">
        <ele>311.833</ele>
        <time>2019-09-24T09:30:07.001Z</time>
      </trkpt>
      <trkpt lat="48.20713" lon="5.59591">
        <ele>312.021</ele>
        <time>2019-09-24T09:30:10.001Z</time>
      </trkpt>
      <trkpt lat="48.20702" lon="5.59586">
        <ele>312.373</ele>
        <time>2019-09-24T09:30:13.001Z</time>
      </trkpt>
      <trkpt lat="48.20691" lon="5.5958">
        <ele>312.21</ele>
        <time>2019-09-24T11:30:16Z</time>
      </trkpt>
      <trkpt lat="48.2068" lon="5.59574">
        <ele>312.214</ele>
        <time>2019-09-24T09:30:19.001Z</time>
      </trkpt>
      <trkpt lat="48.2067" lon="5.59569">
        <ele>312.294</ele>
        <time>2019-09-24T09:30:22.001Z</time>
      </trkpt>
      <trkpt lat="48.20661" lon="5.59564">
        <ele>312.924</ele>
        <time>2019-09-24T09:30:25.001Z</time>
      </trkpt>
      <trkpt lat="48.20654" lon="5.59561">
        <ele>313.927</ele>
        <time>2019-09-24T09:30:28.001Z</time>
      </trkpt>
      <trkpt lat="48.20646" lon="5.59557">
        <ele>314.538</ele>
        <time>2019-09-24T09:30:31.001Z</time>
      </trkpt>
      <trkpt lat="48.20639" lon="5.59554">
        <ele>315.356</ele>
        <time>2019-09-24T09:30:34.001Z</time>
      </trkpt>
      <trkpt lat="48.20632" lon="5.5955">
        <ele>316.029</ele>
        <time>2019-09-24T09:30:37.001Z</time>
      </trkpt>
      <trkpt lat="48.20625" lon="5.59545">
        <ele>316.582</ele>
        <time>2019-09-24T09:30:40.001Z</time>
      </trkpt>
      <trkpt lat="48.20618" lon="5.5954">
        <ele>316.652</ele>
        <time>2019-09-24T09:30:43.001Z</time>
      </trkpt>
      <trkpt lat="48.2061" lon="5.59534">
        <ele>317.182</ele>
        <time>2019-09-24T09:30:46.001Z</time>
      </trkpt>
      <trkpt lat="48.20601" lon="5.59527">
        <ele>317.305</ele>
        <time>2019-09-24T09:30:49.001Z</time>
      </trkpt>
      <trkpt lat="48.20592" lon="5.59519">
        <ele>317.275</ele>
        <time>2019-09-24T09:30:52.001Z</time>
      </trkpt>
      <trkpt lat="48.20582" lon="5.59511">
        <ele>317.727</ele>
        <time>2019-09-24T09:30:55.001Z</time>
      </trkpt>
      <trkpt lat="48.20571" lon="5.59502">
        <ele>317.88</ele>
        <time>2019-09-24T09:30:58.001Z</time>
      </trkpt>
      <trkpt lat="48.2056" lon="5.59491">
        <ele>317.922</ele>
        <time>2019-09-24T09:31:01.001Z</time>
      </trkpt>
      <trkpt lat="48.20548" lon="5.5948">
        <ele>317.781</ele>
        <time>2019-09-24T09:31:04.001Z</time>
      </trkpt>
      <trkpt lat="48.20535" lon="5.59468">
        <ele>317.225</ele>
        <time>2019-09-24T09:31:07.001Z</time>
      </trkpt>
      <trkpt lat="48.20523" lon="5.59456">
        <ele>316.751</ele>
        <time>2019-09-24T09:31:10.001Z</time>
      </trkpt>
      <trkpt lat="48.20511" lon="5.59443">
        <ele>316.433</ele>
        <time>2019-09-24T09:31:13.001Z</time>
      </trkpt>
      <trkpt lat="48.20499" lon="5.59426">
        <ele>316.03</ele>
        <time>2019-09-24T11:31:16Z</time>
      </trkpt>
      <trkpt lat="48.20488" lon="5.59405">
        <ele>316.506</ele>
        <time>2019-09-24T09:31:19.001Z</time>
      </trkpt>
      <trkpt lat="48.20477" lon="5.59381">
        <ele>316.281</ele>
        <time>2019-09-24T09:31:22.001Z</time>
      </trkpt>
      <trkpt lat="48.20461" lon="5.59363">
        <ele>315.081</ele>
        <time>2019-09-24T09:31:25.001Z</time>
      </trkpt>
      <trkpt lat="48.20444" lon="5.59363">
        <ele>315.241</ele>
        <time>2019-09-24T09:31:28.001Z</time>
      </trkpt>
      <trkpt lat="48.20429" lon="5.59375">
        <ele>315.747</ele>
        <time>2019-09-24T09:31:31.001Z</time>
      </trkpt>
      <trkpt lat="48.20418" lon="5.59375">
        <ele>316.213</ele>
        <time>2019-09-24T09:31:34.001Z</time>
      </trkpt>
      <trkpt lat="48.20404" lon="5.59367">
        <ele>315.594</ele>
        <time>2019-09-24T09:31:37.001Z</time>
      </trkpt>
      <trkpt lat="48.20392" lon="5.59356">
        <ele>316.162</ele>
        <time>2019-09-24T09:31:40.001Z</time>
      </trkpt>
      <trkpt lat="48.2038" lon="5.59347">
        <ele>316.467</ele>
        <time>2019-09-24T09:31:43.001Z</time>
      </trkpt>
      <trkpt lat="48.20367" lon="5.59341">
        <ele>316.115</ele>
        <time>2019-09-24T09:31:46.001Z</time>
      </trkpt>
      <trkpt lat="48.20356" lon="5.5934">
        <ele>316.185</ele>
        <time>2019-09-24T09:31:49.001Z</time>
      </trkpt>
      <trkpt lat="48.20346" lon="5.5934">
        <ele>315.993</ele>
        <time>2019-09-24T09:31:52.001Z</time>
      </trkpt>
      <trkpt lat="48.20338" lon="5.59341">
        <ele>316.867</ele>
        <time>2019-09-24T09:31:55.001Z</time>
      </trkpt>
      <trkpt lat="48.20333" lon="5.5934">
        <ele>317.463</ele>
        <time>2019-09-24T09:31:58.001Z</time>
      </trkpt>
      <trkpt lat="48.20329" lon="5.59339">
        <ele>318.678</ele>
        <time>2019-09-24T09:32:01.001Z</time>
      </trkpt>
      <trkpt lat="48.20324" lon="5.59339">
        <ele>318.281</ele>
        <time>2019-09-24T09:32:04.001Z</time>
      </trkpt>
      <trkpt lat="48.20314" lon="5.59341">
        <ele>319.42</ele>
        <time>2019-09-24T09:32:10.001Z</time>
      </trkpt>
      <trkpt lat="48.20306" lon="5.59342">
        <ele>320.65</ele>
        <time>2019-09-24T11:32:16Z</time>
      </trkpt>
      <trkpt lat="48.20298" lon="5.59341">
        <ele>320.896</ele>
        <time>2019-09-24T09:32:22.001Z</time>
      </trkpt>
      <trkpt lat="48.2029" lon="5.5934">
        <ele>322.277</ele>
        <time>2019-09-24T09:32:28.001Z</time>
      </trkpt>
      <trkpt lat="48.20287" lon="5.59339">
        <ele>322.086</ele>
        <time>2019-09-24T09:32:31.001Z</time>
      </trkpt>
      <trkpt lat="48.20287" lon="5.5934">
        <ele>321.953</ele>
        <time>2019-09-24T09:32:43.001Z</time>
      </trkpt>
      <trkpt lat="48.20286" lon="5.5934">
        <ele>321.396</ele>
        <time>2019-09-24T09:32:46.001Z</time>
      </trkpt>
      <trkpt lat="48.2028" lon="5.59338">
        <ele>321.639</ele>
        <time>2019-09-24T09:32:52.001Z</time>
      </trkpt>
      <trkpt lat="48.20272" lon="5.59337">
        <ele>323.13</ele>
        <time>2019-09-24T09:32:58.001Z</time>
      </trkpt>
      <trkpt lat="48.20265" lon="5.59336">
        <ele>324.125</ele>
        <time>2019-09-24T09:33:04.001Z</time>
      </trkpt>
      <trkpt lat="48.20257" lon="5.59333">
        <ele>324.624</ele>
        <time>2019-09-24T09:33:10.001Z</time>
      </trkpt>
      <trkpt lat="48.2025" lon="5.59332">
        <ele>324.931</ele>
        <time>2019-09-24T11:33:16Z</time>
      </trkpt>
      <trkpt lat="48.20243" lon="5.59331">
        <ele>325.345</ele>
        <time>2019-09-24T09:33:22.001Z</time>
      </trkpt>
      <trkpt lat="48.20236" lon="5.5933">
        <ele>326.547</ele>
        <time>2019-09-24T09:33:28.001Z</time>
      </trkpt>
      <trkpt lat="48.20229" lon="5.59329">
        <ele>327.284</ele>
        <time>2019-09-24T09:33:34.001Z</time>
      </trkpt>
      <trkpt lat="48.20227" lon="5.59328">
        <ele>327.585</ele>
        <time>2019-09-24T09:33:37.001Z</time>
      </trkpt>
      <trkpt lat="48.20227" lon="5.59328">
        <ele>327.585</ele>
        <time>2019-09-24T09:34:40.001Z</time>
      </trkpt>
      <trkpt lat="48.20228" lon="5.59329">
        <ele>327.523</ele>
        <time>2019-09-24T09:34:43.001Z</time>
      </trkpt>
      <trkpt lat="48.20228" lon="5.59329">
        <ele>327.558</ele>
        <time>2019-09-24T09:34:46.001Z</time>
      </trkpt>
      <trkpt lat="48.20228" lon="5.59329">
        <ele>327.561</ele>
        <time>2019-09-24T09:34:49.001Z</time>
      </trkpt>
      <trkpt lat="48.20228" lon="5.59329">
        <ele>327.561</ele>
        <time>2019-09-24T09:35:10.001Z</time>
      </trkpt>
      <trkpt lat="48.20228" lon="5.59329">
        <ele>327.354</ele>
        <time>2019-09-24T09:35:13.001Z</time>
      </trkpt>
      <trkpt lat="48.20221" lon="5.59332">
        <ele>327.687</ele>
        <time>2019-09-24T09:35:19.001Z</time>
      </trkpt>
      <trkpt lat="48.20215" lon="5.59333">
        <ele>327.894</ele>
        <time>2019-09-24T09:35:22.001Z</time>
      </trkpt>
      <trkpt lat="48.20209" lon="5.59336">
        <ele>328.392</ele>
        <time>2019-09-24T09:35:25.001Z</time>
      </trkpt>
      <trkpt lat="48.20204" lon="5.59337">
        <ele>328.936</ele>
        <time>2019-09-24T09:35:28.001Z</time>
      </trkpt>
      <trkpt lat="48.20199" lon="5.59339">
        <ele>328.922</ele>
        <time>2019-09-24T09:35:31.001Z</time>
      </trkpt>
      <trkpt lat="48.20198" lon="5.59339">
        <ele>328.841</ele>
        <time>2019-09-24T09:35:34.001Z</time>
      </trkpt>
      <trkpt lat="48.20198" lon="5.59339">
        <ele>328.841</ele>
        <time>2019-09-24T09:40:04.001Z</time>
      </trkpt>
      <trkpt lat="48.20198" lon="5.59339">
        <ele>328.89</ele>
        <time>2019-09-24T09:40:07.001Z</time>
      </trkpt>
      <trkpt lat="48.20193" lon="5.59341">
        <ele>329.284</ele>
        <time>2019-09-24T09:40:13.001Z</time>
      </trkpt>
      <trkpt lat="48.20182" lon="5.59345">
        <ele>330.039</ele>
        <time>2019-09-24T09:40:19.001Z</time>
      </trkpt>
      <trkpt lat="48.20177" lon="5.59346">
        <ele>330.708</ele>
        <time>2019-09-24T09:40:22.001Z</time>
      </trkpt>
      <trkpt lat="48.20171" lon="5.59347">
        <ele>330.931</ele>
        <time>2019-09-24T09:40:25.001Z</time>
      </trkpt>
      <trkpt lat="48.20165" lon="5.59349">
        <ele>330.921</ele>
        <time>2019-09-24T09:40:28.001Z</time>
      </trkpt>
      <trkpt lat="48.20159" lon="5.59351">
        <ele>330.846</ele>
        <time>2019-09-24T09:40:31.001Z</time>
      </trkpt>
      <trkpt lat="48.20154" lon="5.59354">
        <ele>330.887</ele>
        <time>2019-09-24T09:40:34.001Z</time>
      </trkpt>
      <trkpt lat="48.20148" lon="5.59356">
        <ele>331.157</ele>
        <time>2019-09-24T09:40:37.001Z</time>
      </trkpt>
      <trkpt lat="48.20142" lon="5.59358">
        <ele>331.867</ele>
        <time>2019-09-24T09:40:40.001Z</time>
      </trkpt>
      <trkpt lat="48.20136" lon="5.5936">
        <ele>332.131</ele>
        <time>2019-09-24T09:40:43.001Z</time>
      </trkpt>
      <trkpt lat="48.20131" lon="5.59362">
        <ele>332.031</ele>
        <time>2019-09-24T09:40:46.001Z</time>
      </trkpt>
      <trkpt lat="48.20125" lon="5.59365">
        <ele>332.45</ele>
        <time>2019-09-24T09:40:49.001Z</time>
      </trkpt>
      <trkpt lat="48.20118" lon="5.59368">
        <ele>332.76</ele>
        <time>2019-09-24T09:40:52.001Z</time>
      </trkpt>
      <trkpt lat="48.20112" lon="5.5937">
        <ele>333.386</ele>
        <time>2019-09-24T09:40:55.001Z</time>
      </trkpt>
      <trkpt lat="48.20107" lon="5.59373">
        <ele>333.002</ele>
        <time>2019-09-24T09:40:58.001Z</time>
      </trkpt>
      <trkpt lat="48.201" lon="5.59376">
        <ele>333.461</ele>
        <time>2019-09-24T09:41:01.001Z</time>
      </trkpt>
      <trkpt lat="48.20093" lon="5.59379">
        <ele>334.014</ele>
        <time>2019-09-24T09:41:04.001Z</time>
      </trkpt>
      <trkpt lat="48.20087" lon="5.59382">
        <ele>334.682</ele>
        <time>2019-09-24T09:41:07.001Z</time>
      </trkpt>
      <trkpt lat="48.2008" lon="5.59385">
        <ele>334.834</ele>
        <time>2019-09-24T09:41:10.001Z</time>
      </trkpt>
      <trkpt lat="48.20074" lon="5.59387">
        <ele>334.472</ele>
        <time>2019-09-24T09:41:13.001Z</time>
      </trkpt>
      <trkpt lat="48.20068" lon="5.59389">
        <ele>334.402</ele>
        <time>2019-09-24T11:41:16Z</time>
      </trkpt>
      <trkpt lat="48.20061" lon="5.59391">
        <ele>334.057</ele>
        <time>2019-09-24T09:41:19.001Z</time>
      </trkpt>
      <trkpt lat="48.20053" lon="5.59393">
        <ele>334.421</ele>
        <time>2019-09-24T09:41:22.001Z</time>
      </trkpt>
      <trkpt lat="48.20046" lon="5.59395">
        <ele>334.243</ele>
        <time>2019-09-24T09:41:25.001Z</time>
      </trkpt>
      <trkpt lat="48.20038" lon="5.59396">
        <ele>333.727</ele>
        <time>2019-09-24T09:41:28.001Z</time>
      </trkpt>
      <trkpt lat="48.2003" lon="5.59396">
        <ele>334.146</ele>
        <time>2019-09-24T09:41:31.001Z</time>
      </trkpt>
      <trkpt lat="48.20022" lon="5.59396">
        <ele>334.395</ele>
        <time>2019-09-24T09:41:34.001Z</time>
      </trkpt>
      <trkpt lat="48.20015" lon="5.59394">
        <ele>334.322</ele>
        <time>2019-09-24T09:41:37.001Z</time>
      </trkpt>
      <trkpt lat="48.20007" lon="5.59393">
        <ele>334.915</ele>
        <time>2019-09-24T09:41:40.001Z</time>
      </trkpt>
      <trkpt lat="48.2" lon="5.59391">
        <ele>335.284</ele>
        <time>2019-09-24T09:41:43.001Z</time>
      </trkpt>
      <trkpt lat="48.19993" lon="5.59389">
        <ele>335.952</ele>
        <time>2019-09-24T09:41:46.001Z</time>
      </trkpt>
      <trkpt lat="48.19986" lon="5.59385">
        <ele>336.792</ele>
        <time>2019-09-24T09:41:49.001Z</time>
      </trkpt>
      <trkpt lat="48.1998" lon="5.59382">
        <ele>337.076</ele>
        <time>2019-09-24T09:41:52.001Z</time>
      </trkpt>
      <trkpt lat="48.19973" lon="5.59379">
        <ele>337.152</ele>
        <time>2019-09-24T09:41:55.001Z</time>
      </trkpt>
      <trkpt lat="48.19966" lon="5.59374">
        <ele>336.988</ele>
        <time>2019-09-24T09:41:58.001Z</time>
      </trkpt>
      <trkpt lat="48.1996" lon="5.5937">
        <ele>337.353</ele>
        <time>2019-09-24T09:42:01.001Z</time>
      </trkpt>
      <trkpt lat="48.19953" lon="5.59366">
        <ele>337.118</ele>
        <time>2019-09-24T09:42:04.001Z</time>
      </trkpt>
      <trkpt lat="48.19945" lon="5.59361">
        <ele>337.307</ele>
        <time>2019-09-24T09:42:07.001Z</time>
      </trkpt>
      <trkpt lat="48.19939" lon="5.59356">
        <ele>337.277</ele>
        <time>2019-09-24T09:42:10.001Z</time>
      </trkpt>
      <trkpt lat="48.19931" lon="5.59351">
        <ele>337.061</ele>
        <time>2019-09-24T09:42:13.001Z</time>
      </trkpt>
      <trkpt lat="48.19924" lon="5.59347">
        <ele>337.089</ele>
        <time>2019-09-24T11:42:16Z</time>
      </trkpt>
      <trkpt lat="48.19917" lon="5.59343">
        <ele>338.077</ele>
        <time>2019-09-24T09:42:19.001Z</time>
      </trkpt>
      <trkpt lat="48.19909" lon="5.59339">
        <ele>338.652</ele>
        <time>2019-09-24T09:42:22.001Z</time>
      </trkpt>
      <trkpt lat="48.19901" lon="5.59334">
        <ele>339.671</ele>
        <time>2019-09-24T09:42:25.001Z</time>
      </trkpt>
      <trkpt lat="48.19894" lon="5.59328">
        <ele>340.044</ele>
        <time>2019-09-24T09:42:28.001Z</time>
      </trkpt>
      <trkpt lat="48.19891" lon="5.59319">
        <ele>340.578</ele>
        <time>2019-09-24T09:42:31.001Z</time>
      </trkpt>
      <trkpt lat="48.19894" lon="5.59306">
        <ele>340.58</ele>
        <time>2019-09-24T09:42:34.001Z</time>
      </trkpt>
      <trkpt lat="48.199" lon="5.59294">
        <ele>340.552</ele>
        <time>2019-09-24T09:42:37.001Z</time>
      </trkpt>
      <trkpt lat="48.19908" lon="5.5928">
        <ele>340.586</ele>
        <time>2019-09-24T09:42:40.001Z</time>
      </trkpt>
      <trkpt lat="48.19919" lon="5.59263">
        <ele>340.205</ele>
        <time>2019-09-24T09:42:43.001Z</time>
      </trkpt>
      <trkpt lat="48.19933" lon="5.59245">
        <ele>338.952</ele>
        <time>2019-09-24T09:42:46.001Z</time>
      </trkpt>
      <trkpt lat="48.19945" lon="5.59228">
        <ele>337.861</ele>
        <time>2019-09-24T09:42:49.001Z</time>
      </trkpt>
      <trkpt lat="48.19959" lon="5.59213">
        <ele>337.731</ele>
        <time>2019-09-24T09:42:52.001Z</time>
      </trkpt>
      <trkpt lat="48.19975" lon="5.59202">
        <ele>337.289</ele>
        <time>2019-09-24T09:42:55.002Z</time>
      </trkpt>
      <trkpt lat="48.19992" lon="5.59195">
        <ele>336.353</ele>
        <time>2019-09-24T09:42:58.001Z</time>
      </trkpt>
      <trkpt lat="48.20009" lon="5.59186">
        <ele>335.955</ele>
        <time>2019-09-24T09:43:01.001Z</time>
      </trkpt>
      <trkpt lat="48.20026" lon="5.59173">
        <ele>335.315</ele>
        <time>2019-09-24T09:43:04.001Z</time>
      </trkpt>
      <trkpt lat="48.20036" lon="5.5915">
        <ele>334.386</ele>
        <time>2019-09-24T09:43:07.001Z</time>
      </trkpt>
      <trkpt lat="48.20034" lon="5.59129">
        <ele>334.99</ele>
        <time>2019-09-24T09:43:10.001Z</time>
      </trkpt>
      <trkpt lat="48.20026" lon="5.59114">
        <ele>335.039</ele>
        <time>2019-09-24T09:43:13.001Z</time>
      </trkpt>
      <trkpt lat="48.20019" lon="5.59102">
        <ele>334.778</ele>
        <time>2019-09-24T11:43:16Z</time>
      </trkpt>
      <trkpt lat="48.20012" lon="5.59091">
        <ele>334.248</ele>
        <time>2019-09-24T09:43:19.001Z</time>
      </trkpt>
      <trkpt lat="48.20005" lon="5.5908">
        <ele>334.584</ele>
        <time>2019-09-24T09:43:22.001Z</time>
      </trkpt>
      <trkpt lat="48.19996" lon="5.5907">
        <ele>334.254</ele>
        <time>2019-09-24T09:43:25.001Z</time>
      </trkpt>
      <trkpt lat="48.19985" lon="5.5906">
        <ele>334.216</ele>
        <time>2019-09-24T09:43:28.001Z</time>
      </trkpt>
      <trkpt lat="48.19977" lon="5.59051">
        <ele>334.096</ele>
        <time>2019-09-24T09:43:31.001Z</time>
      </trkpt>
      <trkpt lat="48.19969" lon="5.59042">
        <ele>334.381</ele>
        <time>2019-09-24T09:43:34.001Z</time>
      </trkpt>
      <trkpt lat="48.1996" lon="5.59032">
        <ele>334.977</ele>
        <time>2019-09-24T09:43:37.001Z</time>
      </trkpt>
      <trkpt lat="48.19954" lon="5.59018">
        <ele>334.761</ele>
        <time>2019-09-24T09:43:40.001Z</time>
      </trkpt>
      <trkpt lat="48.19955" lon="5.59">
        <ele>335.119</ele>
        <time>2019-09-24T09:43:43.001Z</time>
      </trkpt>
      <trkpt lat="48.19957" lon="5.58977">
        <ele>335.428</ele>
        <time>2019-09-24T09:43:46.001Z</time>
      </trkpt>
      <trkpt lat="48.19962" lon="5.58956">
        <ele>335.798</ele>
        <time>2019-09-24T09:43:49.001Z</time>
      </trkpt>
      <trkpt lat="48.1997" lon="5.58937">
        <ele>335.647</ele>
        <time>2019-09-24T09:43:52.001Z</time>
      </trkpt>
      <trkpt lat="48.19981" lon="5.58918">
        <ele>335.47</ele>
        <time>2019-09-24T09:43:55.001Z</time>
      </trkpt>
      <trkpt lat="48.19992" lon="5.58897">
        <ele>334.725</ele>
        <time>2019-09-24T09:43:58.001Z</time>
      </trkpt>
      <trkpt lat="48.20003" lon="5.58874">
        <ele>333.037</ele>
        <time>2019-09-24T09:44:01.001Z</time>
      </trkpt>
      <trkpt lat="48.20014" lon="5.58852">
        <ele>331.244</ele>
        <time>2019-09-24T09:44:04.001Z</time>
      </trkpt>
      <trkpt lat="48.20022" lon="5.58832">
        <ele>330.544</ele>
        <time>2019-09-24T09:44:07.001Z</time>
      </trkpt>
      <trkpt lat="48.2002" lon="5.58809">
        <ele>330.361</ele>
        <time>2019-09-24T09:44:10.001Z</time>
      </trkpt>
      <trkpt lat="48.20009" lon="5.58786">
        <ele>330.478</ele>
        <time>2019-09-24T09:44:13.001Z</time>
      </trkpt>
      <trkpt lat="48.2" lon="5.5877">
        <ele>329.904</ele>
        <time>2019-09-24T11:44:16Z</time>
      </trkpt>
      <trkpt lat="48.1999" lon="5.58753">
        <ele>329.747</ele>
        <time>2019-09-24T09:44:19.001Z</time>
      </trkpt>
      <trkpt lat="48.19981" lon="5.58738">
        <ele>329.392</ele>
        <time>2019-09-24T09:44:22.001Z</time>
      </trkpt>
      <trkpt lat="48.19977" lon="5.58725">
        <ele>328.941</ele>
        <time>2019-09-24T09:44:25.001Z</time>
      </trkpt>
      <trkpt lat="48.19977" lon="5.58709">
        <ele>328.715</ele>
        <time>2019-09-24T09:44:28.001Z</time>
      </trkpt>
      <trkpt lat="48.19984" lon="5.58693">
        <ele>328.465</ele>
        <time>2019-09-24T09:44:31.001Z</time>
      </trkpt>
      <trkpt lat="48.19993" lon="5.58678">
        <ele>327.149</ele>
        <time>2019-09-24T09:44:34.001Z</time>
      </trkpt>
      <trkpt lat="48.20003" lon="5.58662">
        <ele>327.162</ele>
        <time>2019-09-24T09:44:37.001Z</time>
      </trkpt>
      <trkpt lat="48.20012" lon="5.58647">
        <ele>327.76</ele>
        <time>2019-09-24T09:44:40.001Z</time>
      </trkpt>
      <trkpt lat="48.20024" lon="5.5863">
        <ele>327.322</ele>
        <time>2019-09-24T09:44:43.001Z</time>
      </trkpt>
      <trkpt lat="48.20036" lon="5.58615">
        <ele>326.167</ele>
        <time>2019-09-24T09:44:46.001Z</time>
      </trkpt>
      <trkpt lat="48.20046" lon="5.58603">
        <ele>325.717</ele>
        <time>2019-09-24T09:44:49.001Z</time>
      </trkpt>
      <trkpt lat="48.20054" lon="5.58588">
        <ele>325.094</ele>
        <time>2019-09-24T09:44:52.001Z</time>
      </trkpt>
      <trkpt lat="48.20053" lon="5.5857">
        <ele>324.785</ele>
        <time>2019-09-24T09:44:55.001Z</time>
      </trkpt>
      <trkpt lat="48.20043" lon="5.5855">
        <ele>324.116</ele>
        <time>2019-09-24T09:44:58.001Z</time>
      </trkpt>
      <trkpt lat="48.20034" lon="5.58529">
        <ele>324.66</ele>
        <time>2019-09-24T09:45:01.001Z</time>
      </trkpt>
      <trkpt lat="48.20029" lon="5.58508">
        <ele>325.677</ele>
        <time>2019-09-24T09:45:04.001Z</time>
      </trkpt>
      <trkpt lat="48.20023" lon="5.5849">
        <ele>325.601</ele>
        <time>2019-09-24T09:45:07.001Z</time>
      </trkpt>
      <trkpt lat="48.20019" lon="5.58476">
        <ele>324.627</ele>
        <time>2019-09-24T09:45:10.001Z</time>
      </trkpt>
      <trkpt lat="48.20012" lon="5.58464">
        <ele>323.119</ele>
        <time>2019-09-24T09:45:13.001Z</time>
      </trkpt>
      <trkpt lat="48.20001" lon="5.58457">
        <ele>322.693</ele>
        <time>2019-09-24T11:45:16Z</time>
      </trkpt>
      <trkpt lat="48.19991" lon="5.58456">
        <ele>322.373</ele>
        <time>2019-09-24T09:45:19.001Z</time>
      </trkpt>
      <trkpt lat="48.19982" lon="5.58455">
        <ele>322.611</ele>
        <time>2019-09-24T09:45:22.001Z</time>
      </trkpt>
      <trkpt lat="48.19973" lon="5.58453">
        <ele>323.178</ele>
        <time>2019-09-24T09:45:25.001Z</time>
      </trkpt>
      <trkpt lat="48.19966" lon="5.58453">
        <ele>323.694</ele>
        <time>2019-09-24T09:45:28.001Z</time>
      </trkpt>
      <trkpt lat="48.19958" lon="5.58453">
        <ele>324.318</ele>
        <time>2019-09-24T09:45:31.001Z</time>
      </trkpt>
      <trkpt lat="48.19952" lon="5.58455">
        <ele>325.501</ele>
        <time>2019-09-24T09:45:34.001Z</time>
      </trkpt>
      <trkpt lat="48.19946" lon="5.5846">
        <ele>325.551</ele>
        <time>2019-09-24T09:45:37.001Z</time>
      </trkpt>
      <trkpt lat="48.19939" lon="5.58465">
        <ele>326.247</ele>
        <time>2019-09-24T09:45:40.001Z</time>
      </trkpt>
      <trkpt lat="48.19932" lon="5.58471">
        <ele>326.81</ele>
        <time>2019-09-24T09:45:43.001Z</time>
      </trkpt>
      <trkpt lat="48.19924" lon="5.58477">
        <ele>327.157</ele>
        <time>2019-09-24T09:45:46.001Z</time>
      </trkpt>
      <trkpt lat="48.19919" lon="5.58484">
        <ele>327.147</ele>
        <time>2019-09-24T09:45:49.001Z</time>
      </trkpt>
      <trkpt lat="48.19914" lon="5.5849">
        <ele>327.844</ele>
        <time>2019-09-24T09:45:52.001Z</time>
      </trkpt>
      <trkpt lat="48.19907" lon="5.58495">
        <ele>328.722</ele>
        <time>2019-09-24T09:45:55.001Z</time>
      </trkpt>
      <trkpt lat="48.199" lon="5.58501">
        <ele>330.283</ele>
        <time>2019-09-24T09:45:58.001Z</time>
      </trkpt>
      <trkpt lat="48.19894" lon="5.58507">
        <ele>331.884</ele>
        <time>2019-09-24T09:46:01.001Z</time>
      </trkpt>
      <trkpt lat="48.1989" lon="5.58512">
        <ele>333.275</ele>
        <time>2019-09-24T09:46:04.001Z</time>
      </trkpt>
      <trkpt lat="48.19889" lon="5.58519">
        <ele>334.456</ele>
        <time>2019-09-24T09:46:07.001Z</time>
      </trkpt>
      <trkpt lat="48.19888" lon="5.58527">
        <ele>336.414</ele>
        <time>2019-09-24T09:46:10.001Z</time>
      </trkpt>
      <trkpt lat="48.19886" lon="5.58534">
        <ele>337.092</ele>
        <time>2019-09-24T09:46:13.001Z</time>
      </trkpt>
      <trkpt lat="48.19886" lon="5.58542">
        <ele>335.122</ele>
        <time>2019-09-24T11:46:16Z</time>
      </trkpt>
      <trkpt lat="48.1988" lon="5.58547">
        <ele>336.105</ele>
        <time>2019-09-24T09:46:22.001Z</time>
      </trkpt>
      <trkpt lat="48.1988" lon="5.58547">
        <ele>336.223</ele>
        <time>2019-09-24T09:46:25.001Z</time>
      </trkpt>
      <trkpt lat="48.1988" lon="5.58549">
        <ele>336.323</ele>
        <time>2019-09-24T09:47:52.001Z</time>
      </trkpt>
      <trkpt lat="48.19881" lon="5.5855">
        <ele>335.977</ele>
        <time>2019-09-24T09:47:55.001Z</time>
      </trkpt>
      <trkpt lat="48.19881" lon="5.5855">
        <ele>335.968</ele>
        <time>2019-09-24T09:47:58.001Z</time>
      </trkpt>
      <trkpt lat="48.19881" lon="5.58551">
        <ele>336.019</ele>
        <time>2019-09-24T09:48:01.001Z</time>
      </trkpt>
      <trkpt lat="48.19881" lon="5.58551">
        <ele>336.019</ele>
        <time>2019-09-24T11:48:16Z</time>
      </trkpt>
      <trkpt lat="48.19882" lon="5.5855">
        <ele>335.541</ele>
        <time>2019-09-24T09:48:19.001Z</time>
      </trkpt>
      <trkpt lat="48.19882" lon="5.5855">
        <ele>335.425</ele>
        <time>2019-09-24T09:48:22.001Z</time>
      </trkpt>
      <trkpt lat="48.19882" lon="5.5855">
        <ele>335.488</ele>
        <time>2019-09-24T09:51:22.001Z</time>
      </trkpt>
      <trkpt lat="48.19878" lon="5.58549">
        <ele>334.759</ele>
        <time>2019-09-24T09:51:25.001Z</time>
      </trkpt>
      <trkpt lat="48.19878" lon="5.58549">
        <ele>334.759</ele>
        <time>2019-09-24T09:51:28.001Z</time>
      </trkpt>
      <trkpt lat="48.19878" lon="5.58549">
        <ele>334.759</ele>
        <time>2019-09-24T09:51:31.001Z</time>
      </trkpt>
      <trkpt lat="48.19878" lon="5.5855">
        <ele>334.589</ele>
        <time>2019-09-24T09:51:34.001Z</time>
      </trkpt>
      <trkpt lat="48.19878" lon="5.58549">
        <ele>334.544</ele>
        <time>2019-09-24T09:51:40.001Z</time>
      </trkpt>
      <trkpt lat="48.19878" lon="5.58549">
        <ele>334.582</ele>
        <time>2019-09-24T09:51:43.001Z</time>
      </trkpt>
      <trkpt lat="48.19878" lon="5.58549">
        <ele>334.582</ele>
        <time>2019-09-24T09:51:46.001Z</time>
      </trkpt>
      <trkpt lat="48.19878" lon="5.58548">
        <ele>334.582</ele>
        <time>2019-09-24T09:51:49.001Z</time>
      </trkpt>
      <trkpt lat="48.19878" lon="5.58548">
        <ele>334.582</ele>
        <time>2019-09-24T09:51:52.001Z</time>
      </trkpt>
      <trkpt lat="48.19878" lon="5.58548">
        <ele>334.582</ele>
        <time>2019-09-24T09:51:55.001Z</time>
      </trkpt>
      <trkpt lat="48.19878" lon="5.58548">
        <ele>334.623</ele>
        <time>2019-09-24T09:53:10.001Z</time>
      </trkpt>
      <trkpt lat="48.1988" lon="5.58547">
        <ele>334.623</ele>
        <time>2019-09-24T09:53:13.001Z</time>
      </trkpt>
      <trkpt lat="48.1988" lon="5.58547">
        <ele>334.623</ele>
        <time>2019-09-24T11:53:16Z</time>
      </trkpt>
      <trkpt lat="48.1988" lon="5.58547">
        <ele>334.623</ele>
        <time>2019-09-24T09:53:19.001Z</time>
      </trkpt>
      <trkpt lat="48.1988" lon="5.58547">
        <ele>334.475</ele>
        <time>2019-09-24T09:55:04.001Z</time>
      </trkpt>
      <trkpt lat="48.19881" lon="5.58548">
        <ele>334.475</ele>
        <time>2019-09-24T09:55:07.001Z</time>
      </trkpt>
      <trkpt lat="48.1988" lon="5.58549">
        <ele>334.411</ele>
        <time>2019-09-24T11:55:16Z</time>
      </trkpt>
      <trkpt lat="48.1988" lon="5.58549">
        <ele>334.411</ele>
        <time>2019-09-24T09:55:19.001Z</time>
      </trkpt>
      <trkpt lat="48.1988" lon="5.58549">
        <ele>334.497</ele>
        <time>2019-09-24T09:59:13.001Z</time>
      </trkpt>
      <trkpt lat="48.19881" lon="5.5855">
        <ele>334.497</ele>
        <time>2019-09-24T11:59:16Z</time>
      </trkpt>
      <trkpt lat="48.1988" lon="5.58548">
        <ele>334.7</ele>
        <time>2019-09-24T09:59:37.001Z</time>
      </trkpt>
      <trkpt lat="48.1988" lon="5.58548">
        <ele>334.7</ele>
        <time>2019-09-24T09:59:40.001Z</time>
      </trkpt>
      <trkpt lat="48.1988" lon="5.58548">
        <ele>335.193</ele>
        <time>2019-09-24T10:05:40.001Z</time>
      </trkpt>
      <trkpt lat="48.1988" lon="5.58548">
        <ele>335.043</ele>
        <time>2019-09-24T10:05:43.001Z</time>
      </trkpt>
      <trkpt lat="48.19879" lon="5.58549">
        <ele>335.043</ele>
        <time>2019-09-24T10:05:46.001Z</time>
      </trkpt>
      <trkpt lat="48.19879" lon="5.58549">
        <ele>335.043</ele>
        <time>2019-09-24T10:05:49.001Z</time>
      </trkpt>
      <trkpt lat="48.19879" lon="5.58549">
        <ele>335.043</ele>
        <time>2019-09-24T12:06:16Z</time>
      </trkpt>
      <trkpt lat="48.19879" lon="5.58549">
        <ele>335.043</ele>
        <time>2019-09-24T10:06:19.001Z</time>
      </trkpt>
      <trkpt lat="48.19879" lon="5.58549">
        <ele>335.043</ele>
        <time>2019-09-24T10:06:28.001Z</time>
      </trkpt>
      <trkpt lat="48.19879" lon="5.58549">
        <ele>335.043</ele>
        <time>2019-09-24T10:06:31.001Z</time>
      </trkpt>
      <trkpt lat="48.19879" lon="5.58549">
        <ele>335.043</ele>
        <time>2019-09-24T10:06:52.001Z</time>
      </trkpt>
      <trkpt lat="48.19879" lon="5.58549">
        <ele>335.043</ele>
        <time>2019-09-24T10:06:55.001Z</time>
      </trkpt>
      <trkpt lat="48.19879" lon="5.5855">
        <ele>335.132</ele>
        <time>2019-09-24T10:07:07.001Z</time>
      </trkpt>
      <trkpt lat="48.19879" lon="5.5855">
        <ele>335.132</ele>
        <time>2019-09-24T10:07:10.001Z</time>
      </trkpt>
      <trkpt lat="48.19879" lon="5.5855">
        <ele>335.132</ele>
        <time>2019-09-24T10:08:01.001Z</time>
      </trkpt>
      <trkpt lat="48.19879" lon="5.5855">
        <ele>334.672</ele>
        <time>2019-09-24T10:08:04.001Z</time>
      </trkpt>
      <trkpt lat="48.19879" lon="5.5855">
        <ele>334.371</ele>
        <time>2019-09-24T10:08:07.001Z</time>
      </trkpt>
      <trkpt lat="48.19879" lon="5.5855">
        <ele>334.371</ele>
        <time>2019-09-24T10:08:10.001Z</time>
      </trkpt>
      <trkpt lat="48.19879" lon="5.5855">
        <ele>333.279</ele>
        <time>2019-09-24T10:09:07.001Z</time>
      </trkpt>
      <trkpt lat="48.1988" lon="5.5855">
        <ele>333.038</ele>
        <time>2019-09-24T10:09:10.001Z</time>
      </trkpt>
      <trkpt lat="48.19878" lon="5.58549">
        <ele>331.642</ele>
        <time>2019-09-24T12:09:16Z</time>
      </trkpt>
      <trkpt lat="48.19878" lon="5.58549">
        <ele>331.642</ele>
        <time>2019-09-24T10:09:19.001Z</time>
      </trkpt>
      <trkpt lat="48.19878" lon="5.58549">
        <ele>331.642</ele>
        <time>2019-09-24T10:09:31.001Z</time>
      </trkpt>
      <trkpt lat="48.19878" lon="5.58549">
        <ele>331.817</ele>
        <time>2019-09-24T10:09:34.001Z</time>
      </trkpt>
      <trkpt lat="48.19878" lon="5.5855">
        <ele>331.817</ele>
        <time>2019-09-24T10:09:55.001Z</time>
      </trkpt>
      <trkpt lat="48.19878" lon="5.5855">
        <ele>331.817</ele>
        <time>2019-09-24T10:09:58.001Z</time>
      </trkpt>
      <trkpt lat="48.19878" lon="5.5855">
        <ele>331.817</ele>
        <time>2019-09-24T10:10:13.001Z</time>
      </trkpt>
      <trkpt lat="48.19878" lon="5.58551">
        <ele>331.817</ele>
        <time>2019-09-24T12:10:16Z</time>
      </trkpt>
      <trkpt lat="48.19878" lon="5.58551">
        <ele>331.817</ele>
        <time>2019-09-24T10:10:31.001Z</time>
      </trkpt>
      <trkpt lat="48.19878" lon="5.58551">
        <ele>331.817</ele>
        <time>2019-09-24T10:10:34.001Z</time>
      </trkpt>
      <trkpt lat="48.19878" lon="5.58551">
        <ele>331.817</ele>
        <time>2019-09-24T10:10:37.001Z</time>
      </trkpt>
      <trkpt lat="48.19878" lon="5.58551">
        <ele>331.817</ele>
        <time>2019-09-24T10:10:40.001Z</time>
      </trkpt>
      <trkpt lat="48.19878" lon="5.58551">
        <ele>331.817</ele>
        <time>2019-09-24T10:10:43.001Z</time>
      </trkpt>
      <trkpt lat="48.19878" lon="5.58551">
        <ele>331.086</ele>
        <time>2019-09-24T10:11:31.001Z</time>
      </trkpt>
      <trkpt lat="48.19873" lon="5.58537">
        <ele>331.274</ele>
        <time>2019-09-24T10:11:34.001Z</time>
      </trkpt>
      <trkpt lat="48.19869" lon="5.58531">
        <ele>331.611</ele>
        <time>2019-09-24T10:11:37.001Z</time>
      </trkpt>
      <trkpt lat="48.19863" lon="5.58523">
        <ele>332.251</ele>
        <time>2019-09-24T10:11:40.001Z</time>
      </trkpt>
      <trkpt lat="48.19857" lon="5.58515">
        <ele>333.616</ele>
        <time>2019-09-24T10:11:43.001Z</time>
      </trkpt>
      <trkpt lat="48.1985" lon="5.58508">
        <ele>335.198</ele>
        <time>2019-09-24T10:11:46.001Z</time>
      </trkpt>
      <trkpt lat="48.19842" lon="5.585">
        <ele>335.548</ele>
        <time>2019-09-24T10:11:49.001Z</time>
      </trkpt>
      <trkpt lat="48.19836" lon="5.58494">
        <ele>335.288</ele>
        <time>2019-09-24T10:11:52.001Z</time>
      </trkpt>
      <trkpt lat="48.19828" lon="5.58487">
        <ele>334.895</ele>
        <time>2019-09-24T10:11:55.001Z</time>
      </trkpt>
      <trkpt lat="48.19821" lon="5.58481">
        <ele>334.516</ele>
        <time>2019-09-24T10:11:58.001Z</time>
      </trkpt>
      <trkpt lat="48.19813" lon="5.58477">
        <ele>334.093</ele>
        <time>2019-09-24T10:12:01.001Z</time>
      </trkpt>
      <trkpt lat="48.19805" lon="5.58473">
        <ele>334.093</ele>
        <time>2019-09-24T10:12:04.001Z</time>
      </trkpt>
      <trkpt lat="48.19797" lon="5.5847">
        <ele>334.041</ele>
        <time>2019-09-24T10:12:07.001Z</time>
      </trkpt>
      <trkpt lat="48.1979" lon="5.58466">
        <ele>334.365</ele>
        <time>2019-09-24T10:12:10.001Z</time>
      </trkpt>
      <trkpt lat="48.19784" lon="5.58464">
        <ele>334.758</ele>
        <time>2019-09-24T10:12:13.001Z</time>
      </trkpt>
      <trkpt lat="48.19777" lon="5.5846">
        <ele>335.669</ele>
        <time>2019-09-24T12:12:16Z</time>
      </trkpt>
      <trkpt lat="48.19769" lon="5.58457">
        <ele>336.497</ele>
        <time>2019-09-24T10:12:19.001Z</time>
      </trkpt>
      <trkpt lat="48.19762" lon="5.58454">
        <ele>336.904</ele>
        <time>2019-09-24T10:12:22.001Z</time>
      </trkpt>
      <trkpt lat="48.19756" lon="5.58451">
        <ele>337.375</ele>
        <time>2019-09-24T10:12:25.001Z</time>
      </trkpt>
      <trkpt lat="48.19748" lon="5.58448">
        <ele>338.151</ele>
        <time>2019-09-24T10:12:28.001Z</time>
      </trkpt>
      <trkpt lat="48.19743" lon="5.58445">
        <ele>338.788</ele>
        <time>2019-09-24T10:12:31.001Z</time>
      </trkpt>
      <trkpt lat="48.19736" lon="5.58443">
        <ele>339.564</ele>
        <time>2019-09-24T10:12:34.001Z</time>
      </trkpt>
      <trkpt lat="48.1973" lon="5.58441">
        <ele>340.496</ele>
        <time>2019-09-24T10:12:37.001Z</time>
      </trkpt>
      <trkpt lat="48.19723" lon="5.58438">
        <ele>341.457</ele>
        <time>2019-09-24T10:12:40.001Z</time>
      </trkpt>
      <trkpt lat="48.19716" lon="5.58434">
        <ele>342.194</ele>
        <time>2019-09-24T10:12:43.001Z</time>
      </trkpt>
      <trkpt lat="48.19709" lon="5.5843">
        <ele>343.063</ele>
        <time>2019-09-24T10:12:46.001Z</time>
      </trkpt>
      <trkpt lat="48.19702" lon="5.58427">
        <ele>343.991</ele>
        <time>2019-09-24T10:12:49.001Z</time>
      </trkpt>
      <trkpt lat="48.19695" lon="5.58424">
        <ele>344.676</ele>
        <time>2019-09-24T10:12:52.001Z</time>
      </trkpt>
      <trkpt lat="48.19688" lon="5.58422">
        <ele>345.23</ele>
        <time>2019-09-24T10:12:55.001Z</time>
      </trkpt>
      <trkpt lat="48.19682" lon="5.58419">
        <ele>345.774</ele>
        <time>2019-09-24T10:12:58.001Z</time>
      </trkpt>
      <trkpt lat="48.19674" lon="5.58416">
        <ele>346.252</ele>
        <time>2019-09-24T10:13:01.002Z</time>
      </trkpt>
      <trkpt lat="48.19669" lon="5.58412">
        <ele>346.128</ele>
        <time>2019-09-24T10:13:04.001Z</time>
      </trkpt>
      <trkpt lat="48.19663" lon="5.58409">
        <ele>347.026</ele>
        <time>2019-09-24T10:13:07.001Z</time>
      </trkpt>
      <trkpt lat="48.19656" lon="5.58406">
        <ele>348.192</ele>
        <time>2019-09-24T10:13:10.001Z</time>
      </trkpt>
      <trkpt lat="48.1965" lon="5.58404">
        <ele>349.363</ele>
        <time>2019-09-24T10:13:13.001Z</time>
      </trkpt>
      <trkpt lat="48.19644" lon="5.58402">
        <ele>349.85</ele>
        <time>2019-09-24T12:13:16Z</time>
      </trkpt>
      <trkpt lat="48.19637" lon="5.58399">
        <ele>349.572</ele>
        <time>2019-09-24T10:13:19.001Z</time>
      </trkpt>
      <trkpt lat="48.1963" lon="5.58395">
        <ele>348.844</ele>
        <time>2019-09-24T10:13:22.001Z</time>
      </trkpt>
      <trkpt lat="48.19624" lon="5.58392">
        <ele>347.878</ele>
        <time>2019-09-24T10:13:25.001Z</time>
      </trkpt>
      <trkpt lat="48.19617" lon="5.58389">
        <ele>347.425</ele>
        <time>2019-09-24T10:13:28.001Z</time>
      </trkpt>
      <trkpt lat="48.19611" lon="5.58386">
        <ele>347.77</ele>
        <time>2019-09-24T10:13:31.001Z</time>
      </trkpt>
      <trkpt lat="48.19606" lon="5.58384">
        <ele>348.062</ele>
        <time>2019-09-24T10:13:34.001Z</time>
      </trkpt>
      <trkpt lat="48.19601" lon="5.58381">
        <ele>348.422</ele>
        <time>2019-09-24T10:13:37.001Z</time>
      </trkpt>
      <trkpt lat="48.19595" lon="5.58378">
        <ele>348.931</ele>
        <time>2019-09-24T10:13:40.001Z</time>
      </trkpt>
      <trkpt lat="48.19589" lon="5.58375">
        <ele>349.259</ele>
        <time>2019-09-24T10:13:43.001Z</time>
      </trkpt>
      <trkpt lat="48.19582" lon="5.58372">
        <ele>349.853</ele>
        <time>2019-09-24T10:13:46.001Z</time>
      </trkpt>
      <trkpt lat="48.19576" lon="5.5837">
        <ele>350.332</ele>
        <time>2019-09-24T10:13:49.001Z</time>
      </trkpt>
      <trkpt lat="48.1957" lon="5.58368">
        <ele>350.511</ele>
        <time>2019-09-24T10:13:52.001Z</time>
      </trkpt>
      <trkpt lat="48.19564" lon="5.58366">
        <ele>350.288</ele>
        <time>2019-09-24T10:13:55.001Z</time>
      </trkpt>
      <trkpt lat="48.19558" lon="5.58362">
        <ele>350.493</ele>
        <time>2019-09-24T10:13:58.001Z</time>
      </trkpt>
      <trkpt lat="48.19552" lon="5.58359">
        <ele>350.883</ele>
        <time>2019-09-24T10:14:01.001Z</time>
      </trkpt>
      <trkpt lat="48.19545" lon="5.58356">
        <ele>350.769</ele>
        <time>2019-09-24T10:14:04.001Z</time>
      </trkpt>
      <trkpt lat="48.19538" lon="5.58355">
        <ele>350.782</ele>
        <time>2019-09-24T10:14:07.001Z</time>
      </trkpt>
      <trkpt lat="48.19531" lon="5.58352">
        <ele>351.001</ele>
        <time>2019-09-24T10:14:10.001Z</time>
      </trkpt>
      <trkpt lat="48.19525" lon="5.58348">
        <ele>351.109</ele>
        <time>2019-09-24T10:14:13.001Z</time>
      </trkpt>
      <trkpt lat="48.1952" lon="5.58345">
        <ele>350.735</ele>
        <time>2019-09-24T12:14:16Z</time>
      </trkpt>
      <trkpt lat="48.19514" lon="5.58343">
        <ele>350.474</ele>
        <time>2019-09-24T10:14:19.001Z</time>
      </trkpt>
      <trkpt lat="48.19508" lon="5.5834">
        <ele>350.3</ele>
        <time>2019-09-24T10:14:22.001Z</time>
      </trkpt>
      <trkpt lat="48.19502" lon="5.58337">
        <ele>350.629</ele>
        <time>2019-09-24T10:14:25.001Z</time>
      </trkpt>
      <trkpt lat="48.19496" lon="5.58334">
        <ele>351.052</ele>
        <time>2019-09-24T10:14:28.001Z</time>
      </trkpt>
      <trkpt lat="48.1949" lon="5.58331">
        <ele>351.466</ele>
        <time>2019-09-24T10:14:31.001Z</time>
      </trkpt>
      <trkpt lat="48.19485" lon="5.58329">
        <ele>351.764</ele>
        <time>2019-09-24T10:14:34.001Z</time>
      </trkpt>
      <trkpt lat="48.1948" lon="5.58327">
        <ele>351.527</ele>
        <time>2019-09-24T10:14:37.001Z</time>
      </trkpt>
      <trkpt lat="48.19473" lon="5.58324">
        <ele>351.821</ele>
        <time>2019-09-24T10:14:40.001Z</time>
      </trkpt>
      <trkpt lat="48.19467" lon="5.58321">
        <ele>352.149</ele>
        <time>2019-09-24T10:14:43.001Z</time>
      </trkpt>
      <trkpt lat="48.19461" lon="5.58318">
        <ele>352.969</ele>
        <time>2019-09-24T10:14:46.001Z</time>
      </trkpt>
      <trkpt lat="48.19454" lon="5.58314">
        <ele>353.943</ele>
        <time>2019-09-24T10:14:49.001Z</time>
      </trkpt>
      <trkpt lat="48.19448" lon="5.58312">
        <ele>354.778</ele>
        <time>2019-09-24T10:14:52.001Z</time>
      </trkpt>
      <trkpt lat="48.19442" lon="5.58309">
        <ele>355.649</ele>
        <time>2019-09-24T10:14:55.001Z</time>
      </trkpt>
      <trkpt lat="48.19435" lon="5.58307">
        <ele>355.744</ele>
        <time>2019-09-24T10:14:58.001Z</time>
      </trkpt>
      <trkpt lat="48.19429" lon="5.58304">
        <ele>355.752</ele>
        <time>2019-09-24T10:15:01.001Z</time>
      </trkpt>
      <trkpt lat="48.19424" lon="5.58301">
        <ele>356.208</ele>
        <time>2019-09-24T10:15:04.001Z</time>
      </trkpt>
      <trkpt lat="48.19418" lon="5.58299">
        <ele>356.583</ele>
        <time>2019-09-24T10:15:07.001Z</time>
      </trkpt>
      <trkpt lat="48.19413" lon="5.58298">
        <ele>357.29</ele>
        <time>2019-09-24T10:15:10.001Z</time>
      </trkpt>
      <trkpt lat="48.19407" lon="5.58294">
        <ele>357.818</ele>
        <time>2019-09-24T10:15:13.001Z</time>
      </trkpt>
      <trkpt lat="48.194" lon="5.5829">
        <ele>358.363</ele>
        <time>2019-09-24T12:15:16Z</time>
      </trkpt>
      <trkpt lat="48.19394" lon="5.58286">
        <ele>358.69</ele>
        <time>2019-09-24T10:15:19.001Z</time>
      </trkpt>
      <trkpt lat="48.19388" lon="5.58285">
        <ele>358.898</ele>
        <time>2019-09-24T10:15:22.001Z</time>
      </trkpt>
      <trkpt lat="48.19383" lon="5.58283">
        <ele>359.224</ele>
        <time>2019-09-24T10:15:25.001Z</time>
      </trkpt>
      <trkpt lat="48.19377" lon="5.58281">
        <ele>359.522</ele>
        <time>2019-09-24T10:15:28.001Z</time>
      </trkpt>
      <trkpt lat="48.19372" lon="5.58279">
        <ele>359.857</ele>
        <time>2019-09-24T10:15:31.001Z</time>
      </trkpt>
      <trkpt lat="48.19366" lon="5.58277">
        <ele>360.333</ele>
        <time>2019-09-24T10:15:34.001Z</time>
      </trkpt>
      <trkpt lat="48.19361" lon="5.58275">
        <ele>360.977</ele>
        <time>2019-09-24T10:15:37.001Z</time>
      </trkpt>
      <trkpt lat="48.19356" lon="5.58273">
        <ele>361.52</ele>
        <time>2019-09-24T10:15:40.001Z</time>
      </trkpt>
      <trkpt lat="48.19349" lon="5.5827">
        <ele>361.842</ele>
        <time>2019-09-24T10:15:43.001Z</time>
      </trkpt>
      <trkpt lat="48.19344" lon="5.58267">
        <ele>361.942</ele>
        <time>2019-09-24T10:15:46.001Z</time>
      </trkpt>
      <trkpt lat="48.19338" lon="5.58264">
        <ele>362.101</ele>
        <time>2019-09-24T10:15:49.001Z</time>
      </trkpt>
      <trkpt lat="48.19333" lon="5.58262">
        <ele>362.592</ele>
        <time>2019-09-24T10:15:52.001Z</time>
      </trkpt>
      <trkpt lat="48.19327" lon="5.58259">
        <ele>362.81</ele>
        <time>2019-09-24T10:15:55.001Z</time>
      </trkpt>
      <trkpt lat="48.19322" lon="5.58257">
        <ele>363.167</ele>
        <time>2019-09-24T10:15:58.001Z</time>
      </trkpt>
      <trkpt lat="48.19315" lon="5.58254">
        <ele>363.638</ele>
        <time>2019-09-24T10:16:01.001Z</time>
      </trkpt>
      <trkpt lat="48.19309" lon="5.58251">
        <ele>364.037</ele>
        <time>2019-09-24T10:16:04.001Z</time>
      </trkpt>
      <trkpt lat="48.19302" lon="5.5825">
        <ele>364.952</ele>
        <time>2019-09-24T10:16:07.001Z</time>
      </trkpt>
      <trkpt lat="48.19296" lon="5.58248">
        <ele>365.068</ele>
        <time>2019-09-24T10:16:10.001Z</time>
      </trkpt>
      <trkpt lat="48.1929" lon="5.58246">
        <ele>365.39</ele>
        <time>2019-09-24T10:16:13.001Z</time>
      </trkpt>
      <trkpt lat="48.19285" lon="5.58243">
        <ele>365.912</ele>
        <time>2019-09-24T12:16:16Z</time>
      </trkpt>
      <trkpt lat="48.19279" lon="5.58241">
        <ele>366.324</ele>
        <time>2019-09-24T10:16:19.001Z</time>
      </trkpt>
      <trkpt lat="48.19272" lon="5.58238">
        <ele>366.574</ele>
        <time>2019-09-24T10:16:22.001Z</time>
      </trkpt>
      <trkpt lat="48.19266" lon="5.58235">
        <ele>366.752</ele>
        <time>2019-09-24T10:16:25.001Z</time>
      </trkpt>
      <trkpt lat="48.19259" lon="5.58232">
        <ele>367.076</ele>
        <time>2019-09-24T10:16:28.001Z</time>
      </trkpt>
      <trkpt lat="48.19252" lon="5.58229">
        <ele>367.172</ele>
        <time>2019-09-24T10:16:31.001Z</time>
      </trkpt>
      <trkpt lat="48.19247" lon="5.58227">
        <ele>367.368</ele>
        <time>2019-09-24T10:16:34.001Z</time>
      </trkpt>
      <trkpt lat="48.19242" lon="5.58225">
        <ele>367.474</ele>
        <time>2019-09-24T10:16:37.001Z</time>
      </trkpt>
      <trkpt lat="48.19236" lon="5.58223">
        <ele>367.41</ele>
        <time>2019-09-24T10:16:40.001Z</time>
      </trkpt>
      <trkpt lat="48.19229" lon="5.58221">
        <ele>367.591</ele>
        <time>2019-09-24T10:16:43.001Z</time>
      </trkpt>
      <trkpt lat="48.19222" lon="5.58219">
        <ele>368.112</ele>
        <time>2019-09-24T10:16:46.001Z</time>
      </trkpt>
      <trkpt lat="48.19216" lon="5.58218">
        <ele>368.912</ele>
        <time>2019-09-24T10:16:49.001Z</time>
      </trkpt>
      <trkpt lat="48.1921" lon="5.58215">
        <ele>368.87</ele>
        <time>2019-09-24T10:16:52.001Z</time>
      </trkpt>
      <trkpt lat="48.19204" lon="5.58213">
        <ele>368.444</ele>
        <time>2019-09-24T10:16:55.001Z</time>
      </trkpt>
      <trkpt lat="48.19198" lon="5.58211">
        <ele>368.495</ele>
        <time>2019-09-24T10:16:58.001Z</time>
      </trkpt>
      <trkpt lat="48.19192" lon="5.5821">
        <ele>368.37</ele>
        <time>2019-09-24T10:17:01.001Z</time>
      </trkpt>
      <trkpt lat="48.19186" lon="5.58209">
        <ele>368.047</ele>
        <time>2019-09-24T10:17:04.001Z</time>
      </trkpt>
      <trkpt lat="48.19179" lon="5.58207">
        <ele>368.031</ele>
        <time>2019-09-24T10:17:07.001Z</time>
      </trkpt>
      <trkpt lat="48.19172" lon="5.58206">
        <ele>367.952</ele>
        <time>2019-09-24T10:17:10.001Z</time>
      </trkpt>
      <trkpt lat="48.19166" lon="5.58204">
        <ele>367.978</ele>
        <time>2019-09-24T10:17:13.001Z</time>
      </trkpt>
      <trkpt lat="48.1916" lon="5.58204">
        <ele>368.175</ele>
        <time>2019-09-24T12:17:16Z</time>
      </trkpt>
      <trkpt lat="48.19154" lon="5.58203">
        <ele>368.609</ele>
        <time>2019-09-24T10:17:19.001Z</time>
      </trkpt>
      <trkpt lat="48.19148" lon="5.58201">
        <ele>369.291</ele>
        <time>2019-09-24T10:17:22.001Z</time>
      </trkpt>
      <trkpt lat="48.19142" lon="5.58201">
        <ele>369.873</ele>
        <time>2019-09-24T10:17:25.001Z</time>
      </trkpt>
      <trkpt lat="48.19135" lon="5.58201">
        <ele>370.723</ele>
        <time>2019-09-24T10:17:28.001Z</time>
      </trkpt>
      <trkpt lat="48.19129" lon="5.58202">
        <ele>371.512</ele>
        <time>2019-09-24T10:17:31.001Z</time>
      </trkpt>
      <trkpt lat="48.19123" lon="5.58202">
        <ele>372.569</ele>
        <time>2019-09-24T10:17:34.001Z</time>
      </trkpt>
      <trkpt lat="48.19117" lon="5.58203">
        <ele>373.609</ele>
        <time>2019-09-24T10:17:37.001Z</time>
      </trkpt>
      <trkpt lat="48.19111" lon="5.58203">
        <ele>374.481</ele>
        <time>2019-09-24T10:17:40.001Z</time>
      </trkpt>
      <trkpt lat="48.19103" lon="5.58203">
        <ele>375.151</ele>
        <time>2019-09-24T10:17:43.001Z</time>
      </trkpt>
      <trkpt lat="48.19097" lon="5.58204">
        <ele>375.278</ele>
        <time>2019-09-24T10:17:46.001Z</time>
      </trkpt>
      <trkpt lat="48.1909" lon="5.58205">
        <ele>375.495</ele>
        <time>2019-09-24T10:17:49.001Z</time>
      </trkpt>
      <trkpt lat="48.19083" lon="5.58206">
        <ele>376.766</ele>
        <time>2019-09-24T10:17:52.001Z</time>
      </trkpt>
      <trkpt lat="48.19078" lon="5.58207">
        <ele>377.261</ele>
        <time>2019-09-24T10:17:55.001Z</time>
      </trkpt>
      <trkpt lat="48.19071" lon="5.58209">
        <ele>377.272</ele>
        <time>2019-09-24T10:17:58.001Z</time>
      </trkpt>
      <trkpt lat="48.19065" lon="5.5821">
        <ele>377.046</ele>
        <time>2019-09-24T10:18:01.001Z</time>
      </trkpt>
      <trkpt lat="48.19058" lon="5.58211">
        <ele>376.725</ele>
        <time>2019-09-24T10:18:04.001Z</time>
      </trkpt>
      <trkpt lat="48.19052" lon="5.5821">
        <ele>376.646</ele>
        <time>2019-09-24T10:18:07.001Z</time>
      </trkpt>
      <trkpt lat="48.19045" lon="5.58209">
        <ele>377.26</ele>
        <time>2019-09-24T10:18:10.001Z</time>
      </trkpt>
      <trkpt lat="48.19038" lon="5.58204">
        <ele>378.217</ele>
        <time>2019-09-24T10:18:13.001Z</time>
      </trkpt>
      <trkpt lat="48.1903" lon="5.58195">
        <ele>379.003</ele>
        <time>2019-09-24T12:18:16Z</time>
      </trkpt>
      <trkpt lat="48.1902" lon="5.58183">
        <ele>379.138</ele>
        <time>2019-09-24T10:18:19.001Z</time>
      </trkpt>
      <trkpt lat="48.19006" lon="5.5817">
        <ele>379.275</ele>
        <time>2019-09-24T10:18:22.001Z</time>
      </trkpt>
      <trkpt lat="48.18987" lon="5.5816">
        <ele>379.127</ele>
        <time>2019-09-24T10:18:25.001Z</time>
      </trkpt>
      <trkpt lat="48.18967" lon="5.58152">
        <ele>378.523</ele>
        <time>2019-09-24T10:18:28.001Z</time>
      </trkpt>
      <trkpt lat="48.18947" lon="5.58143">
        <ele>377.94</ele>
        <time>2019-09-24T10:18:31.001Z</time>
      </trkpt>
      <trkpt lat="48.18925" lon="5.58137">
        <ele>377.069</ele>
        <time>2019-09-24T10:18:34.001Z</time>
      </trkpt>
      <trkpt lat="48.18902" lon="5.58131">
        <ele>375.474</ele>
        <time>2019-09-24T10:18:37.001Z</time>
      </trkpt>
      <trkpt lat="48.18876" lon="5.58126">
        <ele>373.684</ele>
        <time>2019-09-24T10:18:40.001Z</time>
      </trkpt>
      <trkpt lat="48.18848" lon="5.58122">
        <ele>371.965</ele>
        <time>2019-09-24T10:18:43.001Z</time>
      </trkpt>
      <trkpt lat="48.18816" lon="5.58121">
        <ele>370.282</ele>
        <time>2019-09-24T10:18:46.001Z</time>
      </trkpt>
      <trkpt lat="48.18784" lon="5.58121">
        <ele>368.717</ele>
        <time>2019-09-24T10:18:49.001Z</time>
      </trkpt>
      <trkpt lat="48.18752" lon="5.58124">
        <ele>366.666</ele>
        <time>2019-09-24T10:18:52.001Z</time>
      </trkpt>
      <trkpt lat="48.18718" lon="5.58131">
        <ele>365.18</ele>
        <time>2019-09-24T10:18:55.001Z</time>
      </trkpt>
      <trkpt lat="48.18686" lon="5.58139">
        <ele>363.188</ele>
        <time>2019-09-24T10:18:58.001Z</time>
      </trkpt>
      <trkpt lat="48.18653" lon="5.58145">
        <ele>359.936</ele>
        <time>2019-09-24T10:19:01.001Z</time>
      </trkpt>
      <trkpt lat="48.1862" lon="5.58151">
        <ele>356.633</ele>
        <time>2019-09-24T10:19:04.001Z</time>
      </trkpt>
      <trkpt lat="48.18588" lon="5.58165">
        <ele>353.562</ele>
        <time>2019-09-24T10:19:07.001Z</time>
      </trkpt>
      <trkpt lat="48.18559" lon="5.58186">
        <ele>351.824</ele>
        <time>2019-09-24T10:19:10.001Z</time>
      </trkpt>
      <trkpt lat="48.1853" lon="5.58212">
        <ele>350.267</ele>
        <time>2019-09-24T10:19:13.001Z</time>
      </trkpt>
      <trkpt lat="48.18501" lon="5.58245">
        <ele>348.457</ele>
        <time>2019-09-24T12:19:16Z</time>
      </trkpt>
      <trkpt lat="48.18472" lon="5.58276">
        <ele>346.405</ele>
        <time>2019-09-24T10:19:19.001Z</time>
      </trkpt>
      <trkpt lat="48.18436" lon="5.5829">
        <ele>343.319</ele>
        <time>2019-09-24T10:19:22.001Z</time>
      </trkpt>
      <trkpt lat="48.18397" lon="5.58283">
        <ele>339.787</ele>
        <time>2019-09-24T10:19:25.001Z</time>
      </trkpt>
      <trkpt lat="48.18359" lon="5.58259">
        <ele>335.946</ele>
        <time>2019-09-24T10:19:28.001Z</time>
      </trkpt>
      <trkpt lat="48.18325" lon="5.58221">
        <ele>332.619</ele>
        <time>2019-09-24T10:19:31.001Z</time>
      </trkpt>
      <trkpt lat="48.18293" lon="5.58182">
        <ele>329.181</ele>
        <time>2019-09-24T10:19:34.001Z</time>
      </trkpt>
      <trkpt lat="48.18257" lon="5.58153">
        <ele>326.191</ele>
        <time>2019-09-24T10:19:37.001Z</time>
      </trkpt>
      <trkpt lat="48.18217" lon="5.58136">
        <ele>322.83</ele>
        <time>2019-09-24T10:19:40.001Z</time>
      </trkpt>
      <trkpt lat="48.1818" lon="5.5813">
        <ele>319.655</ele>
        <time>2019-09-24T10:19:43.001Z</time>
      </trkpt>
      <trkpt lat="48.18145" lon="5.58129">
        <ele>316.327</ele>
        <time>2019-09-24T10:19:46.001Z</time>
      </trkpt>
      <trkpt lat="48.18114" lon="5.58126">
        <ele>314.001</ele>
        <time>2019-09-24T10:19:49.001Z</time>
      </trkpt>
      <trkpt lat="48.18086" lon="5.5812">
        <ele>312.679</ele>
        <time>2019-09-24T10:19:52.001Z</time>
      </trkpt>
      <trkpt lat="48.18061" lon="5.58113">
        <ele>311.424</ele>
        <time>2019-09-24T10:19:55.001Z</time>
      </trkpt>
      <trkpt lat="48.18037" lon="5.58105">
        <ele>311.199</ele>
        <time>2019-09-24T10:19:58.001Z</time>
      </trkpt>
      <trkpt lat="48.18015" lon="5.58097">
        <ele>310.694</ele>
        <time>2019-09-24T10:20:01.001Z</time>
      </trkpt>
      <trkpt lat="48.17994" lon="5.58089">
        <ele>309.945</ele>
        <time>2019-09-24T10:20:04.001Z</time>
      </trkpt>
      <trkpt lat="48.17974" lon="5.5808">
        <ele>309.977</ele>
        <time>2019-09-24T10:20:07.001Z</time>
      </trkpt>
      <trkpt lat="48.17956" lon="5.58074">
        <ele>309.994</ele>
        <time>2019-09-24T10:20:10.001Z</time>
      </trkpt>
      <trkpt lat="48.1794" lon="5.5807">
        <ele>309.737</ele>
        <time>2019-09-24T10:20:13.001Z</time>
      </trkpt>
      <trkpt lat="48.17924" lon="5.5807">
        <ele>309.641</ele>
        <time>2019-09-24T12:20:16Z</time>
      </trkpt>
      <trkpt lat="48.17909" lon="5.58075">
        <ele>310.282</ele>
        <time>2019-09-24T10:20:19.001Z</time>
      </trkpt>
      <trkpt lat="48.17895" lon="5.5808">
        <ele>309.9</ele>
        <time>2019-09-24T10:20:22.001Z</time>
      </trkpt>
      <trkpt lat="48.1788" lon="5.58081">
        <ele>310.076</ele>
        <time>2019-09-24T10:20:25.001Z</time>
      </trkpt>
      <trkpt lat="48.17867" lon="5.58078">
        <ele>311.35</ele>
        <time>2019-09-24T10:20:28.001Z</time>
      </trkpt>
      <trkpt lat="48.17855" lon="5.58072">
        <ele>311.66</ele>
        <time>2019-09-24T10:20:31.001Z</time>
      </trkpt>
      <trkpt lat="48.17843" lon="5.5806">
        <ele>312.286</ele>
        <time>2019-09-24T10:20:34.001Z</time>
      </trkpt>
      <trkpt lat="48.17835" lon="5.58045">
        <ele>312.462</ele>
        <time>2019-09-24T10:20:37.001Z</time>
      </trkpt>
      <trkpt lat="48.17832" lon="5.58024">
        <ele>312.797</ele>
        <time>2019-09-24T10:20:40.001Z</time>
      </trkpt>
      <trkpt lat="48.17834" lon="5.58001">
        <ele>313.183</ele>
        <time>2019-09-24T10:20:43.001Z</time>
      </trkpt>
      <trkpt lat="48.17836" lon="5.5798">
        <ele>313.995</ele>
        <time>2019-09-24T10:20:46.001Z</time>
      </trkpt>
      <trkpt lat="48.1784" lon="5.57963">
        <ele>314.92</ele>
        <time>2019-09-24T10:20:49.001Z</time>
      </trkpt>
      <trkpt lat="48.17845" lon="5.57942">
        <ele>315.6</ele>
        <time>2019-09-24T10:20:52.001Z</time>
      </trkpt>
      <trkpt lat="48.17855" lon="5.5792">
        <ele>316.211</ele>
        <time>2019-09-24T10:20:55.001Z</time>
      </trkpt>
      <trkpt lat="48.17864" lon="5.57897">
        <ele>316.59</ele>
        <time>2019-09-24T10:20:58.001Z</time>
      </trkpt>
      <trkpt lat="48.17871" lon="5.57873">
        <ele>316.444</ele>
        <time>2019-09-24T10:21:01.001Z</time>
      </trkpt>
      <trkpt lat="48.17864" lon="5.57854">
        <ele>316.474</ele>
        <time>2019-09-24T10:21:04.001Z</time>
      </trkpt>
      <trkpt lat="48.17847" lon="5.57845">
        <ele>316.347</ele>
        <time>2019-09-24T10:21:07.001Z</time>
      </trkpt>
      <trkpt lat="48.17831" lon="5.57837">
        <ele>316.495</ele>
        <time>2019-09-24T10:21:10.001Z</time>
      </trkpt>
      <trkpt lat="48.17816" lon="5.57832">
        <ele>316.384</ele>
        <time>2019-09-24T10:21:13.001Z</time>
      </trkpt>
      <trkpt lat="48.17801" lon="5.57826">
        <ele>315.901</ele>
        <time>2019-09-24T12:21:16Z</time>
      </trkpt>
      <trkpt lat="48.17785" lon="5.5782">
        <ele>315.614</ele>
        <time>2019-09-24T10:21:19.001Z</time>
      </trkpt>
      <trkpt lat="48.17769" lon="5.57815">
        <ele>314.998</ele>
        <time>2019-09-24T10:21:22.001Z</time>
      </trkpt>
      <trkpt lat="48.17753" lon="5.5781">
        <ele>314.382</ele>
        <time>2019-09-24T10:21:25.001Z</time>
      </trkpt>
      <trkpt lat="48.17738" lon="5.57805">
        <ele>313.953</ele>
        <time>2019-09-24T10:21:28.001Z</time>
      </trkpt>
      <trkpt lat="48.17723" lon="5.57801">
        <ele>313.49</ele>
        <time>2019-09-24T10:21:31.001Z</time>
      </trkpt>
      <trkpt lat="48.17709" lon="5.57797">
        <ele>313.339</ele>
        <time>2019-09-24T10:21:34.001Z</time>
      </trkpt>
      <trkpt lat="48.17695" lon="5.57794">
        <ele>313.55</ele>
        <time>2019-09-24T10:21:37.001Z</time>
      </trkpt>
      <trkpt lat="48.1768" lon="5.5779">
        <ele>313.807</ele>
        <time>2019-09-24T10:21:40.001Z</time>
      </trkpt>
      <trkpt lat="48.17666" lon="5.57785">
        <ele>313.685</ele>
        <time>2019-09-24T10:21:43.001Z</time>
      </trkpt>
      <trkpt lat="48.17651" lon="5.5778">
        <ele>313.883</ele>
        <time>2019-09-24T10:21:46.001Z</time>
      </trkpt>
      <trkpt lat="48.17638" lon="5.57775">
        <ele>313.936</ele>
        <time>2019-09-24T10:21:49.001Z</time>
      </trkpt>
      <trkpt lat="48.17624" lon="5.57769">
        <ele>313.949</ele>
        <time>2019-09-24T10:21:52.001Z</time>
      </trkpt>
      <trkpt lat="48.1761" lon="5.57763">
        <ele>314.351</ele>
        <time>2019-09-24T10:21:55.001Z</time>
      </trkpt>
      <trkpt lat="48.17595" lon="5.57757">
        <ele>314.765</ele>
        <time>2019-09-24T10:21:58.001Z</time>
      </trkpt>
      <trkpt lat="48.17581" lon="5.57749">
        <ele>314.717</ele>
        <time>2019-09-24T10:22:01.001Z</time>
      </trkpt>
      <trkpt lat="48.17568" lon="5.57742">
        <ele>314.664</ele>
        <time>2019-09-24T10:22:04.001Z</time>
      </trkpt>
      <trkpt lat="48.17556" lon="5.57735">
        <ele>315.062</ele>
        <time>2019-09-24T10:22:07.001Z</time>
      </trkpt>
      <trkpt lat="48.17544" lon="5.57729">
        <ele>315.178</ele>
        <time>2019-09-24T10:22:10.001Z</time>
      </trkpt>
      <trkpt lat="48.17532" lon="5.57722">
        <ele>315.164</ele>
        <time>2019-09-24T10:22:13.001Z</time>
      </trkpt>
      <trkpt lat="48.17519" lon="5.57716">
        <ele>315.516</ele>
        <time>2019-09-24T12:22:16Z</time>
      </trkpt>
      <trkpt lat="48.17505" lon="5.57708">
        <ele>315.249</ele>
        <time>2019-09-24T10:22:19.001Z</time>
      </trkpt>
      <trkpt lat="48.17492" lon="5.577">
        <ele>315.086</ele>
        <time>2019-09-24T10:22:22.001Z</time>
      </trkpt>
      <trkpt lat="48.17479" lon="5.57692">
        <ele>315.132</ele>
        <time>2019-09-24T10:22:25.001Z</time>
      </trkpt>
      <trkpt lat="48.17467" lon="5.57685">
        <ele>315.307</ele>
        <time>2019-09-24T10:22:28.001Z</time>
      </trkpt>
      <trkpt lat="48.17453" lon="5.57679">
        <ele>315.612</ele>
        <time>2019-09-24T10:22:31.001Z</time>
      </trkpt>
      <trkpt lat="48.1744" lon="5.57672">
        <ele>315.831</ele>
        <time>2019-09-24T10:22:34.001Z</time>
      </trkpt>
      <trkpt lat="48.17427" lon="5.57665">
        <ele>316.01</ele>
        <time>2019-09-24T10:22:37.001Z</time>
      </trkpt>
      <trkpt lat="48.17414" lon="5.57657">
        <ele>315.357</ele>
        <time>2019-09-24T10:22:40.001Z</time>
      </trkpt>
      <trkpt lat="48.17402" lon="5.57651">
        <ele>314.751</ele>
        <time>2019-09-24T10:22:43.001Z</time>
      </trkpt>
      <trkpt lat="48.17392" lon="5.57645">
        <ele>314.364</ele>
        <time>2019-09-24T10:22:46.001Z</time>
      </trkpt>
      <trkpt lat="48.17382" lon="5.57637">
        <ele>313.593</ele>
        <time>2019-09-24T10:22:49.001Z</time>
      </trkpt>
      <trkpt lat="48.17371" lon="5.57629">
        <ele>312.678</ele>
        <time>2019-09-24T10:22:52.001Z</time>
      </trkpt>
      <trkpt lat="48.17358" lon="5.57622">
        <ele>311.813</ele>
        <time>2019-09-24T10:22:55.001Z</time>
      </trkpt>
      <trkpt lat="48.17347" lon="5.57615">
        <ele>311.026</ele>
        <time>2019-09-24T10:22:58.001Z</time>
      </trkpt>
      <trkpt lat="48.17338" lon="5.57607">
        <ele>310.59</ele>
        <time>2019-09-24T10:23:01.001Z</time>
      </trkpt>
      <trkpt lat="48.17329" lon="5.57598">
        <ele>310.029</ele>
        <time>2019-09-24T10:23:04.001Z</time>
      </trkpt>
      <trkpt lat="48.1732" lon="5.57589">
        <ele>309.655</ele>
        <time>2019-09-24T10:23:07.001Z</time>
      </trkpt>
      <trkpt lat="48.17311" lon="5.57579">
        <ele>309.724</ele>
        <time>2019-09-24T10:23:10.001Z</time>
      </trkpt>
      <trkpt lat="48.17301" lon="5.57569">
        <ele>310.006</ele>
        <time>2019-09-24T10:23:13.001Z</time>
      </trkpt>
      <trkpt lat="48.17292" lon="5.5756">
        <ele>310.15</ele>
        <time>2019-09-24T12:23:16Z</time>
      </trkpt>
      <trkpt lat="48.17282" lon="5.5755">
        <ele>310.269</ele>
        <time>2019-09-24T10:23:19.001Z</time>
      </trkpt>
      <trkpt lat="48.17272" lon="5.57539">
        <ele>310.465</ele>
        <time>2019-09-24T10:23:22.001Z</time>
      </trkpt>
      <trkpt lat="48.17262" lon="5.57529">
        <ele>310.731</ele>
        <time>2019-09-24T10:23:25.001Z</time>
      </trkpt>
      <trkpt lat="48.17252" lon="5.57519">
        <ele>311.052</ele>
        <time>2019-09-24T10:23:28.001Z</time>
      </trkpt>
      <trkpt lat="48.17242" lon="5.5751">
        <ele>311.43</ele>
        <time>2019-09-24T10:23:31.001Z</time>
      </trkpt>
      <trkpt lat="48.17232" lon="5.575">
        <ele>311.702</ele>
        <time>2019-09-24T10:23:34.001Z</time>
      </trkpt>
      <trkpt lat="48.1722" lon="5.57491">
        <ele>312.135</ele>
        <time>2019-09-24T10:23:37.001Z</time>
      </trkpt>
      <trkpt lat="48.17208" lon="5.57481">
        <ele>312.526</ele>
        <time>2019-09-24T10:23:40.001Z</time>
      </trkpt>
      <trkpt lat="48.17198" lon="5.5747">
        <ele>312.336</ele>
        <time>2019-09-24T10:23:43.001Z</time>
      </trkpt>
      <trkpt lat="48.17188" lon="5.57457">
        <ele>312.123</ele>
        <time>2019-09-24T10:23:46.001Z</time>
      </trkpt>
      <trkpt lat="48.17178" lon="5.57444">
        <ele>312.94</ele>
        <time>2019-09-24T10:23:49.001Z</time>
      </trkpt>
      <trkpt lat="48.17167" lon="5.5743">
        <ele>313.537</ele>
        <time>2019-09-24T10:23:52.001Z</time>
      </trkpt>
      <trkpt lat="48.17157" lon="5.57416">
        <ele>313.873</ele>
        <time>2019-09-24T10:23:55.001Z</time>
      </trkpt>
      <trkpt lat="48.17148" lon="5.57403">
        <ele>314.693</ele>
        <time>2019-09-24T10:23:58.001Z</time>
      </trkpt>
      <trkpt lat="48.17138" lon="5.5739">
        <ele>315.498</ele>
        <time>2019-09-24T10:24:01.001Z</time>
      </trkpt>
      <trkpt lat="48.17129" lon="5.57378">
        <ele>315.939</ele>
        <time>2019-09-24T10:24:04.001Z</time>
      </trkpt>
      <trkpt lat="48.17119" lon="5.57366">
        <ele>316.375</ele>
        <time>2019-09-24T10:24:07.001Z</time>
      </trkpt>
      <trkpt lat="48.17109" lon="5.57355">
        <ele>316.818</ele>
        <time>2019-09-24T10:24:10.001Z</time>
      </trkpt>
      <trkpt lat="48.17098" lon="5.57345">
        <ele>316.964</ele>
        <time>2019-09-24T10:24:13.001Z</time>
      </trkpt>
      <trkpt lat="48.17088" lon="5.57337">
        <ele>317.531</ele>
        <time>2019-09-24T12:24:16Z</time>
      </trkpt>
      <trkpt lat="48.17076" lon="5.57329">
        <ele>317.705</ele>
        <time>2019-09-24T10:24:19.001Z</time>
      </trkpt>
      <trkpt lat="48.17065" lon="5.57322">
        <ele>317.263</ele>
        <time>2019-09-24T10:24:22.001Z</time>
      </trkpt>
      <trkpt lat="48.17053" lon="5.57317">
        <ele>317.187</ele>
        <time>2019-09-24T10:24:25.001Z</time>
      </trkpt>
      <trkpt lat="48.17041" lon="5.57314">
        <ele>317.51</ele>
        <time>2019-09-24T10:24:28.001Z</time>
      </trkpt>
      <trkpt lat="48.17028" lon="5.57313">
        <ele>317.714</ele>
        <time>2019-09-24T10:24:31.001Z</time>
      </trkpt>
      <trkpt lat="48.17015" lon="5.57312">
        <ele>317.692</ele>
        <time>2019-09-24T10:24:34.001Z</time>
      </trkpt>
      <trkpt lat="48.17001" lon="5.5731">
        <ele>317.576</ele>
        <time>2019-09-24T10:24:37.001Z</time>
      </trkpt>
      <trkpt lat="48.16988" lon="5.57309">
        <ele>316.738</ele>
        <time>2019-09-24T10:24:40.001Z</time>
      </trkpt>
      <trkpt lat="48.16975" lon="5.57308">
        <ele>315.563</ele>
        <time>2019-09-24T10:24:43.001Z</time>
      </trkpt>
      <trkpt lat="48.16961" lon="5.57307">
        <ele>315.261</ele>
        <time>2019-09-24T10:24:46.001Z</time>
      </trkpt>
      <trkpt lat="48.16948" lon="5.57307">
        <ele>315.128</ele>
        <time>2019-09-24T10:24:49.001Z</time>
      </trkpt>
      <trkpt lat="48.16934" lon="5.57308">
        <ele>315.25</ele>
        <time>2019-09-24T10:24:52.001Z</time>
      </trkpt>
      <trkpt lat="48.16921" lon="5.57309">
        <ele>315.455</ele>
        <time>2019-09-24T10:24:55.001Z</time>
      </trkpt>
      <trkpt lat="48.16908" lon="5.57311">
        <ele>315.335</ele>
        <time>2019-09-24T10:24:58.001Z</time>
      </trkpt>
      <trkpt lat="48.16896" lon="5.57313">
        <ele>315.176</ele>
        <time>2019-09-24T10:25:01.001Z</time>
      </trkpt>
      <trkpt lat="48.16883" lon="5.57315">
        <ele>315.026</ele>
        <time>2019-09-24T10:25:04.001Z</time>
      </trkpt>
      <trkpt lat="48.16871" lon="5.57319">
        <ele>314.754</ele>
        <time>2019-09-24T10:25:07.001Z</time>
      </trkpt>
      <trkpt lat="48.16859" lon="5.57323">
        <ele>314.563</ele>
        <time>2019-09-24T10:25:10.001Z</time>
      </trkpt>
      <trkpt lat="48.16847" lon="5.57326">
        <ele>314.252</ele>
        <time>2019-09-24T10:25:13.001Z</time>
      </trkpt>
      <trkpt lat="48.16836" lon="5.57328">
        <ele>314.581</ele>
        <time>2019-09-24T12:25:16Z</time>
      </trkpt>
      <trkpt lat="48.16826" lon="5.5733">
        <ele>314.665</ele>
        <time>2019-09-24T10:25:19.001Z</time>
      </trkpt>
      <trkpt lat="48.16816" lon="5.57331">
        <ele>314.868</ele>
        <time>2019-09-24T10:25:22.001Z</time>
      </trkpt>
      <trkpt lat="48.16805" lon="5.57334">
        <ele>315.228</ele>
        <time>2019-09-24T10:25:25.001Z</time>
      </trkpt>
      <trkpt lat="48.16795" lon="5.57337">
        <ele>315.582</ele>
        <time>2019-09-24T10:25:28.001Z</time>
      </trkpt>
      <trkpt lat="48.16785" lon="5.57341">
        <ele>316.049</ele>
        <time>2019-09-24T10:25:31.001Z</time>
      </trkpt>
      <trkpt lat="48.16775" lon="5.57344">
        <ele>316.475</ele>
        <time>2019-09-24T10:25:34.001Z</time>
      </trkpt>
      <trkpt lat="48.16764" lon="5.57347">
        <ele>316.389</ele>
        <time>2019-09-24T10:25:37.001Z</time>
      </trkpt>
      <trkpt lat="48.16751" lon="5.5735">
        <ele>316.533</ele>
        <time>2019-09-24T10:25:40.001Z</time>
      </trkpt>
      <trkpt lat="48.1674" lon="5.57352">
        <ele>316.912</ele>
        <time>2019-09-24T10:25:43.001Z</time>
      </trkpt>
      <trkpt lat="48.16729" lon="5.57352">
        <ele>316.791</ele>
        <time>2019-09-24T10:25:46.001Z</time>
      </trkpt>
      <trkpt lat="48.16718" lon="5.57351">
        <ele>316.757</ele>
        <time>2019-09-24T10:25:49.001Z</time>
      </trkpt>
      <trkpt lat="48.16707" lon="5.5735">
        <ele>317.039</ele>
        <time>2019-09-24T10:25:52.001Z</time>
      </trkpt>
      <trkpt lat="48.16697" lon="5.57348">
        <ele>317.508</ele>
        <time>2019-09-24T10:25:55.001Z</time>
      </trkpt>
      <trkpt lat="48.16688" lon="5.57348">
        <ele>317.917</ele>
        <time>2019-09-24T10:25:58.001Z</time>
      </trkpt>
      <trkpt lat="48.16678" lon="5.57351">
        <ele>318.333</ele>
        <time>2019-09-24T10:26:01.001Z</time>
      </trkpt>
      <trkpt lat="48.1667" lon="5.57356">
        <ele>318.738</ele>
        <time>2019-09-24T10:26:04.001Z</time>
      </trkpt>
      <trkpt lat="48.16664" lon="5.57362">
        <ele>319.514</ele>
        <time>2019-09-24T10:26:07.001Z</time>
      </trkpt>
      <trkpt lat="48.16658" lon="5.57369">
        <ele>319.989</ele>
        <time>2019-09-24T10:26:10.001Z</time>
      </trkpt>
      <trkpt lat="48.16651" lon="5.57377">
        <ele>320.544</ele>
        <time>2019-09-24T10:26:13.001Z</time>
      </trkpt>
      <trkpt lat="48.16643" lon="5.57385">
        <ele>320.887</ele>
        <time>2019-09-24T12:26:16Z</time>
      </trkpt>
      <trkpt lat="48.16634" lon="5.57391">
        <ele>321.307</ele>
        <time>2019-09-24T10:26:19.001Z</time>
      </trkpt>
      <trkpt lat="48.16625" lon="5.57394">
        <ele>321.174</ele>
        <time>2019-09-24T10:26:22.001Z</time>
      </trkpt>
      <trkpt lat="48.16618" lon="5.57397">
        <ele>321.012</ele>
        <time>2019-09-24T10:26:25.001Z</time>
      </trkpt>
      <trkpt lat="48.16611" lon="5.57399">
        <ele>320.851</ele>
        <time>2019-09-24T10:26:28.001Z</time>
      </trkpt>
      <trkpt lat="48.16603" lon="5.574">
        <ele>320.685</ele>
        <time>2019-09-24T10:26:31.001Z</time>
      </trkpt>
      <trkpt lat="48.16596" lon="5.57401">
        <ele>320.657</ele>
        <time>2019-09-24T10:26:34.001Z</time>
      </trkpt>
      <trkpt lat="48.16589" lon="5.57402">
        <ele>320.885</ele>
        <time>2019-09-24T10:26:37.001Z</time>
      </trkpt>
      <trkpt lat="48.16581" lon="5.57402">
        <ele>321.162</ele>
        <time>2019-09-24T10:26:40.001Z</time>
      </trkpt>
      <trkpt lat="48.16574" lon="5.57403">
        <ele>321.59</ele>
        <time>2019-09-24T10:26:43.001Z</time>
      </trkpt>
      <trkpt lat="48.16567" lon="5.57404">
        <ele>322.013</ele>
        <time>2019-09-24T10:26:46.001Z</time>
      </trkpt>
      <trkpt lat="48.1656" lon="5.57404">
        <ele>322.143</ele>
        <time>2019-09-24T10:26:49.001Z</time>
      </trkpt>
      <trkpt lat="48.16553" lon="5.57404">
        <ele>322.319</ele>
        <time>2019-09-24T10:26:52.001Z</time>
      </trkpt>
      <trkpt lat="48.16545" lon="5.57405">
        <ele>322.469</ele>
        <time>2019-09-24T10:26:55.001Z</time>
      </trkpt>
      <trkpt lat="48.16538" lon="5.57406">
        <ele>322.885</ele>
        <time>2019-09-24T10:26:58.001Z</time>
      </trkpt>
      <trkpt lat="48.16531" lon="5.57407">
        <ele>323.374</ele>
        <time>2019-09-24T10:27:01.001Z</time>
      </trkpt>
      <trkpt lat="48.16523" lon="5.57407">
        <ele>324.037</ele>
        <time>2019-09-24T10:27:04.001Z</time>
      </trkpt>
      <trkpt lat="48.16516" lon="5.57408">
        <ele>324.139</ele>
        <time>2019-09-24T10:27:07.001Z</time>
      </trkpt>
      <trkpt lat="48.16509" lon="5.57409">
        <ele>324.24</ele>
        <time>2019-09-24T10:27:10.001Z</time>
      </trkpt>
      <trkpt lat="48.16501" lon="5.5741">
        <ele>324.304</ele>
        <time>2019-09-24T10:27:13.001Z</time>
      </trkpt>
      <trkpt lat="48.16493" lon="5.57411">
        <ele>324.692</ele>
        <time>2019-09-24T12:27:16Z</time>
      </trkpt>
      <trkpt lat="48.16487" lon="5.57412">
        <ele>325.626</ele>
        <time>2019-09-24T10:27:19.001Z</time>
      </trkpt>
      <trkpt lat="48.16479" lon="5.57412">
        <ele>326.538</ele>
        <time>2019-09-24T10:27:22.001Z</time>
      </trkpt>
      <trkpt lat="48.16473" lon="5.57413">
        <ele>327.784</ele>
        <time>2019-09-24T10:27:25.001Z</time>
      </trkpt>
      <trkpt lat="48.16465" lon="5.57414">
        <ele>329.074</ele>
        <time>2019-09-24T10:27:28.001Z</time>
      </trkpt>
      <trkpt lat="48.16458" lon="5.57414">
        <ele>329.97</ele>
        <time>2019-09-24T10:27:31.001Z</time>
      </trkpt>
      <trkpt lat="48.1645" lon="5.57415">
        <ele>329.812</ele>
        <time>2019-09-24T10:27:34.001Z</time>
      </trkpt>
      <trkpt lat="48.16441" lon="5.57416">
        <ele>330.541</ele>
        <time>2019-09-24T10:27:37.001Z</time>
      </trkpt>
      <trkpt lat="48.16431" lon="5.57416">
        <ele>331.77</ele>
        <time>2019-09-24T10:27:40.001Z</time>
      </trkpt>
      <trkpt lat="48.16422" lon="5.57415">
        <ele>333.07</ele>
        <time>2019-09-24T10:27:43.001Z</time>
      </trkpt>
      <trkpt lat="48.16413" lon="5.57414">
        <ele>334.317</ele>
        <time>2019-09-24T10:27:46.001Z</time>
      </trkpt>
      <trkpt lat="48.16401" lon="5.57414">
        <ele>335.446</ele>
        <time>2019-09-24T10:27:49.001Z</time>
      </trkpt>
      <trkpt lat="48.16392" lon="5.57414">
        <ele>335.838</ele>
        <time>2019-09-24T10:27:52.001Z</time>
      </trkpt>
      <trkpt lat="48.16382" lon="5.57412">
        <ele>336.124</ele>
        <time>2019-09-24T10:27:55.001Z</time>
      </trkpt>
      <trkpt lat="48.16372" lon="5.57411">
        <ele>337.281</ele>
        <time>2019-09-24T10:27:58.001Z</time>
      </trkpt>
      <trkpt lat="48.16361" lon="5.57408">
        <ele>338.59</ele>
        <time>2019-09-24T10:28:01.001Z</time>
      </trkpt>
      <trkpt lat="48.1635" lon="5.57407">
        <ele>338.969</ele>
        <time>2019-09-24T10:28:04.001Z</time>
      </trkpt>
      <trkpt lat="48.16336" lon="5.57405">
        <ele>338.671</ele>
        <time>2019-09-24T10:28:07.001Z</time>
      </trkpt>
      <trkpt lat="48.16324" lon="5.57398">
        <ele>338.192</ele>
        <time>2019-09-24T10:28:10.001Z</time>
      </trkpt>
      <trkpt lat="48.16311" lon="5.57386">
        <ele>337.622</ele>
        <time>2019-09-24T10:28:13.001Z</time>
      </trkpt>
      <trkpt lat="48.163" lon="5.57368">
        <ele>336.92</ele>
        <time>2019-09-24T12:28:16Z</time>
      </trkpt>
      <trkpt lat="48.1629" lon="5.57344">
        <ele>336.389</ele>
        <time>2019-09-24T10:28:19.001Z</time>
      </trkpt>
      <trkpt lat="48.1628" lon="5.57318">
        <ele>335.863</ele>
        <time>2019-09-24T10:28:22.001Z</time>
      </trkpt>
      <trkpt lat="48.16269" lon="5.57286">
        <ele>334.542</ele>
        <time>2019-09-24T10:28:25.001Z</time>
      </trkpt>
      <trkpt lat="48.16256" lon="5.57253">
        <ele>333.074</ele>
        <time>2019-09-24T10:28:28.001Z</time>
      </trkpt>
      <trkpt lat="48.16239" lon="5.57221">
        <ele>331.457</ele>
        <time>2019-09-24T10:28:31.001Z</time>
      </trkpt>
      <trkpt lat="48.16212" lon="5.57202">
        <ele>329.842</ele>
        <time>2019-09-24T10:28:34.001Z</time>
      </trkpt>
      <trkpt lat="48.16188" lon="5.57195">
        <ele>327.035</ele>
        <time>2019-09-24T10:28:37.001Z</time>
      </trkpt>
      <trkpt lat="48.16166" lon="5.57189">
        <ele>323.924</ele>
        <time>2019-09-24T10:28:40.001Z</time>
      </trkpt>
      <trkpt lat="48.16146" lon="5.57183">
        <ele>322.107</ele>
        <time>2019-09-24T10:28:43.001Z</time>
      </trkpt>
      <trkpt lat="48.16127" lon="5.57178">
        <ele>320.095</ele>
        <time>2019-09-24T10:28:46.001Z</time>
      </trkpt>
      <trkpt lat="48.16108" lon="5.57173">
        <ele>318.019</ele>
        <time>2019-09-24T10:28:49.001Z</time>
      </trkpt>
      <trkpt lat="48.16091" lon="5.57168">
        <ele>316.366</ele>
        <time>2019-09-24T10:28:52.001Z</time>
      </trkpt>
      <trkpt lat="48.16074" lon="5.57163">
        <ele>315.326</ele>
        <time>2019-09-24T10:28:55.001Z</time>
      </trkpt>
      <trkpt lat="48.16057" lon="5.57159">
        <ele>314.31</ele>
        <time>2019-09-24T10:28:58.001Z</time>
      </trkpt>
      <trkpt lat="48.16039" lon="5.57155">
        <ele>313.666</ele>
        <time>2019-09-24T10:29:01.001Z</time>
      </trkpt>
      <trkpt lat="48.16023" lon="5.57148">
        <ele>312.848</ele>
        <time>2019-09-24T10:29:04.001Z</time>
      </trkpt>
      <trkpt lat="48.16006" lon="5.57142">
        <ele>312.417</ele>
        <time>2019-09-24T10:29:07.001Z</time>
      </trkpt>
      <trkpt lat="48.15989" lon="5.57135">
        <ele>311.825</ele>
        <time>2019-09-24T10:29:10.001Z</time>
      </trkpt>
      <trkpt lat="48.15971" lon="5.57129">
        <ele>311.486</ele>
        <time>2019-09-24T10:29:13.001Z</time>
      </trkpt>
      <trkpt lat="48.15953" lon="5.5712">
        <ele>311.361</ele>
        <time>2019-09-24T12:29:16Z</time>
      </trkpt>
      <trkpt lat="48.15936" lon="5.57111">
        <ele>311.235</ele>
        <time>2019-09-24T10:29:19.001Z</time>
      </trkpt>
      <trkpt lat="48.1592" lon="5.57102">
        <ele>311.381</ele>
        <time>2019-09-24T10:29:22.001Z</time>
      </trkpt>
      <trkpt lat="48.15904" lon="5.57094">
        <ele>311.729</ele>
        <time>2019-09-24T10:29:25.001Z</time>
      </trkpt>
      <trkpt lat="48.15889" lon="5.57085">
        <ele>312.613</ele>
        <time>2019-09-24T10:29:28.001Z</time>
      </trkpt>
      <trkpt lat="48.15875" lon="5.57078">
        <ele>313.339</ele>
        <time>2019-09-24T10:29:31.001Z</time>
      </trkpt>
      <trkpt lat="48.1586" lon="5.5707">
        <ele>314.033</ele>
        <time>2019-09-24T10:29:34.001Z</time>
      </trkpt>
      <trkpt lat="48.15845" lon="5.57063">
        <ele>314.664</ele>
        <time>2019-09-24T10:29:37.001Z</time>
      </trkpt>
      <trkpt lat="48.15831" lon="5.57055">
        <ele>314.366</ele>
        <time>2019-09-24T10:29:40.001Z</time>
      </trkpt>
      <trkpt lat="48.15817" lon="5.57046">
        <ele>313.997</ele>
        <time>2019-09-24T10:29:43.001Z</time>
      </trkpt>
      <trkpt lat="48.15803" lon="5.57039">
        <ele>313.75</ele>
        <time>2019-09-24T10:29:46.001Z</time>
      </trkpt>
      <trkpt lat="48.1579" lon="5.57031">
        <ele>314.035</ele>
        <time>2019-09-24T10:29:49.001Z</time>
      </trkpt>
      <trkpt lat="48.15776" lon="5.57024">
        <ele>314.205</ele>
        <time>2019-09-24T10:29:52.001Z</time>
      </trkpt>
      <trkpt lat="48.15762" lon="5.57015">
        <ele>314.311</ele>
        <time>2019-09-24T10:29:55.001Z</time>
      </trkpt>
      <trkpt lat="48.15749" lon="5.57007">
        <ele>314.306</ele>
        <time>2019-09-24T10:29:58.001Z</time>
      </trkpt>
      <trkpt lat="48.15735" lon="5.56998">
        <ele>314.36</ele>
        <time>2019-09-24T10:30:01.001Z</time>
      </trkpt>
      <trkpt lat="48.15721" lon="5.56989">
        <ele>314.563</ele>
        <time>2019-09-24T10:30:04.001Z</time>
      </trkpt>
      <trkpt lat="48.15708" lon="5.56981">
        <ele>314.881</ele>
        <time>2019-09-24T10:30:07.001Z</time>
      </trkpt>
      <trkpt lat="48.15694" lon="5.56972">
        <ele>315.021</ele>
        <time>2019-09-24T10:30:10.001Z</time>
      </trkpt>
      <trkpt lat="48.15682" lon="5.56963">
        <ele>315.205</ele>
        <time>2019-09-24T10:30:13.001Z</time>
      </trkpt>
      <trkpt lat="48.15669" lon="5.56954">
        <ele>315.816</ele>
        <time>2019-09-24T12:30:16Z</time>
      </trkpt>
      <trkpt lat="48.15658" lon="5.56944">
        <ele>316.402</ele>
        <time>2019-09-24T10:30:19.001Z</time>
      </trkpt>
      <trkpt lat="48.15647" lon="5.56937">
        <ele>316.724</ele>
        <time>2019-09-24T10:30:22.001Z</time>
      </trkpt>
      <trkpt lat="48.15634" lon="5.56929">
        <ele>317.069</ele>
        <time>2019-09-24T10:30:25.001Z</time>
      </trkpt>
      <trkpt lat="48.15622" lon="5.5692">
        <ele>317.348</ele>
        <time>2019-09-24T10:30:28.001Z</time>
      </trkpt>
      <trkpt lat="48.1561" lon="5.56912">
        <ele>317.428</ele>
        <time>2019-09-24T10:30:31.001Z</time>
      </trkpt>
      <trkpt lat="48.15599" lon="5.56904">
        <ele>317.644</ele>
        <time>2019-09-24T10:30:34.001Z</time>
      </trkpt>
      <trkpt lat="48.15587" lon="5.56896">
        <ele>317.607</ele>
        <time>2019-09-24T10:30:37.001Z</time>
      </trkpt>
      <trkpt lat="48.15575" lon="5.56887">
        <ele>317.38</ele>
        <time>2019-09-24T10:30:40.001Z</time>
      </trkpt>
      <trkpt lat="48.15563" lon="5.56879">
        <ele>317.381</ele>
        <time>2019-09-24T10:30:43.001Z</time>
      </trkpt>
      <trkpt lat="48.15552" lon="5.56871">
        <ele>317.287</ele>
        <time>2019-09-24T10:30:46.001Z</time>
      </trkpt>
      <trkpt lat="48.1554" lon="5.56863">
        <ele>317.166</ele>
        <time>2019-09-24T10:30:49.001Z</time>
      </trkpt>
      <trkpt lat="48.15528" lon="5.56855">
        <ele>317.23</ele>
        <time>2019-09-24T10:30:52.001Z</time>
      </trkpt>
      <trkpt lat="48.15517" lon="5.56847">
        <ele>317.546</ele>
        <time>2019-09-24T10:30:55.001Z</time>
      </trkpt>
      <trkpt lat="48.15505" lon="5.5684">
        <ele>317.391</ele>
        <time>2019-09-24T10:30:58.001Z</time>
      </trkpt>
      <trkpt lat="48.15494" lon="5.56832">
        <ele>317.326</ele>
        <time>2019-09-24T10:31:01.001Z</time>
      </trkpt>
      <trkpt lat="48.15483" lon="5.56824">
        <ele>317.616</ele>
        <time>2019-09-24T10:31:04.001Z</time>
      </trkpt>
      <trkpt lat="48.15473" lon="5.56817">
        <ele>317.787</ele>
        <time>2019-09-24T10:31:07.001Z</time>
      </trkpt>
      <trkpt lat="48.15462" lon="5.5681">
        <ele>318.186</ele>
        <time>2019-09-24T10:31:10.001Z</time>
      </trkpt>
      <trkpt lat="48.15452" lon="5.56803">
        <ele>318.619</ele>
        <time>2019-09-24T10:31:13.001Z</time>
      </trkpt>
      <trkpt lat="48.15441" lon="5.56795">
        <ele>319.393</ele>
        <time>2019-09-24T12:31:16Z</time>
      </trkpt>
      <trkpt lat="48.1543" lon="5.56789">
        <ele>319.841</ele>
        <time>2019-09-24T10:31:19.001Z</time>
      </trkpt>
      <trkpt lat="48.15419" lon="5.56783">
        <ele>320.136</ele>
        <time>2019-09-24T10:31:22.001Z</time>
      </trkpt>
      <trkpt lat="48.15408" lon="5.56777">
        <ele>320.349</ele>
        <time>2019-09-24T10:31:25.001Z</time>
      </trkpt>
      <trkpt lat="48.15397" lon="5.56772">
        <ele>320.653</ele>
        <time>2019-09-24T10:31:28.001Z</time>
      </trkpt>
      <trkpt lat="48.15386" lon="5.56767">
        <ele>321.236</ele>
        <time>2019-09-24T10:31:31.001Z</time>
      </trkpt>
      <trkpt lat="48.15375" lon="5.56763">
        <ele>321.375</ele>
        <time>2019-09-24T10:31:34.001Z</time>
      </trkpt>
      <trkpt lat="48.15365" lon="5.56758">
        <ele>321.187</ele>
        <time>2019-09-24T10:31:37.001Z</time>
      </trkpt>
      <trkpt lat="48.15355" lon="5.56754">
        <ele>321.103</ele>
        <time>2019-09-24T10:31:40.001Z</time>
      </trkpt>
      <trkpt lat="48.15344" lon="5.5675">
        <ele>320.879</ele>
        <time>2019-09-24T10:31:43.001Z</time>
      </trkpt>
      <trkpt lat="48.15334" lon="5.56747">
        <ele>321.1</ele>
        <time>2019-09-24T10:31:46.001Z</time>
      </trkpt>
      <trkpt lat="48.15322" lon="5.56743">
        <ele>321.154</ele>
        <time>2019-09-24T10:31:49.001Z</time>
      </trkpt>
      <trkpt lat="48.15311" lon="5.56739">
        <ele>321.078</ele>
        <time>2019-09-24T10:31:52.001Z</time>
      </trkpt>
      <trkpt lat="48.15299" lon="5.56735">
        <ele>321.282</ele>
        <time>2019-09-24T10:31:55.001Z</time>
      </trkpt>
      <trkpt lat="48.15288" lon="5.56731">
        <ele>321.601</ele>
        <time>2019-09-24T10:31:58.001Z</time>
      </trkpt>
      <trkpt lat="48.15276" lon="5.56727">
        <ele>321.585</ele>
        <time>2019-09-24T10:32:01.001Z</time>
      </trkpt>
      <trkpt lat="48.15263" lon="5.56724">
        <ele>321.874</ele>
        <time>2019-09-24T10:32:04.001Z</time>
      </trkpt>
      <trkpt lat="48.15251" lon="5.56719">
        <ele>322.296</ele>
        <time>2019-09-24T10:32:07.001Z</time>
      </trkpt>
      <trkpt lat="48.1524" lon="5.56715">
        <ele>322.9</ele>
        <time>2019-09-24T10:32:10.001Z</time>
      </trkpt>
      <trkpt lat="48.15228" lon="5.56713">
        <ele>323.653</ele>
        <time>2019-09-24T10:32:13.001Z</time>
      </trkpt>
      <trkpt lat="48.15216" lon="5.5671">
        <ele>324.249</ele>
        <time>2019-09-24T12:32:16Z</time>
      </trkpt>
      <trkpt lat="48.15203" lon="5.56706">
        <ele>324.607</ele>
        <time>2019-09-24T10:32:19.001Z</time>
      </trkpt>
      <trkpt lat="48.15191" lon="5.56702">
        <ele>324.642</ele>
        <time>2019-09-24T10:32:22.001Z</time>
      </trkpt>
      <trkpt lat="48.15179" lon="5.56699">
        <ele>324.452</ele>
        <time>2019-09-24T10:32:25.001Z</time>
      </trkpt>
      <trkpt lat="48.15166" lon="5.56698">
        <ele>323.709</ele>
        <time>2019-09-24T10:32:28.001Z</time>
      </trkpt>
      <trkpt lat="48.15154" lon="5.56699">
        <ele>323.151</ele>
        <time>2019-09-24T10:32:31.001Z</time>
      </trkpt>
      <trkpt lat="48.15143" lon="5.567">
        <ele>322.523</ele>
        <time>2019-09-24T10:32:34.001Z</time>
      </trkpt>
      <trkpt lat="48.15133" lon="5.56702">
        <ele>322.236</ele>
        <time>2019-09-24T10:32:37.001Z</time>
      </trkpt>
      <trkpt lat="48.15124" lon="5.56705">
        <ele>322.049</ele>
        <time>2019-09-24T10:32:40.001Z</time>
      </trkpt>
      <trkpt lat="48.15115" lon="5.56708">
        <ele>321.914</ele>
        <time>2019-09-24T10:32:43.001Z</time>
      </trkpt>
      <trkpt lat="48.15106" lon="5.56711">
        <ele>321.627</ele>
        <time>2019-09-24T10:32:46.001Z</time>
      </trkpt>
      <trkpt lat="48.15098" lon="5.56715">
        <ele>321.725</ele>
        <time>2019-09-24T10:32:49.001Z</time>
      </trkpt>
      <trkpt lat="48.1509" lon="5.56721">
        <ele>321.986</ele>
        <time>2019-09-24T10:32:52.001Z</time>
      </trkpt>
      <trkpt lat="48.15081" lon="5.56729">
        <ele>322.185</ele>
        <time>2019-09-24T10:32:55.001Z</time>
      </trkpt>
      <trkpt lat="48.15075" lon="5.56739">
        <ele>322.503</ele>
        <time>2019-09-24T10:32:58.001Z</time>
      </trkpt>
      <trkpt lat="48.15072" lon="5.56751">
        <ele>322.66</ele>
        <time>2019-09-24T10:33:01.001Z</time>
      </trkpt>
      <trkpt lat="48.1507" lon="5.56763">
        <ele>323.028</ele>
        <time>2019-09-24T10:33:04.001Z</time>
      </trkpt>
      <trkpt lat="48.15069" lon="5.56775">
        <ele>323.382</ele>
        <time>2019-09-24T10:33:07.001Z</time>
      </trkpt>
      <trkpt lat="48.15068" lon="5.56787">
        <ele>324.121</ele>
        <time>2019-09-24T10:33:10.001Z</time>
      </trkpt>
      <trkpt lat="48.15068" lon="5.56797">
        <ele>325.205</ele>
        <time>2019-09-24T10:33:13.001Z</time>
      </trkpt>
      <trkpt lat="48.15067" lon="5.56805">
        <ele>325.671</ele>
        <time>2019-09-24T12:33:16Z</time>
      </trkpt>
      <trkpt lat="48.15067" lon="5.56813">
        <ele>326.411</ele>
        <time>2019-09-24T10:33:19.001Z</time>
      </trkpt>
      <trkpt lat="48.15066" lon="5.56823">
        <ele>326.584</ele>
        <time>2019-09-24T10:33:22.001Z</time>
      </trkpt>
      <trkpt lat="48.15063" lon="5.56832">
        <ele>326.889</ele>
        <time>2019-09-24T10:33:25.001Z</time>
      </trkpt>
      <trkpt lat="48.15061" lon="5.56841">
        <ele>327.247</ele>
        <time>2019-09-24T10:33:28.001Z</time>
      </trkpt>
      <trkpt lat="48.15057" lon="5.5685">
        <ele>327.623</ele>
        <time>2019-09-24T10:33:31.001Z</time>
      </trkpt>
      <trkpt lat="48.15054" lon="5.56858">
        <ele>327.501</ele>
        <time>2019-09-24T10:33:34.001Z</time>
      </trkpt>
      <trkpt lat="48.1505" lon="5.56866">
        <ele>328.223</ele>
        <time>2019-09-24T10:33:37.001Z</time>
      </trkpt>
      <trkpt lat="48.15046" lon="5.56875">
        <ele>328.971</ele>
        <time>2019-09-24T10:33:40.001Z</time>
      </trkpt>
      <trkpt lat="48.15042" lon="5.56882">
        <ele>329.559</ele>
        <time>2019-09-24T10:33:43.001Z</time>
      </trkpt>
      <trkpt lat="48.15038" lon="5.56889">
        <ele>329.714</ele>
        <time>2019-09-24T10:33:46.001Z</time>
      </trkpt>
      <trkpt lat="48.15033" lon="5.56897">
        <ele>329.974</ele>
        <time>2019-09-24T10:33:49.001Z</time>
      </trkpt>
      <trkpt lat="48.15028" lon="5.56904">
        <ele>330.415</ele>
        <time>2019-09-24T10:33:52.001Z</time>
      </trkpt>
      <trkpt lat="48.15023" lon="5.56911">
        <ele>330.792</ele>
        <time>2019-09-24T10:33:55.001Z</time>
      </trkpt>
      <trkpt lat="48.15018" lon="5.56919">
        <ele>331.272</ele>
        <time>2019-09-24T10:33:58.001Z</time>
      </trkpt>
      <trkpt lat="48.15013" lon="5.56928">
        <ele>331.583</ele>
        <time>2019-09-24T10:34:01.001Z</time>
      </trkpt>
      <trkpt lat="48.15008" lon="5.56936">
        <ele>331.916</ele>
        <time>2019-09-24T10:34:04.001Z</time>
      </trkpt>
      <trkpt lat="48.15004" lon="5.56943">
        <ele>331.523</ele>
        <time>2019-09-24T10:34:07.001Z</time>
      </trkpt>
      <trkpt lat="48.14999" lon="5.56952">
        <ele>332.231</ele>
        <time>2019-09-24T10:34:10.001Z</time>
      </trkpt>
      <trkpt lat="48.14992" lon="5.56961">
        <ele>332.677</ele>
        <time>2019-09-24T10:34:13.001Z</time>
      </trkpt>
      <trkpt lat="48.14986" lon="5.56973">
        <ele>333.238</ele>
        <time>2019-09-24T12:34:16Z</time>
      </trkpt>
      <trkpt lat="48.14978" lon="5.56985">
        <ele>333.689</ele>
        <time>2019-09-24T10:34:19.001Z</time>
      </trkpt>
      <trkpt lat="48.1497" lon="5.56997">
        <ele>334.047</ele>
        <time>2019-09-24T10:34:22.001Z</time>
      </trkpt>
      <trkpt lat="48.14962" lon="5.57011">
        <ele>334.046</ele>
        <time>2019-09-24T10:34:25.001Z</time>
      </trkpt>
      <trkpt lat="48.14955" lon="5.57022">
        <ele>334.99</ele>
        <time>2019-09-24T10:34:28.001Z</time>
      </trkpt>
      <trkpt lat="48.14948" lon="5.57036">
        <ele>335.817</ele>
        <time>2019-09-24T10:34:31.001Z</time>
      </trkpt>
      <trkpt lat="48.1494" lon="5.57051">
        <ele>336.38</ele>
        <time>2019-09-24T10:34:34.001Z</time>
      </trkpt>
      <trkpt lat="48.14934" lon="5.57066">
        <ele>337.006</ele>
        <time>2019-09-24T10:34:37.001Z</time>
      </trkpt>
      <trkpt lat="48.14929" lon="5.57081">
        <ele>337.315</ele>
        <time>2019-09-24T10:34:40.001Z</time>
      </trkpt>
      <trkpt lat="48.14924" lon="5.57096">
        <ele>337.733</ele>
        <time>2019-09-24T10:34:43.001Z</time>
      </trkpt>
      <trkpt lat="48.14919" lon="5.57112">
        <ele>338.039</ele>
        <time>2019-09-24T10:34:46.001Z</time>
      </trkpt>
      <trkpt lat="48.14914" lon="5.57126">
        <ele>338.422</ele>
        <time>2019-09-24T10:34:49.001Z</time>
      </trkpt>
      <trkpt lat="48.1491" lon="5.5714">
        <ele>338.355</ele>
        <time>2019-09-24T10:34:52.001Z</time>
      </trkpt>
      <trkpt lat="48.14907" lon="5.57154">
        <ele>338.725</ele>
        <time>2019-09-24T10:34:55.001Z</time>
      </trkpt>
      <trkpt lat="48.14903" lon="5.57166">
        <ele>339.201</ele>
        <time>2019-09-24T10:34:58.001Z</time>
      </trkpt>
      <trkpt lat="48.14899" lon="5.57178">
        <ele>339.021</ele>
        <time>2019-09-24T10:35:01.001Z</time>
      </trkpt>
      <trkpt lat="48.14895" lon="5.57189">
        <ele>339.001</ele>
        <time>2019-09-24T10:35:04.001Z</time>
      </trkpt>
      <trkpt lat="48.14892" lon="5.57202">
        <ele>338.998</ele>
        <time>2019-09-24T10:35:07.001Z</time>
      </trkpt>
      <trkpt lat="48.14889" lon="5.57216">
        <ele>339.084</ele>
        <time>2019-09-24T10:35:10.001Z</time>
      </trkpt>
      <trkpt lat="48.14886" lon="5.57235">
        <ele>339.142</ele>
        <time>2019-09-24T10:35:13.001Z</time>
      </trkpt>
      <trkpt lat="48.1488" lon="5.57257">
        <ele>339.088</ele>
        <time>2019-09-24T12:35:16Z</time>
      </trkpt>
      <trkpt lat="48.14869" lon="5.57267">
        <ele>339.572</ele>
        <time>2019-09-24T10:35:19.001Z</time>
      </trkpt>
      <trkpt lat="48.14856" lon="5.57247">
        <ele>339.733</ele>
        <time>2019-09-24T10:35:22.001Z</time>
      </trkpt>
      <trkpt lat="48.14845" lon="5.57217">
        <ele>339.995</ele>
        <time>2019-09-24T10:35:25.001Z</time>
      </trkpt>
      <trkpt lat="48.14829" lon="5.57182">
        <ele>340.353</ele>
        <time>2019-09-24T10:35:28.001Z</time>
      </trkpt>
      <trkpt lat="48.14813" lon="5.57146">
        <ele>340.374</ele>
        <time>2019-09-24T10:35:31.001Z</time>
      </trkpt>
      <trkpt lat="48.14799" lon="5.57105">
        <ele>339.712</ele>
        <time>2019-09-24T10:35:34.001Z</time>
      </trkpt>
      <trkpt lat="48.14791" lon="5.57059">
        <ele>336.826</ele>
        <time>2019-09-24T10:35:37.001Z</time>
      </trkpt>
      <trkpt lat="48.14784" lon="5.57011">
        <ele>334.194</ele>
        <time>2019-09-24T10:35:40.001Z</time>
      </trkpt>
      <trkpt lat="48.14773" lon="5.56967">
        <ele>331.268</ele>
        <time>2019-09-24T10:35:43.001Z</time>
      </trkpt>
      <trkpt lat="48.1476" lon="5.56926">
        <ele>328.015</ele>
        <time>2019-09-24T10:35:46.001Z</time>
      </trkpt>
      <trkpt lat="48.14749" lon="5.56888">
        <ele>324.721</ele>
        <time>2019-09-24T10:35:49.001Z</time>
      </trkpt>
      <trkpt lat="48.14738" lon="5.56853">
        <ele>321.178</ele>
        <time>2019-09-24T10:35:52.001Z</time>
      </trkpt>
      <trkpt lat="48.14729" lon="5.56822">
        <ele>318.217</ele>
        <time>2019-09-24T10:35:55.001Z</time>
      </trkpt>
      <trkpt lat="48.14721" lon="5.56795">
        <ele>315.628</ele>
        <time>2019-09-24T10:35:58.001Z</time>
      </trkpt>
      <trkpt lat="48.14715" lon="5.56771">
        <ele>314.018</ele>
        <time>2019-09-24T10:36:01.001Z</time>
      </trkpt>
      <trkpt lat="48.1471" lon="5.56748">
        <ele>312.916</ele>
        <time>2019-09-24T10:36:04.001Z</time>
      </trkpt>
      <trkpt lat="48.14706" lon="5.56725">
        <ele>313.039</ele>
        <time>2019-09-24T10:36:07.001Z</time>
      </trkpt>
      <trkpt lat="48.14704" lon="5.56701">
        <ele>313.482</ele>
        <time>2019-09-24T10:36:10.001Z</time>
      </trkpt>
      <trkpt lat="48.14702" lon="5.56675">
        <ele>313.279</ele>
        <time>2019-09-24T10:36:13.001Z</time>
      </trkpt>
      <trkpt lat="48.14701" lon="5.5665">
        <ele>312.633</ele>
        <time>2019-09-24T12:36:16Z</time>
      </trkpt>
      <trkpt lat="48.14699" lon="5.56624">
        <ele>312.009</ele>
        <time>2019-09-24T10:36:19.001Z</time>
      </trkpt>
      <trkpt lat="48.14696" lon="5.566">
        <ele>311.729</ele>
        <time>2019-09-24T10:36:22.001Z</time>
      </trkpt>
      <trkpt lat="48.14692" lon="5.56576">
        <ele>311.588</ele>
        <time>2019-09-24T10:36:25.001Z</time>
      </trkpt>
      <trkpt lat="48.14688" lon="5.56556">
        <ele>311.454</ele>
        <time>2019-09-24T10:36:28.001Z</time>
      </trkpt>
      <trkpt lat="48.14681" lon="5.56536">
        <ele>311.498</ele>
        <time>2019-09-24T10:36:31.001Z</time>
      </trkpt>
      <trkpt lat="48.14674" lon="5.56518">
        <ele>311.91</ele>
        <time>2019-09-24T10:36:34.001Z</time>
      </trkpt>
      <trkpt lat="48.14666" lon="5.565">
        <ele>312.53</ele>
        <time>2019-09-24T10:36:37.001Z</time>
      </trkpt>
      <trkpt lat="48.14659" lon="5.56483">
        <ele>313.293</ele>
        <time>2019-09-24T10:36:40.001Z</time>
      </trkpt>
      <trkpt lat="48.14652" lon="5.56466">
        <ele>313.812</ele>
        <time>2019-09-24T10:36:43.001Z</time>
      </trkpt>
      <trkpt lat="48.14645" lon="5.5645">
        <ele>314.443</ele>
        <time>2019-09-24T10:36:46.001Z</time>
      </trkpt>
      <trkpt lat="48.14639" lon="5.56434">
        <ele>315.072</ele>
        <time>2019-09-24T10:36:49.001Z</time>
      </trkpt>
      <trkpt lat="48.14631" lon="5.56419">
        <ele>315.809</ele>
        <time>2019-09-24T10:36:52.001Z</time>
      </trkpt>
      <trkpt lat="48.14623" lon="5.56406">
        <ele>316.335</ele>
        <time>2019-09-24T10:36:55.001Z</time>
      </trkpt>
      <trkpt lat="48.14615" lon="5.56394">
        <ele>317.323</ele>
        <time>2019-09-24T10:36:58.001Z</time>
      </trkpt>
      <trkpt lat="48.14606" lon="5.56383">
        <ele>317.502</ele>
        <time>2019-09-24T10:37:01.001Z</time>
      </trkpt>
      <trkpt lat="48.14596" lon="5.56373">
        <ele>317.452</ele>
        <time>2019-09-24T10:37:04.001Z</time>
      </trkpt>
      <trkpt lat="48.14585" lon="5.56364">
        <ele>317.766</ele>
        <time>2019-09-24T10:37:07.001Z</time>
      </trkpt>
      <trkpt lat="48.14575" lon="5.56355">
        <ele>318.284</ele>
        <time>2019-09-24T10:37:10.001Z</time>
      </trkpt>
      <trkpt lat="48.14565" lon="5.56345">
        <ele>318.716</ele>
        <time>2019-09-24T10:37:13.001Z</time>
      </trkpt>
      <trkpt lat="48.14556" lon="5.56335">
        <ele>319.042</ele>
        <time>2019-09-24T12:37:16Z</time>
      </trkpt>
      <trkpt lat="48.14547" lon="5.56324">
        <ele>319.247</ele>
        <time>2019-09-24T10:37:19.001Z</time>
      </trkpt>
      <trkpt lat="48.14538" lon="5.56314">
        <ele>319.399</ele>
        <time>2019-09-24T10:37:22.001Z</time>
      </trkpt>
      <trkpt lat="48.1453" lon="5.56303">
        <ele>319.933</ele>
        <time>2019-09-24T10:37:25.001Z</time>
      </trkpt>
      <trkpt lat="48.14522" lon="5.56292">
        <ele>320.277</ele>
        <time>2019-09-24T10:37:28.001Z</time>
      </trkpt>
      <trkpt lat="48.14514" lon="5.56281">
        <ele>320.778</ele>
        <time>2019-09-24T10:37:31.001Z</time>
      </trkpt>
      <trkpt lat="48.14505" lon="5.5627">
        <ele>321.088</ele>
        <time>2019-09-24T10:37:34.001Z</time>
      </trkpt>
      <trkpt lat="48.14497" lon="5.56259">
        <ele>321.399</ele>
        <time>2019-09-24T10:37:37.001Z</time>
      </trkpt>
      <trkpt lat="48.14489" lon="5.56247">
        <ele>321.797</ele>
        <time>2019-09-24T10:37:40.001Z</time>
      </trkpt>
      <trkpt lat="48.14483" lon="5.56237">
        <ele>322.375</ele>
        <time>2019-09-24T10:37:43.001Z</time>
      </trkpt>
      <trkpt lat="48.14476" lon="5.56226">
        <ele>322.831</ele>
        <time>2019-09-24T10:37:46.001Z</time>
      </trkpt>
      <trkpt lat="48.14469" lon="5.56214">
        <ele>323.691</ele>
        <time>2019-09-24T10:37:49.001Z</time>
      </trkpt>
      <trkpt lat="48.14461" lon="5.56204">
        <ele>324.538</ele>
        <time>2019-09-24T10:37:52.001Z</time>
      </trkpt>
      <trkpt lat="48.14452" lon="5.56192">
        <ele>326.021</ele>
        <time>2019-09-24T10:37:55.001Z</time>
      </trkpt>
      <trkpt lat="48.14443" lon="5.56178">
        <ele>327.185</ele>
        <time>2019-09-24T10:37:58.001Z</time>
      </trkpt>
      <trkpt lat="48.14432" lon="5.56163">
        <ele>327.483</ele>
        <time>2019-09-24T10:38:01.001Z</time>
      </trkpt>
      <trkpt lat="48.14421" lon="5.56146">
        <ele>327.241</ele>
        <time>2019-09-24T10:38:04.001Z</time>
      </trkpt>
      <trkpt lat="48.1441" lon="5.5613">
        <ele>326.734</ele>
        <time>2019-09-24T10:38:07.001Z</time>
      </trkpt>
      <trkpt lat="48.14398" lon="5.56113">
        <ele>325.801</ele>
        <time>2019-09-24T10:38:10.001Z</time>
      </trkpt>
      <trkpt lat="48.14385" lon="5.56096">
        <ele>324.78</ele>
        <time>2019-09-24T10:38:13.001Z</time>
      </trkpt>
      <trkpt lat="48.14371" lon="5.56079">
        <ele>323.51</ele>
        <time>2019-09-24T12:38:16Z</time>
      </trkpt>
      <trkpt lat="48.14358" lon="5.56063">
        <ele>322.722</ele>
        <time>2019-09-24T10:38:19.001Z</time>
      </trkpt>
      <trkpt lat="48.14345" lon="5.56047">
        <ele>322.12</ele>
        <time>2019-09-24T10:38:22.001Z</time>
      </trkpt>
      <trkpt lat="48.14328" lon="5.56033">
        <ele>322.14</ele>
        <time>2019-09-24T10:38:25.001Z</time>
      </trkpt>
      <trkpt lat="48.14312" lon="5.5602">
        <ele>322.139</ele>
        <time>2019-09-24T10:38:28.001Z</time>
      </trkpt>
      <trkpt lat="48.14297" lon="5.56007">
        <ele>321.675</ele>
        <time>2019-09-24T10:38:31.001Z</time>
      </trkpt>
      <trkpt lat="48.14284" lon="5.55995">
        <ele>321.25</ele>
        <time>2019-09-24T10:38:34.001Z</time>
      </trkpt>
      <trkpt lat="48.1427" lon="5.55981">
        <ele>321.182</ele>
        <time>2019-09-24T10:38:37.001Z</time>
      </trkpt>
      <trkpt lat="48.14257" lon="5.5597">
        <ele>321.832</ele>
        <time>2019-09-24T10:38:40.001Z</time>
      </trkpt>
      <trkpt lat="48.14245" lon="5.55959">
        <ele>321.131</ele>
        <time>2019-09-24T10:38:43.001Z</time>
      </trkpt>
      <trkpt lat="48.14232" lon="5.55947">
        <ele>320.103</ele>
        <time>2019-09-24T10:38:46.001Z</time>
      </trkpt>
      <trkpt lat="48.14219" lon="5.55937">
        <ele>319.364</ele>
        <time>2019-09-24T10:38:49.001Z</time>
      </trkpt>
      <trkpt lat="48.14205" lon="5.55932">
        <ele>319.171</ele>
        <time>2019-09-24T10:38:52.001Z</time>
      </trkpt>
      <trkpt lat="48.14192" lon="5.55945">
        <ele>319.033</ele>
        <time>2019-09-24T10:38:55.001Z</time>
      </trkpt>
      <trkpt lat="48.14183" lon="5.55962">
        <ele>319.057</ele>
        <time>2019-09-24T10:38:58.001Z</time>
      </trkpt>
      <trkpt lat="48.14175" lon="5.55975">
        <ele>319.292</ele>
        <time>2019-09-24T10:39:01.001Z</time>
      </trkpt>
      <trkpt lat="48.14169" lon="5.55985">
        <ele>319.512</ele>
        <time>2019-09-24T10:39:04.001Z</time>
      </trkpt>
      <trkpt lat="48.14163" lon="5.55993">
        <ele>320.179</ele>
        <time>2019-09-24T10:39:07.001Z</time>
      </trkpt>
      <trkpt lat="48.14158" lon="5.56">
        <ele>321.104</ele>
        <time>2019-09-24T10:39:10.001Z</time>
      </trkpt>
      <trkpt lat="48.14152" lon="5.56008">
        <ele>320.9</ele>
        <time>2019-09-24T10:39:13.001Z</time>
      </trkpt>
      <trkpt lat="48.14145" lon="5.56016">
        <ele>320.058</ele>
        <time>2019-09-24T12:39:16Z</time>
      </trkpt>
      <trkpt lat="48.14141" lon="5.56024">
        <ele>320.066</ele>
        <time>2019-09-24T10:39:19.001Z</time>
      </trkpt>
      <trkpt lat="48.14137" lon="5.56031">
        <ele>320.871</ele>
        <time>2019-09-24T10:39:22.001Z</time>
      </trkpt>
      <trkpt lat="48.14133" lon="5.56038">
        <ele>321.957</ele>
        <time>2019-09-24T10:39:25.001Z</time>
      </trkpt>
      <trkpt lat="48.14128" lon="5.56044">
        <ele>322.542</ele>
        <time>2019-09-24T10:39:28.001Z</time>
      </trkpt>
      <trkpt lat="48.14125" lon="5.56048">
        <ele>323.189</ele>
        <time>2019-09-24T10:39:31.001Z</time>
      </trkpt>
      <trkpt lat="48.14119" lon="5.56054">
        <ele>323.459</ele>
        <time>2019-09-24T10:39:34.001Z</time>
      </trkpt>
      <trkpt lat="48.14113" lon="5.56061">
        <ele>323.497</ele>
        <time>2019-09-24T10:39:37.001Z</time>
      </trkpt>
      <trkpt lat="48.14108" lon="5.56066">
        <ele>324.297</ele>
        <time>2019-09-24T10:39:40.001Z</time>
      </trkpt>
      <trkpt lat="48.14103" lon="5.5607">
        <ele>324.943</ele>
        <time>2019-09-24T10:39:43.001Z</time>
      </trkpt>
      <trkpt lat="48.14098" lon="5.56075">
        <ele>326.055</ele>
        <time>2019-09-24T10:39:46.001Z</time>
      </trkpt>
      <trkpt lat="48.14092" lon="5.56079">
        <ele>327.472</ele>
        <time>2019-09-24T10:39:49.001Z</time>
      </trkpt>
      <trkpt lat="48.14088" lon="5.56082">
        <ele>328.329</ele>
        <time>2019-09-24T10:39:52.001Z</time>
      </trkpt>
      <trkpt lat="48.14082" lon="5.56083">
        <ele>329.202</ele>
        <time>2019-09-24T10:39:55.001Z</time>
      </trkpt>
      <trkpt lat="48.14075" lon="5.56084">
        <ele>328.803</ele>
        <time>2019-09-24T10:39:58.001Z</time>
      </trkpt>
      <trkpt lat="48.14066" lon="5.56084">
        <ele>328.867</ele>
        <time>2019-09-24T10:40:01.001Z</time>
      </trkpt>
      <trkpt lat="48.14053" lon="5.56083">
        <ele>329.531</ele>
        <time>2019-09-24T10:40:04.001Z</time>
      </trkpt>
      <trkpt lat="48.14036" lon="5.56081">
        <ele>328.911</ele>
        <time>2019-09-24T10:40:07.001Z</time>
      </trkpt>
      <trkpt lat="48.14018" lon="5.56082">
        <ele>327.093</ele>
        <time>2019-09-24T10:40:10.001Z</time>
      </trkpt>
      <trkpt lat="48.14002" lon="5.56092">
        <ele>325.617</ele>
        <time>2019-09-24T10:40:13.001Z</time>
      </trkpt>
      <trkpt lat="48.13989" lon="5.56108">
        <ele>324.311</ele>
        <time>2019-09-24T12:40:16Z</time>
      </trkpt>
      <trkpt lat="48.13983" lon="5.56126">
        <ele>323.874</ele>
        <time>2019-09-24T10:40:19.001Z</time>
      </trkpt>
      <trkpt lat="48.13979" lon="5.56142">
        <ele>323.624</ele>
        <time>2019-09-24T10:40:22.001Z</time>
      </trkpt>
      <trkpt lat="48.13979" lon="5.56158">
        <ele>323.539</ele>
        <time>2019-09-24T10:40:25.001Z</time>
      </trkpt>
      <trkpt lat="48.1398" lon="5.56171">
        <ele>324.219</ele>
        <time>2019-09-24T10:40:28.001Z</time>
      </trkpt>
      <trkpt lat="48.13972" lon="5.56184">
        <ele>324.393</ele>
        <time>2019-09-24T10:40:31.001Z</time>
      </trkpt>
      <trkpt lat="48.13964" lon="5.56196">
        <ele>324.484</ele>
        <time>2019-09-24T10:40:34.001Z</time>
      </trkpt>
      <trkpt lat="48.13958" lon="5.56207">
        <ele>324.246</ele>
        <time>2019-09-24T10:40:37.001Z</time>
      </trkpt>
      <trkpt lat="48.13954" lon="5.56217">
        <ele>324.346</ele>
        <time>2019-09-24T10:40:40.001Z</time>
      </trkpt>
      <trkpt lat="48.13951" lon="5.56227">
        <ele>325.739</ele>
        <time>2019-09-24T10:40:43.001Z</time>
      </trkpt>
      <trkpt lat="48.13947" lon="5.56234">
        <ele>326.556</ele>
        <time>2019-09-24T10:40:46.001Z</time>
      </trkpt>
      <trkpt lat="48.13943" lon="5.56243">
        <ele>326.512</ele>
        <time>2019-09-24T10:40:49.001Z</time>
      </trkpt>
      <trkpt lat="48.13938" lon="5.56251">
        <ele>326.809</ele>
        <time>2019-09-24T10:40:52.001Z</time>
      </trkpt>
      <trkpt lat="48.13933" lon="5.5626">
        <ele>327.599</ele>
        <time>2019-09-24T10:40:55.001Z</time>
      </trkpt>
      <trkpt lat="48.13928" lon="5.56268">
        <ele>328.47</ele>
        <time>2019-09-24T10:40:58.001Z</time>
      </trkpt>
      <trkpt lat="48.13923" lon="5.56278">
        <ele>329.087</ele>
        <time>2019-09-24T10:41:01.001Z</time>
      </trkpt>
      <trkpt lat="48.13919" lon="5.56287">
        <ele>330.205</ele>
        <time>2019-09-24T10:41:04.001Z</time>
      </trkpt>
      <trkpt lat="48.13914" lon="5.56298">
        <ele>330.128</ele>
        <time>2019-09-24T10:41:07.001Z</time>
      </trkpt>
      <trkpt lat="48.13909" lon="5.56307">
        <ele>329.824</ele>
        <time>2019-09-24T10:41:10.001Z</time>
      </trkpt>
      <trkpt lat="48.13904" lon="5.56317">
        <ele>329.646</ele>
        <time>2019-09-24T10:41:13.001Z</time>
      </trkpt>
      <trkpt lat="48.13898" lon="5.56327">
        <ele>330.426</ele>
        <time>2019-09-24T12:41:16Z</time>
      </trkpt>
      <trkpt lat="48.13891" lon="5.56338">
        <ele>330.869</ele>
        <time>2019-09-24T10:41:19.001Z</time>
      </trkpt>
      <trkpt lat="48.13886" lon="5.5635">
        <ele>333.046</ele>
        <time>2019-09-24T10:41:22.001Z</time>
      </trkpt>
      <trkpt lat="48.1388" lon="5.56361">
        <ele>334.982</ele>
        <time>2019-09-24T10:41:25.001Z</time>
      </trkpt>
      <trkpt lat="48.13874" lon="5.56371">
        <ele>335.229</ele>
        <time>2019-09-24T10:41:28.001Z</time>
      </trkpt>
      <trkpt lat="48.13867" lon="5.5638">
        <ele>335.456</ele>
        <time>2019-09-24T10:41:31.001Z</time>
      </trkpt>
      <trkpt lat="48.13861" lon="5.56387">
        <ele>335.757</ele>
        <time>2019-09-24T10:41:34.001Z</time>
      </trkpt>
      <trkpt lat="48.13854" lon="5.56395">
        <ele>336.384</ele>
        <time>2019-09-24T10:41:37.001Z</time>
      </trkpt>
      <trkpt lat="48.13848" lon="5.56403">
        <ele>338.057</ele>
        <time>2019-09-24T10:41:40.001Z</time>
      </trkpt>
      <trkpt lat="48.1384" lon="5.56407">
        <ele>337.565</ele>
        <time>2019-09-24T10:41:43.001Z</time>
      </trkpt>
      <trkpt lat="48.13831" lon="5.56414">
        <ele>337.528</ele>
        <time>2019-09-24T10:41:46.001Z</time>
      </trkpt>
      <trkpt lat="48.13823" lon="5.5642">
        <ele>337.704</ele>
        <time>2019-09-24T10:41:49.001Z</time>
      </trkpt>
      <trkpt lat="48.13816" lon="5.56427">
        <ele>337.981</ele>
        <time>2019-09-24T10:41:52.001Z</time>
      </trkpt>
      <trkpt lat="48.13809" lon="5.56432">
        <ele>337.998</ele>
        <time>2019-09-24T10:41:55.001Z</time>
      </trkpt>
      <trkpt lat="48.13802" lon="5.56437">
        <ele>338.178</ele>
        <time>2019-09-24T10:41:58.001Z</time>
      </trkpt>
      <trkpt lat="48.13795" lon="5.56444">
        <ele>338.191</ele>
        <time>2019-09-24T10:42:01.001Z</time>
      </trkpt>
      <trkpt lat="48.13787" lon="5.56449">
        <ele>338.013</ele>
        <time>2019-09-24T10:42:04.001Z</time>
      </trkpt>
      <trkpt lat="48.1378" lon="5.56455">
        <ele>337.579</ele>
        <time>2019-09-24T10:42:07.001Z</time>
      </trkpt>
      <trkpt lat="48.13772" lon="5.5646">
        <ele>337.497</ele>
        <time>2019-09-24T10:42:10.001Z</time>
      </trkpt>
      <trkpt lat="48.13765" lon="5.56467">
        <ele>337.481</ele>
        <time>2019-09-24T10:42:13.001Z</time>
      </trkpt>
      <trkpt lat="48.13757" lon="5.56472">
        <ele>337.484</ele>
        <time>2019-09-24T12:42:16Z</time>
      </trkpt>
      <trkpt lat="48.1375" lon="5.56478">
        <ele>337.772</ele>
        <time>2019-09-24T10:42:19.001Z</time>
      </trkpt>
      <trkpt lat="48.13741" lon="5.56484">
        <ele>337.731</ele>
        <time>2019-09-24T10:42:22.001Z</time>
      </trkpt>
      <trkpt lat="48.13733" lon="5.56489">
        <ele>337.223</ele>
        <time>2019-09-24T10:42:25.001Z</time>
      </trkpt>
      <trkpt lat="48.13725" lon="5.56496">
        <ele>337.093</ele>
        <time>2019-09-24T10:42:28.001Z</time>
      </trkpt>
      <trkpt lat="48.13717" lon="5.56502">
        <ele>337.55</ele>
        <time>2019-09-24T10:42:31.001Z</time>
      </trkpt>
      <trkpt lat="48.13708" lon="5.5651">
        <ele>338.189</ele>
        <time>2019-09-24T10:42:34.001Z</time>
      </trkpt>
      <trkpt lat="48.13697" lon="5.56519">
        <ele>338.668</ele>
        <time>2019-09-24T10:42:37.001Z</time>
      </trkpt>
      <trkpt lat="48.13686" lon="5.56529">
        <ele>338.702</ele>
        <time>2019-09-24T10:42:40.001Z</time>
      </trkpt>
      <trkpt lat="48.13674" lon="5.56539">
        <ele>338.666</ele>
        <time>2019-09-24T10:42:43.001Z</time>
      </trkpt>
      <trkpt lat="48.13661" lon="5.56549">
        <ele>338.635</ele>
        <time>2019-09-24T10:42:46.001Z</time>
      </trkpt>
      <trkpt lat="48.1365" lon="5.56559">
        <ele>338.937</ele>
        <time>2019-09-24T10:42:49.001Z</time>
      </trkpt>
      <trkpt lat="48.13639" lon="5.5657">
        <ele>338.751</ele>
        <time>2019-09-24T10:42:52.001Z</time>
      </trkpt>
      <trkpt lat="48.13629" lon="5.56579">
        <ele>338.232</ele>
        <time>2019-09-24T10:42:55.001Z</time>
      </trkpt>
      <trkpt lat="48.13618" lon="5.56587">
        <ele>337.694</ele>
        <time>2019-09-24T10:42:58.001Z</time>
      </trkpt>
      <trkpt lat="48.13606" lon="5.56596">
        <ele>337.122</ele>
        <time>2019-09-24T10:43:01.001Z</time>
      </trkpt>
      <trkpt lat="48.13593" lon="5.56605">
        <ele>336.629</ele>
        <time>2019-09-24T10:43:04.001Z</time>
      </trkpt>
      <trkpt lat="48.13579" lon="5.56615">
        <ele>335.695</ele>
        <time>2019-09-24T10:43:07.001Z</time>
      </trkpt>
      <trkpt lat="48.13564" lon="5.56625">
        <ele>334.867</ele>
        <time>2019-09-24T10:43:10.001Z</time>
      </trkpt>
      <trkpt lat="48.1355" lon="5.56634">
        <ele>333.884</ele>
        <time>2019-09-24T10:43:13.001Z</time>
      </trkpt>
      <trkpt lat="48.13535" lon="5.56642">
        <ele>333.03</ele>
        <time>2019-09-24T12:43:16Z</time>
      </trkpt>
      <trkpt lat="48.1352" lon="5.56648">
        <ele>332.013</ele>
        <time>2019-09-24T10:43:19.001Z</time>
      </trkpt>
      <trkpt lat="48.13504" lon="5.56655">
        <ele>330.766</ele>
        <time>2019-09-24T10:43:22.001Z</time>
      </trkpt>
      <trkpt lat="48.13488" lon="5.56662">
        <ele>329.998</ele>
        <time>2019-09-24T10:43:25.001Z</time>
      </trkpt>
      <trkpt lat="48.13472" lon="5.56667">
        <ele>329.393</ele>
        <time>2019-09-24T10:43:28.001Z</time>
      </trkpt>
      <trkpt lat="48.13458" lon="5.56672">
        <ele>329.164</ele>
        <time>2019-09-24T10:43:31.001Z</time>
      </trkpt>
      <trkpt lat="48.13443" lon="5.56677">
        <ele>329.076</ele>
        <time>2019-09-24T10:43:34.001Z</time>
      </trkpt>
      <trkpt lat="48.13427" lon="5.56681">
        <ele>328.691</ele>
        <time>2019-09-24T10:43:37.001Z</time>
      </trkpt>
      <trkpt lat="48.13411" lon="5.56685">
        <ele>328.4</ele>
        <time>2019-09-24T10:43:40.001Z</time>
      </trkpt>
      <trkpt lat="48.13395" lon="5.56688">
        <ele>327.923</ele>
        <time>2019-09-24T10:43:43.001Z</time>
      </trkpt>
      <trkpt lat="48.1338" lon="5.56693">
        <ele>327.545</ele>
        <time>2019-09-24T10:43:46.001Z</time>
      </trkpt>
      <trkpt lat="48.13364" lon="5.567">
        <ele>327.197</ele>
        <time>2019-09-24T10:43:49.001Z</time>
      </trkpt>
      <trkpt lat="48.13346" lon="5.56711">
        <ele>326.91</ele>
        <time>2019-09-24T10:43:52.001Z</time>
      </trkpt>
      <trkpt lat="48.13327" lon="5.56724">
        <ele>326.644</ele>
        <time>2019-09-24T10:43:55.001Z</time>
      </trkpt>
      <trkpt lat="48.13306" lon="5.56739">
        <ele>326.263</ele>
        <time>2019-09-24T10:43:58.001Z</time>
      </trkpt>
      <trkpt lat="48.13284" lon="5.56755">
        <ele>325.422</ele>
        <time>2019-09-24T10:44:01.001Z</time>
      </trkpt>
      <trkpt lat="48.1326" lon="5.5677">
        <ele>324.187</ele>
        <time>2019-09-24T10:44:04.001Z</time>
      </trkpt>
      <trkpt lat="48.13236" lon="5.56783">
        <ele>323.224</ele>
        <time>2019-09-24T10:44:07.001Z</time>
      </trkpt>
      <trkpt lat="48.13213" lon="5.56792">
        <ele>322.87</ele>
        <time>2019-09-24T10:44:10.001Z</time>
      </trkpt>
      <trkpt lat="48.13191" lon="5.56797">
        <ele>322.163</ele>
        <time>2019-09-24T10:44:13.001Z</time>
      </trkpt>
      <trkpt lat="48.1317" lon="5.56802">
        <ele>321.073</ele>
        <time>2019-09-24T12:44:16Z</time>
      </trkpt>
      <trkpt lat="48.13151" lon="5.56807">
        <ele>320.13</ele>
        <time>2019-09-24T10:44:19.001Z</time>
      </trkpt>
      <trkpt lat="48.13133" lon="5.56812">
        <ele>319.275</ele>
        <time>2019-09-24T10:44:22.001Z</time>
      </trkpt>
      <trkpt lat="48.13117" lon="5.56816">
        <ele>318.752</ele>
        <time>2019-09-24T10:44:25.001Z</time>
      </trkpt>
      <trkpt lat="48.13103" lon="5.56819">
        <ele>318.063</ele>
        <time>2019-09-24T10:44:28.001Z</time>
      </trkpt>
      <trkpt lat="48.13093" lon="5.56821">
        <ele>317.748</ele>
        <time>2019-09-24T10:44:31.001Z</time>
      </trkpt>
      <trkpt lat="48.13085" lon="5.56823">
        <ele>317.558</ele>
        <time>2019-09-24T10:44:34.001Z</time>
      </trkpt>
      <trkpt lat="48.13076" lon="5.56826">
        <ele>317.624</ele>
        <time>2019-09-24T10:44:37.001Z</time>
      </trkpt>
      <trkpt lat="48.13066" lon="5.56827">
        <ele>316.942</ele>
        <time>2019-09-24T10:44:40.001Z</time>
      </trkpt>
      <trkpt lat="48.13055" lon="5.56829">
        <ele>316.14</ele>
        <time>2019-09-24T10:44:43.001Z</time>
      </trkpt>
      <trkpt lat="48.13045" lon="5.56832">
        <ele>315.867</ele>
        <time>2019-09-24T10:44:46.001Z</time>
      </trkpt>
      <trkpt lat="48.13035" lon="5.56834">
        <ele>315.665</ele>
        <time>2019-09-24T10:44:49.001Z</time>
      </trkpt>
      <trkpt lat="48.13025" lon="5.56836">
        <ele>315.408</ele>
        <time>2019-09-24T10:44:52.001Z</time>
      </trkpt>
      <trkpt lat="48.13015" lon="5.56838">
        <ele>315.47</ele>
        <time>2019-09-24T10:44:55.001Z</time>
      </trkpt>
      <trkpt lat="48.13006" lon="5.5684">
        <ele>315.916</ele>
        <time>2019-09-24T10:44:58.001Z</time>
      </trkpt>
      <trkpt lat="48.12996" lon="5.56843">
        <ele>316.749</ele>
        <time>2019-09-24T10:45:01.001Z</time>
      </trkpt>
      <trkpt lat="48.12986" lon="5.56846">
        <ele>317.135</ele>
        <time>2019-09-24T10:45:04.001Z</time>
      </trkpt>
      <trkpt lat="48.12976" lon="5.56848">
        <ele>317.394</ele>
        <time>2019-09-24T10:45:07.001Z</time>
      </trkpt>
      <trkpt lat="48.12966" lon="5.56849">
        <ele>317.421</ele>
        <time>2019-09-24T10:45:10.001Z</time>
      </trkpt>
      <trkpt lat="48.12957" lon="5.56851">
        <ele>317.312</ele>
        <time>2019-09-24T10:45:13.001Z</time>
      </trkpt>
      <trkpt lat="48.12947" lon="5.56852">
        <ele>317.236</ele>
        <time>2019-09-24T12:45:16Z</time>
      </trkpt>
      <trkpt lat="48.12939" lon="5.56854">
        <ele>317.152</ele>
        <time>2019-09-24T10:45:19.001Z</time>
      </trkpt>
      <trkpt lat="48.12931" lon="5.56856">
        <ele>317.738</ele>
        <time>2019-09-24T10:45:22.001Z</time>
      </trkpt>
      <trkpt lat="48.12922" lon="5.56859">
        <ele>318.217</ele>
        <time>2019-09-24T10:45:25.001Z</time>
      </trkpt>
      <trkpt lat="48.12913" lon="5.56861">
        <ele>318.512</ele>
        <time>2019-09-24T10:45:28.001Z</time>
      </trkpt>
      <trkpt lat="48.12905" lon="5.56862">
        <ele>318.791</ele>
        <time>2019-09-24T10:45:31.001Z</time>
      </trkpt>
      <trkpt lat="48.12897" lon="5.56863">
        <ele>318.866</ele>
        <time>2019-09-24T10:45:34.001Z</time>
      </trkpt>
      <trkpt lat="48.1289" lon="5.56864">
        <ele>319.077</ele>
        <time>2019-09-24T10:45:37.001Z</time>
      </trkpt>
      <trkpt lat="48.12883" lon="5.56866">
        <ele>319.847</ele>
        <time>2019-09-24T10:45:40.001Z</time>
      </trkpt>
      <trkpt lat="48.12876" lon="5.56866">
        <ele>320.448</ele>
        <time>2019-09-24T10:45:43.001Z</time>
      </trkpt>
      <trkpt lat="48.12868" lon="5.56867">
        <ele>320.857</ele>
        <time>2019-09-24T10:45:46.001Z</time>
      </trkpt>
      <trkpt lat="48.12861" lon="5.56869">
        <ele>320.708</ele>
        <time>2019-09-24T10:45:49.001Z</time>
      </trkpt>
      <trkpt lat="48.12853" lon="5.56869">
        <ele>320.588</ele>
        <time>2019-09-24T10:45:52.002Z</time>
      </trkpt>
      <trkpt lat="48.12845" lon="5.5687">
        <ele>320.354</ele>
        <time>2019-09-24T10:45:55.001Z</time>
      </trkpt>
      <trkpt lat="48.12838" lon="5.5687">
        <ele>320.309</ele>
        <time>2019-09-24T10:45:58.001Z</time>
      </trkpt>
      <trkpt lat="48.1283" lon="5.56871">
        <ele>320.269</ele>
        <time>2019-09-24T10:46:01.001Z</time>
      </trkpt>
      <trkpt lat="48.12823" lon="5.56871">
        <ele>320.133</ele>
        <time>2019-09-24T10:46:04.001Z</time>
      </trkpt>
      <trkpt lat="48.12816" lon="5.56871">
        <ele>319.882</ele>
        <time>2019-09-24T10:46:07.001Z</time>
      </trkpt>
      <trkpt lat="48.12809" lon="5.56871">
        <ele>319.875</ele>
        <time>2019-09-24T10:46:10.001Z</time>
      </trkpt>
      <trkpt lat="48.12802" lon="5.56872">
        <ele>319.878</ele>
        <time>2019-09-24T10:46:13.001Z</time>
      </trkpt>
      <trkpt lat="48.12795" lon="5.56872">
        <ele>319.77</ele>
        <time>2019-09-24T12:46:16Z</time>
      </trkpt>
      <trkpt lat="48.12788" lon="5.56873">
        <ele>320.031</ele>
        <time>2019-09-24T10:46:19.001Z</time>
      </trkpt>
      <trkpt lat="48.12782" lon="5.56874">
        <ele>320.186</ele>
        <time>2019-09-24T10:46:22.001Z</time>
      </trkpt>
      <trkpt lat="48.12775" lon="5.56874">
        <ele>320.619</ele>
        <time>2019-09-24T10:46:25.001Z</time>
      </trkpt>
      <trkpt lat="48.12768" lon="5.56874">
        <ele>320.881</ele>
        <time>2019-09-24T10:46:28.001Z</time>
      </trkpt>
      <trkpt lat="48.12761" lon="5.56874">
        <ele>321.16</ele>
        <time>2019-09-24T10:46:31.001Z</time>
      </trkpt>
      <trkpt lat="48.12755" lon="5.56875">
        <ele>321.31</ele>
        <time>2019-09-24T10:46:34.001Z</time>
      </trkpt>
      <trkpt lat="48.12749" lon="5.56874">
        <ele>321.899</ele>
        <time>2019-09-24T10:46:37.001Z</time>
      </trkpt>
      <trkpt lat="48.12743" lon="5.56872">
        <ele>321.972</ele>
        <time>2019-09-24T10:46:40.001Z</time>
      </trkpt>
      <trkpt lat="48.12736" lon="5.56869">
        <ele>322.077</ele>
        <time>2019-09-24T10:46:43.001Z</time>
      </trkpt>
      <trkpt lat="48.1273" lon="5.56866">
        <ele>322.459</ele>
        <time>2019-09-24T10:46:46.001Z</time>
      </trkpt>
      <trkpt lat="48.12726" lon="5.56861">
        <ele>323.205</ele>
        <time>2019-09-24T10:46:49.001Z</time>
      </trkpt>
      <trkpt lat="48.12722" lon="5.56856">
        <ele>324.628</ele>
        <time>2019-09-24T10:46:52.001Z</time>
      </trkpt>
      <trkpt lat="48.12718" lon="5.56852">
        <ele>325.739</ele>
        <time>2019-09-24T10:46:55.001Z</time>
      </trkpt>
      <trkpt lat="48.12712" lon="5.56849">
        <ele>327.009</ele>
        <time>2019-09-24T10:46:58.001Z</time>
      </trkpt>
      <trkpt lat="48.12706" lon="5.56846">
        <ele>328.167</ele>
        <time>2019-09-24T10:47:01.001Z</time>
      </trkpt>
      <trkpt lat="48.127" lon="5.56842">
        <ele>329.715</ele>
        <time>2019-09-24T10:47:04.001Z</time>
      </trkpt>
      <trkpt lat="48.12694" lon="5.56838">
        <ele>331.41</ele>
        <time>2019-09-24T10:47:07.001Z</time>
      </trkpt>
      <trkpt lat="48.12689" lon="5.56832">
        <ele>332.917</ele>
        <time>2019-09-24T10:47:10.001Z</time>
      </trkpt>
      <trkpt lat="48.12683" lon="5.56829">
        <ele>334.693</ele>
        <time>2019-09-24T10:47:13.001Z</time>
      </trkpt>
      <trkpt lat="48.12678" lon="5.56826">
        <ele>336.364</ele>
        <time>2019-09-24T12:47:16Z</time>
      </trkpt>
      <trkpt lat="48.12671" lon="5.56823">
        <ele>337.985</ele>
        <time>2019-09-24T10:47:19.001Z</time>
      </trkpt>
      <trkpt lat="48.12664" lon="5.56818">
        <ele>339.353</ele>
        <time>2019-09-24T10:47:22.001Z</time>
      </trkpt>
      <trkpt lat="48.12656" lon="5.56814">
        <ele>340.213</ele>
        <time>2019-09-24T10:47:25.001Z</time>
      </trkpt>
      <trkpt lat="48.12647" lon="5.5681">
        <ele>341.137</ele>
        <time>2019-09-24T10:47:28.001Z</time>
      </trkpt>
      <trkpt lat="48.12637" lon="5.56803">
        <ele>341.26</ele>
        <time>2019-09-24T10:47:31.001Z</time>
      </trkpt>
      <trkpt lat="48.12623" lon="5.56794">
        <ele>340.873</ele>
        <time>2019-09-24T10:47:34.001Z</time>
      </trkpt>
      <trkpt lat="48.12608" lon="5.56784">
        <ele>340.634</ele>
        <time>2019-09-24T10:47:37.001Z</time>
      </trkpt>
      <trkpt lat="48.12594" lon="5.56776">
        <ele>340.497</ele>
        <time>2019-09-24T10:47:40.001Z</time>
      </trkpt>
      <trkpt lat="48.12579" lon="5.56768">
        <ele>340.03</ele>
        <time>2019-09-24T10:47:43.001Z</time>
      </trkpt>
      <trkpt lat="48.12564" lon="5.56759">
        <ele>339.688</ele>
        <time>2019-09-24T10:47:46.001Z</time>
      </trkpt>
      <trkpt lat="48.12544" lon="5.56749">
        <ele>339.033</ele>
        <time>2019-09-24T10:47:49.001Z</time>
      </trkpt>
      <trkpt lat="48.12525" lon="5.56745">
        <ele>338.423</ele>
        <time>2019-09-24T10:47:52.001Z</time>
      </trkpt>
      <trkpt lat="48.12506" lon="5.56743">
        <ele>338.427</ele>
        <time>2019-09-24T10:47:55.001Z</time>
      </trkpt>
      <trkpt lat="48.12486" lon="5.56743">
        <ele>338.282</ele>
        <time>2019-09-24T10:47:58.001Z</time>
      </trkpt>
      <trkpt lat="48.12468" lon="5.56743">
        <ele>337.98</ele>
        <time>2019-09-24T10:48:01.001Z</time>
      </trkpt>
      <trkpt lat="48.12449" lon="5.56744">
        <ele>336.604</ele>
        <time>2019-09-24T10:48:04.001Z</time>
      </trkpt>
      <trkpt lat="48.12432" lon="5.56749">
        <ele>334.322</ele>
        <time>2019-09-24T10:48:07.001Z</time>
      </trkpt>
      <trkpt lat="48.12417" lon="5.56755">
        <ele>331.748</ele>
        <time>2019-09-24T10:48:10.001Z</time>
      </trkpt>
      <trkpt lat="48.12404" lon="5.56762">
        <ele>329.911</ele>
        <time>2019-09-24T10:48:13.001Z</time>
      </trkpt>
      <trkpt lat="48.12393" lon="5.56771">
        <ele>328.103</ele>
        <time>2019-09-24T12:48:16Z</time>
      </trkpt>
      <trkpt lat="48.12381" lon="5.56781">
        <ele>325.922</ele>
        <time>2019-09-24T10:48:19.001Z</time>
      </trkpt>
      <trkpt lat="48.1237" lon="5.5679">
        <ele>324.414</ele>
        <time>2019-09-24T10:48:22.001Z</time>
      </trkpt>
      <trkpt lat="48.12359" lon="5.568">
        <ele>323.083</ele>
        <time>2019-09-24T10:48:25.001Z</time>
      </trkpt>
      <trkpt lat="48.12348" lon="5.56809">
        <ele>322.225</ele>
        <time>2019-09-24T10:48:28.001Z</time>
      </trkpt>
      <trkpt lat="48.12337" lon="5.56818">
        <ele>321.913</ele>
        <time>2019-09-24T10:48:31.001Z</time>
      </trkpt>
      <trkpt lat="48.12328" lon="5.56828">
        <ele>321.616</ele>
        <time>2019-09-24T10:48:34.001Z</time>
      </trkpt>
      <trkpt lat="48.12319" lon="5.56837">
        <ele>321.68</ele>
        <time>2019-09-24T10:48:37.001Z</time>
      </trkpt>
      <trkpt lat="48.12309" lon="5.56847">
        <ele>322.269</ele>
        <time>2019-09-24T10:48:40.001Z</time>
      </trkpt>
      <trkpt lat="48.12298" lon="5.56858">
        <ele>322.874</ele>
        <time>2019-09-24T10:48:43.001Z</time>
      </trkpt>
      <trkpt lat="48.12288" lon="5.56871">
        <ele>323.254</ele>
        <time>2019-09-24T10:48:46.001Z</time>
      </trkpt>
      <trkpt lat="48.12278" lon="5.56884">
        <ele>323.995</ele>
        <time>2019-09-24T10:48:49.001Z</time>
      </trkpt>
      <trkpt lat="48.12267" lon="5.56898">
        <ele>324.073</ele>
        <time>2019-09-24T10:48:52.001Z</time>
      </trkpt>
      <trkpt lat="48.12256" lon="5.56913">
        <ele>324.215</ele>
        <time>2019-09-24T10:48:55.001Z</time>
      </trkpt>
      <trkpt lat="48.12244" lon="5.56932">
        <ele>324.062</ele>
        <time>2019-09-24T10:48:58.001Z</time>
      </trkpt>
      <trkpt lat="48.12234" lon="5.56949">
        <ele>324.531</ele>
        <time>2019-09-24T10:49:01.001Z</time>
      </trkpt>
      <trkpt lat="48.12224" lon="5.56969">
        <ele>324.794</ele>
        <time>2019-09-24T10:49:04.001Z</time>
      </trkpt>
      <trkpt lat="48.12214" lon="5.56991">
        <ele>324.799</ele>
        <time>2019-09-24T10:49:07.001Z</time>
      </trkpt>
      <trkpt lat="48.12204" lon="5.57012">
        <ele>324.912</ele>
        <time>2019-09-24T10:49:10.001Z</time>
      </trkpt>
      <trkpt lat="48.12196" lon="5.57032">
        <ele>325.354</ele>
        <time>2019-09-24T10:49:13.001Z</time>
      </trkpt>
      <trkpt lat="48.12188" lon="5.57052">
        <ele>326.126</ele>
        <time>2019-09-24T12:49:16Z</time>
      </trkpt>
      <trkpt lat="48.12182" lon="5.57072">
        <ele>326.666</ele>
        <time>2019-09-24T10:49:19.001Z</time>
      </trkpt>
      <trkpt lat="48.12175" lon="5.5709">
        <ele>327.246</ele>
        <time>2019-09-24T10:49:22.001Z</time>
      </trkpt>
      <trkpt lat="48.1217" lon="5.57112">
        <ele>328.193</ele>
        <time>2019-09-24T10:49:25.001Z</time>
      </trkpt>
      <trkpt lat="48.12165" lon="5.57133">
        <ele>329.421</ele>
        <time>2019-09-24T10:49:28.001Z</time>
      </trkpt>
      <trkpt lat="48.12159" lon="5.57153">
        <ele>330.304</ele>
        <time>2019-09-24T10:49:31.001Z</time>
      </trkpt>
      <trkpt lat="48.12152" lon="5.57173">
        <ele>330.778</ele>
        <time>2019-09-24T10:49:34.001Z</time>
      </trkpt>
      <trkpt lat="48.12145" lon="5.57192">
        <ele>331.189</ele>
        <time>2019-09-24T10:49:37.001Z</time>
      </trkpt>
      <trkpt lat="48.12139" lon="5.57211">
        <ele>330.538</ele>
        <time>2019-09-24T10:49:40.001Z</time>
      </trkpt>
      <trkpt lat="48.12133" lon="5.5723">
        <ele>329.574</ele>
        <time>2019-09-24T10:49:43.001Z</time>
      </trkpt>
      <trkpt lat="48.12128" lon="5.57249">
        <ele>328.499</ele>
        <time>2019-09-24T10:49:46.001Z</time>
      </trkpt>
      <trkpt lat="48.12124" lon="5.57269">
        <ele>327.724</ele>
        <time>2019-09-24T10:49:49.001Z</time>
      </trkpt>
      <trkpt lat="48.1212" lon="5.57286">
        <ele>328.039</ele>
        <time>2019-09-24T10:49:52.001Z</time>
      </trkpt>
      <trkpt lat="48.12116" lon="5.57303">
        <ele>328.859</ele>
        <time>2019-09-24T10:49:55.001Z</time>
      </trkpt>
      <trkpt lat="48.12112" lon="5.57319">
        <ele>329.551</ele>
        <time>2019-09-24T10:49:58.001Z</time>
      </trkpt>
      <trkpt lat="48.12107" lon="5.57338">
        <ele>330.793</ele>
        <time>2019-09-24T10:50:01.001Z</time>
      </trkpt>
      <trkpt lat="48.12101" lon="5.57358">
        <ele>331.59</ele>
        <time>2019-09-24T10:50:04.001Z</time>
      </trkpt>
      <trkpt lat="48.12095" lon="5.57379">
        <ele>331.752</ele>
        <time>2019-09-24T10:50:07.001Z</time>
      </trkpt>
      <trkpt lat="48.12091" lon="5.57397">
        <ele>332.549</ele>
        <time>2019-09-24T10:50:10.001Z</time>
      </trkpt>
      <trkpt lat="48.12085" lon="5.57418">
        <ele>332.604</ele>
        <time>2019-09-24T10:50:13.001Z</time>
      </trkpt>
      <trkpt lat="48.1208" lon="5.57439">
        <ele>332.25</ele>
        <time>2019-09-24T12:50:16Z</time>
      </trkpt>
      <trkpt lat="48.12074" lon="5.57461">
        <ele>332</ele>
        <time>2019-09-24T10:50:19.001Z</time>
      </trkpt>
      <trkpt lat="48.12069" lon="5.57483">
        <ele>330.922</ele>
        <time>2019-09-24T10:50:22.001Z</time>
      </trkpt>
      <trkpt lat="48.12064" lon="5.57505">
        <ele>329.836</ele>
        <time>2019-09-24T10:50:25.001Z</time>
      </trkpt>
      <trkpt lat="48.12058" lon="5.57527">
        <ele>329.231</ele>
        <time>2019-09-24T10:50:28.001Z</time>
      </trkpt>
      <trkpt lat="48.12051" lon="5.57549">
        <ele>328.677</ele>
        <time>2019-09-24T10:50:31.001Z</time>
      </trkpt>
      <trkpt lat="48.12044" lon="5.5757">
        <ele>328.596</ele>
        <time>2019-09-24T10:50:34.001Z</time>
      </trkpt>
      <trkpt lat="48.12037" lon="5.5759">
        <ele>329.226</ele>
        <time>2019-09-24T10:50:37.001Z</time>
      </trkpt>
      <trkpt lat="48.1203" lon="5.57615">
        <ele>329.581</ele>
        <time>2019-09-24T10:50:40.001Z</time>
      </trkpt>
      <trkpt lat="48.12022" lon="5.5764">
        <ele>329.502</ele>
        <time>2019-09-24T10:50:43.001Z</time>
      </trkpt>
      <trkpt lat="48.12015" lon="5.57665">
        <ele>329.26</ele>
        <time>2019-09-24T10:50:46.001Z</time>
      </trkpt>
      <trkpt lat="48.12008" lon="5.57691">
        <ele>328.597</ele>
        <time>2019-09-24T10:50:49.001Z</time>
      </trkpt>
      <trkpt lat="48.12001" lon="5.57714">
        <ele>328.075</ele>
        <time>2019-09-24T10:50:52.001Z</time>
      </trkpt>
      <trkpt lat="48.11994" lon="5.57738">
        <ele>327.371</ele>
        <time>2019-09-24T10:50:55.001Z</time>
      </trkpt>
      <trkpt lat="48.11988" lon="5.5776">
        <ele>326.981</ele>
        <time>2019-09-24T10:50:58.001Z</time>
      </trkpt>
      <trkpt lat="48.11983" lon="5.5778">
        <ele>326.85</ele>
        <time>2019-09-24T10:51:01.001Z</time>
      </trkpt>
      <trkpt lat="48.11977" lon="5.57797">
        <ele>327.214</ele>
        <time>2019-09-24T10:51:04.001Z</time>
      </trkpt>
      <trkpt lat="48.11971" lon="5.57817">
        <ele>327.152</ele>
        <time>2019-09-24T10:51:07.001Z</time>
      </trkpt>
      <trkpt lat="48.11966" lon="5.57839">
        <ele>326.823</ele>
        <time>2019-09-24T10:51:10.001Z</time>
      </trkpt>
      <trkpt lat="48.11963" lon="5.57863">
        <ele>325.827</ele>
        <time>2019-09-24T10:51:13.001Z</time>
      </trkpt>
      <trkpt lat="48.11957" lon="5.57884">
        <ele>325.918</ele>
        <time>2019-09-24T12:51:16Z</time>
      </trkpt>
      <trkpt lat="48.11951" lon="5.57903">
        <ele>326.33</ele>
        <time>2019-09-24T10:51:19.001Z</time>
      </trkpt>
      <trkpt lat="48.11945" lon="5.5792">
        <ele>327.278</ele>
        <time>2019-09-24T10:51:22.001Z</time>
      </trkpt>
      <trkpt lat="48.11941" lon="5.57939">
        <ele>327.377</ele>
        <time>2019-09-24T10:51:25.001Z</time>
      </trkpt>
      <trkpt lat="48.11936" lon="5.5796">
        <ele>327.146</ele>
        <time>2019-09-24T10:51:28.001Z</time>
      </trkpt>
      <trkpt lat="48.11931" lon="5.57981">
        <ele>326.802</ele>
        <time>2019-09-24T10:51:31.001Z</time>
      </trkpt>
      <trkpt lat="48.11925" lon="5.58002">
        <ele>326.945</ele>
        <time>2019-09-24T10:51:34.001Z</time>
      </trkpt>
      <trkpt lat="48.1192" lon="5.58022">
        <ele>326.737</ele>
        <time>2019-09-24T10:51:37.001Z</time>
      </trkpt>
      <trkpt lat="48.11915" lon="5.58041">
        <ele>326.406</ele>
        <time>2019-09-24T10:51:40.001Z</time>
      </trkpt>
      <trkpt lat="48.1191" lon="5.58058">
        <ele>326.657</ele>
        <time>2019-09-24T10:51:43.001Z</time>
      </trkpt>
      <trkpt lat="48.11904" lon="5.58076">
        <ele>326.337</ele>
        <time>2019-09-24T10:51:46.001Z</time>
      </trkpt>
      <trkpt lat="48.11899" lon="5.58097">
        <ele>326.58</ele>
        <time>2019-09-24T10:51:49.001Z</time>
      </trkpt>
      <trkpt lat="48.11894" lon="5.58115">
        <ele>326.833</ele>
        <time>2019-09-24T10:51:52.001Z</time>
      </trkpt>
      <trkpt lat="48.11889" lon="5.58133">
        <ele>326.913</ele>
        <time>2019-09-24T10:51:55.001Z</time>
      </trkpt>
      <trkpt lat="48.11884" lon="5.5815">
        <ele>327.015</ele>
        <time>2019-09-24T10:51:58.001Z</time>
      </trkpt>
      <trkpt lat="48.11879" lon="5.58167">
        <ele>327.314</ele>
        <time>2019-09-24T10:52:01.001Z</time>
      </trkpt>
      <trkpt lat="48.11873" lon="5.58186">
        <ele>327.445</ele>
        <time>2019-09-24T10:52:04.001Z</time>
      </trkpt>
      <trkpt lat="48.11868" lon="5.58204">
        <ele>327.493</ele>
        <time>2019-09-24T10:52:07.001Z</time>
      </trkpt>
      <trkpt lat="48.11863" lon="5.58222">
        <ele>327.618</ele>
        <time>2019-09-24T10:52:10.001Z</time>
      </trkpt>
      <trkpt lat="48.11858" lon="5.58239">
        <ele>327.512</ele>
        <time>2019-09-24T10:52:13.001Z</time>
      </trkpt>
      <trkpt lat="48.11853" lon="5.58256">
        <ele>327.486</ele>
        <time>2019-09-24T12:52:16Z</time>
      </trkpt>
      <trkpt lat="48.11848" lon="5.58271">
        <ele>327.75</ele>
        <time>2019-09-24T10:52:19.001Z</time>
      </trkpt>
      <trkpt lat="48.11842" lon="5.58287">
        <ele>327.971</ele>
        <time>2019-09-24T10:52:22.001Z</time>
      </trkpt>
      <trkpt lat="48.11835" lon="5.58304">
        <ele>328.077</ele>
        <time>2019-09-24T10:52:25.001Z</time>
      </trkpt>
      <trkpt lat="48.11829" lon="5.58321">
        <ele>327.916</ele>
        <time>2019-09-24T10:52:28.001Z</time>
      </trkpt>
      <trkpt lat="48.11822" lon="5.58337">
        <ele>327.664</ele>
        <time>2019-09-24T10:52:31.001Z</time>
      </trkpt>
      <trkpt lat="48.11815" lon="5.58353">
        <ele>327.675</ele>
        <time>2019-09-24T10:52:34.001Z</time>
      </trkpt>
      <trkpt lat="48.11809" lon="5.58367">
        <ele>328.017</ele>
        <time>2019-09-24T10:52:37.001Z</time>
      </trkpt>
      <trkpt lat="48.11802" lon="5.5838">
        <ele>328.366</ele>
        <time>2019-09-24T10:52:40.001Z</time>
      </trkpt>
      <trkpt lat="48.11795" lon="5.58393">
        <ele>328.626</ele>
        <time>2019-09-24T10:52:43.001Z</time>
      </trkpt>
      <trkpt lat="48.11788" lon="5.58406">
        <ele>329.348</ele>
        <time>2019-09-24T10:52:46.001Z</time>
      </trkpt>
      <trkpt lat="48.1178" lon="5.5842">
        <ele>329.701</ele>
        <time>2019-09-24T10:52:49.001Z</time>
      </trkpt>
      <trkpt lat="48.11772" lon="5.58434">
        <ele>329.939</ele>
        <time>2019-09-24T10:52:52.001Z</time>
      </trkpt>
      <trkpt lat="48.11764" lon="5.58447">
        <ele>329.85</ele>
        <time>2019-09-24T10:52:55.001Z</time>
      </trkpt>
      <trkpt lat="48.11757" lon="5.58458">
        <ele>329.632</ele>
        <time>2019-09-24T10:52:58.001Z</time>
      </trkpt>
      <trkpt lat="48.1175" lon="5.58469">
        <ele>329.48</ele>
        <time>2019-09-24T10:53:01.001Z</time>
      </trkpt>
      <trkpt lat="48.11742" lon="5.58481">
        <ele>329.144</ele>
        <time>2019-09-24T10:53:04.001Z</time>
      </trkpt>
      <trkpt lat="48.11733" lon="5.58493">
        <ele>328.981</ele>
        <time>2019-09-24T10:53:07.001Z</time>
      </trkpt>
      <trkpt lat="48.11724" lon="5.58504">
        <ele>328.886</ele>
        <time>2019-09-24T10:53:10.001Z</time>
      </trkpt>
      <trkpt lat="48.11715" lon="5.58515">
        <ele>328.677</ele>
        <time>2019-09-24T10:53:13.001Z</time>
      </trkpt>
      <trkpt lat="48.11706" lon="5.58527">
        <ele>328.094</ele>
        <time>2019-09-24T12:53:16Z</time>
      </trkpt>
      <trkpt lat="48.11696" lon="5.58539">
        <ele>327.919</ele>
        <time>2019-09-24T10:53:19.001Z</time>
      </trkpt>
      <trkpt lat="48.11686" lon="5.58549">
        <ele>327.613</ele>
        <time>2019-09-24T10:53:22.001Z</time>
      </trkpt>
      <trkpt lat="48.11676" lon="5.58559">
        <ele>327.263</ele>
        <time>2019-09-24T10:53:25.001Z</time>
      </trkpt>
      <trkpt lat="48.11667" lon="5.58568">
        <ele>327.18</ele>
        <time>2019-09-24T10:53:28.001Z</time>
      </trkpt>
      <trkpt lat="48.11657" lon="5.58578">
        <ele>327.321</ele>
        <time>2019-09-24T10:53:31.001Z</time>
      </trkpt>
      <trkpt lat="48.11648" lon="5.58587">
        <ele>327.682</ele>
        <time>2019-09-24T10:53:34.001Z</time>
      </trkpt>
      <trkpt lat="48.11638" lon="5.58595">
        <ele>327.902</ele>
        <time>2019-09-24T10:53:37.001Z</time>
      </trkpt>
      <trkpt lat="48.11628" lon="5.58603">
        <ele>327.943</ele>
        <time>2019-09-24T10:53:40.001Z</time>
      </trkpt>
      <trkpt lat="48.11619" lon="5.5861">
        <ele>328.216</ele>
        <time>2019-09-24T10:53:43.001Z</time>
      </trkpt>
      <trkpt lat="48.11609" lon="5.58617">
        <ele>328.309</ele>
        <time>2019-09-24T10:53:46.001Z</time>
      </trkpt>
      <trkpt lat="48.11598" lon="5.58624">
        <ele>328.626</ele>
        <time>2019-09-24T10:53:49.001Z</time>
      </trkpt>
      <trkpt lat="48.11587" lon="5.58631">
        <ele>329.244</ele>
        <time>2019-09-24T10:53:52.001Z</time>
      </trkpt>
      <trkpt lat="48.11575" lon="5.58638">
        <ele>329.433</ele>
        <time>2019-09-24T10:53:55.001Z</time>
      </trkpt>
      <trkpt lat="48.11563" lon="5.58644">
        <ele>330.018</ele>
        <time>2019-09-24T10:53:58.001Z</time>
      </trkpt>
      <trkpt lat="48.11551" lon="5.5865">
        <ele>329.957</ele>
        <time>2019-09-24T10:54:01.001Z</time>
      </trkpt>
      <trkpt lat="48.11539" lon="5.58655">
        <ele>329.947</ele>
        <time>2019-09-24T10:54:04.001Z</time>
      </trkpt>
      <trkpt lat="48.11528" lon="5.5866">
        <ele>329.495</ele>
        <time>2019-09-24T10:54:07.001Z</time>
      </trkpt>
      <trkpt lat="48.11515" lon="5.58666">
        <ele>328.985</ele>
        <time>2019-09-24T10:54:10.001Z</time>
      </trkpt>
      <trkpt lat="48.11501" lon="5.58669">
        <ele>328.641</ele>
        <time>2019-09-24T10:54:13.001Z</time>
      </trkpt>
      <trkpt lat="48.11487" lon="5.58674">
        <ele>327.829</ele>
        <time>2019-09-24T12:54:16Z</time>
      </trkpt>
      <trkpt lat="48.11472" lon="5.58677">
        <ele>327.116</ele>
        <time>2019-09-24T10:54:19.001Z</time>
      </trkpt>
      <trkpt lat="48.11457" lon="5.58682">
        <ele>326.676</ele>
        <time>2019-09-24T10:54:22.001Z</time>
      </trkpt>
      <trkpt lat="48.1144" lon="5.58688">
        <ele>326.176</ele>
        <time>2019-09-24T10:54:25.001Z</time>
      </trkpt>
      <trkpt lat="48.11424" lon="5.58692">
        <ele>325.578</ele>
        <time>2019-09-24T10:54:28.001Z</time>
      </trkpt>
      <trkpt lat="48.11407" lon="5.58698">
        <ele>324.852</ele>
        <time>2019-09-24T10:54:31.001Z</time>
      </trkpt>
      <trkpt lat="48.11388" lon="5.58704">
        <ele>324.096</ele>
        <time>2019-09-24T10:54:34.001Z</time>
      </trkpt>
      <trkpt lat="48.11368" lon="5.5871">
        <ele>323.528</ele>
        <time>2019-09-24T10:54:37.001Z</time>
      </trkpt>
      <trkpt lat="48.11348" lon="5.58716">
        <ele>322.772</ele>
        <time>2019-09-24T10:54:40.001Z</time>
      </trkpt>
      <trkpt lat="48.11327" lon="5.58722">
        <ele>321.725</ele>
        <time>2019-09-24T10:54:43.001Z</time>
      </trkpt>
      <trkpt lat="48.11305" lon="5.5873">
        <ele>321.46</ele>
        <time>2019-09-24T10:54:46.001Z</time>
      </trkpt>
      <trkpt lat="48.11285" lon="5.58739">
        <ele>320.882</ele>
        <time>2019-09-24T10:54:49.001Z</time>
      </trkpt>
      <trkpt lat="48.11267" lon="5.58749">
        <ele>320.478</ele>
        <time>2019-09-24T10:54:52.001Z</time>
      </trkpt>
      <trkpt lat="48.11251" lon="5.58759">
        <ele>319.999</ele>
        <time>2019-09-24T10:54:55.001Z</time>
      </trkpt>
      <trkpt lat="48.11237" lon="5.58771">
        <ele>319.766</ele>
        <time>2019-09-24T10:54:58.001Z</time>
      </trkpt>
      <trkpt lat="48.11224" lon="5.58781">
        <ele>319.552</ele>
        <time>2019-09-24T10:55:01.001Z</time>
      </trkpt>
      <trkpt lat="48.11214" lon="5.58791">
        <ele>319.918</ele>
        <time>2019-09-24T10:55:04.001Z</time>
      </trkpt>
      <trkpt lat="48.11205" lon="5.588">
        <ele>320.359</ele>
        <time>2019-09-24T10:55:07.001Z</time>
      </trkpt>
      <trkpt lat="48.11196" lon="5.58809">
        <ele>320.677</ele>
        <time>2019-09-24T10:55:10.001Z</time>
      </trkpt>
      <trkpt lat="48.11188" lon="5.58818">
        <ele>321.575</ele>
        <time>2019-09-24T10:55:13.001Z</time>
      </trkpt>
      <trkpt lat="48.1118" lon="5.58828">
        <ele>322.434</ele>
        <time>2019-09-24T12:55:16Z</time>
      </trkpt>
      <trkpt lat="48.11172" lon="5.58838">
        <ele>323.174</ele>
        <time>2019-09-24T10:55:19.001Z</time>
      </trkpt>
      <trkpt lat="48.11164" lon="5.58849">
        <ele>323.671</ele>
        <time>2019-09-24T10:55:22.001Z</time>
      </trkpt>
      <trkpt lat="48.11156" lon="5.5886">
        <ele>324.539</ele>
        <time>2019-09-24T10:55:25.001Z</time>
      </trkpt>
      <trkpt lat="48.11149" lon="5.5887">
        <ele>325.264</ele>
        <time>2019-09-24T10:55:28.001Z</time>
      </trkpt>
      <trkpt lat="48.1114" lon="5.58879">
        <ele>325.098</ele>
        <time>2019-09-24T10:55:31.001Z</time>
      </trkpt>
      <trkpt lat="48.11134" lon="5.58891">
        <ele>325.442</ele>
        <time>2019-09-24T10:55:34.001Z</time>
      </trkpt>
      <trkpt lat="48.11128" lon="5.58903">
        <ele>325.069</ele>
        <time>2019-09-24T10:55:37.001Z</time>
      </trkpt>
      <trkpt lat="48.11121" lon="5.58915">
        <ele>324.874</ele>
        <time>2019-09-24T10:55:40.001Z</time>
      </trkpt>
      <trkpt lat="48.11114" lon="5.58928">
        <ele>324.956</ele>
        <time>2019-09-24T10:55:43.001Z</time>
      </trkpt>
      <trkpt lat="48.11108" lon="5.58942">
        <ele>324.915</ele>
        <time>2019-09-24T10:55:46.001Z</time>
      </trkpt>
      <trkpt lat="48.11103" lon="5.58954">
        <ele>324.871</ele>
        <time>2019-09-24T10:55:49.001Z</time>
      </trkpt>
      <trkpt lat="48.11098" lon="5.58967">
        <ele>324.642</ele>
        <time>2019-09-24T10:55:52.001Z</time>
      </trkpt>
      <trkpt lat="48.11093" lon="5.5898">
        <ele>324.65</ele>
        <time>2019-09-24T10:55:55.001Z</time>
      </trkpt>
      <trkpt lat="48.11088" lon="5.58992">
        <ele>325.171</ele>
        <time>2019-09-24T10:55:58.001Z</time>
      </trkpt>
      <trkpt lat="48.11084" lon="5.59005">
        <ele>325.804</ele>
        <time>2019-09-24T10:56:01.001Z</time>
      </trkpt>
      <trkpt lat="48.1108" lon="5.59018">
        <ele>326.517</ele>
        <time>2019-09-24T10:56:04.001Z</time>
      </trkpt>
      <trkpt lat="48.11076" lon="5.59032">
        <ele>326.867</ele>
        <time>2019-09-24T10:56:07.001Z</time>
      </trkpt>
      <trkpt lat="48.11072" lon="5.59045">
        <ele>327.362</ele>
        <time>2019-09-24T10:56:10.001Z</time>
      </trkpt>
      <trkpt lat="48.11069" lon="5.59059">
        <ele>327.669</ele>
        <time>2019-09-24T10:56:13.001Z</time>
      </trkpt>
      <trkpt lat="48.11066" lon="5.59072">
        <ele>328.503</ele>
        <time>2019-09-24T12:56:16Z</time>
      </trkpt>
      <trkpt lat="48.11063" lon="5.59085">
        <ele>329.275</ele>
        <time>2019-09-24T10:56:19.001Z</time>
      </trkpt>
      <trkpt lat="48.1106" lon="5.59099">
        <ele>329.618</ele>
        <time>2019-09-24T10:56:22.001Z</time>
      </trkpt>
      <trkpt lat="48.11056" lon="5.59114">
        <ele>329.696</ele>
        <time>2019-09-24T10:56:25.001Z</time>
      </trkpt>
      <trkpt lat="48.11052" lon="5.59128">
        <ele>329.634</ele>
        <time>2019-09-24T10:56:28.001Z</time>
      </trkpt>
      <trkpt lat="48.11048" lon="5.5914">
        <ele>329.898</ele>
        <time>2019-09-24T10:56:31.001Z</time>
      </trkpt>
      <trkpt lat="48.11044" lon="5.59152">
        <ele>330.262</ele>
        <time>2019-09-24T10:56:34.001Z</time>
      </trkpt>
      <trkpt lat="48.1104" lon="5.59164">
        <ele>330.185</ele>
        <time>2019-09-24T10:56:37.001Z</time>
      </trkpt>
      <trkpt lat="48.11035" lon="5.59176">
        <ele>330.267</ele>
        <time>2019-09-24T10:56:40.001Z</time>
      </trkpt>
      <trkpt lat="48.11031" lon="5.59188">
        <ele>330.41</ele>
        <time>2019-09-24T10:56:43.001Z</time>
      </trkpt>
      <trkpt lat="48.11027" lon="5.592">
        <ele>330.302</ele>
        <time>2019-09-24T10:56:46.001Z</time>
      </trkpt>
      <trkpt lat="48.11023" lon="5.59211">
        <ele>330.37</ele>
        <time>2019-09-24T10:56:49.001Z</time>
      </trkpt>
      <trkpt lat="48.11018" lon="5.59223">
        <ele>330.596</ele>
        <time>2019-09-24T10:56:52.001Z</time>
      </trkpt>
      <trkpt lat="48.11014" lon="5.59235">
        <ele>330.681</ele>
        <time>2019-09-24T10:56:55.001Z</time>
      </trkpt>
      <trkpt lat="48.1101" lon="5.59247">
        <ele>330.602</ele>
        <time>2019-09-24T10:56:58.001Z</time>
      </trkpt>
      <trkpt lat="48.11007" lon="5.59258">
        <ele>330.477</ele>
        <time>2019-09-24T10:57:01.001Z</time>
      </trkpt>
      <trkpt lat="48.11005" lon="5.59269">
        <ele>330.612</ele>
        <time>2019-09-24T10:57:04.001Z</time>
      </trkpt>
      <trkpt lat="48.11003" lon="5.59281">
        <ele>331.159</ele>
        <time>2019-09-24T10:57:07.001Z</time>
      </trkpt>
      <trkpt lat="48.11001" lon="5.59294">
        <ele>331.423</ele>
        <time>2019-09-24T10:57:10.001Z</time>
      </trkpt>
      <trkpt lat="48.11" lon="5.59306">
        <ele>331.489</ele>
        <time>2019-09-24T10:57:13.001Z</time>
      </trkpt>
      <trkpt lat="48.10997" lon="5.59318">
        <ele>331.137</ele>
        <time>2019-09-24T12:57:16Z</time>
      </trkpt>
      <trkpt lat="48.10995" lon="5.5933">
        <ele>330.718</ele>
        <time>2019-09-24T10:57:19.001Z</time>
      </trkpt>
      <trkpt lat="48.10991" lon="5.59342">
        <ele>330.804</ele>
        <time>2019-09-24T10:57:22.001Z</time>
      </trkpt>
      <trkpt lat="48.10987" lon="5.59354">
        <ele>330.8</ele>
        <time>2019-09-24T10:57:25.001Z</time>
      </trkpt>
      <trkpt lat="48.10982" lon="5.59363">
        <ele>331.158</ele>
        <time>2019-09-24T10:57:28.001Z</time>
      </trkpt>
      <trkpt lat="48.10976" lon="5.59371">
        <ele>331.856</ele>
        <time>2019-09-24T10:57:31.001Z</time>
      </trkpt>
      <trkpt lat="48.10969" lon="5.59379">
        <ele>332.247</ele>
        <time>2019-09-24T10:57:34.001Z</time>
      </trkpt>
      <trkpt lat="48.10962" lon="5.59387">
        <ele>332.749</ele>
        <time>2019-09-24T10:57:37.001Z</time>
      </trkpt>
      <trkpt lat="48.10954" lon="5.59393">
        <ele>333.128</ele>
        <time>2019-09-24T10:57:40.001Z</time>
      </trkpt>
      <trkpt lat="48.10946" lon="5.59399">
        <ele>333.417</ele>
        <time>2019-09-24T10:57:43.001Z</time>
      </trkpt>
      <trkpt lat="48.10938" lon="5.59403">
        <ele>333.797</ele>
        <time>2019-09-24T10:57:46.001Z</time>
      </trkpt>
      <trkpt lat="48.1093" lon="5.59408">
        <ele>333.807</ele>
        <time>2019-09-24T10:57:49.001Z</time>
      </trkpt>
      <trkpt lat="48.10921" lon="5.59413">
        <ele>333.579</ele>
        <time>2019-09-24T10:57:52.001Z</time>
      </trkpt>
      <trkpt lat="48.10912" lon="5.59418">
        <ele>333.528</ele>
        <time>2019-09-24T10:57:55.001Z</time>
      </trkpt>
      <trkpt lat="48.10903" lon="5.59423">
        <ele>333.755</ele>
        <time>2019-09-24T10:57:58.001Z</time>
      </trkpt>
      <trkpt lat="48.10893" lon="5.59431">
        <ele>334.083</ele>
        <time>2019-09-24T10:58:01.001Z</time>
      </trkpt>
      <trkpt lat="48.10883" lon="5.59438">
        <ele>333.532</ele>
        <time>2019-09-24T10:58:04.001Z</time>
      </trkpt>
      <trkpt lat="48.10873" lon="5.59447">
        <ele>333.286</ele>
        <time>2019-09-24T10:58:07.001Z</time>
      </trkpt>
      <trkpt lat="48.10863" lon="5.59456">
        <ele>333.05</ele>
        <time>2019-09-24T10:58:10.001Z</time>
      </trkpt>
      <trkpt lat="48.10852" lon="5.59465">
        <ele>332.343</ele>
        <time>2019-09-24T10:58:13.001Z</time>
      </trkpt>
      <trkpt lat="48.10841" lon="5.59475">
        <ele>332.009</ele>
        <time>2019-09-24T12:58:16Z</time>
      </trkpt>
      <trkpt lat="48.10829" lon="5.59486">
        <ele>331.776</ele>
        <time>2019-09-24T10:58:19.001Z</time>
      </trkpt>
      <trkpt lat="48.10817" lon="5.59498">
        <ele>331.592</ele>
        <time>2019-09-24T10:58:22.001Z</time>
      </trkpt>
      <trkpt lat="48.10803" lon="5.59507">
        <ele>331.897</ele>
        <time>2019-09-24T10:58:25.001Z</time>
      </trkpt>
      <trkpt lat="48.10788" lon="5.59517">
        <ele>331.796</ele>
        <time>2019-09-24T10:58:28.001Z</time>
      </trkpt>
      <trkpt lat="48.1077" lon="5.59529">
        <ele>331.691</ele>
        <time>2019-09-24T10:58:31.001Z</time>
      </trkpt>
      <trkpt lat="48.10749" lon="5.59542">
        <ele>331.252</ele>
        <time>2019-09-24T10:58:34.001Z</time>
      </trkpt>
      <trkpt lat="48.10728" lon="5.59555">
        <ele>330.649</ele>
        <time>2019-09-24T10:58:37.001Z</time>
      </trkpt>
      <trkpt lat="48.10709" lon="5.59566">
        <ele>330.332</ele>
        <time>2019-09-24T10:58:40.001Z</time>
      </trkpt>
      <trkpt lat="48.10692" lon="5.59574">
        <ele>329.448</ele>
        <time>2019-09-24T10:58:43.001Z</time>
      </trkpt>
      <trkpt lat="48.10676" lon="5.59584">
        <ele>328.996</ele>
        <time>2019-09-24T10:58:46.001Z</time>
      </trkpt>
      <trkpt lat="48.10662" lon="5.59593">
        <ele>328.789</ele>
        <time>2019-09-24T10:58:49.001Z</time>
      </trkpt>
      <trkpt lat="48.1065" lon="5.59604">
        <ele>328.309</ele>
        <time>2019-09-24T10:58:52.001Z</time>
      </trkpt>
      <trkpt lat="48.10639" lon="5.59614">
        <ele>327.858</ele>
        <time>2019-09-24T10:58:55.001Z</time>
      </trkpt>
      <trkpt lat="48.10628" lon="5.59627">
        <ele>327.42</ele>
        <time>2019-09-24T10:58:58.001Z</time>
      </trkpt>
      <trkpt lat="48.10617" lon="5.5964">
        <ele>327.033</ele>
        <time>2019-09-24T10:59:01.001Z</time>
      </trkpt>
      <trkpt lat="48.10607" lon="5.59654">
        <ele>326.914</ele>
        <time>2019-09-24T10:59:04.001Z</time>
      </trkpt>
      <trkpt lat="48.10598" lon="5.59667">
        <ele>326.877</ele>
        <time>2019-09-24T10:59:07.001Z</time>
      </trkpt>
      <trkpt lat="48.1059" lon="5.5968">
        <ele>327.112</ele>
        <time>2019-09-24T10:59:10.001Z</time>
      </trkpt>
      <trkpt lat="48.10582" lon="5.59693">
        <ele>327.234</ele>
        <time>2019-09-24T10:59:13.001Z</time>
      </trkpt>
      <trkpt lat="48.10574" lon="5.59706">
        <ele>327.424</ele>
        <time>2019-09-24T12:59:16Z</time>
      </trkpt>
      <trkpt lat="48.10566" lon="5.59719">
        <ele>327.932</ele>
        <time>2019-09-24T10:59:19.001Z</time>
      </trkpt>
      <trkpt lat="48.10559" lon="5.59732">
        <ele>328.583</ele>
        <time>2019-09-24T10:59:22.001Z</time>
      </trkpt>
      <trkpt lat="48.10552" lon="5.59745">
        <ele>328.684</ele>
        <time>2019-09-24T10:59:25.001Z</time>
      </trkpt>
      <trkpt lat="48.10544" lon="5.59757">
        <ele>328.596</ele>
        <time>2019-09-24T10:59:28.001Z</time>
      </trkpt>
      <trkpt lat="48.10537" lon="5.59769">
        <ele>328.878</ele>
        <time>2019-09-24T10:59:31.001Z</time>
      </trkpt>
      <trkpt lat="48.1053" lon="5.5978">
        <ele>329.12</ele>
        <time>2019-09-24T10:59:34.001Z</time>
      </trkpt>
      <trkpt lat="48.10523" lon="5.59792">
        <ele>328.926</ele>
        <time>2019-09-24T10:59:37.001Z</time>
      </trkpt>
      <trkpt lat="48.10515" lon="5.59803">
        <ele>328.81</ele>
        <time>2019-09-24T10:59:40.001Z</time>
      </trkpt>
      <trkpt lat="48.10508" lon="5.59813">
        <ele>329.083</ele>
        <time>2019-09-24T10:59:43.001Z</time>
      </trkpt>
      <trkpt lat="48.10502" lon="5.59821">
        <ele>329.342</ele>
        <time>2019-09-24T10:59:46.001Z</time>
      </trkpt>
      <trkpt lat="48.10494" lon="5.59829">
        <ele>329.672</ele>
        <time>2019-09-24T10:59:49.001Z</time>
      </trkpt>
      <trkpt lat="48.10487" lon="5.59836">
        <ele>330.025</ele>
        <time>2019-09-24T10:59:52.001Z</time>
      </trkpt>
      <trkpt lat="48.1048" lon="5.59843">
        <ele>330.286</ele>
        <time>2019-09-24T10:59:55.001Z</time>
      </trkpt>
      <trkpt lat="48.10472" lon="5.5985">
        <ele>330.024</ele>
        <time>2019-09-24T10:59:58.001Z</time>
      </trkpt>
      <trkpt lat="48.10464" lon="5.59858">
        <ele>329.849</ele>
        <time>2019-09-24T11:00:01.001Z</time>
      </trkpt>
      <trkpt lat="48.10457" lon="5.59865">
        <ele>329.77</ele>
        <time>2019-09-24T11:00:04.001Z</time>
      </trkpt>
      <trkpt lat="48.1045" lon="5.59872">
        <ele>329.845</ele>
        <time>2019-09-24T11:00:07.001Z</time>
      </trkpt>
      <trkpt lat="48.10444" lon="5.59879">
        <ele>330.437</ele>
        <time>2019-09-24T11:00:10.001Z</time>
      </trkpt>
      <trkpt lat="48.10438" lon="5.59887">
        <ele>331.051</ele>
        <time>2019-09-24T11:00:13.001Z</time>
      </trkpt>
      <trkpt lat="48.10432" lon="5.59894">
        <ele>331.366</ele>
        <time>2019-09-24T13:00:16Z</time>
      </trkpt>
      <trkpt lat="48.10426" lon="5.59901">
        <ele>331.724</ele>
        <time>2019-09-24T11:00:19.001Z</time>
      </trkpt>
      <trkpt lat="48.1042" lon="5.59908">
        <ele>332.238</ele>
        <time>2019-09-24T11:00:22.001Z</time>
      </trkpt>
      <trkpt lat="48.10414" lon="5.59914">
        <ele>332.751</ele>
        <time>2019-09-24T11:00:25.001Z</time>
      </trkpt>
      <trkpt lat="48.10409" lon="5.59919">
        <ele>333.354</ele>
        <time>2019-09-24T11:00:28.001Z</time>
      </trkpt>
      <trkpt lat="48.10402" lon="5.59926">
        <ele>333.942</ele>
        <time>2019-09-24T11:00:31.001Z</time>
      </trkpt>
      <trkpt lat="48.10397" lon="5.59931">
        <ele>334.897</ele>
        <time>2019-09-24T11:00:34.001Z</time>
      </trkpt>
      <trkpt lat="48.10391" lon="5.59937">
        <ele>335.739</ele>
        <time>2019-09-24T11:00:37.001Z</time>
      </trkpt>
      <trkpt lat="48.10386" lon="5.59943">
        <ele>336.529</ele>
        <time>2019-09-24T11:00:40.001Z</time>
      </trkpt>
      <trkpt lat="48.1038" lon="5.59948">
        <ele>337.24</ele>
        <time>2019-09-24T11:00:43.001Z</time>
      </trkpt>
      <trkpt lat="48.10374" lon="5.59952">
        <ele>337.777</ele>
        <time>2019-09-24T11:00:46.001Z</time>
      </trkpt>
      <trkpt lat="48.10368" lon="5.59957">
        <ele>338.078</ele>
        <time>2019-09-24T11:00:49.001Z</time>
      </trkpt>
      <trkpt lat="48.10363" lon="5.59962">
        <ele>338.091</ele>
        <time>2019-09-24T11:00:52.001Z</time>
      </trkpt>
      <trkpt lat="48.10357" lon="5.59967">
        <ele>338.161</ele>
        <time>2019-09-24T11:00:55.001Z</time>
      </trkpt>
      <trkpt lat="48.10351" lon="5.59971">
        <ele>338.256</ele>
        <time>2019-09-24T11:00:58.001Z</time>
      </trkpt>
      <trkpt lat="48.10346" lon="5.59975">
        <ele>338.37</ele>
        <time>2019-09-24T11:01:01.001Z</time>
      </trkpt>
      <trkpt lat="48.10339" lon="5.59979">
        <ele>338.741</ele>
        <time>2019-09-24T11:01:04.001Z</time>
      </trkpt>
      <trkpt lat="48.10334" lon="5.59983">
        <ele>339.432</ele>
        <time>2019-09-24T11:01:07.001Z</time>
      </trkpt>
      <trkpt lat="48.10328" lon="5.59986">
        <ele>339.976</ele>
        <time>2019-09-24T11:01:10.001Z</time>
      </trkpt>
      <trkpt lat="48.10322" lon="5.59991">
        <ele>340.36</ele>
        <time>2019-09-24T11:01:13.001Z</time>
      </trkpt>
      <trkpt lat="48.10316" lon="5.59995">
        <ele>341.07</ele>
        <time>2019-09-24T13:01:16Z</time>
      </trkpt>
      <trkpt lat="48.10309" lon="5.59998">
        <ele>341.749</ele>
        <time>2019-09-24T11:01:19.001Z</time>
      </trkpt>
      <trkpt lat="48.10302" lon="5.6">
        <ele>341.917</ele>
        <time>2019-09-24T11:01:22.001Z</time>
      </trkpt>
      <trkpt lat="48.10295" lon="5.60003">
        <ele>341.774</ele>
        <time>2019-09-24T11:01:25.001Z</time>
      </trkpt>
      <trkpt lat="48.10287" lon="5.60004">
        <ele>341.388</ele>
        <time>2019-09-24T11:01:28.001Z</time>
      </trkpt>
      <trkpt lat="48.10279" lon="5.60004">
        <ele>340.724</ele>
        <time>2019-09-24T11:01:31.001Z</time>
      </trkpt>
      <trkpt lat="48.10272" lon="5.60006">
        <ele>340.125</ele>
        <time>2019-09-24T11:01:34.001Z</time>
      </trkpt>
      <trkpt lat="48.10264" lon="5.60007">
        <ele>339.74</ele>
        <time>2019-09-24T11:01:37.001Z</time>
      </trkpt>
      <trkpt lat="48.10255" lon="5.60008">
        <ele>339.685</ele>
        <time>2019-09-24T11:01:40.001Z</time>
      </trkpt>
      <trkpt lat="48.10247" lon="5.6001">
        <ele>339.424</ele>
        <time>2019-09-24T11:01:43.001Z</time>
      </trkpt>
      <trkpt lat="48.10238" lon="5.60012">
        <ele>339.515</ele>
        <time>2019-09-24T11:01:46.001Z</time>
      </trkpt>
      <trkpt lat="48.10229" lon="5.60014">
        <ele>339.72</ele>
        <time>2019-09-24T11:01:49.001Z</time>
      </trkpt>
      <trkpt lat="48.10222" lon="5.60018">
        <ele>340.195</ele>
        <time>2019-09-24T11:01:52.001Z</time>
      </trkpt>
      <trkpt lat="48.10215" lon="5.60021">
        <ele>340.265</ele>
        <time>2019-09-24T11:01:55.001Z</time>
      </trkpt>
      <trkpt lat="48.10208" lon="5.60025">
        <ele>340.3</ele>
        <time>2019-09-24T11:01:58.001Z</time>
      </trkpt>
      <trkpt lat="48.10201" lon="5.60029">
        <ele>340.384</ele>
        <time>2019-09-24T11:02:01.001Z</time>
      </trkpt>
      <trkpt lat="48.10194" lon="5.60033">
        <ele>340.493</ele>
        <time>2019-09-24T11:02:04.001Z</time>
      </trkpt>
      <trkpt lat="48.10187" lon="5.60037">
        <ele>341.033</ele>
        <time>2019-09-24T11:02:07.001Z</time>
      </trkpt>
      <trkpt lat="48.1018" lon="5.60041">
        <ele>341.711</ele>
        <time>2019-09-24T11:02:10.001Z</time>
      </trkpt>
      <trkpt lat="48.10173" lon="5.60046">
        <ele>342.446</ele>
        <time>2019-09-24T11:02:13.001Z</time>
      </trkpt>
      <trkpt lat="48.10166" lon="5.60051">
        <ele>343.28</ele>
        <time>2019-09-24T13:02:16Z</time>
      </trkpt>
      <trkpt lat="48.10158" lon="5.60057">
        <ele>343.861</ele>
        <time>2019-09-24T11:02:19.001Z</time>
      </trkpt>
      <trkpt lat="48.10149" lon="5.60065">
        <ele>343.773</ele>
        <time>2019-09-24T11:02:22.001Z</time>
      </trkpt>
      <trkpt lat="48.10139" lon="5.60071">
        <ele>343.933</ele>
        <time>2019-09-24T11:02:25.001Z</time>
      </trkpt>
      <trkpt lat="48.10128" lon="5.60079">
        <ele>343.979</ele>
        <time>2019-09-24T11:02:28.001Z</time>
      </trkpt>
      <trkpt lat="48.10115" lon="5.60088">
        <ele>343.542</ele>
        <time>2019-09-24T11:02:31.001Z</time>
      </trkpt>
      <trkpt lat="48.101" lon="5.601">
        <ele>342.844</ele>
        <time>2019-09-24T11:02:34.001Z</time>
      </trkpt>
      <trkpt lat="48.10083" lon="5.60112">
        <ele>342.5</ele>
        <time>2019-09-24T11:02:37.001Z</time>
      </trkpt>
      <trkpt lat="48.10063" lon="5.60126">
        <ele>342.456</ele>
        <time>2019-09-24T11:02:40.001Z</time>
      </trkpt>
      <trkpt lat="48.10039" lon="5.6014">
        <ele>341.968</ele>
        <time>2019-09-24T11:02:43.001Z</time>
      </trkpt>
      <trkpt lat="48.10012" lon="5.60156">
        <ele>341</ele>
        <time>2019-09-24T11:02:46.001Z</time>
      </trkpt>
      <trkpt lat="48.09985" lon="5.60176">
        <ele>339.357</ele>
        <time>2019-09-24T11:02:49.001Z</time>
      </trkpt>
      <trkpt lat="48.09957" lon="5.60199">
        <ele>337.962</ele>
        <time>2019-09-24T11:02:52.001Z</time>
      </trkpt>
      <trkpt lat="48.09929" lon="5.60227">
        <ele>336.021</ele>
        <time>2019-09-24T11:02:55.001Z</time>
      </trkpt>
      <trkpt lat="48.09903" lon="5.60256">
        <ele>333.641</ele>
        <time>2019-09-24T11:02:58.001Z</time>
      </trkpt>
      <trkpt lat="48.09877" lon="5.60283">
        <ele>332.309</ele>
        <time>2019-09-24T11:03:01.001Z</time>
      </trkpt>
      <trkpt lat="48.09852" lon="5.60308">
        <ele>331.053</ele>
        <time>2019-09-24T11:03:04.001Z</time>
      </trkpt>
      <trkpt lat="48.09829" lon="5.60331">
        <ele>330.42</ele>
        <time>2019-09-24T11:03:07.001Z</time>
      </trkpt>
      <trkpt lat="48.09806" lon="5.60353">
        <ele>329.732</ele>
        <time>2019-09-24T11:03:10.001Z</time>
      </trkpt>
      <trkpt lat="48.09784" lon="5.60371">
        <ele>329.218</ele>
        <time>2019-09-24T11:03:13.001Z</time>
      </trkpt>
      <trkpt lat="48.09763" lon="5.60387">
        <ele>328.606</ele>
        <time>2019-09-24T13:03:16Z</time>
      </trkpt>
      <trkpt lat="48.09744" lon="5.60401">
        <ele>328.163</ele>
        <time>2019-09-24T11:03:19.001Z</time>
      </trkpt>
      <trkpt lat="48.09725" lon="5.60414">
        <ele>328.468</ele>
        <time>2019-09-24T11:03:22.001Z</time>
      </trkpt>
      <trkpt lat="48.09706" lon="5.60427">
        <ele>327.821</ele>
        <time>2019-09-24T11:03:25.001Z</time>
      </trkpt>
      <trkpt lat="48.09688" lon="5.60439">
        <ele>327.784</ele>
        <time>2019-09-24T11:03:28.001Z</time>
      </trkpt>
      <trkpt lat="48.0967" lon="5.60441">
        <ele>327.836</ele>
        <time>2019-09-24T11:03:31.001Z</time>
      </trkpt>
      <trkpt lat="48.09653" lon="5.60434">
        <ele>327.512</ele>
        <time>2019-09-24T11:03:34.001Z</time>
      </trkpt>
      <trkpt lat="48.09637" lon="5.60427">
        <ele>326.955</ele>
        <time>2019-09-24T11:03:37.001Z</time>
      </trkpt>
      <trkpt lat="48.09621" lon="5.60421">
        <ele>326.386</ele>
        <time>2019-09-24T11:03:40.001Z</time>
      </trkpt>
      <trkpt lat="48.09607" lon="5.60415">
        <ele>325.916</ele>
        <time>2019-09-24T11:03:43.001Z</time>
      </trkpt>
      <trkpt lat="48.09592" lon="5.60409">
        <ele>325.179</ele>
        <time>2019-09-24T11:03:46.001Z</time>
      </trkpt>
      <trkpt lat="48.09578" lon="5.60403">
        <ele>324.721</ele>
        <time>2019-09-24T11:03:49.001Z</time>
      </trkpt>
      <trkpt lat="48.09564" lon="5.60398">
        <ele>323.979</ele>
        <time>2019-09-24T11:03:52.001Z</time>
      </trkpt>
      <trkpt lat="48.09551" lon="5.60394">
        <ele>323.615</ele>
        <time>2019-09-24T11:03:55.001Z</time>
      </trkpt>
      <trkpt lat="48.09539" lon="5.6039">
        <ele>323.82</ele>
        <time>2019-09-24T11:03:58.001Z</time>
      </trkpt>
      <trkpt lat="48.09529" lon="5.60385">
        <ele>324.443</ele>
        <time>2019-09-24T11:04:01.001Z</time>
      </trkpt>
      <trkpt lat="48.09521" lon="5.60377">
        <ele>324.896</ele>
        <time>2019-09-24T11:04:04.001Z</time>
      </trkpt>
      <trkpt lat="48.09519" lon="5.60371">
        <ele>324.596</ele>
        <time>2019-09-24T11:04:07.001Z</time>
      </trkpt>
      <trkpt lat="48.09519" lon="5.60371">
        <ele>324.568</ele>
        <time>2019-09-24T11:04:10.001Z</time>
      </trkpt>
      <trkpt lat="48.09519" lon="5.60371">
        <ele>324.568</ele>
        <time>2019-09-24T11:05:46.001Z</time>
      </trkpt>
      <trkpt lat="48.09518" lon="5.6037">
        <ele>324.279</ele>
        <time>2019-09-24T11:05:49.001Z</time>
      </trkpt>
      <trkpt lat="48.09514" lon="5.60364">
        <ele>323.763</ele>
        <time>2019-09-24T11:05:52.001Z</time>
      </trkpt>
      <trkpt lat="48.09508" lon="5.60357">
        <ele>323.248</ele>
        <time>2019-09-24T11:05:55.001Z</time>
      </trkpt>
      <trkpt lat="48.09501" lon="5.6035">
        <ele>323.546</ele>
        <time>2019-09-24T11:05:58.001Z</time>
      </trkpt>
      <trkpt lat="48.09493" lon="5.60339">
        <ele>323.341</ele>
        <time>2019-09-24T11:06:01.001Z</time>
      </trkpt>
      <trkpt lat="48.09486" lon="5.60329">
        <ele>322.519</ele>
        <time>2019-09-24T11:06:04.001Z</time>
      </trkpt>
      <trkpt lat="48.09478" lon="5.60316">
        <ele>321.836</ele>
        <time>2019-09-24T11:06:07.001Z</time>
      </trkpt>
      <trkpt lat="48.0947" lon="5.60305">
        <ele>321.581</ele>
        <time>2019-09-24T11:06:10.001Z</time>
      </trkpt>
      <trkpt lat="48.09463" lon="5.60294">
        <ele>321.202</ele>
        <time>2019-09-24T11:06:13.001Z</time>
      </trkpt>
      <trkpt lat="48.09456" lon="5.60285">
        <ele>320.774</ele>
        <time>2019-09-24T13:06:16Z</time>
      </trkpt>
      <trkpt lat="48.09449" lon="5.60276">
        <ele>320.598</ele>
        <time>2019-09-24T11:06:19.001Z</time>
      </trkpt>
      <trkpt lat="48.09443" lon="5.60268">
        <ele>320.703</ele>
        <time>2019-09-24T11:06:22.001Z</time>
      </trkpt>
      <trkpt lat="48.09436" lon="5.6026">
        <ele>320.978</ele>
        <time>2019-09-24T11:06:25.001Z</time>
      </trkpt>
      <trkpt lat="48.09429" lon="5.60252">
        <ele>321.277</ele>
        <time>2019-09-24T11:06:28.001Z</time>
      </trkpt>
      <trkpt lat="48.0942" lon="5.60242">
        <ele>321.66</ele>
        <time>2019-09-24T11:06:31.001Z</time>
      </trkpt>
      <trkpt lat="48.09411" lon="5.6023">
        <ele>321.987</ele>
        <time>2019-09-24T11:06:34.001Z</time>
      </trkpt>
      <trkpt lat="48.094" lon="5.60218">
        <ele>322.137</ele>
        <time>2019-09-24T11:06:37.001Z</time>
      </trkpt>
      <trkpt lat="48.0939" lon="5.60206">
        <ele>322.298</ele>
        <time>2019-09-24T11:06:40.001Z</time>
      </trkpt>
      <trkpt lat="48.09381" lon="5.60194">
        <ele>322.296</ele>
        <time>2019-09-24T11:06:43.001Z</time>
      </trkpt>
      <trkpt lat="48.09371" lon="5.60182">
        <ele>322.279</ele>
        <time>2019-09-24T11:06:46.001Z</time>
      </trkpt>
      <trkpt lat="48.0936" lon="5.6017">
        <ele>322.505</ele>
        <time>2019-09-24T11:06:49.001Z</time>
      </trkpt>
      <trkpt lat="48.09352" lon="5.60155">
        <ele>322.966</ele>
        <time>2019-09-24T11:06:52.001Z</time>
      </trkpt>
      <trkpt lat="48.09345" lon="5.60141">
        <ele>323.009</ele>
        <time>2019-09-24T11:06:55.001Z</time>
      </trkpt>
      <trkpt lat="48.0934" lon="5.60128">
        <ele>323.029</ele>
        <time>2019-09-24T11:06:58.001Z</time>
      </trkpt>
      <trkpt lat="48.09336" lon="5.60116">
        <ele>323.121</ele>
        <time>2019-09-24T11:07:01.001Z</time>
      </trkpt>
      <trkpt lat="48.09333" lon="5.60103">
        <ele>323.701</ele>
        <time>2019-09-24T11:07:04.001Z</time>
      </trkpt>
      <trkpt lat="48.09328" lon="5.60091">
        <ele>324.257</ele>
        <time>2019-09-24T11:07:07.001Z</time>
      </trkpt>
      <trkpt lat="48.09325" lon="5.60076">
        <ele>324.733</ele>
        <time>2019-09-24T11:07:10.001Z</time>
      </trkpt>
      <trkpt lat="48.09323" lon="5.60064">
        <ele>325.329</ele>
        <time>2019-09-24T11:07:13.001Z</time>
      </trkpt>
      <trkpt lat="48.0932" lon="5.60051">
        <ele>325.902</ele>
        <time>2019-09-24T13:07:16Z</time>
      </trkpt>
      <trkpt lat="48.09316" lon="5.60038">
        <ele>326.13</ele>
        <time>2019-09-24T11:07:19.001Z</time>
      </trkpt>
      <trkpt lat="48.09314" lon="5.60022">
        <ele>326.335</ele>
        <time>2019-09-24T11:07:22.001Z</time>
      </trkpt>
      <trkpt lat="48.09311" lon="5.60004">
        <ele>326.719</ele>
        <time>2019-09-24T11:07:25.001Z</time>
      </trkpt>
      <trkpt lat="48.09308" lon="5.59988">
        <ele>327.431</ele>
        <time>2019-09-24T11:07:28.001Z</time>
      </trkpt>
      <trkpt lat="48.09306" lon="5.59973">
        <ele>327.799</ele>
        <time>2019-09-24T11:07:31.001Z</time>
      </trkpt>
      <trkpt lat="48.09305" lon="5.59958">
        <ele>327.516</ele>
        <time>2019-09-24T11:07:34.001Z</time>
      </trkpt>
      <trkpt lat="48.09302" lon="5.59943">
        <ele>326.648</ele>
        <time>2019-09-24T11:07:37.001Z</time>
      </trkpt>
      <trkpt lat="48.09299" lon="5.59928">
        <ele>326.13</ele>
        <time>2019-09-24T11:07:40.001Z</time>
      </trkpt>
      <trkpt lat="48.09295" lon="5.59914">
        <ele>326.049</ele>
        <time>2019-09-24T11:07:43.001Z</time>
      </trkpt>
      <trkpt lat="48.09292" lon="5.59899">
        <ele>325.776</ele>
        <time>2019-09-24T11:07:46.001Z</time>
      </trkpt>
      <trkpt lat="48.09288" lon="5.59883">
        <ele>326.016</ele>
        <time>2019-09-24T11:07:49.001Z</time>
      </trkpt>
      <trkpt lat="48.09282" lon="5.59864">
        <ele>326.516</ele>
        <time>2019-09-24T11:07:52.001Z</time>
      </trkpt>
      <trkpt lat="48.09274" lon="5.59845">
        <ele>326.889</ele>
        <time>2019-09-24T11:07:55.001Z</time>
      </trkpt>
      <trkpt lat="48.09265" lon="5.59827">
        <ele>326.413</ele>
        <time>2019-09-24T11:07:58.001Z</time>
      </trkpt>
      <trkpt lat="48.09254" lon="5.59809">
        <ele>325.462</ele>
        <time>2019-09-24T11:08:01.001Z</time>
      </trkpt>
      <trkpt lat="48.09241" lon="5.59793">
        <ele>324.833</ele>
        <time>2019-09-24T11:08:04.001Z</time>
      </trkpt>
      <trkpt lat="48.09225" lon="5.59779">
        <ele>324.182</ele>
        <time>2019-09-24T11:08:07.001Z</time>
      </trkpt>
      <trkpt lat="48.0921" lon="5.59764">
        <ele>323.844</ele>
        <time>2019-09-24T11:08:10.001Z</time>
      </trkpt>
      <trkpt lat="48.09196" lon="5.59749">
        <ele>323.823</ele>
        <time>2019-09-24T11:08:13.001Z</time>
      </trkpt>
      <trkpt lat="48.09186" lon="5.5973">
        <ele>323.407</ele>
        <time>2019-09-24T13:08:16Z</time>
      </trkpt>
      <trkpt lat="48.0918" lon="5.5971">
        <ele>322.753</ele>
        <time>2019-09-24T11:08:19.001Z</time>
      </trkpt>
      <trkpt lat="48.09176" lon="5.5969">
        <ele>322.322</ele>
        <time>2019-09-24T11:08:22.001Z</time>
      </trkpt>
      <trkpt lat="48.09172" lon="5.59671">
        <ele>322.173</ele>
        <time>2019-09-24T11:08:25.001Z</time>
      </trkpt>
      <trkpt lat="48.09168" lon="5.59649">
        <ele>322.273</ele>
        <time>2019-09-24T11:08:28.001Z</time>
      </trkpt>
      <trkpt lat="48.09165" lon="5.59628">
        <ele>322.187</ele>
        <time>2019-09-24T11:08:31.001Z</time>
      </trkpt>
      <trkpt lat="48.09163" lon="5.59609">
        <ele>321.967</ele>
        <time>2019-09-24T11:08:34.001Z</time>
      </trkpt>
      <trkpt lat="48.0916" lon="5.5959">
        <ele>321.726</ele>
        <time>2019-09-24T11:08:37.001Z</time>
      </trkpt>
      <trkpt lat="48.09158" lon="5.59571">
        <ele>321.376</ele>
        <time>2019-09-24T11:08:40.001Z</time>
      </trkpt>
      <trkpt lat="48.09155" lon="5.59555">
        <ele>320.998</ele>
        <time>2019-09-24T11:08:43.001Z</time>
      </trkpt>
      <trkpt lat="48.09152" lon="5.59541">
        <ele>320.869</ele>
        <time>2019-09-24T11:08:46.001Z</time>
      </trkpt>
      <trkpt lat="48.0915" lon="5.59528">
        <ele>321.035</ele>
        <time>2019-09-24T11:08:49.001Z</time>
      </trkpt>
      <trkpt lat="48.09146" lon="5.59516">
        <ele>321.326</ele>
        <time>2019-09-24T11:08:52.001Z</time>
      </trkpt>
      <trkpt lat="48.09143" lon="5.59504">
        <ele>321.703</ele>
        <time>2019-09-24T11:08:55.001Z</time>
      </trkpt>
      <trkpt lat="48.09138" lon="5.59493">
        <ele>321.877</ele>
        <time>2019-09-24T11:08:58.001Z</time>
      </trkpt>
      <trkpt lat="48.09133" lon="5.59482">
        <ele>322.312</ele>
        <time>2019-09-24T11:09:01.001Z</time>
      </trkpt>
      <trkpt lat="48.09127" lon="5.59471">
        <ele>322.542</ele>
        <time>2019-09-24T11:09:04.001Z</time>
      </trkpt>
      <trkpt lat="48.09122" lon="5.59461">
        <ele>322.55</ele>
        <time>2019-09-24T11:09:07.001Z</time>
      </trkpt>
      <trkpt lat="48.09116" lon="5.59453">
        <ele>322.821</ele>
        <time>2019-09-24T11:09:10.001Z</time>
      </trkpt>
      <trkpt lat="48.09112" lon="5.59446">
        <ele>323.503</ele>
        <time>2019-09-24T11:09:13.001Z</time>
      </trkpt>
      <trkpt lat="48.09111" lon="5.59446">
        <ele>324.036</ele>
        <time>2019-09-24T13:09:16Z</time>
      </trkpt>
      <trkpt lat="48.09111" lon="5.59446">
        <ele>324.036</ele>
        <time>2019-09-24T11:12:43.001Z</time>
      </trkpt>
      <trkpt lat="48.09112" lon="5.59447">
        <ele>324.015</ele>
        <time>2019-09-24T11:12:46.001Z</time>
      </trkpt>
      <trkpt lat="48.09112" lon="5.59447">
        <ele>324.049</ele>
        <time>2019-09-24T11:12:49.001Z</time>
      </trkpt>
      <trkpt lat="48.09112" lon="5.59447">
        <ele>324.049</ele>
        <time>2019-09-24T11:14:22.001Z</time>
      </trkpt>
      <trkpt lat="48.09112" lon="5.59447">
        <ele>324.049</ele>
        <time>2019-09-24T11:14:25.001Z</time>
      </trkpt>
      <trkpt lat="48.09113" lon="5.59447">
        <ele>324.049</ele>
        <time>2019-09-24T11:14:37.001Z</time>
      </trkpt>
      <trkpt lat="48.09113" lon="5.59447">
        <ele>324.049</ele>
        <time>2019-09-24T11:14:40.001Z</time>
      </trkpt>
      <trkpt lat="48.09113" lon="5.59447">
        <ele>324.947</ele>
        <time>2019-09-24T11:18:19.001Z</time>
      </trkpt>
      <trkpt lat="48.09111" lon="5.59446">
        <ele>325.555</ele>
        <time>2019-09-24T11:18:22.001Z</time>
      </trkpt>
      <trkpt lat="48.09111" lon="5.59445">
        <ele>325.612</ele>
        <time>2019-09-24T11:18:28.001Z</time>
      </trkpt>
      <trkpt lat="48.0911" lon="5.59445">
        <ele>325.56</ele>
        <time>2019-09-24T11:18:31.001Z</time>
      </trkpt>
      <trkpt lat="48.0911" lon="5.59445">
        <ele>325.399</ele>
        <time>2019-09-24T11:18:37.001Z</time>
      </trkpt>
      <trkpt lat="48.09105" lon="5.59438">
        <ele>325.593</ele>
        <time>2019-09-24T11:18:40.001Z</time>
      </trkpt>
      <trkpt lat="48.09101" lon="5.59433">
        <ele>325.779</ele>
        <time>2019-09-24T11:18:43.001Z</time>
      </trkpt>
      <trkpt lat="48.09096" lon="5.59427">
        <ele>326.085</ele>
        <time>2019-09-24T11:18:46.001Z</time>
      </trkpt>
      <trkpt lat="48.09091" lon="5.59421">
        <ele>326.6</ele>
        <time>2019-09-24T11:18:49.001Z</time>
      </trkpt>
      <trkpt lat="48.09086" lon="5.59415">
        <ele>327.353</ele>
        <time>2019-09-24T11:18:52.001Z</time>
      </trkpt>
      <trkpt lat="48.09081" lon="5.59411">
        <ele>327.99</ele>
        <time>2019-09-24T11:18:55.001Z</time>
      </trkpt>
      <trkpt lat="48.09078" lon="5.59407">
        <ele>328.242</ele>
        <time>2019-09-24T11:19:04.001Z</time>
      </trkpt>
      <trkpt lat="48.09078" lon="5.59407">
        <ele>328.242</ele>
        <time>2019-09-24T11:19:07.001Z</time>
      </trkpt>
      <trkpt lat="48.09078" lon="5.59407">
        <ele>327.529</ele>
        <time>2019-09-24T11:19:31.001Z</time>
      </trkpt>
      <trkpt lat="48.09077" lon="5.59405">
        <ele>326.723</ele>
        <time>2019-09-24T11:19:34.001Z</time>
      </trkpt>
      <trkpt lat="48.09078" lon="5.59405">
        <ele>326.723</ele>
        <time>2019-09-24T11:19:37.001Z</time>
      </trkpt>
      <trkpt lat="48.09078" lon="5.59405">
        <ele>326.723</ele>
        <time>2019-09-24T11:19:40.001Z</time>
      </trkpt>
      <trkpt lat="48.09078" lon="5.59405">
        <ele>326.723</ele>
        <time>2019-09-24T11:19:58.001Z</time>
      </trkpt>
      <trkpt lat="48.09079" lon="5.59404">
        <ele>326.723</ele>
        <time>2019-09-24T11:20:01.001Z</time>
      </trkpt>
      <trkpt lat="48.09079" lon="5.59404">
        <ele>326.723</ele>
        <time>2019-09-24T11:20:13.001Z</time>
      </trkpt>
      <trkpt lat="48.09079" lon="5.59404">
        <ele>326.723</ele>
        <time>2019-09-24T13:20:16Z</time>
      </trkpt>
      <trkpt lat="48.09079" lon="5.59404">
        <ele>326.723</ele>
        <time>2019-09-24T11:20:22.001Z</time>
      </trkpt>
      <trkpt lat="48.09079" lon="5.59404">
        <ele>326.723</ele>
        <time>2019-09-24T11:20:25.001Z</time>
      </trkpt>
      <trkpt lat="48.09079" lon="5.59404">
        <ele>326.723</ele>
        <time>2019-09-24T11:20:31.001Z</time>
      </trkpt>
      <trkpt lat="48.09079" lon="5.59404">
        <ele>326.723</ele>
        <time>2019-09-24T11:20:34.001Z</time>
      </trkpt>
      <trkpt lat="48.09079" lon="5.59404">
        <ele>326.723</ele>
        <time>2019-09-24T11:20:52.001Z</time>
      </trkpt>
      <trkpt lat="48.09079" lon="5.59404">
        <ele>326.723</ele>
        <time>2019-09-24T11:20:55.001Z</time>
      </trkpt>
      <trkpt lat="48.09079" lon="5.59404">
        <ele>326.723</ele>
        <time>2019-09-24T11:21:13.001Z</time>
      </trkpt>
      <trkpt lat="48.09079" lon="5.59404">
        <ele>326.723</ele>
        <time>2019-09-24T13:21:16Z</time>
      </trkpt>
      <trkpt lat="48.09079" lon="5.59404">
        <ele>327.137</ele>
        <time>2019-09-24T11:22:13.001Z</time>
      </trkpt>
      <trkpt lat="48.09073" lon="5.59399">
        <ele>327.658</ele>
        <time>2019-09-24T13:22:16Z</time>
      </trkpt>
      <trkpt lat="48.09069" lon="5.59393">
        <ele>328.407</ele>
        <time>2019-09-24T11:22:19.001Z</time>
      </trkpt>
      <trkpt lat="48.09064" lon="5.59387">
        <ele>329.21</ele>
        <time>2019-09-24T11:22:22.001Z</time>
      </trkpt>
      <trkpt lat="48.09059" lon="5.59381">
        <ele>330.089</ele>
        <time>2019-09-24T11:22:25.001Z</time>
      </trkpt>
      <trkpt lat="48.09052" lon="5.59373">
        <ele>330.062</ele>
        <time>2019-09-24T11:22:28.001Z</time>
      </trkpt>
      <trkpt lat="48.09047" lon="5.59367">
        <ele>330.217</ele>
        <time>2019-09-24T11:22:31.001Z</time>
      </trkpt>
      <trkpt lat="48.09041" lon="5.59359">
        <ele>330.487</ele>
        <time>2019-09-24T11:22:34.001Z</time>
      </trkpt>
      <trkpt lat="48.09034" lon="5.59352">
        <ele>330.131</ele>
        <time>2019-09-24T11:22:37.001Z</time>
      </trkpt>
      <trkpt lat="48.09028" lon="5.59345">
        <ele>329.865</ele>
        <time>2019-09-24T11:22:40.001Z</time>
      </trkpt>
      <trkpt lat="48.09022" lon="5.59338">
        <ele>330.22</ele>
        <time>2019-09-24T11:22:43.001Z</time>
      </trkpt>
      <trkpt lat="48.09015" lon="5.59332">
        <ele>330.609</ele>
        <time>2019-09-24T11:22:46.001Z</time>
      </trkpt>
      <trkpt lat="48.09008" lon="5.59326">
        <ele>330.876</ele>
        <time>2019-09-24T11:22:49.001Z</time>
      </trkpt>
      <trkpt lat="48.09001" lon="5.5932">
        <ele>331.025</ele>
        <time>2019-09-24T11:22:52.001Z</time>
      </trkpt>
      <trkpt lat="48.08995" lon="5.59314">
        <ele>331.532</ele>
        <time>2019-09-24T11:22:55.001Z</time>
      </trkpt>
      <trkpt lat="48.08988" lon="5.59309">
        <ele>332.263</ele>
        <time>2019-09-24T11:22:58.001Z</time>
      </trkpt>
      <trkpt lat="48.08981" lon="5.59304">
        <ele>332.615</ele>
        <time>2019-09-24T11:23:01.001Z</time>
      </trkpt>
      <trkpt lat="48.08975" lon="5.593">
        <ele>332.859</ele>
        <time>2019-09-24T11:23:04.001Z</time>
      </trkpt>
      <trkpt lat="48.08968" lon="5.59296">
        <ele>333.09</ele>
        <time>2019-09-24T11:23:07.001Z</time>
      </trkpt>
      <trkpt lat="48.08962" lon="5.59291">
        <ele>333.192</ele>
        <time>2019-09-24T11:23:10.001Z</time>
      </trkpt>
      <trkpt lat="48.08956" lon="5.59286">
        <ele>332.915</ele>
        <time>2019-09-24T11:23:13.001Z</time>
      </trkpt>
      <trkpt lat="48.0895" lon="5.59282">
        <ele>333.432</ele>
        <time>2019-09-24T13:23:16Z</time>
      </trkpt>
      <trkpt lat="48.08943" lon="5.59279">
        <ele>333.484</ele>
        <time>2019-09-24T11:23:19.001Z</time>
      </trkpt>
      <trkpt lat="48.08935" lon="5.59275">
        <ele>333.28</ele>
        <time>2019-09-24T11:23:22.001Z</time>
      </trkpt>
      <trkpt lat="48.08929" lon="5.59271">
        <ele>333.425</ele>
        <time>2019-09-24T11:23:25.001Z</time>
      </trkpt>
      <trkpt lat="48.08922" lon="5.59268">
        <ele>333.871</ele>
        <time>2019-09-24T11:23:28.001Z</time>
      </trkpt>
      <trkpt lat="48.08916" lon="5.59264">
        <ele>334.22</ele>
        <time>2019-09-24T11:23:31.001Z</time>
      </trkpt>
      <trkpt lat="48.0891" lon="5.59259">
        <ele>334.574</ele>
        <time>2019-09-24T11:23:34.001Z</time>
      </trkpt>
      <trkpt lat="48.08903" lon="5.59255">
        <ele>335.011</ele>
        <time>2019-09-24T11:23:37.001Z</time>
      </trkpt>
      <trkpt lat="48.08897" lon="5.59252">
        <ele>335.254</ele>
        <time>2019-09-24T11:23:40.001Z</time>
      </trkpt>
      <trkpt lat="48.0889" lon="5.59248">
        <ele>335.441</ele>
        <time>2019-09-24T11:23:43.001Z</time>
      </trkpt>
      <trkpt lat="48.08884" lon="5.59243">
        <ele>335.475</ele>
        <time>2019-09-24T11:23:46.001Z</time>
      </trkpt>
      <trkpt lat="48.08878" lon="5.59239">
        <ele>336.034</ele>
        <time>2019-09-24T11:23:49.001Z</time>
      </trkpt>
      <trkpt lat="48.08872" lon="5.59235">
        <ele>336.58</ele>
        <time>2019-09-24T11:23:52.001Z</time>
      </trkpt>
      <trkpt lat="48.08866" lon="5.59229">
        <ele>336.66</ele>
        <time>2019-09-24T11:23:55.001Z</time>
      </trkpt>
      <trkpt lat="48.08859" lon="5.59223">
        <ele>336.29</ele>
        <time>2019-09-24T11:23:58.001Z</time>
      </trkpt>
      <trkpt lat="48.08853" lon="5.59216">
        <ele>335.661</ele>
        <time>2019-09-24T11:24:01.001Z</time>
      </trkpt>
      <trkpt lat="48.08847" lon="5.59211">
        <ele>335.46</ele>
        <time>2019-09-24T11:24:04.001Z</time>
      </trkpt>
      <trkpt lat="48.08841" lon="5.59205">
        <ele>336.088</ele>
        <time>2019-09-24T11:24:07.001Z</time>
      </trkpt>
      <trkpt lat="48.08835" lon="5.59197">
        <ele>336.236</ele>
        <time>2019-09-24T11:24:10.001Z</time>
      </trkpt>
      <trkpt lat="48.08831" lon="5.59189">
        <ele>337.09</ele>
        <time>2019-09-24T11:24:13.001Z</time>
      </trkpt>
      <trkpt lat="48.08826" lon="5.59181">
        <ele>337.712</ele>
        <time>2019-09-24T13:24:16Z</time>
      </trkpt>
      <trkpt lat="48.08822" lon="5.59173">
        <ele>338.211</ele>
        <time>2019-09-24T11:24:19.001Z</time>
      </trkpt>
      <trkpt lat="48.08817" lon="5.59165">
        <ele>338.449</ele>
        <time>2019-09-24T11:24:22.001Z</time>
      </trkpt>
      <trkpt lat="48.08813" lon="5.59156">
        <ele>338.572</ele>
        <time>2019-09-24T11:24:25.001Z</time>
      </trkpt>
      <trkpt lat="48.08808" lon="5.59148">
        <ele>338.986</ele>
        <time>2019-09-24T11:24:28.001Z</time>
      </trkpt>
      <trkpt lat="48.08802" lon="5.59139">
        <ele>339.058</ele>
        <time>2019-09-24T11:24:31.001Z</time>
      </trkpt>
      <trkpt lat="48.08797" lon="5.59132">
        <ele>339.459</ele>
        <time>2019-09-24T11:24:34.001Z</time>
      </trkpt>
      <trkpt lat="48.08791" lon="5.59125">
        <ele>340.084</ele>
        <time>2019-09-24T11:24:37.001Z</time>
      </trkpt>
      <trkpt lat="48.08785" lon="5.59118">
        <ele>340.562</ele>
        <time>2019-09-24T11:24:40.001Z</time>
      </trkpt>
      <trkpt lat="48.08778" lon="5.5911">
        <ele>341.013</ele>
        <time>2019-09-24T11:24:43.001Z</time>
      </trkpt>
      <trkpt lat="48.08771" lon="5.59103">
        <ele>341.407</ele>
        <time>2019-09-24T11:24:46.001Z</time>
      </trkpt>
      <trkpt lat="48.08762" lon="5.59095">
        <ele>341.943</ele>
        <time>2019-09-24T11:24:49.001Z</time>
      </trkpt>
      <trkpt lat="48.08753" lon="5.59086">
        <ele>342.188</ele>
        <time>2019-09-24T11:24:52.001Z</time>
      </trkpt>
      <trkpt lat="48.08744" lon="5.59076">
        <ele>342.212</ele>
        <time>2019-09-24T11:24:55.001Z</time>
      </trkpt>
      <trkpt lat="48.08734" lon="5.59064">
        <ele>342.066</ele>
        <time>2019-09-24T11:24:58.001Z</time>
      </trkpt>
      <trkpt lat="48.08723" lon="5.5905">
        <ele>342.368</ele>
        <time>2019-09-24T11:25:01.001Z</time>
      </trkpt>
      <trkpt lat="48.08711" lon="5.59033">
        <ele>342.138</ele>
        <time>2019-09-24T11:25:04.001Z</time>
      </trkpt>
      <trkpt lat="48.08699" lon="5.59014">
        <ele>341.714</ele>
        <time>2019-09-24T11:25:07.001Z</time>
      </trkpt>
      <trkpt lat="48.08688" lon="5.58992">
        <ele>340.753</ele>
        <time>2019-09-24T11:25:10.001Z</time>
      </trkpt>
      <trkpt lat="48.08676" lon="5.5897">
        <ele>339.623</ele>
        <time>2019-09-24T11:25:13.001Z</time>
      </trkpt>
      <trkpt lat="48.08664" lon="5.58948">
        <ele>338.862</ele>
        <time>2019-09-24T13:25:16Z</time>
      </trkpt>
      <trkpt lat="48.08649" lon="5.58924">
        <ele>338.08</ele>
        <time>2019-09-24T11:25:19.001Z</time>
      </trkpt>
      <trkpt lat="48.08635" lon="5.589">
        <ele>337.314</ele>
        <time>2019-09-24T11:25:22.001Z</time>
      </trkpt>
      <trkpt lat="48.08619" lon="5.58874">
        <ele>336.375</ele>
        <time>2019-09-24T11:25:25.001Z</time>
      </trkpt>
      <trkpt lat="48.08603" lon="5.58847">
        <ele>335.293</ele>
        <time>2019-09-24T11:25:28.001Z</time>
      </trkpt>
      <trkpt lat="48.08588" lon="5.5882">
        <ele>334.241</ele>
        <time>2019-09-24T11:25:31.001Z</time>
      </trkpt>
      <trkpt lat="48.08573" lon="5.58795">
        <ele>333.421</ele>
        <time>2019-09-24T11:25:34.001Z</time>
      </trkpt>
      <trkpt lat="48.08558" lon="5.58771">
        <ele>332.968</ele>
        <time>2019-09-24T11:25:37.001Z</time>
      </trkpt>
      <trkpt lat="48.08545" lon="5.58748">
        <ele>332.338</ele>
        <time>2019-09-24T11:25:40.001Z</time>
      </trkpt>
      <trkpt lat="48.08533" lon="5.58727">
        <ele>331.091</ele>
        <time>2019-09-24T11:25:43.001Z</time>
      </trkpt>
      <trkpt lat="48.08524" lon="5.58706">
        <ele>330.451</ele>
        <time>2019-09-24T11:25:46.001Z</time>
      </trkpt>
      <trkpt lat="48.08517" lon="5.58685">
        <ele>329.644</ele>
        <time>2019-09-24T11:25:49.001Z</time>
      </trkpt>
      <trkpt lat="48.0851" lon="5.58665">
        <ele>328.829</ele>
        <time>2019-09-24T11:25:52.001Z</time>
      </trkpt>
      <trkpt lat="48.08503" lon="5.58646">
        <ele>327.728</ele>
        <time>2019-09-24T11:25:55.001Z</time>
      </trkpt>
      <trkpt lat="48.08497" lon="5.58626">
        <ele>326.79</ele>
        <time>2019-09-24T11:25:58.001Z</time>
      </trkpt>
      <trkpt lat="48.08491" lon="5.58608">
        <ele>326.314</ele>
        <time>2019-09-24T11:26:01.001Z</time>
      </trkpt>
      <trkpt lat="48.08485" lon="5.5859">
        <ele>325.735</ele>
        <time>2019-09-24T11:26:04.001Z</time>
      </trkpt>
      <trkpt lat="48.08479" lon="5.58572">
        <ele>325.284</ele>
        <time>2019-09-24T11:26:07.001Z</time>
      </trkpt>
      <trkpt lat="48.08473" lon="5.58555">
        <ele>325.012</ele>
        <time>2019-09-24T11:26:10.001Z</time>
      </trkpt>
      <trkpt lat="48.08467" lon="5.58539">
        <ele>324.774</ele>
        <time>2019-09-24T11:26:13.001Z</time>
      </trkpt>
      <trkpt lat="48.08462" lon="5.58523">
        <ele>324.666</ele>
        <time>2019-09-24T13:26:16Z</time>
      </trkpt>
      <trkpt lat="48.08456" lon="5.58506">
        <ele>324.303</ele>
        <time>2019-09-24T11:26:19.001Z</time>
      </trkpt>
      <trkpt lat="48.08451" lon="5.58491">
        <ele>324.134</ele>
        <time>2019-09-24T11:26:22.001Z</time>
      </trkpt>
      <trkpt lat="48.08445" lon="5.58474">
        <ele>323.917</ele>
        <time>2019-09-24T11:26:25.001Z</time>
      </trkpt>
      <trkpt lat="48.08439" lon="5.58458">
        <ele>324.002</ele>
        <time>2019-09-24T11:26:28.001Z</time>
      </trkpt>
      <trkpt lat="48.08434" lon="5.58441">
        <ele>324.398</ele>
        <time>2019-09-24T11:26:31.001Z</time>
      </trkpt>
      <trkpt lat="48.08428" lon="5.58424">
        <ele>324.185</ele>
        <time>2019-09-24T11:26:34.001Z</time>
      </trkpt>
      <trkpt lat="48.08422" lon="5.58408">
        <ele>324.487</ele>
        <time>2019-09-24T11:26:37.001Z</time>
      </trkpt>
      <trkpt lat="48.08417" lon="5.58392">
        <ele>324.572</ele>
        <time>2019-09-24T11:26:40.001Z</time>
      </trkpt>
      <trkpt lat="48.08412" lon="5.58377">
        <ele>325.182</ele>
        <time>2019-09-24T11:26:43.001Z</time>
      </trkpt>
      <trkpt lat="48.08407" lon="5.58362">
        <ele>325.357</ele>
        <time>2019-09-24T11:26:46.001Z</time>
      </trkpt>
      <trkpt lat="48.08402" lon="5.58347">
        <ele>325.793</ele>
        <time>2019-09-24T11:26:49.001Z</time>
      </trkpt>
      <trkpt lat="48.08397" lon="5.58333">
        <ele>325.897</ele>
        <time>2019-09-24T11:26:52.001Z</time>
      </trkpt>
      <trkpt lat="48.08392" lon="5.58318">
        <ele>326.391</ele>
        <time>2019-09-24T11:26:55.001Z</time>
      </trkpt>
      <trkpt lat="48.08387" lon="5.58304">
        <ele>326.31</ele>
        <time>2019-09-24T11:26:58.001Z</time>
      </trkpt>
      <trkpt lat="48.08382" lon="5.5829">
        <ele>326.358</ele>
        <time>2019-09-24T11:27:01.001Z</time>
      </trkpt>
      <trkpt lat="48.08378" lon="5.58276">
        <ele>326.311</ele>
        <time>2019-09-24T11:27:04.001Z</time>
      </trkpt>
      <trkpt lat="48.08374" lon="5.58262">
        <ele>326.189</ele>
        <time>2019-09-24T11:27:07.001Z</time>
      </trkpt>
      <trkpt lat="48.08369" lon="5.58249">
        <ele>325.691</ele>
        <time>2019-09-24T11:27:10.001Z</time>
      </trkpt>
      <trkpt lat="48.08365" lon="5.58235">
        <ele>325.938</ele>
        <time>2019-09-24T11:27:13.001Z</time>
      </trkpt>
      <trkpt lat="48.0836" lon="5.58221">
        <ele>326.185</ele>
        <time>2019-09-24T13:27:16Z</time>
      </trkpt>
      <trkpt lat="48.08355" lon="5.58206">
        <ele>326.256</ele>
        <time>2019-09-24T11:27:19.001Z</time>
      </trkpt>
      <trkpt lat="48.0835" lon="5.58191">
        <ele>326.775</ele>
        <time>2019-09-24T11:27:22.001Z</time>
      </trkpt>
      <trkpt lat="48.08345" lon="5.58175">
        <ele>327.195</ele>
        <time>2019-09-24T11:27:25.001Z</time>
      </trkpt>
      <trkpt lat="48.08341" lon="5.58159">
        <ele>327.107</ele>
        <time>2019-09-24T11:27:28.001Z</time>
      </trkpt>
      <trkpt lat="48.08336" lon="5.58144">
        <ele>327.456</ele>
        <time>2019-09-24T11:27:31.001Z</time>
      </trkpt>
      <trkpt lat="48.08331" lon="5.58128">
        <ele>327.627</ele>
        <time>2019-09-24T11:27:34.001Z</time>
      </trkpt>
      <trkpt lat="48.08327" lon="5.58113">
        <ele>327.899</ele>
        <time>2019-09-24T11:27:37.001Z</time>
      </trkpt>
      <trkpt lat="48.08322" lon="5.58097">
        <ele>327.993</ele>
        <time>2019-09-24T11:27:40.001Z</time>
      </trkpt>
      <trkpt lat="48.08318" lon="5.58082">
        <ele>327.659</ele>
        <time>2019-09-24T11:27:43.001Z</time>
      </trkpt>
      <trkpt lat="48.08314" lon="5.58066">
        <ele>327.671</ele>
        <time>2019-09-24T11:27:46.001Z</time>
      </trkpt>
      <trkpt lat="48.08309" lon="5.5805">
        <ele>327.725</ele>
        <time>2019-09-24T11:27:49.001Z</time>
      </trkpt>
      <trkpt lat="48.08305" lon="5.58035">
        <ele>327.667</ele>
        <time>2019-09-24T11:27:52.001Z</time>
      </trkpt>
      <trkpt lat="48.08301" lon="5.5802">
        <ele>327.738</ele>
        <time>2019-09-24T11:27:55.001Z</time>
      </trkpt>
      <trkpt lat="48.08297" lon="5.58005">
        <ele>327.72</ele>
        <time>2019-09-24T11:27:58.001Z</time>
      </trkpt>
      <trkpt lat="48.08292" lon="5.5799">
        <ele>327.819</ele>
        <time>2019-09-24T11:28:01.001Z</time>
      </trkpt>
      <trkpt lat="48.08288" lon="5.57975">
        <ele>327.909</ele>
        <time>2019-09-24T11:28:04.001Z</time>
      </trkpt>
      <trkpt lat="48.08284" lon="5.5796">
        <ele>327.874</ele>
        <time>2019-09-24T11:28:07.001Z</time>
      </trkpt>
      <trkpt lat="48.0828" lon="5.57945">
        <ele>328.138</ele>
        <time>2019-09-24T11:28:10.001Z</time>
      </trkpt>
      <trkpt lat="48.08275" lon="5.57929">
        <ele>328.461</ele>
        <time>2019-09-24T11:28:13.001Z</time>
      </trkpt>
      <trkpt lat="48.0827" lon="5.57913">
        <ele>328.852</ele>
        <time>2019-09-24T13:28:16Z</time>
      </trkpt>
      <trkpt lat="48.08264" lon="5.57898">
        <ele>329.326</ele>
        <time>2019-09-24T11:28:19.001Z</time>
      </trkpt>
      <trkpt lat="48.08258" lon="5.57883">
        <ele>329.901</ele>
        <time>2019-09-24T11:28:22.001Z</time>
      </trkpt>
      <trkpt lat="48.08253" lon="5.57869">
        <ele>330.032</ele>
        <time>2019-09-24T11:28:25.001Z</time>
      </trkpt>
      <trkpt lat="48.08246" lon="5.57856">
        <ele>330.362</ele>
        <time>2019-09-24T11:28:28.001Z</time>
      </trkpt>
      <trkpt lat="48.0824" lon="5.57844">
        <ele>330.223</ele>
        <time>2019-09-24T11:28:31.001Z</time>
      </trkpt>
      <trkpt lat="48.08234" lon="5.57831">
        <ele>330.852</ele>
        <time>2019-09-24T11:28:34.001Z</time>
      </trkpt>
      <trkpt lat="48.08228" lon="5.57819">
        <ele>331.395</ele>
        <time>2019-09-24T11:28:37.001Z</time>
      </trkpt>
      <trkpt lat="48.08221" lon="5.57808">
        <ele>332.11</ele>
        <time>2019-09-24T11:28:40.001Z</time>
      </trkpt>
      <trkpt lat="48.08214" lon="5.57796">
        <ele>332.166</ele>
        <time>2019-09-24T11:28:43.001Z</time>
      </trkpt>
      <trkpt lat="48.08206" lon="5.57785">
        <ele>332.434</ele>
        <time>2019-09-24T11:28:46.001Z</time>
      </trkpt>
      <trkpt lat="48.08198" lon="5.57774">
        <ele>332.508</ele>
        <time>2019-09-24T11:28:49.001Z</time>
      </trkpt>
      <trkpt lat="48.0819" lon="5.57764">
        <ele>332.515</ele>
        <time>2019-09-24T11:28:52.001Z</time>
      </trkpt>
      <trkpt lat="48.08183" lon="5.57753">
        <ele>332.506</ele>
        <time>2019-09-24T11:28:55.001Z</time>
      </trkpt>
      <trkpt lat="48.08175" lon="5.57742">
        <ele>332.564</ele>
        <time>2019-09-24T11:28:58.001Z</time>
      </trkpt>
      <trkpt lat="48.08166" lon="5.57733">
        <ele>332.882</ele>
        <time>2019-09-24T11:29:01.001Z</time>
      </trkpt>
      <trkpt lat="48.08159" lon="5.57722">
        <ele>333.031</ele>
        <time>2019-09-24T11:29:04.001Z</time>
      </trkpt>
      <trkpt lat="48.08151" lon="5.5771">
        <ele>332.681</ele>
        <time>2019-09-24T11:29:07.001Z</time>
      </trkpt>
      <trkpt lat="48.08144" lon="5.577">
        <ele>332.166</ele>
        <time>2019-09-24T11:29:10.001Z</time>
      </trkpt>
      <trkpt lat="48.08136" lon="5.57689">
        <ele>332.15</ele>
        <time>2019-09-24T11:29:13.001Z</time>
      </trkpt>
      <trkpt lat="48.08128" lon="5.57679">
        <ele>332.077</ele>
        <time>2019-09-24T13:29:16Z</time>
      </trkpt>
      <trkpt lat="48.08119" lon="5.5767">
        <ele>332.53</ele>
        <time>2019-09-24T11:29:19.001Z</time>
      </trkpt>
      <trkpt lat="48.08109" lon="5.5766">
        <ele>332.778</ele>
        <time>2019-09-24T11:29:22.001Z</time>
      </trkpt>
      <trkpt lat="48.08099" lon="5.57649">
        <ele>332.886</ele>
        <time>2019-09-24T11:29:25.001Z</time>
      </trkpt>
      <trkpt lat="48.0809" lon="5.5764">
        <ele>332.946</ele>
        <time>2019-09-24T11:29:28.001Z</time>
      </trkpt>
      <trkpt lat="48.0808" lon="5.5763">
        <ele>332.966</ele>
        <time>2019-09-24T11:29:31.001Z</time>
      </trkpt>
      <trkpt lat="48.0807" lon="5.57622">
        <ele>333.09</ele>
        <time>2019-09-24T11:29:34.001Z</time>
      </trkpt>
      <trkpt lat="48.08061" lon="5.57615">
        <ele>333.177</ele>
        <time>2019-09-24T11:29:37.001Z</time>
      </trkpt>
      <trkpt lat="48.08051" lon="5.57609">
        <ele>333.187</ele>
        <time>2019-09-24T11:29:40.001Z</time>
      </trkpt>
      <trkpt lat="48.08042" lon="5.57603">
        <ele>333.302</ele>
        <time>2019-09-24T11:29:43.001Z</time>
      </trkpt>
      <trkpt lat="48.08032" lon="5.57596">
        <ele>333.186</ele>
        <time>2019-09-24T11:29:46.001Z</time>
      </trkpt>
      <trkpt lat="48.08023" lon="5.57591">
        <ele>332.934</ele>
        <time>2019-09-24T11:29:49.001Z</time>
      </trkpt>
      <trkpt lat="48.08013" lon="5.57587">
        <ele>332.688</ele>
        <time>2019-09-24T11:29:52.001Z</time>
      </trkpt>
      <trkpt lat="48.08003" lon="5.57583">
        <ele>332.717</ele>
        <time>2019-09-24T11:29:55.001Z</time>
      </trkpt>
      <trkpt lat="48.07993" lon="5.57578">
        <ele>333.002</ele>
        <time>2019-09-24T11:29:58.001Z</time>
      </trkpt>
      <trkpt lat="48.07983" lon="5.57573">
        <ele>333.582</ele>
        <time>2019-09-24T11:30:01.001Z</time>
      </trkpt>
      <trkpt lat="48.07973" lon="5.57568">
        <ele>334.023</ele>
        <time>2019-09-24T11:30:04.001Z</time>
      </trkpt>
      <trkpt lat="48.07963" lon="5.57563">
        <ele>334.461</ele>
        <time>2019-09-24T11:30:07.001Z</time>
      </trkpt>
      <trkpt lat="48.07953" lon="5.57557">
        <ele>334.501</ele>
        <time>2019-09-24T11:30:10.001Z</time>
      </trkpt>
      <trkpt lat="48.07944" lon="5.5755">
        <ele>334.568</ele>
        <time>2019-09-24T11:30:13.001Z</time>
      </trkpt>
      <trkpt lat="48.07935" lon="5.57543">
        <ele>334.638</ele>
        <time>2019-09-24T13:30:16Z</time>
      </trkpt>
      <trkpt lat="48.07926" lon="5.57533">
        <ele>334.904</ele>
        <time>2019-09-24T11:30:19.001Z</time>
      </trkpt>
      <trkpt lat="48.07917" lon="5.57524">
        <ele>334.875</ele>
        <time>2019-09-24T11:30:22.001Z</time>
      </trkpt>
      <trkpt lat="48.07907" lon="5.57514">
        <ele>334.604</ele>
        <time>2019-09-24T11:30:25.001Z</time>
      </trkpt>
      <trkpt lat="48.07899" lon="5.57504">
        <ele>334.354</ele>
        <time>2019-09-24T11:30:28.001Z</time>
      </trkpt>
      <trkpt lat="48.0789" lon="5.57496">
        <ele>334.043</ele>
        <time>2019-09-24T11:30:31.001Z</time>
      </trkpt>
      <trkpt lat="48.07879" lon="5.57488">
        <ele>334.379</ele>
        <time>2019-09-24T11:30:34.001Z</time>
      </trkpt>
      <trkpt lat="48.07868" lon="5.57482">
        <ele>334.677</ele>
        <time>2019-09-24T11:30:37.001Z</time>
      </trkpt>
      <trkpt lat="48.07857" lon="5.57479">
        <ele>334.71</ele>
        <time>2019-09-24T11:30:40.001Z</time>
      </trkpt>
      <trkpt lat="48.07846" lon="5.57478">
        <ele>335.664</ele>
        <time>2019-09-24T11:30:43.001Z</time>
      </trkpt>
      <trkpt lat="48.07835" lon="5.57482">
        <ele>335.905</ele>
        <time>2019-09-24T11:30:46.001Z</time>
      </trkpt>
      <trkpt lat="48.07826" lon="5.57484">
        <ele>335.823</ele>
        <time>2019-09-24T11:30:49.001Z</time>
      </trkpt>
      <trkpt lat="48.07816" lon="5.57488">
        <ele>335.691</ele>
        <time>2019-09-24T11:30:52.001Z</time>
      </trkpt>
      <trkpt lat="48.07807" lon="5.57491">
        <ele>335.68</ele>
        <time>2019-09-24T11:30:55.001Z</time>
      </trkpt>
      <trkpt lat="48.07798" lon="5.57493">
        <ele>335.594</ele>
        <time>2019-09-24T11:30:58.001Z</time>
      </trkpt>
      <trkpt lat="48.07788" lon="5.57495">
        <ele>335.598</ele>
        <time>2019-09-24T11:31:01.001Z</time>
      </trkpt>
      <trkpt lat="48.07776" lon="5.57493">
        <ele>335.48</ele>
        <time>2019-09-24T11:31:04.001Z</time>
      </trkpt>
      <trkpt lat="48.07766" lon="5.57489">
        <ele>335.82</ele>
        <time>2019-09-24T11:31:07.001Z</time>
      </trkpt>
      <trkpt lat="48.07756" lon="5.57483">
        <ele>336.251</ele>
        <time>2019-09-24T11:31:10.001Z</time>
      </trkpt>
      <trkpt lat="48.07747" lon="5.57474">
        <ele>336.411</ele>
        <time>2019-09-24T11:31:13.001Z</time>
      </trkpt>
      <trkpt lat="48.07737" lon="5.57465">
        <ele>335.994</ele>
        <time>2019-09-24T13:31:16Z</time>
      </trkpt>
      <trkpt lat="48.07728" lon="5.57455">
        <ele>336.016</ele>
        <time>2019-09-24T11:31:19.001Z</time>
      </trkpt>
      <trkpt lat="48.0772" lon="5.57444">
        <ele>336.067</ele>
        <time>2019-09-24T11:31:22.001Z</time>
      </trkpt>
      <trkpt lat="48.07712" lon="5.57434">
        <ele>335.547</ele>
        <time>2019-09-24T11:31:25.001Z</time>
      </trkpt>
      <trkpt lat="48.07703" lon="5.57424">
        <ele>335.607</ele>
        <time>2019-09-24T11:31:28.001Z</time>
      </trkpt>
      <trkpt lat="48.07694" lon="5.57414">
        <ele>335.846</ele>
        <time>2019-09-24T11:31:31.001Z</time>
      </trkpt>
      <trkpt lat="48.07685" lon="5.57404">
        <ele>336.339</ele>
        <time>2019-09-24T11:31:34.001Z</time>
      </trkpt>
      <trkpt lat="48.07676" lon="5.57392">
        <ele>336.456</ele>
        <time>2019-09-24T11:31:37.001Z</time>
      </trkpt>
      <trkpt lat="48.07667" lon="5.57382">
        <ele>336.107</ele>
        <time>2019-09-24T11:31:40.001Z</time>
      </trkpt>
      <trkpt lat="48.07657" lon="5.57371">
        <ele>335.918</ele>
        <time>2019-09-24T11:31:43.001Z</time>
      </trkpt>
      <trkpt lat="48.07648" lon="5.5736">
        <ele>335.83</ele>
        <time>2019-09-24T11:31:46.001Z</time>
      </trkpt>
      <trkpt lat="48.07638" lon="5.57349">
        <ele>335.676</ele>
        <time>2019-09-24T11:31:49.001Z</time>
      </trkpt>
      <trkpt lat="48.07627" lon="5.57338">
        <ele>335.818</ele>
        <time>2019-09-24T11:31:52.001Z</time>
      </trkpt>
      <trkpt lat="48.07616" lon="5.57329">
        <ele>335.828</ele>
        <time>2019-09-24T11:31:55.001Z</time>
      </trkpt>
      <trkpt lat="48.07606" lon="5.5732">
        <ele>336.023</ele>
        <time>2019-09-24T11:31:58.001Z</time>
      </trkpt>
      <trkpt lat="48.07595" lon="5.57311">
        <ele>336.032</ele>
        <time>2019-09-24T11:32:01.001Z</time>
      </trkpt>
      <trkpt lat="48.07584" lon="5.57302">
        <ele>335.938</ele>
        <time>2019-09-24T11:32:04.001Z</time>
      </trkpt>
      <trkpt lat="48.07573" lon="5.57291">
        <ele>335.598</ele>
        <time>2019-09-24T11:32:07.001Z</time>
      </trkpt>
      <trkpt lat="48.07563" lon="5.57279">
        <ele>335.323</ele>
        <time>2019-09-24T11:32:10.001Z</time>
      </trkpt>
      <trkpt lat="48.07554" lon="5.57265">
        <ele>334.728</ele>
        <time>2019-09-24T11:32:13.001Z</time>
      </trkpt>
      <trkpt lat="48.07547" lon="5.57251">
        <ele>334.29</ele>
        <time>2019-09-24T13:32:16Z</time>
      </trkpt>
      <trkpt lat="48.07539" lon="5.57237">
        <ele>333.731</ele>
        <time>2019-09-24T11:32:19.001Z</time>
      </trkpt>
      <trkpt lat="48.07531" lon="5.57224">
        <ele>333.611</ele>
        <time>2019-09-24T11:32:22.001Z</time>
      </trkpt>
      <trkpt lat="48.07522" lon="5.57212">
        <ele>333.701</ele>
        <time>2019-09-24T11:32:25.001Z</time>
      </trkpt>
      <trkpt lat="48.07513" lon="5.57201">
        <ele>333.917</ele>
        <time>2019-09-24T11:32:28.001Z</time>
      </trkpt>
      <trkpt lat="48.07503" lon="5.5719">
        <ele>334.026</ele>
        <time>2019-09-24T11:32:31.001Z</time>
      </trkpt>
      <trkpt lat="48.07494" lon="5.5718">
        <ele>334.661</ele>
        <time>2019-09-24T11:32:34.001Z</time>
      </trkpt>
      <trkpt lat="48.07484" lon="5.57172">
        <ele>335.381</ele>
        <time>2019-09-24T11:32:37.001Z</time>
      </trkpt>
      <trkpt lat="48.07475" lon="5.57163">
        <ele>336.293</ele>
        <time>2019-09-24T11:32:40.001Z</time>
      </trkpt>
      <trkpt lat="48.07466" lon="5.57155">
        <ele>337.339</ele>
        <time>2019-09-24T11:32:43.001Z</time>
      </trkpt>
      <trkpt lat="48.07456" lon="5.57146">
        <ele>338.142</ele>
        <time>2019-09-24T11:32:46.001Z</time>
      </trkpt>
      <trkpt lat="48.07447" lon="5.57137">
        <ele>338.282</ele>
        <time>2019-09-24T11:32:49.001Z</time>
      </trkpt>
      <trkpt lat="48.07438" lon="5.57129">
        <ele>338.317</ele>
        <time>2019-09-24T11:32:52.001Z</time>
      </trkpt>
      <trkpt lat="48.07429" lon="5.57119">
        <ele>338.625</ele>
        <time>2019-09-24T11:32:55.001Z</time>
      </trkpt>
      <trkpt lat="48.07421" lon="5.5711">
        <ele>338.168</ele>
        <time>2019-09-24T11:32:58.001Z</time>
      </trkpt>
      <trkpt lat="48.07412" lon="5.57101">
        <ele>338.444</ele>
        <time>2019-09-24T11:33:01.001Z</time>
      </trkpt>
      <trkpt lat="48.07403" lon="5.57093">
        <ele>338.71</ele>
        <time>2019-09-24T11:33:04.001Z</time>
      </trkpt>
      <trkpt lat="48.07394" lon="5.57086">
        <ele>339.375</ele>
        <time>2019-09-24T11:33:07.001Z</time>
      </trkpt>
      <trkpt lat="48.07386" lon="5.57077">
        <ele>339.788</ele>
        <time>2019-09-24T11:33:10.001Z</time>
      </trkpt>
      <trkpt lat="48.07378" lon="5.57069">
        <ele>339.884</ele>
        <time>2019-09-24T11:33:13.001Z</time>
      </trkpt>
      <trkpt lat="48.0737" lon="5.5706">
        <ele>340.477</ele>
        <time>2019-09-24T13:33:16Z</time>
      </trkpt>
      <trkpt lat="48.07363" lon="5.57052">
        <ele>340.989</ele>
        <time>2019-09-24T11:33:19.001Z</time>
      </trkpt>
      <trkpt lat="48.07356" lon="5.57043">
        <ele>340.681</ele>
        <time>2019-09-24T11:33:22.001Z</time>
      </trkpt>
      <trkpt lat="48.07349" lon="5.57033">
        <ele>340.297</ele>
        <time>2019-09-24T11:33:25.001Z</time>
      </trkpt>
      <trkpt lat="48.07343" lon="5.57022">
        <ele>340.17</ele>
        <time>2019-09-24T11:33:28.001Z</time>
      </trkpt>
      <trkpt lat="48.07338" lon="5.57012">
        <ele>340.172</ele>
        <time>2019-09-24T11:33:31.001Z</time>
      </trkpt>
      <trkpt lat="48.07333" lon="5.57002">
        <ele>339.875</ele>
        <time>2019-09-24T11:33:34.001Z</time>
      </trkpt>
      <trkpt lat="48.07328" lon="5.56991">
        <ele>340.012</ele>
        <time>2019-09-24T11:33:37.001Z</time>
      </trkpt>
      <trkpt lat="48.07324" lon="5.56981">
        <ele>340.327</ele>
        <time>2019-09-24T11:33:40.001Z</time>
      </trkpt>
      <trkpt lat="48.07319" lon="5.56971">
        <ele>340.757</ele>
        <time>2019-09-24T11:33:43.001Z</time>
      </trkpt>
      <trkpt lat="48.07314" lon="5.5696">
        <ele>341.143</ele>
        <time>2019-09-24T11:33:46.001Z</time>
      </trkpt>
      <trkpt lat="48.07308" lon="5.56949">
        <ele>341.175</ele>
        <time>2019-09-24T11:33:49.001Z</time>
      </trkpt>
      <trkpt lat="48.07302" lon="5.56938">
        <ele>341.595</ele>
        <time>2019-09-24T11:33:52.001Z</time>
      </trkpt>
      <trkpt lat="48.07296" lon="5.56928">
        <ele>342.379</ele>
        <time>2019-09-24T11:33:55.001Z</time>
      </trkpt>
      <trkpt lat="48.07289" lon="5.56918">
        <ele>342.956</ele>
        <time>2019-09-24T11:33:58.001Z</time>
      </trkpt>
      <trkpt lat="48.07282" lon="5.56906">
        <ele>343.229</ele>
        <time>2019-09-24T11:34:01.001Z</time>
      </trkpt>
      <trkpt lat="48.07274" lon="5.56896">
        <ele>343.104</ele>
        <time>2019-09-24T11:34:04.001Z</time>
      </trkpt>
      <trkpt lat="48.07267" lon="5.56886">
        <ele>342.799</ele>
        <time>2019-09-24T11:34:07.001Z</time>
      </trkpt>
      <trkpt lat="48.07259" lon="5.56876">
        <ele>342.573</ele>
        <time>2019-09-24T11:34:10.001Z</time>
      </trkpt>
      <trkpt lat="48.07251" lon="5.56863">
        <ele>342.44</ele>
        <time>2019-09-24T11:34:13.001Z</time>
      </trkpt>
      <trkpt lat="48.07242" lon="5.56851">
        <ele>342.222</ele>
        <time>2019-09-24T13:34:16Z</time>
      </trkpt>
      <trkpt lat="48.07232" lon="5.56837">
        <ele>341.693</ele>
        <time>2019-09-24T11:34:19.001Z</time>
      </trkpt>
      <trkpt lat="48.07221" lon="5.56822">
        <ele>341.294</ele>
        <time>2019-09-24T11:34:22.001Z</time>
      </trkpt>
      <trkpt lat="48.07212" lon="5.56806">
        <ele>341.317</ele>
        <time>2019-09-24T11:34:25.001Z</time>
      </trkpt>
      <trkpt lat="48.07202" lon="5.56789">
        <ele>341.021</ele>
        <time>2019-09-24T11:34:28.001Z</time>
      </trkpt>
      <trkpt lat="48.07193" lon="5.56769">
        <ele>340.719</ele>
        <time>2019-09-24T11:34:31.001Z</time>
      </trkpt>
      <trkpt lat="48.07184" lon="5.56749">
        <ele>340.301</ele>
        <time>2019-09-24T11:34:34.001Z</time>
      </trkpt>
      <trkpt lat="48.07174" lon="5.56729">
        <ele>340.122</ele>
        <time>2019-09-24T11:34:37.001Z</time>
      </trkpt>
      <trkpt lat="48.07165" lon="5.5671">
        <ele>340.455</ele>
        <time>2019-09-24T11:34:40.001Z</time>
      </trkpt>
      <trkpt lat="48.07156" lon="5.56692">
        <ele>340.546</ele>
        <time>2019-09-24T11:34:43.001Z</time>
      </trkpt>
      <trkpt lat="48.07148" lon="5.56676">
        <ele>340.462</ele>
        <time>2019-09-24T11:34:46.001Z</time>
      </trkpt>
      <trkpt lat="48.0714" lon="5.56659">
        <ele>340.558</ele>
        <time>2019-09-24T11:34:49.001Z</time>
      </trkpt>
      <trkpt lat="48.07131" lon="5.56642">
        <ele>340.816</ele>
        <time>2019-09-24T11:34:52.001Z</time>
      </trkpt>
      <trkpt lat="48.07123" lon="5.56625">
        <ele>340.853</ele>
        <time>2019-09-24T11:34:55.001Z</time>
      </trkpt>
      <trkpt lat="48.07115" lon="5.56609">
        <ele>340.896</ele>
        <time>2019-09-24T11:34:58.001Z</time>
      </trkpt>
      <trkpt lat="48.07107" lon="5.56593">
        <ele>340.76</ele>
        <time>2019-09-24T11:35:01.001Z</time>
      </trkpt>
      <trkpt lat="48.07098" lon="5.56576">
        <ele>340.571</ele>
        <time>2019-09-24T11:35:04.001Z</time>
      </trkpt>
      <trkpt lat="48.0709" lon="5.5656">
        <ele>340.602</ele>
        <time>2019-09-24T11:35:07.001Z</time>
      </trkpt>
      <trkpt lat="48.07082" lon="5.56544">
        <ele>340.589</ele>
        <time>2019-09-24T11:35:10.001Z</time>
      </trkpt>
      <trkpt lat="48.07074" lon="5.56528">
        <ele>340.691</ele>
        <time>2019-09-24T11:35:13.001Z</time>
      </trkpt>
      <trkpt lat="48.07065" lon="5.56512">
        <ele>341.318</ele>
        <time>2019-09-24T13:35:16Z</time>
      </trkpt>
      <trkpt lat="48.07057" lon="5.56497">
        <ele>342.332</ele>
        <time>2019-09-24T11:35:19.001Z</time>
      </trkpt>
      <trkpt lat="48.0705" lon="5.56482">
        <ele>342.672</ele>
        <time>2019-09-24T11:35:22.001Z</time>
      </trkpt>
      <trkpt lat="48.07042" lon="5.56466">
        <ele>343.024</ele>
        <time>2019-09-24T11:35:25.001Z</time>
      </trkpt>
      <trkpt lat="48.07036" lon="5.56449">
        <ele>342.744</ele>
        <time>2019-09-24T11:35:28.001Z</time>
      </trkpt>
      <trkpt lat="48.0703" lon="5.56433">
        <ele>342.402</ele>
        <time>2019-09-24T11:35:31.001Z</time>
      </trkpt>
      <trkpt lat="48.07025" lon="5.56417">
        <ele>342.308</ele>
        <time>2019-09-24T11:35:34.001Z</time>
      </trkpt>
      <trkpt lat="48.0702" lon="5.56402">
        <ele>342.615</ele>
        <time>2019-09-24T11:35:37.001Z</time>
      </trkpt>
      <trkpt lat="48.07016" lon="5.56386">
        <ele>342.768</ele>
        <time>2019-09-24T11:35:40.001Z</time>
      </trkpt>
      <trkpt lat="48.07011" lon="5.56372">
        <ele>342.428</ele>
        <time>2019-09-24T11:35:43.001Z</time>
      </trkpt>
      <trkpt lat="48.07008" lon="5.56359">
        <ele>342.601</ele>
        <time>2019-09-24T11:35:46.001Z</time>
      </trkpt>
      <trkpt lat="48.07005" lon="5.56347">
        <ele>342.547</ele>
        <time>2019-09-24T11:35:49.001Z</time>
      </trkpt>
      <trkpt lat="48.07003" lon="5.56334">
        <ele>342.584</ele>
        <time>2019-09-24T11:35:52.001Z</time>
      </trkpt>
      <trkpt lat="48.07" lon="5.56322">
        <ele>342.611</ele>
        <time>2019-09-24T11:35:55.001Z</time>
      </trkpt>
      <trkpt lat="48.06997" lon="5.56308">
        <ele>342.103</ele>
        <time>2019-09-24T11:35:58.001Z</time>
      </trkpt>
      <trkpt lat="48.06994" lon="5.56293">
        <ele>341.802</ele>
        <time>2019-09-24T11:36:01.001Z</time>
      </trkpt>
      <trkpt lat="48.06992" lon="5.56277">
        <ele>341.792</ele>
        <time>2019-09-24T11:36:04.001Z</time>
      </trkpt>
      <trkpt lat="48.06989" lon="5.5626">
        <ele>341.413</ele>
        <time>2019-09-24T11:36:07.001Z</time>
      </trkpt>
      <trkpt lat="48.06986" lon="5.56244">
        <ele>340.954</ele>
        <time>2019-09-24T11:36:10.001Z</time>
      </trkpt>
      <trkpt lat="48.06984" lon="5.56228">
        <ele>340.815</ele>
        <time>2019-09-24T11:36:13.001Z</time>
      </trkpt>
      <trkpt lat="48.06981" lon="5.56214">
        <ele>340.672</ele>
        <time>2019-09-24T13:36:16Z</time>
      </trkpt>
      <trkpt lat="48.06979" lon="5.56199">
        <ele>340.707</ele>
        <time>2019-09-24T11:36:19.001Z</time>
      </trkpt>
      <trkpt lat="48.06974" lon="5.56183">
        <ele>341.176</ele>
        <time>2019-09-24T11:36:22.001Z</time>
      </trkpt>
      <trkpt lat="48.06971" lon="5.56167">
        <ele>340.966</ele>
        <time>2019-09-24T11:36:25.001Z</time>
      </trkpt>
      <trkpt lat="48.06968" lon="5.5615">
        <ele>340.011</ele>
        <time>2019-09-24T11:36:28.001Z</time>
      </trkpt>
      <trkpt lat="48.06962" lon="5.56134">
        <ele>339.792</ele>
        <time>2019-09-24T11:36:31.001Z</time>
      </trkpt>
      <trkpt lat="48.06953" lon="5.56121">
        <ele>340.379</ele>
        <time>2019-09-24T11:36:34.001Z</time>
      </trkpt>
      <trkpt lat="48.06944" lon="5.56109">
        <ele>341.016</ele>
        <time>2019-09-24T11:36:37.001Z</time>
      </trkpt>
      <trkpt lat="48.06935" lon="5.56099">
        <ele>342.063</ele>
        <time>2019-09-24T11:36:40.001Z</time>
      </trkpt>
      <trkpt lat="48.06923" lon="5.5609">
        <ele>342.706</ele>
        <time>2019-09-24T11:36:43.001Z</time>
      </trkpt>
      <trkpt lat="48.0691" lon="5.56081">
        <ele>343.074</ele>
        <time>2019-09-24T11:36:46.001Z</time>
      </trkpt>
      <trkpt lat="48.06896" lon="5.56071">
        <ele>343.415</ele>
        <time>2019-09-24T11:36:49.001Z</time>
      </trkpt>
      <trkpt lat="48.06881" lon="5.56061">
        <ele>343.623</ele>
        <time>2019-09-24T11:36:52.001Z</time>
      </trkpt>
      <trkpt lat="48.06867" lon="5.56047">
        <ele>344.097</ele>
        <time>2019-09-24T11:36:55.001Z</time>
      </trkpt>
      <trkpt lat="48.06854" lon="5.56034">
        <ele>345.306</ele>
        <time>2019-09-24T11:36:58.001Z</time>
      </trkpt>
      <trkpt lat="48.06842" lon="5.56019">
        <ele>345.84</ele>
        <time>2019-09-24T11:37:01.001Z</time>
      </trkpt>
      <trkpt lat="48.0683" lon="5.56005">
        <ele>346.663</ele>
        <time>2019-09-24T11:37:04.001Z</time>
      </trkpt>
      <trkpt lat="48.0682" lon="5.55988">
        <ele>346.727</ele>
        <time>2019-09-24T11:37:07.001Z</time>
      </trkpt>
      <trkpt lat="48.06811" lon="5.55972">
        <ele>347.336</ele>
        <time>2019-09-24T11:37:10.001Z</time>
      </trkpt>
      <trkpt lat="48.06803" lon="5.55953">
        <ele>347.79</ele>
        <time>2019-09-24T11:37:13.001Z</time>
      </trkpt>
      <trkpt lat="48.06796" lon="5.55935">
        <ele>347.786</ele>
        <time>2019-09-24T13:37:16Z</time>
      </trkpt>
      <trkpt lat="48.06789" lon="5.55915">
        <ele>347.116</ele>
        <time>2019-09-24T11:37:19.001Z</time>
      </trkpt>
      <trkpt lat="48.06782" lon="5.55895">
        <ele>345.872</ele>
        <time>2019-09-24T11:37:22.001Z</time>
      </trkpt>
      <trkpt lat="48.06774" lon="5.55873">
        <ele>343.057</ele>
        <time>2019-09-24T11:37:25.001Z</time>
      </trkpt>
      <trkpt lat="48.06763" lon="5.55853">
        <ele>342.195</ele>
        <time>2019-09-24T11:37:28.001Z</time>
      </trkpt>
      <trkpt lat="48.06754" lon="5.5583">
        <ele>341.49</ele>
        <time>2019-09-24T11:37:31.001Z</time>
      </trkpt>
      <trkpt lat="48.06746" lon="5.55805">
        <ele>341.062</ele>
        <time>2019-09-24T11:37:34.001Z</time>
      </trkpt>
      <trkpt lat="48.06741" lon="5.55782">
        <ele>340.125</ele>
        <time>2019-09-24T11:37:37.001Z</time>
      </trkpt>
      <trkpt lat="48.06736" lon="5.5576">
        <ele>339.882</ele>
        <time>2019-09-24T11:37:40.001Z</time>
      </trkpt>
      <trkpt lat="48.06733" lon="5.55742">
        <ele>339.573</ele>
        <time>2019-09-24T11:37:43.001Z</time>
      </trkpt>
      <trkpt lat="48.0673" lon="5.55723">
        <ele>339.514</ele>
        <time>2019-09-24T11:37:46.001Z</time>
      </trkpt>
      <trkpt lat="48.06727" lon="5.55702">
        <ele>338.929</ele>
        <time>2019-09-24T11:37:49.001Z</time>
      </trkpt>
      <trkpt lat="48.06724" lon="5.55681">
        <ele>339.437</ele>
        <time>2019-09-24T11:37:52.001Z</time>
      </trkpt>
      <trkpt lat="48.06721" lon="5.55662">
        <ele>340.273</ele>
        <time>2019-09-24T11:37:55.001Z</time>
      </trkpt>
      <trkpt lat="48.06718" lon="5.55641">
        <ele>340.222</ele>
        <time>2019-09-24T11:37:58.001Z</time>
      </trkpt>
      <trkpt lat="48.06715" lon="5.55618">
        <ele>340.349</ele>
        <time>2019-09-24T11:38:01.001Z</time>
      </trkpt>
      <trkpt lat="48.06711" lon="5.55595">
        <ele>339.806</ele>
        <time>2019-09-24T11:38:04.001Z</time>
      </trkpt>
      <trkpt lat="48.06705" lon="5.55573">
        <ele>339.653</ele>
        <time>2019-09-24T11:38:07.001Z</time>
      </trkpt>
      <trkpt lat="48.06699" lon="5.55548">
        <ele>339.379</ele>
        <time>2019-09-24T11:38:10.001Z</time>
      </trkpt>
      <trkpt lat="48.06693" lon="5.55524">
        <ele>338.903</ele>
        <time>2019-09-24T11:38:13.001Z</time>
      </trkpt>
      <trkpt lat="48.06688" lon="5.555">
        <ele>339.014</ele>
        <time>2019-09-24T13:38:16Z</time>
      </trkpt>
      <trkpt lat="48.06683" lon="5.55476">
        <ele>339.535</ele>
        <time>2019-09-24T11:38:19.001Z</time>
      </trkpt>
      <trkpt lat="48.06676" lon="5.55453">
        <ele>339.14</ele>
        <time>2019-09-24T11:38:22.001Z</time>
      </trkpt>
      <trkpt lat="48.06671" lon="5.55428">
        <ele>337.495</ele>
        <time>2019-09-24T11:38:25.001Z</time>
      </trkpt>
      <trkpt lat="48.06668" lon="5.55404">
        <ele>337.039</ele>
        <time>2019-09-24T11:38:28.001Z</time>
      </trkpt>
      <trkpt lat="48.06662" lon="5.55382">
        <ele>336.601</ele>
        <time>2019-09-24T11:38:31.001Z</time>
      </trkpt>
      <trkpt lat="48.06645" lon="5.55383">
        <ele>335.769</ele>
        <time>2019-09-24T11:38:34.001Z</time>
      </trkpt>
      <trkpt lat="48.06629" lon="5.55404">
        <ele>334.582</ele>
        <time>2019-09-24T11:38:37.001Z</time>
      </trkpt>
      <trkpt lat="48.06609" lon="5.55417">
        <ele>334.007</ele>
        <time>2019-09-24T11:38:40.001Z</time>
      </trkpt>
      <trkpt lat="48.06588" lon="5.55427">
        <ele>333.312</ele>
        <time>2019-09-24T11:38:43.001Z</time>
      </trkpt>
      <trkpt lat="48.06567" lon="5.55435">
        <ele>332.278</ele>
        <time>2019-09-24T11:38:46.001Z</time>
      </trkpt>
      <trkpt lat="48.06547" lon="5.55442">
        <ele>331.204</ele>
        <time>2019-09-24T11:38:49.001Z</time>
      </trkpt>
      <trkpt lat="48.06529" lon="5.55448">
        <ele>329.97</ele>
        <time>2019-09-24T11:38:52.001Z</time>
      </trkpt>
      <trkpt lat="48.06512" lon="5.55452">
        <ele>328.968</ele>
        <time>2019-09-24T11:38:55.001Z</time>
      </trkpt>
      <trkpt lat="48.06495" lon="5.55454">
        <ele>328.257</ele>
        <time>2019-09-24T11:38:58.001Z</time>
      </trkpt>
      <trkpt lat="48.06479" lon="5.55455">
        <ele>327.574</ele>
        <time>2019-09-24T11:39:01.001Z</time>
      </trkpt>
      <trkpt lat="48.06464" lon="5.55456">
        <ele>327.054</ele>
        <time>2019-09-24T11:39:04.001Z</time>
      </trkpt>
      <trkpt lat="48.0645" lon="5.55459">
        <ele>326.901</ele>
        <time>2019-09-24T11:39:07.001Z</time>
      </trkpt>
      <trkpt lat="48.06438" lon="5.55461">
        <ele>326.994</ele>
        <time>2019-09-24T11:39:10.001Z</time>
      </trkpt>
      <trkpt lat="48.06426" lon="5.55464">
        <ele>327.179</ele>
        <time>2019-09-24T11:39:13.001Z</time>
      </trkpt>
      <trkpt lat="48.06415" lon="5.55466">
        <ele>327.738</ele>
        <time>2019-09-24T13:39:16Z</time>
      </trkpt>
      <trkpt lat="48.06404" lon="5.55465">
        <ele>328.317</ele>
        <time>2019-09-24T11:39:19.001Z</time>
      </trkpt>
      <trkpt lat="48.06395" lon="5.55456">
        <ele>328.326</ele>
        <time>2019-09-24T11:39:22.001Z</time>
      </trkpt>
      <trkpt lat="48.06388" lon="5.55443">
        <ele>328.13</ele>
        <time>2019-09-24T11:39:25.001Z</time>
      </trkpt>
      <trkpt lat="48.06382" lon="5.55427">
        <ele>327.841</ele>
        <time>2019-09-24T11:39:28.001Z</time>
      </trkpt>
      <trkpt lat="48.06377" lon="5.5541">
        <ele>327.315</ele>
        <time>2019-09-24T11:39:31.001Z</time>
      </trkpt>
      <trkpt lat="48.06373" lon="5.55391">
        <ele>327.263</ele>
        <time>2019-09-24T11:39:34.001Z</time>
      </trkpt>
      <trkpt lat="48.06369" lon="5.55369">
        <ele>326.84</ele>
        <time>2019-09-24T11:39:37.001Z</time>
      </trkpt>
      <trkpt lat="48.06364" lon="5.55346">
        <ele>326.284</ele>
        <time>2019-09-24T11:39:40.001Z</time>
      </trkpt>
      <trkpt lat="48.06354" lon="5.55324">
        <ele>326.06</ele>
        <time>2019-09-24T11:39:43.001Z</time>
      </trkpt>
      <trkpt lat="48.06343" lon="5.55305">
        <ele>325.772</ele>
        <time>2019-09-24T11:39:46.001Z</time>
      </trkpt>
      <trkpt lat="48.06332" lon="5.55289">
        <ele>325.859</ele>
        <time>2019-09-24T11:39:49.001Z</time>
      </trkpt>
      <trkpt lat="48.06321" lon="5.55275">
        <ele>325.801</ele>
        <time>2019-09-24T11:39:52.001Z</time>
      </trkpt>
      <trkpt lat="48.06311" lon="5.55263">
        <ele>325.318</ele>
        <time>2019-09-24T11:39:55.001Z</time>
      </trkpt>
      <trkpt lat="48.06302" lon="5.55252">
        <ele>325.442</ele>
        <time>2019-09-24T11:39:58.001Z</time>
      </trkpt>
      <trkpt lat="48.06291" lon="5.55239">
        <ele>325.679</ele>
        <time>2019-09-24T11:40:01.001Z</time>
      </trkpt>
      <trkpt lat="48.06281" lon="5.55227">
        <ele>325.641</ele>
        <time>2019-09-24T11:40:04.001Z</time>
      </trkpt>
      <trkpt lat="48.06271" lon="5.55216">
        <ele>325.499</ele>
        <time>2019-09-24T11:40:07.001Z</time>
      </trkpt>
      <trkpt lat="48.06261" lon="5.55205">
        <ele>325.631</ele>
        <time>2019-09-24T11:40:10.001Z</time>
      </trkpt>
      <trkpt lat="48.06251" lon="5.55195">
        <ele>325.98</ele>
        <time>2019-09-24T11:40:13.001Z</time>
      </trkpt>
      <trkpt lat="48.0624" lon="5.55187">
        <ele>326.127</ele>
        <time>2019-09-24T13:40:16Z</time>
      </trkpt>
      <trkpt lat="48.06229" lon="5.55179">
        <ele>326.597</ele>
        <time>2019-09-24T11:40:19.001Z</time>
      </trkpt>
      <trkpt lat="48.06218" lon="5.55172">
        <ele>326.558</ele>
        <time>2019-09-24T11:40:22.001Z</time>
      </trkpt>
      <trkpt lat="48.06207" lon="5.55163">
        <ele>326.972</ele>
        <time>2019-09-24T11:40:25.001Z</time>
      </trkpt>
      <trkpt lat="48.06197" lon="5.55156">
        <ele>327.253</ele>
        <time>2019-09-24T11:40:28.001Z</time>
      </trkpt>
      <trkpt lat="48.06189" lon="5.5515">
        <ele>327.539</ele>
        <time>2019-09-24T11:40:31.001Z</time>
      </trkpt>
      <trkpt lat="48.06183" lon="5.55144">
        <ele>328.064</ele>
        <time>2019-09-24T11:40:34.001Z</time>
      </trkpt>
      <trkpt lat="48.06177" lon="5.5514">
        <ele>328.25</ele>
        <time>2019-09-24T11:40:37.001Z</time>
      </trkpt>
      <trkpt lat="48.0617" lon="5.55133">
        <ele>328.635</ele>
        <time>2019-09-24T11:40:40.001Z</time>
      </trkpt>
      <trkpt lat="48.06162" lon="5.55125">
        <ele>329.133</ele>
        <time>2019-09-24T11:40:43.001Z</time>
      </trkpt>
      <trkpt lat="48.06153" lon="5.55118">
        <ele>329.182</ele>
        <time>2019-09-24T11:40:46.001Z</time>
      </trkpt>
      <trkpt lat="48.06145" lon="5.5511">
        <ele>329.409</ele>
        <time>2019-09-24T11:40:49.001Z</time>
      </trkpt>
      <trkpt lat="48.06136" lon="5.55103">
        <ele>329.824</ele>
        <time>2019-09-24T11:40:52.001Z</time>
      </trkpt>
      <trkpt lat="48.06127" lon="5.55095">
        <ele>330.299</ele>
        <time>2019-09-24T11:40:55.001Z</time>
      </trkpt>
      <trkpt lat="48.06119" lon="5.55088">
        <ele>331.086</ele>
        <time>2019-09-24T11:40:58.001Z</time>
      </trkpt>
      <trkpt lat="48.06111" lon="5.55082">
        <ele>331.262</ele>
        <time>2019-09-24T11:41:01.001Z</time>
      </trkpt>
      <trkpt lat="48.06102" lon="5.55075">
        <ele>331.437</ele>
        <time>2019-09-24T11:41:04.001Z</time>
      </trkpt>
      <trkpt lat="48.06093" lon="5.5507">
        <ele>331.767</ele>
        <time>2019-09-24T11:41:07.001Z</time>
      </trkpt>
      <trkpt lat="48.06084" lon="5.55064">
        <ele>332.65</ele>
        <time>2019-09-24T11:41:10.001Z</time>
      </trkpt>
      <trkpt lat="48.06076" lon="5.55057">
        <ele>332.877</ele>
        <time>2019-09-24T11:41:13.001Z</time>
      </trkpt>
      <trkpt lat="48.06068" lon="5.55048">
        <ele>332.478</ele>
        <time>2019-09-24T13:41:16Z</time>
      </trkpt>
      <trkpt lat="48.06061" lon="5.55039">
        <ele>332.598</ele>
        <time>2019-09-24T11:41:19.001Z</time>
      </trkpt>
      <trkpt lat="48.06055" lon="5.55029">
        <ele>332.607</ele>
        <time>2019-09-24T11:41:22.001Z</time>
      </trkpt>
      <trkpt lat="48.06049" lon="5.55019">
        <ele>332.711</ele>
        <time>2019-09-24T11:41:25.001Z</time>
      </trkpt>
      <trkpt lat="48.06045" lon="5.55008">
        <ele>332.151</ele>
        <time>2019-09-24T11:41:28.001Z</time>
      </trkpt>
      <trkpt lat="48.0604" lon="5.54996">
        <ele>331.595</ele>
        <time>2019-09-24T11:41:31.001Z</time>
      </trkpt>
      <trkpt lat="48.06036" lon="5.54984">
        <ele>331.349</ele>
        <time>2019-09-24T11:41:34.001Z</time>
      </trkpt>
      <trkpt lat="48.06032" lon="5.5497">
        <ele>331.186</ele>
        <time>2019-09-24T11:41:37.001Z</time>
      </trkpt>
      <trkpt lat="48.06029" lon="5.54956">
        <ele>330.952</ele>
        <time>2019-09-24T11:41:40.001Z</time>
      </trkpt>
      <trkpt lat="48.06026" lon="5.5494">
        <ele>330.215</ele>
        <time>2019-09-24T11:41:43.001Z</time>
      </trkpt>
      <trkpt lat="48.06022" lon="5.54923">
        <ele>329.771</ele>
        <time>2019-09-24T11:41:46.001Z</time>
      </trkpt>
      <trkpt lat="48.06018" lon="5.54908">
        <ele>329.687</ele>
        <time>2019-09-24T11:41:49.001Z</time>
      </trkpt>
      <trkpt lat="48.06013" lon="5.54893">
        <ele>329.143</ele>
        <time>2019-09-24T11:41:52.001Z</time>
      </trkpt>
      <trkpt lat="48.06008" lon="5.54875">
        <ele>329.577</ele>
        <time>2019-09-24T11:41:55.001Z</time>
      </trkpt>
      <trkpt lat="48.06001" lon="5.54862">
        <ele>329.611</ele>
        <time>2019-09-24T11:41:58.001Z</time>
      </trkpt>
      <trkpt lat="48.05994" lon="5.5485">
        <ele>329.682</ele>
        <time>2019-09-24T11:42:01.001Z</time>
      </trkpt>
      <trkpt lat="48.05986" lon="5.54837">
        <ele>329.586</ele>
        <time>2019-09-24T11:42:04.001Z</time>
      </trkpt>
      <trkpt lat="48.05978" lon="5.54825">
        <ele>329.406</ele>
        <time>2019-09-24T11:42:07.001Z</time>
      </trkpt>
      <trkpt lat="48.05969" lon="5.54812">
        <ele>330.031</ele>
        <time>2019-09-24T11:42:10.001Z</time>
      </trkpt>
      <trkpt lat="48.05962" lon="5.54798">
        <ele>330.044</ele>
        <time>2019-09-24T11:42:13.001Z</time>
      </trkpt>
      <trkpt lat="48.05955" lon="5.54785">
        <ele>330.125</ele>
        <time>2019-09-24T13:42:16Z</time>
      </trkpt>
      <trkpt lat="48.05949" lon="5.5477">
        <ele>330.34</ele>
        <time>2019-09-24T11:42:19.001Z</time>
      </trkpt>
      <trkpt lat="48.05944" lon="5.54754">
        <ele>330.55</ele>
        <time>2019-09-24T11:42:22.001Z</time>
      </trkpt>
      <trkpt lat="48.0594" lon="5.5474">
        <ele>330.57</ele>
        <time>2019-09-24T11:42:25.001Z</time>
      </trkpt>
      <trkpt lat="48.05936" lon="5.54727">
        <ele>330.732</ele>
        <time>2019-09-24T11:42:28.001Z</time>
      </trkpt>
      <trkpt lat="48.05933" lon="5.54711">
        <ele>330.538</ele>
        <time>2019-09-24T11:42:31.001Z</time>
      </trkpt>
      <trkpt lat="48.05931" lon="5.54694">
        <ele>329.79</ele>
        <time>2019-09-24T11:42:34.001Z</time>
      </trkpt>
      <trkpt lat="48.05928" lon="5.54677">
        <ele>329.353</ele>
        <time>2019-09-24T11:42:37.001Z</time>
      </trkpt>
      <trkpt lat="48.05925" lon="5.54661">
        <ele>328.702</ele>
        <time>2019-09-24T11:42:40.001Z</time>
      </trkpt>
      <trkpt lat="48.05922" lon="5.54646">
        <ele>328.396</ele>
        <time>2019-09-24T11:42:43.001Z</time>
      </trkpt>
      <trkpt lat="48.05918" lon="5.54631">
        <ele>328.45</ele>
        <time>2019-09-24T11:42:46.001Z</time>
      </trkpt>
      <trkpt lat="48.05913" lon="5.54617">
        <ele>328.254</ele>
        <time>2019-09-24T11:42:49.001Z</time>
      </trkpt>
      <trkpt lat="48.05907" lon="5.54604">
        <ele>328.586</ele>
        <time>2019-09-24T11:42:52.001Z</time>
      </trkpt>
      <trkpt lat="48.05899" lon="5.54593">
        <ele>328.521</ele>
        <time>2019-09-24T11:42:55.001Z</time>
      </trkpt>
      <trkpt lat="48.05889" lon="5.54586">
        <ele>328.445</ele>
        <time>2019-09-24T11:42:58.001Z</time>
      </trkpt>
      <trkpt lat="48.05878" lon="5.54581">
        <ele>328.248</ele>
        <time>2019-09-24T11:43:01.001Z</time>
      </trkpt>
      <trkpt lat="48.05868" lon="5.54577">
        <ele>328.152</ele>
        <time>2019-09-24T11:43:04.001Z</time>
      </trkpt>
      <trkpt lat="48.05857" lon="5.54574">
        <ele>328.032</ele>
        <time>2019-09-24T11:43:07.001Z</time>
      </trkpt>
      <trkpt lat="48.05846" lon="5.5457">
        <ele>327.703</ele>
        <time>2019-09-24T11:43:10.001Z</time>
      </trkpt>
      <trkpt lat="48.05835" lon="5.54567">
        <ele>327.484</ele>
        <time>2019-09-24T11:43:13.001Z</time>
      </trkpt>
      <trkpt lat="48.05824" lon="5.54565">
        <ele>327.635</ele>
        <time>2019-09-24T13:43:16Z</time>
      </trkpt>
      <trkpt lat="48.05813" lon="5.54563">
        <ele>327.862</ele>
        <time>2019-09-24T11:43:19.001Z</time>
      </trkpt>
      <trkpt lat="48.05802" lon="5.5456">
        <ele>328.014</ele>
        <time>2019-09-24T11:43:22.001Z</time>
      </trkpt>
      <trkpt lat="48.05793" lon="5.54557">
        <ele>328.211</ele>
        <time>2019-09-24T11:43:25.001Z</time>
      </trkpt>
      <trkpt lat="48.05783" lon="5.54555">
        <ele>328.409</ele>
        <time>2019-09-24T11:43:28.001Z</time>
      </trkpt>
      <trkpt lat="48.05773" lon="5.54552">
        <ele>328.738</ele>
        <time>2019-09-24T11:43:31.001Z</time>
      </trkpt>
      <trkpt lat="48.05763" lon="5.5455">
        <ele>329.192</ele>
        <time>2019-09-24T11:43:34.001Z</time>
      </trkpt>
      <trkpt lat="48.05754" lon="5.54548">
        <ele>329.597</ele>
        <time>2019-09-24T11:43:37.001Z</time>
      </trkpt>
      <trkpt lat="48.05745" lon="5.54546">
        <ele>330.004</ele>
        <time>2019-09-24T11:43:40.001Z</time>
      </trkpt>
      <trkpt lat="48.05737" lon="5.54546">
        <ele>330.438</ele>
        <time>2019-09-24T11:43:43.001Z</time>
      </trkpt>
      <trkpt lat="48.0573" lon="5.54544">
        <ele>330.505</ele>
        <time>2019-09-24T11:43:46.001Z</time>
      </trkpt>
      <trkpt lat="48.05722" lon="5.54543">
        <ele>330.936</ele>
        <time>2019-09-24T11:43:49.001Z</time>
      </trkpt>
      <trkpt lat="48.05715" lon="5.54542">
        <ele>331.526</ele>
        <time>2019-09-24T11:43:52.001Z</time>
      </trkpt>
      <trkpt lat="48.05708" lon="5.54542">
        <ele>331.972</ele>
        <time>2019-09-24T11:43:55.001Z</time>
      </trkpt>
      <trkpt lat="48.05701" lon="5.54542">
        <ele>332.179</ele>
        <time>2019-09-24T11:43:58.001Z</time>
      </trkpt>
      <trkpt lat="48.05694" lon="5.54542">
        <ele>332.694</ele>
        <time>2019-09-24T11:44:01.001Z</time>
      </trkpt>
      <trkpt lat="48.05687" lon="5.54541">
        <ele>333.243</ele>
        <time>2019-09-24T11:44:04.001Z</time>
      </trkpt>
      <trkpt lat="48.0568" lon="5.54541">
        <ele>333.821</ele>
        <time>2019-09-24T11:44:07.001Z</time>
      </trkpt>
      <trkpt lat="48.05673" lon="5.5454">
        <ele>334.452</ele>
        <time>2019-09-24T11:44:10.001Z</time>
      </trkpt>
      <trkpt lat="48.05667" lon="5.5454">
        <ele>334.951</ele>
        <time>2019-09-24T11:44:13.001Z</time>
      </trkpt>
      <trkpt lat="48.05661" lon="5.5454">
        <ele>335.538</ele>
        <time>2019-09-24T13:44:16Z</time>
      </trkpt>
      <trkpt lat="48.05654" lon="5.54541">
        <ele>335.488</ele>
        <time>2019-09-24T11:44:19.001Z</time>
      </trkpt>
      <trkpt lat="48.05647" lon="5.54542">
        <ele>335.818</ele>
        <time>2019-09-24T11:44:22.001Z</time>
      </trkpt>
      <trkpt lat="48.0564" lon="5.54544">
        <ele>335.969</ele>
        <time>2019-09-24T11:44:25.001Z</time>
      </trkpt>
      <trkpt lat="48.05633" lon="5.54545">
        <ele>336.443</ele>
        <time>2019-09-24T11:44:28.001Z</time>
      </trkpt>
      <trkpt lat="48.05627" lon="5.54546">
        <ele>337.063</ele>
        <time>2019-09-24T11:44:31.001Z</time>
      </trkpt>
      <trkpt lat="48.0562" lon="5.54547">
        <ele>337.186</ele>
        <time>2019-09-24T11:44:34.001Z</time>
      </trkpt>
      <trkpt lat="48.05613" lon="5.54548">
        <ele>337.806</ele>
        <time>2019-09-24T11:44:37.001Z</time>
      </trkpt>
      <trkpt lat="48.05607" lon="5.54548">
        <ele>337.943</ele>
        <time>2019-09-24T11:44:40.001Z</time>
      </trkpt>
      <trkpt lat="48.056" lon="5.5455">
        <ele>337.675</ele>
        <time>2019-09-24T11:44:43.001Z</time>
      </trkpt>
      <trkpt lat="48.05593" lon="5.5455">
        <ele>337.193</ele>
        <time>2019-09-24T11:44:46.001Z</time>
      </trkpt>
      <trkpt lat="48.05585" lon="5.5455">
        <ele>337.933</ele>
        <time>2019-09-24T11:44:49.001Z</time>
      </trkpt>
      <trkpt lat="48.05578" lon="5.54549">
        <ele>338.644</ele>
        <time>2019-09-24T11:44:52.001Z</time>
      </trkpt>
      <trkpt lat="48.0557" lon="5.5455">
        <ele>339.639</ele>
        <time>2019-09-24T11:44:55.001Z</time>
      </trkpt>
      <trkpt lat="48.05562" lon="5.54551">
        <ele>339.785</ele>
        <time>2019-09-24T11:44:58.001Z</time>
      </trkpt>
      <trkpt lat="48.05554" lon="5.54552">
        <ele>339.986</ele>
        <time>2019-09-24T11:45:01.001Z</time>
      </trkpt>
      <trkpt lat="48.05547" lon="5.54552">
        <ele>340.425</ele>
        <time>2019-09-24T11:45:04.001Z</time>
      </trkpt>
      <trkpt lat="48.0554" lon="5.54552">
        <ele>340.929</ele>
        <time>2019-09-24T11:45:07.001Z</time>
      </trkpt>
      <trkpt lat="48.05532" lon="5.54552">
        <ele>341.468</ele>
        <time>2019-09-24T11:45:10.001Z</time>
      </trkpt>
      <trkpt lat="48.05525" lon="5.54552">
        <ele>342.094</ele>
        <time>2019-09-24T11:45:13.001Z</time>
      </trkpt>
      <trkpt lat="48.05518" lon="5.54551">
        <ele>342.864</ele>
        <time>2019-09-24T13:45:16Z</time>
      </trkpt>
      <trkpt lat="48.05511" lon="5.54551">
        <ele>343.819</ele>
        <time>2019-09-24T11:45:19.001Z</time>
      </trkpt>
      <trkpt lat="48.05504" lon="5.54553">
        <ele>344.672</ele>
        <time>2019-09-24T11:45:22.001Z</time>
      </trkpt>
      <trkpt lat="48.05496" lon="5.54553">
        <ele>346.149</ele>
        <time>2019-09-24T11:45:25.001Z</time>
      </trkpt>
      <trkpt lat="48.05487" lon="5.54552">
        <ele>346.582</ele>
        <time>2019-09-24T11:45:28.001Z</time>
      </trkpt>
      <trkpt lat="48.05478" lon="5.54551">
        <ele>347.303</ele>
        <time>2019-09-24T11:45:31.001Z</time>
      </trkpt>
      <trkpt lat="48.0547" lon="5.54549">
        <ele>348.012</ele>
        <time>2019-09-24T11:45:34.001Z</time>
      </trkpt>
      <trkpt lat="48.0546" lon="5.54545">
        <ele>349.002</ele>
        <time>2019-09-24T11:45:37.001Z</time>
      </trkpt>
      <trkpt lat="48.05452" lon="5.54543">
        <ele>350.702</ele>
        <time>2019-09-24T11:45:40.001Z</time>
      </trkpt>
      <trkpt lat="48.05444" lon="5.5454">
        <ele>351.582</ele>
        <time>2019-09-24T11:45:43.001Z</time>
      </trkpt>
      <trkpt lat="48.05433" lon="5.54531">
        <ele>351.763</ele>
        <time>2019-09-24T11:45:46.001Z</time>
      </trkpt>
      <trkpt lat="48.05421" lon="5.54524">
        <ele>351.593</ele>
        <time>2019-09-24T11:45:49.001Z</time>
      </trkpt>
      <trkpt lat="48.05411" lon="5.54518">
        <ele>351.206</ele>
        <time>2019-09-24T11:45:52.001Z</time>
      </trkpt>
      <trkpt lat="48.054" lon="5.54511">
        <ele>350.617</ele>
        <time>2019-09-24T11:45:55.001Z</time>
      </trkpt>
      <trkpt lat="48.05391" lon="5.54509">
        <ele>351.144</ele>
        <time>2019-09-24T11:45:58.001Z</time>
      </trkpt>
      <trkpt lat="48.05382" lon="5.54513">
        <ele>352.026</ele>
        <time>2019-09-24T11:46:01.001Z</time>
      </trkpt>
      <trkpt lat="48.05374" lon="5.54519">
        <ele>353.124</ele>
        <time>2019-09-24T11:46:04.001Z</time>
      </trkpt>
      <trkpt lat="48.05363" lon="5.54522">
        <ele>353.619</ele>
        <time>2019-09-24T11:46:07.001Z</time>
      </trkpt>
      <trkpt lat="48.0535" lon="5.54523">
        <ele>353.369</ele>
        <time>2019-09-24T11:46:10.001Z</time>
      </trkpt>
      <trkpt lat="48.05334" lon="5.54525">
        <ele>352.647</ele>
        <time>2019-09-24T11:46:13.001Z</time>
      </trkpt>
      <trkpt lat="48.05318" lon="5.54527">
        <ele>350.79</ele>
        <time>2019-09-24T13:46:16Z</time>
      </trkpt>
      <trkpt lat="48.05303" lon="5.54528">
        <ele>349.88</ele>
        <time>2019-09-24T11:46:19.001Z</time>
      </trkpt>
      <trkpt lat="48.05289" lon="5.54529">
        <ele>348.909</ele>
        <time>2019-09-24T11:46:22.001Z</time>
      </trkpt>
      <trkpt lat="48.05275" lon="5.5453">
        <ele>347.916</ele>
        <time>2019-09-24T11:46:25.001Z</time>
      </trkpt>
      <trkpt lat="48.05263" lon="5.54531">
        <ele>347.482</ele>
        <time>2019-09-24T11:46:28.001Z</time>
      </trkpt>
      <trkpt lat="48.05251" lon="5.54532">
        <ele>347.696</ele>
        <time>2019-09-24T11:46:31.001Z</time>
      </trkpt>
      <trkpt lat="48.0524" lon="5.5453">
        <ele>347.387</ele>
        <time>2019-09-24T11:46:34.001Z</time>
      </trkpt>
      <trkpt lat="48.05228" lon="5.54526">
        <ele>346.945</ele>
        <time>2019-09-24T11:46:37.001Z</time>
      </trkpt>
      <trkpt lat="48.05215" lon="5.54519">
        <ele>346.144</ele>
        <time>2019-09-24T11:46:40.001Z</time>
      </trkpt>
      <trkpt lat="48.05203" lon="5.54511">
        <ele>345.771</ele>
        <time>2019-09-24T11:46:43.001Z</time>
      </trkpt>
      <trkpt lat="48.05192" lon="5.54503">
        <ele>344.921</ele>
        <time>2019-09-24T11:46:46.001Z</time>
      </trkpt>
      <trkpt lat="48.0518" lon="5.54496">
        <ele>344.302</ele>
        <time>2019-09-24T11:46:49.001Z</time>
      </trkpt>
      <trkpt lat="48.05167" lon="5.54489">
        <ele>344.4</ele>
        <time>2019-09-24T11:46:52.001Z</time>
      </trkpt>
      <trkpt lat="48.05154" lon="5.54482">
        <ele>344.481</ele>
        <time>2019-09-24T11:46:55.001Z</time>
      </trkpt>
      <trkpt lat="48.05141" lon="5.54476">
        <ele>344.781</ele>
        <time>2019-09-24T11:46:58.001Z</time>
      </trkpt>
      <trkpt lat="48.05126" lon="5.54469">
        <ele>343.515</ele>
        <time>2019-09-24T11:47:01.001Z</time>
      </trkpt>
      <trkpt lat="48.0511" lon="5.54461">
        <ele>342.555</ele>
        <time>2019-09-24T11:47:04.001Z</time>
      </trkpt>
      <trkpt lat="48.05096" lon="5.54455">
        <ele>341.808</ele>
        <time>2019-09-24T11:47:07.001Z</time>
      </trkpt>
      <trkpt lat="48.05082" lon="5.54449">
        <ele>341.613</ele>
        <time>2019-09-24T11:47:10.001Z</time>
      </trkpt>
      <trkpt lat="48.0507" lon="5.54444">
        <ele>341.844</ele>
        <time>2019-09-24T11:47:13.001Z</time>
      </trkpt>
      <trkpt lat="48.05059" lon="5.5444">
        <ele>342.345</ele>
        <time>2019-09-24T13:47:16Z</time>
      </trkpt>
      <trkpt lat="48.05049" lon="5.54437">
        <ele>342.579</ele>
        <time>2019-09-24T11:47:19.001Z</time>
      </trkpt>
      <trkpt lat="48.05039" lon="5.54434">
        <ele>342.615</ele>
        <time>2019-09-24T11:47:22.001Z</time>
      </trkpt>
      <trkpt lat="48.0503" lon="5.54432">
        <ele>342.557</ele>
        <time>2019-09-24T11:47:25.001Z</time>
      </trkpt>
      <trkpt lat="48.05021" lon="5.54431">
        <ele>342.372</ele>
        <time>2019-09-24T11:47:28.001Z</time>
      </trkpt>
      <trkpt lat="48.05011" lon="5.54429">
        <ele>342.339</ele>
        <time>2019-09-24T11:47:31.001Z</time>
      </trkpt>
      <trkpt lat="48.05002" lon="5.54428">
        <ele>342.51</ele>
        <time>2019-09-24T11:47:34.001Z</time>
      </trkpt>
      <trkpt lat="48.04992" lon="5.54426">
        <ele>342.856</ele>
        <time>2019-09-24T11:47:37.001Z</time>
      </trkpt>
      <trkpt lat="48.04983" lon="5.54425">
        <ele>342.709</ele>
        <time>2019-09-24T11:47:40.001Z</time>
      </trkpt>
      <trkpt lat="48.04974" lon="5.54422">
        <ele>342.452</ele>
        <time>2019-09-24T11:47:43.001Z</time>
      </trkpt>
      <trkpt lat="48.04964" lon="5.54419">
        <ele>342.501</ele>
        <time>2019-09-24T11:47:46.001Z</time>
      </trkpt>
      <trkpt lat="48.04955" lon="5.54417">
        <ele>342.338</ele>
        <time>2019-09-24T11:47:49.001Z</time>
      </trkpt>
      <trkpt lat="48.04946" lon="5.54413">
        <ele>342.511</ele>
        <time>2019-09-24T11:47:52.001Z</time>
      </trkpt>
      <trkpt lat="48.04936" lon="5.54411">
        <ele>342.419</ele>
        <time>2019-09-24T11:47:55.001Z</time>
      </trkpt>
      <trkpt lat="48.04928" lon="5.54409">
        <ele>342.389</ele>
        <time>2019-09-24T11:47:58.001Z</time>
      </trkpt>
      <trkpt lat="48.04919" lon="5.54406">
        <ele>342.424</ele>
        <time>2019-09-24T11:48:01.001Z</time>
      </trkpt>
      <trkpt lat="48.0491" lon="5.54404">
        <ele>342.54</ele>
        <time>2019-09-24T11:48:04.001Z</time>
      </trkpt>
      <trkpt lat="48.049" lon="5.54401">
        <ele>342.468</ele>
        <time>2019-09-24T11:48:07.001Z</time>
      </trkpt>
      <trkpt lat="48.04891" lon="5.54398">
        <ele>342.407</ele>
        <time>2019-09-24T11:48:10.001Z</time>
      </trkpt>
      <trkpt lat="48.04882" lon="5.54397">
        <ele>342.391</ele>
        <time>2019-09-24T11:48:13.001Z</time>
      </trkpt>
      <trkpt lat="48.04873" lon="5.54394">
        <ele>342.329</ele>
        <time>2019-09-24T13:48:16Z</time>
      </trkpt>
      <trkpt lat="48.04863" lon="5.54391">
        <ele>342.442</ele>
        <time>2019-09-24T11:48:19.001Z</time>
      </trkpt>
      <trkpt lat="48.04854" lon="5.54387">
        <ele>342.773</ele>
        <time>2019-09-24T11:48:22.001Z</time>
      </trkpt>
      <trkpt lat="48.04843" lon="5.54385">
        <ele>342.731</ele>
        <time>2019-09-24T11:48:25.001Z</time>
      </trkpt>
      <trkpt lat="48.04833" lon="5.54382">
        <ele>342.532</ele>
        <time>2019-09-24T11:48:28.001Z</time>
      </trkpt>
      <trkpt lat="48.04824" lon="5.5438">
        <ele>342.914</ele>
        <time>2019-09-24T11:48:31.001Z</time>
      </trkpt>
      <trkpt lat="48.04814" lon="5.54378">
        <ele>343.037</ele>
        <time>2019-09-24T11:48:34.001Z</time>
      </trkpt>
      <trkpt lat="48.04804" lon="5.54375">
        <ele>342.756</ele>
        <time>2019-09-24T11:48:37.001Z</time>
      </trkpt>
      <trkpt lat="48.04795" lon="5.54373">
        <ele>342.808</ele>
        <time>2019-09-24T11:48:40.001Z</time>
      </trkpt>
      <trkpt lat="48.04785" lon="5.54371">
        <ele>342.949</ele>
        <time>2019-09-24T11:48:43.001Z</time>
      </trkpt>
      <trkpt lat="48.04775" lon="5.5437">
        <ele>343.714</ele>
        <time>2019-09-24T11:48:46.001Z</time>
      </trkpt>
      <trkpt lat="48.04765" lon="5.54368">
        <ele>343.989</ele>
        <time>2019-09-24T11:48:49.001Z</time>
      </trkpt>
      <trkpt lat="48.04756" lon="5.54365">
        <ele>344.137</ele>
        <time>2019-09-24T11:48:52.001Z</time>
      </trkpt>
      <trkpt lat="48.04746" lon="5.54363">
        <ele>344.303</ele>
        <time>2019-09-24T11:48:55.001Z</time>
      </trkpt>
      <trkpt lat="48.04736" lon="5.54361">
        <ele>344.216</ele>
        <time>2019-09-24T11:48:58.001Z</time>
      </trkpt>
      <trkpt lat="48.04727" lon="5.54358">
        <ele>344.122</ele>
        <time>2019-09-24T11:49:01.001Z</time>
      </trkpt>
      <trkpt lat="48.04716" lon="5.54356">
        <ele>343.911</ele>
        <time>2019-09-24T11:49:04.001Z</time>
      </trkpt>
      <trkpt lat="48.04706" lon="5.54354">
        <ele>343.522</ele>
        <time>2019-09-24T11:49:07.001Z</time>
      </trkpt>
      <trkpt lat="48.04696" lon="5.54353">
        <ele>343.432</ele>
        <time>2019-09-24T11:49:10.001Z</time>
      </trkpt>
      <trkpt lat="48.04685" lon="5.54352">
        <ele>343.378</ele>
        <time>2019-09-24T11:49:13.001Z</time>
      </trkpt>
      <trkpt lat="48.04673" lon="5.54349">
        <ele>343.179</ele>
        <time>2019-09-24T13:49:16Z</time>
      </trkpt>
      <trkpt lat="48.04657" lon="5.54346">
        <ele>342.617</ele>
        <time>2019-09-24T11:49:19.001Z</time>
      </trkpt>
      <trkpt lat="48.04636" lon="5.5434">
        <ele>341.336</ele>
        <time>2019-09-24T11:49:22.001Z</time>
      </trkpt>
      <trkpt lat="48.04613" lon="5.54326">
        <ele>340.118</ele>
        <time>2019-09-24T11:49:25.001Z</time>
      </trkpt>
      <trkpt lat="48.0459" lon="5.54308">
        <ele>337.45</ele>
        <time>2019-09-24T11:49:28.001Z</time>
      </trkpt>
      <trkpt lat="48.04565" lon="5.54285">
        <ele>334.804</ele>
        <time>2019-09-24T11:49:31.001Z</time>
      </trkpt>
      <trkpt lat="48.0454" lon="5.54261">
        <ele>332.789</ele>
        <time>2019-09-24T11:49:34.001Z</time>
      </trkpt>
      <trkpt lat="48.04514" lon="5.54237">
        <ele>331.006</ele>
        <time>2019-09-24T11:49:37.001Z</time>
      </trkpt>
      <trkpt lat="48.0449" lon="5.54215">
        <ele>329.629</ele>
        <time>2019-09-24T11:49:40.001Z</time>
      </trkpt>
      <trkpt lat="48.04467" lon="5.54197">
        <ele>328.657</ele>
        <time>2019-09-24T11:49:43.001Z</time>
      </trkpt>
      <trkpt lat="48.04447" lon="5.54181">
        <ele>328.008</ele>
        <time>2019-09-24T11:49:46.001Z</time>
      </trkpt>
      <trkpt lat="48.04429" lon="5.5417">
        <ele>327.448</ele>
        <time>2019-09-24T11:49:49.001Z</time>
      </trkpt>
      <trkpt lat="48.04411" lon="5.54161">
        <ele>327.309</ele>
        <time>2019-09-24T11:49:52.001Z</time>
      </trkpt>
      <trkpt lat="48.04395" lon="5.54153">
        <ele>326.761</ele>
        <time>2019-09-24T11:49:55.001Z</time>
      </trkpt>
      <trkpt lat="48.0438" lon="5.54146">
        <ele>326.445</ele>
        <time>2019-09-24T11:49:58.001Z</time>
      </trkpt>
      <trkpt lat="48.04366" lon="5.54138">
        <ele>325.748</ele>
        <time>2019-09-24T11:50:01.001Z</time>
      </trkpt>
      <trkpt lat="48.04354" lon="5.54127">
        <ele>325.106</ele>
        <time>2019-09-24T11:50:04.001Z</time>
      </trkpt>
      <trkpt lat="48.04343" lon="5.54114">
        <ele>324.879</ele>
        <time>2019-09-24T11:50:07.001Z</time>
      </trkpt>
      <trkpt lat="48.04334" lon="5.54101">
        <ele>325.003</ele>
        <time>2019-09-24T11:50:10.001Z</time>
      </trkpt>
      <trkpt lat="48.04323" lon="5.54091">
        <ele>325.089</ele>
        <time>2019-09-24T11:50:13.001Z</time>
      </trkpt>
      <trkpt lat="48.04312" lon="5.54084">
        <ele>325.72</ele>
        <time>2019-09-24T13:50:16Z</time>
      </trkpt>
      <trkpt lat="48.043" lon="5.54081">
        <ele>326.212</ele>
        <time>2019-09-24T11:50:19.001Z</time>
      </trkpt>
      <trkpt lat="48.04288" lon="5.54081">
        <ele>326.587</ele>
        <time>2019-09-24T11:50:22.001Z</time>
      </trkpt>
      <trkpt lat="48.04277" lon="5.54083">
        <ele>326.649</ele>
        <time>2019-09-24T11:50:25.001Z</time>
      </trkpt>
      <trkpt lat="48.04266" lon="5.54086">
        <ele>327.286</ele>
        <time>2019-09-24T11:50:28.001Z</time>
      </trkpt>
      <trkpt lat="48.04254" lon="5.54088">
        <ele>327.276</ele>
        <time>2019-09-24T11:50:31.001Z</time>
      </trkpt>
      <trkpt lat="48.04243" lon="5.54091">
        <ele>327.907</ele>
        <time>2019-09-24T11:50:34.001Z</time>
      </trkpt>
      <trkpt lat="48.04232" lon="5.54094">
        <ele>328.014</ele>
        <time>2019-09-24T11:50:37.001Z</time>
      </trkpt>
      <trkpt lat="48.04221" lon="5.54097">
        <ele>327.926</ele>
        <time>2019-09-24T11:50:40.001Z</time>
      </trkpt>
      <trkpt lat="48.0421" lon="5.54102">
        <ele>328.328</ele>
        <time>2019-09-24T11:50:43.001Z</time>
      </trkpt>
      <trkpt lat="48.04198" lon="5.54106">
        <ele>328.017</ele>
        <time>2019-09-24T11:50:46.001Z</time>
      </trkpt>
      <trkpt lat="48.04186" lon="5.54109">
        <ele>327.837</ele>
        <time>2019-09-24T11:50:49.001Z</time>
      </trkpt>
      <trkpt lat="48.04175" lon="5.54114">
        <ele>327.939</ele>
        <time>2019-09-24T11:50:52.001Z</time>
      </trkpt>
      <trkpt lat="48.04164" lon="5.54117">
        <ele>328.045</ele>
        <time>2019-09-24T11:50:55.001Z</time>
      </trkpt>
      <trkpt lat="48.04153" lon="5.5412">
        <ele>328.119</ele>
        <time>2019-09-24T11:50:58.001Z</time>
      </trkpt>
      <trkpt lat="48.0414" lon="5.54125">
        <ele>328.277</ele>
        <time>2019-09-24T11:51:01.001Z</time>
      </trkpt>
      <trkpt lat="48.04128" lon="5.54131">
        <ele>328.508</ele>
        <time>2019-09-24T11:51:04.001Z</time>
      </trkpt>
      <trkpt lat="48.04116" lon="5.54139">
        <ele>328.624</ele>
        <time>2019-09-24T11:51:07.001Z</time>
      </trkpt>
      <trkpt lat="48.04105" lon="5.5415">
        <ele>328.4</ele>
        <time>2019-09-24T11:51:10.001Z</time>
      </trkpt>
      <trkpt lat="48.04094" lon="5.54166">
        <ele>328.054</ele>
        <time>2019-09-24T11:51:13.001Z</time>
      </trkpt>
      <trkpt lat="48.04084" lon="5.54182">
        <ele>327.799</ele>
        <time>2019-09-24T11:51:16.002Z</time>
      </trkpt>
      <trkpt lat="48.04075" lon="5.54196">
        <ele>327.803</ele>
        <time>2019-09-24T11:51:19.001Z</time>
      </trkpt>
      <trkpt lat="48.04066" lon="5.5421">
        <ele>327.716</ele>
        <time>2019-09-24T11:51:22.001Z</time>
      </trkpt>
      <trkpt lat="48.04058" lon="5.54224">
        <ele>327.7</ele>
        <time>2019-09-24T11:51:25.001Z</time>
      </trkpt>
      <trkpt lat="48.04049" lon="5.54239">
        <ele>327.732</ele>
        <time>2019-09-24T11:51:28.001Z</time>
      </trkpt>
      <trkpt lat="48.04039" lon="5.54252">
        <ele>327.676</ele>
        <time>2019-09-24T11:51:31.001Z</time>
      </trkpt>
      <trkpt lat="48.04029" lon="5.54264">
        <ele>327.651</ele>
        <time>2019-09-24T11:51:34.001Z</time>
      </trkpt>
      <trkpt lat="48.04019" lon="5.54275">
        <ele>327.794</ele>
        <time>2019-09-24T11:51:37.001Z</time>
      </trkpt>
      <trkpt lat="48.04008" lon="5.54283">
        <ele>327.797</ele>
        <time>2019-09-24T11:51:40.001Z</time>
      </trkpt>
      <trkpt lat="48.03997" lon="5.54291">
        <ele>328.313</ele>
        <time>2019-09-24T11:51:43.001Z</time>
      </trkpt>
      <trkpt lat="48.03986" lon="5.54299">
        <ele>328.538</ele>
        <time>2019-09-24T11:51:46.001Z</time>
      </trkpt>
      <trkpt lat="48.03974" lon="5.54308">
        <ele>328.521</ele>
        <time>2019-09-24T11:51:49.001Z</time>
      </trkpt>
      <trkpt lat="48.03964" lon="5.54316">
        <ele>328.45</ele>
        <time>2019-09-24T11:51:52.001Z</time>
      </trkpt>
      <trkpt lat="48.03953" lon="5.54324">
        <ele>328.337</ele>
        <time>2019-09-24T11:51:55.001Z</time>
      </trkpt>
      <trkpt lat="48.03942" lon="5.54333">
        <ele>328.561</ele>
        <time>2019-09-24T11:51:58.001Z</time>
      </trkpt>
      <trkpt lat="48.03932" lon="5.54342">
        <ele>329.047</ele>
        <time>2019-09-24T11:52:01.001Z</time>
      </trkpt>
      <trkpt lat="48.03922" lon="5.54352">
        <ele>329.195</ele>
        <time>2019-09-24T11:52:04.001Z</time>
      </trkpt>
      <trkpt lat="48.0391" lon="5.54362">
        <ele>329.421</ele>
        <time>2019-09-24T11:52:07.001Z</time>
      </trkpt>
      <trkpt lat="48.039" lon="5.54372">
        <ele>329.752</ele>
        <time>2019-09-24T11:52:10.001Z</time>
      </trkpt>
      <trkpt lat="48.03889" lon="5.54381">
        <ele>330.162</ele>
        <time>2019-09-24T11:52:13.001Z</time>
      </trkpt>
      <trkpt lat="48.03878" lon="5.54389">
        <ele>330.821</ele>
        <time>2019-09-24T13:52:16Z</time>
      </trkpt>
      <trkpt lat="48.03866" lon="5.544">
        <ele>331.139</ele>
        <time>2019-09-24T11:52:19.001Z</time>
      </trkpt>
      <trkpt lat="48.03855" lon="5.5441">
        <ele>331.358</ele>
        <time>2019-09-24T11:52:22.001Z</time>
      </trkpt>
      <trkpt lat="48.03844" lon="5.5442">
        <ele>331.599</ele>
        <time>2019-09-24T11:52:25.001Z</time>
      </trkpt>
      <trkpt lat="48.03834" lon="5.54428">
        <ele>331.479</ele>
        <time>2019-09-24T11:52:28.001Z</time>
      </trkpt>
      <trkpt lat="48.03824" lon="5.54436">
        <ele>331.567</ele>
        <time>2019-09-24T11:52:31.001Z</time>
      </trkpt>
      <trkpt lat="48.03813" lon="5.54443">
        <ele>331.051</ele>
        <time>2019-09-24T11:52:34.001Z</time>
      </trkpt>
      <trkpt lat="48.038" lon="5.54452">
        <ele>331.167</ele>
        <time>2019-09-24T11:52:37.001Z</time>
      </trkpt>
      <trkpt lat="48.03787" lon="5.54459">
        <ele>331.147</ele>
        <time>2019-09-24T11:52:40.001Z</time>
      </trkpt>
      <trkpt lat="48.03775" lon="5.54463">
        <ele>331.125</ele>
        <time>2019-09-24T11:52:43.001Z</time>
      </trkpt>
      <trkpt lat="48.03763" lon="5.54464">
        <ele>330.899</ele>
        <time>2019-09-24T11:52:46.001Z</time>
      </trkpt>
      <trkpt lat="48.0375" lon="5.54462">
        <ele>330.501</ele>
        <time>2019-09-24T11:52:49.001Z</time>
      </trkpt>
      <trkpt lat="48.03738" lon="5.54459">
        <ele>329.831</ele>
        <time>2019-09-24T11:52:52.001Z</time>
      </trkpt>
      <trkpt lat="48.03726" lon="5.54455">
        <ele>329.611</ele>
        <time>2019-09-24T11:52:55.001Z</time>
      </trkpt>
      <trkpt lat="48.03714" lon="5.5445">
        <ele>329.435</ele>
        <time>2019-09-24T11:52:58.001Z</time>
      </trkpt>
      <trkpt lat="48.03702" lon="5.54444">
        <ele>329.58</ele>
        <time>2019-09-24T11:53:01.001Z</time>
      </trkpt>
      <trkpt lat="48.03691" lon="5.54437">
        <ele>329.581</ele>
        <time>2019-09-24T11:53:04.001Z</time>
      </trkpt>
      <trkpt lat="48.0368" lon="5.5443">
        <ele>329.545</ele>
        <time>2019-09-24T11:53:07.001Z</time>
      </trkpt>
      <trkpt lat="48.03669" lon="5.54424">
        <ele>329.922</ele>
        <time>2019-09-24T11:53:10.001Z</time>
      </trkpt>
      <trkpt lat="48.03658" lon="5.54418">
        <ele>330.038</ele>
        <time>2019-09-24T11:53:13.001Z</time>
      </trkpt>
      <trkpt lat="48.03648" lon="5.54412">
        <ele>330.26</ele>
        <time>2019-09-24T13:53:16Z</time>
      </trkpt>
      <trkpt lat="48.03637" lon="5.54407">
        <ele>330.437</ele>
        <time>2019-09-24T11:53:19.001Z</time>
      </trkpt>
      <trkpt lat="48.03625" lon="5.54403">
        <ele>330.544</ele>
        <time>2019-09-24T11:53:22.001Z</time>
      </trkpt>
      <trkpt lat="48.03613" lon="5.54401">
        <ele>330.609</ele>
        <time>2019-09-24T11:53:25.001Z</time>
      </trkpt>
      <trkpt lat="48.03601" lon="5.54399">
        <ele>330.916</ele>
        <time>2019-09-24T11:53:28.001Z</time>
      </trkpt>
      <trkpt lat="48.03589" lon="5.54398">
        <ele>331.398</ele>
        <time>2019-09-24T11:53:31.001Z</time>
      </trkpt>
      <trkpt lat="48.03578" lon="5.54397">
        <ele>331.899</ele>
        <time>2019-09-24T11:53:34.001Z</time>
      </trkpt>
      <trkpt lat="48.03568" lon="5.54397">
        <ele>332.133</ele>
        <time>2019-09-24T11:53:37.001Z</time>
      </trkpt>
      <trkpt lat="48.03559" lon="5.54397">
        <ele>332.915</ele>
        <time>2019-09-24T11:53:40.001Z</time>
      </trkpt>
      <trkpt lat="48.0355" lon="5.54398">
        <ele>333.35</ele>
        <time>2019-09-24T11:53:43.001Z</time>
      </trkpt>
      <trkpt lat="48.0354" lon="5.54399">
        <ele>333.849</ele>
        <time>2019-09-24T11:53:46.001Z</time>
      </trkpt>
      <trkpt lat="48.03529" lon="5.544">
        <ele>334.074</ele>
        <time>2019-09-24T11:53:49.001Z</time>
      </trkpt>
      <trkpt lat="48.03518" lon="5.54401">
        <ele>334.156</ele>
        <time>2019-09-24T11:53:52.001Z</time>
      </trkpt>
      <trkpt lat="48.03507" lon="5.54401">
        <ele>334.164</ele>
        <time>2019-09-24T11:53:55.001Z</time>
      </trkpt>
      <trkpt lat="48.03497" lon="5.54402">
        <ele>333.926</ele>
        <time>2019-09-24T11:53:58.001Z</time>
      </trkpt>
      <trkpt lat="48.03487" lon="5.54403">
        <ele>334.077</ele>
        <time>2019-09-24T11:54:01.001Z</time>
      </trkpt>
      <trkpt lat="48.03476" lon="5.54403">
        <ele>334.27</ele>
        <time>2019-09-24T11:54:04.001Z</time>
      </trkpt>
      <trkpt lat="48.03466" lon="5.54404">
        <ele>334.366</ele>
        <time>2019-09-24T11:54:07.001Z</time>
      </trkpt>
      <trkpt lat="48.03456" lon="5.54404">
        <ele>334.139</ele>
        <time>2019-09-24T11:54:10.001Z</time>
      </trkpt>
      <trkpt lat="48.03445" lon="5.54405">
        <ele>334.178</ele>
        <time>2019-09-24T11:54:13.001Z</time>
      </trkpt>
      <trkpt lat="48.03434" lon="5.54406">
        <ele>334.824</ele>
        <time>2019-09-24T13:54:16Z</time>
      </trkpt>
      <trkpt lat="48.03423" lon="5.54407">
        <ele>335.536</ele>
        <time>2019-09-24T11:54:19.001Z</time>
      </trkpt>
      <trkpt lat="48.03411" lon="5.54407">
        <ele>335.673</ele>
        <time>2019-09-24T11:54:22.001Z</time>
      </trkpt>
      <trkpt lat="48.034" lon="5.54406">
        <ele>336.37</ele>
        <time>2019-09-24T11:54:25.001Z</time>
      </trkpt>
      <trkpt lat="48.03389" lon="5.54406">
        <ele>336.561</ele>
        <time>2019-09-24T11:54:28.001Z</time>
      </trkpt>
      <trkpt lat="48.03377" lon="5.54405">
        <ele>336.356</ele>
        <time>2019-09-24T11:54:31.001Z</time>
      </trkpt>
      <trkpt lat="48.03366" lon="5.54405">
        <ele>336.459</ele>
        <time>2019-09-24T11:54:34.001Z</time>
      </trkpt>
      <trkpt lat="48.03356" lon="5.54405">
        <ele>336.659</ele>
        <time>2019-09-24T11:54:37.001Z</time>
      </trkpt>
      <trkpt lat="48.03345" lon="5.54403">
        <ele>336.497</ele>
        <time>2019-09-24T11:54:40.001Z</time>
      </trkpt>
      <trkpt lat="48.03333" lon="5.54402">
        <ele>336.924</ele>
        <time>2019-09-24T11:54:43.001Z</time>
      </trkpt>
      <trkpt lat="48.03323" lon="5.54401">
        <ele>337.399</ele>
        <time>2019-09-24T11:54:46.001Z</time>
      </trkpt>
      <trkpt lat="48.03313" lon="5.54398">
        <ele>337.817</ele>
        <time>2019-09-24T11:54:49.001Z</time>
      </trkpt>
      <trkpt lat="48.03303" lon="5.54396">
        <ele>337.708</ele>
        <time>2019-09-24T11:54:52.001Z</time>
      </trkpt>
      <trkpt lat="48.03293" lon="5.54394">
        <ele>337.263</ele>
        <time>2019-09-24T11:54:55.001Z</time>
      </trkpt>
      <trkpt lat="48.03282" lon="5.54392">
        <ele>336.753</ele>
        <time>2019-09-24T11:54:58.001Z</time>
      </trkpt>
      <trkpt lat="48.03272" lon="5.54388">
        <ele>336.19</ele>
        <time>2019-09-24T11:55:01.001Z</time>
      </trkpt>
      <trkpt lat="48.03262" lon="5.54384">
        <ele>335.746</ele>
        <time>2019-09-24T11:55:04.001Z</time>
      </trkpt>
      <trkpt lat="48.03253" lon="5.5438">
        <ele>335.313</ele>
        <time>2019-09-24T11:55:07.001Z</time>
      </trkpt>
      <trkpt lat="48.03243" lon="5.54376">
        <ele>335.294</ele>
        <time>2019-09-24T11:55:10.001Z</time>
      </trkpt>
      <trkpt lat="48.03234" lon="5.54374">
        <ele>335.804</ele>
        <time>2019-09-24T11:55:13.001Z</time>
      </trkpt>
      <trkpt lat="48.03225" lon="5.5437">
        <ele>336.221</ele>
        <time>2019-09-24T13:55:16Z</time>
      </trkpt>
      <trkpt lat="48.03216" lon="5.54366">
        <ele>336.309</ele>
        <time>2019-09-24T11:55:19.001Z</time>
      </trkpt>
      <trkpt lat="48.03207" lon="5.54363">
        <ele>336.477</ele>
        <time>2019-09-24T11:55:22.001Z</time>
      </trkpt>
      <trkpt lat="48.03198" lon="5.5436">
        <ele>336.735</ele>
        <time>2019-09-24T11:55:25.001Z</time>
      </trkpt>
      <trkpt lat="48.0319" lon="5.54358">
        <ele>336.682</ele>
        <time>2019-09-24T11:55:28.001Z</time>
      </trkpt>
      <trkpt lat="48.03181" lon="5.54356">
        <ele>336.655</ele>
        <time>2019-09-24T11:55:31.001Z</time>
      </trkpt>
      <trkpt lat="48.03172" lon="5.54355">
        <ele>336.917</ele>
        <time>2019-09-24T11:55:34.001Z</time>
      </trkpt>
      <trkpt lat="48.03162" lon="5.54355">
        <ele>336.849</ele>
        <time>2019-09-24T11:55:37.001Z</time>
      </trkpt>
      <trkpt lat="48.03153" lon="5.54354">
        <ele>336.609</ele>
        <time>2019-09-24T11:55:40.001Z</time>
      </trkpt>
      <trkpt lat="48.03145" lon="5.54355">
        <ele>336.412</ele>
        <time>2019-09-24T11:55:43.001Z</time>
      </trkpt>
      <trkpt lat="48.03135" lon="5.54356">
        <ele>336.526</ele>
        <time>2019-09-24T11:55:46.001Z</time>
      </trkpt>
      <trkpt lat="48.03126" lon="5.5436">
        <ele>336.558</ele>
        <time>2019-09-24T11:55:49.001Z</time>
      </trkpt>
      <trkpt lat="48.03117" lon="5.54362">
        <ele>336.752</ele>
        <time>2019-09-24T11:55:52.001Z</time>
      </trkpt>
      <trkpt lat="48.03108" lon="5.54364">
        <ele>336.696</ele>
        <time>2019-09-24T11:55:55.001Z</time>
      </trkpt>
      <trkpt lat="48.03098" lon="5.54367">
        <ele>336.704</ele>
        <time>2019-09-24T11:55:58.001Z</time>
      </trkpt>
      <trkpt lat="48.03089" lon="5.54371">
        <ele>336.995</ele>
        <time>2019-09-24T11:56:01.001Z</time>
      </trkpt>
      <trkpt lat="48.0308" lon="5.54374">
        <ele>337.352</ele>
        <time>2019-09-24T11:56:04.001Z</time>
      </trkpt>
      <trkpt lat="48.0307" lon="5.54377">
        <ele>337.289</ele>
        <time>2019-09-24T11:56:07.001Z</time>
      </trkpt>
      <trkpt lat="48.03061" lon="5.54381">
        <ele>337.382</ele>
        <time>2019-09-24T11:56:10.001Z</time>
      </trkpt>
      <trkpt lat="48.03051" lon="5.54384">
        <ele>337.18</ele>
        <time>2019-09-24T11:56:13.001Z</time>
      </trkpt>
      <trkpt lat="48.0304" lon="5.54388">
        <ele>337.072</ele>
        <time>2019-09-24T13:56:16Z</time>
      </trkpt>
      <trkpt lat="48.03028" lon="5.54391">
        <ele>336.852</ele>
        <time>2019-09-24T11:56:19.001Z</time>
      </trkpt>
      <trkpt lat="48.03015" lon="5.54391">
        <ele>336.111</ele>
        <time>2019-09-24T11:56:22.001Z</time>
      </trkpt>
      <trkpt lat="48.03001" lon="5.5439">
        <ele>335.713</ele>
        <time>2019-09-24T11:56:25.001Z</time>
      </trkpt>
      <trkpt lat="48.02985" lon="5.54385">
        <ele>335.479</ele>
        <time>2019-09-24T11:56:28.001Z</time>
      </trkpt>
      <trkpt lat="48.02971" lon="5.54376">
        <ele>334.898</ele>
        <time>2019-09-24T11:56:31.001Z</time>
      </trkpt>
      <trkpt lat="48.02957" lon="5.54366">
        <ele>334.524</ele>
        <time>2019-09-24T11:56:34.001Z</time>
      </trkpt>
      <trkpt lat="48.02945" lon="5.54355">
        <ele>334.654</ele>
        <time>2019-09-24T11:56:37.001Z</time>
      </trkpt>
      <trkpt lat="48.02932" lon="5.54346">
        <ele>334.583</ele>
        <time>2019-09-24T11:56:40.001Z</time>
      </trkpt>
      <trkpt lat="48.02921" lon="5.54334">
        <ele>334.518</ele>
        <time>2019-09-24T11:56:43.001Z</time>
      </trkpt>
      <trkpt lat="48.0291" lon="5.54318">
        <ele>334.35</ele>
        <time>2019-09-24T11:56:46.001Z</time>
      </trkpt>
      <trkpt lat="48.02901" lon="5.54298">
        <ele>333.906</ele>
        <time>2019-09-24T11:56:49.001Z</time>
      </trkpt>
      <trkpt lat="48.02894" lon="5.54273">
        <ele>333.119</ele>
        <time>2019-09-24T11:56:52.001Z</time>
      </trkpt>
      <trkpt lat="48.02888" lon="5.54245">
        <ele>332.434</ele>
        <time>2019-09-24T11:56:55.001Z</time>
      </trkpt>
      <trkpt lat="48.02879" lon="5.54217">
        <ele>331.842</ele>
        <time>2019-09-24T11:56:58.001Z</time>
      </trkpt>
      <trkpt lat="48.02864" lon="5.5419">
        <ele>331.145</ele>
        <time>2019-09-24T11:57:01.001Z</time>
      </trkpt>
      <trkpt lat="48.02849" lon="5.54163">
        <ele>330.593</ele>
        <time>2019-09-24T11:57:04.001Z</time>
      </trkpt>
      <trkpt lat="48.02832" lon="5.54139">
        <ele>330.268</ele>
        <time>2019-09-24T11:57:07.001Z</time>
      </trkpt>
      <trkpt lat="48.02816" lon="5.54114">
        <ele>330.539</ele>
        <time>2019-09-24T11:57:10.001Z</time>
      </trkpt>
      <trkpt lat="48.02804" lon="5.54088">
        <ele>331.368</ele>
        <time>2019-09-24T11:57:13.001Z</time>
      </trkpt>
      <trkpt lat="48.02795" lon="5.54065">
        <ele>330.931</ele>
        <time>2019-09-24T13:57:16Z</time>
      </trkpt>
      <trkpt lat="48.0279" lon="5.54046">
        <ele>330.995</ele>
        <time>2019-09-24T11:57:19.001Z</time>
      </trkpt>
      <trkpt lat="48.02783" lon="5.54028">
        <ele>330.887</ele>
        <time>2019-09-24T11:57:22.001Z</time>
      </trkpt>
      <trkpt lat="48.02777" lon="5.5401">
        <ele>330.915</ele>
        <time>2019-09-24T11:57:25.001Z</time>
      </trkpt>
      <trkpt lat="48.02771" lon="5.53992">
        <ele>330.822</ele>
        <time>2019-09-24T11:57:28.001Z</time>
      </trkpt>
      <trkpt lat="48.02764" lon="5.53976">
        <ele>330.324</ele>
        <time>2019-09-24T11:57:31.001Z</time>
      </trkpt>
      <trkpt lat="48.02756" lon="5.5396">
        <ele>329.52</ele>
        <time>2019-09-24T11:57:34.001Z</time>
      </trkpt>
      <trkpt lat="48.02748" lon="5.53945">
        <ele>328.889</ele>
        <time>2019-09-24T11:57:37.001Z</time>
      </trkpt>
      <trkpt lat="48.0274" lon="5.5393">
        <ele>328.887</ele>
        <time>2019-09-24T11:57:40.001Z</time>
      </trkpt>
      <trkpt lat="48.02732" lon="5.53916">
        <ele>328.812</ele>
        <time>2019-09-24T11:57:43.001Z</time>
      </trkpt>
      <trkpt lat="48.02724" lon="5.53902">
        <ele>328.989</ele>
        <time>2019-09-24T11:57:46.001Z</time>
      </trkpt>
      <trkpt lat="48.02715" lon="5.53888">
        <ele>328.787</ele>
        <time>2019-09-24T11:57:49.001Z</time>
      </trkpt>
      <trkpt lat="48.02707" lon="5.53874">
        <ele>328.166</ele>
        <time>2019-09-24T11:57:52.001Z</time>
      </trkpt>
      <trkpt lat="48.02699" lon="5.5386">
        <ele>328.336</ele>
        <time>2019-09-24T11:57:55.001Z</time>
      </trkpt>
      <trkpt lat="48.0269" lon="5.53846">
        <ele>328.459</ele>
        <time>2019-09-24T11:57:58.001Z</time>
      </trkpt>
      <trkpt lat="48.02681" lon="5.53831">
        <ele>328.844</ele>
        <time>2019-09-24T11:58:01.001Z</time>
      </trkpt>
      <trkpt lat="48.02673" lon="5.53818">
        <ele>328.675</ele>
        <time>2019-09-24T11:58:04.001Z</time>
      </trkpt>
      <trkpt lat="48.02664" lon="5.53804">
        <ele>328.985</ele>
        <time>2019-09-24T11:58:07.001Z</time>
      </trkpt>
      <trkpt lat="48.02656" lon="5.53791">
        <ele>329.169</ele>
        <time>2019-09-24T11:58:10.001Z</time>
      </trkpt>
      <trkpt lat="48.02648" lon="5.53777">
        <ele>329.18</ele>
        <time>2019-09-24T11:58:13.001Z</time>
      </trkpt>
      <trkpt lat="48.0264" lon="5.53764">
        <ele>329.178</ele>
        <time>2019-09-24T13:58:16Z</time>
      </trkpt>
      <trkpt lat="48.02631" lon="5.53751">
        <ele>329.117</ele>
        <time>2019-09-24T11:58:19.001Z</time>
      </trkpt>
      <trkpt lat="48.02623" lon="5.53739">
        <ele>329.144</ele>
        <time>2019-09-24T11:58:22.001Z</time>
      </trkpt>
      <trkpt lat="48.02614" lon="5.53727">
        <ele>329.395</ele>
        <time>2019-09-24T11:58:25.001Z</time>
      </trkpt>
      <trkpt lat="48.02605" lon="5.53717">
        <ele>329.37</ele>
        <time>2019-09-24T11:58:28.001Z</time>
      </trkpt>
      <trkpt lat="48.02597" lon="5.53708">
        <ele>329.613</ele>
        <time>2019-09-24T11:58:31.001Z</time>
      </trkpt>
      <trkpt lat="48.02589" lon="5.53698">
        <ele>329.814</ele>
        <time>2019-09-24T11:58:34.001Z</time>
      </trkpt>
      <trkpt lat="48.0258" lon="5.53687">
        <ele>329.867</ele>
        <time>2019-09-24T11:58:37.001Z</time>
      </trkpt>
      <trkpt lat="48.02571" lon="5.53677">
        <ele>329.797</ele>
        <time>2019-09-24T11:58:40.001Z</time>
      </trkpt>
      <trkpt lat="48.02562" lon="5.53666">
        <ele>329.714</ele>
        <time>2019-09-24T11:58:43.001Z</time>
      </trkpt>
      <trkpt lat="48.02552" lon="5.53656">
        <ele>329.694</ele>
        <time>2019-09-24T11:58:46.001Z</time>
      </trkpt>
      <trkpt lat="48.02543" lon="5.53643">
        <ele>329.041</ele>
        <time>2019-09-24T11:58:49.001Z</time>
      </trkpt>
      <trkpt lat="48.02536" lon="5.53621">
        <ele>328.407</ele>
        <time>2019-09-24T11:58:52.001Z</time>
      </trkpt>
      <trkpt lat="48.02537" lon="5.53594">
        <ele>327.439</ele>
        <time>2019-09-24T11:58:55.001Z</time>
      </trkpt>
      <trkpt lat="48.02547" lon="5.53569">
        <ele>327.21</ele>
        <time>2019-09-24T11:58:58.001Z</time>
      </trkpt>
      <trkpt lat="48.02558" lon="5.53553">
        <ele>326.837</ele>
        <time>2019-09-24T11:59:01.001Z</time>
      </trkpt>
      <trkpt lat="48.02568" lon="5.5354">
        <ele>326.503</ele>
        <time>2019-09-24T11:59:04.001Z</time>
      </trkpt>
      <trkpt lat="48.02577" lon="5.53525">
        <ele>325.514</ele>
        <time>2019-09-24T11:59:07.001Z</time>
      </trkpt>
      <trkpt lat="48.02584" lon="5.53506">
        <ele>324.996</ele>
        <time>2019-09-24T11:59:10.001Z</time>
      </trkpt>
      <trkpt lat="48.02587" lon="5.53484">
        <ele>324.656</ele>
        <time>2019-09-24T11:59:13.001Z</time>
      </trkpt>
      <trkpt lat="48.02589" lon="5.53461">
        <ele>324.685</ele>
        <time>2019-09-24T13:59:16Z</time>
      </trkpt>
      <trkpt lat="48.02589" lon="5.53438">
        <ele>324.88</ele>
        <time>2019-09-24T11:59:19.001Z</time>
      </trkpt>
      <trkpt lat="48.02589" lon="5.53418">
        <ele>325.071</ele>
        <time>2019-09-24T11:59:22.001Z</time>
      </trkpt>
      <trkpt lat="48.02589" lon="5.53401">
        <ele>325.161</ele>
        <time>2019-09-24T11:59:25.001Z</time>
      </trkpt>
      <trkpt lat="48.02588" lon="5.53385">
        <ele>325.439</ele>
        <time>2019-09-24T11:59:28.001Z</time>
      </trkpt>
      <trkpt lat="48.02587" lon="5.53369">
        <ele>325.785</ele>
        <time>2019-09-24T11:59:31.001Z</time>
      </trkpt>
      <trkpt lat="48.02586" lon="5.53354">
        <ele>326.636</ele>
        <time>2019-09-24T11:59:34.001Z</time>
      </trkpt>
      <trkpt lat="48.02586" lon="5.5334">
        <ele>327.474</ele>
        <time>2019-09-24T11:59:37.001Z</time>
      </trkpt>
      <trkpt lat="48.02585" lon="5.53327">
        <ele>327.959</ele>
        <time>2019-09-24T11:59:40.001Z</time>
      </trkpt>
      <trkpt lat="48.02584" lon="5.53313">
        <ele>328.441</ele>
        <time>2019-09-24T11:59:43.001Z</time>
      </trkpt>
      <trkpt lat="48.02583" lon="5.53299">
        <ele>328.837</ele>
        <time>2019-09-24T11:59:46.001Z</time>
      </trkpt>
      <trkpt lat="48.02581" lon="5.53284">
        <ele>329.582</ele>
        <time>2019-09-24T11:59:49.001Z</time>
      </trkpt>
      <trkpt lat="48.02579" lon="5.5327">
        <ele>330.139</ele>
        <time>2019-09-24T11:59:52.001Z</time>
      </trkpt>
      <trkpt lat="48.02576" lon="5.53256">
        <ele>330.974</ele>
        <time>2019-09-24T11:59:55.001Z</time>
      </trkpt>
      <trkpt lat="48.02572" lon="5.53243">
        <ele>331.38</ele>
        <time>2019-09-24T11:59:58.001Z</time>
      </trkpt>
      <trkpt lat="48.02568" lon="5.53228">
        <ele>331.807</ele>
        <time>2019-09-24T12:00:01.001Z</time>
      </trkpt>
      <trkpt lat="48.02563" lon="5.53212">
        <ele>332.585</ele>
        <time>2019-09-24T12:00:04.001Z</time>
      </trkpt>
      <trkpt lat="48.02559" lon="5.53196">
        <ele>332.752</ele>
        <time>2019-09-24T12:00:07.001Z</time>
      </trkpt>
      <trkpt lat="48.02555" lon="5.53178">
        <ele>332.452</ele>
        <time>2019-09-24T12:00:10.001Z</time>
      </trkpt>
      <trkpt lat="48.02552" lon="5.53157">
        <ele>332.234</ele>
        <time>2019-09-24T12:00:13.001Z</time>
      </trkpt>
      <trkpt lat="48.02551" lon="5.53136">
        <ele>332.08</ele>
        <time>2019-09-24T14:00:16Z</time>
      </trkpt>
      <trkpt lat="48.02551" lon="5.53112">
        <ele>331.714</ele>
        <time>2019-09-24T12:00:19.001Z</time>
      </trkpt>
      <trkpt lat="48.02551" lon="5.53088">
        <ele>330.716</ele>
        <time>2019-09-24T12:00:22.001Z</time>
      </trkpt>
      <trkpt lat="48.02549" lon="5.53067">
        <ele>329.714</ele>
        <time>2019-09-24T12:00:25.001Z</time>
      </trkpt>
      <trkpt lat="48.02543" lon="5.53045">
        <ele>329.416</ele>
        <time>2019-09-24T12:00:28.001Z</time>
      </trkpt>
      <trkpt lat="48.02537" lon="5.53024">
        <ele>329.356</ele>
        <time>2019-09-24T12:00:31.001Z</time>
      </trkpt>
      <trkpt lat="48.02531" lon="5.53003">
        <ele>329.094</ele>
        <time>2019-09-24T12:00:34.001Z</time>
      </trkpt>
      <trkpt lat="48.02524" lon="5.52983">
        <ele>328.738</ele>
        <time>2019-09-24T12:00:37.001Z</time>
      </trkpt>
      <trkpt lat="48.02517" lon="5.52964">
        <ele>328.496</ele>
        <time>2019-09-24T12:00:40.001Z</time>
      </trkpt>
      <trkpt lat="48.02511" lon="5.52945">
        <ele>328.196</ele>
        <time>2019-09-24T12:00:43.001Z</time>
      </trkpt>
      <trkpt lat="48.02504" lon="5.52927">
        <ele>328.315</ele>
        <time>2019-09-24T12:00:46.001Z</time>
      </trkpt>
      <trkpt lat="48.02497" lon="5.5291">
        <ele>329.164</ele>
        <time>2019-09-24T12:00:49.001Z</time>
      </trkpt>
      <trkpt lat="48.02489" lon="5.52895">
        <ele>329.85</ele>
        <time>2019-09-24T12:00:52.001Z</time>
      </trkpt>
      <trkpt lat="48.0248" lon="5.52882">
        <ele>330.446</ele>
        <time>2019-09-24T12:00:55.001Z</time>
      </trkpt>
      <trkpt lat="48.0247" lon="5.52871">
        <ele>331.022</ele>
        <time>2019-09-24T12:00:58.001Z</time>
      </trkpt>
      <trkpt lat="48.0246" lon="5.5286">
        <ele>331.357</ele>
        <time>2019-09-24T12:01:01.001Z</time>
      </trkpt>
      <trkpt lat="48.0245" lon="5.52851">
        <ele>331.816</ele>
        <time>2019-09-24T12:01:04.001Z</time>
      </trkpt>
      <trkpt lat="48.02439" lon="5.52841">
        <ele>331.718</ele>
        <time>2019-09-24T12:01:07.001Z</time>
      </trkpt>
      <trkpt lat="48.02428" lon="5.52831">
        <ele>331.723</ele>
        <time>2019-09-24T12:01:10.001Z</time>
      </trkpt>
      <trkpt lat="48.02418" lon="5.52821">
        <ele>331.718</ele>
        <time>2019-09-24T12:01:13.001Z</time>
      </trkpt>
      <trkpt lat="48.02408" lon="5.52813">
        <ele>331.596</ele>
        <time>2019-09-24T14:01:16Z</time>
      </trkpt>
      <trkpt lat="48.02399" lon="5.52804">
        <ele>331.949</ele>
        <time>2019-09-24T12:01:19.001Z</time>
      </trkpt>
      <trkpt lat="48.02389" lon="5.52797">
        <ele>332.521</ele>
        <time>2019-09-24T12:01:22.001Z</time>
      </trkpt>
      <trkpt lat="48.0238" lon="5.52788">
        <ele>333.02</ele>
        <time>2019-09-24T12:01:25.001Z</time>
      </trkpt>
      <trkpt lat="48.02371" lon="5.52779">
        <ele>333.172</ele>
        <time>2019-09-24T12:01:28.001Z</time>
      </trkpt>
      <trkpt lat="48.02361" lon="5.52769">
        <ele>333.478</ele>
        <time>2019-09-24T12:01:31.001Z</time>
      </trkpt>
      <trkpt lat="48.02352" lon="5.52759">
        <ele>333.258</ele>
        <time>2019-09-24T12:01:34.001Z</time>
      </trkpt>
      <trkpt lat="48.02343" lon="5.5275">
        <ele>333.365</ele>
        <time>2019-09-24T12:01:37.001Z</time>
      </trkpt>
      <trkpt lat="48.02334" lon="5.5274">
        <ele>333.331</ele>
        <time>2019-09-24T12:01:40.001Z</time>
      </trkpt>
      <trkpt lat="48.02325" lon="5.5273">
        <ele>333.31</ele>
        <time>2019-09-24T12:01:43.001Z</time>
      </trkpt>
      <trkpt lat="48.02317" lon="5.52721">
        <ele>333.29</ele>
        <time>2019-09-24T12:01:46.001Z</time>
      </trkpt>
      <trkpt lat="48.02308" lon="5.52711">
        <ele>333.22</ele>
        <time>2019-09-24T12:01:49.001Z</time>
      </trkpt>
      <trkpt lat="48.02299" lon="5.527">
        <ele>333.482</ele>
        <time>2019-09-24T12:01:52.001Z</time>
      </trkpt>
      <trkpt lat="48.02289" lon="5.52688">
        <ele>333.619</ele>
        <time>2019-09-24T12:01:55.001Z</time>
      </trkpt>
      <trkpt lat="48.02278" lon="5.52676">
        <ele>333.494</ele>
        <time>2019-09-24T12:01:58.001Z</time>
      </trkpt>
      <trkpt lat="48.02268" lon="5.52664">
        <ele>333.868</ele>
        <time>2019-09-24T12:02:01.001Z</time>
      </trkpt>
      <trkpt lat="48.02258" lon="5.52651">
        <ele>333.65</ele>
        <time>2019-09-24T12:02:04.001Z</time>
      </trkpt>
      <trkpt lat="48.02249" lon="5.52638">
        <ele>333.608</ele>
        <time>2019-09-24T12:02:07.001Z</time>
      </trkpt>
      <trkpt lat="48.0224" lon="5.52624">
        <ele>333.397</ele>
        <time>2019-09-24T12:02:10.001Z</time>
      </trkpt>
      <trkpt lat="48.02232" lon="5.5261">
        <ele>333.518</ele>
        <time>2019-09-24T12:02:13.001Z</time>
      </trkpt>
      <trkpt lat="48.02225" lon="5.52596">
        <ele>333.312</ele>
        <time>2019-09-24T14:02:16Z</time>
      </trkpt>
      <trkpt lat="48.0222" lon="5.52582">
        <ele>333.266</ele>
        <time>2019-09-24T12:02:19.001Z</time>
      </trkpt>
      <trkpt lat="48.02215" lon="5.52569">
        <ele>333.499</ele>
        <time>2019-09-24T12:02:22.001Z</time>
      </trkpt>
      <trkpt lat="48.02209" lon="5.52557">
        <ele>333.615</ele>
        <time>2019-09-24T12:02:25.001Z</time>
      </trkpt>
      <trkpt lat="48.02204" lon="5.52545">
        <ele>333.86</ele>
        <time>2019-09-24T12:02:28.001Z</time>
      </trkpt>
      <trkpt lat="48.02197" lon="5.52534">
        <ele>333.995</ele>
        <time>2019-09-24T12:02:31.001Z</time>
      </trkpt>
      <trkpt lat="48.0219" lon="5.52524">
        <ele>334.165</ele>
        <time>2019-09-24T12:02:34.001Z</time>
      </trkpt>
      <trkpt lat="48.02182" lon="5.52514">
        <ele>334.695</ele>
        <time>2019-09-24T12:02:37.001Z</time>
      </trkpt>
      <trkpt lat="48.02174" lon="5.52504">
        <ele>335.252</ele>
        <time>2019-09-24T12:02:40.001Z</time>
      </trkpt>
      <trkpt lat="48.02166" lon="5.52494">
        <ele>335.623</ele>
        <time>2019-09-24T12:02:43.001Z</time>
      </trkpt>
      <trkpt lat="48.02156" lon="5.52485">
        <ele>335.627</ele>
        <time>2019-09-24T12:02:46.001Z</time>
      </trkpt>
      <trkpt lat="48.02147" lon="5.52476">
        <ele>335.624</ele>
        <time>2019-09-24T12:02:49.001Z</time>
      </trkpt>
      <trkpt lat="48.02138" lon="5.52466">
        <ele>335.569</ele>
        <time>2019-09-24T12:02:52.001Z</time>
      </trkpt>
      <trkpt lat="48.02129" lon="5.52456">
        <ele>335.503</ele>
        <time>2019-09-24T12:02:55.001Z</time>
      </trkpt>
      <trkpt lat="48.02121" lon="5.52444">
        <ele>335.592</ele>
        <time>2019-09-24T12:02:58.001Z</time>
      </trkpt>
      <trkpt lat="48.02114" lon="5.52431">
        <ele>335.723</ele>
        <time>2019-09-24T12:03:01.001Z</time>
      </trkpt>
      <trkpt lat="48.02105" lon="5.52417">
        <ele>335.599</ele>
        <time>2019-09-24T12:03:04.001Z</time>
      </trkpt>
      <trkpt lat="48.02097" lon="5.52403">
        <ele>335.342</ele>
        <time>2019-09-24T12:03:07.001Z</time>
      </trkpt>
      <trkpt lat="48.02089" lon="5.52388">
        <ele>335.06</ele>
        <time>2019-09-24T12:03:10.001Z</time>
      </trkpt>
      <trkpt lat="48.02081" lon="5.52371">
        <ele>334.949</ele>
        <time>2019-09-24T12:03:13.001Z</time>
      </trkpt>
      <trkpt lat="48.02073" lon="5.52353">
        <ele>334.54</ele>
        <time>2019-09-24T14:03:16Z</time>
      </trkpt>
      <trkpt lat="48.02065" lon="5.52336">
        <ele>334.264</ele>
        <time>2019-09-24T12:03:19.001Z</time>
      </trkpt>
      <trkpt lat="48.02057" lon="5.52319">
        <ele>333.994</ele>
        <time>2019-09-24T12:03:22.001Z</time>
      </trkpt>
      <trkpt lat="48.02049" lon="5.52301">
        <ele>333.735</ele>
        <time>2019-09-24T12:03:25.001Z</time>
      </trkpt>
      <trkpt lat="48.0204" lon="5.52284">
        <ele>333.521</ele>
        <time>2019-09-24T12:03:28.001Z</time>
      </trkpt>
      <trkpt lat="48.02032" lon="5.52268">
        <ele>332.955</ele>
        <time>2019-09-24T12:03:31.001Z</time>
      </trkpt>
      <trkpt lat="48.02024" lon="5.5225">
        <ele>332.526</ele>
        <time>2019-09-24T12:03:34.001Z</time>
      </trkpt>
      <trkpt lat="48.02014" lon="5.52231">
        <ele>332.143</ele>
        <time>2019-09-24T12:03:37.001Z</time>
      </trkpt>
      <trkpt lat="48.02002" lon="5.52215">
        <ele>331.656</ele>
        <time>2019-09-24T12:03:40.001Z</time>
      </trkpt>
      <trkpt lat="48.01987" lon="5.52211">
        <ele>331.64</ele>
        <time>2019-09-24T12:03:43.001Z</time>
      </trkpt>
      <trkpt lat="48.01972" lon="5.52213">
        <ele>331.565</ele>
        <time>2019-09-24T12:03:46.001Z</time>
      </trkpt>
      <trkpt lat="48.01958" lon="5.52214">
        <ele>331.215</ele>
        <time>2019-09-24T12:03:49.001Z</time>
      </trkpt>
      <trkpt lat="48.01944" lon="5.52216">
        <ele>331.129</ele>
        <time>2019-09-24T12:03:52.001Z</time>
      </trkpt>
      <trkpt lat="48.01929" lon="5.52218">
        <ele>331.049</ele>
        <time>2019-09-24T12:03:55.001Z</time>
      </trkpt>
      <trkpt lat="48.01916" lon="5.5222">
        <ele>331.104</ele>
        <time>2019-09-24T12:03:58.001Z</time>
      </trkpt>
      <trkpt lat="48.01903" lon="5.52223">
        <ele>331.096</ele>
        <time>2019-09-24T12:04:01.001Z</time>
      </trkpt>
      <trkpt lat="48.01891" lon="5.52228">
        <ele>331.075</ele>
        <time>2019-09-24T12:04:04.001Z</time>
      </trkpt>
      <trkpt lat="48.01881" lon="5.52238">
        <ele>330.621</ele>
        <time>2019-09-24T12:04:07.001Z</time>
      </trkpt>
      <trkpt lat="48.0187" lon="5.52251">
        <ele>329.92</ele>
        <time>2019-09-24T12:04:10.001Z</time>
      </trkpt>
      <trkpt lat="48.01861" lon="5.52266">
        <ele>329.089</ele>
        <time>2019-09-24T12:04:13.001Z</time>
      </trkpt>
      <trkpt lat="48.01855" lon="5.52282">
        <ele>328.883</ele>
        <time>2019-09-24T14:04:16Z</time>
      </trkpt>
      <trkpt lat="48.01849" lon="5.52296">
        <ele>328.893</ele>
        <time>2019-09-24T12:04:19.001Z</time>
      </trkpt>
      <trkpt lat="48.01844" lon="5.5231">
        <ele>329.281</ele>
        <time>2019-09-24T12:04:22.001Z</time>
      </trkpt>
      <trkpt lat="48.01839" lon="5.52323">
        <ele>329.62</ele>
        <time>2019-09-24T12:04:25.001Z</time>
      </trkpt>
      <trkpt lat="48.01834" lon="5.52336">
        <ele>330.156</ele>
        <time>2019-09-24T12:04:28.001Z</time>
      </trkpt>
      <trkpt lat="48.0183" lon="5.52349">
        <ele>330.342</ele>
        <time>2019-09-24T12:04:31.001Z</time>
      </trkpt>
      <trkpt lat="48.01826" lon="5.52361">
        <ele>330.703</ele>
        <time>2019-09-24T12:04:34.001Z</time>
      </trkpt>
      <trkpt lat="48.01822" lon="5.52373">
        <ele>331.286</ele>
        <time>2019-09-24T12:04:37.001Z</time>
      </trkpt>
      <trkpt lat="48.0182" lon="5.52384">
        <ele>331.752</ele>
        <time>2019-09-24T12:04:40.001Z</time>
      </trkpt>
      <trkpt lat="48.01816" lon="5.52396">
        <ele>332.453</ele>
        <time>2019-09-24T12:04:43.001Z</time>
      </trkpt>
      <trkpt lat="48.01813" lon="5.52407">
        <ele>333.208</ele>
        <time>2019-09-24T12:04:46.001Z</time>
      </trkpt>
      <trkpt lat="48.0181" lon="5.52418">
        <ele>334.059</ele>
        <time>2019-09-24T12:04:49.001Z</time>
      </trkpt>
      <trkpt lat="48.01808" lon="5.52429">
        <ele>334.878</ele>
        <time>2019-09-24T12:04:52.001Z</time>
      </trkpt>
      <trkpt lat="48.01806" lon="5.52438">
        <ele>335.275</ele>
        <time>2019-09-24T12:04:55.001Z</time>
      </trkpt>
      <trkpt lat="48.01804" lon="5.52448">
        <ele>336.115</ele>
        <time>2019-09-24T12:04:58.001Z</time>
      </trkpt>
      <trkpt lat="48.01802" lon="5.52457">
        <ele>336.904</ele>
        <time>2019-09-24T12:05:01.001Z</time>
      </trkpt>
      <trkpt lat="48.01799" lon="5.52467">
        <ele>337.225</ele>
        <time>2019-09-24T12:05:04.001Z</time>
      </trkpt>
      <trkpt lat="48.01796" lon="5.52476">
        <ele>337.442</ele>
        <time>2019-09-24T12:05:07.001Z</time>
      </trkpt>
      <trkpt lat="48.01794" lon="5.52485">
        <ele>337.612</ele>
        <time>2019-09-24T12:05:10.001Z</time>
      </trkpt>
      <trkpt lat="48.01792" lon="5.52495">
        <ele>338.181</ele>
        <time>2019-09-24T12:05:13.001Z</time>
      </trkpt>
      <trkpt lat="48.0179" lon="5.52504">
        <ele>339.049</ele>
        <time>2019-09-24T14:05:16Z</time>
      </trkpt>
      <trkpt lat="48.01787" lon="5.52513">
        <ele>339.838</ele>
        <time>2019-09-24T12:05:19.001Z</time>
      </trkpt>
      <trkpt lat="48.01784" lon="5.52521">
        <ele>340.408</ele>
        <time>2019-09-24T12:05:22.001Z</time>
      </trkpt>
      <trkpt lat="48.0178" lon="5.5253">
        <ele>341.529</ele>
        <time>2019-09-24T12:05:25.001Z</time>
      </trkpt>
      <trkpt lat="48.01777" lon="5.52539">
        <ele>343.062</ele>
        <time>2019-09-24T12:05:28.001Z</time>
      </trkpt>
      <trkpt lat="48.01773" lon="5.52548">
        <ele>344.342</ele>
        <time>2019-09-24T12:05:31.001Z</time>
      </trkpt>
      <trkpt lat="48.01769" lon="5.52556">
        <ele>345.236</ele>
        <time>2019-09-24T12:05:34.001Z</time>
      </trkpt>
      <trkpt lat="48.01765" lon="5.52565">
        <ele>345.914</ele>
        <time>2019-09-24T12:05:37.001Z</time>
      </trkpt>
      <trkpt lat="48.01762" lon="5.52573">
        <ele>346.32</ele>
        <time>2019-09-24T12:05:40.001Z</time>
      </trkpt>
      <trkpt lat="48.01758" lon="5.52582">
        <ele>346.8</ele>
        <time>2019-09-24T12:05:43.001Z</time>
      </trkpt>
      <trkpt lat="48.01754" lon="5.5259">
        <ele>347.407</ele>
        <time>2019-09-24T12:05:46.001Z</time>
      </trkpt>
      <trkpt lat="48.01749" lon="5.52598">
        <ele>347.006</ele>
        <time>2019-09-24T12:05:49.001Z</time>
      </trkpt>
      <trkpt lat="48.01744" lon="5.52608">
        <ele>346.875</ele>
        <time>2019-09-24T12:05:52.001Z</time>
      </trkpt>
      <trkpt lat="48.01739" lon="5.52616">
        <ele>346.962</ele>
        <time>2019-09-24T12:05:55.001Z</time>
      </trkpt>
      <trkpt lat="48.01733" lon="5.52625">
        <ele>346.494</ele>
        <time>2019-09-24T12:05:58.001Z</time>
      </trkpt>
      <trkpt lat="48.01728" lon="5.52635">
        <ele>346.63</ele>
        <time>2019-09-24T12:06:01.001Z</time>
      </trkpt>
      <trkpt lat="48.01722" lon="5.52645">
        <ele>346.796</ele>
        <time>2019-09-24T12:06:04.001Z</time>
      </trkpt>
      <trkpt lat="48.01717" lon="5.52655">
        <ele>346.861</ele>
        <time>2019-09-24T12:06:07.001Z</time>
      </trkpt>
      <trkpt lat="48.01711" lon="5.52666">
        <ele>346.81</ele>
        <time>2019-09-24T12:06:10.001Z</time>
      </trkpt>
      <trkpt lat="48.01705" lon="5.52676">
        <ele>346.514</ele>
        <time>2019-09-24T12:06:13.001Z</time>
      </trkpt>
      <trkpt lat="48.01698" lon="5.52687">
        <ele>346.31</ele>
        <time>2019-09-24T14:06:16Z</time>
      </trkpt>
      <trkpt lat="48.0169" lon="5.52698">
        <ele>346.457</ele>
        <time>2019-09-24T12:06:19.001Z</time>
      </trkpt>
      <trkpt lat="48.01682" lon="5.52711">
        <ele>346.123</ele>
        <time>2019-09-24T12:06:22.001Z</time>
      </trkpt>
      <trkpt lat="48.01674" lon="5.52725">
        <ele>345.5</ele>
        <time>2019-09-24T12:06:25.001Z</time>
      </trkpt>
      <trkpt lat="48.01667" lon="5.52738">
        <ele>344.977</ele>
        <time>2019-09-24T12:06:28.001Z</time>
      </trkpt>
      <trkpt lat="48.01662" lon="5.52745">
        <ele>344.558</ele>
        <time>2019-09-24T12:06:31.001Z</time>
      </trkpt>
      <trkpt lat="48.01661" lon="5.52746">
        <ele>344.308</ele>
        <time>2019-09-24T12:06:34.001Z</time>
      </trkpt>
      <trkpt lat="48.01661" lon="5.52747">
        <ele>343.78</ele>
        <time>2019-09-24T12:16:22.001Z</time>
      </trkpt>
      <trkpt lat="48.0166" lon="5.52747">
        <ele>343.645</ele>
        <time>2019-09-24T12:16:25.001Z</time>
      </trkpt>
      <trkpt lat="48.01653" lon="5.52759">
        <ele>343.179</ele>
        <time>2019-09-24T12:16:31.001Z</time>
      </trkpt>
      <trkpt lat="48.01648" lon="5.52769">
        <ele>343.038</ele>
        <time>2019-09-24T12:16:34.001Z</time>
      </trkpt>
      <trkpt lat="48.01642" lon="5.52782">
        <ele>343.128</ele>
        <time>2019-09-24T12:16:37.001Z</time>
      </trkpt>
      <trkpt lat="48.01634" lon="5.52795">
        <ele>342.984</ele>
        <time>2019-09-24T12:16:40.001Z</time>
      </trkpt>
      <trkpt lat="48.01627" lon="5.52807">
        <ele>342.692</ele>
        <time>2019-09-24T12:16:43.001Z</time>
      </trkpt>
      <trkpt lat="48.01619" lon="5.52819">
        <ele>342.579</ele>
        <time>2019-09-24T12:16:46.001Z</time>
      </trkpt>
      <trkpt lat="48.01611" lon="5.52828">
        <ele>342.403</ele>
        <time>2019-09-24T12:16:49.001Z</time>
      </trkpt>
      <trkpt lat="48.01602" lon="5.52837">
        <ele>341.907</ele>
        <time>2019-09-24T12:16:52.001Z</time>
      </trkpt>
      <trkpt lat="48.01593" lon="5.52845">
        <ele>341.364</ele>
        <time>2019-09-24T12:16:55.001Z</time>
      </trkpt>
      <trkpt lat="48.01583" lon="5.52852">
        <ele>341.167</ele>
        <time>2019-09-24T12:16:58.001Z</time>
      </trkpt>
      <trkpt lat="48.01573" lon="5.52858">
        <ele>341.328</ele>
        <time>2019-09-24T12:17:01.001Z</time>
      </trkpt>
      <trkpt lat="48.01562" lon="5.52863">
        <ele>341.985</ele>
        <time>2019-09-24T12:17:04.001Z</time>
      </trkpt>
      <trkpt lat="48.01552" lon="5.52867">
        <ele>342.292</ele>
        <time>2019-09-24T12:17:07.001Z</time>
      </trkpt>
      <trkpt lat="48.01541" lon="5.52869">
        <ele>341.943</ele>
        <time>2019-09-24T12:17:10.001Z</time>
      </trkpt>
      <trkpt lat="48.01531" lon="5.52872">
        <ele>341.702</ele>
        <time>2019-09-24T12:17:13.001Z</time>
      </trkpt>
      <trkpt lat="48.01521" lon="5.52874">
        <ele>341.844</ele>
        <time>2019-09-24T14:17:16Z</time>
      </trkpt>
      <trkpt lat="48.01511" lon="5.52874">
        <ele>342.385</ele>
        <time>2019-09-24T12:17:19.001Z</time>
      </trkpt>
      <trkpt lat="48.01501" lon="5.52874">
        <ele>342.561</ele>
        <time>2019-09-24T12:17:22.001Z</time>
      </trkpt>
      <trkpt lat="48.01491" lon="5.52874">
        <ele>342.808</ele>
        <time>2019-09-24T12:17:25.001Z</time>
      </trkpt>
      <trkpt lat="48.01482" lon="5.52873">
        <ele>343.048</ele>
        <time>2019-09-24T12:17:28.001Z</time>
      </trkpt>
      <trkpt lat="48.01474" lon="5.52872">
        <ele>343.163</ele>
        <time>2019-09-24T12:17:31.001Z</time>
      </trkpt>
      <trkpt lat="48.01466" lon="5.52871">
        <ele>343.632</ele>
        <time>2019-09-24T12:17:34.001Z</time>
      </trkpt>
      <trkpt lat="48.01456" lon="5.52868">
        <ele>344.219</ele>
        <time>2019-09-24T12:17:37.001Z</time>
      </trkpt>
      <trkpt lat="48.01448" lon="5.52866">
        <ele>344.4</ele>
        <time>2019-09-24T12:17:40.001Z</time>
      </trkpt>
      <trkpt lat="48.01439" lon="5.52863">
        <ele>344.553</ele>
        <time>2019-09-24T12:17:43.001Z</time>
      </trkpt>
      <trkpt lat="48.01431" lon="5.5286">
        <ele>345.245</ele>
        <time>2019-09-24T12:17:46.001Z</time>
      </trkpt>
      <trkpt lat="48.01422" lon="5.52857">
        <ele>345.704</ele>
        <time>2019-09-24T12:17:49.001Z</time>
      </trkpt>
      <trkpt lat="48.01411" lon="5.52854">
        <ele>345.599</ele>
        <time>2019-09-24T12:17:52.001Z</time>
      </trkpt>
      <trkpt lat="48.01401" lon="5.52847">
        <ele>345.904</ele>
        <time>2019-09-24T12:17:55.001Z</time>
      </trkpt>
      <trkpt lat="48.01391" lon="5.5284">
        <ele>346.587</ele>
        <time>2019-09-24T12:17:58.001Z</time>
      </trkpt>
      <trkpt lat="48.01382" lon="5.52832">
        <ele>347.104</ele>
        <time>2019-09-24T12:18:01.001Z</time>
      </trkpt>
      <trkpt lat="48.01373" lon="5.52824">
        <ele>347.22</ele>
        <time>2019-09-24T12:18:04.001Z</time>
      </trkpt>
      <trkpt lat="48.01364" lon="5.52815">
        <ele>347.563</ele>
        <time>2019-09-24T12:18:07.001Z</time>
      </trkpt>
      <trkpt lat="48.01355" lon="5.52805">
        <ele>347.822</ele>
        <time>2019-09-24T12:18:10.001Z</time>
      </trkpt>
      <trkpt lat="48.01346" lon="5.52796">
        <ele>347.682</ele>
        <time>2019-09-24T12:18:13.001Z</time>
      </trkpt>
      <trkpt lat="48.01338" lon="5.52787">
        <ele>347.683</ele>
        <time>2019-09-24T14:18:16Z</time>
      </trkpt>
      <trkpt lat="48.0133" lon="5.52778">
        <ele>347.737</ele>
        <time>2019-09-24T12:18:19.001Z</time>
      </trkpt>
      <trkpt lat="48.01322" lon="5.52769">
        <ele>348.046</ele>
        <time>2019-09-24T12:18:22.001Z</time>
      </trkpt>
      <trkpt lat="48.01316" lon="5.5276">
        <ele>348.324</ele>
        <time>2019-09-24T12:18:25.001Z</time>
      </trkpt>
      <trkpt lat="48.01309" lon="5.52751">
        <ele>349.759</ele>
        <time>2019-09-24T12:18:28.001Z</time>
      </trkpt>
      <trkpt lat="48.01302" lon="5.52741">
        <ele>349.999</ele>
        <time>2019-09-24T12:18:31.001Z</time>
      </trkpt>
      <trkpt lat="48.01294" lon="5.52731">
        <ele>350.149</ele>
        <time>2019-09-24T12:18:34.001Z</time>
      </trkpt>
      <trkpt lat="48.01286" lon="5.52721">
        <ele>349.884</ele>
        <time>2019-09-24T12:18:37.001Z</time>
      </trkpt>
      <trkpt lat="48.01277" lon="5.52709">
        <ele>349.322</ele>
        <time>2019-09-24T12:18:40.001Z</time>
      </trkpt>
      <trkpt lat="48.01266" lon="5.52698">
        <ele>348.743</ele>
        <time>2019-09-24T12:18:43.001Z</time>
      </trkpt>
      <trkpt lat="48.01255" lon="5.52687">
        <ele>347.95</ele>
        <time>2019-09-24T12:18:46.001Z</time>
      </trkpt>
      <trkpt lat="48.01242" lon="5.52673">
        <ele>347.304</ele>
        <time>2019-09-24T12:18:49.001Z</time>
      </trkpt>
      <trkpt lat="48.01228" lon="5.52659">
        <ele>346.762</ele>
        <time>2019-09-24T12:18:52.001Z</time>
      </trkpt>
      <trkpt lat="48.01213" lon="5.52645">
        <ele>346.008</ele>
        <time>2019-09-24T12:18:55.001Z</time>
      </trkpt>
      <trkpt lat="48.01197" lon="5.52632">
        <ele>345.135</ele>
        <time>2019-09-24T12:18:58.001Z</time>
      </trkpt>
      <trkpt lat="48.01178" lon="5.5263">
        <ele>344.071</ele>
        <time>2019-09-24T12:19:01.001Z</time>
      </trkpt>
      <trkpt lat="48.01161" lon="5.52644">
        <ele>343.149</ele>
        <time>2019-09-24T12:19:04.001Z</time>
      </trkpt>
      <trkpt lat="48.01147" lon="5.52661">
        <ele>342.463</ele>
        <time>2019-09-24T12:19:07.001Z</time>
      </trkpt>
      <trkpt lat="48.01135" lon="5.52679">
        <ele>341.826</ele>
        <time>2019-09-24T12:19:10.001Z</time>
      </trkpt>
      <trkpt lat="48.01123" lon="5.52696">
        <ele>341.24</ele>
        <time>2019-09-24T12:19:13.001Z</time>
      </trkpt>
      <trkpt lat="48.01107" lon="5.5271">
        <ele>340.604</ele>
        <time>2019-09-24T14:19:16Z</time>
      </trkpt>
      <trkpt lat="48.01089" lon="5.52718">
        <ele>340.793</ele>
        <time>2019-09-24T12:19:19.001Z</time>
      </trkpt>
      <trkpt lat="48.01072" lon="5.52724">
        <ele>340.785</ele>
        <time>2019-09-24T12:19:22.001Z</time>
      </trkpt>
      <trkpt lat="48.01056" lon="5.52732">
        <ele>341.068</ele>
        <time>2019-09-24T12:19:25.001Z</time>
      </trkpt>
      <trkpt lat="48.01043" lon="5.52738">
        <ele>341.196</ele>
        <time>2019-09-24T12:19:28.001Z</time>
      </trkpt>
      <trkpt lat="48.01031" lon="5.52746">
        <ele>342.078</ele>
        <time>2019-09-24T12:19:31.001Z</time>
      </trkpt>
      <trkpt lat="48.01019" lon="5.52757">
        <ele>342.366</ele>
        <time>2019-09-24T12:19:34.001Z</time>
      </trkpt>
      <trkpt lat="48.01011" lon="5.52776">
        <ele>342.739</ele>
        <time>2019-09-24T12:19:37.001Z</time>
      </trkpt>
      <trkpt lat="48.01005" lon="5.52794">
        <ele>343.089</ele>
        <time>2019-09-24T12:19:40.001Z</time>
      </trkpt>
      <trkpt lat="48.01" lon="5.52809">
        <ele>343.155</ele>
        <time>2019-09-24T12:19:43.001Z</time>
      </trkpt>
      <trkpt lat="48.00996" lon="5.52824">
        <ele>343.401</ele>
        <time>2019-09-24T12:19:46.001Z</time>
      </trkpt>
      <trkpt lat="48.00993" lon="5.52838">
        <ele>343.895</ele>
        <time>2019-09-24T12:19:49.001Z</time>
      </trkpt>
      <trkpt lat="48.00992" lon="5.52851">
        <ele>343.859</ele>
        <time>2019-09-24T12:19:52.001Z</time>
      </trkpt>
      <trkpt lat="48.00991" lon="5.52863">
        <ele>344.2</ele>
        <time>2019-09-24T12:19:55.001Z</time>
      </trkpt>
      <trkpt lat="48.0099" lon="5.52874">
        <ele>344.637</ele>
        <time>2019-09-24T12:19:58.001Z</time>
      </trkpt>
      <trkpt lat="48.00989" lon="5.52886">
        <ele>345.453</ele>
        <time>2019-09-24T12:20:01.001Z</time>
      </trkpt>
      <trkpt lat="48.00992" lon="5.52899">
        <ele>346.089</ele>
        <time>2019-09-24T12:20:04.001Z</time>
      </trkpt>
      <trkpt lat="48.01" lon="5.52914">
        <ele>346.199</ele>
        <time>2019-09-24T12:20:07.001Z</time>
      </trkpt>
      <trkpt lat="48.01009" lon="5.52928">
        <ele>346.167</ele>
        <time>2019-09-24T12:20:10.001Z</time>
      </trkpt>
      <trkpt lat="48.01019" lon="5.52942">
        <ele>346.338</ele>
        <time>2019-09-24T12:20:13.001Z</time>
      </trkpt>
      <trkpt lat="48.01031" lon="5.52958">
        <ele>346.406</ele>
        <time>2019-09-24T14:20:16Z</time>
      </trkpt>
      <trkpt lat="48.01043" lon="5.52974">
        <ele>346.199</ele>
        <time>2019-09-24T12:20:19.001Z</time>
      </trkpt>
      <trkpt lat="48.01055" lon="5.52992">
        <ele>345.302</ele>
        <time>2019-09-24T12:20:22.001Z</time>
      </trkpt>
      <trkpt lat="48.01069" lon="5.53012">
        <ele>344.352</ele>
        <time>2019-09-24T12:20:25.001Z</time>
      </trkpt>
      <trkpt lat="48.01081" lon="5.53037">
        <ele>343.668</ele>
        <time>2019-09-24T12:20:28.001Z</time>
      </trkpt>
      <trkpt lat="48.01092" lon="5.53066">
        <ele>342.634</ele>
        <time>2019-09-24T12:20:31.001Z</time>
      </trkpt>
      <trkpt lat="48.01102" lon="5.53099">
        <ele>341.606</ele>
        <time>2019-09-24T12:20:34.001Z</time>
      </trkpt>
      <trkpt lat="48.01108" lon="5.53135">
        <ele>341.047</ele>
        <time>2019-09-24T12:20:37.001Z</time>
      </trkpt>
      <trkpt lat="48.01112" lon="5.53172">
        <ele>340.656</ele>
        <time>2019-09-24T12:20:40.001Z</time>
      </trkpt>
      <trkpt lat="48.01117" lon="5.53206">
        <ele>340.171</ele>
        <time>2019-09-24T12:20:43.001Z</time>
      </trkpt>
      <trkpt lat="48.01123" lon="5.53234">
        <ele>339.618</ele>
        <time>2019-09-24T12:20:46.001Z</time>
      </trkpt>
      <trkpt lat="48.01132" lon="5.53256">
        <ele>339.958</ele>
        <time>2019-09-24T12:20:49.001Z</time>
      </trkpt>
      <trkpt lat="48.01143" lon="5.53271">
        <ele>340.331</ele>
        <time>2019-09-24T12:20:52.001Z</time>
      </trkpt>
      <trkpt lat="48.01155" lon="5.5328">
        <ele>340.392</ele>
        <time>2019-09-24T12:20:55.001Z</time>
      </trkpt>
      <trkpt lat="48.0117" lon="5.53287">
        <ele>339.619</ele>
        <time>2019-09-24T12:20:58.001Z</time>
      </trkpt>
      <trkpt lat="48.01186" lon="5.53296">
        <ele>338.831</ele>
        <time>2019-09-24T12:21:01.001Z</time>
      </trkpt>
      <trkpt lat="48.01206" lon="5.53309">
        <ele>337.276</ele>
        <time>2019-09-24T12:21:04.001Z</time>
      </trkpt>
      <trkpt lat="48.01226" lon="5.53329">
        <ele>336.092</ele>
        <time>2019-09-24T12:21:07.001Z</time>
      </trkpt>
      <trkpt lat="48.01245" lon="5.53357">
        <ele>335.713</ele>
        <time>2019-09-24T12:21:10.001Z</time>
      </trkpt>
      <trkpt lat="48.01264" lon="5.53387">
        <ele>335.179</ele>
        <time>2019-09-24T12:21:13.001Z</time>
      </trkpt>
      <trkpt lat="48.01282" lon="5.53417">
        <ele>334.184</ele>
        <time>2019-09-24T14:21:16Z</time>
      </trkpt>
      <trkpt lat="48.01298" lon="5.53447">
        <ele>332.818</ele>
        <time>2019-09-24T12:21:19.001Z</time>
      </trkpt>
      <trkpt lat="48.01311" lon="5.53476">
        <ele>331.281</ele>
        <time>2019-09-24T12:21:22.001Z</time>
      </trkpt>
      <trkpt lat="48.01322" lon="5.53502">
        <ele>329.489</ele>
        <time>2019-09-24T12:21:25.001Z</time>
      </trkpt>
      <trkpt lat="48.01332" lon="5.53531">
        <ele>328.295</ele>
        <time>2019-09-24T12:21:28.001Z</time>
      </trkpt>
      <trkpt lat="48.01342" lon="5.5356">
        <ele>327.695</ele>
        <time>2019-09-24T12:21:31.001Z</time>
      </trkpt>
      <trkpt lat="48.01351" lon="5.53588">
        <ele>327.244</ele>
        <time>2019-09-24T12:21:34.001Z</time>
      </trkpt>
      <trkpt lat="48.01359" lon="5.53613">
        <ele>327.065</ele>
        <time>2019-09-24T12:21:37.001Z</time>
      </trkpt>
      <trkpt lat="48.01367" lon="5.53637">
        <ele>327.017</ele>
        <time>2019-09-24T12:21:40.001Z</time>
      </trkpt>
      <trkpt lat="48.01375" lon="5.53658">
        <ele>327.228</ele>
        <time>2019-09-24T12:21:43.001Z</time>
      </trkpt>
      <trkpt lat="48.01381" lon="5.53678">
        <ele>327.491</ele>
        <time>2019-09-24T12:21:46.001Z</time>
      </trkpt>
      <trkpt lat="48.01388" lon="5.53696">
        <ele>327.815</ele>
        <time>2019-09-24T12:21:49.001Z</time>
      </trkpt>
      <trkpt lat="48.01394" lon="5.53712">
        <ele>328.817</ele>
        <time>2019-09-24T12:21:52.001Z</time>
      </trkpt>
      <trkpt lat="48.01399" lon="5.53727">
        <ele>330.335</ele>
        <time>2019-09-24T12:21:55.001Z</time>
      </trkpt>
      <trkpt lat="48.01403" lon="5.53739">
        <ele>331.08</ele>
        <time>2019-09-24T12:21:58.001Z</time>
      </trkpt>
      <trkpt lat="48.01407" lon="5.53749">
        <ele>332.082</ele>
        <time>2019-09-24T12:22:01.001Z</time>
      </trkpt>
      <trkpt lat="48.01411" lon="5.53759">
        <ele>333.344</ele>
        <time>2019-09-24T12:22:04.001Z</time>
      </trkpt>
      <trkpt lat="48.01414" lon="5.53769">
        <ele>334.386</ele>
        <time>2019-09-24T12:22:07.001Z</time>
      </trkpt>
      <trkpt lat="48.01418" lon="5.53778">
        <ele>335.213</ele>
        <time>2019-09-24T12:22:10.001Z</time>
      </trkpt>
      <trkpt lat="48.01421" lon="5.53788">
        <ele>335.985</ele>
        <time>2019-09-24T12:22:13.001Z</time>
      </trkpt>
      <trkpt lat="48.01425" lon="5.53798">
        <ele>336.494</ele>
        <time>2019-09-24T14:22:16Z</time>
      </trkpt>
      <trkpt lat="48.01428" lon="5.53808">
        <ele>337.243</ele>
        <time>2019-09-24T12:22:19.001Z</time>
      </trkpt>
      <trkpt lat="48.01431" lon="5.53817">
        <ele>337.66</ele>
        <time>2019-09-24T12:22:22.001Z</time>
      </trkpt>
      <trkpt lat="48.01434" lon="5.53827">
        <ele>338.354</ele>
        <time>2019-09-24T12:22:25.001Z</time>
      </trkpt>
      <trkpt lat="48.01437" lon="5.53836">
        <ele>339.405</ele>
        <time>2019-09-24T12:22:28.001Z</time>
      </trkpt>
      <trkpt lat="48.01439" lon="5.53845">
        <ele>339.832</ele>
        <time>2019-09-24T12:22:31.001Z</time>
      </trkpt>
      <trkpt lat="48.01441" lon="5.53855">
        <ele>340.389</ele>
        <time>2019-09-24T12:22:34.001Z</time>
      </trkpt>
      <trkpt lat="48.01443" lon="5.53864">
        <ele>341.404</ele>
        <time>2019-09-24T12:22:37.001Z</time>
      </trkpt>
      <trkpt lat="48.01445" lon="5.53875">
        <ele>342.084</ele>
        <time>2019-09-24T12:22:40.001Z</time>
      </trkpt>
      <trkpt lat="48.01448" lon="5.53887">
        <ele>342.16</ele>
        <time>2019-09-24T12:22:43.001Z</time>
      </trkpt>
      <trkpt lat="48.01451" lon="5.53899">
        <ele>342.25</ele>
        <time>2019-09-24T12:22:46.001Z</time>
      </trkpt>
      <trkpt lat="48.01453" lon="5.53909">
        <ele>342.48</ele>
        <time>2019-09-24T12:22:49.001Z</time>
      </trkpt>
      <trkpt lat="48.01455" lon="5.5392">
        <ele>342.375</ele>
        <time>2019-09-24T12:22:52.001Z</time>
      </trkpt>
      <trkpt lat="48.01458" lon="5.53931">
        <ele>342.261</ele>
        <time>2019-09-24T12:22:55.001Z</time>
      </trkpt>
      <trkpt lat="48.01461" lon="5.53943">
        <ele>342.074</ele>
        <time>2019-09-24T12:22:58.001Z</time>
      </trkpt>
      <trkpt lat="48.01463" lon="5.53954">
        <ele>341.84</ele>
        <time>2019-09-24T12:23:01.001Z</time>
      </trkpt>
      <trkpt lat="48.01464" lon="5.53964">
        <ele>341.526</ele>
        <time>2019-09-24T12:23:04.001Z</time>
      </trkpt>
      <trkpt lat="48.01466" lon="5.53975">
        <ele>341.371</ele>
        <time>2019-09-24T12:23:07.001Z</time>
      </trkpt>
      <trkpt lat="48.01467" lon="5.53986">
        <ele>341.477</ele>
        <time>2019-09-24T12:23:10.001Z</time>
      </trkpt>
      <trkpt lat="48.01469" lon="5.53997">
        <ele>341.719</ele>
        <time>2019-09-24T12:23:13.001Z</time>
      </trkpt>
      <trkpt lat="48.01471" lon="5.54008">
        <ele>342.013</ele>
        <time>2019-09-24T14:23:16Z</time>
      </trkpt>
      <trkpt lat="48.01473" lon="5.54018">
        <ele>342.116</ele>
        <time>2019-09-24T12:23:19.001Z</time>
      </trkpt>
      <trkpt lat="48.01475" lon="5.54029">
        <ele>342.477</ele>
        <time>2019-09-24T12:23:22.001Z</time>
      </trkpt>
      <trkpt lat="48.01477" lon="5.5404">
        <ele>342.765</ele>
        <time>2019-09-24T12:23:25.001Z</time>
      </trkpt>
      <trkpt lat="48.01479" lon="5.54051">
        <ele>343.259</ele>
        <time>2019-09-24T12:23:28.001Z</time>
      </trkpt>
      <trkpt lat="48.01481" lon="5.54062">
        <ele>343.549</ele>
        <time>2019-09-24T12:23:31.001Z</time>
      </trkpt>
      <trkpt lat="48.01483" lon="5.54074">
        <ele>343.772</ele>
        <time>2019-09-24T12:23:34.001Z</time>
      </trkpt>
      <trkpt lat="48.01485" lon="5.54086">
        <ele>344.16</ele>
        <time>2019-09-24T12:23:37.001Z</time>
      </trkpt>
      <trkpt lat="48.01487" lon="5.54098">
        <ele>344.581</ele>
        <time>2019-09-24T12:23:40.001Z</time>
      </trkpt>
      <trkpt lat="48.01489" lon="5.54109">
        <ele>345.132</ele>
        <time>2019-09-24T12:23:43.001Z</time>
      </trkpt>
      <trkpt lat="48.0149" lon="5.5412">
        <ele>345.764</ele>
        <time>2019-09-24T12:23:46.001Z</time>
      </trkpt>
      <trkpt lat="48.01492" lon="5.5413">
        <ele>346.215</ele>
        <time>2019-09-24T12:23:49.001Z</time>
      </trkpt>
      <trkpt lat="48.01495" lon="5.54141">
        <ele>346.534</ele>
        <time>2019-09-24T12:23:52.001Z</time>
      </trkpt>
      <trkpt lat="48.01496" lon="5.54154">
        <ele>346.785</ele>
        <time>2019-09-24T12:23:55.001Z</time>
      </trkpt>
      <trkpt lat="48.01499" lon="5.54167">
        <ele>346.796</ele>
        <time>2019-09-24T12:23:58.001Z</time>
      </trkpt>
      <trkpt lat="48.01501" lon="5.54182">
        <ele>347.053</ele>
        <time>2019-09-24T12:24:01.001Z</time>
      </trkpt>
      <trkpt lat="48.01503" lon="5.54197">
        <ele>347.169</ele>
        <time>2019-09-24T12:24:04.001Z</time>
      </trkpt>
      <trkpt lat="48.01506" lon="5.54212">
        <ele>347.67</ele>
        <time>2019-09-24T12:24:07.001Z</time>
      </trkpt>
      <trkpt lat="48.01508" lon="5.54227">
        <ele>347.971</ele>
        <time>2019-09-24T12:24:10.001Z</time>
      </trkpt>
      <trkpt lat="48.01509" lon="5.54243">
        <ele>348.788</ele>
        <time>2019-09-24T12:24:13.001Z</time>
      </trkpt>
      <trkpt lat="48.0151" lon="5.5426">
        <ele>349.172</ele>
        <time>2019-09-24T14:24:16Z</time>
      </trkpt>
      <trkpt lat="48.01509" lon="5.54276">
        <ele>350.109</ele>
        <time>2019-09-24T12:24:19.001Z</time>
      </trkpt>
      <trkpt lat="48.01508" lon="5.54295">
        <ele>350.073</ele>
        <time>2019-09-24T12:24:22.001Z</time>
      </trkpt>
      <trkpt lat="48.01508" lon="5.54314">
        <ele>349.289</ele>
        <time>2019-09-24T12:24:25.001Z</time>
      </trkpt>
      <trkpt lat="48.01507" lon="5.54332">
        <ele>348.624</ele>
        <time>2019-09-24T12:24:28.001Z</time>
      </trkpt>
      <trkpt lat="48.01507" lon="5.54351">
        <ele>348.1</ele>
        <time>2019-09-24T12:24:31.001Z</time>
      </trkpt>
      <trkpt lat="48.01507" lon="5.54369">
        <ele>347.783</ele>
        <time>2019-09-24T12:24:34.001Z</time>
      </trkpt>
      <trkpt lat="48.01509" lon="5.54385">
        <ele>347.603</ele>
        <time>2019-09-24T12:24:37.001Z</time>
      </trkpt>
      <trkpt lat="48.01511" lon="5.54402">
        <ele>347.43</ele>
        <time>2019-09-24T12:24:40.001Z</time>
      </trkpt>
      <trkpt lat="48.01515" lon="5.54418">
        <ele>347.202</ele>
        <time>2019-09-24T12:24:43.001Z</time>
      </trkpt>
      <trkpt lat="48.01518" lon="5.54433">
        <ele>347.467</ele>
        <time>2019-09-24T12:24:46.001Z</time>
      </trkpt>
      <trkpt lat="48.01522" lon="5.54447">
        <ele>347.313</ele>
        <time>2019-09-24T12:24:49.002Z</time>
      </trkpt>
      <trkpt lat="48.01523" lon="5.54461">
        <ele>346.976</ele>
        <time>2019-09-24T12:24:52.001Z</time>
      </trkpt>
      <trkpt lat="48.01525" lon="5.54473">
        <ele>346.884</ele>
        <time>2019-09-24T12:24:55.001Z</time>
      </trkpt>
      <trkpt lat="48.01527" lon="5.54487">
        <ele>346.949</ele>
        <time>2019-09-24T12:24:58.001Z</time>
      </trkpt>
      <trkpt lat="48.01527" lon="5.545">
        <ele>346.534</ele>
        <time>2019-09-24T12:25:01.001Z</time>
      </trkpt>
      <trkpt lat="48.01527" lon="5.54513">
        <ele>345.955</ele>
        <time>2019-09-24T12:25:04.001Z</time>
      </trkpt>
      <trkpt lat="48.01527" lon="5.54527">
        <ele>346.254</ele>
        <time>2019-09-24T12:25:07.001Z</time>
      </trkpt>
      <trkpt lat="48.01525" lon="5.54542">
        <ele>346.146</ele>
        <time>2019-09-24T12:25:10.001Z</time>
      </trkpt>
      <trkpt lat="48.01523" lon="5.54555">
        <ele>345.96</ele>
        <time>2019-09-24T12:25:13.001Z</time>
      </trkpt>
      <trkpt lat="48.0152" lon="5.54569">
        <ele>345.611</ele>
        <time>2019-09-24T14:25:16Z</time>
      </trkpt>
      <trkpt lat="48.01518" lon="5.54583">
        <ele>345.266</ele>
        <time>2019-09-24T12:25:19.001Z</time>
      </trkpt>
      <trkpt lat="48.01514" lon="5.54596">
        <ele>345.032</ele>
        <time>2019-09-24T12:25:22.001Z</time>
      </trkpt>
      <trkpt lat="48.01512" lon="5.54608">
        <ele>345.077</ele>
        <time>2019-09-24T12:25:25.001Z</time>
      </trkpt>
      <trkpt lat="48.01508" lon="5.5462">
        <ele>345.245</ele>
        <time>2019-09-24T12:25:28.001Z</time>
      </trkpt>
      <trkpt lat="48.01505" lon="5.54633">
        <ele>345.935</ele>
        <time>2019-09-24T12:25:31.001Z</time>
      </trkpt>
      <trkpt lat="48.01502" lon="5.54646">
        <ele>346.157</ele>
        <time>2019-09-24T12:25:34.001Z</time>
      </trkpt>
      <trkpt lat="48.015" lon="5.54659">
        <ele>346.492</ele>
        <time>2019-09-24T12:25:37.001Z</time>
      </trkpt>
      <trkpt lat="48.01497" lon="5.54671">
        <ele>346.295</ele>
        <time>2019-09-24T12:25:40.001Z</time>
      </trkpt>
      <trkpt lat="48.01495" lon="5.54682">
        <ele>346.372</ele>
        <time>2019-09-24T12:25:43.001Z</time>
      </trkpt>
      <trkpt lat="48.01492" lon="5.54695">
        <ele>346.663</ele>
        <time>2019-09-24T12:25:46.001Z</time>
      </trkpt>
      <trkpt lat="48.01489" lon="5.54708">
        <ele>347.062</ele>
        <time>2019-09-24T12:25:49.001Z</time>
      </trkpt>
      <trkpt lat="48.01486" lon="5.5472">
        <ele>347.167</ele>
        <time>2019-09-24T12:25:52.001Z</time>
      </trkpt>
      <trkpt lat="48.01484" lon="5.54732">
        <ele>347.64</ele>
        <time>2019-09-24T12:25:55.001Z</time>
      </trkpt>
      <trkpt lat="48.01482" lon="5.54744">
        <ele>348.244</ele>
        <time>2019-09-24T12:25:58.001Z</time>
      </trkpt>
      <trkpt lat="48.0148" lon="5.54756">
        <ele>348.666</ele>
        <time>2019-09-24T12:26:01.001Z</time>
      </trkpt>
      <trkpt lat="48.01478" lon="5.54767">
        <ele>349.644</ele>
        <time>2019-09-24T12:26:04.001Z</time>
      </trkpt>
      <trkpt lat="48.01476" lon="5.54778">
        <ele>349.873</ele>
        <time>2019-09-24T12:26:07.001Z</time>
      </trkpt>
      <trkpt lat="48.01475" lon="5.54791">
        <ele>350.181</ele>
        <time>2019-09-24T12:26:10.001Z</time>
      </trkpt>
      <trkpt lat="48.01475" lon="5.54803">
        <ele>350.636</ele>
        <time>2019-09-24T12:26:13.001Z</time>
      </trkpt>
      <trkpt lat="48.01475" lon="5.54815">
        <ele>351.036</ele>
        <time>2019-09-24T14:26:16Z</time>
      </trkpt>
      <trkpt lat="48.01475" lon="5.54827">
        <ele>351.946</ele>
        <time>2019-09-24T12:26:19.001Z</time>
      </trkpt>
      <trkpt lat="48.01475" lon="5.54839">
        <ele>352.617</ele>
        <time>2019-09-24T12:26:22.001Z</time>
      </trkpt>
      <trkpt lat="48.01475" lon="5.54851">
        <ele>353.011</ele>
        <time>2019-09-24T12:26:25.001Z</time>
      </trkpt>
      <trkpt lat="48.01475" lon="5.54862">
        <ele>353.434</ele>
        <time>2019-09-24T12:26:28.001Z</time>
      </trkpt>
      <trkpt lat="48.01475" lon="5.54874">
        <ele>353.926</ele>
        <time>2019-09-24T12:26:31.001Z</time>
      </trkpt>
      <trkpt lat="48.01476" lon="5.54886">
        <ele>354.094</ele>
        <time>2019-09-24T12:26:34.001Z</time>
      </trkpt>
      <trkpt lat="48.01477" lon="5.54899">
        <ele>354.102</ele>
        <time>2019-09-24T12:26:37.001Z</time>
      </trkpt>
      <trkpt lat="48.01477" lon="5.54912">
        <ele>354.166</ele>
        <time>2019-09-24T12:26:40.001Z</time>
      </trkpt>
      <trkpt lat="48.01478" lon="5.54925">
        <ele>354.279</ele>
        <time>2019-09-24T12:26:43.001Z</time>
      </trkpt>
      <trkpt lat="48.01479" lon="5.54938">
        <ele>354.486</ele>
        <time>2019-09-24T12:26:46.001Z</time>
      </trkpt>
      <trkpt lat="48.01481" lon="5.54951">
        <ele>354.749</ele>
        <time>2019-09-24T12:26:49.001Z</time>
      </trkpt>
      <trkpt lat="48.01482" lon="5.54964">
        <ele>355.314</ele>
        <time>2019-09-24T12:26:52.001Z</time>
      </trkpt>
      <trkpt lat="48.01483" lon="5.54977">
        <ele>355.363</ele>
        <time>2019-09-24T12:26:55.001Z</time>
      </trkpt>
      <trkpt lat="48.01483" lon="5.54992">
        <ele>355.822</ele>
        <time>2019-09-24T12:26:58.001Z</time>
      </trkpt>
      <trkpt lat="48.01484" lon="5.55007">
        <ele>355.995</ele>
        <time>2019-09-24T12:27:01.001Z</time>
      </trkpt>
      <trkpt lat="48.01485" lon="5.55021">
        <ele>355.62</ele>
        <time>2019-09-24T12:27:04.001Z</time>
      </trkpt>
      <trkpt lat="48.01485" lon="5.55036">
        <ele>355.333</ele>
        <time>2019-09-24T12:27:07.001Z</time>
      </trkpt>
      <trkpt lat="48.01485" lon="5.55051">
        <ele>355.078</ele>
        <time>2019-09-24T12:27:10.001Z</time>
      </trkpt>
      <trkpt lat="48.01484" lon="5.55069">
        <ele>355.006</ele>
        <time>2019-09-24T12:27:13.001Z</time>
      </trkpt>
      <trkpt lat="48.01483" lon="5.55086">
        <ele>354.656</ele>
        <time>2019-09-24T14:27:16Z</time>
      </trkpt>
      <trkpt lat="48.01481" lon="5.55102">
        <ele>354.798</ele>
        <time>2019-09-24T12:27:19.001Z</time>
      </trkpt>
      <trkpt lat="48.01479" lon="5.55118">
        <ele>355.034</ele>
        <time>2019-09-24T12:27:22.001Z</time>
      </trkpt>
      <trkpt lat="48.01477" lon="5.55133">
        <ele>355.354</ele>
        <time>2019-09-24T12:27:25.001Z</time>
      </trkpt>
      <trkpt lat="48.01473" lon="5.55149">
        <ele>355.371</ele>
        <time>2019-09-24T12:27:28.001Z</time>
      </trkpt>
      <trkpt lat="48.0147" lon="5.55165">
        <ele>355.345</ele>
        <time>2019-09-24T12:27:31.001Z</time>
      </trkpt>
      <trkpt lat="48.01466" lon="5.5518">
        <ele>355.405</ele>
        <time>2019-09-24T12:27:34.001Z</time>
      </trkpt>
      <trkpt lat="48.01462" lon="5.55195">
        <ele>355.152</ele>
        <time>2019-09-24T12:27:37.001Z</time>
      </trkpt>
      <trkpt lat="48.01456" lon="5.55208">
        <ele>355.016</ele>
        <time>2019-09-24T12:27:40.001Z</time>
      </trkpt>
      <trkpt lat="48.01448" lon="5.5522">
        <ele>354.93</ele>
        <time>2019-09-24T12:27:43.001Z</time>
      </trkpt>
      <trkpt lat="48.01441" lon="5.5523">
        <ele>355.064</ele>
        <time>2019-09-24T12:27:46.001Z</time>
      </trkpt>
      <trkpt lat="48.01436" lon="5.55236">
        <ele>355.406</ele>
        <time>2019-09-24T12:27:49.001Z</time>
      </trkpt>
      <trkpt lat="48.01431" lon="5.55244">
        <ele>355.51</ele>
        <time>2019-09-24T12:27:52.001Z</time>
      </trkpt>
      <trkpt lat="48.01424" lon="5.55257">
        <ele>355.929</ele>
        <time>2019-09-24T12:27:55.001Z</time>
      </trkpt>
      <trkpt lat="48.01417" lon="5.55272">
        <ele>356.285</ele>
        <time>2019-09-24T12:27:58.001Z</time>
      </trkpt>
      <trkpt lat="48.0141" lon="5.55287">
        <ele>356.4</ele>
        <time>2019-09-24T12:28:01.001Z</time>
      </trkpt>
      <trkpt lat="48.01403" lon="5.553">
        <ele>356.488</ele>
        <time>2019-09-24T12:28:04.001Z</time>
      </trkpt>
      <trkpt lat="48.01397" lon="5.55313">
        <ele>356.54</ele>
        <time>2019-09-24T12:28:07.001Z</time>
      </trkpt>
      <trkpt lat="48.01391" lon="5.55327">
        <ele>356.648</ele>
        <time>2019-09-24T12:28:10.001Z</time>
      </trkpt>
      <trkpt lat="48.01386" lon="5.5534">
        <ele>357.407</ele>
        <time>2019-09-24T12:28:13.001Z</time>
      </trkpt>
      <trkpt lat="48.01381" lon="5.55352">
        <ele>357.991</ele>
        <time>2019-09-24T14:28:16Z</time>
      </trkpt>
      <trkpt lat="48.01376" lon="5.55365">
        <ele>358.83</ele>
        <time>2019-09-24T12:28:19.001Z</time>
      </trkpt>
      <trkpt lat="48.01371" lon="5.55377">
        <ele>359.209</ele>
        <time>2019-09-24T12:28:22.001Z</time>
      </trkpt>
      <trkpt lat="48.01367" lon="5.5539">
        <ele>359.242</ele>
        <time>2019-09-24T12:28:25.001Z</time>
      </trkpt>
      <trkpt lat="48.01364" lon="5.55403">
        <ele>359.351</ele>
        <time>2019-09-24T12:28:28.001Z</time>
      </trkpt>
      <trkpt lat="48.01361" lon="5.55416">
        <ele>359.072</ele>
        <time>2019-09-24T12:28:31.001Z</time>
      </trkpt>
      <trkpt lat="48.01359" lon="5.55428">
        <ele>358.956</ele>
        <time>2019-09-24T12:28:34.001Z</time>
      </trkpt>
      <trkpt lat="48.01358" lon="5.5544">
        <ele>359.001</ele>
        <time>2019-09-24T12:28:37.001Z</time>
      </trkpt>
      <trkpt lat="48.01358" lon="5.55453">
        <ele>359.015</ele>
        <time>2019-09-24T12:28:40.001Z</time>
      </trkpt>
      <trkpt lat="48.01359" lon="5.55466">
        <ele>359.058</ele>
        <time>2019-09-24T12:28:43.001Z</time>
      </trkpt>
      <trkpt lat="48.01359" lon="5.55478">
        <ele>359.111</ele>
        <time>2019-09-24T12:28:46.001Z</time>
      </trkpt>
      <trkpt lat="48.01358" lon="5.5549">
        <ele>359.468</ele>
        <time>2019-09-24T12:28:49.001Z</time>
      </trkpt>
      <trkpt lat="48.01358" lon="5.55502">
        <ele>359.86</ele>
        <time>2019-09-24T12:28:52.001Z</time>
      </trkpt>
      <trkpt lat="48.01358" lon="5.55514">
        <ele>360.351</ele>
        <time>2019-09-24T12:28:55.001Z</time>
      </trkpt>
      <trkpt lat="48.01358" lon="5.55526">
        <ele>360.66</ele>
        <time>2019-09-24T12:28:58.001Z</time>
      </trkpt>
      <trkpt lat="48.01358" lon="5.55538">
        <ele>360.893</ele>
        <time>2019-09-24T12:29:01.001Z</time>
      </trkpt>
      <trkpt lat="48.01359" lon="5.55552">
        <ele>361.245</ele>
        <time>2019-09-24T12:29:04.001Z</time>
      </trkpt>
      <trkpt lat="48.0136" lon="5.55564">
        <ele>361.569</ele>
        <time>2019-09-24T12:29:07.001Z</time>
      </trkpt>
      <trkpt lat="48.01361" lon="5.55576">
        <ele>362.148</ele>
        <time>2019-09-24T12:29:10.001Z</time>
      </trkpt>
      <trkpt lat="48.01362" lon="5.55588">
        <ele>362.293</ele>
        <time>2019-09-24T12:29:13.001Z</time>
      </trkpt>
      <trkpt lat="48.01363" lon="5.556">
        <ele>362.629</ele>
        <time>2019-09-24T14:29:16Z</time>
      </trkpt>
      <trkpt lat="48.01364" lon="5.55612">
        <ele>363.106</ele>
        <time>2019-09-24T12:29:19.001Z</time>
      </trkpt>
      <trkpt lat="48.01366" lon="5.55625">
        <ele>362.955</ele>
        <time>2019-09-24T12:29:22.001Z</time>
      </trkpt>
      <trkpt lat="48.01367" lon="5.55637">
        <ele>363.086</ele>
        <time>2019-09-24T12:29:25.001Z</time>
      </trkpt>
      <trkpt lat="48.01368" lon="5.55649">
        <ele>363.245</ele>
        <time>2019-09-24T12:29:28.001Z</time>
      </trkpt>
      <trkpt lat="48.0137" lon="5.55662">
        <ele>363.152</ele>
        <time>2019-09-24T12:29:31.001Z</time>
      </trkpt>
      <trkpt lat="48.01372" lon="5.55674">
        <ele>363.258</ele>
        <time>2019-09-24T12:29:34.001Z</time>
      </trkpt>
      <trkpt lat="48.01374" lon="5.55686">
        <ele>363.486</ele>
        <time>2019-09-24T12:29:37.001Z</time>
      </trkpt>
      <trkpt lat="48.01376" lon="5.55698">
        <ele>363.709</ele>
        <time>2019-09-24T12:29:40.001Z</time>
      </trkpt>
      <trkpt lat="48.01377" lon="5.55711">
        <ele>364.251</ele>
        <time>2019-09-24T12:29:43.001Z</time>
      </trkpt>
      <trkpt lat="48.01379" lon="5.55725">
        <ele>364.503</ele>
        <time>2019-09-24T12:29:46.001Z</time>
      </trkpt>
      <trkpt lat="48.0138" lon="5.5574">
        <ele>364.86</ele>
        <time>2019-09-24T12:29:49.001Z</time>
      </trkpt>
      <trkpt lat="48.01381" lon="5.55753">
        <ele>365.212</ele>
        <time>2019-09-24T12:29:52.001Z</time>
      </trkpt>
      <trkpt lat="48.01382" lon="5.55767">
        <ele>365.38</ele>
        <time>2019-09-24T12:29:55.001Z</time>
      </trkpt>
      <trkpt lat="48.01383" lon="5.55781">
        <ele>365.765</ele>
        <time>2019-09-24T12:29:58.001Z</time>
      </trkpt>
      <trkpt lat="48.01384" lon="5.55794">
        <ele>366.203</ele>
        <time>2019-09-24T12:30:01.001Z</time>
      </trkpt>
      <trkpt lat="48.01385" lon="5.55808">
        <ele>366.434</ele>
        <time>2019-09-24T12:30:04.001Z</time>
      </trkpt>
      <trkpt lat="48.01387" lon="5.55823">
        <ele>366.587</ele>
        <time>2019-09-24T12:30:07.001Z</time>
      </trkpt>
      <trkpt lat="48.01388" lon="5.55838">
        <ele>366.739</ele>
        <time>2019-09-24T12:30:10.001Z</time>
      </trkpt>
      <trkpt lat="48.01391" lon="5.55853">
        <ele>366.786</ele>
        <time>2019-09-24T12:30:13.001Z</time>
      </trkpt>
      <trkpt lat="48.01394" lon="5.55868">
        <ele>366.541</ele>
        <time>2019-09-24T14:30:16Z</time>
      </trkpt>
      <trkpt lat="48.01398" lon="5.55882">
        <ele>366.284</ele>
        <time>2019-09-24T12:30:19.001Z</time>
      </trkpt>
      <trkpt lat="48.01405" lon="5.55896">
        <ele>366.412</ele>
        <time>2019-09-24T12:30:22.001Z</time>
      </trkpt>
      <trkpt lat="48.01412" lon="5.5591">
        <ele>366.394</ele>
        <time>2019-09-24T12:30:25.001Z</time>
      </trkpt>
      <trkpt lat="48.0142" lon="5.55923">
        <ele>365.989</ele>
        <time>2019-09-24T12:30:28.001Z</time>
      </trkpt>
      <trkpt lat="48.0143" lon="5.55935">
        <ele>365.843</ele>
        <time>2019-09-24T12:30:31.001Z</time>
      </trkpt>
      <trkpt lat="48.0144" lon="5.55947">
        <ele>365.826</ele>
        <time>2019-09-24T12:30:34.001Z</time>
      </trkpt>
      <trkpt lat="48.0145" lon="5.55959">
        <ele>366.639</ele>
        <time>2019-09-24T12:30:37.001Z</time>
      </trkpt>
      <trkpt lat="48.01461" lon="5.55972">
        <ele>366.898</ele>
        <time>2019-09-24T12:30:40.001Z</time>
      </trkpt>
      <trkpt lat="48.01471" lon="5.55985">
        <ele>367.033</ele>
        <time>2019-09-24T12:30:43.001Z</time>
      </trkpt>
      <trkpt lat="48.01483" lon="5.55999">
        <ele>366.565</ele>
        <time>2019-09-24T12:30:46.001Z</time>
      </trkpt>
      <trkpt lat="48.01494" lon="5.56014">
        <ele>365.987</ele>
        <time>2019-09-24T12:30:49.001Z</time>
      </trkpt>
      <trkpt lat="48.01505" lon="5.56028">
        <ele>365.272</ele>
        <time>2019-09-24T12:30:52.001Z</time>
      </trkpt>
      <trkpt lat="48.01517" lon="5.56042">
        <ele>364.689</ele>
        <time>2019-09-24T12:30:55.001Z</time>
      </trkpt>
      <trkpt lat="48.01529" lon="5.56057">
        <ele>364.407</ele>
        <time>2019-09-24T12:30:58.001Z</time>
      </trkpt>
      <trkpt lat="48.01542" lon="5.56074">
        <ele>363.856</ele>
        <time>2019-09-24T12:31:01.001Z</time>
      </trkpt>
      <trkpt lat="48.01554" lon="5.56094">
        <ele>363.124</ele>
        <time>2019-09-24T12:31:04.001Z</time>
      </trkpt>
      <trkpt lat="48.01564" lon="5.5612">
        <ele>362.865</ele>
        <time>2019-09-24T12:31:07.001Z</time>
      </trkpt>
      <trkpt lat="48.01564" lon="5.56148">
        <ele>364.103</ele>
        <time>2019-09-24T12:31:10.001Z</time>
      </trkpt>
      <trkpt lat="48.01559" lon="5.56171">
        <ele>364.297</ele>
        <time>2019-09-24T12:31:13.001Z</time>
      </trkpt>
      <trkpt lat="48.01555" lon="5.56191">
        <ele>364.555</ele>
        <time>2019-09-24T14:31:16Z</time>
      </trkpt>
      <trkpt lat="48.01552" lon="5.56208">
        <ele>364.384</ele>
        <time>2019-09-24T12:31:19.001Z</time>
      </trkpt>
      <trkpt lat="48.01549" lon="5.56226">
        <ele>364.629</ele>
        <time>2019-09-24T12:31:22.001Z</time>
      </trkpt>
      <trkpt lat="48.01545" lon="5.56242">
        <ele>364.84</ele>
        <time>2019-09-24T12:31:25.001Z</time>
      </trkpt>
      <trkpt lat="48.01542" lon="5.56257">
        <ele>365.047</ele>
        <time>2019-09-24T12:31:28.001Z</time>
      </trkpt>
      <trkpt lat="48.01539" lon="5.56271">
        <ele>365.316</ele>
        <time>2019-09-24T12:31:31.001Z</time>
      </trkpt>
      <trkpt lat="48.01536" lon="5.56285">
        <ele>365.334</ele>
        <time>2019-09-24T12:31:34.001Z</time>
      </trkpt>
      <trkpt lat="48.01534" lon="5.56298">
        <ele>365.605</ele>
        <time>2019-09-24T12:31:37.001Z</time>
      </trkpt>
      <trkpt lat="48.01533" lon="5.56312">
        <ele>365.766</ele>
        <time>2019-09-24T12:31:40.001Z</time>
      </trkpt>
      <trkpt lat="48.01534" lon="5.56324">
        <ele>366.129</ele>
        <time>2019-09-24T12:31:43.001Z</time>
      </trkpt>
      <trkpt lat="48.01537" lon="5.56337">
        <ele>367.421</ele>
        <time>2019-09-24T12:31:46.001Z</time>
      </trkpt>
      <trkpt lat="48.0154" lon="5.56352">
        <ele>368.985</ele>
        <time>2019-09-24T12:31:49.001Z</time>
      </trkpt>
      <trkpt lat="48.0154" lon="5.56368">
        <ele>369.747</ele>
        <time>2019-09-24T12:31:52.001Z</time>
      </trkpt>
      <trkpt lat="48.01539" lon="5.56383">
        <ele>369.796</ele>
        <time>2019-09-24T12:31:55.001Z</time>
      </trkpt>
      <trkpt lat="48.01538" lon="5.56396">
        <ele>370.252</ele>
        <time>2019-09-24T12:31:58.001Z</time>
      </trkpt>
      <trkpt lat="48.01537" lon="5.56411">
        <ele>370.244</ele>
        <time>2019-09-24T12:32:01.001Z</time>
      </trkpt>
      <trkpt lat="48.01534" lon="5.56427">
        <ele>370.066</ele>
        <time>2019-09-24T12:32:04.001Z</time>
      </trkpt>
      <trkpt lat="48.0153" lon="5.56443">
        <ele>369.836</ele>
        <time>2019-09-24T12:32:07.001Z</time>
      </trkpt>
      <trkpt lat="48.01526" lon="5.56457">
        <ele>369.659</ele>
        <time>2019-09-24T12:32:10.001Z</time>
      </trkpt>
      <trkpt lat="48.01522" lon="5.56471">
        <ele>369.946</ele>
        <time>2019-09-24T12:32:13.001Z</time>
      </trkpt>
      <trkpt lat="48.01519" lon="5.56486">
        <ele>369.945</ele>
        <time>2019-09-24T14:32:16Z</time>
      </trkpt>
      <trkpt lat="48.01516" lon="5.56501">
        <ele>370.258</ele>
        <time>2019-09-24T12:32:19.001Z</time>
      </trkpt>
      <trkpt lat="48.01514" lon="5.56517">
        <ele>370.209</ele>
        <time>2019-09-24T12:32:22.001Z</time>
      </trkpt>
      <trkpt lat="48.0151" lon="5.56532">
        <ele>370.368</ele>
        <time>2019-09-24T12:32:25.001Z</time>
      </trkpt>
      <trkpt lat="48.01507" lon="5.56547">
        <ele>370.571</ele>
        <time>2019-09-24T12:32:28.001Z</time>
      </trkpt>
      <trkpt lat="48.01505" lon="5.56562">
        <ele>370.776</ele>
        <time>2019-09-24T12:32:31.001Z</time>
      </trkpt>
      <trkpt lat="48.01504" lon="5.56577">
        <ele>371.345</ele>
        <time>2019-09-24T12:32:34.001Z</time>
      </trkpt>
      <trkpt lat="48.01501" lon="5.56591">
        <ele>371.77</ele>
        <time>2019-09-24T12:32:37.001Z</time>
      </trkpt>
      <trkpt lat="48.01499" lon="5.56606">
        <ele>372.286</ele>
        <time>2019-09-24T12:32:40.001Z</time>
      </trkpt>
      <trkpt lat="48.01498" lon="5.56621">
        <ele>372.954</ele>
        <time>2019-09-24T12:32:43.001Z</time>
      </trkpt>
      <trkpt lat="48.01496" lon="5.56637">
        <ele>372.29</ele>
        <time>2019-09-24T12:32:46.001Z</time>
      </trkpt>
      <trkpt lat="48.01493" lon="5.56649">
        <ele>372.605</ele>
        <time>2019-09-24T12:32:49.001Z</time>
      </trkpt>
      <trkpt lat="48.01489" lon="5.56664">
        <ele>372.537</ele>
        <time>2019-09-24T12:32:52.001Z</time>
      </trkpt>
      <trkpt lat="48.01485" lon="5.56682">
        <ele>372.039</ele>
        <time>2019-09-24T12:32:55.001Z</time>
      </trkpt>
      <trkpt lat="48.0148" lon="5.56701">
        <ele>371.739</ele>
        <time>2019-09-24T12:32:58.001Z</time>
      </trkpt>
      <trkpt lat="48.01477" lon="5.56718">
        <ele>371.111</ele>
        <time>2019-09-24T12:33:01.001Z</time>
      </trkpt>
      <trkpt lat="48.01473" lon="5.56735">
        <ele>370.564</ele>
        <time>2019-09-24T12:33:04.001Z</time>
      </trkpt>
      <trkpt lat="48.0147" lon="5.5675">
        <ele>370.432</ele>
        <time>2019-09-24T12:33:07.001Z</time>
      </trkpt>
      <trkpt lat="48.01467" lon="5.56764">
        <ele>370.275</ele>
        <time>2019-09-24T12:33:10.001Z</time>
      </trkpt>
      <trkpt lat="48.01463" lon="5.56779">
        <ele>370.189</ele>
        <time>2019-09-24T12:33:13.001Z</time>
      </trkpt>
      <trkpt lat="48.01459" lon="5.56794">
        <ele>370.014</ele>
        <time>2019-09-24T14:33:16Z</time>
      </trkpt>
      <trkpt lat="48.01456" lon="5.56808">
        <ele>370.45</ele>
        <time>2019-09-24T12:33:19.001Z</time>
      </trkpt>
      <trkpt lat="48.01454" lon="5.56821">
        <ele>370.829</ele>
        <time>2019-09-24T12:33:22.001Z</time>
      </trkpt>
      <trkpt lat="48.01451" lon="5.56833">
        <ele>370.959</ele>
        <time>2019-09-24T12:33:25.001Z</time>
      </trkpt>
      <trkpt lat="48.01448" lon="5.56845">
        <ele>371.14</ele>
        <time>2019-09-24T12:33:28.001Z</time>
      </trkpt>
      <trkpt lat="48.01445" lon="5.56858">
        <ele>371.024</ele>
        <time>2019-09-24T12:33:31.001Z</time>
      </trkpt>
      <trkpt lat="48.01442" lon="5.5687">
        <ele>370.82</ele>
        <time>2019-09-24T12:33:34.001Z</time>
      </trkpt>
      <trkpt lat="48.01439" lon="5.56882">
        <ele>370.528</ele>
        <time>2019-09-24T12:33:37.001Z</time>
      </trkpt>
      <trkpt lat="48.01436" lon="5.56894">
        <ele>370.537</ele>
        <time>2019-09-24T12:33:40.001Z</time>
      </trkpt>
      <trkpt lat="48.01433" lon="5.56906">
        <ele>370.715</ele>
        <time>2019-09-24T12:33:43.001Z</time>
      </trkpt>
      <trkpt lat="48.01431" lon="5.56917">
        <ele>370.973</ele>
        <time>2019-09-24T12:33:46.001Z</time>
      </trkpt>
      <trkpt lat="48.01429" lon="5.56928">
        <ele>371.545</ele>
        <time>2019-09-24T12:33:49.001Z</time>
      </trkpt>
      <trkpt lat="48.01426" lon="5.5694">
        <ele>371.88</ele>
        <time>2019-09-24T12:33:52.001Z</time>
      </trkpt>
      <trkpt lat="48.01423" lon="5.56951">
        <ele>372.341</ele>
        <time>2019-09-24T12:33:55.001Z</time>
      </trkpt>
      <trkpt lat="48.01421" lon="5.56963">
        <ele>372.568</ele>
        <time>2019-09-24T12:33:58.001Z</time>
      </trkpt>
      <trkpt lat="48.01419" lon="5.56974">
        <ele>372.636</ele>
        <time>2019-09-24T12:34:01.001Z</time>
      </trkpt>
      <trkpt lat="48.01417" lon="5.56985">
        <ele>372.876</ele>
        <time>2019-09-24T12:34:04.001Z</time>
      </trkpt>
      <trkpt lat="48.01415" lon="5.56995">
        <ele>373.046</ele>
        <time>2019-09-24T12:34:07.001Z</time>
      </trkpt>
      <trkpt lat="48.01414" lon="5.57006">
        <ele>373.25</ele>
        <time>2019-09-24T12:34:10.001Z</time>
      </trkpt>
      <trkpt lat="48.01412" lon="5.57017">
        <ele>373.621</ele>
        <time>2019-09-24T12:34:13.001Z</time>
      </trkpt>
      <trkpt lat="48.0141" lon="5.57029">
        <ele>373.942</ele>
        <time>2019-09-24T14:34:16Z</time>
      </trkpt>
      <trkpt lat="48.01408" lon="5.5704">
        <ele>373.81</ele>
        <time>2019-09-24T12:34:19.001Z</time>
      </trkpt>
      <trkpt lat="48.01407" lon="5.57051">
        <ele>373.98</ele>
        <time>2019-09-24T12:34:22.001Z</time>
      </trkpt>
      <trkpt lat="48.01406" lon="5.57061">
        <ele>374.306</ele>
        <time>2019-09-24T12:34:25.001Z</time>
      </trkpt>
      <trkpt lat="48.01405" lon="5.57071">
        <ele>374.395</ele>
        <time>2019-09-24T12:34:28.001Z</time>
      </trkpt>
      <trkpt lat="48.01403" lon="5.57082">
        <ele>374.627</ele>
        <time>2019-09-24T12:34:31.001Z</time>
      </trkpt>
      <trkpt lat="48.01403" lon="5.57093">
        <ele>374.722</ele>
        <time>2019-09-24T12:34:34.001Z</time>
      </trkpt>
      <trkpt lat="48.01401" lon="5.57104">
        <ele>374.996</ele>
        <time>2019-09-24T12:34:37.001Z</time>
      </trkpt>
      <trkpt lat="48.014" lon="5.57114">
        <ele>375.436</ele>
        <time>2019-09-24T12:34:40.001Z</time>
      </trkpt>
      <trkpt lat="48.01399" lon="5.57125">
        <ele>375.916</ele>
        <time>2019-09-24T12:34:43.001Z</time>
      </trkpt>
      <trkpt lat="48.01398" lon="5.57135">
        <ele>376.642</ele>
        <time>2019-09-24T12:34:46.001Z</time>
      </trkpt>
      <trkpt lat="48.01397" lon="5.57146">
        <ele>377.14</ele>
        <time>2019-09-24T12:34:49.001Z</time>
      </trkpt>
      <trkpt lat="48.01397" lon="5.57156">
        <ele>377.245</ele>
        <time>2019-09-24T12:34:52.001Z</time>
      </trkpt>
      <trkpt lat="48.01396" lon="5.57168">
        <ele>377.533</ele>
        <time>2019-09-24T12:34:55.001Z</time>
      </trkpt>
      <trkpt lat="48.01395" lon="5.57179">
        <ele>378.198</ele>
        <time>2019-09-24T12:34:58.001Z</time>
      </trkpt>
      <trkpt lat="48.01395" lon="5.5719">
        <ele>378.848</ele>
        <time>2019-09-24T12:35:01.001Z</time>
      </trkpt>
      <trkpt lat="48.01394" lon="5.57203">
        <ele>379.169</ele>
        <time>2019-09-24T12:35:04.001Z</time>
      </trkpt>
      <trkpt lat="48.01394" lon="5.57214">
        <ele>379.314</ele>
        <time>2019-09-24T12:35:07.001Z</time>
      </trkpt>
      <trkpt lat="48.01394" lon="5.57224">
        <ele>379.296</ele>
        <time>2019-09-24T12:35:10.001Z</time>
      </trkpt>
      <trkpt lat="48.01394" lon="5.57233">
        <ele>379.189</ele>
        <time>2019-09-24T12:35:13.001Z</time>
      </trkpt>
      <trkpt lat="48.01394" lon="5.57244">
        <ele>379.254</ele>
        <time>2019-09-24T14:35:16Z</time>
      </trkpt>
      <trkpt lat="48.01395" lon="5.57256">
        <ele>379.82</ele>
        <time>2019-09-24T12:35:19.001Z</time>
      </trkpt>
      <trkpt lat="48.01398" lon="5.57269">
        <ele>380.72</ele>
        <time>2019-09-24T12:35:22.001Z</time>
      </trkpt>
      <trkpt lat="48.01401" lon="5.5728">
        <ele>381.234</ele>
        <time>2019-09-24T12:35:25.001Z</time>
      </trkpt>
      <trkpt lat="48.01406" lon="5.5729">
        <ele>381.836</ele>
        <time>2019-09-24T12:35:28.001Z</time>
      </trkpt>
      <trkpt lat="48.01412" lon="5.573">
        <ele>382.165</ele>
        <time>2019-09-24T12:35:31.001Z</time>
      </trkpt>
      <trkpt lat="48.01417" lon="5.5731">
        <ele>382.535</ele>
        <time>2019-09-24T12:35:34.001Z</time>
      </trkpt>
      <trkpt lat="48.01423" lon="5.57321">
        <ele>382.398</ele>
        <time>2019-09-24T12:35:37.001Z</time>
      </trkpt>
      <trkpt lat="48.01429" lon="5.57331">
        <ele>382.542</ele>
        <time>2019-09-24T12:35:40.001Z</time>
      </trkpt>
      <trkpt lat="48.01436" lon="5.57342">
        <ele>382.545</ele>
        <time>2019-09-24T12:35:43.001Z</time>
      </trkpt>
      <trkpt lat="48.01444" lon="5.57353">
        <ele>381.942</ele>
        <time>2019-09-24T12:35:46.001Z</time>
      </trkpt>
      <trkpt lat="48.01451" lon="5.57367">
        <ele>381.592</ele>
        <time>2019-09-24T12:35:49.001Z</time>
      </trkpt>
      <trkpt lat="48.01459" lon="5.57381">
        <ele>381.062</ele>
        <time>2019-09-24T12:35:52.001Z</time>
      </trkpt>
      <trkpt lat="48.01468" lon="5.57396">
        <ele>380.705</ele>
        <time>2019-09-24T12:35:55.001Z</time>
      </trkpt>
      <trkpt lat="48.01477" lon="5.57413">
        <ele>380.529</ele>
        <time>2019-09-24T12:35:58.001Z</time>
      </trkpt>
      <trkpt lat="48.01487" lon="5.57429">
        <ele>380.038</ele>
        <time>2019-09-24T12:36:01.001Z</time>
      </trkpt>
      <trkpt lat="48.01497" lon="5.57447">
        <ele>379.152</ele>
        <time>2019-09-24T12:36:04.001Z</time>
      </trkpt>
      <trkpt lat="48.01507" lon="5.57464">
        <ele>378.449</ele>
        <time>2019-09-24T12:36:07.001Z</time>
      </trkpt>
      <trkpt lat="48.01517" lon="5.57483">
        <ele>377.558</ele>
        <time>2019-09-24T12:36:10.001Z</time>
      </trkpt>
      <trkpt lat="48.01526" lon="5.57503">
        <ele>377.089</ele>
        <time>2019-09-24T12:36:13.001Z</time>
      </trkpt>
      <trkpt lat="48.01532" lon="5.57525">
        <ele>377.087</ele>
        <time>2019-09-24T14:36:16Z</time>
      </trkpt>
      <trkpt lat="48.01536" lon="5.57549">
        <ele>376.625</ele>
        <time>2019-09-24T12:36:19.001Z</time>
      </trkpt>
      <trkpt lat="48.0154" lon="5.5757">
        <ele>376.079</ele>
        <time>2019-09-24T12:36:22.001Z</time>
      </trkpt>
      <trkpt lat="48.01545" lon="5.57591">
        <ele>375.696</ele>
        <time>2019-09-24T12:36:25.001Z</time>
      </trkpt>
      <trkpt lat="48.01551" lon="5.57612">
        <ele>375.395</ele>
        <time>2019-09-24T12:36:28.001Z</time>
      </trkpt>
      <trkpt lat="48.01558" lon="5.57631">
        <ele>375.063</ele>
        <time>2019-09-24T12:36:31.001Z</time>
      </trkpt>
      <trkpt lat="48.01565" lon="5.57648">
        <ele>374.892</ele>
        <time>2019-09-24T12:36:34.001Z</time>
      </trkpt>
      <trkpt lat="48.01572" lon="5.57665">
        <ele>374.885</ele>
        <time>2019-09-24T12:36:37.001Z</time>
      </trkpt>
      <trkpt lat="48.0158" lon="5.57681">
        <ele>374.371</ele>
        <time>2019-09-24T12:36:40.001Z</time>
      </trkpt>
      <trkpt lat="48.01589" lon="5.57696">
        <ele>374.307</ele>
        <time>2019-09-24T12:36:43.001Z</time>
      </trkpt>
      <trkpt lat="48.01597" lon="5.5771">
        <ele>373.897</ele>
        <time>2019-09-24T12:36:46.001Z</time>
      </trkpt>
      <trkpt lat="48.01607" lon="5.57724">
        <ele>374.126</ele>
        <time>2019-09-24T12:36:49.001Z</time>
      </trkpt>
      <trkpt lat="48.01618" lon="5.57738">
        <ele>374.291</ele>
        <time>2019-09-24T12:36:52.001Z</time>
      </trkpt>
      <trkpt lat="48.0163" lon="5.57751">
        <ele>374.698</ele>
        <time>2019-09-24T12:36:55.001Z</time>
      </trkpt>
      <trkpt lat="48.01643" lon="5.57765">
        <ele>374.525</ele>
        <time>2019-09-24T12:36:58.001Z</time>
      </trkpt>
      <trkpt lat="48.01656" lon="5.57779">
        <ele>374.427</ele>
        <time>2019-09-24T12:37:01.001Z</time>
      </trkpt>
      <trkpt lat="48.01669" lon="5.57796">
        <ele>374.208</ele>
        <time>2019-09-24T12:37:04.001Z</time>
      </trkpt>
      <trkpt lat="48.01679" lon="5.57817">
        <ele>373.931</ele>
        <time>2019-09-24T12:37:07.001Z</time>
      </trkpt>
      <trkpt lat="48.01686" lon="5.5784">
        <ele>374.239</ele>
        <time>2019-09-24T12:37:10.001Z</time>
      </trkpt>
      <trkpt lat="48.01692" lon="5.57863">
        <ele>373.092</ele>
        <time>2019-09-24T12:37:13.001Z</time>
      </trkpt>
      <trkpt lat="48.01699" lon="5.57888">
        <ele>372.622</ele>
        <time>2019-09-24T14:37:16Z</time>
      </trkpt>
      <trkpt lat="48.01706" lon="5.57912">
        <ele>372.466</ele>
        <time>2019-09-24T12:37:19.001Z</time>
      </trkpt>
      <trkpt lat="48.01714" lon="5.57935">
        <ele>372.525</ele>
        <time>2019-09-24T12:37:22.001Z</time>
      </trkpt>
      <trkpt lat="48.01721" lon="5.57959">
        <ele>372.148</ele>
        <time>2019-09-24T12:37:25.001Z</time>
      </trkpt>
      <trkpt lat="48.01728" lon="5.57981">
        <ele>372.286</ele>
        <time>2019-09-24T12:37:28.001Z</time>
      </trkpt>
      <trkpt lat="48.01733" lon="5.58004">
        <ele>372.567</ele>
        <time>2019-09-24T12:37:31.001Z</time>
      </trkpt>
      <trkpt lat="48.01737" lon="5.58025">
        <ele>372.343</ele>
        <time>2019-09-24T12:37:34.001Z</time>
      </trkpt>
      <trkpt lat="48.0174" lon="5.58046">
        <ele>372.096</ele>
        <time>2019-09-24T12:37:37.001Z</time>
      </trkpt>
      <trkpt lat="48.01741" lon="5.58067">
        <ele>371.63</ele>
        <time>2019-09-24T12:37:40.001Z</time>
      </trkpt>
      <trkpt lat="48.01742" lon="5.58087">
        <ele>371.21</ele>
        <time>2019-09-24T12:37:43.001Z</time>
      </trkpt>
      <trkpt lat="48.01741" lon="5.58106">
        <ele>371.141</ele>
        <time>2019-09-24T12:37:46.001Z</time>
      </trkpt>
      <trkpt lat="48.01739" lon="5.58123">
        <ele>371.343</ele>
        <time>2019-09-24T12:37:49.001Z</time>
      </trkpt>
      <trkpt lat="48.01736" lon="5.5814">
        <ele>371.454</ele>
        <time>2019-09-24T12:37:52.001Z</time>
      </trkpt>
      <trkpt lat="48.01733" lon="5.58157">
        <ele>371.374</ele>
        <time>2019-09-24T12:37:55.001Z</time>
      </trkpt>
      <trkpt lat="48.01729" lon="5.58174">
        <ele>371.249</ele>
        <time>2019-09-24T12:37:58.001Z</time>
      </trkpt>
      <trkpt lat="48.01726" lon="5.58191">
        <ele>370.84</ele>
        <time>2019-09-24T12:38:01.001Z</time>
      </trkpt>
      <trkpt lat="48.01722" lon="5.58208">
        <ele>370.925</ele>
        <time>2019-09-24T12:38:04.001Z</time>
      </trkpt>
      <trkpt lat="48.01718" lon="5.58225">
        <ele>370.629</ele>
        <time>2019-09-24T12:38:07.001Z</time>
      </trkpt>
      <trkpt lat="48.01714" lon="5.5824">
        <ele>370.838</ele>
        <time>2019-09-24T12:38:10.001Z</time>
      </trkpt>
      <trkpt lat="48.0171" lon="5.58257">
        <ele>370.388</ele>
        <time>2019-09-24T12:38:13.001Z</time>
      </trkpt>
      <trkpt lat="48.01707" lon="5.58275">
        <ele>369.79</ele>
        <time>2019-09-24T14:38:16Z</time>
      </trkpt>
      <trkpt lat="48.01705" lon="5.58293">
        <ele>369.457</ele>
        <time>2019-09-24T12:38:19.001Z</time>
      </trkpt>
      <trkpt lat="48.01702" lon="5.5831">
        <ele>368.708</ele>
        <time>2019-09-24T12:38:22.001Z</time>
      </trkpt>
      <trkpt lat="48.017" lon="5.58327">
        <ele>368.675</ele>
        <time>2019-09-24T12:38:25.001Z</time>
      </trkpt>
      <trkpt lat="48.01698" lon="5.58344">
        <ele>368.832</ele>
        <time>2019-09-24T12:38:28.001Z</time>
      </trkpt>
      <trkpt lat="48.01696" lon="5.58361">
        <ele>368.989</ele>
        <time>2019-09-24T12:38:31.001Z</time>
      </trkpt>
      <trkpt lat="48.01693" lon="5.5838">
        <ele>369.018</ele>
        <time>2019-09-24T12:38:34.001Z</time>
      </trkpt>
      <trkpt lat="48.01691" lon="5.58398">
        <ele>368.939</ele>
        <time>2019-09-24T12:38:37.001Z</time>
      </trkpt>
      <trkpt lat="48.0169" lon="5.58416">
        <ele>369.068</ele>
        <time>2019-09-24T12:38:40.001Z</time>
      </trkpt>
      <trkpt lat="48.01688" lon="5.58433">
        <ele>368.846</ele>
        <time>2019-09-24T12:38:43.001Z</time>
      </trkpt>
      <trkpt lat="48.01688" lon="5.5845">
        <ele>368.727</ele>
        <time>2019-09-24T12:38:46.001Z</time>
      </trkpt>
      <trkpt lat="48.01691" lon="5.58468">
        <ele>368.346</ele>
        <time>2019-09-24T12:38:49.001Z</time>
      </trkpt>
      <trkpt lat="48.01696" lon="5.58484">
        <ele>368.133</ele>
        <time>2019-09-24T12:38:52.001Z</time>
      </trkpt>
      <trkpt lat="48.01704" lon="5.58497">
        <ele>368.678</ele>
        <time>2019-09-24T12:38:55.001Z</time>
      </trkpt>
      <trkpt lat="48.01714" lon="5.58507">
        <ele>369.046</ele>
        <time>2019-09-24T12:38:58.001Z</time>
      </trkpt>
      <trkpt lat="48.01726" lon="5.58515">
        <ele>368.921</ele>
        <time>2019-09-24T12:39:01.001Z</time>
      </trkpt>
      <trkpt lat="48.01739" lon="5.58524">
        <ele>369.709</ele>
        <time>2019-09-24T12:39:04.001Z</time>
      </trkpt>
      <trkpt lat="48.01752" lon="5.58532">
        <ele>369.859</ele>
        <time>2019-09-24T12:39:07.001Z</time>
      </trkpt>
      <trkpt lat="48.01766" lon="5.58542">
        <ele>370.093</ele>
        <time>2019-09-24T12:39:10.001Z</time>
      </trkpt>
      <trkpt lat="48.01777" lon="5.58555">
        <ele>371.58</ele>
        <time>2019-09-24T12:39:13.001Z</time>
      </trkpt>
      <trkpt lat="48.01783" lon="5.5857">
        <ele>372.302</ele>
        <time>2019-09-24T14:39:16Z</time>
      </trkpt>
      <trkpt lat="48.01785" lon="5.58588">
        <ele>372.955</ele>
        <time>2019-09-24T12:39:19.001Z</time>
      </trkpt>
      <trkpt lat="48.01789" lon="5.58602">
        <ele>373.72</ele>
        <time>2019-09-24T12:39:22.001Z</time>
      </trkpt>
      <trkpt lat="48.01798" lon="5.58615">
        <ele>374.027</ele>
        <time>2019-09-24T12:39:25.001Z</time>
      </trkpt>
      <trkpt lat="48.01806" lon="5.58632">
        <ele>374.344</ele>
        <time>2019-09-24T12:39:28.001Z</time>
      </trkpt>
      <trkpt lat="48.01808" lon="5.58652">
        <ele>374.835</ele>
        <time>2019-09-24T12:39:31.001Z</time>
      </trkpt>
      <trkpt lat="48.01806" lon="5.58675">
        <ele>375.472</ele>
        <time>2019-09-24T12:39:34.001Z</time>
      </trkpt>
      <trkpt lat="48.01812" lon="5.58699">
        <ele>375.69</ele>
        <time>2019-09-24T12:39:37.001Z</time>
      </trkpt>
      <trkpt lat="48.01823" lon="5.58725">
        <ele>375.11</ele>
        <time>2019-09-24T12:39:40.001Z</time>
      </trkpt>
      <trkpt lat="48.01828" lon="5.58753">
        <ele>374.184</ele>
        <time>2019-09-24T12:39:43.001Z</time>
      </trkpt>
      <trkpt lat="48.01823" lon="5.58781">
        <ele>374.061</ele>
        <time>2019-09-24T12:39:46.001Z</time>
      </trkpt>
      <trkpt lat="48.01817" lon="5.58805">
        <ele>374.051</ele>
        <time>2019-09-24T12:39:49.001Z</time>
      </trkpt>
      <trkpt lat="48.01811" lon="5.58825">
        <ele>373.582</ele>
        <time>2019-09-24T12:39:52.001Z</time>
      </trkpt>
      <trkpt lat="48.01807" lon="5.58846">
        <ele>371.893</ele>
        <time>2019-09-24T12:39:55.001Z</time>
      </trkpt>
      <trkpt lat="48.01804" lon="5.58864">
        <ele>371.358</ele>
        <time>2019-09-24T12:39:58.001Z</time>
      </trkpt>
      <trkpt lat="48.018" lon="5.58883">
        <ele>370.977</ele>
        <time>2019-09-24T12:40:01.001Z</time>
      </trkpt>
      <trkpt lat="48.01797" lon="5.58901">
        <ele>370.672</ele>
        <time>2019-09-24T12:40:04.001Z</time>
      </trkpt>
      <trkpt lat="48.01793" lon="5.58916">
        <ele>369.973</ele>
        <time>2019-09-24T12:40:07.001Z</time>
      </trkpt>
      <trkpt lat="48.01787" lon="5.58927">
        <ele>369.769</ele>
        <time>2019-09-24T12:40:10.001Z</time>
      </trkpt>
      <trkpt lat="48.01781" lon="5.58941">
        <ele>369.847</ele>
        <time>2019-09-24T12:40:13.001Z</time>
      </trkpt>
      <trkpt lat="48.01775" lon="5.58952">
        <ele>371.532</ele>
        <time>2019-09-24T14:40:16Z</time>
      </trkpt>
      <trkpt lat="48.01767" lon="5.58962">
        <ele>372.007</ele>
        <time>2019-09-24T12:40:19.001Z</time>
      </trkpt>
      <trkpt lat="48.01758" lon="5.58967">
        <ele>372.6</ele>
        <time>2019-09-24T12:40:22.001Z</time>
      </trkpt>
      <trkpt lat="48.01747" lon="5.58972">
        <ele>372.497</ele>
        <time>2019-09-24T12:40:25.001Z</time>
      </trkpt>
      <trkpt lat="48.01737" lon="5.58976">
        <ele>371.804</ele>
        <time>2019-09-24T12:40:28.001Z</time>
      </trkpt>
      <trkpt lat="48.01726" lon="5.58979">
        <ele>372.187</ele>
        <time>2019-09-24T12:40:31.001Z</time>
      </trkpt>
      <trkpt lat="48.01716" lon="5.58983">
        <ele>372.518</ele>
        <time>2019-09-24T12:40:34.001Z</time>
      </trkpt>
      <trkpt lat="48.01706" lon="5.58989">
        <ele>372.813</ele>
        <time>2019-09-24T12:40:37.001Z</time>
      </trkpt>
      <trkpt lat="48.01696" lon="5.58996">
        <ele>372.8</ele>
        <time>2019-09-24T12:40:40.001Z</time>
      </trkpt>
      <trkpt lat="48.01687" lon="5.59006">
        <ele>373.01</ele>
        <time>2019-09-24T12:40:43.001Z</time>
      </trkpt>
      <trkpt lat="48.01681" lon="5.59017">
        <ele>373.248</ele>
        <time>2019-09-24T12:40:46.001Z</time>
      </trkpt>
      <trkpt lat="48.01679" lon="5.59031">
        <ele>373.692</ele>
        <time>2019-09-24T12:40:49.001Z</time>
      </trkpt>
      <trkpt lat="48.01676" lon="5.59046">
        <ele>373.847</ele>
        <time>2019-09-24T12:40:52.001Z</time>
      </trkpt>
      <trkpt lat="48.01672" lon="5.59061">
        <ele>373.971</ele>
        <time>2019-09-24T12:40:55.001Z</time>
      </trkpt>
      <trkpt lat="48.01665" lon="5.59074">
        <ele>373.713</ele>
        <time>2019-09-24T12:40:58.001Z</time>
      </trkpt>
      <trkpt lat="48.01658" lon="5.59088">
        <ele>374.22</ele>
        <time>2019-09-24T12:41:01.001Z</time>
      </trkpt>
      <trkpt lat="48.01652" lon="5.591">
        <ele>373.895</ele>
        <time>2019-09-24T12:41:04.001Z</time>
      </trkpt>
      <trkpt lat="48.01645" lon="5.59109">
        <ele>373.435</ele>
        <time>2019-09-24T12:41:07.001Z</time>
      </trkpt>
      <trkpt lat="48.01638" lon="5.59117">
        <ele>373.301</ele>
        <time>2019-09-24T12:41:10.001Z</time>
      </trkpt>
      <trkpt lat="48.01631" lon="5.59124">
        <ele>373.047</ele>
        <time>2019-09-24T12:41:13.001Z</time>
      </trkpt>
      <trkpt lat="48.01623" lon="5.59128">
        <ele>372.921</ele>
        <time>2019-09-24T14:41:16Z</time>
      </trkpt>
      <trkpt lat="48.01618" lon="5.59139">
        <ele>372.953</ele>
        <time>2019-09-24T12:41:19.001Z</time>
      </trkpt>
      <trkpt lat="48.01617" lon="5.59153">
        <ele>373.122</ele>
        <time>2019-09-24T12:41:22.001Z</time>
      </trkpt>
      <trkpt lat="48.0161" lon="5.59168">
        <ele>373.601</ele>
        <time>2019-09-24T12:41:25.001Z</time>
      </trkpt>
      <trkpt lat="48.01603" lon="5.5918">
        <ele>374.25</ele>
        <time>2019-09-24T12:41:28.001Z</time>
      </trkpt>
      <trkpt lat="48.01597" lon="5.59192">
        <ele>374.419</ele>
        <time>2019-09-24T12:41:31.001Z</time>
      </trkpt>
      <trkpt lat="48.0159" lon="5.59203">
        <ele>374.849</ele>
        <time>2019-09-24T12:41:34.001Z</time>
      </trkpt>
      <trkpt lat="48.01582" lon="5.5921">
        <ele>375.497</ele>
        <time>2019-09-24T12:41:37.001Z</time>
      </trkpt>
      <trkpt lat="48.01574" lon="5.59214">
        <ele>375.288</ele>
        <time>2019-09-24T12:41:40.001Z</time>
      </trkpt>
      <trkpt lat="48.01567" lon="5.59218">
        <ele>375.601</ele>
        <time>2019-09-24T12:41:43.001Z</time>
      </trkpt>
      <trkpt lat="48.01559" lon="5.59221">
        <ele>375.874</ele>
        <time>2019-09-24T12:41:46.001Z</time>
      </trkpt>
      <trkpt lat="48.01553" lon="5.59226">
        <ele>376.247</ele>
        <time>2019-09-24T12:41:49.001Z</time>
      </trkpt>
      <trkpt lat="48.01546" lon="5.59229">
        <ele>376.526</ele>
        <time>2019-09-24T12:41:52.001Z</time>
      </trkpt>
      <trkpt lat="48.01537" lon="5.59233">
        <ele>376.642</ele>
        <time>2019-09-24T12:41:55.001Z</time>
      </trkpt>
      <trkpt lat="48.01527" lon="5.5924">
        <ele>375.973</ele>
        <time>2019-09-24T12:41:58.001Z</time>
      </trkpt>
      <trkpt lat="48.01517" lon="5.59247">
        <ele>374.758</ele>
        <time>2019-09-24T12:42:01.001Z</time>
      </trkpt>
      <trkpt lat="48.01509" lon="5.59255">
        <ele>374.067</ele>
        <time>2019-09-24T12:42:04.001Z</time>
      </trkpt>
      <trkpt lat="48.01501" lon="5.59265">
        <ele>373.877</ele>
        <time>2019-09-24T12:42:07.001Z</time>
      </trkpt>
      <trkpt lat="48.01495" lon="5.59273">
        <ele>373.798</ele>
        <time>2019-09-24T12:42:10.001Z</time>
      </trkpt>
      <trkpt lat="48.01489" lon="5.59282">
        <ele>373.437</ele>
        <time>2019-09-24T12:42:13.001Z</time>
      </trkpt>
      <trkpt lat="48.01484" lon="5.59291">
        <ele>373.286</ele>
        <time>2019-09-24T14:42:16Z</time>
      </trkpt>
      <trkpt lat="48.01479" lon="5.59299">
        <ele>373.614</ele>
        <time>2019-09-24T12:42:19.001Z</time>
      </trkpt>
      <trkpt lat="48.01473" lon="5.59306">
        <ele>373.813</ele>
        <time>2019-09-24T12:42:22.001Z</time>
      </trkpt>
      <trkpt lat="48.01469" lon="5.59316">
        <ele>373.896</ele>
        <time>2019-09-24T12:42:25.001Z</time>
      </trkpt>
      <trkpt lat="48.01464" lon="5.59324">
        <ele>374.503</ele>
        <time>2019-09-24T12:42:28.001Z</time>
      </trkpt>
      <trkpt lat="48.01459" lon="5.59331">
        <ele>374.743</ele>
        <time>2019-09-24T12:42:31.001Z</time>
      </trkpt>
      <trkpt lat="48.01454" lon="5.59337">
        <ele>375.358</ele>
        <time>2019-09-24T12:42:34.001Z</time>
      </trkpt>
      <trkpt lat="48.01449" lon="5.59344">
        <ele>376.119</ele>
        <time>2019-09-24T12:42:37.001Z</time>
      </trkpt>
      <trkpt lat="48.01444" lon="5.59351">
        <ele>377.112</ele>
        <time>2019-09-24T12:42:40.001Z</time>
      </trkpt>
      <trkpt lat="48.01439" lon="5.59357">
        <ele>377.866</ele>
        <time>2019-09-24T12:42:43.001Z</time>
      </trkpt>
      <trkpt lat="48.01433" lon="5.5936">
        <ele>379.009</ele>
        <time>2019-09-24T12:42:46.001Z</time>
      </trkpt>
      <trkpt lat="48.01429" lon="5.59367">
        <ele>380.074</ele>
        <time>2019-09-24T12:42:49.001Z</time>
      </trkpt>
      <trkpt lat="48.01425" lon="5.59374">
        <ele>380.995</ele>
        <time>2019-09-24T12:42:52.001Z</time>
      </trkpt>
      <trkpt lat="48.0142" lon="5.59381">
        <ele>381.664</ele>
        <time>2019-09-24T12:42:55.001Z</time>
      </trkpt>
      <trkpt lat="48.01416" lon="5.59389">
        <ele>381.919</ele>
        <time>2019-09-24T12:42:58.001Z</time>
      </trkpt>
      <trkpt lat="48.01412" lon="5.59396">
        <ele>381.966</ele>
        <time>2019-09-24T12:43:01.001Z</time>
      </trkpt>
      <trkpt lat="48.01409" lon="5.59404">
        <ele>382.022</ele>
        <time>2019-09-24T12:43:04.001Z</time>
      </trkpt>
      <trkpt lat="48.01405" lon="5.5941">
        <ele>381.776</ele>
        <time>2019-09-24T12:43:07.001Z</time>
      </trkpt>
      <trkpt lat="48.01401" lon="5.59416">
        <ele>381.78</ele>
        <time>2019-09-24T12:43:10.001Z</time>
      </trkpt>
      <trkpt lat="48.014" lon="5.59417">
        <ele>382.2</ele>
        <time>2019-09-24T12:43:13.001Z</time>
      </trkpt>
      <trkpt lat="48.014" lon="5.59417">
        <ele>382.2</ele>
        <time>2019-09-24T14:43:16Z</time>
      </trkpt>
      <trkpt lat="48.014" lon="5.59417">
        <ele>382.2</ele>
        <time>2019-09-24T12:45:28.001Z</time>
      </trkpt>
      <trkpt lat="48.01399" lon="5.59417">
        <ele>382.066</ele>
        <time>2019-09-24T12:45:31.001Z</time>
      </trkpt>
      <trkpt lat="48.01396" lon="5.59423">
        <ele>381.881</ele>
        <time>2019-09-24T12:45:34.001Z</time>
      </trkpt>
      <trkpt lat="48.0139" lon="5.59431">
        <ele>381.773</ele>
        <time>2019-09-24T12:45:37.001Z</time>
      </trkpt>
      <trkpt lat="48.01383" lon="5.59437">
        <ele>381.854</ele>
        <time>2019-09-24T12:45:40.001Z</time>
      </trkpt>
      <trkpt lat="48.01376" lon="5.59445">
        <ele>382.082</ele>
        <time>2019-09-24T12:45:43.001Z</time>
      </trkpt>
      <trkpt lat="48.01369" lon="5.59453">
        <ele>382.147</ele>
        <time>2019-09-24T12:45:46.001Z</time>
      </trkpt>
      <trkpt lat="48.01363" lon="5.59463">
        <ele>382.196</ele>
        <time>2019-09-24T12:45:49.001Z</time>
      </trkpt>
      <trkpt lat="48.01356" lon="5.59472">
        <ele>381.967</ele>
        <time>2019-09-24T12:45:52.001Z</time>
      </trkpt>
      <trkpt lat="48.01349" lon="5.59481">
        <ele>381.861</ele>
        <time>2019-09-24T12:45:55.001Z</time>
      </trkpt>
      <trkpt lat="48.01341" lon="5.59491">
        <ele>381.644</ele>
        <time>2019-09-24T12:45:58.001Z</time>
      </trkpt>
      <trkpt lat="48.01333" lon="5.595">
        <ele>381.545</ele>
        <time>2019-09-24T12:46:01.001Z</time>
      </trkpt>
      <trkpt lat="48.01325" lon="5.5951">
        <ele>381.768</ele>
        <time>2019-09-24T12:46:04.001Z</time>
      </trkpt>
      <trkpt lat="48.01317" lon="5.59518">
        <ele>381.797</ele>
        <time>2019-09-24T12:46:07.001Z</time>
      </trkpt>
      <trkpt lat="48.01309" lon="5.59526">
        <ele>381.775</ele>
        <time>2019-09-24T12:46:10.001Z</time>
      </trkpt>
      <trkpt lat="48.01301" lon="5.59534">
        <ele>382.412</ele>
        <time>2019-09-24T12:46:13.001Z</time>
      </trkpt>
      <trkpt lat="48.01293" lon="5.59541">
        <ele>382.144</ele>
        <time>2019-09-24T14:46:16Z</time>
      </trkpt>
      <trkpt lat="48.01284" lon="5.59548">
        <ele>381.998</ele>
        <time>2019-09-24T12:46:19.001Z</time>
      </trkpt>
      <trkpt lat="48.01276" lon="5.59555">
        <ele>381.761</ele>
        <time>2019-09-24T12:46:22.001Z</time>
      </trkpt>
      <trkpt lat="48.01267" lon="5.5956">
        <ele>381.201</ele>
        <time>2019-09-24T12:46:25.001Z</time>
      </trkpt>
      <trkpt lat="48.01258" lon="5.59566">
        <ele>380.809</ele>
        <time>2019-09-24T12:46:28.001Z</time>
      </trkpt>
      <trkpt lat="48.0125" lon="5.59571">
        <ele>380.848</ele>
        <time>2019-09-24T12:46:31.001Z</time>
      </trkpt>
      <trkpt lat="48.01241" lon="5.59577">
        <ele>380.693</ele>
        <time>2019-09-24T12:46:34.001Z</time>
      </trkpt>
      <trkpt lat="48.01231" lon="5.59581">
        <ele>380.352</ele>
        <time>2019-09-24T12:46:37.001Z</time>
      </trkpt>
      <trkpt lat="48.01222" lon="5.59586">
        <ele>380.453</ele>
        <time>2019-09-24T12:46:40.001Z</time>
      </trkpt>
      <trkpt lat="48.01213" lon="5.5959">
        <ele>380.499</ele>
        <time>2019-09-24T12:46:43.001Z</time>
      </trkpt>
      <trkpt lat="48.01204" lon="5.59594">
        <ele>380.577</ele>
        <time>2019-09-24T12:46:46.001Z</time>
      </trkpt>
      <trkpt lat="48.01195" lon="5.59598">
        <ele>380.336</ele>
        <time>2019-09-24T12:46:49.001Z</time>
      </trkpt>
      <trkpt lat="48.01186" lon="5.59601">
        <ele>380.051</ele>
        <time>2019-09-24T12:46:52.001Z</time>
      </trkpt>
      <trkpt lat="48.01176" lon="5.59604">
        <ele>379.997</ele>
        <time>2019-09-24T12:46:55.001Z</time>
      </trkpt>
      <trkpt lat="48.01167" lon="5.59607">
        <ele>379.472</ele>
        <time>2019-09-24T12:46:58.001Z</time>
      </trkpt>
      <trkpt lat="48.01157" lon="5.5961">
        <ele>379.494</ele>
        <time>2019-09-24T12:47:01.001Z</time>
      </trkpt>
      <trkpt lat="48.01148" lon="5.59613">
        <ele>379.641</ele>
        <time>2019-09-24T12:47:04.001Z</time>
      </trkpt>
      <trkpt lat="48.01139" lon="5.59617">
        <ele>379.798</ele>
        <time>2019-09-24T12:47:07.001Z</time>
      </trkpt>
      <trkpt lat="48.0113" lon="5.5962">
        <ele>380.562</ele>
        <time>2019-09-24T12:47:10.001Z</time>
      </trkpt>
      <trkpt lat="48.01121" lon="5.59622">
        <ele>380.792</ele>
        <time>2019-09-24T12:47:13.001Z</time>
      </trkpt>
      <trkpt lat="48.01112" lon="5.59623">
        <ele>381.006</ele>
        <time>2019-09-24T14:47:16Z</time>
      </trkpt>
      <trkpt lat="48.01102" lon="5.59623">
        <ele>381.29</ele>
        <time>2019-09-24T12:47:19.001Z</time>
      </trkpt>
      <trkpt lat="48.01093" lon="5.59623">
        <ele>381.367</ele>
        <time>2019-09-24T12:47:22.001Z</time>
      </trkpt>
      <trkpt lat="48.01083" lon="5.59622">
        <ele>381.703</ele>
        <time>2019-09-24T12:47:25.001Z</time>
      </trkpt>
      <trkpt lat="48.01072" lon="5.59621">
        <ele>381.542</ele>
        <time>2019-09-24T12:47:28.001Z</time>
      </trkpt>
      <trkpt lat="48.01061" lon="5.59619">
        <ele>381.402</ele>
        <time>2019-09-24T12:47:31.001Z</time>
      </trkpt>
      <trkpt lat="48.01048" lon="5.59617">
        <ele>381.759</ele>
        <time>2019-09-24T12:47:34.001Z</time>
      </trkpt>
      <trkpt lat="48.01033" lon="5.59615">
        <ele>382.003</ele>
        <time>2019-09-24T12:47:37.001Z</time>
      </trkpt>
      <trkpt lat="48.01018" lon="5.59613">
        <ele>382.58</ele>
        <time>2019-09-24T12:47:40.001Z</time>
      </trkpt>
      <trkpt lat="48.01003" lon="5.59612">
        <ele>382.585</ele>
        <time>2019-09-24T12:47:43.001Z</time>
      </trkpt>
      <trkpt lat="48.00986" lon="5.59613">
        <ele>382.275</ele>
        <time>2019-09-24T12:47:46.001Z</time>
      </trkpt>
      <trkpt lat="48.00971" lon="5.59613">
        <ele>381.881</ele>
        <time>2019-09-24T12:47:49.001Z</time>
      </trkpt>
      <trkpt lat="48.00957" lon="5.59615">
        <ele>382.259</ele>
        <time>2019-09-24T12:47:52.001Z</time>
      </trkpt>
      <trkpt lat="48.00943" lon="5.59617">
        <ele>382.307</ele>
        <time>2019-09-24T12:47:55.001Z</time>
      </trkpt>
      <trkpt lat="48.00932" lon="5.59621">
        <ele>382.923</ele>
        <time>2019-09-24T12:47:58.001Z</time>
      </trkpt>
      <trkpt lat="48.00919" lon="5.59627">
        <ele>383.004</ele>
        <time>2019-09-24T12:48:01.001Z</time>
      </trkpt>
      <trkpt lat="48.00905" lon="5.59634">
        <ele>383.03</ele>
        <time>2019-09-24T12:48:04.001Z</time>
      </trkpt>
      <trkpt lat="48.00893" lon="5.59645">
        <ele>383.09</ele>
        <time>2019-09-24T12:48:07.001Z</time>
      </trkpt>
      <trkpt lat="48.0088" lon="5.59659">
        <ele>382.816</ele>
        <time>2019-09-24T12:48:10.001Z</time>
      </trkpt>
      <trkpt lat="48.00868" lon="5.59674">
        <ele>382.536</ele>
        <time>2019-09-24T12:48:13.001Z</time>
      </trkpt>
      <trkpt lat="48.00857" lon="5.59688">
        <ele>382.261</ele>
        <time>2019-09-24T14:48:16Z</time>
      </trkpt>
      <trkpt lat="48.00846" lon="5.597">
        <ele>382.396</ele>
        <time>2019-09-24T12:48:19.001Z</time>
      </trkpt>
      <trkpt lat="48.00835" lon="5.59711">
        <ele>382.396</ele>
        <time>2019-09-24T12:48:22.001Z</time>
      </trkpt>
      <trkpt lat="48.00824" lon="5.59721">
        <ele>382.827</ele>
        <time>2019-09-24T12:48:25.001Z</time>
      </trkpt>
      <trkpt lat="48.00814" lon="5.59728">
        <ele>382.954</ele>
        <time>2019-09-24T12:48:28.001Z</time>
      </trkpt>
      <trkpt lat="48.00805" lon="5.59735">
        <ele>382.999</ele>
        <time>2019-09-24T12:48:31.001Z</time>
      </trkpt>
      <trkpt lat="48.00796" lon="5.5974">
        <ele>383.16</ele>
        <time>2019-09-24T12:48:34.001Z</time>
      </trkpt>
      <trkpt lat="48.00788" lon="5.59745">
        <ele>383.508</ele>
        <time>2019-09-24T12:48:37.001Z</time>
      </trkpt>
      <trkpt lat="48.0078" lon="5.5975">
        <ele>384.15</ele>
        <time>2019-09-24T12:48:40.001Z</time>
      </trkpt>
      <trkpt lat="48.00774" lon="5.59754">
        <ele>384.718</ele>
        <time>2019-09-24T12:48:43.001Z</time>
      </trkpt>
      <trkpt lat="48.00769" lon="5.59758">
        <ele>385.171</ele>
        <time>2019-09-24T12:48:46.001Z</time>
      </trkpt>
      <trkpt lat="48.00764" lon="5.59764">
        <ele>385.97</ele>
        <time>2019-09-24T12:48:49.001Z</time>
      </trkpt>
      <trkpt lat="48.0076" lon="5.5977">
        <ele>386.657</ele>
        <time>2019-09-24T12:48:52.001Z</time>
      </trkpt>
      <trkpt lat="48.00757" lon="5.59777">
        <ele>387.327</ele>
        <time>2019-09-24T12:48:55.001Z</time>
      </trkpt>
      <trkpt lat="48.00754" lon="5.59785">
        <ele>387.638</ele>
        <time>2019-09-24T12:48:58.001Z</time>
      </trkpt>
      <trkpt lat="48.00751" lon="5.59793">
        <ele>387.72</ele>
        <time>2019-09-24T12:49:01.001Z</time>
      </trkpt>
      <trkpt lat="48.00749" lon="5.59802">
        <ele>388.077</ele>
        <time>2019-09-24T12:49:04.001Z</time>
      </trkpt>
      <trkpt lat="48.00746" lon="5.59814">
        <ele>388.437</ele>
        <time>2019-09-24T12:49:07.001Z</time>
      </trkpt>
      <trkpt lat="48.00744" lon="5.59825">
        <ele>388.505</ele>
        <time>2019-09-24T12:49:10.001Z</time>
      </trkpt>
      <trkpt lat="48.00742" lon="5.59836">
        <ele>388.968</ele>
        <time>2019-09-24T12:49:13.001Z</time>
      </trkpt>
      <trkpt lat="48.00741" lon="5.59848">
        <ele>389.113</ele>
        <time>2019-09-24T14:49:16Z</time>
      </trkpt>
      <trkpt lat="48.0074" lon="5.5986">
        <ele>389.426</ele>
        <time>2019-09-24T12:49:19.001Z</time>
      </trkpt>
      <trkpt lat="48.00738" lon="5.59872">
        <ele>389.776</ele>
        <time>2019-09-24T12:49:22.001Z</time>
      </trkpt>
      <trkpt lat="48.00737" lon="5.59884">
        <ele>390.154</ele>
        <time>2019-09-24T12:49:25.001Z</time>
      </trkpt>
      <trkpt lat="48.00737" lon="5.59897">
        <ele>390.163</ele>
        <time>2019-09-24T12:49:28.001Z</time>
      </trkpt>
      <trkpt lat="48.00735" lon="5.59912">
        <ele>389.928</ele>
        <time>2019-09-24T12:49:31.001Z</time>
      </trkpt>
      <trkpt lat="48.00734" lon="5.59928">
        <ele>389.59</ele>
        <time>2019-09-24T12:49:34.001Z</time>
      </trkpt>
      <trkpt lat="48.00731" lon="5.59945">
        <ele>389.369</ele>
        <time>2019-09-24T12:49:37.001Z</time>
      </trkpt>
      <trkpt lat="48.00728" lon="5.59963">
        <ele>388.716</ele>
        <time>2019-09-24T12:49:40.001Z</time>
      </trkpt>
      <trkpt lat="48.00725" lon="5.59982">
        <ele>388.291</ele>
        <time>2019-09-24T12:49:43.001Z</time>
      </trkpt>
      <trkpt lat="48.00721" lon="5.6">
        <ele>387.91</ele>
        <time>2019-09-24T12:49:46.001Z</time>
      </trkpt>
      <trkpt lat="48.00718" lon="5.60018">
        <ele>387.932</ele>
        <time>2019-09-24T12:49:49.001Z</time>
      </trkpt>
      <trkpt lat="48.00714" lon="5.60035">
        <ele>388.106</ele>
        <time>2019-09-24T12:49:52.001Z</time>
      </trkpt>
      <trkpt lat="48.00711" lon="5.60053">
        <ele>388.071</ele>
        <time>2019-09-24T12:49:55.001Z</time>
      </trkpt>
      <trkpt lat="48.00707" lon="5.60071">
        <ele>387.603</ele>
        <time>2019-09-24T12:49:58.001Z</time>
      </trkpt>
      <trkpt lat="48.00704" lon="5.60088">
        <ele>387.234</ele>
        <time>2019-09-24T12:50:01.001Z</time>
      </trkpt>
      <trkpt lat="48.00701" lon="5.60107">
        <ele>386.544</ele>
        <time>2019-09-24T12:50:04.001Z</time>
      </trkpt>
      <trkpt lat="48.00698" lon="5.60125">
        <ele>385.986</ele>
        <time>2019-09-24T12:50:07.001Z</time>
      </trkpt>
      <trkpt lat="48.00695" lon="5.60143">
        <ele>385.939</ele>
        <time>2019-09-24T12:50:10.001Z</time>
      </trkpt>
      <trkpt lat="48.00691" lon="5.60161">
        <ele>385.949</ele>
        <time>2019-09-24T12:50:13.001Z</time>
      </trkpt>
      <trkpt lat="48.00689" lon="5.60179">
        <ele>386.347</ele>
        <time>2019-09-24T14:50:16Z</time>
      </trkpt>
      <trkpt lat="48.00687" lon="5.60198">
        <ele>386.42</ele>
        <time>2019-09-24T12:50:19.001Z</time>
      </trkpt>
      <trkpt lat="48.00685" lon="5.60215">
        <ele>386.6</ele>
        <time>2019-09-24T12:50:22.001Z</time>
      </trkpt>
      <trkpt lat="48.00683" lon="5.60232">
        <ele>387.042</ele>
        <time>2019-09-24T12:50:25.001Z</time>
      </trkpt>
      <trkpt lat="48.00682" lon="5.60249">
        <ele>387.405</ele>
        <time>2019-09-24T12:50:28.001Z</time>
      </trkpt>
      <trkpt lat="48.00681" lon="5.60264">
        <ele>388.005</ele>
        <time>2019-09-24T12:50:31.001Z</time>
      </trkpt>
      <trkpt lat="48.00681" lon="5.60278">
        <ele>388.096</ele>
        <time>2019-09-24T12:50:34.001Z</time>
      </trkpt>
      <trkpt lat="48.0068" lon="5.60293">
        <ele>388.094</ele>
        <time>2019-09-24T12:50:37.001Z</time>
      </trkpt>
      <trkpt lat="48.00679" lon="5.60308">
        <ele>388.009</ele>
        <time>2019-09-24T12:50:40.001Z</time>
      </trkpt>
      <trkpt lat="48.00679" lon="5.60324">
        <ele>388.184</ele>
        <time>2019-09-24T12:50:43.001Z</time>
      </trkpt>
      <trkpt lat="48.0068" lon="5.60341">
        <ele>388.991</ele>
        <time>2019-09-24T12:50:46.001Z</time>
      </trkpt>
      <trkpt lat="48.0068" lon="5.60359">
        <ele>389.191</ele>
        <time>2019-09-24T12:50:49.001Z</time>
      </trkpt>
      <trkpt lat="48.0068" lon="5.60376">
        <ele>388.877</ele>
        <time>2019-09-24T12:50:52.001Z</time>
      </trkpt>
      <trkpt lat="48.00679" lon="5.60392">
        <ele>388.48</ele>
        <time>2019-09-24T12:50:55.001Z</time>
      </trkpt>
      <trkpt lat="48.00677" lon="5.60406">
        <ele>388.062</ele>
        <time>2019-09-24T12:50:58.001Z</time>
      </trkpt>
      <trkpt lat="48.00675" lon="5.60418">
        <ele>388.441</ele>
        <time>2019-09-24T12:51:01.001Z</time>
      </trkpt>
      <trkpt lat="48.00672" lon="5.60431">
        <ele>388.904</ele>
        <time>2019-09-24T12:51:04.001Z</time>
      </trkpt>
      <trkpt lat="48.00666" lon="5.60444">
        <ele>389.55</ele>
        <time>2019-09-24T12:51:07.001Z</time>
      </trkpt>
      <trkpt lat="48.0066" lon="5.60457">
        <ele>389.851</ele>
        <time>2019-09-24T12:51:10.001Z</time>
      </trkpt>
      <trkpt lat="48.00654" lon="5.6047">
        <ele>390.671</ele>
        <time>2019-09-24T12:51:13.001Z</time>
      </trkpt>
      <trkpt lat="48.00649" lon="5.60483">
        <ele>391.594</ele>
        <time>2019-09-24T14:51:16Z</time>
      </trkpt>
      <trkpt lat="48.00643" lon="5.60497">
        <ele>392.641</ele>
        <time>2019-09-24T12:51:19.001Z</time>
      </trkpt>
      <trkpt lat="48.00638" lon="5.60511">
        <ele>393.95</ele>
        <time>2019-09-24T12:51:22.001Z</time>
      </trkpt>
      <trkpt lat="48.00633" lon="5.60524">
        <ele>394.901</ele>
        <time>2019-09-24T12:51:25.001Z</time>
      </trkpt>
      <trkpt lat="48.00628" lon="5.60539">
        <ele>395.348</ele>
        <time>2019-09-24T12:51:28.001Z</time>
      </trkpt>
      <trkpt lat="48.00622" lon="5.60553">
        <ele>395.541</ele>
        <time>2019-09-24T12:51:31.001Z</time>
      </trkpt>
      <trkpt lat="48.00617" lon="5.60566">
        <ele>395.215</ele>
        <time>2019-09-24T12:51:34.001Z</time>
      </trkpt>
      <trkpt lat="48.00611" lon="5.60578">
        <ele>394.594</ele>
        <time>2019-09-24T12:51:37.001Z</time>
      </trkpt>
      <trkpt lat="48.00606" lon="5.60591">
        <ele>393.614</ele>
        <time>2019-09-24T12:51:40.001Z</time>
      </trkpt>
      <trkpt lat="48.00599" lon="5.60602">
        <ele>392.995</ele>
        <time>2019-09-24T12:51:43.001Z</time>
      </trkpt>
      <trkpt lat="48.00592" lon="5.60611">
        <ele>391.87</ele>
        <time>2019-09-24T12:51:46.001Z</time>
      </trkpt>
      <trkpt lat="48.00584" lon="5.60618">
        <ele>391.615</ele>
        <time>2019-09-24T12:51:49.001Z</time>
      </trkpt>
      <trkpt lat="48.00575" lon="5.60623">
        <ele>391.591</ele>
        <time>2019-09-24T12:51:52.001Z</time>
      </trkpt>
      <trkpt lat="48.00566" lon="5.60626">
        <ele>391.093</ele>
        <time>2019-09-24T12:51:55.001Z</time>
      </trkpt>
      <trkpt lat="48.00558" lon="5.60629">
        <ele>390.897</ele>
        <time>2019-09-24T12:51:58.001Z</time>
      </trkpt>
      <trkpt lat="48.00549" lon="5.60633">
        <ele>390.787</ele>
        <time>2019-09-24T12:52:01.001Z</time>
      </trkpt>
      <trkpt lat="48.0054" lon="5.60637">
        <ele>390.705</ele>
        <time>2019-09-24T12:52:04.001Z</time>
      </trkpt>
      <trkpt lat="48.00531" lon="5.60641">
        <ele>390.575</ele>
        <time>2019-09-24T12:52:07.001Z</time>
      </trkpt>
      <trkpt lat="48.00523" lon="5.60646">
        <ele>390.508</ele>
        <time>2019-09-24T12:52:10.001Z</time>
      </trkpt>
      <trkpt lat="48.00514" lon="5.60651">
        <ele>390.944</ele>
        <time>2019-09-24T12:52:13.001Z</time>
      </trkpt>
      <trkpt lat="48.00506" lon="5.60655">
        <ele>391.418</ele>
        <time>2019-09-24T14:52:16Z</time>
      </trkpt>
      <trkpt lat="48.00498" lon="5.60659">
        <ele>391.688</ele>
        <time>2019-09-24T12:52:19.001Z</time>
      </trkpt>
      <trkpt lat="48.0049" lon="5.60665">
        <ele>392.699</ele>
        <time>2019-09-24T12:52:22.001Z</time>
      </trkpt>
      <trkpt lat="48.00482" lon="5.60672">
        <ele>393.328</ele>
        <time>2019-09-24T12:52:25.001Z</time>
      </trkpt>
      <trkpt lat="48.00475" lon="5.6068">
        <ele>394.2</ele>
        <time>2019-09-24T12:52:28.001Z</time>
      </trkpt>
      <trkpt lat="48.0047" lon="5.6069">
        <ele>394.903</ele>
        <time>2019-09-24T12:52:31.001Z</time>
      </trkpt>
      <trkpt lat="48.00464" lon="5.60701">
        <ele>394.926</ele>
        <time>2019-09-24T12:52:34.001Z</time>
      </trkpt>
      <trkpt lat="48.00458" lon="5.6071">
        <ele>394.975</ele>
        <time>2019-09-24T12:52:37.001Z</time>
      </trkpt>
      <trkpt lat="48.00452" lon="5.60722">
        <ele>395.862</ele>
        <time>2019-09-24T12:52:40.001Z</time>
      </trkpt>
      <trkpt lat="48.00445" lon="5.60732">
        <ele>396.382</ele>
        <time>2019-09-24T12:52:43.001Z</time>
      </trkpt>
      <trkpt lat="48.00437" lon="5.60741">
        <ele>396.713</ele>
        <time>2019-09-24T12:52:46.001Z</time>
      </trkpt>
      <trkpt lat="48.00429" lon="5.60747">
        <ele>396.552</ele>
        <time>2019-09-24T12:52:49.001Z</time>
      </trkpt>
      <trkpt lat="48.00419" lon="5.6075">
        <ele>396.281</ele>
        <time>2019-09-24T12:52:52.001Z</time>
      </trkpt>
      <trkpt lat="48.00408" lon="5.60753">
        <ele>396.495</ele>
        <time>2019-09-24T12:52:55.001Z</time>
      </trkpt>
      <trkpt lat="48.00396" lon="5.60755">
        <ele>396.258</ele>
        <time>2019-09-24T12:52:58.001Z</time>
      </trkpt>
      <trkpt lat="48.00383" lon="5.60758">
        <ele>396.014</ele>
        <time>2019-09-24T12:53:01.001Z</time>
      </trkpt>
      <trkpt lat="48.0037" lon="5.60766">
        <ele>395.656</ele>
        <time>2019-09-24T12:53:04.001Z</time>
      </trkpt>
      <trkpt lat="48.00359" lon="5.60777">
        <ele>395.917</ele>
        <time>2019-09-24T12:53:07.001Z</time>
      </trkpt>
      <trkpt lat="48.0035" lon="5.60789">
        <ele>396.473</ele>
        <time>2019-09-24T12:53:10.001Z</time>
      </trkpt>
      <trkpt lat="48.00342" lon="5.60802">
        <ele>396.988</ele>
        <time>2019-09-24T12:53:13.001Z</time>
      </trkpt>
      <trkpt lat="48.00333" lon="5.60814">
        <ele>396.976</ele>
        <time>2019-09-24T14:53:16Z</time>
      </trkpt>
      <trkpt lat="48.00322" lon="5.6083">
        <ele>396.319</ele>
        <time>2019-09-24T12:53:19.001Z</time>
      </trkpt>
      <trkpt lat="48.0031" lon="5.60849">
        <ele>395.971</ele>
        <time>2019-09-24T12:53:22.001Z</time>
      </trkpt>
      <trkpt lat="48.00294" lon="5.60871">
        <ele>394.466</ele>
        <time>2019-09-24T12:53:25.001Z</time>
      </trkpt>
      <trkpt lat="48.00275" lon="5.60892">
        <ele>392.097</ele>
        <time>2019-09-24T12:53:28.001Z</time>
      </trkpt>
      <trkpt lat="48.00256" lon="5.60914">
        <ele>390.135</ele>
        <time>2019-09-24T12:53:31.001Z</time>
      </trkpt>
      <trkpt lat="48.00238" lon="5.60934">
        <ele>388.702</ele>
        <time>2019-09-24T12:53:34.001Z</time>
      </trkpt>
      <trkpt lat="48.0022" lon="5.60953">
        <ele>387.622</ele>
        <time>2019-09-24T12:53:37.001Z</time>
      </trkpt>
      <trkpt lat="48.00202" lon="5.6097">
        <ele>386.466</ele>
        <time>2019-09-24T12:53:40.001Z</time>
      </trkpt>
      <trkpt lat="48.00183" lon="5.60986">
        <ele>385.75</ele>
        <time>2019-09-24T12:53:43.001Z</time>
      </trkpt>
      <trkpt lat="48.00166" lon="5.61001">
        <ele>385.382</ele>
        <time>2019-09-24T12:53:46.001Z</time>
      </trkpt>
      <trkpt lat="48.00153" lon="5.61011">
        <ele>385.17</ele>
        <time>2019-09-24T12:53:49.001Z</time>
      </trkpt>
      <trkpt lat="48.0014" lon="5.61024">
        <ele>385.26</ele>
        <time>2019-09-24T12:53:52.001Z</time>
      </trkpt>
      <trkpt lat="48.00124" lon="5.61039">
        <ele>385.361</ele>
        <time>2019-09-24T12:53:55.001Z</time>
      </trkpt>
      <trkpt lat="48.00107" lon="5.61052">
        <ele>385.8</ele>
        <time>2019-09-24T12:53:58.001Z</time>
      </trkpt>
      <trkpt lat="48.00091" lon="5.61066">
        <ele>386.251</ele>
        <time>2019-09-24T12:54:01.001Z</time>
      </trkpt>
      <trkpt lat="48.00078" lon="5.61079">
        <ele>386.443</ele>
        <time>2019-09-24T12:54:04.001Z</time>
      </trkpt>
      <trkpt lat="48.00066" lon="5.6109">
        <ele>386.792</ele>
        <time>2019-09-24T12:54:07.001Z</time>
      </trkpt>
      <trkpt lat="48.00055" lon="5.61102">
        <ele>386.653</ele>
        <time>2019-09-24T12:54:10.001Z</time>
      </trkpt>
      <trkpt lat="48.00042" lon="5.61112">
        <ele>385.497</ele>
        <time>2019-09-24T12:54:13.001Z</time>
      </trkpt>
      <trkpt lat="48.00027" lon="5.61125">
        <ele>383.712</ele>
        <time>2019-09-24T14:54:16Z</time>
      </trkpt>
      <trkpt lat="48.00014" lon="5.61136">
        <ele>383.394</ele>
        <time>2019-09-24T12:54:19.001Z</time>
      </trkpt>
      <trkpt lat="48.00002" lon="5.61145">
        <ele>382.58</ele>
        <time>2019-09-24T12:54:22.001Z</time>
      </trkpt>
      <trkpt lat="47.99993" lon="5.61152">
        <ele>382.616</ele>
        <time>2019-09-24T12:54:25.001Z</time>
      </trkpt>
      <trkpt lat="47.99984" lon="5.61158">
        <ele>382.643</ele>
        <time>2019-09-24T12:54:28.001Z</time>
      </trkpt>
      <trkpt lat="47.99974" lon="5.61164">
        <ele>382.547</ele>
        <time>2019-09-24T12:54:31.001Z</time>
      </trkpt>
      <trkpt lat="47.99965" lon="5.61169">
        <ele>382.71</ele>
        <time>2019-09-24T12:54:34.001Z</time>
      </trkpt>
      <trkpt lat="47.99955" lon="5.61174">
        <ele>382.785</ele>
        <time>2019-09-24T12:54:37.001Z</time>
      </trkpt>
      <trkpt lat="47.99946" lon="5.61183">
        <ele>383.613</ele>
        <time>2019-09-24T12:54:40.001Z</time>
      </trkpt>
      <trkpt lat="47.99936" lon="5.61189">
        <ele>384.772</ele>
        <time>2019-09-24T12:54:43.001Z</time>
      </trkpt>
      <trkpt lat="47.99924" lon="5.61194">
        <ele>386.322</ele>
        <time>2019-09-24T12:54:46.001Z</time>
      </trkpt>
      <trkpt lat="47.9991" lon="5.612">
        <ele>387.132</ele>
        <time>2019-09-24T12:54:49.001Z</time>
      </trkpt>
      <trkpt lat="47.99897" lon="5.61205">
        <ele>387.538</ele>
        <time>2019-09-24T12:54:52.001Z</time>
      </trkpt>
      <trkpt lat="47.99881" lon="5.61211">
        <ele>387.186</ele>
        <time>2019-09-24T12:54:55.001Z</time>
      </trkpt>
      <trkpt lat="47.99862" lon="5.61217">
        <ele>386.797</ele>
        <time>2019-09-24T12:54:58.001Z</time>
      </trkpt>
      <trkpt lat="47.99843" lon="5.61223">
        <ele>385.922</ele>
        <time>2019-09-24T12:55:01.001Z</time>
      </trkpt>
      <trkpt lat="47.99824" lon="5.61232">
        <ele>384.985</ele>
        <time>2019-09-24T12:55:04.001Z</time>
      </trkpt>
      <trkpt lat="47.99805" lon="5.61249">
        <ele>383.918</ele>
        <time>2019-09-24T12:55:07.001Z</time>
      </trkpt>
      <trkpt lat="47.99789" lon="5.6127">
        <ele>383.149</ele>
        <time>2019-09-24T12:55:10.001Z</time>
      </trkpt>
      <trkpt lat="47.99774" lon="5.61296">
        <ele>382.584</ele>
        <time>2019-09-24T12:55:13.001Z</time>
      </trkpt>
      <trkpt lat="47.99765" lon="5.61324">
        <ele>382.68</ele>
        <time>2019-09-24T14:55:16Z</time>
      </trkpt>
      <trkpt lat="47.99756" lon="5.61349">
        <ele>382.803</ele>
        <time>2019-09-24T12:55:19.001Z</time>
      </trkpt>
      <trkpt lat="47.99748" lon="5.61372">
        <ele>382.901</ele>
        <time>2019-09-24T12:55:22.001Z</time>
      </trkpt>
      <trkpt lat="47.99742" lon="5.61391">
        <ele>383.507</ele>
        <time>2019-09-24T12:55:25.001Z</time>
      </trkpt>
      <trkpt lat="47.99737" lon="5.61405">
        <ele>384.307</ele>
        <time>2019-09-24T12:55:28.001Z</time>
      </trkpt>
      <trkpt lat="47.99732" lon="5.61417">
        <ele>384.625</ele>
        <time>2019-09-24T12:55:31.001Z</time>
      </trkpt>
      <trkpt lat="47.99728" lon="5.61428">
        <ele>384.758</ele>
        <time>2019-09-24T12:55:34.001Z</time>
      </trkpt>
      <trkpt lat="47.99722" lon="5.61438">
        <ele>385.41</ele>
        <time>2019-09-24T12:55:37.001Z</time>
      </trkpt>
      <trkpt lat="47.99715" lon="5.61447">
        <ele>386.466</ele>
        <time>2019-09-24T12:55:40.001Z</time>
      </trkpt>
      <trkpt lat="47.99708" lon="5.61453">
        <ele>386.047</ele>
        <time>2019-09-24T12:55:43.001Z</time>
      </trkpt>
      <trkpt lat="47.99701" lon="5.61457">
        <ele>385.448</ele>
        <time>2019-09-24T12:55:46.001Z</time>
      </trkpt>
      <trkpt lat="47.99693" lon="5.61458">
        <ele>385.068</ele>
        <time>2019-09-24T12:55:49.001Z</time>
      </trkpt>
      <trkpt lat="47.99686" lon="5.61455">
        <ele>384.722</ele>
        <time>2019-09-24T12:55:52.001Z</time>
      </trkpt>
      <trkpt lat="47.9968" lon="5.61451">
        <ele>385.859</ele>
        <time>2019-09-24T12:55:55.001Z</time>
      </trkpt>
      <trkpt lat="47.99676" lon="5.61448">
        <ele>386.391</ele>
        <time>2019-09-24T12:55:58.001Z</time>
      </trkpt>
      <trkpt lat="47.99671" lon="5.61443">
        <ele>386.606</ele>
        <time>2019-09-24T12:56:01.001Z</time>
      </trkpt>
      <trkpt lat="47.99667" lon="5.61438">
        <ele>386.06</ele>
        <time>2019-09-24T12:56:04.001Z</time>
      </trkpt>
      <trkpt lat="47.99662" lon="5.61433">
        <ele>386.068</ele>
        <time>2019-09-24T12:56:07.001Z</time>
      </trkpt>
      <trkpt lat="47.99656" lon="5.61429">
        <ele>387.071</ele>
        <time>2019-09-24T12:56:10.001Z</time>
      </trkpt>
      <trkpt lat="47.99649" lon="5.61424">
        <ele>388.337</ele>
        <time>2019-09-24T12:56:13.001Z</time>
      </trkpt>
      <trkpt lat="47.99641" lon="5.61419">
        <ele>389.031</ele>
        <time>2019-09-24T14:56:16Z</time>
      </trkpt>
      <trkpt lat="47.99633" lon="5.61414">
        <ele>390.029</ele>
        <time>2019-09-24T12:56:19.001Z</time>
      </trkpt>
      <trkpt lat="47.99625" lon="5.61409">
        <ele>390.444</ele>
        <time>2019-09-24T12:56:22.001Z</time>
      </trkpt>
      <trkpt lat="47.99618" lon="5.61406">
        <ele>390.422</ele>
        <time>2019-09-24T12:56:25.001Z</time>
      </trkpt>
      <trkpt lat="47.99611" lon="5.61405">
        <ele>390.212</ele>
        <time>2019-09-24T12:56:28.001Z</time>
      </trkpt>
      <trkpt lat="47.99603" lon="5.61405">
        <ele>390.097</ele>
        <time>2019-09-24T12:56:31.001Z</time>
      </trkpt>
      <trkpt lat="47.99596" lon="5.61405">
        <ele>389.881</ele>
        <time>2019-09-24T12:56:34.001Z</time>
      </trkpt>
      <trkpt lat="47.99589" lon="5.61407">
        <ele>389.48</ele>
        <time>2019-09-24T12:56:37.001Z</time>
      </trkpt>
      <trkpt lat="47.99581" lon="5.61409">
        <ele>389.482</ele>
        <time>2019-09-24T12:56:40.001Z</time>
      </trkpt>
      <trkpt lat="47.99574" lon="5.61412">
        <ele>389.473</ele>
        <time>2019-09-24T12:56:43.001Z</time>
      </trkpt>
      <trkpt lat="47.99567" lon="5.61416">
        <ele>388.907</ele>
        <time>2019-09-24T12:56:46.001Z</time>
      </trkpt>
      <trkpt lat="47.9956" lon="5.6142">
        <ele>388.677</ele>
        <time>2019-09-24T12:56:49.001Z</time>
      </trkpt>
      <trkpt lat="47.99554" lon="5.61424">
        <ele>388.515</ele>
        <time>2019-09-24T12:56:52.001Z</time>
      </trkpt>
      <trkpt lat="47.99546" lon="5.61428">
        <ele>388.141</ele>
        <time>2019-09-24T12:56:55.001Z</time>
      </trkpt>
      <trkpt lat="47.99538" lon="5.61432">
        <ele>388.111</ele>
        <time>2019-09-24T12:56:58.001Z</time>
      </trkpt>
      <trkpt lat="47.9953" lon="5.61435">
        <ele>387.908</ele>
        <time>2019-09-24T12:57:01.001Z</time>
      </trkpt>
      <trkpt lat="47.99522" lon="5.61439">
        <ele>388.135</ele>
        <time>2019-09-24T12:57:04.001Z</time>
      </trkpt>
      <trkpt lat="47.99514" lon="5.61442">
        <ele>388.586</ele>
        <time>2019-09-24T12:57:07.001Z</time>
      </trkpt>
      <trkpt lat="47.99504" lon="5.61447">
        <ele>388.544</ele>
        <time>2019-09-24T12:57:10.001Z</time>
      </trkpt>
      <trkpt lat="47.99494" lon="5.61451">
        <ele>388.78</ele>
        <time>2019-09-24T12:57:13.001Z</time>
      </trkpt>
      <trkpt lat="47.99483" lon="5.61457">
        <ele>389.064</ele>
        <time>2019-09-24T14:57:16Z</time>
      </trkpt>
      <trkpt lat="47.99471" lon="5.61462">
        <ele>388.449</ele>
        <time>2019-09-24T12:57:19.001Z</time>
      </trkpt>
      <trkpt lat="47.99458" lon="5.61469">
        <ele>388.437</ele>
        <time>2019-09-24T12:57:22.001Z</time>
      </trkpt>
      <trkpt lat="47.99444" lon="5.61476">
        <ele>388.167</ele>
        <time>2019-09-24T12:57:25.001Z</time>
      </trkpt>
      <trkpt lat="47.99428" lon="5.61484">
        <ele>387.475</ele>
        <time>2019-09-24T12:57:28.001Z</time>
      </trkpt>
      <trkpt lat="47.99413" lon="5.61491">
        <ele>386.936</ele>
        <time>2019-09-24T12:57:31.001Z</time>
      </trkpt>
      <trkpt lat="47.99397" lon="5.61499">
        <ele>386.631</ele>
        <time>2019-09-24T12:57:34.001Z</time>
      </trkpt>
      <trkpt lat="47.99382" lon="5.61508">
        <ele>386.37</ele>
        <time>2019-09-24T12:57:37.001Z</time>
      </trkpt>
      <trkpt lat="47.99367" lon="5.61517">
        <ele>386.018</ele>
        <time>2019-09-24T12:57:40.001Z</time>
      </trkpt>
      <trkpt lat="47.99352" lon="5.61525">
        <ele>385.993</ele>
        <time>2019-09-24T12:57:43.001Z</time>
      </trkpt>
      <trkpt lat="47.99338" lon="5.61534">
        <ele>385.674</ele>
        <time>2019-09-24T12:57:46.001Z</time>
      </trkpt>
      <trkpt lat="47.99324" lon="5.61544">
        <ele>385.702</ele>
        <time>2019-09-24T12:57:49.001Z</time>
      </trkpt>
      <trkpt lat="47.9931" lon="5.61553">
        <ele>385.208</ele>
        <time>2019-09-24T12:57:52.001Z</time>
      </trkpt>
      <trkpt lat="47.99296" lon="5.61563">
        <ele>384.635</ele>
        <time>2019-09-24T12:57:55.001Z</time>
      </trkpt>
      <trkpt lat="47.99283" lon="5.61572">
        <ele>384.174</ele>
        <time>2019-09-24T12:57:58.001Z</time>
      </trkpt>
      <trkpt lat="47.99271" lon="5.6158">
        <ele>383.957</ele>
        <time>2019-09-24T12:58:01.001Z</time>
      </trkpt>
      <trkpt lat="47.99259" lon="5.61588">
        <ele>383.788</ele>
        <time>2019-09-24T12:58:04.001Z</time>
      </trkpt>
      <trkpt lat="47.99246" lon="5.61596">
        <ele>383.766</ele>
        <time>2019-09-24T12:58:07.001Z</time>
      </trkpt>
      <trkpt lat="47.99234" lon="5.61605">
        <ele>383.623</ele>
        <time>2019-09-24T12:58:10.001Z</time>
      </trkpt>
      <trkpt lat="47.99222" lon="5.61614">
        <ele>383.722</ele>
        <time>2019-09-24T12:58:13.001Z</time>
      </trkpt>
      <trkpt lat="47.99211" lon="5.61623">
        <ele>383.814</ele>
        <time>2019-09-24T14:58:16Z</time>
      </trkpt>
      <trkpt lat="47.99201" lon="5.61632">
        <ele>384.023</ele>
        <time>2019-09-24T12:58:19.001Z</time>
      </trkpt>
      <trkpt lat="47.99192" lon="5.61642">
        <ele>384.62</ele>
        <time>2019-09-24T12:58:22.001Z</time>
      </trkpt>
      <trkpt lat="47.99185" lon="5.61653">
        <ele>384.783</ele>
        <time>2019-09-24T12:58:25.001Z</time>
      </trkpt>
      <trkpt lat="47.99177" lon="5.61665">
        <ele>384.955</ele>
        <time>2019-09-24T12:58:28.001Z</time>
      </trkpt>
      <trkpt lat="47.99171" lon="5.61676">
        <ele>384.987</ele>
        <time>2019-09-24T12:58:31.001Z</time>
      </trkpt>
      <trkpt lat="47.99164" lon="5.61686">
        <ele>384.606</ele>
        <time>2019-09-24T12:58:34.001Z</time>
      </trkpt>
      <trkpt lat="47.99158" lon="5.61695">
        <ele>384.323</ele>
        <time>2019-09-24T12:58:37.001Z</time>
      </trkpt>
      <trkpt lat="47.99153" lon="5.61704">
        <ele>384.261</ele>
        <time>2019-09-24T12:58:40.001Z</time>
      </trkpt>
      <trkpt lat="47.99147" lon="5.61712">
        <ele>384.762</ele>
        <time>2019-09-24T12:58:43.001Z</time>
      </trkpt>
      <trkpt lat="47.99142" lon="5.61722">
        <ele>384.747</ele>
        <time>2019-09-24T12:58:46.001Z</time>
      </trkpt>
      <trkpt lat="47.99136" lon="5.61731">
        <ele>384.85</ele>
        <time>2019-09-24T12:58:49.001Z</time>
      </trkpt>
      <trkpt lat="47.99129" lon="5.61741">
        <ele>384.895</ele>
        <time>2019-09-24T12:58:52.001Z</time>
      </trkpt>
      <trkpt lat="47.99123" lon="5.61749">
        <ele>385.185</ele>
        <time>2019-09-24T12:58:55.001Z</time>
      </trkpt>
      <trkpt lat="47.99117" lon="5.61759">
        <ele>385.191</ele>
        <time>2019-09-24T12:58:58.001Z</time>
      </trkpt>
      <trkpt lat="47.9911" lon="5.61768">
        <ele>385.285</ele>
        <time>2019-09-24T12:59:01.001Z</time>
      </trkpt>
      <trkpt lat="47.99104" lon="5.61777">
        <ele>385.416</ele>
        <time>2019-09-24T12:59:04.001Z</time>
      </trkpt>
      <trkpt lat="47.99098" lon="5.61785">
        <ele>385.482</ele>
        <time>2019-09-24T12:59:07.001Z</time>
      </trkpt>
      <trkpt lat="47.99092" lon="5.61794">
        <ele>385.496</ele>
        <time>2019-09-24T12:59:10.001Z</time>
      </trkpt>
      <trkpt lat="47.99085" lon="5.61802">
        <ele>385.46</ele>
        <time>2019-09-24T12:59:13.001Z</time>
      </trkpt>
      <trkpt lat="47.99079" lon="5.61811">
        <ele>385.788</ele>
        <time>2019-09-24T14:59:16Z</time>
      </trkpt>
      <trkpt lat="47.99073" lon="5.6182">
        <ele>385.78</ele>
        <time>2019-09-24T12:59:19.001Z</time>
      </trkpt>
      <trkpt lat="47.99066" lon="5.61828">
        <ele>385.76</ele>
        <time>2019-09-24T12:59:22.001Z</time>
      </trkpt>
      <trkpt lat="47.99059" lon="5.61835">
        <ele>386.034</ele>
        <time>2019-09-24T12:59:25.001Z</time>
      </trkpt>
      <trkpt lat="47.99052" lon="5.61845">
        <ele>385.98</ele>
        <time>2019-09-24T12:59:28.001Z</time>
      </trkpt>
      <trkpt lat="47.99044" lon="5.61854">
        <ele>386.01</ele>
        <time>2019-09-24T12:59:31.001Z</time>
      </trkpt>
      <trkpt lat="47.99036" lon="5.61862">
        <ele>385.989</ele>
        <time>2019-09-24T12:59:34.001Z</time>
      </trkpt>
      <trkpt lat="47.99028" lon="5.61869">
        <ele>385.675</ele>
        <time>2019-09-24T12:59:37.001Z</time>
      </trkpt>
      <trkpt lat="47.99019" lon="5.61877">
        <ele>385.934</ele>
        <time>2019-09-24T12:59:40.001Z</time>
      </trkpt>
      <trkpt lat="47.9901" lon="5.61884">
        <ele>386.09</ele>
        <time>2019-09-24T12:59:43.001Z</time>
      </trkpt>
      <trkpt lat="47.99" lon="5.6189">
        <ele>385.848</ele>
        <time>2019-09-24T12:59:46.001Z</time>
      </trkpt>
      <trkpt lat="47.9899" lon="5.61896">
        <ele>385.604</ele>
        <time>2019-09-24T12:59:49.001Z</time>
      </trkpt>
      <trkpt lat="47.98979" lon="5.61904">
        <ele>385.765</ele>
        <time>2019-09-24T12:59:52.001Z</time>
      </trkpt>
      <trkpt lat="47.98969" lon="5.61912">
        <ele>385.629</ele>
        <time>2019-09-24T12:59:55.001Z</time>
      </trkpt>
      <trkpt lat="47.98957" lon="5.61918">
        <ele>385.534</ele>
        <time>2019-09-24T12:59:58.001Z</time>
      </trkpt>
      <trkpt lat="47.98945" lon="5.61926">
        <ele>385.525</ele>
        <time>2019-09-24T13:00:01.001Z</time>
      </trkpt>
      <trkpt lat="47.98932" lon="5.61933">
        <ele>385.306</ele>
        <time>2019-09-24T13:00:04.001Z</time>
      </trkpt>
      <trkpt lat="47.98918" lon="5.61939">
        <ele>385.096</ele>
        <time>2019-09-24T13:00:07.001Z</time>
      </trkpt>
      <trkpt lat="47.98903" lon="5.61944">
        <ele>384.581</ele>
        <time>2019-09-24T13:00:10.001Z</time>
      </trkpt>
      <trkpt lat="47.98888" lon="5.61948">
        <ele>384.437</ele>
        <time>2019-09-24T13:00:13.001Z</time>
      </trkpt>
      <trkpt lat="47.98873" lon="5.61953">
        <ele>384.382</ele>
        <time>2019-09-24T15:00:16Z</time>
      </trkpt>
      <trkpt lat="47.98857" lon="5.61957">
        <ele>383.738</ele>
        <time>2019-09-24T13:00:19.001Z</time>
      </trkpt>
      <trkpt lat="47.98841" lon="5.6196">
        <ele>382.96</ele>
        <time>2019-09-24T13:00:22.001Z</time>
      </trkpt>
      <trkpt lat="47.98825" lon="5.61963">
        <ele>382.217</ele>
        <time>2019-09-24T13:00:25.001Z</time>
      </trkpt>
      <trkpt lat="47.98809" lon="5.61966">
        <ele>381.868</ele>
        <time>2019-09-24T13:00:28.001Z</time>
      </trkpt>
      <trkpt lat="47.98793" lon="5.6197">
        <ele>381.735</ele>
        <time>2019-09-24T13:00:31.001Z</time>
      </trkpt>
      <trkpt lat="47.98779" lon="5.61974">
        <ele>380.996</ele>
        <time>2019-09-24T13:00:34.001Z</time>
      </trkpt>
      <trkpt lat="47.98764" lon="5.6198">
        <ele>380.928</ele>
        <time>2019-09-24T13:00:37.001Z</time>
      </trkpt>
      <trkpt lat="47.98752" lon="5.6199">
        <ele>380.514</ele>
        <time>2019-09-24T13:00:40.001Z</time>
      </trkpt>
      <trkpt lat="47.9874" lon="5.62003">
        <ele>379.126</ele>
        <time>2019-09-24T13:00:43.001Z</time>
      </trkpt>
      <trkpt lat="47.98729" lon="5.62017">
        <ele>378.641</ele>
        <time>2019-09-24T13:00:46.001Z</time>
      </trkpt>
      <trkpt lat="47.9872" lon="5.62032">
        <ele>378.978</ele>
        <time>2019-09-24T13:00:49.001Z</time>
      </trkpt>
      <trkpt lat="47.98711" lon="5.62047">
        <ele>379.662</ele>
        <time>2019-09-24T13:00:52.001Z</time>
      </trkpt>
      <trkpt lat="47.98701" lon="5.62062">
        <ele>379.695</ele>
        <time>2019-09-24T13:00:55.001Z</time>
      </trkpt>
      <trkpt lat="47.98691" lon="5.62076">
        <ele>379.634</ele>
        <time>2019-09-24T13:00:58.001Z</time>
      </trkpt>
      <trkpt lat="47.98682" lon="5.62089">
        <ele>380.084</ele>
        <time>2019-09-24T13:01:01.001Z</time>
      </trkpt>
      <trkpt lat="47.98674" lon="5.62101">
        <ele>380.67</ele>
        <time>2019-09-24T13:01:04.001Z</time>
      </trkpt>
      <trkpt lat="47.98667" lon="5.62111">
        <ele>381.34</ele>
        <time>2019-09-24T13:01:07.001Z</time>
      </trkpt>
      <trkpt lat="47.98661" lon="5.6212">
        <ele>381.918</ele>
        <time>2019-09-24T13:01:10.001Z</time>
      </trkpt>
      <trkpt lat="47.98656" lon="5.62131">
        <ele>381.991</ele>
        <time>2019-09-24T13:01:13.001Z</time>
      </trkpt>
      <trkpt lat="47.9865" lon="5.62139">
        <ele>382.529</ele>
        <time>2019-09-24T15:01:16Z</time>
      </trkpt>
      <trkpt lat="47.98644" lon="5.62148">
        <ele>383.146</ele>
        <time>2019-09-24T13:01:19.001Z</time>
      </trkpt>
      <trkpt lat="47.98639" lon="5.62157">
        <ele>383.629</ele>
        <time>2019-09-24T13:01:22.001Z</time>
      </trkpt>
      <trkpt lat="47.98633" lon="5.62166">
        <ele>384.032</ele>
        <time>2019-09-24T13:01:25.001Z</time>
      </trkpt>
      <trkpt lat="47.98627" lon="5.62176">
        <ele>384.495</ele>
        <time>2019-09-24T13:01:28.001Z</time>
      </trkpt>
      <trkpt lat="47.98622" lon="5.62186">
        <ele>384.915</ele>
        <time>2019-09-24T13:01:31.001Z</time>
      </trkpt>
      <trkpt lat="47.98615" lon="5.62196">
        <ele>385.035</ele>
        <time>2019-09-24T13:01:34.001Z</time>
      </trkpt>
      <trkpt lat="47.98609" lon="5.62208">
        <ele>385.284</ele>
        <time>2019-09-24T13:01:37.001Z</time>
      </trkpt>
      <trkpt lat="47.98603" lon="5.62218">
        <ele>385.505</ele>
        <time>2019-09-24T13:01:40.001Z</time>
      </trkpt>
      <trkpt lat="47.98597" lon="5.62228">
        <ele>385.629</ele>
        <time>2019-09-24T13:01:43.001Z</time>
      </trkpt>
      <trkpt lat="47.98591" lon="5.62239">
        <ele>385.443</ele>
        <time>2019-09-24T13:01:46.001Z</time>
      </trkpt>
      <trkpt lat="47.98584" lon="5.6225">
        <ele>385.629</ele>
        <time>2019-09-24T13:01:49.001Z</time>
      </trkpt>
      <trkpt lat="47.98578" lon="5.62261">
        <ele>386.238</ele>
        <time>2019-09-24T13:01:52.001Z</time>
      </trkpt>
      <trkpt lat="47.98572" lon="5.62271">
        <ele>386.873</ele>
        <time>2019-09-24T13:01:55.001Z</time>
      </trkpt>
      <trkpt lat="47.98566" lon="5.62281">
        <ele>387.478</ele>
        <time>2019-09-24T13:01:58.001Z</time>
      </trkpt>
      <trkpt lat="47.9856" lon="5.62291">
        <ele>387.836</ele>
        <time>2019-09-24T13:02:01.001Z</time>
      </trkpt>
      <trkpt lat="47.98554" lon="5.62301">
        <ele>387.895</ele>
        <time>2019-09-24T13:02:04.001Z</time>
      </trkpt>
      <trkpt lat="47.98547" lon="5.62311">
        <ele>388.19</ele>
        <time>2019-09-24T13:02:07.001Z</time>
      </trkpt>
      <trkpt lat="47.9854" lon="5.62321">
        <ele>388.285</ele>
        <time>2019-09-24T13:02:10.001Z</time>
      </trkpt>
      <trkpt lat="47.98534" lon="5.62331">
        <ele>387.971</ele>
        <time>2019-09-24T13:02:13.001Z</time>
      </trkpt>
      <trkpt lat="47.98528" lon="5.62341">
        <ele>388.27</ele>
        <time>2019-09-24T15:02:16Z</time>
      </trkpt>
      <trkpt lat="47.98521" lon="5.62351">
        <ele>388.582</ele>
        <time>2019-09-24T13:02:19.001Z</time>
      </trkpt>
      <trkpt lat="47.98515" lon="5.62361">
        <ele>388.846</ele>
        <time>2019-09-24T13:02:22.001Z</time>
      </trkpt>
      <trkpt lat="47.98508" lon="5.62371">
        <ele>389.163</ele>
        <time>2019-09-24T13:02:25.001Z</time>
      </trkpt>
      <trkpt lat="47.98502" lon="5.62381">
        <ele>389.117</ele>
        <time>2019-09-24T13:02:28.001Z</time>
      </trkpt>
      <trkpt lat="47.98495" lon="5.62391">
        <ele>389.259</ele>
        <time>2019-09-24T13:02:31.001Z</time>
      </trkpt>
      <trkpt lat="47.98488" lon="5.62402">
        <ele>389.238</ele>
        <time>2019-09-24T13:02:34.001Z</time>
      </trkpt>
      <trkpt lat="47.98482" lon="5.62413">
        <ele>389.16</ele>
        <time>2019-09-24T13:02:37.001Z</time>
      </trkpt>
      <trkpt lat="47.98476" lon="5.62423">
        <ele>389.391</ele>
        <time>2019-09-24T13:02:40.001Z</time>
      </trkpt>
      <trkpt lat="47.98469" lon="5.62432">
        <ele>389.448</ele>
        <time>2019-09-24T13:02:43.001Z</time>
      </trkpt>
      <trkpt lat="47.98464" lon="5.6244">
        <ele>389.491</ele>
        <time>2019-09-24T13:02:46.001Z</time>
      </trkpt>
      <trkpt lat="47.98459" lon="5.62447">
        <ele>389.578</ele>
        <time>2019-09-24T13:02:49.001Z</time>
      </trkpt>
      <trkpt lat="47.98454" lon="5.62456">
        <ele>389.745</ele>
        <time>2019-09-24T13:02:52.001Z</time>
      </trkpt>
      <trkpt lat="47.98448" lon="5.62465">
        <ele>389.676</ele>
        <time>2019-09-24T13:02:55.001Z</time>
      </trkpt>
      <trkpt lat="47.98442" lon="5.62475">
        <ele>389.959</ele>
        <time>2019-09-24T13:02:58.001Z</time>
      </trkpt>
      <trkpt lat="47.98437" lon="5.62484">
        <ele>390.762</ele>
        <time>2019-09-24T13:03:01.001Z</time>
      </trkpt>
      <trkpt lat="47.98432" lon="5.62492">
        <ele>391.412</ele>
        <time>2019-09-24T13:03:04.001Z</time>
      </trkpt>
      <trkpt lat="47.98427" lon="5.62501">
        <ele>391.612</ele>
        <time>2019-09-24T13:03:07.001Z</time>
      </trkpt>
      <trkpt lat="47.98422" lon="5.6251">
        <ele>392.077</ele>
        <time>2019-09-24T13:03:10.001Z</time>
      </trkpt>
      <trkpt lat="47.98417" lon="5.6252">
        <ele>392.732</ele>
        <time>2019-09-24T13:03:13.001Z</time>
      </trkpt>
      <trkpt lat="47.98413" lon="5.62529">
        <ele>393.241</ele>
        <time>2019-09-24T15:03:16Z</time>
      </trkpt>
      <trkpt lat="47.98408" lon="5.62538">
        <ele>393.65</ele>
        <time>2019-09-24T13:03:19.001Z</time>
      </trkpt>
      <trkpt lat="47.98403" lon="5.62547">
        <ele>393.591</ele>
        <time>2019-09-24T13:03:22.001Z</time>
      </trkpt>
      <trkpt lat="47.98397" lon="5.62556">
        <ele>393.228</ele>
        <time>2019-09-24T13:03:25.001Z</time>
      </trkpt>
      <trkpt lat="47.98392" lon="5.62566">
        <ele>393.274</ele>
        <time>2019-09-24T13:03:28.001Z</time>
      </trkpt>
      <trkpt lat="47.98388" lon="5.62575">
        <ele>393.274</ele>
        <time>2019-09-24T13:03:31.001Z</time>
      </trkpt>
      <trkpt lat="47.98384" lon="5.62585">
        <ele>393.286</ele>
        <time>2019-09-24T13:03:34.001Z</time>
      </trkpt>
      <trkpt lat="47.9838" lon="5.62596">
        <ele>393.463</ele>
        <time>2019-09-24T13:03:37.001Z</time>
      </trkpt>
      <trkpt lat="47.98375" lon="5.62609">
        <ele>393.862</ele>
        <time>2019-09-24T13:03:40.001Z</time>
      </trkpt>
      <trkpt lat="47.98371" lon="5.6262">
        <ele>394.211</ele>
        <time>2019-09-24T13:03:43.001Z</time>
      </trkpt>
      <trkpt lat="47.98367" lon="5.62632">
        <ele>394.651</ele>
        <time>2019-09-24T13:03:46.001Z</time>
      </trkpt>
      <trkpt lat="47.98363" lon="5.62644">
        <ele>394.724</ele>
        <time>2019-09-24T13:03:49.001Z</time>
      </trkpt>
      <trkpt lat="47.98359" lon="5.62656">
        <ele>395.059</ele>
        <time>2019-09-24T13:03:52.001Z</time>
      </trkpt>
      <trkpt lat="47.98356" lon="5.62667">
        <ele>394.988</ele>
        <time>2019-09-24T13:03:55.001Z</time>
      </trkpt>
      <trkpt lat="47.98351" lon="5.6268">
        <ele>395.474</ele>
        <time>2019-09-24T13:03:58.001Z</time>
      </trkpt>
      <trkpt lat="47.98346" lon="5.62692">
        <ele>395.45</ele>
        <time>2019-09-24T13:04:01.001Z</time>
      </trkpt>
      <trkpt lat="47.98342" lon="5.62704">
        <ele>395.188</ele>
        <time>2019-09-24T13:04:04.001Z</time>
      </trkpt>
      <trkpt lat="47.98338" lon="5.62716">
        <ele>395.195</ele>
        <time>2019-09-24T13:04:07.001Z</time>
      </trkpt>
      <trkpt lat="47.98334" lon="5.62728">
        <ele>395.648</ele>
        <time>2019-09-24T13:04:10.001Z</time>
      </trkpt>
      <trkpt lat="47.98331" lon="5.62741">
        <ele>396.089</ele>
        <time>2019-09-24T13:04:13.001Z</time>
      </trkpt>
      <trkpt lat="47.98329" lon="5.62753">
        <ele>397.55</ele>
        <time>2019-09-24T15:04:16Z</time>
      </trkpt>
      <trkpt lat="47.98328" lon="5.62766">
        <ele>397.656</ele>
        <time>2019-09-24T13:04:19.001Z</time>
      </trkpt>
      <trkpt lat="47.98326" lon="5.6278">
        <ele>398.167</ele>
        <time>2019-09-24T13:04:22.001Z</time>
      </trkpt>
      <trkpt lat="47.98324" lon="5.62792">
        <ele>398.467</ele>
        <time>2019-09-24T13:04:25.001Z</time>
      </trkpt>
      <trkpt lat="47.98321" lon="5.62804">
        <ele>398.53</ele>
        <time>2019-09-24T13:04:28.001Z</time>
      </trkpt>
      <trkpt lat="47.98316" lon="5.62812">
        <ele>398.229</ele>
        <time>2019-09-24T13:04:31.001Z</time>
      </trkpt>
      <trkpt lat="47.98307" lon="5.62813">
        <ele>397.158</ele>
        <time>2019-09-24T13:04:34.001Z</time>
      </trkpt>
      <trkpt lat="47.98299" lon="5.6281">
        <ele>396.727</ele>
        <time>2019-09-24T13:04:37.001Z</time>
      </trkpt>
      <trkpt lat="47.98291" lon="5.62806">
        <ele>396.395</ele>
        <time>2019-09-24T13:04:40.001Z</time>
      </trkpt>
      <trkpt lat="47.98283" lon="5.62802">
        <ele>396.67</ele>
        <time>2019-09-24T13:04:43.001Z</time>
      </trkpt>
      <trkpt lat="47.98274" lon="5.62798">
        <ele>396.647</ele>
        <time>2019-09-24T13:04:46.001Z</time>
      </trkpt>
      <trkpt lat="47.98266" lon="5.62793">
        <ele>397.076</ele>
        <time>2019-09-24T13:04:49.001Z</time>
      </trkpt>
      <trkpt lat="47.98258" lon="5.6279">
        <ele>396.827</ele>
        <time>2019-09-24T13:04:52.001Z</time>
      </trkpt>
      <trkpt lat="47.9825" lon="5.62786">
        <ele>396.563</ele>
        <time>2019-09-24T13:04:55.001Z</time>
      </trkpt>
      <trkpt lat="47.9824" lon="5.62783">
        <ele>396.509</ele>
        <time>2019-09-24T13:04:58.001Z</time>
      </trkpt>
      <trkpt lat="47.98231" lon="5.62782">
        <ele>395.976</ele>
        <time>2019-09-24T13:05:01.001Z</time>
      </trkpt>
      <trkpt lat="47.98222" lon="5.62783">
        <ele>395.964</ele>
        <time>2019-09-24T13:05:04.001Z</time>
      </trkpt>
      <trkpt lat="47.98212" lon="5.62786">
        <ele>395.855</ele>
        <time>2019-09-24T13:05:07.001Z</time>
      </trkpt>
      <trkpt lat="47.98203" lon="5.62788">
        <ele>396.056</ele>
        <time>2019-09-24T13:05:10.001Z</time>
      </trkpt>
      <trkpt lat="47.98195" lon="5.62795">
        <ele>397.152</ele>
        <time>2019-09-24T13:05:13.001Z</time>
      </trkpt>
      <trkpt lat="47.98186" lon="5.62801">
        <ele>397.671</ele>
        <time>2019-09-24T15:05:16Z</time>
      </trkpt>
      <trkpt lat="47.98178" lon="5.62807">
        <ele>398.617</ele>
        <time>2019-09-24T13:05:19.001Z</time>
      </trkpt>
      <trkpt lat="47.98169" lon="5.62812">
        <ele>399.585</ele>
        <time>2019-09-24T13:05:22.001Z</time>
      </trkpt>
      <trkpt lat="47.98161" lon="5.62821">
        <ele>399.943</ele>
        <time>2019-09-24T13:05:25.001Z</time>
      </trkpt>
      <trkpt lat="47.98157" lon="5.62836">
        <ele>400.402</ele>
        <time>2019-09-24T13:05:28.001Z</time>
      </trkpt>
      <trkpt lat="47.98152" lon="5.62852">
        <ele>399.923</ele>
        <time>2019-09-24T13:05:31.001Z</time>
      </trkpt>
      <trkpt lat="47.98147" lon="5.62868">
        <ele>400.443</ele>
        <time>2019-09-24T13:05:34.001Z</time>
      </trkpt>
      <trkpt lat="47.98143" lon="5.62883">
        <ele>401.393</ele>
        <time>2019-09-24T13:05:37.001Z</time>
      </trkpt>
      <trkpt lat="47.98137" lon="5.62895">
        <ele>400.896</ele>
        <time>2019-09-24T13:05:40.001Z</time>
      </trkpt>
      <trkpt lat="47.98133" lon="5.62901">
        <ele>399.335</ele>
        <time>2019-09-24T13:05:43.001Z</time>
      </trkpt>
      <trkpt lat="47.98131" lon="5.62901">
        <ele>397.822</ele>
        <time>2019-09-24T13:05:46.001Z</time>
      </trkpt>
      <trkpt lat="47.98131" lon="5.62901">
        <ele>397.822</ele>
        <time>2019-09-24T13:05:49.001Z</time>
      </trkpt>
      <trkpt lat="47.98131" lon="5.62901">
        <ele>397.822</ele>
        <time>2019-09-24T13:06:04.001Z</time>
      </trkpt>
      <trkpt lat="47.9813" lon="5.62902">
        <ele>398.015</ele>
        <time>2019-09-24T13:06:07.001Z</time>
      </trkpt>
      <trkpt lat="47.98128" lon="5.62902">
        <ele>397.888</ele>
        <time>2019-09-24T13:06:10.001Z</time>
      </trkpt>
      <trkpt lat="47.98128" lon="5.62902">
        <ele>397.888</ele>
        <time>2019-09-24T13:10:49.001Z</time>
      </trkpt>
      <trkpt lat="47.98128" lon="5.62902">
        <ele>397.888</ele>
        <time>2019-09-24T13:10:52.001Z</time>
      </trkpt>
      <trkpt lat="47.98128" lon="5.62901">
        <ele>395.375</ele>
        <time>2019-09-24T13:11:10.001Z</time>
      </trkpt>
      <trkpt lat="47.98128" lon="5.62901">
        <ele>395.375</ele>
        <time>2019-09-24T13:11:13.001Z</time>
      </trkpt>
      <trkpt lat="47.98128" lon="5.62901">
        <ele>395.375</ele>
        <time>2019-09-24T13:12:52.001Z</time>
      </trkpt>
      <trkpt lat="47.98129" lon="5.62898">
        <ele>395.375</ele>
        <time>2019-09-24T13:12:55.001Z</time>
      </trkpt>
      <trkpt lat="47.98129" lon="5.62898">
        <ele>395.375</ele>
        <time>2019-09-24T13:13:04.001Z</time>
      </trkpt>
      <trkpt lat="47.98129" lon="5.62898">
        <ele>395.375</ele>
        <time>2019-09-24T13:13:07.001Z</time>
      </trkpt>
      <trkpt lat="47.98129" lon="5.62898">
        <ele>395.375</ele>
        <time>2019-09-24T13:13:25.001Z</time>
      </trkpt>
      <trkpt lat="47.98129" lon="5.62898">
        <ele>395.375</ele>
        <time>2019-09-24T13:13:28.001Z</time>
      </trkpt>
      <trkpt lat="47.98129" lon="5.62898">
        <ele>395.375</ele>
        <time>2019-09-24T13:13:31.001Z</time>
      </trkpt>
      <trkpt lat="47.98129" lon="5.62898">
        <ele>393.476</ele>
        <time>2019-09-24T13:15:10.001Z</time>
      </trkpt>
      <trkpt lat="47.98129" lon="5.62894">
        <ele>393.476</ele>
        <time>2019-09-24T13:15:13.001Z</time>
      </trkpt>
      <trkpt lat="47.98129" lon="5.62894">
        <ele>393.476</ele>
        <time>2019-09-24T15:15:16Z</time>
      </trkpt>
      <trkpt lat="47.98129" lon="5.62894">
        <ele>393.476</ele>
        <time>2019-09-24T13:15:19.001Z</time>
      </trkpt>
      <trkpt lat="47.98129" lon="5.62894">
        <ele>393.476</ele>
        <time>2019-09-24T13:16:25.001Z</time>
      </trkpt>
      <trkpt lat="47.98129" lon="5.62894">
        <ele>393.476</ele>
        <time>2019-09-24T13:16:28.001Z</time>
      </trkpt>
      <trkpt lat="47.98129" lon="5.62894">
        <ele>393.476</ele>
        <time>2019-09-24T13:16:31.001Z</time>
      </trkpt>
      <trkpt lat="47.98129" lon="5.62894">
        <ele>393.476</ele>
        <time>2019-09-24T13:16:34.001Z</time>
      </trkpt>
      <trkpt lat="47.98129" lon="5.62894">
        <ele>393.476</ele>
        <time>2019-09-24T13:17:04.001Z</time>
      </trkpt>
      <trkpt lat="47.98129" lon="5.62894">
        <ele>393.476</ele>
        <time>2019-09-24T13:17:07.001Z</time>
      </trkpt>
      <trkpt lat="47.98129" lon="5.62894">
        <ele>393.968</ele>
        <time>2019-09-24T13:17:19.001Z</time>
      </trkpt>
      <trkpt lat="47.98129" lon="5.62894">
        <ele>393.968</ele>
        <time>2019-09-24T13:17:22.001Z</time>
      </trkpt>
      <trkpt lat="47.98129" lon="5.62894">
        <ele>393.968</ele>
        <time>2019-09-24T13:17:43.001Z</time>
      </trkpt>
      <trkpt lat="47.98128" lon="5.62895">
        <ele>393.968</ele>
        <time>2019-09-24T13:17:46.001Z</time>
      </trkpt>
      <trkpt lat="47.98128" lon="5.62895">
        <ele>393.968</ele>
        <time>2019-09-24T13:17:49.001Z</time>
      </trkpt>
      <trkpt lat="47.98128" lon="5.62895">
        <ele>393.968</ele>
        <time>2019-09-24T13:17:55.001Z</time>
      </trkpt>
      <trkpt lat="47.98128" lon="5.62895">
        <ele>393.968</ele>
        <time>2019-09-24T13:17:58.001Z</time>
      </trkpt>
      <trkpt lat="47.98129" lon="5.62895">
        <ele>393.968</ele>
        <time>2019-09-24T13:18:19.001Z</time>
      </trkpt>
      <trkpt lat="47.98129" lon="5.62895">
        <ele>393.968</ele>
        <time>2019-09-24T13:18:22.001Z</time>
      </trkpt>
      <trkpt lat="47.98129" lon="5.62895">
        <ele>393.866</ele>
        <time>2019-09-24T13:19:01.001Z</time>
      </trkpt>
      <trkpt lat="47.98129" lon="5.62894">
        <ele>393.894</ele>
        <time>2019-09-24T13:19:04.001Z</time>
      </trkpt>
      <trkpt lat="47.98129" lon="5.62893">
        <ele>393.942</ele>
        <time>2019-09-24T15:19:16Z</time>
      </trkpt>
      <trkpt lat="47.98129" lon="5.62893">
        <ele>393.942</ele>
        <time>2019-09-24T13:19:19.001Z</time>
      </trkpt>
      <trkpt lat="47.98129" lon="5.62893">
        <ele>393.722</ele>
        <time>2019-09-24T13:21:01.001Z</time>
      </trkpt>
      <trkpt lat="47.98128" lon="5.62893">
        <ele>393.722</ele>
        <time>2019-09-24T13:21:04.001Z</time>
      </trkpt>
      <trkpt lat="47.98128" lon="5.62893">
        <ele>393.722</ele>
        <time>2019-09-24T13:21:07.001Z</time>
      </trkpt>
      <trkpt lat="47.98128" lon="5.62893">
        <ele>393.722</ele>
        <time>2019-09-24T13:21:10.001Z</time>
      </trkpt>
      <trkpt lat="47.98128" lon="5.62893">
        <ele>393.958</ele>
        <time>2019-09-24T13:26:40.001Z</time>
      </trkpt>
      <trkpt lat="47.98128" lon="5.62891">
        <ele>393.958</ele>
        <time>2019-09-24T13:26:43.001Z</time>
      </trkpt>
      <trkpt lat="47.98128" lon="5.62892">
        <ele>393.694</ele>
        <time>2019-09-24T13:26:58.001Z</time>
      </trkpt>
      <trkpt lat="47.98128" lon="5.62892">
        <ele>393.694</ele>
        <time>2019-09-24T13:27:01.001Z</time>
      </trkpt>
      <trkpt lat="47.98128" lon="5.62892">
        <ele>395.078</ele>
        <time>2019-09-24T13:30:07.001Z</time>
      </trkpt>
      <trkpt lat="47.98123" lon="5.62922">
        <ele>395.476</ele>
        <time>2019-09-24T13:30:10.001Z</time>
      </trkpt>
      <trkpt lat="47.98124" lon="5.62933">
        <ele>395.852</ele>
        <time>2019-09-24T13:30:13.001Z</time>
      </trkpt>
      <trkpt lat="47.98129" lon="5.62943">
        <ele>395.901</ele>
        <time>2019-09-24T15:30:16Z</time>
      </trkpt>
      <trkpt lat="47.98134" lon="5.62955">
        <ele>396.122</ele>
        <time>2019-09-24T13:30:19.001Z</time>
      </trkpt>
      <trkpt lat="47.98139" lon="5.62968">
        <ele>396.657</ele>
        <time>2019-09-24T13:30:22.001Z</time>
      </trkpt>
      <trkpt lat="47.98143" lon="5.6298">
        <ele>397.085</ele>
        <time>2019-09-24T13:30:25.001Z</time>
      </trkpt>
      <trkpt lat="47.98147" lon="5.6299">
        <ele>397.821</ele>
        <time>2019-09-24T13:30:28.001Z</time>
      </trkpt>
      <trkpt lat="47.98151" lon="5.63003">
        <ele>398.719</ele>
        <time>2019-09-24T13:30:31.001Z</time>
      </trkpt>
      <trkpt lat="47.98156" lon="5.63015">
        <ele>399.177</ele>
        <time>2019-09-24T13:30:34.001Z</time>
      </trkpt>
      <trkpt lat="47.98159" lon="5.63026">
        <ele>399.332</ele>
        <time>2019-09-24T13:30:37.001Z</time>
      </trkpt>
      <trkpt lat="47.98162" lon="5.63038">
        <ele>399.624</ele>
        <time>2019-09-24T13:30:40.001Z</time>
      </trkpt>
      <trkpt lat="47.98164" lon="5.63051">
        <ele>399.493</ele>
        <time>2019-09-24T13:30:43.001Z</time>
      </trkpt>
      <trkpt lat="47.98163" lon="5.63064">
        <ele>398.526</ele>
        <time>2019-09-24T13:30:46.001Z</time>
      </trkpt>
      <trkpt lat="47.98161" lon="5.63079">
        <ele>398.549</ele>
        <time>2019-09-24T13:30:49.001Z</time>
      </trkpt>
      <trkpt lat="47.98159" lon="5.63093">
        <ele>399.087</ele>
        <time>2019-09-24T13:30:52.001Z</time>
      </trkpt>
      <trkpt lat="47.98156" lon="5.63107">
        <ele>398.687</ele>
        <time>2019-09-24T13:30:55.001Z</time>
      </trkpt>
      <trkpt lat="47.98154" lon="5.6312">
        <ele>398.783</ele>
        <time>2019-09-24T13:30:58.001Z</time>
      </trkpt>
      <trkpt lat="47.98151" lon="5.63134">
        <ele>397.114</ele>
        <time>2019-09-24T13:31:01.001Z</time>
      </trkpt>
      <trkpt lat="47.98148" lon="5.63148">
        <ele>397.037</ele>
        <time>2019-09-24T13:31:04.001Z</time>
      </trkpt>
      <trkpt lat="47.98146" lon="5.63161">
        <ele>397.198</ele>
        <time>2019-09-24T13:31:07.001Z</time>
      </trkpt>
      <trkpt lat="47.98145" lon="5.63175">
        <ele>397.894</ele>
        <time>2019-09-24T13:31:10.001Z</time>
      </trkpt>
      <trkpt lat="47.98145" lon="5.63191">
        <ele>398.696</ele>
        <time>2019-09-24T13:31:13.001Z</time>
      </trkpt>
      <trkpt lat="47.98145" lon="5.63207">
        <ele>399.259</ele>
        <time>2019-09-24T15:31:16Z</time>
      </trkpt>
      <trkpt lat="47.98148" lon="5.63221">
        <ele>399.42</ele>
        <time>2019-09-24T13:31:19.001Z</time>
      </trkpt>
      <trkpt lat="47.9815" lon="5.63235">
        <ele>399.084</ele>
        <time>2019-09-24T13:31:22.001Z</time>
      </trkpt>
      <trkpt lat="47.98151" lon="5.63249">
        <ele>398.489</ele>
        <time>2019-09-24T13:31:25.001Z</time>
      </trkpt>
      <trkpt lat="47.98153" lon="5.63262">
        <ele>398.3</ele>
        <time>2019-09-24T13:31:28.001Z</time>
      </trkpt>
      <trkpt lat="47.98154" lon="5.63274">
        <ele>398.616</ele>
        <time>2019-09-24T13:31:31.001Z</time>
      </trkpt>
      <trkpt lat="47.98155" lon="5.63287">
        <ele>398.7</ele>
        <time>2019-09-24T13:31:34.001Z</time>
      </trkpt>
      <trkpt lat="47.98157" lon="5.63301">
        <ele>398.978</ele>
        <time>2019-09-24T13:31:37.001Z</time>
      </trkpt>
      <trkpt lat="47.98157" lon="5.63312">
        <ele>399.561</ele>
        <time>2019-09-24T13:31:40.002Z</time>
      </trkpt>
      <trkpt lat="47.98159" lon="5.63321">
        <ele>400.811</ele>
        <time>2019-09-24T13:31:43.001Z</time>
      </trkpt>
      <trkpt lat="47.98161" lon="5.63334">
        <ele>402.178</ele>
        <time>2019-09-24T13:31:46.001Z</time>
      </trkpt>
      <trkpt lat="47.98162" lon="5.63347">
        <ele>402.904</ele>
        <time>2019-09-24T13:31:49.001Z</time>
      </trkpt>
      <trkpt lat="47.98162" lon="5.6336">
        <ele>403.306</ele>
        <time>2019-09-24T13:31:52.001Z</time>
      </trkpt>
      <trkpt lat="47.98163" lon="5.63375">
        <ele>403.796</ele>
        <time>2019-09-24T13:31:55.001Z</time>
      </trkpt>
      <trkpt lat="47.98164" lon="5.63389">
        <ele>403.66</ele>
        <time>2019-09-24T13:31:58.001Z</time>
      </trkpt>
      <trkpt lat="47.98164" lon="5.63403">
        <ele>403.589</ele>
        <time>2019-09-24T13:32:01.001Z</time>
      </trkpt>
      <trkpt lat="47.98165" lon="5.63416">
        <ele>403.506</ele>
        <time>2019-09-24T13:32:04.001Z</time>
      </trkpt>
      <trkpt lat="47.98165" lon="5.63428">
        <ele>403.792</ele>
        <time>2019-09-24T13:32:07.001Z</time>
      </trkpt>
      <trkpt lat="47.98167" lon="5.6344">
        <ele>404.045</ele>
        <time>2019-09-24T13:32:10.001Z</time>
      </trkpt>
      <trkpt lat="47.98168" lon="5.63453">
        <ele>404.578</ele>
        <time>2019-09-24T13:32:13.001Z</time>
      </trkpt>
      <trkpt lat="47.98169" lon="5.63467">
        <ele>405.057</ele>
        <time>2019-09-24T15:32:16Z</time>
      </trkpt>
      <trkpt lat="47.98169" lon="5.63481">
        <ele>405.669</ele>
        <time>2019-09-24T13:32:19.001Z</time>
      </trkpt>
      <trkpt lat="47.98169" lon="5.63496">
        <ele>405.595</ele>
        <time>2019-09-24T13:32:22.001Z</time>
      </trkpt>
      <trkpt lat="47.9817" lon="5.63512">
        <ele>405.175</ele>
        <time>2019-09-24T13:32:25.001Z</time>
      </trkpt>
      <trkpt lat="47.98171" lon="5.63528">
        <ele>404.821</ele>
        <time>2019-09-24T13:32:28.001Z</time>
      </trkpt>
      <trkpt lat="47.98172" lon="5.63543">
        <ele>404.705</ele>
        <time>2019-09-24T13:32:31.001Z</time>
      </trkpt>
      <trkpt lat="47.98173" lon="5.63558">
        <ele>405.345</ele>
        <time>2019-09-24T13:32:34.001Z</time>
      </trkpt>
      <trkpt lat="47.98173" lon="5.63572">
        <ele>405.798</ele>
        <time>2019-09-24T13:32:37.001Z</time>
      </trkpt>
      <trkpt lat="47.98174" lon="5.63586">
        <ele>405.958</ele>
        <time>2019-09-24T13:32:40.001Z</time>
      </trkpt>
      <trkpt lat="47.98174" lon="5.63599">
        <ele>405.604</ele>
        <time>2019-09-24T13:32:43.001Z</time>
      </trkpt>
      <trkpt lat="47.98174" lon="5.63612">
        <ele>405.353</ele>
        <time>2019-09-24T13:32:46.001Z</time>
      </trkpt>
      <trkpt lat="47.98173" lon="5.63626">
        <ele>405.231</ele>
        <time>2019-09-24T13:32:49.001Z</time>
      </trkpt>
      <trkpt lat="47.98171" lon="5.6364">
        <ele>405.245</ele>
        <time>2019-09-24T13:32:52.001Z</time>
      </trkpt>
      <trkpt lat="47.9817" lon="5.63655">
        <ele>405.226</ele>
        <time>2019-09-24T13:32:55.001Z</time>
      </trkpt>
      <trkpt lat="47.98168" lon="5.63669">
        <ele>405.366</ele>
        <time>2019-09-24T13:32:58.001Z</time>
      </trkpt>
      <trkpt lat="47.98167" lon="5.63682">
        <ele>405.939</ele>
        <time>2019-09-24T13:33:01.001Z</time>
      </trkpt>
      <trkpt lat="47.98166" lon="5.63694">
        <ele>406.265</ele>
        <time>2019-09-24T13:33:04.001Z</time>
      </trkpt>
      <trkpt lat="47.98166" lon="5.63706">
        <ele>406.714</ele>
        <time>2019-09-24T13:33:07.001Z</time>
      </trkpt>
      <trkpt lat="47.98166" lon="5.6372">
        <ele>407.119</ele>
        <time>2019-09-24T13:33:10.001Z</time>
      </trkpt>
      <trkpt lat="47.98167" lon="5.63733">
        <ele>407.356</ele>
        <time>2019-09-24T13:33:13.001Z</time>
      </trkpt>
      <trkpt lat="47.98169" lon="5.63746">
        <ele>407.596</ele>
        <time>2019-09-24T15:33:16Z</time>
      </trkpt>
      <trkpt lat="47.98171" lon="5.63761">
        <ele>407.096</ele>
        <time>2019-09-24T13:33:19.001Z</time>
      </trkpt>
      <trkpt lat="47.98173" lon="5.63775">
        <ele>406.582</ele>
        <time>2019-09-24T13:33:22.001Z</time>
      </trkpt>
      <trkpt lat="47.98175" lon="5.63789">
        <ele>406.327</ele>
        <time>2019-09-24T13:33:25.001Z</time>
      </trkpt>
      <trkpt lat="47.98178" lon="5.63804">
        <ele>406.26</ele>
        <time>2019-09-24T13:33:28.001Z</time>
      </trkpt>
      <trkpt lat="47.98181" lon="5.63819">
        <ele>406.04</ele>
        <time>2019-09-24T13:33:31.001Z</time>
      </trkpt>
      <trkpt lat="47.98183" lon="5.63834">
        <ele>406.478</ele>
        <time>2019-09-24T13:33:34.001Z</time>
      </trkpt>
      <trkpt lat="47.98186" lon="5.6385">
        <ele>406.89</ele>
        <time>2019-09-24T13:33:37.001Z</time>
      </trkpt>
      <trkpt lat="47.98189" lon="5.63865">
        <ele>407.174</ele>
        <time>2019-09-24T13:33:40.001Z</time>
      </trkpt>
      <trkpt lat="47.98191" lon="5.6388">
        <ele>407.414</ele>
        <time>2019-09-24T13:33:43.001Z</time>
      </trkpt>
      <trkpt lat="47.98193" lon="5.63894">
        <ele>407.546</ele>
        <time>2019-09-24T13:33:46.001Z</time>
      </trkpt>
      <trkpt lat="47.98196" lon="5.6391">
        <ele>407.707</ele>
        <time>2019-09-24T13:33:49.001Z</time>
      </trkpt>
      <trkpt lat="47.98198" lon="5.63925">
        <ele>407.359</ele>
        <time>2019-09-24T13:33:52.001Z</time>
      </trkpt>
      <trkpt lat="47.982" lon="5.63941">
        <ele>407.362</ele>
        <time>2019-09-24T13:33:55.001Z</time>
      </trkpt>
      <trkpt lat="47.98203" lon="5.63956">
        <ele>407.025</ele>
        <time>2019-09-24T13:33:58.001Z</time>
      </trkpt>
      <trkpt lat="47.98206" lon="5.63973">
        <ele>406.623</ele>
        <time>2019-09-24T13:34:01.001Z</time>
      </trkpt>
      <trkpt lat="47.98209" lon="5.6399">
        <ele>405.953</ele>
        <time>2019-09-24T13:34:04.001Z</time>
      </trkpt>
      <trkpt lat="47.98213" lon="5.64006">
        <ele>405.649</ele>
        <time>2019-09-24T13:34:07.001Z</time>
      </trkpt>
      <trkpt lat="47.98216" lon="5.64023">
        <ele>405.524</ele>
        <time>2019-09-24T13:34:10.001Z</time>
      </trkpt>
      <trkpt lat="47.98218" lon="5.6404">
        <ele>405.396</ele>
        <time>2019-09-24T13:34:13.001Z</time>
      </trkpt>
      <trkpt lat="47.98221" lon="5.64057">
        <ele>405.375</ele>
        <time>2019-09-24T15:34:16Z</time>
      </trkpt>
      <trkpt lat="47.98225" lon="5.64074">
        <ele>405.334</ele>
        <time>2019-09-24T13:34:19.001Z</time>
      </trkpt>
      <trkpt lat="47.98228" lon="5.64091">
        <ele>405.215</ele>
        <time>2019-09-24T13:34:22.001Z</time>
      </trkpt>
      <trkpt lat="47.98233" lon="5.64109">
        <ele>405.159</ele>
        <time>2019-09-24T13:34:25.001Z</time>
      </trkpt>
      <trkpt lat="47.98237" lon="5.64127">
        <ele>405.087</ele>
        <time>2019-09-24T13:34:28.001Z</time>
      </trkpt>
      <trkpt lat="47.98242" lon="5.64145">
        <ele>405.206</ele>
        <time>2019-09-24T13:34:31.001Z</time>
      </trkpt>
      <trkpt lat="47.98247" lon="5.64163">
        <ele>405.149</ele>
        <time>2019-09-24T13:34:34.001Z</time>
      </trkpt>
      <trkpt lat="47.98252" lon="5.64182">
        <ele>405.756</ele>
        <time>2019-09-24T13:34:37.001Z</time>
      </trkpt>
      <trkpt lat="47.98257" lon="5.642">
        <ele>405.961</ele>
        <time>2019-09-24T13:34:40.001Z</time>
      </trkpt>
      <trkpt lat="47.98263" lon="5.64219">
        <ele>405.92</ele>
        <time>2019-09-24T13:34:43.001Z</time>
      </trkpt>
      <trkpt lat="47.98268" lon="5.64238">
        <ele>406.069</ele>
        <time>2019-09-24T13:34:46.001Z</time>
      </trkpt>
      <trkpt lat="47.98273" lon="5.64258">
        <ele>406.057</ele>
        <time>2019-09-24T13:34:49.001Z</time>
      </trkpt>
      <trkpt lat="47.98278" lon="5.64278">
        <ele>406.008</ele>
        <time>2019-09-24T13:34:52.001Z</time>
      </trkpt>
      <trkpt lat="47.98283" lon="5.64298">
        <ele>405.915</ele>
        <time>2019-09-24T13:34:55.001Z</time>
      </trkpt>
      <trkpt lat="47.98289" lon="5.64318">
        <ele>405.48</ele>
        <time>2019-09-24T13:34:58.001Z</time>
      </trkpt>
      <trkpt lat="47.98293" lon="5.64339">
        <ele>405.083</ele>
        <time>2019-09-24T13:35:01.001Z</time>
      </trkpt>
      <trkpt lat="47.98299" lon="5.6436">
        <ele>404.856</ele>
        <time>2019-09-24T13:35:04.001Z</time>
      </trkpt>
      <trkpt lat="47.98305" lon="5.6438">
        <ele>404.605</ele>
        <time>2019-09-24T13:35:07.001Z</time>
      </trkpt>
      <trkpt lat="47.9831" lon="5.644">
        <ele>404.22</ele>
        <time>2019-09-24T13:35:10.001Z</time>
      </trkpt>
      <trkpt lat="47.98316" lon="5.6442">
        <ele>404.202</ele>
        <time>2019-09-24T13:35:13.001Z</time>
      </trkpt>
      <trkpt lat="47.98322" lon="5.64439">
        <ele>404.206</ele>
        <time>2019-09-24T15:35:16Z</time>
      </trkpt>
      <trkpt lat="47.9833" lon="5.64458">
        <ele>403.606</ele>
        <time>2019-09-24T13:35:19.001Z</time>
      </trkpt>
      <trkpt lat="47.9834" lon="5.64476">
        <ele>403.333</ele>
        <time>2019-09-24T13:35:22.001Z</time>
      </trkpt>
      <trkpt lat="47.98351" lon="5.64494">
        <ele>403.387</ele>
        <time>2019-09-24T13:35:25.001Z</time>
      </trkpt>
      <trkpt lat="47.98363" lon="5.6451">
        <ele>403.516</ele>
        <time>2019-09-24T13:35:28.001Z</time>
      </trkpt>
      <trkpt lat="47.98375" lon="5.64527">
        <ele>403.285</ele>
        <time>2019-09-24T13:35:31.001Z</time>
      </trkpt>
      <trkpt lat="47.98387" lon="5.64544">
        <ele>402.992</ele>
        <time>2019-09-24T13:35:34.001Z</time>
      </trkpt>
      <trkpt lat="47.984" lon="5.64563">
        <ele>403.192</ele>
        <time>2019-09-24T13:35:37.001Z</time>
      </trkpt>
      <trkpt lat="47.98413" lon="5.64584">
        <ele>403.076</ele>
        <time>2019-09-24T13:35:40.001Z</time>
      </trkpt>
      <trkpt lat="47.98424" lon="5.64609">
        <ele>402.558</ele>
        <time>2019-09-24T13:35:43.001Z</time>
      </trkpt>
      <trkpt lat="47.98431" lon="5.64636">
        <ele>401.894</ele>
        <time>2019-09-24T13:35:46.001Z</time>
      </trkpt>
      <trkpt lat="47.98435" lon="5.64666">
        <ele>401.308</ele>
        <time>2019-09-24T13:35:49.001Z</time>
      </trkpt>
      <trkpt lat="47.98436" lon="5.64705">
        <ele>400.198</ele>
        <time>2019-09-24T13:35:52.001Z</time>
      </trkpt>
      <trkpt lat="47.98434" lon="5.64744">
        <ele>399.146</ele>
        <time>2019-09-24T13:35:55.001Z</time>
      </trkpt>
      <trkpt lat="47.98429" lon="5.64782">
        <ele>397.351</ele>
        <time>2019-09-24T13:35:58.001Z</time>
      </trkpt>
      <trkpt lat="47.98426" lon="5.64821">
        <ele>395.732</ele>
        <time>2019-09-24T13:36:01.001Z</time>
      </trkpt>
      <trkpt lat="47.98426" lon="5.64862">
        <ele>394.245</ele>
        <time>2019-09-24T13:36:04.001Z</time>
      </trkpt>
      <trkpt lat="47.9843" lon="5.64903">
        <ele>392.989</ele>
        <time>2019-09-24T13:36:07.001Z</time>
      </trkpt>
      <trkpt lat="47.98439" lon="5.64942">
        <ele>392.118</ele>
        <time>2019-09-24T13:36:10.001Z</time>
      </trkpt>
      <trkpt lat="47.98449" lon="5.64975">
        <ele>390.771</ele>
        <time>2019-09-24T13:36:13.001Z</time>
      </trkpt>
      <trkpt lat="47.98461" lon="5.65008">
        <ele>389.78</ele>
        <time>2019-09-24T15:36:16Z</time>
      </trkpt>
      <trkpt lat="47.98476" lon="5.65041">
        <ele>388.808</ele>
        <time>2019-09-24T13:36:19.001Z</time>
      </trkpt>
      <trkpt lat="47.98491" lon="5.65071">
        <ele>387.726</ele>
        <time>2019-09-24T13:36:22.001Z</time>
      </trkpt>
      <trkpt lat="47.98506" lon="5.65103">
        <ele>386.851</ele>
        <time>2019-09-24T13:36:25.001Z</time>
      </trkpt>
      <trkpt lat="47.98521" lon="5.65134">
        <ele>385.465</ele>
        <time>2019-09-24T13:36:28.001Z</time>
      </trkpt>
      <trkpt lat="47.98536" lon="5.65165">
        <ele>384.624</ele>
        <time>2019-09-24T13:36:31.001Z</time>
      </trkpt>
      <trkpt lat="47.98555" lon="5.65194">
        <ele>383.561</ele>
        <time>2019-09-24T13:36:34.001Z</time>
      </trkpt>
      <trkpt lat="47.98571" lon="5.65219">
        <ele>382.465</ele>
        <time>2019-09-24T13:36:37.001Z</time>
      </trkpt>
      <trkpt lat="47.98587" lon="5.65245">
        <ele>381.125</ele>
        <time>2019-09-24T13:36:40.001Z</time>
      </trkpt>
      <trkpt lat="47.98601" lon="5.65279">
        <ele>379.951</ele>
        <time>2019-09-24T13:36:43.001Z</time>
      </trkpt>
      <trkpt lat="47.98611" lon="5.65316">
        <ele>377.59</ele>
        <time>2019-09-24T13:36:46.001Z</time>
      </trkpt>
      <trkpt lat="47.98619" lon="5.65354">
        <ele>375.542</ele>
        <time>2019-09-24T13:36:49.001Z</time>
      </trkpt>
      <trkpt lat="47.98627" lon="5.65393">
        <ele>373.74</ele>
        <time>2019-09-24T13:36:52.001Z</time>
      </trkpt>
      <trkpt lat="47.98638" lon="5.6543">
        <ele>372.67</ele>
        <time>2019-09-24T13:36:55.001Z</time>
      </trkpt>
      <trkpt lat="47.98652" lon="5.65469">
        <ele>371.674</ele>
        <time>2019-09-24T13:36:58.001Z</time>
      </trkpt>
      <trkpt lat="47.98667" lon="5.65504">
        <ele>371.054</ele>
        <time>2019-09-24T13:37:01.001Z</time>
      </trkpt>
      <trkpt lat="47.98682" lon="5.65537">
        <ele>369.711</ele>
        <time>2019-09-24T13:37:04.001Z</time>
      </trkpt>
      <trkpt lat="47.98697" lon="5.65569">
        <ele>368.249</ele>
        <time>2019-09-24T13:37:07.001Z</time>
      </trkpt>
      <trkpt lat="47.98711" lon="5.656">
        <ele>366.768</ele>
        <time>2019-09-24T13:37:10.001Z</time>
      </trkpt>
      <trkpt lat="47.98719" lon="5.65629">
        <ele>364.687</ele>
        <time>2019-09-24T13:37:13.001Z</time>
      </trkpt>
      <trkpt lat="47.98724" lon="5.65661">
        <ele>362.545</ele>
        <time>2019-09-24T15:37:16Z</time>
      </trkpt>
      <trkpt lat="47.98729" lon="5.65698">
        <ele>359.771</ele>
        <time>2019-09-24T13:37:19.001Z</time>
      </trkpt>
      <trkpt lat="47.98742" lon="5.65728">
        <ele>356.104</ele>
        <time>2019-09-24T13:37:22.001Z</time>
      </trkpt>
      <trkpt lat="47.98762" lon="5.65743">
        <ele>351.735</ele>
        <time>2019-09-24T13:37:25.001Z</time>
      </trkpt>
      <trkpt lat="47.98785" lon="5.65749">
        <ele>349.056</ele>
        <time>2019-09-24T13:37:28.001Z</time>
      </trkpt>
      <trkpt lat="47.98807" lon="5.65749">
        <ele>346.165</ele>
        <time>2019-09-24T13:37:31.001Z</time>
      </trkpt>
      <trkpt lat="47.98829" lon="5.65748">
        <ele>343.772</ele>
        <time>2019-09-24T13:37:34.001Z</time>
      </trkpt>
      <trkpt lat="47.98846" lon="5.65753">
        <ele>342.171</ele>
        <time>2019-09-24T13:37:37.001Z</time>
      </trkpt>
      <trkpt lat="47.98855" lon="5.65773">
        <ele>341.587</ele>
        <time>2019-09-24T13:37:40.001Z</time>
      </trkpt>
      <trkpt lat="47.98847" lon="5.65802">
        <ele>340.486</ele>
        <time>2019-09-24T13:37:43.001Z</time>
      </trkpt>
      <trkpt lat="47.98826" lon="5.65818">
        <ele>340.991</ele>
        <time>2019-09-24T13:37:46.001Z</time>
      </trkpt>
      <trkpt lat="47.98805" lon="5.65827">
        <ele>338.978</ele>
        <time>2019-09-24T13:37:49.001Z</time>
      </trkpt>
      <trkpt lat="47.98785" lon="5.6584">
        <ele>334.329</ele>
        <time>2019-09-24T13:37:52.001Z</time>
      </trkpt>
      <trkpt lat="47.98763" lon="5.65852">
        <ele>331.385</ele>
        <time>2019-09-24T13:37:55.001Z</time>
      </trkpt>
      <trkpt lat="47.98743" lon="5.65863">
        <ele>329.726</ele>
        <time>2019-09-24T13:37:58.001Z</time>
      </trkpt>
      <trkpt lat="47.98723" lon="5.65875">
        <ele>328.026</ele>
        <time>2019-09-24T13:38:01.001Z</time>
      </trkpt>
      <trkpt lat="47.98702" lon="5.65887">
        <ele>326.192</ele>
        <time>2019-09-24T13:38:04.001Z</time>
      </trkpt>
      <trkpt lat="47.98682" lon="5.65899">
        <ele>324.482</ele>
        <time>2019-09-24T13:38:07.001Z</time>
      </trkpt>
      <trkpt lat="47.98665" lon="5.65916">
        <ele>323.181</ele>
        <time>2019-09-24T13:38:10.001Z</time>
      </trkpt>
      <trkpt lat="47.98654" lon="5.65944">
        <ele>321.196</ele>
        <time>2019-09-24T13:38:13.001Z</time>
      </trkpt>
      <trkpt lat="47.98655" lon="5.6598">
        <ele>319.212</ele>
        <time>2019-09-24T15:38:16Z</time>
      </trkpt>
      <trkpt lat="47.98659" lon="5.66016">
        <ele>317.981</ele>
        <time>2019-09-24T13:38:19.001Z</time>
      </trkpt>
      <trkpt lat="47.98661" lon="5.66049">
        <ele>315.595</ele>
        <time>2019-09-24T13:38:22.001Z</time>
      </trkpt>
      <trkpt lat="47.98656" lon="5.66086">
        <ele>313.485</ele>
        <time>2019-09-24T13:38:25.001Z</time>
      </trkpt>
      <trkpt lat="47.98645" lon="5.66121">
        <ele>311.536</ele>
        <time>2019-09-24T13:38:28.001Z</time>
      </trkpt>
      <trkpt lat="47.98638" lon="5.66161">
        <ele>310.103</ele>
        <time>2019-09-24T13:38:31.001Z</time>
      </trkpt>
      <trkpt lat="47.98635" lon="5.66205">
        <ele>308.675</ele>
        <time>2019-09-24T13:38:34.001Z</time>
      </trkpt>
      <trkpt lat="47.98633" lon="5.66249">
        <ele>307.058</ele>
        <time>2019-09-24T13:38:37.001Z</time>
      </trkpt>
      <trkpt lat="47.98631" lon="5.66292">
        <ele>305.704</ele>
        <time>2019-09-24T13:38:40.001Z</time>
      </trkpt>
      <trkpt lat="47.9863" lon="5.66328">
        <ele>304.999</ele>
        <time>2019-09-24T13:38:43.001Z</time>
      </trkpt>
      <trkpt lat="47.9863" lon="5.66354">
        <ele>304.64</ele>
        <time>2019-09-24T13:38:46.001Z</time>
      </trkpt>
      <trkpt lat="47.98627" lon="5.66369">
        <ele>305.17</ele>
        <time>2019-09-24T13:38:49.001Z</time>
      </trkpt>
      <trkpt lat="47.98623" lon="5.6638">
        <ele>304.671</ele>
        <time>2019-09-24T13:38:52.001Z</time>
      </trkpt>
      <trkpt lat="47.98617" lon="5.66387">
        <ele>304.596</ele>
        <time>2019-09-24T13:38:55.001Z</time>
      </trkpt>
      <trkpt lat="47.9861" lon="5.66395">
        <ele>304.768</ele>
        <time>2019-09-24T13:38:58.001Z</time>
      </trkpt>
      <trkpt lat="47.986" lon="5.66405">
        <ele>304.626</ele>
        <time>2019-09-24T13:39:01.001Z</time>
      </trkpt>
      <trkpt lat="47.98587" lon="5.66416">
        <ele>304.481</ele>
        <time>2019-09-24T13:39:04.001Z</time>
      </trkpt>
      <trkpt lat="47.98573" lon="5.66431">
        <ele>304.299</ele>
        <time>2019-09-24T13:39:07.001Z</time>
      </trkpt>
      <trkpt lat="47.9856" lon="5.6645">
        <ele>303.401</ele>
        <time>2019-09-24T13:39:10.001Z</time>
      </trkpt>
      <trkpt lat="47.98549" lon="5.66472">
        <ele>303.28</ele>
        <time>2019-09-24T13:39:13.001Z</time>
      </trkpt>
      <trkpt lat="47.98538" lon="5.66494">
        <ele>303.133</ele>
        <time>2019-09-24T15:39:16Z</time>
      </trkpt>
      <trkpt lat="47.98529" lon="5.66517">
        <ele>303.127</ele>
        <time>2019-09-24T13:39:19.001Z</time>
      </trkpt>
      <trkpt lat="47.98522" lon="5.6654">
        <ele>302.665</ele>
        <time>2019-09-24T13:39:22.001Z</time>
      </trkpt>
      <trkpt lat="47.98515" lon="5.66562">
        <ele>302.205</ele>
        <time>2019-09-24T13:39:25.001Z</time>
      </trkpt>
      <trkpt lat="47.98506" lon="5.66586">
        <ele>302.527</ele>
        <time>2019-09-24T13:39:28.001Z</time>
      </trkpt>
      <trkpt lat="47.98497" lon="5.66614">
        <ele>302.528</ele>
        <time>2019-09-24T13:39:31.001Z</time>
      </trkpt>
      <trkpt lat="47.98492" lon="5.66646">
        <ele>302.448</ele>
        <time>2019-09-24T13:39:34.001Z</time>
      </trkpt>
      <trkpt lat="47.9849" lon="5.66681">
        <ele>302.261</ele>
        <time>2019-09-24T13:39:37.001Z</time>
      </trkpt>
      <trkpt lat="47.98489" lon="5.66714">
        <ele>302.158</ele>
        <time>2019-09-24T13:39:40.001Z</time>
      </trkpt>
      <trkpt lat="47.98486" lon="5.66741">
        <ele>302.153</ele>
        <time>2019-09-24T13:39:43.001Z</time>
      </trkpt>
      <trkpt lat="47.98484" lon="5.66777">
        <ele>302.083</ele>
        <time>2019-09-24T13:39:46.001Z</time>
      </trkpt>
      <trkpt lat="47.98485" lon="5.66814">
        <ele>302.034</ele>
        <time>2019-09-24T13:39:49.001Z</time>
      </trkpt>
      <trkpt lat="47.98486" lon="5.66851">
        <ele>301.515</ele>
        <time>2019-09-24T13:39:52.001Z</time>
      </trkpt>
      <trkpt lat="47.98486" lon="5.66889">
        <ele>299.898</ele>
        <time>2019-09-24T13:39:55.001Z</time>
      </trkpt>
      <trkpt lat="47.98486" lon="5.66923">
        <ele>299.249</ele>
        <time>2019-09-24T13:39:58.001Z</time>
      </trkpt>
      <trkpt lat="47.98486" lon="5.66952">
        <ele>299.312</ele>
        <time>2019-09-24T13:40:01.001Z</time>
      </trkpt>
      <trkpt lat="47.98487" lon="5.66975">
        <ele>299.802</ele>
        <time>2019-09-24T13:40:04.001Z</time>
      </trkpt>
      <trkpt lat="47.98488" lon="5.66993">
        <ele>300.08</ele>
        <time>2019-09-24T13:40:07.001Z</time>
      </trkpt>
      <trkpt lat="47.98487" lon="5.67009">
        <ele>301.06</ele>
        <time>2019-09-24T13:40:10.001Z</time>
      </trkpt>
      <trkpt lat="47.98487" lon="5.67028">
        <ele>301.971</ele>
        <time>2019-09-24T13:40:13.001Z</time>
      </trkpt>
      <trkpt lat="47.98483" lon="5.6705">
        <ele>301.242</ele>
        <time>2019-09-24T15:40:16Z</time>
      </trkpt>
      <trkpt lat="47.98479" lon="5.67071">
        <ele>300.56</ele>
        <time>2019-09-24T13:40:19.001Z</time>
      </trkpt>
      <trkpt lat="47.98474" lon="5.6709">
        <ele>300.611</ele>
        <time>2019-09-24T13:40:22.001Z</time>
      </trkpt>
      <trkpt lat="47.98468" lon="5.67109">
        <ele>300.488</ele>
        <time>2019-09-24T13:40:25.001Z</time>
      </trkpt>
      <trkpt lat="47.98461" lon="5.67129">
        <ele>300.611</ele>
        <time>2019-09-24T13:40:28.001Z</time>
      </trkpt>
      <trkpt lat="47.98455" lon="5.67149">
        <ele>300.674</ele>
        <time>2019-09-24T13:40:31.001Z</time>
      </trkpt>
      <trkpt lat="47.98448" lon="5.67168">
        <ele>300.913</ele>
        <time>2019-09-24T13:40:34.001Z</time>
      </trkpt>
      <trkpt lat="47.98442" lon="5.67186">
        <ele>301.159</ele>
        <time>2019-09-24T13:40:37.001Z</time>
      </trkpt>
      <trkpt lat="47.98436" lon="5.67207">
        <ele>302.449</ele>
        <time>2019-09-24T13:40:40.001Z</time>
      </trkpt>
      <trkpt lat="47.98427" lon="5.67227">
        <ele>301.922</ele>
        <time>2019-09-24T13:40:43.001Z</time>
      </trkpt>
      <trkpt lat="47.98417" lon="5.67247">
        <ele>300.926</ele>
        <time>2019-09-24T13:40:46.001Z</time>
      </trkpt>
      <trkpt lat="47.98409" lon="5.67265">
        <ele>301.038</ele>
        <time>2019-09-24T13:40:49.001Z</time>
      </trkpt>
      <trkpt lat="47.98401" lon="5.67283">
        <ele>300.959</ele>
        <time>2019-09-24T13:40:52.001Z</time>
      </trkpt>
      <trkpt lat="47.98394" lon="5.673">
        <ele>300.673</ele>
        <time>2019-09-24T13:40:55.001Z</time>
      </trkpt>
      <trkpt lat="47.98388" lon="5.67319">
        <ele>300.581</ele>
        <time>2019-09-24T13:40:58.001Z</time>
      </trkpt>
      <trkpt lat="47.98381" lon="5.67339">
        <ele>300.688</ele>
        <time>2019-09-24T13:41:01.001Z</time>
      </trkpt>
      <trkpt lat="47.98375" lon="5.6736">
        <ele>300.454</ele>
        <time>2019-09-24T13:41:04.001Z</time>
      </trkpt>
      <trkpt lat="47.98369" lon="5.67381">
        <ele>299.534</ele>
        <time>2019-09-24T13:41:07.001Z</time>
      </trkpt>
      <trkpt lat="47.98364" lon="5.67403">
        <ele>298.272</ele>
        <time>2019-09-24T13:41:10.001Z</time>
      </trkpt>
      <trkpt lat="47.98359" lon="5.67426">
        <ele>297.651</ele>
        <time>2019-09-24T13:41:13.001Z</time>
      </trkpt>
      <trkpt lat="47.98355" lon="5.67455">
        <ele>298.361</ele>
        <time>2019-09-24T15:41:16Z</time>
      </trkpt>
      <trkpt lat="47.98351" lon="5.67485">
        <ele>298.564</ele>
        <time>2019-09-24T13:41:19.001Z</time>
      </trkpt>
      <trkpt lat="47.98347" lon="5.67517">
        <ele>298.114</ele>
        <time>2019-09-24T13:41:22.001Z</time>
      </trkpt>
      <trkpt lat="47.98343" lon="5.6755">
        <ele>297.765</ele>
        <time>2019-09-24T13:41:25.001Z</time>
      </trkpt>
      <trkpt lat="47.98339" lon="5.67584">
        <ele>296.704</ele>
        <time>2019-09-24T13:41:28.001Z</time>
      </trkpt>
      <trkpt lat="47.98333" lon="5.67619">
        <ele>296.648</ele>
        <time>2019-09-24T13:41:31.001Z</time>
      </trkpt>
      <trkpt lat="47.98327" lon="5.67652">
        <ele>296.77</ele>
        <time>2019-09-24T13:41:34.001Z</time>
      </trkpt>
      <trkpt lat="47.98323" lon="5.67682">
        <ele>296.693</ele>
        <time>2019-09-24T13:41:37.001Z</time>
      </trkpt>
      <trkpt lat="47.98321" lon="5.67709">
        <ele>296.692</ele>
        <time>2019-09-24T13:41:40.001Z</time>
      </trkpt>
      <trkpt lat="47.98323" lon="5.67736">
        <ele>296.889</ele>
        <time>2019-09-24T13:41:43.001Z</time>
      </trkpt>
      <trkpt lat="47.98327" lon="5.67762">
        <ele>296.916</ele>
        <time>2019-09-24T13:41:46.001Z</time>
      </trkpt>
      <trkpt lat="47.9833" lon="5.67785">
        <ele>297.06</ele>
        <time>2019-09-24T13:41:49.001Z</time>
      </trkpt>
      <trkpt lat="47.98334" lon="5.67808">
        <ele>297.181</ele>
        <time>2019-09-24T13:41:52.001Z</time>
      </trkpt>
      <trkpt lat="47.98338" lon="5.67832">
        <ele>297.096</ele>
        <time>2019-09-24T13:41:55.001Z</time>
      </trkpt>
      <trkpt lat="47.98342" lon="5.67855">
        <ele>297.419</ele>
        <time>2019-09-24T13:41:58.001Z</time>
      </trkpt>
      <trkpt lat="47.98345" lon="5.67876">
        <ele>298.151</ele>
        <time>2019-09-24T13:42:01.001Z</time>
      </trkpt>
      <trkpt lat="47.98349" lon="5.67898">
        <ele>299.103</ele>
        <time>2019-09-24T13:42:04.001Z</time>
      </trkpt>
      <trkpt lat="47.98352" lon="5.67917">
        <ele>300.261</ele>
        <time>2019-09-24T13:42:07.001Z</time>
      </trkpt>
      <trkpt lat="47.98354" lon="5.67936">
        <ele>301.452</ele>
        <time>2019-09-24T13:42:10.001Z</time>
      </trkpt>
      <trkpt lat="47.98358" lon="5.67956">
        <ele>302.152</ele>
        <time>2019-09-24T13:42:13.001Z</time>
      </trkpt>
      <trkpt lat="47.98363" lon="5.67981">
        <ele>303.229</ele>
        <time>2019-09-24T15:42:16Z</time>
      </trkpt>
      <trkpt lat="47.98366" lon="5.68008">
        <ele>303.558</ele>
        <time>2019-09-24T13:42:19.001Z</time>
      </trkpt>
      <trkpt lat="47.98368" lon="5.68037">
        <ele>303.668</ele>
        <time>2019-09-24T13:42:22.001Z</time>
      </trkpt>
      <trkpt lat="47.98371" lon="5.68066">
        <ele>303.027</ele>
        <time>2019-09-24T13:42:25.001Z</time>
      </trkpt>
      <trkpt lat="47.98374" lon="5.6809">
        <ele>302.172</ele>
        <time>2019-09-24T13:42:28.001Z</time>
      </trkpt>
      <trkpt lat="47.98376" lon="5.6811">
        <ele>302.518</ele>
        <time>2019-09-24T13:42:31.001Z</time>
      </trkpt>
      <trkpt lat="47.98379" lon="5.6813">
        <ele>302.534</ele>
        <time>2019-09-24T13:42:34.001Z</time>
      </trkpt>
      <trkpt lat="47.98381" lon="5.68149">
        <ele>301.932</ele>
        <time>2019-09-24T13:42:37.001Z</time>
      </trkpt>
      <trkpt lat="47.98383" lon="5.68169">
        <ele>299.802</ele>
        <time>2019-09-24T13:42:40.001Z</time>
      </trkpt>
      <trkpt lat="47.98386" lon="5.68189">
        <ele>298.753</ele>
        <time>2019-09-24T13:42:43.001Z</time>
      </trkpt>
      <trkpt lat="47.98388" lon="5.68207">
        <ele>298.392</ele>
        <time>2019-09-24T13:42:46.001Z</time>
      </trkpt>
      <trkpt lat="47.9839" lon="5.68224">
        <ele>298.768</ele>
        <time>2019-09-24T13:42:49.001Z</time>
      </trkpt>
      <trkpt lat="47.98393" lon="5.6824">
        <ele>298.875</ele>
        <time>2019-09-24T13:42:52.001Z</time>
      </trkpt>
      <trkpt lat="47.98396" lon="5.68257">
        <ele>299.201</ele>
        <time>2019-09-24T13:42:55.001Z</time>
      </trkpt>
      <trkpt lat="47.98398" lon="5.68275">
        <ele>299.642</ele>
        <time>2019-09-24T13:42:58.001Z</time>
      </trkpt>
      <trkpt lat="47.984" lon="5.68292">
        <ele>300.882</ele>
        <time>2019-09-24T13:43:01.001Z</time>
      </trkpt>
      <trkpt lat="47.98402" lon="5.68311">
        <ele>302.48</ele>
        <time>2019-09-24T13:43:04.001Z</time>
      </trkpt>
      <trkpt lat="47.98403" lon="5.68328">
        <ele>303.179</ele>
        <time>2019-09-24T13:43:07.001Z</time>
      </trkpt>
      <trkpt lat="47.98405" lon="5.68344">
        <ele>304.05</ele>
        <time>2019-09-24T13:43:10.001Z</time>
      </trkpt>
      <trkpt lat="47.98408" lon="5.68359">
        <ele>304.142</ele>
        <time>2019-09-24T13:43:13.001Z</time>
      </trkpt>
      <trkpt lat="47.9841" lon="5.68372">
        <ele>303.799</ele>
        <time>2019-09-24T15:43:16Z</time>
      </trkpt>
      <trkpt lat="47.98415" lon="5.68387">
        <ele>303.869</ele>
        <time>2019-09-24T13:43:19.001Z</time>
      </trkpt>
      <trkpt lat="47.98422" lon="5.68402">
        <ele>304.572</ele>
        <time>2019-09-24T13:43:22.001Z</time>
      </trkpt>
      <trkpt lat="47.98429" lon="5.68414">
        <ele>304.623</ele>
        <time>2019-09-24T13:43:25.001Z</time>
      </trkpt>
      <trkpt lat="47.98438" lon="5.68424">
        <ele>303.685</ele>
        <time>2019-09-24T13:43:28.001Z</time>
      </trkpt>
      <trkpt lat="47.98446" lon="5.68433">
        <ele>302.964</ele>
        <time>2019-09-24T13:43:31.001Z</time>
      </trkpt>
      <trkpt lat="47.98456" lon="5.68441">
        <ele>302.652</ele>
        <time>2019-09-24T13:43:34.001Z</time>
      </trkpt>
      <trkpt lat="47.98465" lon="5.68446">
        <ele>302.654</ele>
        <time>2019-09-24T13:43:37.001Z</time>
      </trkpt>
      <trkpt lat="47.98477" lon="5.68453">
        <ele>302.08</ele>
        <time>2019-09-24T13:43:40.001Z</time>
      </trkpt>
      <trkpt lat="47.98489" lon="5.68459">
        <ele>301.411</ele>
        <time>2019-09-24T13:43:43.001Z</time>
      </trkpt>
      <trkpt lat="47.98501" lon="5.68464">
        <ele>302.171</ele>
        <time>2019-09-24T13:43:46.001Z</time>
      </trkpt>
      <trkpt lat="47.98512" lon="5.68467">
        <ele>303.158</ele>
        <time>2019-09-24T13:43:49.001Z</time>
      </trkpt>
      <trkpt lat="47.98523" lon="5.68472">
        <ele>304.102</ele>
        <time>2019-09-24T13:43:52.001Z</time>
      </trkpt>
      <trkpt lat="47.98535" lon="5.68477">
        <ele>304.994</ele>
        <time>2019-09-24T13:43:55.001Z</time>
      </trkpt>
      <trkpt lat="47.98547" lon="5.6848">
        <ele>305.021</ele>
        <time>2019-09-24T13:43:58.001Z</time>
      </trkpt>
      <trkpt lat="47.98559" lon="5.68486">
        <ele>304.911</ele>
        <time>2019-09-24T13:44:01.001Z</time>
      </trkpt>
      <trkpt lat="47.9857" lon="5.68492">
        <ele>305.072</ele>
        <time>2019-09-24T13:44:04.001Z</time>
      </trkpt>
      <trkpt lat="47.98584" lon="5.68496">
        <ele>305.385</ele>
        <time>2019-09-24T13:44:07.001Z</time>
      </trkpt>
      <trkpt lat="47.98596" lon="5.68501">
        <ele>305.332</ele>
        <time>2019-09-24T13:44:10.001Z</time>
      </trkpt>
      <trkpt lat="47.98608" lon="5.68507">
        <ele>305.166</ele>
        <time>2019-09-24T13:44:13.001Z</time>
      </trkpt>
      <trkpt lat="47.9862" lon="5.68512">
        <ele>304.895</ele>
        <time>2019-09-24T15:44:16Z</time>
      </trkpt>
      <trkpt lat="47.98632" lon="5.6852">
        <ele>304.548</ele>
        <time>2019-09-24T13:44:19.001Z</time>
      </trkpt>
      <trkpt lat="47.98642" lon="5.6853">
        <ele>305.281</ele>
        <time>2019-09-24T13:44:22.001Z</time>
      </trkpt>
      <trkpt lat="47.98652" lon="5.68543">
        <ele>305.905</ele>
        <time>2019-09-24T13:44:25.001Z</time>
      </trkpt>
      <trkpt lat="47.98661" lon="5.68562">
        <ele>305.722</ele>
        <time>2019-09-24T13:44:28.001Z</time>
      </trkpt>
      <trkpt lat="47.98666" lon="5.68582">
        <ele>306.578</ele>
        <time>2019-09-24T13:44:31.001Z</time>
      </trkpt>
      <trkpt lat="47.98668" lon="5.68605">
        <ele>308.486</ele>
        <time>2019-09-24T13:44:34.001Z</time>
      </trkpt>
      <trkpt lat="47.9867" lon="5.68628">
        <ele>309.264</ele>
        <time>2019-09-24T13:44:37.001Z</time>
      </trkpt>
      <trkpt lat="47.98674" lon="5.68652">
        <ele>309.761</ele>
        <time>2019-09-24T13:44:40.001Z</time>
      </trkpt>
      <trkpt lat="47.98677" lon="5.68676">
        <ele>310.602</ele>
        <time>2019-09-24T13:44:43.001Z</time>
      </trkpt>
      <trkpt lat="47.9868" lon="5.68702">
        <ele>311.687</ele>
        <time>2019-09-24T13:44:46.001Z</time>
      </trkpt>
      <trkpt lat="47.98683" lon="5.6873">
        <ele>311.722</ele>
        <time>2019-09-24T13:44:49.001Z</time>
      </trkpt>
      <trkpt lat="47.98686" lon="5.68759">
        <ele>310.905</ele>
        <time>2019-09-24T13:44:52.001Z</time>
      </trkpt>
      <trkpt lat="47.98689" lon="5.68792">
        <ele>307.653</ele>
        <time>2019-09-24T13:44:55.001Z</time>
      </trkpt>
      <trkpt lat="47.98686" lon="5.68826">
        <ele>302.452</ele>
        <time>2019-09-24T13:44:58.001Z</time>
      </trkpt>
      <trkpt lat="47.98676" lon="5.68856">
        <ele>299.158</ele>
        <time>2019-09-24T13:45:01.001Z</time>
      </trkpt>
      <trkpt lat="47.98664" lon="5.68876">
        <ele>298.181</ele>
        <time>2019-09-24T13:45:04.001Z</time>
      </trkpt>
      <trkpt lat="47.98651" lon="5.6889">
        <ele>297.11</ele>
        <time>2019-09-24T13:45:07.001Z</time>
      </trkpt>
      <trkpt lat="47.98639" lon="5.68899">
        <ele>296.718</ele>
        <time>2019-09-24T13:45:10.001Z</time>
      </trkpt>
      <trkpt lat="47.98627" lon="5.68907">
        <ele>296.029</ele>
        <time>2019-09-24T13:45:13.001Z</time>
      </trkpt>
      <trkpt lat="47.98615" lon="5.68913">
        <ele>296.378</ele>
        <time>2019-09-24T15:45:16Z</time>
      </trkpt>
      <trkpt lat="47.98605" lon="5.68919">
        <ele>297.405</ele>
        <time>2019-09-24T13:45:19.001Z</time>
      </trkpt>
      <trkpt lat="47.98595" lon="5.68926">
        <ele>297.425</ele>
        <time>2019-09-24T13:45:22.001Z</time>
      </trkpt>
      <trkpt lat="47.98587" lon="5.68934">
        <ele>297.784</ele>
        <time>2019-09-24T13:45:25.001Z</time>
      </trkpt>
      <trkpt lat="47.9858" lon="5.68943">
        <ele>297.93</ele>
        <time>2019-09-24T13:45:28.001Z</time>
      </trkpt>
      <trkpt lat="47.98574" lon="5.68953">
        <ele>298.086</ele>
        <time>2019-09-24T13:45:31.001Z</time>
      </trkpt>
      <trkpt lat="47.98568" lon="5.68965">
        <ele>297.626</ele>
        <time>2019-09-24T13:45:34.001Z</time>
      </trkpt>
      <trkpt lat="47.98564" lon="5.68977">
        <ele>297.627</ele>
        <time>2019-09-24T13:45:37.001Z</time>
      </trkpt>
      <trkpt lat="47.98561" lon="5.68989">
        <ele>298.522</ele>
        <time>2019-09-24T13:45:40.001Z</time>
      </trkpt>
      <trkpt lat="47.98558" lon="5.69002">
        <ele>298.968</ele>
        <time>2019-09-24T13:45:43.001Z</time>
      </trkpt>
      <trkpt lat="47.98557" lon="5.69015">
        <ele>299.448</ele>
        <time>2019-09-24T13:45:46.001Z</time>
      </trkpt>
      <trkpt lat="47.98557" lon="5.69029">
        <ele>300.47</ele>
        <time>2019-09-24T13:45:49.001Z</time>
      </trkpt>
      <trkpt lat="47.98558" lon="5.69041">
        <ele>300.974</ele>
        <time>2019-09-24T13:45:52.001Z</time>
      </trkpt>
      <trkpt lat="47.98559" lon="5.69052">
        <ele>301.373</ele>
        <time>2019-09-24T13:45:55.001Z</time>
      </trkpt>
      <trkpt lat="47.9856" lon="5.69064">
        <ele>301.683</ele>
        <time>2019-09-24T13:45:58.001Z</time>
      </trkpt>
      <trkpt lat="47.9856" lon="5.69075">
        <ele>302.176</ele>
        <time>2019-09-24T13:46:01.001Z</time>
      </trkpt>
      <trkpt lat="47.98561" lon="5.69086">
        <ele>302.874</ele>
        <time>2019-09-24T13:46:04.001Z</time>
      </trkpt>
      <trkpt lat="47.98561" lon="5.69097">
        <ele>303.613</ele>
        <time>2019-09-24T13:46:07.001Z</time>
      </trkpt>
      <trkpt lat="47.98561" lon="5.69108">
        <ele>304.133</ele>
        <time>2019-09-24T13:46:10.001Z</time>
      </trkpt>
      <trkpt lat="47.98563" lon="5.69121">
        <ele>305.012</ele>
        <time>2019-09-24T13:46:13.001Z</time>
      </trkpt>
      <trkpt lat="47.98564" lon="5.69133">
        <ele>305.473</ele>
        <time>2019-09-24T15:46:16Z</time>
      </trkpt>
      <trkpt lat="47.98564" lon="5.69146">
        <ele>304.911</ele>
        <time>2019-09-24T13:46:19.001Z</time>
      </trkpt>
      <trkpt lat="47.98564" lon="5.69161">
        <ele>304.844</ele>
        <time>2019-09-24T13:46:22.001Z</time>
      </trkpt>
      <trkpt lat="47.98565" lon="5.69176">
        <ele>304.931</ele>
        <time>2019-09-24T13:46:25.001Z</time>
      </trkpt>
      <trkpt lat="47.98565" lon="5.69192">
        <ele>304.979</ele>
        <time>2019-09-24T13:46:28.001Z</time>
      </trkpt>
      <trkpt lat="47.98565" lon="5.69209">
        <ele>304.517</ele>
        <time>2019-09-24T13:46:31.001Z</time>
      </trkpt>
      <trkpt lat="47.98565" lon="5.69227">
        <ele>303.906</ele>
        <time>2019-09-24T13:46:34.001Z</time>
      </trkpt>
      <trkpt lat="47.98565" lon="5.69245">
        <ele>303.391</ele>
        <time>2019-09-24T13:46:37.001Z</time>
      </trkpt>
      <trkpt lat="47.98564" lon="5.69265">
        <ele>302.987</ele>
        <time>2019-09-24T13:46:40.001Z</time>
      </trkpt>
      <trkpt lat="47.98561" lon="5.69288">
        <ele>302.131</ele>
        <time>2019-09-24T13:46:43.001Z</time>
      </trkpt>
      <trkpt lat="47.98556" lon="5.69313">
        <ele>301.025</ele>
        <time>2019-09-24T13:46:46.001Z</time>
      </trkpt>
      <trkpt lat="47.98548" lon="5.69339">
        <ele>299.856</ele>
        <time>2019-09-24T13:46:49.001Z</time>
      </trkpt>
      <trkpt lat="47.98539" lon="5.69366">
        <ele>298.619</ele>
        <time>2019-09-24T13:46:52.001Z</time>
      </trkpt>
      <trkpt lat="47.98528" lon="5.69394">
        <ele>297.466</ele>
        <time>2019-09-24T13:46:55.001Z</time>
      </trkpt>
      <trkpt lat="47.98516" lon="5.69423">
        <ele>296.8</ele>
        <time>2019-09-24T13:46:58.001Z</time>
      </trkpt>
      <trkpt lat="47.98504" lon="5.69453">
        <ele>296.319</ele>
        <time>2019-09-24T13:47:01.001Z</time>
      </trkpt>
      <trkpt lat="47.98493" lon="5.69483">
        <ele>295.548</ele>
        <time>2019-09-24T13:47:04.001Z</time>
      </trkpt>
      <trkpt lat="47.98482" lon="5.69513">
        <ele>294.843</ele>
        <time>2019-09-24T13:47:07.001Z</time>
      </trkpt>
      <trkpt lat="47.98471" lon="5.69543">
        <ele>293.809</ele>
        <time>2019-09-24T13:47:10.001Z</time>
      </trkpt>
      <trkpt lat="47.9846" lon="5.69573">
        <ele>292.728</ele>
        <time>2019-09-24T13:47:13.001Z</time>
      </trkpt>
      <trkpt lat="47.9845" lon="5.69602">
        <ele>291.811</ele>
        <time>2019-09-24T15:47:16Z</time>
      </trkpt>
      <trkpt lat="47.98439" lon="5.69631">
        <ele>291.018</ele>
        <time>2019-09-24T13:47:19.001Z</time>
      </trkpt>
      <trkpt lat="47.98427" lon="5.6966">
        <ele>290.415</ele>
        <time>2019-09-24T13:47:22.001Z</time>
      </trkpt>
      <trkpt lat="47.98415" lon="5.69691">
        <ele>289.392</ele>
        <time>2019-09-24T13:47:25.001Z</time>
      </trkpt>
      <trkpt lat="47.98403" lon="5.69724">
        <ele>287.74</ele>
        <time>2019-09-24T13:47:28.001Z</time>
      </trkpt>
      <trkpt lat="47.9839" lon="5.69759">
        <ele>286.017</ele>
        <time>2019-09-24T13:47:31.001Z</time>
      </trkpt>
      <trkpt lat="47.98378" lon="5.69798">
        <ele>284.21</ele>
        <time>2019-09-24T13:47:34.001Z</time>
      </trkpt>
      <trkpt lat="47.98366" lon="5.69837">
        <ele>282.3</ele>
        <time>2019-09-24T13:47:37.001Z</time>
      </trkpt>
      <trkpt lat="47.98353" lon="5.69878">
        <ele>280.115</ele>
        <time>2019-09-24T13:47:40.001Z</time>
      </trkpt>
      <trkpt lat="47.98341" lon="5.6992">
        <ele>278.27</ele>
        <time>2019-09-24T13:47:43.001Z</time>
      </trkpt>
      <trkpt lat="47.98323" lon="5.69958">
        <ele>277.49</ele>
        <time>2019-09-24T13:47:46.001Z</time>
      </trkpt>
      <trkpt lat="47.983" lon="5.69983">
        <ele>276.105</ele>
        <time>2019-09-24T13:47:49.001Z</time>
      </trkpt>
      <trkpt lat="47.98279" lon="5.70007">
        <ele>273.907</ele>
        <time>2019-09-24T13:47:52.001Z</time>
      </trkpt>
      <trkpt lat="47.9826" lon="5.70033">
        <ele>273.654</ele>
        <time>2019-09-24T13:47:55.001Z</time>
      </trkpt>
      <trkpt lat="47.98241" lon="5.70059">
        <ele>274.345</ele>
        <time>2019-09-24T13:47:58.001Z</time>
      </trkpt>
      <trkpt lat="47.98225" lon="5.70082">
        <ele>274.206</ele>
        <time>2019-09-24T13:48:01.001Z</time>
      </trkpt>
      <trkpt lat="47.9821" lon="5.70104">
        <ele>273.722</ele>
        <time>2019-09-24T13:48:04.001Z</time>
      </trkpt>
      <trkpt lat="47.98196" lon="5.70125">
        <ele>273.152</ele>
        <time>2019-09-24T13:48:07.001Z</time>
      </trkpt>
      <trkpt lat="47.98183" lon="5.70144">
        <ele>272.643</ele>
        <time>2019-09-24T13:48:10.001Z</time>
      </trkpt>
      <trkpt lat="47.98171" lon="5.70162">
        <ele>271.981</ele>
        <time>2019-09-24T13:48:13.001Z</time>
      </trkpt>
      <trkpt lat="47.98161" lon="5.70178">
        <ele>271.319</ele>
        <time>2019-09-24T15:48:16Z</time>
      </trkpt>
      <trkpt lat="47.98149" lon="5.70194">
        <ele>270.825</ele>
        <time>2019-09-24T13:48:19.001Z</time>
      </trkpt>
      <trkpt lat="47.98139" lon="5.70211">
        <ele>270.581</ele>
        <time>2019-09-24T13:48:22.001Z</time>
      </trkpt>
      <trkpt lat="47.98128" lon="5.70227">
        <ele>270.67</ele>
        <time>2019-09-24T13:48:25.001Z</time>
      </trkpt>
      <trkpt lat="47.98117" lon="5.70243">
        <ele>270.985</ele>
        <time>2019-09-24T13:48:28.001Z</time>
      </trkpt>
      <trkpt lat="47.98103" lon="5.70257">
        <ele>271.202</ele>
        <time>2019-09-24T13:48:31.001Z</time>
      </trkpt>
      <trkpt lat="47.98087" lon="5.70267">
        <ele>271.381</ele>
        <time>2019-09-24T13:48:34.001Z</time>
      </trkpt>
      <trkpt lat="47.98072" lon="5.70272">
        <ele>271.787</ele>
        <time>2019-09-24T13:48:37.001Z</time>
      </trkpt>
      <trkpt lat="47.9806" lon="5.70273">
        <ele>272.406</ele>
        <time>2019-09-24T13:48:40.001Z</time>
      </trkpt>
      <trkpt lat="47.98047" lon="5.70271">
        <ele>272.997</ele>
        <time>2019-09-24T13:48:43.001Z</time>
      </trkpt>
      <trkpt lat="47.98032" lon="5.70267">
        <ele>273.896</ele>
        <time>2019-09-24T13:48:46.001Z</time>
      </trkpt>
      <trkpt lat="47.98016" lon="5.70263">
        <ele>274.759</ele>
        <time>2019-09-24T13:48:49.001Z</time>
      </trkpt>
      <trkpt lat="47.98002" lon="5.70261">
        <ele>275.254</ele>
        <time>2019-09-24T13:48:52.001Z</time>
      </trkpt>
      <trkpt lat="47.97988" lon="5.70257">
        <ele>276.071</ele>
        <time>2019-09-24T13:48:55.001Z</time>
      </trkpt>
      <trkpt lat="47.97972" lon="5.70252">
        <ele>275.897</ele>
        <time>2019-09-24T13:48:58.001Z</time>
      </trkpt>
      <trkpt lat="47.97954" lon="5.70247">
        <ele>276.217</ele>
        <time>2019-09-24T13:49:01.001Z</time>
      </trkpt>
      <trkpt lat="47.97938" lon="5.70245">
        <ele>276.734</ele>
        <time>2019-09-24T13:49:04.001Z</time>
      </trkpt>
      <trkpt lat="47.97921" lon="5.70245">
        <ele>276.307</ele>
        <time>2019-09-24T13:49:07.001Z</time>
      </trkpt>
      <trkpt lat="47.97905" lon="5.70243">
        <ele>277.011</ele>
        <time>2019-09-24T13:49:10.001Z</time>
      </trkpt>
      <trkpt lat="47.97888" lon="5.70245">
        <ele>278.743</ele>
        <time>2019-09-24T13:49:13.001Z</time>
      </trkpt>
      <trkpt lat="47.97871" lon="5.70248">
        <ele>280.248</ele>
        <time>2019-09-24T15:49:16Z</time>
      </trkpt>
      <trkpt lat="47.97854" lon="5.70256">
        <ele>280.917</ele>
        <time>2019-09-24T13:49:19.001Z</time>
      </trkpt>
      <trkpt lat="47.97839" lon="5.70267">
        <ele>280.775</ele>
        <time>2019-09-24T13:49:22.001Z</time>
      </trkpt>
      <trkpt lat="47.97824" lon="5.70281">
        <ele>281.008</ele>
        <time>2019-09-24T13:49:25.001Z</time>
      </trkpt>
      <trkpt lat="47.9781" lon="5.70297">
        <ele>280.169</ele>
        <time>2019-09-24T13:49:28.001Z</time>
      </trkpt>
      <trkpt lat="47.97795" lon="5.70314">
        <ele>279.053</ele>
        <time>2019-09-24T13:49:31.001Z</time>
      </trkpt>
      <trkpt lat="47.97782" lon="5.7033">
        <ele>278.012</ele>
        <time>2019-09-24T13:49:34.001Z</time>
      </trkpt>
      <trkpt lat="47.97769" lon="5.70346">
        <ele>277.26</ele>
        <time>2019-09-24T13:49:37.001Z</time>
      </trkpt>
      <trkpt lat="47.97757" lon="5.70362">
        <ele>276.802</ele>
        <time>2019-09-24T13:49:40.001Z</time>
      </trkpt>
      <trkpt lat="47.97746" lon="5.70378">
        <ele>276.71</ele>
        <time>2019-09-24T13:49:43.001Z</time>
      </trkpt>
      <trkpt lat="47.97734" lon="5.70395">
        <ele>277.303</ele>
        <time>2019-09-24T13:49:46.001Z</time>
      </trkpt>
      <trkpt lat="47.97722" lon="5.70413">
        <ele>278.208</ele>
        <time>2019-09-24T13:49:49.001Z</time>
      </trkpt>
      <trkpt lat="47.97709" lon="5.70429">
        <ele>279.534</ele>
        <time>2019-09-24T13:49:52.001Z</time>
      </trkpt>
      <trkpt lat="47.97695" lon="5.70443">
        <ele>279.753</ele>
        <time>2019-09-24T13:49:55.001Z</time>
      </trkpt>
      <trkpt lat="47.97683" lon="5.70456">
        <ele>280.054</ele>
        <time>2019-09-24T13:49:58.001Z</time>
      </trkpt>
      <trkpt lat="47.97671" lon="5.70466">
        <ele>280.272</ele>
        <time>2019-09-24T13:50:01.001Z</time>
      </trkpt>
      <trkpt lat="47.97659" lon="5.70479">
        <ele>279.686</ele>
        <time>2019-09-24T13:50:04.001Z</time>
      </trkpt>
      <trkpt lat="47.97648" lon="5.70491">
        <ele>278.872</ele>
        <time>2019-09-24T13:50:07.001Z</time>
      </trkpt>
      <trkpt lat="47.97635" lon="5.70504">
        <ele>278.221</ele>
        <time>2019-09-24T13:50:10.001Z</time>
      </trkpt>
      <trkpt lat="47.97623" lon="5.70516">
        <ele>277.72</ele>
        <time>2019-09-24T13:50:13.001Z</time>
      </trkpt>
      <trkpt lat="47.9761" lon="5.70527">
        <ele>277.626</ele>
        <time>2019-09-24T15:50:16Z</time>
      </trkpt>
      <trkpt lat="47.97597" lon="5.70537">
        <ele>277.768</ele>
        <time>2019-09-24T13:50:19.001Z</time>
      </trkpt>
      <trkpt lat="47.97583" lon="5.70546">
        <ele>277.363</ele>
        <time>2019-09-24T13:50:22.001Z</time>
      </trkpt>
      <trkpt lat="47.97571" lon="5.70557">
        <ele>277.185</ele>
        <time>2019-09-24T13:50:25.001Z</time>
      </trkpt>
      <trkpt lat="47.97558" lon="5.70567">
        <ele>277.022</ele>
        <time>2019-09-24T13:50:28.001Z</time>
      </trkpt>
      <trkpt lat="47.97546" lon="5.70577">
        <ele>276.689</ele>
        <time>2019-09-24T13:50:31.001Z</time>
      </trkpt>
      <trkpt lat="47.97534" lon="5.70588">
        <ele>276.672</ele>
        <time>2019-09-24T13:50:34.001Z</time>
      </trkpt>
      <trkpt lat="47.97522" lon="5.70598">
        <ele>277.027</ele>
        <time>2019-09-24T13:50:37.001Z</time>
      </trkpt>
      <trkpt lat="47.9751" lon="5.7061">
        <ele>277.285</ele>
        <time>2019-09-24T13:50:40.001Z</time>
      </trkpt>
      <trkpt lat="47.97497" lon="5.70622">
        <ele>277.669</ele>
        <time>2019-09-24T13:50:43.001Z</time>
      </trkpt>
      <trkpt lat="47.97484" lon="5.70635">
        <ele>277.679</ele>
        <time>2019-09-24T13:50:46.001Z</time>
      </trkpt>
      <trkpt lat="47.97471" lon="5.70648">
        <ele>276.885</ele>
        <time>2019-09-24T13:50:49.001Z</time>
      </trkpt>
      <trkpt lat="47.97459" lon="5.70662">
        <ele>276.32</ele>
        <time>2019-09-24T13:50:52.001Z</time>
      </trkpt>
      <trkpt lat="47.97448" lon="5.70676">
        <ele>275.718</ele>
        <time>2019-09-24T13:50:55.001Z</time>
      </trkpt>
      <trkpt lat="47.97437" lon="5.70691">
        <ele>275.196</ele>
        <time>2019-09-24T13:50:58.001Z</time>
      </trkpt>
      <trkpt lat="47.97431" lon="5.70701">
        <ele>275.325</ele>
        <time>2019-09-24T13:51:01.001Z</time>
      </trkpt>
      <trkpt lat="47.97425" lon="5.70713">
        <ele>275.6</ele>
        <time>2019-09-24T13:51:04.001Z</time>
      </trkpt>
      <trkpt lat="47.97418" lon="5.70729">
        <ele>276.315</ele>
        <time>2019-09-24T13:51:07.001Z</time>
      </trkpt>
      <trkpt lat="47.97408" lon="5.70747">
        <ele>275.816</ele>
        <time>2019-09-24T13:51:10.001Z</time>
      </trkpt>
      <trkpt lat="47.97397" lon="5.70767">
        <ele>275.123</ele>
        <time>2019-09-24T13:51:13.001Z</time>
      </trkpt>
      <trkpt lat="47.97386" lon="5.70789">
        <ele>275.167</ele>
        <time>2019-09-24T15:51:16Z</time>
      </trkpt>
      <trkpt lat="47.97377" lon="5.70809">
        <ele>275.895</ele>
        <time>2019-09-24T13:51:19.001Z</time>
      </trkpt>
      <trkpt lat="47.97369" lon="5.70828">
        <ele>276.817</ele>
        <time>2019-09-24T13:51:22.001Z</time>
      </trkpt>
      <trkpt lat="47.97361" lon="5.70844">
        <ele>278.623</ele>
        <time>2019-09-24T13:51:25.001Z</time>
      </trkpt>
      <trkpt lat="47.97353" lon="5.70862">
        <ele>280.324</ele>
        <time>2019-09-24T13:51:28.001Z</time>
      </trkpt>
      <trkpt lat="47.97346" lon="5.70877">
        <ele>281.858</ele>
        <time>2019-09-24T13:51:31.001Z</time>
      </trkpt>
      <trkpt lat="47.97338" lon="5.70892">
        <ele>283.461</ele>
        <time>2019-09-24T13:51:34.001Z</time>
      </trkpt>
      <trkpt lat="47.97331" lon="5.70907">
        <ele>284.745</ele>
        <time>2019-09-24T13:51:37.001Z</time>
      </trkpt>
      <trkpt lat="47.97323" lon="5.70921">
        <ele>285.689</ele>
        <time>2019-09-24T13:51:40.001Z</time>
      </trkpt>
      <trkpt lat="47.97315" lon="5.70938">
        <ele>287.053</ele>
        <time>2019-09-24T13:51:43.001Z</time>
      </trkpt>
      <trkpt lat="47.97308" lon="5.70956">
        <ele>287.874</ele>
        <time>2019-09-24T13:51:46.001Z</time>
      </trkpt>
      <trkpt lat="47.97302" lon="5.70971">
        <ele>289.049</ele>
        <time>2019-09-24T13:51:49.001Z</time>
      </trkpt>
      <trkpt lat="47.97296" lon="5.70992">
        <ele>289.814</ele>
        <time>2019-09-24T13:51:52.001Z</time>
      </trkpt>
      <trkpt lat="47.97288" lon="5.71018">
        <ele>290.943</ele>
        <time>2019-09-24T13:51:55.001Z</time>
      </trkpt>
      <trkpt lat="47.97282" lon="5.71043">
        <ele>291.958</ele>
        <time>2019-09-24T13:51:58.001Z</time>
      </trkpt>
      <trkpt lat="47.97274" lon="5.71066">
        <ele>292.374</ele>
        <time>2019-09-24T13:52:01.001Z</time>
      </trkpt>
      <trkpt lat="47.97268" lon="5.71086">
        <ele>292.902</ele>
        <time>2019-09-24T13:52:04.001Z</time>
      </trkpt>
      <trkpt lat="47.97263" lon="5.71103">
        <ele>293.91</ele>
        <time>2019-09-24T13:52:07.001Z</time>
      </trkpt>
      <trkpt lat="47.97261" lon="5.7112">
        <ele>294.401</ele>
        <time>2019-09-24T13:52:10.001Z</time>
      </trkpt>
      <trkpt lat="47.97257" lon="5.71144">
        <ele>294.259</ele>
        <time>2019-09-24T13:52:13.001Z</time>
      </trkpt>
      <trkpt lat="47.97253" lon="5.71175">
        <ele>294.596</ele>
        <time>2019-09-24T15:52:16Z</time>
      </trkpt>
      <trkpt lat="47.97253" lon="5.71203">
        <ele>295.315</ele>
        <time>2019-09-24T13:52:19.001Z</time>
      </trkpt>
      <trkpt lat="47.97252" lon="5.7123">
        <ele>295.712</ele>
        <time>2019-09-24T13:52:22.001Z</time>
      </trkpt>
      <trkpt lat="47.97249" lon="5.71257">
        <ele>295.924</ele>
        <time>2019-09-24T13:52:25.001Z</time>
      </trkpt>
      <trkpt lat="47.97246" lon="5.71284">
        <ele>297.141</ele>
        <time>2019-09-24T13:52:28.001Z</time>
      </trkpt>
      <trkpt lat="47.97242" lon="5.71309">
        <ele>298.063</ele>
        <time>2019-09-24T13:52:31.001Z</time>
      </trkpt>
      <trkpt lat="47.97234" lon="5.71338">
        <ele>299.083</ele>
        <time>2019-09-24T13:52:34.001Z</time>
      </trkpt>
      <trkpt lat="47.97226" lon="5.71364">
        <ele>298.6</ele>
        <time>2019-09-24T13:52:37.001Z</time>
      </trkpt>
      <trkpt lat="47.97221" lon="5.71386">
        <ele>299.179</ele>
        <time>2019-09-24T13:52:40.001Z</time>
      </trkpt>
      <trkpt lat="47.97217" lon="5.71406">
        <ele>299.369</ele>
        <time>2019-09-24T13:52:43.001Z</time>
      </trkpt>
      <trkpt lat="47.97215" lon="5.7143">
        <ele>296.171</ele>
        <time>2019-09-24T13:52:46.001Z</time>
      </trkpt>
      <trkpt lat="47.97212" lon="5.71454">
        <ele>295.239</ele>
        <time>2019-09-24T13:52:49.001Z</time>
      </trkpt>
      <trkpt lat="47.97203" lon="5.71484">
        <ele>293.429</ele>
        <time>2019-09-24T13:52:52.001Z</time>
      </trkpt>
      <trkpt lat="47.972" lon="5.71508">
        <ele>292.169</ele>
        <time>2019-09-24T13:52:55.001Z</time>
      </trkpt>
      <trkpt lat="47.97197" lon="5.71528">
        <ele>290.089</ele>
        <time>2019-09-24T13:52:58.001Z</time>
      </trkpt>
      <trkpt lat="47.97194" lon="5.71548">
        <ele>287.697</ele>
        <time>2019-09-24T13:53:01.001Z</time>
      </trkpt>
      <trkpt lat="47.9719" lon="5.71568">
        <ele>283.781</ele>
        <time>2019-09-24T13:53:04.001Z</time>
      </trkpt>
      <trkpt lat="47.97187" lon="5.71585">
        <ele>279.452</ele>
        <time>2019-09-24T13:53:07.001Z</time>
      </trkpt>
      <trkpt lat="47.97186" lon="5.71598">
        <ele>278.636</ele>
        <time>2019-09-24T13:53:10.001Z</time>
      </trkpt>
      <trkpt lat="47.97186" lon="5.7161">
        <ele>278.383</ele>
        <time>2019-09-24T13:53:13.001Z</time>
      </trkpt>
      <trkpt lat="47.97184" lon="5.7162">
        <ele>278.315</ele>
        <time>2019-09-24T15:53:16Z</time>
      </trkpt>
      <trkpt lat="47.97181" lon="5.71625">
        <ele>272.588</ele>
        <time>2019-09-24T13:53:19.001Z</time>
      </trkpt>
      <trkpt lat="47.97181" lon="5.71624">
        <ele>272.614</ele>
        <time>2019-09-24T13:53:22.001Z</time>
      </trkpt>
      <trkpt lat="47.97182" lon="5.71626">
        <ele>271.874</ele>
        <time>2019-09-24T13:54:25.001Z</time>
      </trkpt>
      <trkpt lat="47.97182" lon="5.7163">
        <ele>271.985</ele>
        <time>2019-09-24T13:54:28.001Z</time>
      </trkpt>
      <trkpt lat="47.97184" lon="5.71638">
        <ele>271.945</ele>
        <time>2019-09-24T13:54:31.001Z</time>
      </trkpt>
      <trkpt lat="47.97185" lon="5.7165">
        <ele>271.904</ele>
        <time>2019-09-24T13:54:34.001Z</time>
      </trkpt>
      <trkpt lat="47.97185" lon="5.71664">
        <ele>272.107</ele>
        <time>2019-09-24T13:54:37.001Z</time>
      </trkpt>
      <trkpt lat="47.97184" lon="5.71678">
        <ele>272.213</ele>
        <time>2019-09-24T13:54:40.001Z</time>
      </trkpt>
      <trkpt lat="47.97185" lon="5.71692">
        <ele>272.311</ele>
        <time>2019-09-24T13:54:43.001Z</time>
      </trkpt>
      <trkpt lat="47.97187" lon="5.71708">
        <ele>272.203</ele>
        <time>2019-09-24T13:54:46.001Z</time>
      </trkpt>
      <trkpt lat="47.97189" lon="5.71725">
        <ele>272.055</ele>
        <time>2019-09-24T13:54:49.001Z</time>
      </trkpt>
      <trkpt lat="47.97191" lon="5.71746">
        <ele>271.659</ele>
        <time>2019-09-24T13:54:52.001Z</time>
      </trkpt>
      <trkpt lat="47.97193" lon="5.71768">
        <ele>271.198</ele>
        <time>2019-09-24T13:54:55.001Z</time>
      </trkpt>
      <trkpt lat="47.97196" lon="5.71789">
        <ele>271.266</ele>
        <time>2019-09-24T13:54:58.001Z</time>
      </trkpt>
      <trkpt lat="47.97201" lon="5.7181">
        <ele>271.432</ele>
        <time>2019-09-24T13:55:01.001Z</time>
      </trkpt>
      <trkpt lat="47.97204" lon="5.71828">
        <ele>271.659</ele>
        <time>2019-09-24T13:55:04.001Z</time>
      </trkpt>
      <trkpt lat="47.97208" lon="5.71847">
        <ele>271.829</ele>
        <time>2019-09-24T13:55:07.001Z</time>
      </trkpt>
      <trkpt lat="47.97212" lon="5.71864">
        <ele>272.252</ele>
        <time>2019-09-24T13:55:10.001Z</time>
      </trkpt>
      <trkpt lat="47.97216" lon="5.7188">
        <ele>273.237</ele>
        <time>2019-09-24T13:55:13.001Z</time>
      </trkpt>
      <trkpt lat="47.9722" lon="5.71898">
        <ele>274.236</ele>
        <time>2019-09-24T15:55:16Z</time>
      </trkpt>
      <trkpt lat="47.97229" lon="5.71923">
        <ele>275.222</ele>
        <time>2019-09-24T13:55:19.001Z</time>
      </trkpt>
      <trkpt lat="47.97238" lon="5.7195">
        <ele>276.094</ele>
        <time>2019-09-24T13:55:22.001Z</time>
      </trkpt>
      <trkpt lat="47.97249" lon="5.71978">
        <ele>276.932</ele>
        <time>2019-09-24T13:55:25.001Z</time>
      </trkpt>
      <trkpt lat="47.9726" lon="5.72004">
        <ele>278.146</ele>
        <time>2019-09-24T13:55:28.001Z</time>
      </trkpt>
      <trkpt lat="47.97269" lon="5.72024">
        <ele>279.561</ele>
        <time>2019-09-24T13:55:31.001Z</time>
      </trkpt>
      <trkpt lat="47.97275" lon="5.72045">
        <ele>282.295</ele>
        <time>2019-09-24T13:55:34.001Z</time>
      </trkpt>
      <trkpt lat="47.9728" lon="5.72067">
        <ele>285.571</ele>
        <time>2019-09-24T13:55:37.001Z</time>
      </trkpt>
      <trkpt lat="47.97284" lon="5.72088">
        <ele>287.521</ele>
        <time>2019-09-24T13:55:40.001Z</time>
      </trkpt>
      <trkpt lat="47.97287" lon="5.72109">
        <ele>288.286</ele>
        <time>2019-09-24T13:55:43.001Z</time>
      </trkpt>
      <trkpt lat="47.97289" lon="5.72135">
        <ele>288.311</ele>
        <time>2019-09-24T13:55:46.001Z</time>
      </trkpt>
      <trkpt lat="47.97295" lon="5.72172">
        <ele>287.376</ele>
        <time>2019-09-24T13:55:49.001Z</time>
      </trkpt>
      <trkpt lat="47.97299" lon="5.72205">
        <ele>285.692</ele>
        <time>2019-09-24T13:55:52.001Z</time>
      </trkpt>
      <trkpt lat="47.97302" lon="5.72236">
        <ele>284.131</ele>
        <time>2019-09-24T13:55:55.001Z</time>
      </trkpt>
      <trkpt lat="47.97303" lon="5.72265">
        <ele>281.297</ele>
        <time>2019-09-24T13:55:58.001Z</time>
      </trkpt>
      <trkpt lat="47.97301" lon="5.72293">
        <ele>277.365</ele>
        <time>2019-09-24T13:56:01.001Z</time>
      </trkpt>
      <trkpt lat="47.973" lon="5.72319">
        <ele>274.371</ele>
        <time>2019-09-24T13:56:04.001Z</time>
      </trkpt>
      <trkpt lat="47.97298" lon="5.72347">
        <ele>271.775</ele>
        <time>2019-09-24T13:56:07.001Z</time>
      </trkpt>
      <trkpt lat="47.97296" lon="5.72372">
        <ele>270.577</ele>
        <time>2019-09-24T13:56:10.001Z</time>
      </trkpt>
      <trkpt lat="47.97293" lon="5.72396">
        <ele>268.664</ele>
        <time>2019-09-24T13:56:13.001Z</time>
      </trkpt>
      <trkpt lat="47.9729" lon="5.72421">
        <ele>267.287</ele>
        <time>2019-09-24T15:56:16Z</time>
      </trkpt>
      <trkpt lat="47.97287" lon="5.72446">
        <ele>266.34</ele>
        <time>2019-09-24T13:56:19.001Z</time>
      </trkpt>
      <trkpt lat="47.97284" lon="5.72469">
        <ele>265.932</ele>
        <time>2019-09-24T13:56:22.001Z</time>
      </trkpt>
      <trkpt lat="47.97281" lon="5.72493">
        <ele>265.483</ele>
        <time>2019-09-24T13:56:25.001Z</time>
      </trkpt>
      <trkpt lat="47.97278" lon="5.72515">
        <ele>263.853</ele>
        <time>2019-09-24T13:56:28.001Z</time>
      </trkpt>
      <trkpt lat="47.97275" lon="5.72539">
        <ele>263.264</ele>
        <time>2019-09-24T13:56:31.001Z</time>
      </trkpt>
      <trkpt lat="47.97272" lon="5.72562">
        <ele>263.158</ele>
        <time>2019-09-24T13:56:34.001Z</time>
      </trkpt>
      <trkpt lat="47.97272" lon="5.72586">
        <ele>264.06</ele>
        <time>2019-09-24T13:56:37.001Z</time>
      </trkpt>
      <trkpt lat="47.97272" lon="5.72611">
        <ele>264.918</ele>
        <time>2019-09-24T13:56:40.001Z</time>
      </trkpt>
      <trkpt lat="47.97271" lon="5.72635">
        <ele>265.777</ele>
        <time>2019-09-24T13:56:43.001Z</time>
      </trkpt>
      <trkpt lat="47.97269" lon="5.72659">
        <ele>267.207</ele>
        <time>2019-09-24T13:56:46.001Z</time>
      </trkpt>
      <trkpt lat="47.97266" lon="5.72684">
        <ele>268.398</ele>
        <time>2019-09-24T13:56:49.001Z</time>
      </trkpt>
      <trkpt lat="47.97262" lon="5.72709">
        <ele>269.726</ele>
        <time>2019-09-24T13:56:52.001Z</time>
      </trkpt>
      <trkpt lat="47.97258" lon="5.72736">
        <ele>270.031</ele>
        <time>2019-09-24T13:56:55.001Z</time>
      </trkpt>
      <trkpt lat="47.97253" lon="5.72763">
        <ele>270.691</ele>
        <time>2019-09-24T13:56:58.001Z</time>
      </trkpt>
      <trkpt lat="47.97249" lon="5.72786">
        <ele>271.492</ele>
        <time>2019-09-24T13:57:01.001Z</time>
      </trkpt>
      <trkpt lat="47.97245" lon="5.72804">
        <ele>272.293</ele>
        <time>2019-09-24T13:57:04.001Z</time>
      </trkpt>
      <trkpt lat="47.97242" lon="5.72824">
        <ele>273.078</ele>
        <time>2019-09-24T13:57:07.001Z</time>
      </trkpt>
      <trkpt lat="47.97239" lon="5.72845">
        <ele>274.497</ele>
        <time>2019-09-24T13:57:10.001Z</time>
      </trkpt>
      <trkpt lat="47.97236" lon="5.72868">
        <ele>276.33</ele>
        <time>2019-09-24T13:57:13.001Z</time>
      </trkpt>
      <trkpt lat="47.9723" lon="5.72892">
        <ele>277.488</ele>
        <time>2019-09-24T15:57:16Z</time>
      </trkpt>
      <trkpt lat="47.97224" lon="5.72917">
        <ele>275.576</ele>
        <time>2019-09-24T13:57:19.001Z</time>
      </trkpt>
      <trkpt lat="47.97215" lon="5.72944">
        <ele>274.273</ele>
        <time>2019-09-24T13:57:22.001Z</time>
      </trkpt>
      <trkpt lat="47.97204" lon="5.72969">
        <ele>271.851</ele>
        <time>2019-09-24T13:57:25.001Z</time>
      </trkpt>
      <trkpt lat="47.97193" lon="5.72992">
        <ele>270.82</ele>
        <time>2019-09-24T13:57:28.001Z</time>
      </trkpt>
      <trkpt lat="47.97182" lon="5.73015">
        <ele>269.634</ele>
        <time>2019-09-24T13:57:31.001Z</time>
      </trkpt>
      <trkpt lat="47.97171" lon="5.73038">
        <ele>266.074</ele>
        <time>2019-09-24T13:57:34.001Z</time>
      </trkpt>
      <trkpt lat="47.9716" lon="5.73059">
        <ele>262.919</ele>
        <time>2019-09-24T13:57:37.001Z</time>
      </trkpt>
      <trkpt lat="47.97149" lon="5.73078">
        <ele>261.716</ele>
        <time>2019-09-24T13:57:40.001Z</time>
      </trkpt>
      <trkpt lat="47.97138" lon="5.73095">
        <ele>260.621</ele>
        <time>2019-09-24T13:57:43.001Z</time>
      </trkpt>
      <trkpt lat="47.97128" lon="5.7311">
        <ele>260.153</ele>
        <time>2019-09-24T13:57:46.001Z</time>
      </trkpt>
      <trkpt lat="47.97117" lon="5.73124">
        <ele>260.177</ele>
        <time>2019-09-24T13:57:49.001Z</time>
      </trkpt>
      <trkpt lat="47.97105" lon="5.73138">
        <ele>260.548</ele>
        <time>2019-09-24T13:57:52.001Z</time>
      </trkpt>
      <trkpt lat="47.97093" lon="5.73151">
        <ele>260.861</ele>
        <time>2019-09-24T13:57:55.001Z</time>
      </trkpt>
      <trkpt lat="47.97082" lon="5.73163">
        <ele>261.207</ele>
        <time>2019-09-24T13:57:58.001Z</time>
      </trkpt>
      <trkpt lat="47.9707" lon="5.73175">
        <ele>261.399</ele>
        <time>2019-09-24T13:58:01.001Z</time>
      </trkpt>
      <trkpt lat="47.97059" lon="5.73185">
        <ele>261.283</ele>
        <time>2019-09-24T13:58:04.001Z</time>
      </trkpt>
      <trkpt lat="47.97047" lon="5.73197">
        <ele>261.304</ele>
        <time>2019-09-24T13:58:07.001Z</time>
      </trkpt>
      <trkpt lat="47.97034" lon="5.7321">
        <ele>261.458</ele>
        <time>2019-09-24T13:58:10.001Z</time>
      </trkpt>
      <trkpt lat="47.97021" lon="5.73222">
        <ele>261.288</ele>
        <time>2019-09-24T13:58:13.001Z</time>
      </trkpt>
      <trkpt lat="47.97008" lon="5.73235">
        <ele>261.607</ele>
        <time>2019-09-24T15:58:16Z</time>
      </trkpt>
      <trkpt lat="47.96993" lon="5.73247">
        <ele>261.518</ele>
        <time>2019-09-24T13:58:19.001Z</time>
      </trkpt>
      <trkpt lat="47.96979" lon="5.73258">
        <ele>261.451</ele>
        <time>2019-09-24T13:58:22.001Z</time>
      </trkpt>
      <trkpt lat="47.96964" lon="5.7327">
        <ele>260.579</ele>
        <time>2019-09-24T13:58:25.001Z</time>
      </trkpt>
      <trkpt lat="47.96947" lon="5.73281">
        <ele>261.113</ele>
        <time>2019-09-24T13:58:28.001Z</time>
      </trkpt>
      <trkpt lat="47.96931" lon="5.73291">
        <ele>261.166</ele>
        <time>2019-09-24T13:58:31.001Z</time>
      </trkpt>
      <trkpt lat="47.96914" lon="5.73301">
        <ele>261.272</ele>
        <time>2019-09-24T13:58:34.001Z</time>
      </trkpt>
      <trkpt lat="47.96899" lon="5.73313">
        <ele>260.943</ele>
        <time>2019-09-24T13:58:37.001Z</time>
      </trkpt>
      <trkpt lat="47.96886" lon="5.73325">
        <ele>261.316</ele>
        <time>2019-09-24T13:58:40.001Z</time>
      </trkpt>
      <trkpt lat="47.96873" lon="5.73341">
        <ele>261.596</ele>
        <time>2019-09-24T13:58:43.001Z</time>
      </trkpt>
      <trkpt lat="47.9686" lon="5.73358">
        <ele>261.888</ele>
        <time>2019-09-24T13:58:46.001Z</time>
      </trkpt>
      <trkpt lat="47.96848" lon="5.73376">
        <ele>262.048</ele>
        <time>2019-09-24T13:58:49.001Z</time>
      </trkpt>
      <trkpt lat="47.96836" lon="5.73396">
        <ele>262.505</ele>
        <time>2019-09-24T13:58:52.001Z</time>
      </trkpt>
      <trkpt lat="47.96825" lon="5.73416">
        <ele>262.352</ele>
        <time>2019-09-24T13:58:55.001Z</time>
      </trkpt>
      <trkpt lat="47.96815" lon="5.73437">
        <ele>262.214</ele>
        <time>2019-09-24T13:58:58.001Z</time>
      </trkpt>
      <trkpt lat="47.96806" lon="5.73457">
        <ele>262.633</ele>
        <time>2019-09-24T13:59:01.001Z</time>
      </trkpt>
      <trkpt lat="47.96797" lon="5.73479">
        <ele>262.531</ele>
        <time>2019-09-24T13:59:04.001Z</time>
      </trkpt>
      <trkpt lat="47.96788" lon="5.73501">
        <ele>263.089</ele>
        <time>2019-09-24T13:59:07.001Z</time>
      </trkpt>
      <trkpt lat="47.96782" lon="5.73525">
        <ele>263.103</ele>
        <time>2019-09-24T13:59:10.001Z</time>
      </trkpt>
      <trkpt lat="47.96775" lon="5.73548">
        <ele>262.587</ele>
        <time>2019-09-24T13:59:13.001Z</time>
      </trkpt>
      <trkpt lat="47.9677" lon="5.73573">
        <ele>262.668</ele>
        <time>2019-09-24T15:59:16Z</time>
      </trkpt>
      <trkpt lat="47.96765" lon="5.73598">
        <ele>262.915</ele>
        <time>2019-09-24T13:59:19.001Z</time>
      </trkpt>
      <trkpt lat="47.9676" lon="5.7362">
        <ele>263.513</ele>
        <time>2019-09-24T13:59:22.001Z</time>
      </trkpt>
      <trkpt lat="47.96756" lon="5.73642">
        <ele>264.444</ele>
        <time>2019-09-24T13:59:25.001Z</time>
      </trkpt>
      <trkpt lat="47.96753" lon="5.73665">
        <ele>265.582</ele>
        <time>2019-09-24T13:59:28.001Z</time>
      </trkpt>
      <trkpt lat="47.96751" lon="5.73691">
        <ele>266.703</ele>
        <time>2019-09-24T13:59:31.001Z</time>
      </trkpt>
      <trkpt lat="47.96747" lon="5.73718">
        <ele>266.727</ele>
        <time>2019-09-24T13:59:34.001Z</time>
      </trkpt>
      <trkpt lat="47.96742" lon="5.73745">
        <ele>265.548</ele>
        <time>2019-09-24T13:59:37.001Z</time>
      </trkpt>
      <trkpt lat="47.96739" lon="5.73772">
        <ele>264.296</ele>
        <time>2019-09-24T13:59:40.001Z</time>
      </trkpt>
      <trkpt lat="47.96734" lon="5.73798">
        <ele>263.168</ele>
        <time>2019-09-24T13:59:43.001Z</time>
      </trkpt>
      <trkpt lat="47.9673" lon="5.73824">
        <ele>262.8</ele>
        <time>2019-09-24T13:59:46.001Z</time>
      </trkpt>
      <trkpt lat="47.96726" lon="5.73849">
        <ele>262.524</ele>
        <time>2019-09-24T13:59:49.001Z</time>
      </trkpt>
      <trkpt lat="47.96722" lon="5.73876">
        <ele>262.528</ele>
        <time>2019-09-24T13:59:52.001Z</time>
      </trkpt>
      <trkpt lat="47.96717" lon="5.73902">
        <ele>262.315</ele>
        <time>2019-09-24T13:59:55.001Z</time>
      </trkpt>
      <trkpt lat="47.96711" lon="5.73928">
        <ele>261.413</ele>
        <time>2019-09-24T13:59:58.001Z</time>
      </trkpt>
      <trkpt lat="47.96706" lon="5.73952">
        <ele>261.62</ele>
        <time>2019-09-24T14:00:01.001Z</time>
      </trkpt>
      <trkpt lat="47.967" lon="5.73975">
        <ele>261.261</ele>
        <time>2019-09-24T14:00:04.001Z</time>
      </trkpt>
      <trkpt lat="47.96694" lon="5.73999">
        <ele>260.501</ele>
        <time>2019-09-24T14:00:07.001Z</time>
      </trkpt>
      <trkpt lat="47.96686" lon="5.74022">
        <ele>259.069</ele>
        <time>2019-09-24T14:00:10.001Z</time>
      </trkpt>
      <trkpt lat="47.96677" lon="5.74045">
        <ele>258.258</ele>
        <time>2019-09-24T14:00:13.001Z</time>
      </trkpt>
      <trkpt lat="47.96668" lon="5.74065">
        <ele>258.009</ele>
        <time>2019-09-24T16:00:16Z</time>
      </trkpt>
      <trkpt lat="47.96657" lon="5.74084">
        <ele>257.562</ele>
        <time>2019-09-24T14:00:19.001Z</time>
      </trkpt>
      <trkpt lat="47.96646" lon="5.74103">
        <ele>257.185</ele>
        <time>2019-09-24T14:00:22.001Z</time>
      </trkpt>
      <trkpt lat="47.96634" lon="5.74121">
        <ele>256.667</ele>
        <time>2019-09-24T14:00:25.001Z</time>
      </trkpt>
      <trkpt lat="47.96621" lon="5.74137">
        <ele>256.645</ele>
        <time>2019-09-24T14:00:28.001Z</time>
      </trkpt>
      <trkpt lat="47.96608" lon="5.74152">
        <ele>256.83</ele>
        <time>2019-09-24T14:00:31.001Z</time>
      </trkpt>
      <trkpt lat="47.96594" lon="5.74165">
        <ele>257.199</ele>
        <time>2019-09-24T14:00:34.001Z</time>
      </trkpt>
      <trkpt lat="47.96581" lon="5.74177">
        <ele>257.38</ele>
        <time>2019-09-24T14:00:37.001Z</time>
      </trkpt>
      <trkpt lat="47.96568" lon="5.74191">
        <ele>257.424</ele>
        <time>2019-09-24T14:00:40.001Z</time>
      </trkpt>
      <trkpt lat="47.96554" lon="5.74202">
        <ele>258.232</ele>
        <time>2019-09-24T14:00:43.001Z</time>
      </trkpt>
      <trkpt lat="47.96541" lon="5.74212">
        <ele>258.435</ele>
        <time>2019-09-24T14:00:46.001Z</time>
      </trkpt>
      <trkpt lat="47.96528" lon="5.74221">
        <ele>258.563</ele>
        <time>2019-09-24T14:00:49.001Z</time>
      </trkpt>
      <trkpt lat="47.96515" lon="5.74231">
        <ele>258.6</ele>
        <time>2019-09-24T14:00:52.001Z</time>
      </trkpt>
      <trkpt lat="47.96502" lon="5.7424">
        <ele>258.442</ele>
        <time>2019-09-24T14:00:55.001Z</time>
      </trkpt>
      <trkpt lat="47.9649" lon="5.74249">
        <ele>258.6</ele>
        <time>2019-09-24T14:00:58.001Z</time>
      </trkpt>
      <trkpt lat="47.96478" lon="5.74258">
        <ele>258.799</ele>
        <time>2019-09-24T14:01:01.001Z</time>
      </trkpt>
      <trkpt lat="47.96466" lon="5.74267">
        <ele>259.127</ele>
        <time>2019-09-24T14:01:04.001Z</time>
      </trkpt>
      <trkpt lat="47.96454" lon="5.74276">
        <ele>259.26</ele>
        <time>2019-09-24T14:01:07.001Z</time>
      </trkpt>
      <trkpt lat="47.96439" lon="5.74286">
        <ele>259.38</ele>
        <time>2019-09-24T14:01:10.001Z</time>
      </trkpt>
      <trkpt lat="47.96425" lon="5.74296">
        <ele>260.052</ele>
        <time>2019-09-24T14:01:13.001Z</time>
      </trkpt>
      <trkpt lat="47.96413" lon="5.74305">
        <ele>260.412</ele>
        <time>2019-09-24T16:01:16Z</time>
      </trkpt>
      <trkpt lat="47.96402" lon="5.74315">
        <ele>260.309</ele>
        <time>2019-09-24T14:01:19.001Z</time>
      </trkpt>
      <trkpt lat="47.9639" lon="5.74327">
        <ele>260.266</ele>
        <time>2019-09-24T14:01:22.001Z</time>
      </trkpt>
      <trkpt lat="47.96377" lon="5.74339">
        <ele>259.901</ele>
        <time>2019-09-24T14:01:25.001Z</time>
      </trkpt>
      <trkpt lat="47.96366" lon="5.74354">
        <ele>259.541</ele>
        <time>2019-09-24T14:01:28.001Z</time>
      </trkpt>
      <trkpt lat="47.96355" lon="5.74371">
        <ele>260.294</ele>
        <time>2019-09-24T14:01:31.001Z</time>
      </trkpt>
      <trkpt lat="47.96344" lon="5.74387">
        <ele>260.877</ele>
        <time>2019-09-24T14:01:34.001Z</time>
      </trkpt>
      <trkpt lat="47.96333" lon="5.74403">
        <ele>260.532</ele>
        <time>2019-09-24T14:01:37.001Z</time>
      </trkpt>
      <trkpt lat="47.96322" lon="5.74419">
        <ele>259.954</ele>
        <time>2019-09-24T14:01:40.001Z</time>
      </trkpt>
      <trkpt lat="47.96312" lon="5.74434">
        <ele>259.508</ele>
        <time>2019-09-24T14:01:43.001Z</time>
      </trkpt>
      <trkpt lat="47.96301" lon="5.7445">
        <ele>259.309</ele>
        <time>2019-09-24T14:01:46.001Z</time>
      </trkpt>
      <trkpt lat="47.96291" lon="5.74465">
        <ele>259.03</ele>
        <time>2019-09-24T14:01:49.001Z</time>
      </trkpt>
      <trkpt lat="47.9628" lon="5.74479">
        <ele>258.138</ele>
        <time>2019-09-24T14:01:52.001Z</time>
      </trkpt>
      <trkpt lat="47.96267" lon="5.7449">
        <ele>257.773</ele>
        <time>2019-09-24T14:01:55.001Z</time>
      </trkpt>
      <trkpt lat="47.96253" lon="5.745">
        <ele>257.977</ele>
        <time>2019-09-24T14:01:58.001Z</time>
      </trkpt>
      <trkpt lat="47.96239" lon="5.74509">
        <ele>258.17</ele>
        <time>2019-09-24T14:02:01.001Z</time>
      </trkpt>
      <trkpt lat="47.96225" lon="5.74516">
        <ele>258.235</ele>
        <time>2019-09-24T14:02:04.001Z</time>
      </trkpt>
      <trkpt lat="47.96212" lon="5.74524">
        <ele>258.625</ele>
        <time>2019-09-24T14:02:07.001Z</time>
      </trkpt>
      <trkpt lat="47.96199" lon="5.74531">
        <ele>258.665</ele>
        <time>2019-09-24T14:02:10.001Z</time>
      </trkpt>
      <trkpt lat="47.96184" lon="5.74539">
        <ele>258.342</ele>
        <time>2019-09-24T14:02:13.001Z</time>
      </trkpt>
      <trkpt lat="47.9617" lon="5.74547">
        <ele>258.035</ele>
        <time>2019-09-24T16:02:16Z</time>
      </trkpt>
      <trkpt lat="47.96156" lon="5.74557">
        <ele>257.885</ele>
        <time>2019-09-24T14:02:19.001Z</time>
      </trkpt>
      <trkpt lat="47.96141" lon="5.74565">
        <ele>258.176</ele>
        <time>2019-09-24T14:02:22.001Z</time>
      </trkpt>
      <trkpt lat="47.96126" lon="5.74572">
        <ele>258.089</ele>
        <time>2019-09-24T14:02:25.001Z</time>
      </trkpt>
      <trkpt lat="47.96111" lon="5.7458">
        <ele>258.185</ele>
        <time>2019-09-24T14:02:28.001Z</time>
      </trkpt>
      <trkpt lat="47.96096" lon="5.74589">
        <ele>258.497</ele>
        <time>2019-09-24T14:02:31.001Z</time>
      </trkpt>
      <trkpt lat="47.96082" lon="5.74597">
        <ele>258.928</ele>
        <time>2019-09-24T14:02:34.001Z</time>
      </trkpt>
      <trkpt lat="47.96068" lon="5.74606">
        <ele>258.952</ele>
        <time>2019-09-24T14:02:37.001Z</time>
      </trkpt>
      <trkpt lat="47.96053" lon="5.74614">
        <ele>259.342</ele>
        <time>2019-09-24T14:02:40.001Z</time>
      </trkpt>
      <trkpt lat="47.96039" lon="5.74622">
        <ele>259.559</ele>
        <time>2019-09-24T14:02:43.001Z</time>
      </trkpt>
      <trkpt lat="47.96026" lon="5.74631">
        <ele>259.666</ele>
        <time>2019-09-24T14:02:46.001Z</time>
      </trkpt>
      <trkpt lat="47.96013" lon="5.74637">
        <ele>259.747</ele>
        <time>2019-09-24T14:02:49.001Z</time>
      </trkpt>
      <trkpt lat="47.96001" lon="5.74644">
        <ele>259.767</ele>
        <time>2019-09-24T14:02:52.001Z</time>
      </trkpt>
      <trkpt lat="47.95988" lon="5.7465">
        <ele>260.475</ele>
        <time>2019-09-24T14:02:55.001Z</time>
      </trkpt>
      <trkpt lat="47.95977" lon="5.74657">
        <ele>260.771</ele>
        <time>2019-09-24T14:02:58.001Z</time>
      </trkpt>
      <trkpt lat="47.95966" lon="5.74659">
        <ele>260.794</ele>
        <time>2019-09-24T14:03:01.001Z</time>
      </trkpt>
      <trkpt lat="47.95959" lon="5.74647">
        <ele>261.089</ele>
        <time>2019-09-24T14:03:04.001Z</time>
      </trkpt>
      <trkpt lat="47.95955" lon="5.74631">
        <ele>261.173</ele>
        <time>2019-09-24T14:03:07.001Z</time>
      </trkpt>
      <trkpt lat="47.95952" lon="5.74618">
        <ele>260.764</ele>
        <time>2019-09-24T14:03:10.001Z</time>
      </trkpt>
      <trkpt lat="47.95952" lon="5.74604">
        <ele>260.466</ele>
        <time>2019-09-24T14:03:13.001Z</time>
      </trkpt>
      <trkpt lat="47.95956" lon="5.74587">
        <ele>260.903</ele>
        <time>2019-09-24T16:03:16Z</time>
      </trkpt>
      <trkpt lat="47.95962" lon="5.74571">
        <ele>261.325</ele>
        <time>2019-09-24T14:03:19.001Z</time>
      </trkpt>
      <trkpt lat="47.95968" lon="5.74551">
        <ele>261.338</ele>
        <time>2019-09-24T14:03:22.001Z</time>
      </trkpt>
      <trkpt lat="47.95975" lon="5.74531">
        <ele>261.692</ele>
        <time>2019-09-24T14:03:25.001Z</time>
      </trkpt>
      <trkpt lat="47.95981" lon="5.74509">
        <ele>261.484</ele>
        <time>2019-09-24T14:03:28.001Z</time>
      </trkpt>
      <trkpt lat="47.95987" lon="5.74487">
        <ele>261.666</ele>
        <time>2019-09-24T14:03:31.001Z</time>
      </trkpt>
      <trkpt lat="47.95992" lon="5.74464">
        <ele>261.803</ele>
        <time>2019-09-24T14:03:34.001Z</time>
      </trkpt>
      <trkpt lat="47.95996" lon="5.74442">
        <ele>261.239</ele>
        <time>2019-09-24T14:03:37.001Z</time>
      </trkpt>
      <trkpt lat="47.95999" lon="5.7442">
        <ele>261.276</ele>
        <time>2019-09-24T14:03:40.001Z</time>
      </trkpt>
      <trkpt lat="47.95998" lon="5.74398">
        <ele>261.066</ele>
        <time>2019-09-24T14:03:43.001Z</time>
      </trkpt>
      <trkpt lat="47.95996" lon="5.74378">
        <ele>261.185</ele>
        <time>2019-09-24T14:03:46.001Z</time>
      </trkpt>
      <trkpt lat="47.95989" lon="5.7436">
        <ele>261.457</ele>
        <time>2019-09-24T14:03:49.001Z</time>
      </trkpt>
      <trkpt lat="47.95979" lon="5.74348">
        <ele>261.352</ele>
        <time>2019-09-24T14:03:52.001Z</time>
      </trkpt>
      <trkpt lat="47.95967" lon="5.74339">
        <ele>260.871</ele>
        <time>2019-09-24T14:03:55.001Z</time>
      </trkpt>
      <trkpt lat="47.95956" lon="5.7433">
        <ele>260.79</ele>
        <time>2019-09-24T14:03:58.001Z</time>
      </trkpt>
      <trkpt lat="47.95946" lon="5.74322">
        <ele>260.869</ele>
        <time>2019-09-24T14:04:01.001Z</time>
      </trkpt>
      <trkpt lat="47.95936" lon="5.74315">
        <ele>261.122</ele>
        <time>2019-09-24T14:04:04.001Z</time>
      </trkpt>
      <trkpt lat="47.95927" lon="5.74308">
        <ele>261.006</ele>
        <time>2019-09-24T14:04:07.001Z</time>
      </trkpt>
      <trkpt lat="47.95918" lon="5.74301">
        <ele>260.878</ele>
        <time>2019-09-24T14:04:10.001Z</time>
      </trkpt>
      <trkpt lat="47.9591" lon="5.74295">
        <ele>261.469</ele>
        <time>2019-09-24T14:04:13.001Z</time>
      </trkpt>
      <trkpt lat="47.95902" lon="5.74288">
        <ele>262.337</ele>
        <time>2019-09-24T16:04:16Z</time>
      </trkpt>
      <trkpt lat="47.95894" lon="5.74281">
        <ele>263.156</ele>
        <time>2019-09-24T14:04:19.001Z</time>
      </trkpt>
      <trkpt lat="47.95887" lon="5.74273">
        <ele>263.611</ele>
        <time>2019-09-24T14:04:22.001Z</time>
      </trkpt>
      <trkpt lat="47.9588" lon="5.74265">
        <ele>264.376</ele>
        <time>2019-09-24T14:04:25.001Z</time>
      </trkpt>
      <trkpt lat="47.95873" lon="5.74258">
        <ele>265.036</ele>
        <time>2019-09-24T14:04:28.001Z</time>
      </trkpt>
      <trkpt lat="47.95866" lon="5.74252">
        <ele>265.556</ele>
        <time>2019-09-24T14:04:31.001Z</time>
      </trkpt>
      <trkpt lat="47.9586" lon="5.74247">
        <ele>265.872</ele>
        <time>2019-09-24T14:04:34.001Z</time>
      </trkpt>
      <trkpt lat="47.95854" lon="5.74242">
        <ele>266.827</ele>
        <time>2019-09-24T14:04:37.001Z</time>
      </trkpt>
      <trkpt lat="47.95847" lon="5.74238">
        <ele>267.511</ele>
        <time>2019-09-24T14:04:40.001Z</time>
      </trkpt>
      <trkpt lat="47.9584" lon="5.74235">
        <ele>268.092</ele>
        <time>2019-09-24T14:04:43.001Z</time>
      </trkpt>
      <trkpt lat="47.95833" lon="5.74232">
        <ele>269.137</ele>
        <time>2019-09-24T14:04:46.001Z</time>
      </trkpt>
      <trkpt lat="47.95826" lon="5.74229">
        <ele>270.512</ele>
        <time>2019-09-24T14:04:49.001Z</time>
      </trkpt>
      <trkpt lat="47.9582" lon="5.74228">
        <ele>271.383</ele>
        <time>2019-09-24T14:04:52.001Z</time>
      </trkpt>
      <trkpt lat="47.95813" lon="5.74226">
        <ele>272.29</ele>
        <time>2019-09-24T14:04:55.001Z</time>
      </trkpt>
      <trkpt lat="47.95806" lon="5.74224">
        <ele>272.977</ele>
        <time>2019-09-24T14:04:58.001Z</time>
      </trkpt>
      <trkpt lat="47.958" lon="5.74223">
        <ele>273.965</ele>
        <time>2019-09-24T14:05:01.001Z</time>
      </trkpt>
      <trkpt lat="47.95793" lon="5.74221">
        <ele>275.251</ele>
        <time>2019-09-24T14:05:04.001Z</time>
      </trkpt>
      <trkpt lat="47.95786" lon="5.7422">
        <ele>275.45</ele>
        <time>2019-09-24T14:05:07.001Z</time>
      </trkpt>
      <trkpt lat="47.95779" lon="5.74217">
        <ele>276.015</ele>
        <time>2019-09-24T14:05:10.001Z</time>
      </trkpt>
      <trkpt lat="47.95772" lon="5.74215">
        <ele>276.337</ele>
        <time>2019-09-24T14:05:13.001Z</time>
      </trkpt>
      <trkpt lat="47.95764" lon="5.74214">
        <ele>276.912</ele>
        <time>2019-09-24T16:05:16Z</time>
      </trkpt>
      <trkpt lat="47.95757" lon="5.74212">
        <ele>277.497</ele>
        <time>2019-09-24T14:05:19.001Z</time>
      </trkpt>
      <trkpt lat="47.9575" lon="5.74211">
        <ele>278.217</ele>
        <time>2019-09-24T14:05:22.001Z</time>
      </trkpt>
      <trkpt lat="47.95742" lon="5.74209">
        <ele>278.821</ele>
        <time>2019-09-24T14:05:25.001Z</time>
      </trkpt>
      <trkpt lat="47.95735" lon="5.74204">
        <ele>279.004</ele>
        <time>2019-09-24T14:05:28.001Z</time>
      </trkpt>
      <trkpt lat="47.95733" lon="5.74193">
        <ele>279.269</ele>
        <time>2019-09-24T14:05:31.001Z</time>
      </trkpt>
      <trkpt lat="47.95733" lon="5.74182">
        <ele>280.045</ele>
        <time>2019-09-24T14:05:34.002Z</time>
      </trkpt>
      <trkpt lat="47.95732" lon="5.7417">
        <ele>280.215</ele>
        <time>2019-09-24T14:05:37.001Z</time>
      </trkpt>
      <trkpt lat="47.95733" lon="5.74159">
        <ele>280.814</ele>
        <time>2019-09-24T14:05:40.001Z</time>
      </trkpt>
      <trkpt lat="47.95734" lon="5.74147">
        <ele>280.909</ele>
        <time>2019-09-24T14:05:43.001Z</time>
      </trkpt>
      <trkpt lat="47.95736" lon="5.74136">
        <ele>280.618</ele>
        <time>2019-09-24T14:05:46.001Z</time>
      </trkpt>
      <trkpt lat="47.95735" lon="5.74126">
        <ele>281.625</ele>
        <time>2019-09-24T14:05:49.001Z</time>
      </trkpt>
      <trkpt lat="47.95734" lon="5.74114">
        <ele>283.104</ele>
        <time>2019-09-24T14:05:52.001Z</time>
      </trkpt>
      <trkpt lat="47.95734" lon="5.74102">
        <ele>284.04</ele>
        <time>2019-09-24T14:05:55.001Z</time>
      </trkpt>
      <trkpt lat="47.95734" lon="5.74089">
        <ele>284.549</ele>
        <time>2019-09-24T14:05:58.001Z</time>
      </trkpt>
      <trkpt lat="47.95734" lon="5.74076">
        <ele>284.977</ele>
        <time>2019-09-24T14:06:01.001Z</time>
      </trkpt>
      <trkpt lat="47.95734" lon="5.74064">
        <ele>285.098</ele>
        <time>2019-09-24T14:06:04.001Z</time>
      </trkpt>
      <trkpt lat="47.95734" lon="5.74053">
        <ele>285.324</ele>
        <time>2019-09-24T14:06:07.001Z</time>
      </trkpt>
      <trkpt lat="47.95733" lon="5.74042">
        <ele>285.044</ele>
        <time>2019-09-24T14:06:10.001Z</time>
      </trkpt>
      <trkpt lat="47.95732" lon="5.74032">
        <ele>284.796</ele>
        <time>2019-09-24T14:06:13.001Z</time>
      </trkpt>
      <trkpt lat="47.95731" lon="5.74024">
        <ele>283.771</ele>
        <time>2019-09-24T16:06:16Z</time>
      </trkpt>
      <trkpt lat="47.95731" lon="5.74017">
        <ele>283.1</ele>
        <time>2019-09-24T14:06:19.001Z</time>
      </trkpt>
      <trkpt lat="47.95733" lon="5.74013">
        <ele>282.817</ele>
        <time>2019-09-24T14:06:22.001Z</time>
      </trkpt>
      <trkpt lat="47.95719" lon="5.73995">
        <ele>280.719</ele>
        <time>2019-09-24T16:13:16Z</time>
      </trkpt>
      <trkpt lat="47.95719" lon="5.73995">
        <ele>279.206</ele>
        <time>2019-09-24T14:13:22.001Z</time>
      </trkpt>
      <trkpt lat="47.95703" lon="5.73991">
        <ele>278.942</ele>
        <time>2019-09-24T14:13:25.001Z</time>
      </trkpt>
      <trkpt lat="47.95696" lon="5.73993">
        <ele>279.495</ele>
        <time>2019-09-24T14:13:31.001Z</time>
      </trkpt>
      <trkpt lat="47.95695" lon="5.73998">
        <ele>280.419</ele>
        <time>2019-09-24T14:13:37.001Z</time>
      </trkpt>
      <trkpt lat="47.95694" lon="5.74">
        <ele>281.363</ele>
        <time>2019-09-24T14:13:40.001Z</time>
      </trkpt>
      <trkpt lat="47.95694" lon="5.74">
        <ele>280.516</ele>
        <time>2019-09-24T14:17:49.001Z</time>
      </trkpt>
      <trkpt lat="47.95694" lon="5.73999">
        <ele>279.376</ele>
        <time>2019-09-24T14:17:52.001Z</time>
      </trkpt>
      <trkpt lat="47.95693" lon="5.73998">
        <ele>279.376</ele>
        <time>2019-09-24T14:17:58.001Z</time>
      </trkpt>
      <trkpt lat="47.95693" lon="5.73998">
        <ele>279.376</ele>
        <time>2019-09-24T14:18:01.001Z</time>
      </trkpt>
      <trkpt lat="47.95693" lon="5.73998">
        <ele>279.376</ele>
        <time>2019-09-24T14:23:52.001Z</time>
      </trkpt>
      <trkpt lat="47.95692" lon="5.73999">
        <ele>279.376</ele>
        <time>2019-09-24T14:23:55.001Z</time>
      </trkpt>
      <trkpt lat="47.95693" lon="5.74002">
        <ele>280.445</ele>
        <time>2019-09-24T14:24:40.001Z</time>
      </trkpt>
      <trkpt lat="47.95693" lon="5.74002">
        <ele>280.445</ele>
        <time>2019-09-24T14:24:43.001Z</time>
      </trkpt>
      <trkpt lat="47.95693" lon="5.74002">
        <ele>280.445</ele>
        <time>2019-09-24T14:24:49.001Z</time>
      </trkpt>
      <trkpt lat="47.95693" lon="5.74002">
        <ele>280.445</ele>
        <time>2019-09-24T14:24:52.001Z</time>
      </trkpt>
      <trkpt lat="47.95692" lon="5.74003">
        <ele>280.662</ele>
        <time>2019-09-24T14:25:13.001Z</time>
      </trkpt>
      <trkpt lat="47.95692" lon="5.74003">
        <ele>280.662</ele>
        <time>2019-09-24T16:25:16Z</time>
      </trkpt>
      <trkpt lat="47.95692" lon="5.74003">
        <ele>280.662</ele>
        <time>2019-09-24T14:25:19.001Z</time>
      </trkpt>
      <trkpt lat="47.95692" lon="5.74003">
        <ele>280.662</ele>
        <time>2019-09-24T14:25:22.001Z</time>
      </trkpt>
      <trkpt lat="47.95692" lon="5.74003">
        <ele>280.662</ele>
        <time>2019-09-24T14:25:28.001Z</time>
      </trkpt>
      <trkpt lat="47.95692" lon="5.74003">
        <ele>280.662</ele>
        <time>2019-09-24T14:25:31.001Z</time>
      </trkpt>
      <trkpt lat="47.95692" lon="5.74003">
        <ele>280.662</ele>
        <time>2019-09-24T14:25:49.001Z</time>
      </trkpt>
      <trkpt lat="47.95692" lon="5.74004">
        <ele>280.662</ele>
        <time>2019-09-24T14:25:52.001Z</time>
      </trkpt>
    </trkseg>
  </trk>
</gpx>